<?xml version="1.0" encoding="UTF-8" standalone="no" ?>
<gpx xmlns="http://www.topografix.com/GPX/1/1" xmlns:xsi="http://www.w3.org/2001/XMLSchema-instance" xsi:schemaLocation="http://www.topografix.com/GPX/1/1 http://www.topografix.com/GPX/1/1/gpx.xsd" version="1.1" creator="VisuGPX - https://www.visugpx.com">
  <metadata>
    <name>Kuurne VTT</name>
  </metadata>
  <trk>
    <name><![CDATA[Kuurne VTT_1]]></name>
    <trkseg>
      <trkpt lat="50.85246" lon="3.27154">
        <ele>20.2</ele>
        <time>2023-10-28T05:56:08Z</time>
      </trkpt>
      <trkpt lat="50.85246" lon="3.27154">
        <ele>17</ele>
        <time>2023-10-28T05:56:09Z</time>
      </trkpt>
      <trkpt lat="50.85243" lon="3.27148">
        <ele>16.6</ele>
        <time>2023-10-28T05:57:10Z</time>
      </trkpt>
      <trkpt lat="50.85247" lon="3.27156">
        <ele>16.6</ele>
        <time>2023-10-28T05:57:13Z</time>
      </trkpt>
      <trkpt lat="50.85248" lon="3.27156">
        <ele>16.6</ele>
        <time>2023-10-28T05:57:14Z</time>
      </trkpt>
      <trkpt lat="50.8525" lon="3.27156">
        <ele>16.6</ele>
        <time>2023-10-28T05:57:15Z</time>
      </trkpt>
      <trkpt lat="50.85256" lon="3.27154">
        <ele>16.6</ele>
        <time>2023-10-28T05:57:17Z</time>
      </trkpt>
      <trkpt lat="50.85259" lon="3.27152">
        <ele>16.6</ele>
        <time>2023-10-28T05:57:18Z</time>
      </trkpt>
      <trkpt lat="50.85262" lon="3.27151">
        <ele>16.6</ele>
        <time>2023-10-28T05:57:19Z</time>
      </trkpt>
      <trkpt lat="50.85265" lon="3.27151">
        <ele>16.6</ele>
        <time>2023-10-28T05:57:20Z</time>
      </trkpt>
      <trkpt lat="50.85267" lon="3.2715">
        <ele>16.6</ele>
        <time>2023-10-28T05:57:21Z</time>
      </trkpt>
      <trkpt lat="50.85275" lon="3.27154">
        <ele>16.6</ele>
        <time>2023-10-28T05:57:24Z</time>
      </trkpt>
      <trkpt lat="50.85277" lon="3.27158">
        <ele>16.6</ele>
        <time>2023-10-28T05:57:25Z</time>
      </trkpt>
      <trkpt lat="50.85279" lon="3.27167">
        <ele>16.6</ele>
        <time>2023-10-28T05:57:27Z</time>
      </trkpt>
      <trkpt lat="50.85281" lon="3.2717">
        <ele>16.6</ele>
        <time>2023-10-28T05:57:28Z</time>
      </trkpt>
      <trkpt lat="50.85283" lon="3.27175">
        <ele>16.6</ele>
        <time>2023-10-28T05:57:29Z</time>
      </trkpt>
      <trkpt lat="50.85287" lon="3.27184">
        <ele>16.6</ele>
        <time>2023-10-28T05:57:31Z</time>
      </trkpt>
      <trkpt lat="50.85292" lon="3.27197">
        <ele>16.6</ele>
        <time>2023-10-28T05:57:33Z</time>
      </trkpt>
      <trkpt lat="50.85295" lon="3.2721">
        <ele>16.6</ele>
        <time>2023-10-28T05:57:35Z</time>
      </trkpt>
      <trkpt lat="50.85296" lon="3.27217">
        <ele>16.6</ele>
        <time>2023-10-28T05:57:36Z</time>
      </trkpt>
      <trkpt lat="50.85297" lon="3.27223">
        <ele>16.8</ele>
        <time>2023-10-28T05:57:37Z</time>
      </trkpt>
      <trkpt lat="50.85296" lon="3.27229">
        <ele>16.8</ele>
        <time>2023-10-28T05:57:38Z</time>
      </trkpt>
      <trkpt lat="50.85295" lon="3.2724">
        <ele>16.8</ele>
        <time>2023-10-28T05:57:40Z</time>
      </trkpt>
      <trkpt lat="50.85295" lon="3.27251">
        <ele>17</ele>
        <time>2023-10-28T05:57:42Z</time>
      </trkpt>
      <trkpt lat="50.85296" lon="3.27258">
        <ele>17</ele>
        <time>2023-10-28T05:57:43Z</time>
      </trkpt>
      <trkpt lat="50.85298" lon="3.27272">
        <ele>17</ele>
        <time>2023-10-28T05:57:45Z</time>
      </trkpt>
      <trkpt lat="50.853" lon="3.27285">
        <ele>17</ele>
        <time>2023-10-28T05:57:47Z</time>
      </trkpt>
      <trkpt lat="50.85302" lon="3.27307">
        <ele>17</ele>
        <time>2023-10-28T05:57:50Z</time>
      </trkpt>
      <trkpt lat="50.85301" lon="3.27313">
        <ele>17</ele>
        <time>2023-10-28T05:57:51Z</time>
      </trkpt>
      <trkpt lat="50.85301" lon="3.27319">
        <ele>17</ele>
        <time>2023-10-28T05:57:52Z</time>
      </trkpt>
      <trkpt lat="50.853" lon="3.27324">
        <ele>17</ele>
        <time>2023-10-28T05:57:53Z</time>
      </trkpt>
      <trkpt lat="50.85299" lon="3.27329">
        <ele>17</ele>
        <time>2023-10-28T05:57:54Z</time>
      </trkpt>
      <trkpt lat="50.85298" lon="3.27331">
        <ele>17</ele>
        <time>2023-10-28T05:57:55Z</time>
      </trkpt>
      <trkpt lat="50.85297" lon="3.27332">
        <ele>17</ele>
        <time>2023-10-28T05:57:56Z</time>
      </trkpt>
      <trkpt lat="50.85297" lon="3.27334">
        <ele>17</ele>
        <time>2023-10-28T05:57:57Z</time>
      </trkpt>
      <trkpt lat="50.85297" lon="3.27334">
        <ele>17</ele>
        <time>2023-10-28T05:57:58Z</time>
      </trkpt>
      <trkpt lat="50.85296" lon="3.2734">
        <ele>17</ele>
        <time>2023-10-28T05:57:59Z</time>
      </trkpt>
      <trkpt lat="50.85295" lon="3.27343">
        <ele>17</ele>
        <time>2023-10-28T05:58:00Z</time>
      </trkpt>
      <trkpt lat="50.85294" lon="3.27345">
        <ele>17</ele>
        <time>2023-10-28T05:58:01Z</time>
      </trkpt>
      <trkpt lat="50.85292" lon="3.27345">
        <ele>17</ele>
        <time>2023-10-28T05:58:02Z</time>
      </trkpt>
      <trkpt lat="50.85291" lon="3.27346">
        <ele>17</ele>
        <time>2023-10-28T05:58:03Z</time>
      </trkpt>
      <trkpt lat="50.8529" lon="3.27346">
        <ele>17.2</ele>
        <time>2023-10-28T05:58:04Z</time>
      </trkpt>
      <trkpt lat="50.85288" lon="3.27346">
        <ele>17.2</ele>
        <time>2023-10-28T05:58:05Z</time>
      </trkpt>
      <trkpt lat="50.85287" lon="3.27346">
        <ele>17.2</ele>
        <time>2023-10-28T05:58:06Z</time>
      </trkpt>
      <trkpt lat="50.85286" lon="3.27346">
        <ele>17.4</ele>
        <time>2023-10-28T05:58:07Z</time>
      </trkpt>
      <trkpt lat="50.85285" lon="3.27345">
        <ele>17.4</ele>
        <time>2023-10-28T05:58:08Z</time>
      </trkpt>
      <trkpt lat="50.85285" lon="3.27347">
        <ele>17.4</ele>
        <time>2023-10-28T05:58:10Z</time>
      </trkpt>
      <trkpt lat="50.85259" lon="3.27341">
        <ele>17</ele>
        <time>2023-10-28T05:58:36Z</time>
      </trkpt>
      <trkpt lat="50.85258" lon="3.27338">
        <ele>17</ele>
        <time>2023-10-28T05:58:37Z</time>
      </trkpt>
      <trkpt lat="50.85258" lon="3.27335">
        <ele>17</ele>
        <time>2023-10-28T05:58:38Z</time>
      </trkpt>
      <trkpt lat="50.85257" lon="3.27332">
        <ele>17</ele>
        <time>2023-10-28T05:58:39Z</time>
      </trkpt>
      <trkpt lat="50.85257" lon="3.2733">
        <ele>17</ele>
        <time>2023-10-28T05:58:40Z</time>
      </trkpt>
      <trkpt lat="50.85257" lon="3.27327">
        <ele>17</ele>
        <time>2023-10-28T05:58:41Z</time>
      </trkpt>
      <trkpt lat="50.85254" lon="3.2731">
        <ele>17.4</ele>
        <time>2023-10-28T05:58:45Z</time>
      </trkpt>
      <trkpt lat="50.85254" lon="3.27307">
        <ele>17.4</ele>
        <time>2023-10-28T05:58:46Z</time>
      </trkpt>
      <trkpt lat="50.85254" lon="3.27303">
        <ele>17.4</ele>
        <time>2023-10-28T05:58:47Z</time>
      </trkpt>
      <trkpt lat="50.85255" lon="3.27299">
        <ele>17.4</ele>
        <time>2023-10-28T05:58:48Z</time>
      </trkpt>
      <trkpt lat="50.85254" lon="3.27278">
        <ele>17.4</ele>
        <time>2023-10-28T05:58:53Z</time>
      </trkpt>
      <trkpt lat="50.85256" lon="3.27246">
        <ele>17.2</ele>
        <time>2023-10-28T05:59:01Z</time>
      </trkpt>
      <trkpt lat="50.85255" lon="3.27244">
        <ele>17.2</ele>
        <time>2023-10-28T05:59:02Z</time>
      </trkpt>
      <trkpt lat="50.85255" lon="3.27243">
        <ele>17.2</ele>
        <time>2023-10-28T05:59:03Z</time>
      </trkpt>
      <trkpt lat="50.85254" lon="3.27242">
        <ele>17</ele>
        <time>2023-10-28T05:59:04Z</time>
      </trkpt>
      <trkpt lat="50.85253" lon="3.27242">
        <ele>17</ele>
        <time>2023-10-28T05:59:05Z</time>
      </trkpt>
      <trkpt lat="50.85251" lon="3.27241">
        <ele>17</ele>
        <time>2023-10-28T05:59:06Z</time>
      </trkpt>
      <trkpt lat="50.85248" lon="3.27241">
        <ele>17</ele>
        <time>2023-10-28T05:59:08Z</time>
      </trkpt>
      <trkpt lat="50.85246" lon="3.27241">
        <ele>17</ele>
        <time>2023-10-28T05:59:09Z</time>
      </trkpt>
      <trkpt lat="50.85244" lon="3.27241">
        <ele>17</ele>
        <time>2023-10-28T05:59:10Z</time>
      </trkpt>
      <trkpt lat="50.85243" lon="3.27241">
        <ele>17</ele>
        <time>2023-10-28T05:59:11Z</time>
      </trkpt>
      <trkpt lat="50.85241" lon="3.27241">
        <ele>17</ele>
        <time>2023-10-28T05:59:12Z</time>
      </trkpt>
      <trkpt lat="50.85232" lon="3.2724">
        <ele>16.8</ele>
        <time>2023-10-28T05:59:18Z</time>
      </trkpt>
      <trkpt lat="50.8523" lon="3.27239">
        <ele>16.8</ele>
        <time>2023-10-28T05:59:19Z</time>
      </trkpt>
      <trkpt lat="50.8523" lon="3.27237">
        <ele>16.8</ele>
        <time>2023-10-28T05:59:20Z</time>
      </trkpt>
      <trkpt lat="50.85229" lon="3.27235">
        <ele>16.8</ele>
        <time>2023-10-28T05:59:21Z</time>
      </trkpt>
      <trkpt lat="50.85228" lon="3.27232">
        <ele>16.8</ele>
        <time>2023-10-28T05:59:22Z</time>
      </trkpt>
      <trkpt lat="50.85227" lon="3.27229">
        <ele>16.8</ele>
        <time>2023-10-28T05:59:23Z</time>
      </trkpt>
      <trkpt lat="50.85225" lon="3.27226">
        <ele>16.8</ele>
        <time>2023-10-28T05:59:24Z</time>
      </trkpt>
      <trkpt lat="50.85224" lon="3.27225">
        <ele>16.8</ele>
        <time>2023-10-28T05:59:25Z</time>
      </trkpt>
      <trkpt lat="50.85222" lon="3.27224">
        <ele>16.8</ele>
        <time>2023-10-28T05:59:26Z</time>
      </trkpt>
      <trkpt lat="50.8522" lon="3.27224">
        <ele>16.8</ele>
        <time>2023-10-28T05:59:27Z</time>
      </trkpt>
      <trkpt lat="50.85216" lon="3.27227">
        <ele>16.6</ele>
        <time>2023-10-28T05:59:29Z</time>
      </trkpt>
      <trkpt lat="50.85213" lon="3.27231">
        <ele>16.6</ele>
        <time>2023-10-28T05:59:31Z</time>
      </trkpt>
      <trkpt lat="50.85212" lon="3.27233">
        <ele>16.6</ele>
        <time>2023-10-28T05:59:32Z</time>
      </trkpt>
      <trkpt lat="50.8521" lon="3.27235">
        <ele>16.6</ele>
        <time>2023-10-28T05:59:33Z</time>
      </trkpt>
      <trkpt lat="50.85207" lon="3.27243">
        <ele>16.6</ele>
        <time>2023-10-28T05:59:36Z</time>
      </trkpt>
      <trkpt lat="50.85207" lon="3.27247">
        <ele>16.6</ele>
        <time>2023-10-28T05:59:37Z</time>
      </trkpt>
      <trkpt lat="50.85208" lon="3.27251">
        <ele>16.6</ele>
        <time>2023-10-28T05:59:38Z</time>
      </trkpt>
      <trkpt lat="50.85208" lon="3.27255">
        <ele>16.6</ele>
        <time>2023-10-28T05:59:39Z</time>
      </trkpt>
      <trkpt lat="50.85207" lon="3.27258">
        <ele>16.6</ele>
        <time>2023-10-28T05:59:40Z</time>
      </trkpt>
      <trkpt lat="50.85207" lon="3.2726">
        <ele>16.6</ele>
        <time>2023-10-28T05:59:41Z</time>
      </trkpt>
      <trkpt lat="50.85207" lon="3.27262">
        <ele>16.6</ele>
        <time>2023-10-28T05:59:42Z</time>
      </trkpt>
      <trkpt lat="50.85206" lon="3.27265">
        <ele>16.6</ele>
        <time>2023-10-28T05:59:43Z</time>
      </trkpt>
      <trkpt lat="50.85205" lon="3.27267">
        <ele>16.6</ele>
        <time>2023-10-28T05:59:44Z</time>
      </trkpt>
      <trkpt lat="50.85205" lon="3.27272">
        <ele>16.6</ele>
        <time>2023-10-28T05:59:45Z</time>
      </trkpt>
      <trkpt lat="50.85206" lon="3.27275">
        <ele>16.8</ele>
        <time>2023-10-28T05:59:46Z</time>
      </trkpt>
      <trkpt lat="50.85206" lon="3.27277">
        <ele>16.8</ele>
        <time>2023-10-28T05:59:47Z</time>
      </trkpt>
      <trkpt lat="50.85207" lon="3.27279">
        <ele>16.8</ele>
        <time>2023-10-28T05:59:48Z</time>
      </trkpt>
      <trkpt lat="50.85207" lon="3.27282">
        <ele>16.8</ele>
        <time>2023-10-28T05:59:49Z</time>
      </trkpt>
      <trkpt lat="50.85208" lon="3.27285">
        <ele>16.8</ele>
        <time>2023-10-28T05:59:50Z</time>
      </trkpt>
      <trkpt lat="50.85212" lon="3.27301">
        <ele>17</ele>
        <time>2023-10-28T05:59:54Z</time>
      </trkpt>
      <trkpt lat="50.85213" lon="3.27311">
        <ele>17</ele>
        <time>2023-10-28T05:59:56Z</time>
      </trkpt>
      <trkpt lat="50.85212" lon="3.27316">
        <ele>17</ele>
        <time>2023-10-28T05:59:57Z</time>
      </trkpt>
      <trkpt lat="50.85211" lon="3.27321">
        <ele>17</ele>
        <time>2023-10-28T05:59:58Z</time>
      </trkpt>
      <trkpt lat="50.8521" lon="3.27325">
        <ele>17</ele>
        <time>2023-10-28T05:59:59Z</time>
      </trkpt>
      <trkpt lat="50.85209" lon="3.27328">
        <ele>17</ele>
        <time>2023-10-28T06:00:00Z</time>
      </trkpt>
      <trkpt lat="50.85209" lon="3.27338">
        <ele>17</ele>
        <time>2023-10-28T06:00:03Z</time>
      </trkpt>
      <trkpt lat="50.85212" lon="3.27341">
        <ele>17</ele>
        <time>2023-10-28T06:00:04Z</time>
      </trkpt>
      <trkpt lat="50.85214" lon="3.27343">
        <ele>17</ele>
        <time>2023-10-28T06:00:05Z</time>
      </trkpt>
      <trkpt lat="50.85224" lon="3.27345">
        <ele>17</ele>
        <time>2023-10-28T06:00:09Z</time>
      </trkpt>
      <trkpt lat="50.85226" lon="3.27347">
        <ele>17</ele>
        <time>2023-10-28T06:00:10Z</time>
      </trkpt>
      <trkpt lat="50.85229" lon="3.27351">
        <ele>17</ele>
        <time>2023-10-28T06:00:11Z</time>
      </trkpt>
      <trkpt lat="50.85231" lon="3.27354">
        <ele>17</ele>
        <time>2023-10-28T06:00:12Z</time>
      </trkpt>
      <trkpt lat="50.85233" lon="3.27357">
        <ele>17</ele>
        <time>2023-10-28T06:00:13Z</time>
      </trkpt>
      <trkpt lat="50.85234" lon="3.27361">
        <ele>17</ele>
        <time>2023-10-28T06:00:14Z</time>
      </trkpt>
      <trkpt lat="50.85238" lon="3.2737">
        <ele>17</ele>
        <time>2023-10-28T06:00:16Z</time>
      </trkpt>
      <trkpt lat="50.85238" lon="3.27374">
        <ele>17</ele>
        <time>2023-10-28T06:00:17Z</time>
      </trkpt>
      <trkpt lat="50.8524" lon="3.27379">
        <ele>17.2</ele>
        <time>2023-10-28T06:00:18Z</time>
      </trkpt>
      <trkpt lat="50.85241" lon="3.27384">
        <ele>17.2</ele>
        <time>2023-10-28T06:00:19Z</time>
      </trkpt>
      <trkpt lat="50.85242" lon="3.27391">
        <ele>17.2</ele>
        <time>2023-10-28T06:00:21Z</time>
      </trkpt>
      <trkpt lat="50.85242" lon="3.27396">
        <ele>17.2</ele>
        <time>2023-10-28T06:00:22Z</time>
      </trkpt>
      <trkpt lat="50.85242" lon="3.27406">
        <ele>17.4</ele>
        <time>2023-10-28T06:00:24Z</time>
      </trkpt>
      <trkpt lat="50.85242" lon="3.27409">
        <ele>17.4</ele>
        <time>2023-10-28T06:00:25Z</time>
      </trkpt>
      <trkpt lat="50.85241" lon="3.27412">
        <ele>17.4</ele>
        <time>2023-10-28T06:00:26Z</time>
      </trkpt>
      <trkpt lat="50.85241" lon="3.27416">
        <ele>17.6</ele>
        <time>2023-10-28T06:00:27Z</time>
      </trkpt>
      <trkpt lat="50.85241" lon="3.2742">
        <ele>17.6</ele>
        <time>2023-10-28T06:00:28Z</time>
      </trkpt>
      <trkpt lat="50.85242" lon="3.27428">
        <ele>17.6</ele>
        <time>2023-10-28T06:00:30Z</time>
      </trkpt>
      <trkpt lat="50.85243" lon="3.27432">
        <ele>17.6</ele>
        <time>2023-10-28T06:00:31Z</time>
      </trkpt>
      <trkpt lat="50.85244" lon="3.27438">
        <ele>17.8</ele>
        <time>2023-10-28T06:00:32Z</time>
      </trkpt>
      <trkpt lat="50.85247" lon="3.27452">
        <ele>17.8</ele>
        <time>2023-10-28T06:00:35Z</time>
      </trkpt>
      <trkpt lat="50.85247" lon="3.27455">
        <ele>17.8</ele>
        <time>2023-10-28T06:00:36Z</time>
      </trkpt>
      <trkpt lat="50.85247" lon="3.27459">
        <ele>17.8</ele>
        <time>2023-10-28T06:00:37Z</time>
      </trkpt>
      <trkpt lat="50.85247" lon="3.27465">
        <ele>17.8</ele>
        <time>2023-10-28T06:00:38Z</time>
      </trkpt>
      <trkpt lat="50.85246" lon="3.27471">
        <ele>17.8</ele>
        <time>2023-10-28T06:00:39Z</time>
      </trkpt>
      <trkpt lat="50.85245" lon="3.27474">
        <ele>17.8</ele>
        <time>2023-10-28T06:00:40Z</time>
      </trkpt>
      <trkpt lat="50.85242" lon="3.27478">
        <ele>17.8</ele>
        <time>2023-10-28T06:00:41Z</time>
      </trkpt>
      <trkpt lat="50.85239" lon="3.27481">
        <ele>17.8</ele>
        <time>2023-10-28T06:00:42Z</time>
      </trkpt>
      <trkpt lat="50.85236" lon="3.27483">
        <ele>17.6</ele>
        <time>2023-10-28T06:00:43Z</time>
      </trkpt>
      <trkpt lat="50.85233" lon="3.27485">
        <ele>17.6</ele>
        <time>2023-10-28T06:00:44Z</time>
      </trkpt>
      <trkpt lat="50.8523" lon="3.27485">
        <ele>17.6</ele>
        <time>2023-10-28T06:00:45Z</time>
      </trkpt>
      <trkpt lat="50.85228" lon="3.27486">
        <ele>17.6</ele>
        <time>2023-10-28T06:00:46Z</time>
      </trkpt>
      <trkpt lat="50.85223" lon="3.27487">
        <ele>17.2</ele>
        <time>2023-10-28T06:00:48Z</time>
      </trkpt>
      <trkpt lat="50.85221" lon="3.27488">
        <ele>17</ele>
        <time>2023-10-28T06:00:49Z</time>
      </trkpt>
      <trkpt lat="50.85219" lon="3.2749">
        <ele>17</ele>
        <time>2023-10-28T06:00:50Z</time>
      </trkpt>
      <trkpt lat="50.85217" lon="3.27492">
        <ele>17</ele>
        <time>2023-10-28T06:00:51Z</time>
      </trkpt>
      <trkpt lat="50.85216" lon="3.27495">
        <ele>16.8</ele>
        <time>2023-10-28T06:00:52Z</time>
      </trkpt>
      <trkpt lat="50.85215" lon="3.27498">
        <ele>16.8</ele>
        <time>2023-10-28T06:00:53Z</time>
      </trkpt>
      <trkpt lat="50.85214" lon="3.27502">
        <ele>16.8</ele>
        <time>2023-10-28T06:00:54Z</time>
      </trkpt>
      <trkpt lat="50.85214" lon="3.27506">
        <ele>16.8</ele>
        <time>2023-10-28T06:00:55Z</time>
      </trkpt>
      <trkpt lat="50.85215" lon="3.2751">
        <ele>16.8</ele>
        <time>2023-10-28T06:00:56Z</time>
      </trkpt>
      <trkpt lat="50.85216" lon="3.27514">
        <ele>16.8</ele>
        <time>2023-10-28T06:00:57Z</time>
      </trkpt>
      <trkpt lat="50.85216" lon="3.27518">
        <ele>16.8</ele>
        <time>2023-10-28T06:00:58Z</time>
      </trkpt>
      <trkpt lat="50.85217" lon="3.27524">
        <ele>16.8</ele>
        <time>2023-10-28T06:01:00Z</time>
      </trkpt>
      <trkpt lat="50.85216" lon="3.27532">
        <ele>16.8</ele>
        <time>2023-10-28T06:01:01Z</time>
      </trkpt>
      <trkpt lat="50.85214" lon="3.27535">
        <ele>16.8</ele>
        <time>2023-10-28T06:01:02Z</time>
      </trkpt>
      <trkpt lat="50.85214" lon="3.27539">
        <ele>16.8</ele>
        <time>2023-10-28T06:01:03Z</time>
      </trkpt>
      <trkpt lat="50.85214" lon="3.27543">
        <ele>16.8</ele>
        <time>2023-10-28T06:01:04Z</time>
      </trkpt>
      <trkpt lat="50.85214" lon="3.27544">
        <ele>16.8</ele>
        <time>2023-10-28T06:01:05Z</time>
      </trkpt>
      <trkpt lat="50.85215" lon="3.27547">
        <ele>16.8</ele>
        <time>2023-10-28T06:01:06Z</time>
      </trkpt>
      <trkpt lat="50.85215" lon="3.27549">
        <ele>16.8</ele>
        <time>2023-10-28T06:01:07Z</time>
      </trkpt>
      <trkpt lat="50.85215" lon="3.27551">
        <ele>16.8</ele>
        <time>2023-10-28T06:01:08Z</time>
      </trkpt>
      <trkpt lat="50.85217" lon="3.27555">
        <ele>16.8</ele>
        <time>2023-10-28T06:01:09Z</time>
      </trkpt>
      <trkpt lat="50.85218" lon="3.27557">
        <ele>16.8</ele>
        <time>2023-10-28T06:01:10Z</time>
      </trkpt>
      <trkpt lat="50.8522" lon="3.27558">
        <ele>16.8</ele>
        <time>2023-10-28T06:01:11Z</time>
      </trkpt>
      <trkpt lat="50.85222" lon="3.27558">
        <ele>16.8</ele>
        <time>2023-10-28T06:01:12Z</time>
      </trkpt>
      <trkpt lat="50.85224" lon="3.27557">
        <ele>16.8</ele>
        <time>2023-10-28T06:01:13Z</time>
      </trkpt>
      <trkpt lat="50.85234" lon="3.27553">
        <ele>16.8</ele>
        <time>2023-10-28T06:01:16Z</time>
      </trkpt>
      <trkpt lat="50.85241" lon="3.27551">
        <ele>17</ele>
        <time>2023-10-28T06:01:18Z</time>
      </trkpt>
      <trkpt lat="50.85249" lon="3.2755">
        <ele>17</ele>
        <time>2023-10-28T06:01:20Z</time>
      </trkpt>
      <trkpt lat="50.85253" lon="3.27548">
        <ele>17</ele>
        <time>2023-10-28T06:01:21Z</time>
      </trkpt>
      <trkpt lat="50.85259" lon="3.27545">
        <ele>17.2</ele>
        <time>2023-10-28T06:01:23Z</time>
      </trkpt>
      <trkpt lat="50.85274" lon="3.27539">
        <ele>17.4</ele>
        <time>2023-10-28T06:01:27Z</time>
      </trkpt>
      <trkpt lat="50.85277" lon="3.27538">
        <ele>17.4</ele>
        <time>2023-10-28T06:01:28Z</time>
      </trkpt>
      <trkpt lat="50.8528" lon="3.27536">
        <ele>17.4</ele>
        <time>2023-10-28T06:01:29Z</time>
      </trkpt>
      <trkpt lat="50.85282" lon="3.27533">
        <ele>17.4</ele>
        <time>2023-10-28T06:01:30Z</time>
      </trkpt>
      <trkpt lat="50.85285" lon="3.2753">
        <ele>17.4</ele>
        <time>2023-10-28T06:01:31Z</time>
      </trkpt>
      <trkpt lat="50.85286" lon="3.27527">
        <ele>17.6</ele>
        <time>2023-10-28T06:01:32Z</time>
      </trkpt>
      <trkpt lat="50.85288" lon="3.27524">
        <ele>17.6</ele>
        <time>2023-10-28T06:01:33Z</time>
      </trkpt>
      <trkpt lat="50.85289" lon="3.27521">
        <ele>17.6</ele>
        <time>2023-10-28T06:01:34Z</time>
      </trkpt>
      <trkpt lat="50.8529" lon="3.27518">
        <ele>17.6</ele>
        <time>2023-10-28T06:01:35Z</time>
      </trkpt>
      <trkpt lat="50.85292" lon="3.27516">
        <ele>17.6</ele>
        <time>2023-10-28T06:01:36Z</time>
      </trkpt>
      <trkpt lat="50.85293" lon="3.27516">
        <ele>17.6</ele>
        <time>2023-10-28T06:01:37Z</time>
      </trkpt>
      <trkpt lat="50.85294" lon="3.27516">
        <ele>17.6</ele>
        <time>2023-10-28T06:01:38Z</time>
      </trkpt>
      <trkpt lat="50.85295" lon="3.27518">
        <ele>17.8</ele>
        <time>2023-10-28T06:01:39Z</time>
      </trkpt>
      <trkpt lat="50.853" lon="3.27529">
        <ele>17.8</ele>
        <time>2023-10-28T06:01:42Z</time>
      </trkpt>
      <trkpt lat="50.85301" lon="3.27533">
        <ele>17.8</ele>
        <time>2023-10-28T06:01:43Z</time>
      </trkpt>
      <trkpt lat="50.85306" lon="3.27545">
        <ele>17.8</ele>
        <time>2023-10-28T06:01:45Z</time>
      </trkpt>
      <trkpt lat="50.85312" lon="3.27552">
        <ele>17.8</ele>
        <time>2023-10-28T06:01:47Z</time>
      </trkpt>
      <trkpt lat="50.85315" lon="3.27553">
        <ele>17.8</ele>
        <time>2023-10-28T06:01:48Z</time>
      </trkpt>
      <trkpt lat="50.85318" lon="3.27552">
        <ele>17.8</ele>
        <time>2023-10-28T06:01:49Z</time>
      </trkpt>
      <trkpt lat="50.8532" lon="3.27551">
        <ele>17.8</ele>
        <time>2023-10-28T06:01:50Z</time>
      </trkpt>
      <trkpt lat="50.85323" lon="3.27547">
        <ele>17.6</ele>
        <time>2023-10-28T06:01:51Z</time>
      </trkpt>
      <trkpt lat="50.85325" lon="3.27545">
        <ele>17.6</ele>
        <time>2023-10-28T06:01:52Z</time>
      </trkpt>
      <trkpt lat="50.85328" lon="3.27542">
        <ele>17.6</ele>
        <time>2023-10-28T06:01:53Z</time>
      </trkpt>
      <trkpt lat="50.8533" lon="3.2754">
        <ele>17.6</ele>
        <time>2023-10-28T06:01:54Z</time>
      </trkpt>
      <trkpt lat="50.85333" lon="3.27538">
        <ele>17.6</ele>
        <time>2023-10-28T06:01:55Z</time>
      </trkpt>
      <trkpt lat="50.85335" lon="3.27536">
        <ele>17.6</ele>
        <time>2023-10-28T06:01:56Z</time>
      </trkpt>
      <trkpt lat="50.85337" lon="3.27532">
        <ele>17.6</ele>
        <time>2023-10-28T06:01:57Z</time>
      </trkpt>
      <trkpt lat="50.85339" lon="3.2753">
        <ele>17.4</ele>
        <time>2023-10-28T06:01:58Z</time>
      </trkpt>
      <trkpt lat="50.85341" lon="3.27528">
        <ele>17.4</ele>
        <time>2023-10-28T06:01:59Z</time>
      </trkpt>
      <trkpt lat="50.85344" lon="3.27528">
        <ele>17.4</ele>
        <time>2023-10-28T06:02:00Z</time>
      </trkpt>
      <trkpt lat="50.85348" lon="3.27531">
        <ele>17.4</ele>
        <time>2023-10-28T06:02:01Z</time>
      </trkpt>
      <trkpt lat="50.85361" lon="3.27556">
        <ele>17.4</ele>
        <time>2023-10-28T06:02:06Z</time>
      </trkpt>
      <trkpt lat="50.85371" lon="3.27572">
        <ele>17.2</ele>
        <time>2023-10-28T06:02:09Z</time>
      </trkpt>
      <trkpt lat="50.85388" lon="3.27601">
        <ele>17</ele>
        <time>2023-10-28T06:02:14Z</time>
      </trkpt>
      <trkpt lat="50.85395" lon="3.27603">
        <ele>16.8</ele>
        <time>2023-10-28T06:02:16Z</time>
      </trkpt>
      <trkpt lat="50.854" lon="3.27602">
        <ele>16.8</ele>
        <time>2023-10-28T06:02:17Z</time>
      </trkpt>
      <trkpt lat="50.85404" lon="3.27599">
        <ele>16.8</ele>
        <time>2023-10-28T06:02:18Z</time>
      </trkpt>
      <trkpt lat="50.85411" lon="3.27592">
        <ele>16.6</ele>
        <time>2023-10-28T06:02:20Z</time>
      </trkpt>
      <trkpt lat="50.85415" lon="3.27587">
        <ele>16.6</ele>
        <time>2023-10-28T06:02:21Z</time>
      </trkpt>
      <trkpt lat="50.85418" lon="3.27583">
        <ele>16.6</ele>
        <time>2023-10-28T06:02:22Z</time>
      </trkpt>
      <trkpt lat="50.85422" lon="3.2758">
        <ele>16.6</ele>
        <time>2023-10-28T06:02:23Z</time>
      </trkpt>
      <trkpt lat="50.85425" lon="3.27577">
        <ele>16.4</ele>
        <time>2023-10-28T06:02:24Z</time>
      </trkpt>
      <trkpt lat="50.85428" lon="3.27575">
        <ele>16.4</ele>
        <time>2023-10-28T06:02:25Z</time>
      </trkpt>
      <trkpt lat="50.85431" lon="3.27571">
        <ele>16.4</ele>
        <time>2023-10-28T06:02:26Z</time>
      </trkpt>
      <trkpt lat="50.85434" lon="3.27567">
        <ele>16.4</ele>
        <time>2023-10-28T06:02:27Z</time>
      </trkpt>
      <trkpt lat="50.85437" lon="3.27562">
        <ele>16.4</ele>
        <time>2023-10-28T06:02:28Z</time>
      </trkpt>
      <trkpt lat="50.85441" lon="3.27558">
        <ele>16.4</ele>
        <time>2023-10-28T06:02:29Z</time>
      </trkpt>
      <trkpt lat="50.85444" lon="3.27556">
        <ele>16.4</ele>
        <time>2023-10-28T06:02:30Z</time>
      </trkpt>
      <trkpt lat="50.85449" lon="3.27554">
        <ele>16.4</ele>
        <time>2023-10-28T06:02:31Z</time>
      </trkpt>
      <trkpt lat="50.85454" lon="3.27552">
        <ele>16.2</ele>
        <time>2023-10-28T06:02:32Z</time>
      </trkpt>
      <trkpt lat="50.85459" lon="3.27549">
        <ele>16.2</ele>
        <time>2023-10-28T06:02:33Z</time>
      </trkpt>
      <trkpt lat="50.85463" lon="3.27546">
        <ele>16.2</ele>
        <time>2023-10-28T06:02:34Z</time>
      </trkpt>
      <trkpt lat="50.8547" lon="3.2754">
        <ele>16.2</ele>
        <time>2023-10-28T06:02:36Z</time>
      </trkpt>
      <trkpt lat="50.85474" lon="3.27536">
        <ele>16</ele>
        <time>2023-10-28T06:02:37Z</time>
      </trkpt>
      <trkpt lat="50.85481" lon="3.27524">
        <ele>16</ele>
        <time>2023-10-28T06:02:39Z</time>
      </trkpt>
      <trkpt lat="50.85486" lon="3.27515">
        <ele>16</ele>
        <time>2023-10-28T06:02:41Z</time>
      </trkpt>
      <trkpt lat="50.85489" lon="3.2751">
        <ele>16</ele>
        <time>2023-10-28T06:02:42Z</time>
      </trkpt>
      <trkpt lat="50.85492" lon="3.27505">
        <ele>16</ele>
        <time>2023-10-28T06:02:43Z</time>
      </trkpt>
      <trkpt lat="50.85495" lon="3.27498">
        <ele>16</ele>
        <time>2023-10-28T06:02:44Z</time>
      </trkpt>
      <trkpt lat="50.85498" lon="3.27494">
        <ele>16</ele>
        <time>2023-10-28T06:02:45Z</time>
      </trkpt>
      <trkpt lat="50.85505" lon="3.2749">
        <ele>16</ele>
        <time>2023-10-28T06:02:47Z</time>
      </trkpt>
      <trkpt lat="50.85508" lon="3.27491">
        <ele>16</ele>
        <time>2023-10-28T06:02:48Z</time>
      </trkpt>
      <trkpt lat="50.85512" lon="3.27497">
        <ele>16</ele>
        <time>2023-10-28T06:02:49Z</time>
      </trkpt>
      <trkpt lat="50.8552" lon="3.27525">
        <ele>16.2</ele>
        <time>2023-10-28T06:02:53Z</time>
      </trkpt>
      <trkpt lat="50.85524" lon="3.27542">
        <ele>16.2</ele>
        <time>2023-10-28T06:02:55Z</time>
      </trkpt>
      <trkpt lat="50.85535" lon="3.2758">
        <ele>16.2</ele>
        <time>2023-10-28T06:03:00Z</time>
      </trkpt>
      <trkpt lat="50.85538" lon="3.27592">
        <ele>16.4</ele>
        <time>2023-10-28T06:03:02Z</time>
      </trkpt>
      <trkpt lat="50.8554" lon="3.27599">
        <ele>16.4</ele>
        <time>2023-10-28T06:03:03Z</time>
      </trkpt>
      <trkpt lat="50.85542" lon="3.27606">
        <ele>16.4</ele>
        <time>2023-10-28T06:03:04Z</time>
      </trkpt>
      <trkpt lat="50.85547" lon="3.27621">
        <ele>16.4</ele>
        <time>2023-10-28T06:03:06Z</time>
      </trkpt>
      <trkpt lat="50.85548" lon="3.27627">
        <ele>16.4</ele>
        <time>2023-10-28T06:03:07Z</time>
      </trkpt>
      <trkpt lat="50.8555" lon="3.27633">
        <ele>16.4</ele>
        <time>2023-10-28T06:03:08Z</time>
      </trkpt>
      <trkpt lat="50.85554" lon="3.27648">
        <ele>16.4</ele>
        <time>2023-10-28T06:03:10Z</time>
      </trkpt>
      <trkpt lat="50.85557" lon="3.27661">
        <ele>16.4</ele>
        <time>2023-10-28T06:03:12Z</time>
      </trkpt>
      <trkpt lat="50.85574" lon="3.27718">
        <ele>16.2</ele>
        <time>2023-10-28T06:03:20Z</time>
      </trkpt>
      <trkpt lat="50.85592" lon="3.27782">
        <ele>16</ele>
        <time>2023-10-28T06:03:30Z</time>
      </trkpt>
      <trkpt lat="50.85599" lon="3.27802">
        <ele>15.8</ele>
        <time>2023-10-28T06:03:32Z</time>
      </trkpt>
      <trkpt lat="50.856" lon="3.27809">
        <ele>15.8</ele>
        <time>2023-10-28T06:03:33Z</time>
      </trkpt>
      <trkpt lat="50.85602" lon="3.27824">
        <ele>15.8</ele>
        <time>2023-10-28T06:03:35Z</time>
      </trkpt>
      <trkpt lat="50.85599" lon="3.2783">
        <ele>15.8</ele>
        <time>2023-10-28T06:03:36Z</time>
      </trkpt>
      <trkpt lat="50.85593" lon="3.27838">
        <ele>15.6</ele>
        <time>2023-10-28T06:03:38Z</time>
      </trkpt>
      <trkpt lat="50.8559" lon="3.27842">
        <ele>15.6</ele>
        <time>2023-10-28T06:03:39Z</time>
      </trkpt>
      <trkpt lat="50.85587" lon="3.27847">
        <ele>15.6</ele>
        <time>2023-10-28T06:03:40Z</time>
      </trkpt>
      <trkpt lat="50.85587" lon="3.27853">
        <ele>15.6</ele>
        <time>2023-10-28T06:03:41Z</time>
      </trkpt>
      <trkpt lat="50.85588" lon="3.27859">
        <ele>15.6</ele>
        <time>2023-10-28T06:03:42Z</time>
      </trkpt>
      <trkpt lat="50.8559" lon="3.27865">
        <ele>15.6</ele>
        <time>2023-10-28T06:03:43Z</time>
      </trkpt>
      <trkpt lat="50.85594" lon="3.27879">
        <ele>15.6</ele>
        <time>2023-10-28T06:03:45Z</time>
      </trkpt>
      <trkpt lat="50.85597" lon="3.27886">
        <ele>15.6</ele>
        <time>2023-10-28T06:03:46Z</time>
      </trkpt>
      <trkpt lat="50.85605" lon="3.27916">
        <ele>16</ele>
        <time>2023-10-28T06:03:50Z</time>
      </trkpt>
      <trkpt lat="50.85607" lon="3.27923">
        <ele>16</ele>
        <time>2023-10-28T06:03:51Z</time>
      </trkpt>
      <trkpt lat="50.85608" lon="3.2793">
        <ele>16</ele>
        <time>2023-10-28T06:03:52Z</time>
      </trkpt>
      <trkpt lat="50.8561" lon="3.27938">
        <ele>16</ele>
        <time>2023-10-28T06:03:53Z</time>
      </trkpt>
      <trkpt lat="50.85615" lon="3.27951">
        <ele>16</ele>
        <time>2023-10-28T06:03:55Z</time>
      </trkpt>
      <trkpt lat="50.85617" lon="3.27958">
        <ele>16</ele>
        <time>2023-10-28T06:03:56Z</time>
      </trkpt>
      <trkpt lat="50.8562" lon="3.27964">
        <ele>16</ele>
        <time>2023-10-28T06:03:57Z</time>
      </trkpt>
      <trkpt lat="50.85624" lon="3.27971">
        <ele>16</ele>
        <time>2023-10-28T06:03:58Z</time>
      </trkpt>
      <trkpt lat="50.85633" lon="3.27985">
        <ele>16</ele>
        <time>2023-10-28T06:04:01Z</time>
      </trkpt>
      <trkpt lat="50.85641" lon="3.27996">
        <ele>16</ele>
        <time>2023-10-28T06:04:03Z</time>
      </trkpt>
      <trkpt lat="50.85645" lon="3.28">
        <ele>16</ele>
        <time>2023-10-28T06:04:04Z</time>
      </trkpt>
      <trkpt lat="50.85647" lon="3.28003">
        <ele>16</ele>
        <time>2023-10-28T06:04:05Z</time>
      </trkpt>
      <trkpt lat="50.85651" lon="3.28006">
        <ele>16</ele>
        <time>2023-10-28T06:04:06Z</time>
      </trkpt>
      <trkpt lat="50.85654" lon="3.28009">
        <ele>16</ele>
        <time>2023-10-28T06:04:07Z</time>
      </trkpt>
      <trkpt lat="50.85657" lon="3.2801">
        <ele>16</ele>
        <time>2023-10-28T06:04:08Z</time>
      </trkpt>
      <trkpt lat="50.85659" lon="3.28012">
        <ele>16</ele>
        <time>2023-10-28T06:04:09Z</time>
      </trkpt>
      <trkpt lat="50.85661" lon="3.28011">
        <ele>16</ele>
        <time>2023-10-28T06:04:10Z</time>
      </trkpt>
      <trkpt lat="50.85663" lon="3.2801">
        <ele>16</ele>
        <time>2023-10-28T06:04:11Z</time>
      </trkpt>
      <trkpt lat="50.85666" lon="3.28008">
        <ele>16.2</ele>
        <time>2023-10-28T06:04:12Z</time>
      </trkpt>
      <trkpt lat="50.85668" lon="3.28007">
        <ele>16</ele>
        <time>2023-10-28T06:04:13Z</time>
      </trkpt>
      <trkpt lat="50.85672" lon="3.28007">
        <ele>16</ele>
        <time>2023-10-28T06:04:14Z</time>
      </trkpt>
      <trkpt lat="50.85674" lon="3.28007">
        <ele>16</ele>
        <time>2023-10-28T06:04:15Z</time>
      </trkpt>
      <trkpt lat="50.85677" lon="3.28009">
        <ele>16</ele>
        <time>2023-10-28T06:04:16Z</time>
      </trkpt>
      <trkpt lat="50.85679" lon="3.28013">
        <ele>16</ele>
        <time>2023-10-28T06:04:17Z</time>
      </trkpt>
      <trkpt lat="50.8568" lon="3.28019">
        <ele>16.2</ele>
        <time>2023-10-28T06:04:18Z</time>
      </trkpt>
      <trkpt lat="50.85683" lon="3.28031">
        <ele>16.2</ele>
        <time>2023-10-28T06:04:20Z</time>
      </trkpt>
      <trkpt lat="50.85686" lon="3.28037">
        <ele>16.2</ele>
        <time>2023-10-28T06:04:21Z</time>
      </trkpt>
      <trkpt lat="50.85689" lon="3.28042">
        <ele>16.2</ele>
        <time>2023-10-28T06:04:22Z</time>
      </trkpt>
      <trkpt lat="50.85698" lon="3.2806">
        <ele>16.2</ele>
        <time>2023-10-28T06:04:25Z</time>
      </trkpt>
      <trkpt lat="50.85699" lon="3.28065">
        <ele>16.2</ele>
        <time>2023-10-28T06:04:26Z</time>
      </trkpt>
      <trkpt lat="50.85702" lon="3.28071">
        <ele>16.2</ele>
        <time>2023-10-28T06:04:27Z</time>
      </trkpt>
      <trkpt lat="50.85705" lon="3.28075">
        <ele>16.2</ele>
        <time>2023-10-28T06:04:28Z</time>
      </trkpt>
      <trkpt lat="50.85715" lon="3.28092">
        <ele>16.2</ele>
        <time>2023-10-28T06:04:31Z</time>
      </trkpt>
      <trkpt lat="50.8573" lon="3.28121">
        <ele>16.2</ele>
        <time>2023-10-28T06:04:35Z</time>
      </trkpt>
      <trkpt lat="50.8574" lon="3.28139">
        <ele>16.2</ele>
        <time>2023-10-28T06:04:38Z</time>
      </trkpt>
      <trkpt lat="50.85746" lon="3.28152">
        <ele>16.2</ele>
        <time>2023-10-28T06:04:40Z</time>
      </trkpt>
      <trkpt lat="50.85749" lon="3.28159">
        <ele>16.4</ele>
        <time>2023-10-28T06:04:41Z</time>
      </trkpt>
      <trkpt lat="50.85751" lon="3.28166">
        <ele>16.4</ele>
        <time>2023-10-28T06:04:42Z</time>
      </trkpt>
      <trkpt lat="50.85755" lon="3.28173">
        <ele>16.4</ele>
        <time>2023-10-28T06:04:43Z</time>
      </trkpt>
      <trkpt lat="50.85758" lon="3.28179">
        <ele>16.4</ele>
        <time>2023-10-28T06:04:44Z</time>
      </trkpt>
      <trkpt lat="50.85761" lon="3.28186">
        <ele>16.4</ele>
        <time>2023-10-28T06:04:45Z</time>
      </trkpt>
      <trkpt lat="50.85764" lon="3.28192">
        <ele>16.4</ele>
        <time>2023-10-28T06:04:46Z</time>
      </trkpt>
      <trkpt lat="50.85768" lon="3.28198">
        <ele>16.4</ele>
        <time>2023-10-28T06:04:47Z</time>
      </trkpt>
      <trkpt lat="50.85771" lon="3.28203">
        <ele>16.4</ele>
        <time>2023-10-28T06:04:48Z</time>
      </trkpt>
      <trkpt lat="50.85774" lon="3.2821">
        <ele>16.4</ele>
        <time>2023-10-28T06:04:49Z</time>
      </trkpt>
      <trkpt lat="50.85777" lon="3.28216">
        <ele>16.4</ele>
        <time>2023-10-28T06:04:50Z</time>
      </trkpt>
      <trkpt lat="50.85788" lon="3.28243">
        <ele>16.4</ele>
        <time>2023-10-28T06:04:54Z</time>
      </trkpt>
      <trkpt lat="50.8579" lon="3.2825">
        <ele>16.4</ele>
        <time>2023-10-28T06:04:55Z</time>
      </trkpt>
      <trkpt lat="50.85794" lon="3.28257">
        <ele>16.4</ele>
        <time>2023-10-28T06:04:56Z</time>
      </trkpt>
      <trkpt lat="50.858" lon="3.28266">
        <ele>16.4</ele>
        <time>2023-10-28T06:04:58Z</time>
      </trkpt>
      <trkpt lat="50.85804" lon="3.28278">
        <ele>16.6</ele>
        <time>2023-10-28T06:05:00Z</time>
      </trkpt>
      <trkpt lat="50.85807" lon="3.28284">
        <ele>16.6</ele>
        <time>2023-10-28T06:05:01Z</time>
      </trkpt>
      <trkpt lat="50.8581" lon="3.28289">
        <ele>16.6</ele>
        <time>2023-10-28T06:05:02Z</time>
      </trkpt>
      <trkpt lat="50.85812" lon="3.28294">
        <ele>16.6</ele>
        <time>2023-10-28T06:05:03Z</time>
      </trkpt>
      <trkpt lat="50.85814" lon="3.283">
        <ele>16.6</ele>
        <time>2023-10-28T06:05:04Z</time>
      </trkpt>
      <trkpt lat="50.85817" lon="3.28306">
        <ele>16.6</ele>
        <time>2023-10-28T06:05:05Z</time>
      </trkpt>
      <trkpt lat="50.85828" lon="3.28329">
        <ele>16.8</ele>
        <time>2023-10-28T06:05:09Z</time>
      </trkpt>
      <trkpt lat="50.8583" lon="3.28335">
        <ele>16.8</ele>
        <time>2023-10-28T06:05:10Z</time>
      </trkpt>
      <trkpt lat="50.85832" lon="3.28339">
        <ele>16.8</ele>
        <time>2023-10-28T06:05:11Z</time>
      </trkpt>
      <trkpt lat="50.85833" lon="3.28341">
        <ele>16.8</ele>
        <time>2023-10-28T06:05:12Z</time>
      </trkpt>
      <trkpt lat="50.85835" lon="3.28342">
        <ele>16.8</ele>
        <time>2023-10-28T06:05:13Z</time>
      </trkpt>
      <trkpt lat="50.85836" lon="3.28343">
        <ele>17</ele>
        <time>2023-10-28T06:05:14Z</time>
      </trkpt>
      <trkpt lat="50.85837" lon="3.28344">
        <ele>17</ele>
        <time>2023-10-28T06:05:15Z</time>
      </trkpt>
      <trkpt lat="50.85839" lon="3.28342">
        <ele>17</ele>
        <time>2023-10-28T06:05:16Z</time>
      </trkpt>
      <trkpt lat="50.85841" lon="3.2834">
        <ele>17</ele>
        <time>2023-10-28T06:05:17Z</time>
      </trkpt>
      <trkpt lat="50.85844" lon="3.28337">
        <ele>17</ele>
        <time>2023-10-28T06:05:18Z</time>
      </trkpt>
      <trkpt lat="50.85847" lon="3.28334">
        <ele>17</ele>
        <time>2023-10-28T06:05:19Z</time>
      </trkpt>
      <trkpt lat="50.85851" lon="3.28331">
        <ele>17.2</ele>
        <time>2023-10-28T06:05:20Z</time>
      </trkpt>
      <trkpt lat="50.85854" lon="3.28328">
        <ele>17.2</ele>
        <time>2023-10-28T06:05:21Z</time>
      </trkpt>
      <trkpt lat="50.85863" lon="3.28323">
        <ele>17.2</ele>
        <time>2023-10-28T06:05:23Z</time>
      </trkpt>
      <trkpt lat="50.85866" lon="3.28322">
        <ele>17.2</ele>
        <time>2023-10-28T06:05:24Z</time>
      </trkpt>
      <trkpt lat="50.8587" lon="3.28323">
        <ele>17.2</ele>
        <time>2023-10-28T06:05:25Z</time>
      </trkpt>
      <trkpt lat="50.85872" lon="3.28327">
        <ele>17.2</ele>
        <time>2023-10-28T06:05:26Z</time>
      </trkpt>
      <trkpt lat="50.85879" lon="3.28345">
        <ele>17.2</ele>
        <time>2023-10-28T06:05:29Z</time>
      </trkpt>
      <trkpt lat="50.85882" lon="3.28352">
        <ele>17.2</ele>
        <time>2023-10-28T06:05:30Z</time>
      </trkpt>
      <trkpt lat="50.85888" lon="3.28369">
        <ele>17.2</ele>
        <time>2023-10-28T06:05:32Z</time>
      </trkpt>
      <trkpt lat="50.85899" lon="3.28399">
        <ele>17</ele>
        <time>2023-10-28T06:05:36Z</time>
      </trkpt>
      <trkpt lat="50.85907" lon="3.28423">
        <ele>16.8</ele>
        <time>2023-10-28T06:05:39Z</time>
      </trkpt>
      <trkpt lat="50.85935" lon="3.285">
        <ele>16</ele>
        <time>2023-10-28T06:05:48Z</time>
      </trkpt>
      <trkpt lat="50.85936" lon="3.28507">
        <ele>15.8</ele>
        <time>2023-10-28T06:05:49Z</time>
      </trkpt>
      <trkpt lat="50.85938" lon="3.28515">
        <ele>15.8</ele>
        <time>2023-10-28T06:05:50Z</time>
      </trkpt>
      <trkpt lat="50.85943" lon="3.28531">
        <ele>15.8</ele>
        <time>2023-10-28T06:05:52Z</time>
      </trkpt>
      <trkpt lat="50.85945" lon="3.28539">
        <ele>15.8</ele>
        <time>2023-10-28T06:05:53Z</time>
      </trkpt>
      <trkpt lat="50.85948" lon="3.28546">
        <ele>15.6</ele>
        <time>2023-10-28T06:05:54Z</time>
      </trkpt>
      <trkpt lat="50.8595" lon="3.28552">
        <ele>15.6</ele>
        <time>2023-10-28T06:05:55Z</time>
      </trkpt>
      <trkpt lat="50.85951" lon="3.28559">
        <ele>15.6</ele>
        <time>2023-10-28T06:05:56Z</time>
      </trkpt>
      <trkpt lat="50.85951" lon="3.28565">
        <ele>15.6</ele>
        <time>2023-10-28T06:05:57Z</time>
      </trkpt>
      <trkpt lat="50.8595" lon="3.2857">
        <ele>15.6</ele>
        <time>2023-10-28T06:05:58Z</time>
      </trkpt>
      <trkpt lat="50.85949" lon="3.28575">
        <ele>15.6</ele>
        <time>2023-10-28T06:05:59Z</time>
      </trkpt>
      <trkpt lat="50.85947" lon="3.2858">
        <ele>15.6</ele>
        <time>2023-10-28T06:06:00Z</time>
      </trkpt>
      <trkpt lat="50.85947" lon="3.2858">
        <ele>15.4</ele>
        <time>2023-10-28T06:06:01Z</time>
      </trkpt>
      <trkpt lat="50.85945" lon="3.28594">
        <ele>15.4</ele>
        <time>2023-10-28T06:06:02Z</time>
      </trkpt>
      <trkpt lat="50.85945" lon="3.28602">
        <ele>15.4</ele>
        <time>2023-10-28T06:06:03Z</time>
      </trkpt>
      <trkpt lat="50.85945" lon="3.28609">
        <ele>15.4</ele>
        <time>2023-10-28T06:06:04Z</time>
      </trkpt>
      <trkpt lat="50.85945" lon="3.28616">
        <ele>15.4</ele>
        <time>2023-10-28T06:06:05Z</time>
      </trkpt>
      <trkpt lat="50.85945" lon="3.28623">
        <ele>15.4</ele>
        <time>2023-10-28T06:06:06Z</time>
      </trkpt>
      <trkpt lat="50.85946" lon="3.28637">
        <ele>15.8</ele>
        <time>2023-10-28T06:06:08Z</time>
      </trkpt>
      <trkpt lat="50.85949" lon="3.2865">
        <ele>16.2</ele>
        <time>2023-10-28T06:06:10Z</time>
      </trkpt>
      <trkpt lat="50.85953" lon="3.28663">
        <ele>16.4</ele>
        <time>2023-10-28T06:06:12Z</time>
      </trkpt>
      <trkpt lat="50.85955" lon="3.28669">
        <ele>16.4</ele>
        <time>2023-10-28T06:06:13Z</time>
      </trkpt>
      <trkpt lat="50.85957" lon="3.28675">
        <ele>16.4</ele>
        <time>2023-10-28T06:06:14Z</time>
      </trkpt>
      <trkpt lat="50.85963" lon="3.28697">
        <ele>16.4</ele>
        <time>2023-10-28T06:06:17Z</time>
      </trkpt>
      <trkpt lat="50.85966" lon="3.28718">
        <ele>16.4</ele>
        <time>2023-10-28T06:06:20Z</time>
      </trkpt>
      <trkpt lat="50.85969" lon="3.28732">
        <ele>16.4</ele>
        <time>2023-10-28T06:06:22Z</time>
      </trkpt>
      <trkpt lat="50.85974" lon="3.28745">
        <ele>16.4</ele>
        <time>2023-10-28T06:06:24Z</time>
      </trkpt>
      <trkpt lat="50.85976" lon="3.28753">
        <ele>16.4</ele>
        <time>2023-10-28T06:06:25Z</time>
      </trkpt>
      <trkpt lat="50.85983" lon="3.28775">
        <ele>16.4</ele>
        <time>2023-10-28T06:06:28Z</time>
      </trkpt>
      <trkpt lat="50.85989" lon="3.28799">
        <ele>16.4</ele>
        <time>2023-10-28T06:06:31Z</time>
      </trkpt>
      <trkpt lat="50.86001" lon="3.28842">
        <ele>16.2</ele>
        <time>2023-10-28T06:06:36Z</time>
      </trkpt>
      <trkpt lat="50.86003" lon="3.2885">
        <ele>16.2</ele>
        <time>2023-10-28T06:06:37Z</time>
      </trkpt>
      <trkpt lat="50.86005" lon="3.28858">
        <ele>16.2</ele>
        <time>2023-10-28T06:06:38Z</time>
      </trkpt>
      <trkpt lat="50.86011" lon="3.28872">
        <ele>16.2</ele>
        <time>2023-10-28T06:06:40Z</time>
      </trkpt>
      <trkpt lat="50.86013" lon="3.28877">
        <ele>16.2</ele>
        <time>2023-10-28T06:06:41Z</time>
      </trkpt>
      <trkpt lat="50.86015" lon="3.2888">
        <ele>16.2</ele>
        <time>2023-10-28T06:06:42Z</time>
      </trkpt>
      <trkpt lat="50.86017" lon="3.28881">
        <ele>16.4</ele>
        <time>2023-10-28T06:06:43Z</time>
      </trkpt>
      <trkpt lat="50.86021" lon="3.28883">
        <ele>16.2</ele>
        <time>2023-10-28T06:06:44Z</time>
      </trkpt>
      <trkpt lat="50.86024" lon="3.28886">
        <ele>16.2</ele>
        <time>2023-10-28T06:06:45Z</time>
      </trkpt>
      <trkpt lat="50.86028" lon="3.2889">
        <ele>16.2</ele>
        <time>2023-10-28T06:06:46Z</time>
      </trkpt>
      <trkpt lat="50.86031" lon="3.28896">
        <ele>16.2</ele>
        <time>2023-10-28T06:06:47Z</time>
      </trkpt>
      <trkpt lat="50.86034" lon="3.28903">
        <ele>16.2</ele>
        <time>2023-10-28T06:06:48Z</time>
      </trkpt>
      <trkpt lat="50.86036" lon="3.2891">
        <ele>16.2</ele>
        <time>2023-10-28T06:06:49Z</time>
      </trkpt>
      <trkpt lat="50.86038" lon="3.28917">
        <ele>16.2</ele>
        <time>2023-10-28T06:06:50Z</time>
      </trkpt>
      <trkpt lat="50.8604" lon="3.28924">
        <ele>16.2</ele>
        <time>2023-10-28T06:06:51Z</time>
      </trkpt>
      <trkpt lat="50.86045" lon="3.2894">
        <ele>16.2</ele>
        <time>2023-10-28T06:06:53Z</time>
      </trkpt>
      <trkpt lat="50.86048" lon="3.28947">
        <ele>16.2</ele>
        <time>2023-10-28T06:06:54Z</time>
      </trkpt>
      <trkpt lat="50.86059" lon="3.28983">
        <ele>16</ele>
        <time>2023-10-28T06:06:59Z</time>
      </trkpt>
      <trkpt lat="50.86064" lon="3.28994">
        <ele>16</ele>
        <time>2023-10-28T06:07:01Z</time>
      </trkpt>
      <trkpt lat="50.86066" lon="3.28999">
        <ele>16</ele>
        <time>2023-10-28T06:07:02Z</time>
      </trkpt>
      <trkpt lat="50.86068" lon="3.29005">
        <ele>16</ele>
        <time>2023-10-28T06:07:03Z</time>
      </trkpt>
      <trkpt lat="50.8607" lon="3.2901">
        <ele>16</ele>
        <time>2023-10-28T06:07:04Z</time>
      </trkpt>
      <trkpt lat="50.86072" lon="3.29015">
        <ele>16</ele>
        <time>2023-10-28T06:07:05Z</time>
      </trkpt>
      <trkpt lat="50.86073" lon="3.29021">
        <ele>16</ele>
        <time>2023-10-28T06:07:06Z</time>
      </trkpt>
      <trkpt lat="50.86075" lon="3.29026">
        <ele>15.8</ele>
        <time>2023-10-28T06:07:07Z</time>
      </trkpt>
      <trkpt lat="50.86078" lon="3.29035">
        <ele>15.8</ele>
        <time>2023-10-28T06:07:09Z</time>
      </trkpt>
      <trkpt lat="50.86078" lon="3.29039">
        <ele>15.8</ele>
        <time>2023-10-28T06:07:10Z</time>
      </trkpt>
      <trkpt lat="50.86076" lon="3.29043">
        <ele>15.8</ele>
        <time>2023-10-28T06:07:11Z</time>
      </trkpt>
      <trkpt lat="50.86074" lon="3.29047">
        <ele>15.8</ele>
        <time>2023-10-28T06:07:12Z</time>
      </trkpt>
      <trkpt lat="50.86067" lon="3.29054">
        <ele>15.6</ele>
        <time>2023-10-28T06:07:14Z</time>
      </trkpt>
      <trkpt lat="50.86063" lon="3.29058">
        <ele>15.6</ele>
        <time>2023-10-28T06:07:15Z</time>
      </trkpt>
      <trkpt lat="50.86058" lon="3.29062">
        <ele>15.6</ele>
        <time>2023-10-28T06:07:16Z</time>
      </trkpt>
      <trkpt lat="50.86042" lon="3.29078">
        <ele>15.4</ele>
        <time>2023-10-28T06:07:20Z</time>
      </trkpt>
      <trkpt lat="50.86038" lon="3.29081">
        <ele>15.4</ele>
        <time>2023-10-28T06:07:21Z</time>
      </trkpt>
      <trkpt lat="50.86035" lon="3.29085">
        <ele>15.4</ele>
        <time>2023-10-28T06:07:22Z</time>
      </trkpt>
      <trkpt lat="50.86032" lon="3.29088">
        <ele>15.4</ele>
        <time>2023-10-28T06:07:23Z</time>
      </trkpt>
      <trkpt lat="50.86028" lon="3.29092">
        <ele>15.2</ele>
        <time>2023-10-28T06:07:24Z</time>
      </trkpt>
      <trkpt lat="50.86024" lon="3.29095">
        <ele>15.2</ele>
        <time>2023-10-28T06:07:25Z</time>
      </trkpt>
      <trkpt lat="50.86011" lon="3.29107">
        <ele>15.2</ele>
        <time>2023-10-28T06:07:28Z</time>
      </trkpt>
      <trkpt lat="50.86007" lon="3.29112">
        <ele>15.2</ele>
        <time>2023-10-28T06:07:29Z</time>
      </trkpt>
      <trkpt lat="50.85993" lon="3.29128">
        <ele>15.2</ele>
        <time>2023-10-28T06:07:32Z</time>
      </trkpt>
      <trkpt lat="50.85988" lon="3.29133">
        <ele>15.2</ele>
        <time>2023-10-28T06:07:33Z</time>
      </trkpt>
      <trkpt lat="50.85983" lon="3.29138">
        <ele>15.2</ele>
        <time>2023-10-28T06:07:34Z</time>
      </trkpt>
      <trkpt lat="50.85973" lon="3.29154">
        <ele>15</ele>
        <time>2023-10-28T06:07:37Z</time>
      </trkpt>
      <trkpt lat="50.85971" lon="3.29157">
        <ele>15</ele>
        <time>2023-10-28T06:07:38Z</time>
      </trkpt>
      <trkpt lat="50.8597" lon="3.29159">
        <ele>15</ele>
        <time>2023-10-28T06:07:39Z</time>
      </trkpt>
      <trkpt lat="50.85969" lon="3.2916">
        <ele>15</ele>
        <time>2023-10-28T06:07:40Z</time>
      </trkpt>
      <trkpt lat="50.85968" lon="3.29161">
        <ele>15</ele>
        <time>2023-10-28T06:07:41Z</time>
      </trkpt>
      <trkpt lat="50.85966" lon="3.29162">
        <ele>15.2</ele>
        <time>2023-10-28T06:07:42Z</time>
      </trkpt>
      <trkpt lat="50.85963" lon="3.29161">
        <ele>15.2</ele>
        <time>2023-10-28T06:07:43Z</time>
      </trkpt>
      <trkpt lat="50.85955" lon="3.29157">
        <ele>15</ele>
        <time>2023-10-28T06:07:45Z</time>
      </trkpt>
      <trkpt lat="50.85951" lon="3.29156">
        <ele>15</ele>
        <time>2023-10-28T06:07:46Z</time>
      </trkpt>
      <trkpt lat="50.85931" lon="3.29148">
        <ele>14.8</ele>
        <time>2023-10-28T06:07:50Z</time>
      </trkpt>
      <trkpt lat="50.85926" lon="3.29146">
        <ele>14.8</ele>
        <time>2023-10-28T06:07:51Z</time>
      </trkpt>
      <trkpt lat="50.85921" lon="3.29144">
        <ele>14.8</ele>
        <time>2023-10-28T06:07:52Z</time>
      </trkpt>
      <trkpt lat="50.85915" lon="3.29143">
        <ele>14.8</ele>
        <time>2023-10-28T06:07:53Z</time>
      </trkpt>
      <trkpt lat="50.859" lon="3.29139">
        <ele>14.6</ele>
        <time>2023-10-28T06:07:56Z</time>
      </trkpt>
      <trkpt lat="50.85896" lon="3.29138">
        <ele>14.4</ele>
        <time>2023-10-28T06:07:57Z</time>
      </trkpt>
      <trkpt lat="50.85887" lon="3.29143">
        <ele>14.4</ele>
        <time>2023-10-28T06:07:59Z</time>
      </trkpt>
      <trkpt lat="50.85884" lon="3.29149">
        <ele>14.4</ele>
        <time>2023-10-28T06:08:00Z</time>
      </trkpt>
      <trkpt lat="50.85883" lon="3.29157">
        <ele>14.4</ele>
        <time>2023-10-28T06:08:01Z</time>
      </trkpt>
      <trkpt lat="50.85882" lon="3.29165">
        <ele>14.4</ele>
        <time>2023-10-28T06:08:02Z</time>
      </trkpt>
      <trkpt lat="50.85881" lon="3.29173">
        <ele>14.4</ele>
        <time>2023-10-28T06:08:03Z</time>
      </trkpt>
      <trkpt lat="50.8588" lon="3.29182">
        <ele>14.4</ele>
        <time>2023-10-28T06:08:04Z</time>
      </trkpt>
      <trkpt lat="50.85878" lon="3.29198">
        <ele>14.4</ele>
        <time>2023-10-28T06:08:06Z</time>
      </trkpt>
      <trkpt lat="50.85876" lon="3.29214">
        <ele>14.6</ele>
        <time>2023-10-28T06:08:08Z</time>
      </trkpt>
      <trkpt lat="50.85874" lon="3.29222">
        <ele>14.6</ele>
        <time>2023-10-28T06:08:09Z</time>
      </trkpt>
      <trkpt lat="50.85872" lon="3.29229">
        <ele>14.6</ele>
        <time>2023-10-28T06:08:10Z</time>
      </trkpt>
      <trkpt lat="50.85866" lon="3.29242">
        <ele>14.8</ele>
        <time>2023-10-28T06:08:12Z</time>
      </trkpt>
      <trkpt lat="50.85863" lon="3.29247">
        <ele>14.8</ele>
        <time>2023-10-28T06:08:13Z</time>
      </trkpt>
      <trkpt lat="50.85859" lon="3.29252">
        <ele>14.8</ele>
        <time>2023-10-28T06:08:14Z</time>
      </trkpt>
      <trkpt lat="50.85849" lon="3.29261">
        <ele>14.8</ele>
        <time>2023-10-28T06:08:16Z</time>
      </trkpt>
      <trkpt lat="50.85845" lon="3.29266">
        <ele>14.8</ele>
        <time>2023-10-28T06:08:17Z</time>
      </trkpt>
      <trkpt lat="50.85842" lon="3.29271">
        <ele>14.8</ele>
        <time>2023-10-28T06:08:18Z</time>
      </trkpt>
      <trkpt lat="50.85838" lon="3.29277">
        <ele>14.8</ele>
        <time>2023-10-28T06:08:19Z</time>
      </trkpt>
      <trkpt lat="50.85835" lon="3.29283">
        <ele>14.8</ele>
        <time>2023-10-28T06:08:20Z</time>
      </trkpt>
      <trkpt lat="50.85818" lon="3.29309">
        <ele>14.8</ele>
        <time>2023-10-28T06:08:25Z</time>
      </trkpt>
      <trkpt lat="50.85814" lon="3.29309">
        <ele>14.8</ele>
        <time>2023-10-28T06:08:26Z</time>
      </trkpt>
      <trkpt lat="50.85812" lon="3.29308">
        <ele>14.8</ele>
        <time>2023-10-28T06:08:27Z</time>
      </trkpt>
      <trkpt lat="50.85809" lon="3.29304">
        <ele>14.8</ele>
        <time>2023-10-28T06:08:28Z</time>
      </trkpt>
      <trkpt lat="50.85802" lon="3.29295">
        <ele>14.8</ele>
        <time>2023-10-28T06:08:30Z</time>
      </trkpt>
      <trkpt lat="50.85799" lon="3.2929">
        <ele>14.8</ele>
        <time>2023-10-28T06:08:31Z</time>
      </trkpt>
      <trkpt lat="50.85765" lon="3.29258">
        <ele>15.2</ele>
        <time>2023-10-28T06:08:39Z</time>
      </trkpt>
      <trkpt lat="50.85725" lon="3.29233">
        <ele>15.6</ele>
        <time>2023-10-28T06:08:47Z</time>
      </trkpt>
      <trkpt lat="50.85695" lon="3.29219">
        <ele>15.6</ele>
        <time>2023-10-28T06:08:53Z</time>
      </trkpt>
      <trkpt lat="50.85689" lon="3.29217">
        <ele>15.6</ele>
        <time>2023-10-28T06:08:54Z</time>
      </trkpt>
      <trkpt lat="50.85683" lon="3.29214">
        <ele>15.8</ele>
        <time>2023-10-28T06:08:55Z</time>
      </trkpt>
      <trkpt lat="50.85657" lon="3.29203">
        <ele>15.8</ele>
        <time>2023-10-28T06:09:00Z</time>
      </trkpt>
      <trkpt lat="50.85653" lon="3.29205">
        <ele>15.8</ele>
        <time>2023-10-28T06:09:01Z</time>
      </trkpt>
      <trkpt lat="50.8565" lon="3.29207">
        <ele>15.8</ele>
        <time>2023-10-28T06:09:02Z</time>
      </trkpt>
      <trkpt lat="50.85648" lon="3.2921">
        <ele>15.8</ele>
        <time>2023-10-28T06:09:03Z</time>
      </trkpt>
      <trkpt lat="50.85646" lon="3.29211">
        <ele>15.8</ele>
        <time>2023-10-28T06:09:04Z</time>
      </trkpt>
      <trkpt lat="50.85646" lon="3.29211">
        <ele>15.8</ele>
        <time>2023-10-28T06:09:05Z</time>
      </trkpt>
      <trkpt lat="50.85646" lon="3.29211">
        <ele>15.8</ele>
        <time>2023-10-28T06:09:06Z</time>
      </trkpt>
      <trkpt lat="50.85647" lon="3.29211">
        <ele>15.8</ele>
        <time>2023-10-28T06:09:07Z</time>
      </trkpt>
      <trkpt lat="50.85647" lon="3.29211">
        <ele>16</ele>
        <time>2023-10-28T06:09:08Z</time>
      </trkpt>
      <trkpt lat="50.85647" lon="3.29209">
        <ele>16</ele>
        <time>2023-10-28T06:09:09Z</time>
      </trkpt>
      <trkpt lat="50.85644" lon="3.292">
        <ele>16</ele>
        <time>2023-10-28T06:09:11Z</time>
      </trkpt>
      <trkpt lat="50.85634" lon="3.29176">
        <ele>16.2</ele>
        <time>2023-10-28T06:09:15Z</time>
      </trkpt>
      <trkpt lat="50.8563" lon="3.29171">
        <ele>16.2</ele>
        <time>2023-10-28T06:09:16Z</time>
      </trkpt>
      <trkpt lat="50.85624" lon="3.29166">
        <ele>16.2</ele>
        <time>2023-10-28T06:09:17Z</time>
      </trkpt>
      <trkpt lat="50.85619" lon="3.29164">
        <ele>16.2</ele>
        <time>2023-10-28T06:09:18Z</time>
      </trkpt>
      <trkpt lat="50.85613" lon="3.29164">
        <ele>16.2</ele>
        <time>2023-10-28T06:09:19Z</time>
      </trkpt>
      <trkpt lat="50.85608" lon="3.29166">
        <ele>16.2</ele>
        <time>2023-10-28T06:09:20Z</time>
      </trkpt>
      <trkpt lat="50.85599" lon="3.29174">
        <ele>15.8</ele>
        <time>2023-10-28T06:09:22Z</time>
      </trkpt>
      <trkpt lat="50.85594" lon="3.29179">
        <ele>15.8</ele>
        <time>2023-10-28T06:09:23Z</time>
      </trkpt>
      <trkpt lat="50.8559" lon="3.29186">
        <ele>15.8</ele>
        <time>2023-10-28T06:09:24Z</time>
      </trkpt>
      <trkpt lat="50.85568" lon="3.29206">
        <ele>15.6</ele>
        <time>2023-10-28T06:09:28Z</time>
      </trkpt>
      <trkpt lat="50.85531" lon="3.29239">
        <ele>14.8</ele>
        <time>2023-10-28T06:09:35Z</time>
      </trkpt>
      <trkpt lat="50.85526" lon="3.29243">
        <ele>14.6</ele>
        <time>2023-10-28T06:09:36Z</time>
      </trkpt>
      <trkpt lat="50.85522" lon="3.29247">
        <ele>14.2</ele>
        <time>2023-10-28T06:09:37Z</time>
      </trkpt>
      <trkpt lat="50.85518" lon="3.2925">
        <ele>14</ele>
        <time>2023-10-28T06:09:38Z</time>
      </trkpt>
      <trkpt lat="50.85514" lon="3.29251">
        <ele>14</ele>
        <time>2023-10-28T06:09:39Z</time>
      </trkpt>
      <trkpt lat="50.8551" lon="3.2925">
        <ele>13.8</ele>
        <time>2023-10-28T06:09:40Z</time>
      </trkpt>
      <trkpt lat="50.85506" lon="3.29249">
        <ele>13.8</ele>
        <time>2023-10-28T06:09:41Z</time>
      </trkpt>
      <trkpt lat="50.85502" lon="3.29246">
        <ele>13.6</ele>
        <time>2023-10-28T06:09:42Z</time>
      </trkpt>
      <trkpt lat="50.85497" lon="3.29242">
        <ele>13.6</ele>
        <time>2023-10-28T06:09:43Z</time>
      </trkpt>
      <trkpt lat="50.85493" lon="3.29238">
        <ele>13.6</ele>
        <time>2023-10-28T06:09:44Z</time>
      </trkpt>
      <trkpt lat="50.85488" lon="3.29233">
        <ele>13.4</ele>
        <time>2023-10-28T06:09:45Z</time>
      </trkpt>
      <trkpt lat="50.85483" lon="3.29227">
        <ele>13.4</ele>
        <time>2023-10-28T06:09:46Z</time>
      </trkpt>
      <trkpt lat="50.85469" lon="3.2921">
        <ele>13.2</ele>
        <time>2023-10-28T06:09:49Z</time>
      </trkpt>
      <trkpt lat="50.85445" lon="3.2918">
        <ele>12.6</ele>
        <time>2023-10-28T06:09:54Z</time>
      </trkpt>
      <trkpt lat="50.85437" lon="3.2917">
        <ele>12.4</ele>
        <time>2023-10-28T06:09:56Z</time>
      </trkpt>
      <trkpt lat="50.85421" lon="3.29154">
        <ele>12.4</ele>
        <time>2023-10-28T06:09:59Z</time>
      </trkpt>
      <trkpt lat="50.85407" lon="3.29142">
        <ele>12.2</ele>
        <time>2023-10-28T06:10:02Z</time>
      </trkpt>
      <trkpt lat="50.85403" lon="3.29139">
        <ele>12.2</ele>
        <time>2023-10-28T06:10:03Z</time>
      </trkpt>
      <trkpt lat="50.85399" lon="3.29136">
        <ele>12.2</ele>
        <time>2023-10-28T06:10:04Z</time>
      </trkpt>
      <trkpt lat="50.85395" lon="3.29132">
        <ele>12.2</ele>
        <time>2023-10-28T06:10:05Z</time>
      </trkpt>
      <trkpt lat="50.85391" lon="3.29127">
        <ele>12.2</ele>
        <time>2023-10-28T06:10:06Z</time>
      </trkpt>
      <trkpt lat="50.85371" lon="3.29107">
        <ele>12</ele>
        <time>2023-10-28T06:10:11Z</time>
      </trkpt>
      <trkpt lat="50.85367" lon="3.29106">
        <ele>12</ele>
        <time>2023-10-28T06:10:12Z</time>
      </trkpt>
      <trkpt lat="50.85363" lon="3.29108">
        <ele>12</ele>
        <time>2023-10-28T06:10:13Z</time>
      </trkpt>
      <trkpt lat="50.8536" lon="3.29112">
        <ele>12</ele>
        <time>2023-10-28T06:10:14Z</time>
      </trkpt>
      <trkpt lat="50.85356" lon="3.29117">
        <ele>12</ele>
        <time>2023-10-28T06:10:15Z</time>
      </trkpt>
      <trkpt lat="50.85353" lon="3.29122">
        <ele>12</ele>
        <time>2023-10-28T06:10:16Z</time>
      </trkpt>
      <trkpt lat="50.8535" lon="3.29128">
        <ele>12</ele>
        <time>2023-10-28T06:10:17Z</time>
      </trkpt>
      <trkpt lat="50.85347" lon="3.29135">
        <ele>12</ele>
        <time>2023-10-28T06:10:18Z</time>
      </trkpt>
      <trkpt lat="50.85344" lon="3.29142">
        <ele>12</ele>
        <time>2023-10-28T06:10:19Z</time>
      </trkpt>
      <trkpt lat="50.85341" lon="3.29149">
        <ele>12</ele>
        <time>2023-10-28T06:10:20Z</time>
      </trkpt>
      <trkpt lat="50.85338" lon="3.29156">
        <ele>12</ele>
        <time>2023-10-28T06:10:21Z</time>
      </trkpt>
      <trkpt lat="50.85327" lon="3.29183">
        <ele>12</ele>
        <time>2023-10-28T06:10:25Z</time>
      </trkpt>
      <trkpt lat="50.85324" lon="3.29187">
        <ele>12</ele>
        <time>2023-10-28T06:10:26Z</time>
      </trkpt>
      <trkpt lat="50.8532" lon="3.29191">
        <ele>12</ele>
        <time>2023-10-28T06:10:27Z</time>
      </trkpt>
      <trkpt lat="50.85319" lon="3.29195">
        <ele>12</ele>
        <time>2023-10-28T06:10:28Z</time>
      </trkpt>
      <trkpt lat="50.85317" lon="3.292">
        <ele>12</ele>
        <time>2023-10-28T06:10:29Z</time>
      </trkpt>
      <trkpt lat="50.85317" lon="3.29205">
        <ele>12</ele>
        <time>2023-10-28T06:10:30Z</time>
      </trkpt>
      <trkpt lat="50.85315" lon="3.29212">
        <ele>12.2</ele>
        <time>2023-10-28T06:10:31Z</time>
      </trkpt>
      <trkpt lat="50.85313" lon="3.29219">
        <ele>12.2</ele>
        <time>2023-10-28T06:10:32Z</time>
      </trkpt>
      <trkpt lat="50.85306" lon="3.29233">
        <ele>12.2</ele>
        <time>2023-10-28T06:10:34Z</time>
      </trkpt>
      <trkpt lat="50.85296" lon="3.29253">
        <ele>12.2</ele>
        <time>2023-10-28T06:10:37Z</time>
      </trkpt>
      <trkpt lat="50.8529" lon="3.29263">
        <ele>12.2</ele>
        <time>2023-10-28T06:10:39Z</time>
      </trkpt>
      <trkpt lat="50.85289" lon="3.29267">
        <ele>12.2</ele>
        <time>2023-10-28T06:10:40Z</time>
      </trkpt>
      <trkpt lat="50.8529" lon="3.2927">
        <ele>12</ele>
        <time>2023-10-28T06:10:41Z</time>
      </trkpt>
      <trkpt lat="50.85302" lon="3.29296">
        <ele>11.8</ele>
        <time>2023-10-28T06:10:46Z</time>
      </trkpt>
      <trkpt lat="50.85311" lon="3.29314">
        <ele>11.6</ele>
        <time>2023-10-28T06:10:49Z</time>
      </trkpt>
      <trkpt lat="50.85318" lon="3.29327">
        <ele>11.6</ele>
        <time>2023-10-28T06:10:51Z</time>
      </trkpt>
      <trkpt lat="50.85332" lon="3.29351">
        <ele>11.4</ele>
        <time>2023-10-28T06:10:55Z</time>
      </trkpt>
      <trkpt lat="50.85337" lon="3.29364">
        <ele>11.2</ele>
        <time>2023-10-28T06:10:57Z</time>
      </trkpt>
      <trkpt lat="50.85344" lon="3.29377">
        <ele>11.2</ele>
        <time>2023-10-28T06:10:59Z</time>
      </trkpt>
      <trkpt lat="50.85356" lon="3.29405">
        <ele>11</ele>
        <time>2023-10-28T06:11:03Z</time>
      </trkpt>
      <trkpt lat="50.85359" lon="3.29412">
        <ele>11</ele>
        <time>2023-10-28T06:11:04Z</time>
      </trkpt>
      <trkpt lat="50.85379" lon="3.29455">
        <ele>11</ele>
        <time>2023-10-28T06:11:10Z</time>
      </trkpt>
      <trkpt lat="50.85382" lon="3.29462">
        <ele>11</ele>
        <time>2023-10-28T06:11:11Z</time>
      </trkpt>
      <trkpt lat="50.85386" lon="3.29469">
        <ele>11</ele>
        <time>2023-10-28T06:11:12Z</time>
      </trkpt>
      <trkpt lat="50.85398" lon="3.29491">
        <ele>10.8</ele>
        <time>2023-10-28T06:11:15Z</time>
      </trkpt>
      <trkpt lat="50.85414" lon="3.29521">
        <ele>10.8</ele>
        <time>2023-10-28T06:11:19Z</time>
      </trkpt>
      <trkpt lat="50.85418" lon="3.29529">
        <ele>10.8</ele>
        <time>2023-10-28T06:11:20Z</time>
      </trkpt>
      <trkpt lat="50.85422" lon="3.29536">
        <ele>10.6</ele>
        <time>2023-10-28T06:11:21Z</time>
      </trkpt>
      <trkpt lat="50.85426" lon="3.29543">
        <ele>10.6</ele>
        <time>2023-10-28T06:11:22Z</time>
      </trkpt>
      <trkpt lat="50.85438" lon="3.29566">
        <ele>10.4</ele>
        <time>2023-10-28T06:11:25Z</time>
      </trkpt>
      <trkpt lat="50.85462" lon="3.29612">
        <ele>10.2</ele>
        <time>2023-10-28T06:11:31Z</time>
      </trkpt>
      <trkpt lat="50.85465" lon="3.29616">
        <ele>10.2</ele>
        <time>2023-10-28T06:11:32Z</time>
      </trkpt>
      <trkpt lat="50.8547" lon="3.29618">
        <ele>10.2</ele>
        <time>2023-10-28T06:11:33Z</time>
      </trkpt>
      <trkpt lat="50.85475" lon="3.29621">
        <ele>10.2</ele>
        <time>2023-10-28T06:11:34Z</time>
      </trkpt>
      <trkpt lat="50.85479" lon="3.29625">
        <ele>10.2</ele>
        <time>2023-10-28T06:11:35Z</time>
      </trkpt>
      <trkpt lat="50.85487" lon="3.29637">
        <ele>10.2</ele>
        <time>2023-10-28T06:11:37Z</time>
      </trkpt>
      <trkpt lat="50.85492" lon="3.29643">
        <ele>10.2</ele>
        <time>2023-10-28T06:11:38Z</time>
      </trkpt>
      <trkpt lat="50.85512" lon="3.29682">
        <ele>10.8</ele>
        <time>2023-10-28T06:11:43Z</time>
      </trkpt>
      <trkpt lat="50.85516" lon="3.29689">
        <ele>11</ele>
        <time>2023-10-28T06:11:44Z</time>
      </trkpt>
      <trkpt lat="50.85521" lon="3.29697">
        <ele>11</ele>
        <time>2023-10-28T06:11:45Z</time>
      </trkpt>
      <trkpt lat="50.85525" lon="3.29704">
        <ele>11</ele>
        <time>2023-10-28T06:11:46Z</time>
      </trkpt>
      <trkpt lat="50.85528" lon="3.29711">
        <ele>11</ele>
        <time>2023-10-28T06:11:47Z</time>
      </trkpt>
      <trkpt lat="50.85531" lon="3.29716">
        <ele>11.2</ele>
        <time>2023-10-28T06:11:48Z</time>
      </trkpt>
      <trkpt lat="50.85534" lon="3.2972">
        <ele>11.2</ele>
        <time>2023-10-28T06:11:49Z</time>
      </trkpt>
      <trkpt lat="50.85536" lon="3.29724">
        <ele>11.2</ele>
        <time>2023-10-28T06:11:50Z</time>
      </trkpt>
      <trkpt lat="50.85537" lon="3.29728">
        <ele>11.2</ele>
        <time>2023-10-28T06:11:51Z</time>
      </trkpt>
      <trkpt lat="50.85537" lon="3.29732">
        <ele>11.4</ele>
        <time>2023-10-28T06:11:52Z</time>
      </trkpt>
      <trkpt lat="50.85536" lon="3.29733">
        <ele>11.4</ele>
        <time>2023-10-28T06:11:53Z</time>
      </trkpt>
      <trkpt lat="50.8553" lon="3.29739">
        <ele>11.4</ele>
        <time>2023-10-28T06:11:55Z</time>
      </trkpt>
      <trkpt lat="50.85519" lon="3.29749">
        <ele>11.2</ele>
        <time>2023-10-28T06:11:58Z</time>
      </trkpt>
      <trkpt lat="50.85511" lon="3.29758">
        <ele>11.2</ele>
        <time>2023-10-28T06:12:00Z</time>
      </trkpt>
      <trkpt lat="50.85499" lon="3.29772">
        <ele>11</ele>
        <time>2023-10-28T06:12:03Z</time>
      </trkpt>
      <trkpt lat="50.85494" lon="3.29777">
        <ele>11</ele>
        <time>2023-10-28T06:12:04Z</time>
      </trkpt>
      <trkpt lat="50.85482" lon="3.29792">
        <ele>10.6</ele>
        <time>2023-10-28T06:12:07Z</time>
      </trkpt>
      <trkpt lat="50.85464" lon="3.2982">
        <ele>10.2</ele>
        <time>2023-10-28T06:12:12Z</time>
      </trkpt>
      <trkpt lat="50.85451" lon="3.29844">
        <ele>10.2</ele>
        <time>2023-10-28T06:12:16Z</time>
      </trkpt>
      <trkpt lat="50.85447" lon="3.29849">
        <ele>10.2</ele>
        <time>2023-10-28T06:12:17Z</time>
      </trkpt>
      <trkpt lat="50.85427" lon="3.29878">
        <ele>11</ele>
        <time>2023-10-28T06:12:22Z</time>
      </trkpt>
      <trkpt lat="50.85412" lon="3.29896">
        <ele>11</ele>
        <time>2023-10-28T06:12:25Z</time>
      </trkpt>
      <trkpt lat="50.85401" lon="3.29907">
        <ele>11.2</ele>
        <time>2023-10-28T06:12:27Z</time>
      </trkpt>
      <trkpt lat="50.85375" lon="3.29948">
        <ele>10.4</ele>
        <time>2023-10-28T06:12:33Z</time>
      </trkpt>
      <trkpt lat="50.8537" lon="3.29954">
        <ele>10.2</ele>
        <time>2023-10-28T06:12:34Z</time>
      </trkpt>
      <trkpt lat="50.85343" lon="3.30004">
        <ele>9.2</ele>
        <time>2023-10-28T06:12:41Z</time>
      </trkpt>
      <trkpt lat="50.8534" lon="3.30011">
        <ele>9.2</ele>
        <time>2023-10-28T06:12:42Z</time>
      </trkpt>
      <trkpt lat="50.85336" lon="3.30017">
        <ele>9</ele>
        <time>2023-10-28T06:12:43Z</time>
      </trkpt>
      <trkpt lat="50.85332" lon="3.30023">
        <ele>8.8</ele>
        <time>2023-10-28T06:12:44Z</time>
      </trkpt>
      <trkpt lat="50.85328" lon="3.30029">
        <ele>8.8</ele>
        <time>2023-10-28T06:12:45Z</time>
      </trkpt>
      <trkpt lat="50.85323" lon="3.30034">
        <ele>8.8</ele>
        <time>2023-10-28T06:12:46Z</time>
      </trkpt>
      <trkpt lat="50.85319" lon="3.30039">
        <ele>8.8</ele>
        <time>2023-10-28T06:12:47Z</time>
      </trkpt>
      <trkpt lat="50.85315" lon="3.30043">
        <ele>8.8</ele>
        <time>2023-10-28T06:12:48Z</time>
      </trkpt>
      <trkpt lat="50.85312" lon="3.30046">
        <ele>8.8</ele>
        <time>2023-10-28T06:12:49Z</time>
      </trkpt>
      <trkpt lat="50.8531" lon="3.30049">
        <ele>8.8</ele>
        <time>2023-10-28T06:12:50Z</time>
      </trkpt>
      <trkpt lat="50.85308" lon="3.3005">
        <ele>8.8</ele>
        <time>2023-10-28T06:12:51Z</time>
      </trkpt>
      <trkpt lat="50.85305" lon="3.30051">
        <ele>8.8</ele>
        <time>2023-10-28T06:12:52Z</time>
      </trkpt>
      <trkpt lat="50.853" lon="3.30056">
        <ele>8.8</ele>
        <time>2023-10-28T06:12:54Z</time>
      </trkpt>
      <trkpt lat="50.85298" lon="3.30059">
        <ele>8.6</ele>
        <time>2023-10-28T06:12:55Z</time>
      </trkpt>
      <trkpt lat="50.85298" lon="3.30063">
        <ele>8.6</ele>
        <time>2023-10-28T06:12:56Z</time>
      </trkpt>
      <trkpt lat="50.85302" lon="3.30072">
        <ele>8.6</ele>
        <time>2023-10-28T06:12:58Z</time>
      </trkpt>
      <trkpt lat="50.85308" lon="3.30081">
        <ele>8.6</ele>
        <time>2023-10-28T06:13:00Z</time>
      </trkpt>
      <trkpt lat="50.85312" lon="3.30086">
        <ele>8.6</ele>
        <time>2023-10-28T06:13:01Z</time>
      </trkpt>
      <trkpt lat="50.85319" lon="3.30096">
        <ele>8.4</ele>
        <time>2023-10-28T06:13:03Z</time>
      </trkpt>
      <trkpt lat="50.85328" lon="3.30106">
        <ele>8.2</ele>
        <time>2023-10-28T06:13:05Z</time>
      </trkpt>
      <trkpt lat="50.85342" lon="3.30122">
        <ele>8.2</ele>
        <time>2023-10-28T06:13:08Z</time>
      </trkpt>
      <trkpt lat="50.85357" lon="3.3014">
        <ele>8</ele>
        <time>2023-10-28T06:13:11Z</time>
      </trkpt>
      <trkpt lat="50.85387" lon="3.30178">
        <ele>7.6</ele>
        <time>2023-10-28T06:13:17Z</time>
      </trkpt>
      <trkpt lat="50.85431" lon="3.30236">
        <ele>7.6</ele>
        <time>2023-10-28T06:13:26Z</time>
      </trkpt>
      <trkpt lat="50.85445" lon="3.30256">
        <ele>7.6</ele>
        <time>2023-10-28T06:13:29Z</time>
      </trkpt>
      <trkpt lat="50.85456" lon="3.3028">
        <ele>7.6</ele>
        <time>2023-10-28T06:13:32Z</time>
      </trkpt>
      <trkpt lat="50.85469" lon="3.30314">
        <ele>7.2</ele>
        <time>2023-10-28T06:13:36Z</time>
      </trkpt>
      <trkpt lat="50.8548" lon="3.30338">
        <ele>7</ele>
        <time>2023-10-28T06:13:39Z</time>
      </trkpt>
      <trkpt lat="50.85498" lon="3.30367">
        <ele>7</ele>
        <time>2023-10-28T06:13:43Z</time>
      </trkpt>
      <trkpt lat="50.85515" lon="3.30393">
        <ele>6.8</ele>
        <time>2023-10-28T06:13:47Z</time>
      </trkpt>
      <trkpt lat="50.8552" lon="3.30399">
        <ele>6.8</ele>
        <time>2023-10-28T06:13:48Z</time>
      </trkpt>
      <trkpt lat="50.85524" lon="3.30406">
        <ele>7</ele>
        <time>2023-10-28T06:13:49Z</time>
      </trkpt>
      <trkpt lat="50.85527" lon="3.30413">
        <ele>7</ele>
        <time>2023-10-28T06:13:50Z</time>
      </trkpt>
      <trkpt lat="50.8553" lon="3.30421">
        <ele>7</ele>
        <time>2023-10-28T06:13:51Z</time>
      </trkpt>
      <trkpt lat="50.85533" lon="3.30429">
        <ele>7</ele>
        <time>2023-10-28T06:13:52Z</time>
      </trkpt>
      <trkpt lat="50.85536" lon="3.30437">
        <ele>7.2</ele>
        <time>2023-10-28T06:13:53Z</time>
      </trkpt>
      <trkpt lat="50.8554" lon="3.30447">
        <ele>7.4</ele>
        <time>2023-10-28T06:13:54Z</time>
      </trkpt>
      <trkpt lat="50.85548" lon="3.30467">
        <ele>7.6</ele>
        <time>2023-10-28T06:13:57Z</time>
      </trkpt>
      <trkpt lat="50.85551" lon="3.30473">
        <ele>7.6</ele>
        <time>2023-10-28T06:13:58Z</time>
      </trkpt>
      <trkpt lat="50.85552" lon="3.30478">
        <ele>7.8</ele>
        <time>2023-10-28T06:13:59Z</time>
      </trkpt>
      <trkpt lat="50.85552" lon="3.30483">
        <ele>7.8</ele>
        <time>2023-10-28T06:14:00Z</time>
      </trkpt>
      <trkpt lat="50.8555" lon="3.30488">
        <ele>7.8</ele>
        <time>2023-10-28T06:14:01Z</time>
      </trkpt>
      <trkpt lat="50.85546" lon="3.3049">
        <ele>8</ele>
        <time>2023-10-28T06:14:02Z</time>
      </trkpt>
      <trkpt lat="50.85544" lon="3.30492">
        <ele>8</ele>
        <time>2023-10-28T06:14:03Z</time>
      </trkpt>
      <trkpt lat="50.85538" lon="3.30496">
        <ele>8.2</ele>
        <time>2023-10-28T06:14:05Z</time>
      </trkpt>
      <trkpt lat="50.85535" lon="3.30499">
        <ele>8.2</ele>
        <time>2023-10-28T06:14:06Z</time>
      </trkpt>
      <trkpt lat="50.85526" lon="3.30506">
        <ele>8.6</ele>
        <time>2023-10-28T06:14:09Z</time>
      </trkpt>
      <trkpt lat="50.85523" lon="3.30506">
        <ele>8.6</ele>
        <time>2023-10-28T06:14:10Z</time>
      </trkpt>
      <trkpt lat="50.8552" lon="3.30504">
        <ele>8.8</ele>
        <time>2023-10-28T06:14:11Z</time>
      </trkpt>
      <trkpt lat="50.85518" lon="3.305">
        <ele>8.8</ele>
        <time>2023-10-28T06:14:12Z</time>
      </trkpt>
      <trkpt lat="50.8551" lon="3.30484">
        <ele>8.8</ele>
        <time>2023-10-28T06:14:15Z</time>
      </trkpt>
      <trkpt lat="50.85508" lon="3.30477">
        <ele>8.8</ele>
        <time>2023-10-28T06:14:16Z</time>
      </trkpt>
      <trkpt lat="50.85502" lon="3.30464">
        <ele>8.8</ele>
        <time>2023-10-28T06:14:18Z</time>
      </trkpt>
      <trkpt lat="50.85492" lon="3.30444">
        <ele>8.4</ele>
        <time>2023-10-28T06:14:21Z</time>
      </trkpt>
      <trkpt lat="50.85488" lon="3.30438">
        <ele>8.4</ele>
        <time>2023-10-28T06:14:22Z</time>
      </trkpt>
      <trkpt lat="50.85484" lon="3.30434">
        <ele>8.2</ele>
        <time>2023-10-28T06:14:23Z</time>
      </trkpt>
      <trkpt lat="50.8548" lon="3.3043">
        <ele>8</ele>
        <time>2023-10-28T06:14:24Z</time>
      </trkpt>
      <trkpt lat="50.85463" lon="3.30413">
        <ele>7.4</ele>
        <time>2023-10-28T06:14:28Z</time>
      </trkpt>
      <trkpt lat="50.85455" lon="3.30406">
        <ele>7.4</ele>
        <time>2023-10-28T06:14:30Z</time>
      </trkpt>
      <trkpt lat="50.8545" lon="3.30402">
        <ele>7.2</ele>
        <time>2023-10-28T06:14:31Z</time>
      </trkpt>
      <trkpt lat="50.85446" lon="3.30398">
        <ele>7</ele>
        <time>2023-10-28T06:14:32Z</time>
      </trkpt>
      <trkpt lat="50.85443" lon="3.30394">
        <ele>6.8</ele>
        <time>2023-10-28T06:14:33Z</time>
      </trkpt>
      <trkpt lat="50.85439" lon="3.30389">
        <ele>6.8</ele>
        <time>2023-10-28T06:14:34Z</time>
      </trkpt>
      <trkpt lat="50.85436" lon="3.30385">
        <ele>6.6</ele>
        <time>2023-10-28T06:14:35Z</time>
      </trkpt>
      <trkpt lat="50.85433" lon="3.3038">
        <ele>6.6</ele>
        <time>2023-10-28T06:14:36Z</time>
      </trkpt>
      <trkpt lat="50.85431" lon="3.30376">
        <ele>6.4</ele>
        <time>2023-10-28T06:14:37Z</time>
      </trkpt>
      <trkpt lat="50.85429" lon="3.30371">
        <ele>6.4</ele>
        <time>2023-10-28T06:14:38Z</time>
      </trkpt>
      <trkpt lat="50.85426" lon="3.30367">
        <ele>6.4</ele>
        <time>2023-10-28T06:14:39Z</time>
      </trkpt>
      <trkpt lat="50.85422" lon="3.30357">
        <ele>6.2</ele>
        <time>2023-10-28T06:14:41Z</time>
      </trkpt>
      <trkpt lat="50.85418" lon="3.30344">
        <ele>6.2</ele>
        <time>2023-10-28T06:14:43Z</time>
      </trkpt>
      <trkpt lat="50.85407" lon="3.30305">
        <ele>6.4</ele>
        <time>2023-10-28T06:14:48Z</time>
      </trkpt>
      <trkpt lat="50.85404" lon="3.30297">
        <ele>6.4</ele>
        <time>2023-10-28T06:14:49Z</time>
      </trkpt>
      <trkpt lat="50.85389" lon="3.30273">
        <ele>6.4</ele>
        <time>2023-10-28T06:14:53Z</time>
      </trkpt>
      <trkpt lat="50.85385" lon="3.3027">
        <ele>6.4</ele>
        <time>2023-10-28T06:14:54Z</time>
      </trkpt>
      <trkpt lat="50.8538" lon="3.30267">
        <ele>6.4</ele>
        <time>2023-10-28T06:14:55Z</time>
      </trkpt>
      <trkpt lat="50.85376" lon="3.30266">
        <ele>6.4</ele>
        <time>2023-10-28T06:14:56Z</time>
      </trkpt>
      <trkpt lat="50.85372" lon="3.30269">
        <ele>6.6</ele>
        <time>2023-10-28T06:14:57Z</time>
      </trkpt>
      <trkpt lat="50.85369" lon="3.30274">
        <ele>6.6</ele>
        <time>2023-10-28T06:14:58Z</time>
      </trkpt>
      <trkpt lat="50.85367" lon="3.30281">
        <ele>6.6</ele>
        <time>2023-10-28T06:14:59Z</time>
      </trkpt>
      <trkpt lat="50.85365" lon="3.30288">
        <ele>6.6</ele>
        <time>2023-10-28T06:15:00Z</time>
      </trkpt>
      <trkpt lat="50.85363" lon="3.30296">
        <ele>6.8</ele>
        <time>2023-10-28T06:15:01Z</time>
      </trkpt>
      <trkpt lat="50.85361" lon="3.30303">
        <ele>6.8</ele>
        <time>2023-10-28T06:15:02Z</time>
      </trkpt>
      <trkpt lat="50.85359" lon="3.3031">
        <ele>7</ele>
        <time>2023-10-28T06:15:03Z</time>
      </trkpt>
      <trkpt lat="50.85353" lon="3.30323">
        <ele>7</ele>
        <time>2023-10-28T06:15:05Z</time>
      </trkpt>
      <trkpt lat="50.8535" lon="3.30329">
        <ele>7</ele>
        <time>2023-10-28T06:15:06Z</time>
      </trkpt>
      <trkpt lat="50.85348" lon="3.30335">
        <ele>7</ele>
        <time>2023-10-28T06:15:07Z</time>
      </trkpt>
      <trkpt lat="50.85343" lon="3.30337">
        <ele>7.2</ele>
        <time>2023-10-28T06:15:08Z</time>
      </trkpt>
      <trkpt lat="50.85339" lon="3.30337">
        <ele>7.4</ele>
        <time>2023-10-28T06:15:09Z</time>
      </trkpt>
      <trkpt lat="50.85336" lon="3.30334">
        <ele>7.6</ele>
        <time>2023-10-28T06:15:10Z</time>
      </trkpt>
      <trkpt lat="50.85333" lon="3.30329">
        <ele>7.8</ele>
        <time>2023-10-28T06:15:11Z</time>
      </trkpt>
      <trkpt lat="50.85329" lon="3.30323">
        <ele>8</ele>
        <time>2023-10-28T06:15:12Z</time>
      </trkpt>
      <trkpt lat="50.85326" lon="3.30317">
        <ele>8</ele>
        <time>2023-10-28T06:15:13Z</time>
      </trkpt>
      <trkpt lat="50.85322" lon="3.30312">
        <ele>8</ele>
        <time>2023-10-28T06:15:14Z</time>
      </trkpt>
      <trkpt lat="50.85308" lon="3.30295">
        <ele>8</ele>
        <time>2023-10-28T06:15:17Z</time>
      </trkpt>
      <trkpt lat="50.85303" lon="3.30289">
        <ele>8</ele>
        <time>2023-10-28T06:15:18Z</time>
      </trkpt>
      <trkpt lat="50.8528" lon="3.30255">
        <ele>8</ele>
        <time>2023-10-28T06:15:24Z</time>
      </trkpt>
      <trkpt lat="50.85256" lon="3.30222">
        <ele>7.8</ele>
        <time>2023-10-28T06:15:30Z</time>
      </trkpt>
      <trkpt lat="50.85244" lon="3.30207">
        <ele>7.4</ele>
        <time>2023-10-28T06:15:33Z</time>
      </trkpt>
      <trkpt lat="50.8524" lon="3.30201">
        <ele>7.2</ele>
        <time>2023-10-28T06:15:34Z</time>
      </trkpt>
      <trkpt lat="50.85236" lon="3.30196">
        <ele>7.2</ele>
        <time>2023-10-28T06:15:35Z</time>
      </trkpt>
      <trkpt lat="50.85231" lon="3.30191">
        <ele>7.2</ele>
        <time>2023-10-28T06:15:36Z</time>
      </trkpt>
      <trkpt lat="50.85227" lon="3.30186">
        <ele>7.2</ele>
        <time>2023-10-28T06:15:37Z</time>
      </trkpt>
      <trkpt lat="50.85223" lon="3.30181">
        <ele>7.2</ele>
        <time>2023-10-28T06:15:38Z</time>
      </trkpt>
      <trkpt lat="50.85197" lon="3.3015">
        <ele>7.4</ele>
        <time>2023-10-28T06:15:44Z</time>
      </trkpt>
      <trkpt lat="50.85186" lon="3.30133">
        <ele>7.2</ele>
        <time>2023-10-28T06:15:47Z</time>
      </trkpt>
      <trkpt lat="50.85181" lon="3.30119">
        <ele>7.2</ele>
        <time>2023-10-28T06:15:49Z</time>
      </trkpt>
      <trkpt lat="50.85181" lon="3.30111">
        <ele>7.2</ele>
        <time>2023-10-28T06:15:50Z</time>
      </trkpt>
      <trkpt lat="50.85181" lon="3.30103">
        <ele>7.4</ele>
        <time>2023-10-28T06:15:51Z</time>
      </trkpt>
      <trkpt lat="50.85181" lon="3.30096">
        <ele>7.4</ele>
        <time>2023-10-28T06:15:52Z</time>
      </trkpt>
      <trkpt lat="50.85181" lon="3.30088">
        <ele>7.6</ele>
        <time>2023-10-28T06:15:53Z</time>
      </trkpt>
      <trkpt lat="50.85182" lon="3.3008">
        <ele>7.6</ele>
        <time>2023-10-28T06:15:54Z</time>
      </trkpt>
      <trkpt lat="50.85184" lon="3.30005">
        <ele>8.2</ele>
        <time>2023-10-28T06:16:03Z</time>
      </trkpt>
      <trkpt lat="50.85184" lon="3.2999">
        <ele>8.4</ele>
        <time>2023-10-28T06:16:05Z</time>
      </trkpt>
      <trkpt lat="50.85184" lon="3.29982">
        <ele>8.4</ele>
        <time>2023-10-28T06:16:06Z</time>
      </trkpt>
      <trkpt lat="50.85184" lon="3.29974">
        <ele>8.4</ele>
        <time>2023-10-28T06:16:07Z</time>
      </trkpt>
      <trkpt lat="50.85184" lon="3.29966">
        <ele>8.4</ele>
        <time>2023-10-28T06:16:08Z</time>
      </trkpt>
      <trkpt lat="50.85184" lon="3.29942">
        <ele>8.6</ele>
        <time>2023-10-28T06:16:11Z</time>
      </trkpt>
      <trkpt lat="50.85185" lon="3.29917">
        <ele>8.6</ele>
        <time>2023-10-28T06:16:14Z</time>
      </trkpt>
      <trkpt lat="50.85184" lon="3.29896">
        <ele>8.6</ele>
        <time>2023-10-28T06:16:17Z</time>
      </trkpt>
      <trkpt lat="50.85183" lon="3.29889">
        <ele>8.6</ele>
        <time>2023-10-28T06:16:18Z</time>
      </trkpt>
      <trkpt lat="50.85181" lon="3.29882">
        <ele>8.6</ele>
        <time>2023-10-28T06:16:19Z</time>
      </trkpt>
      <trkpt lat="50.85181" lon="3.29876">
        <ele>8.6</ele>
        <time>2023-10-28T06:16:20Z</time>
      </trkpt>
      <trkpt lat="50.85181" lon="3.29869">
        <ele>8.6</ele>
        <time>2023-10-28T06:16:21Z</time>
      </trkpt>
      <trkpt lat="50.85182" lon="3.29862">
        <ele>8.8</ele>
        <time>2023-10-28T06:16:22Z</time>
      </trkpt>
      <trkpt lat="50.85183" lon="3.29854">
        <ele>8.8</ele>
        <time>2023-10-28T06:16:23Z</time>
      </trkpt>
      <trkpt lat="50.85182" lon="3.29849">
        <ele>8.8</ele>
        <time>2023-10-28T06:16:24Z</time>
      </trkpt>
      <trkpt lat="50.8518" lon="3.29843">
        <ele>9</ele>
        <time>2023-10-28T06:16:25Z</time>
      </trkpt>
      <trkpt lat="50.85177" lon="3.29838">
        <ele>9</ele>
        <time>2023-10-28T06:16:26Z</time>
      </trkpt>
      <trkpt lat="50.85173" lon="3.29834">
        <ele>9</ele>
        <time>2023-10-28T06:16:27Z</time>
      </trkpt>
      <trkpt lat="50.85169" lon="3.29832">
        <ele>9</ele>
        <time>2023-10-28T06:16:28Z</time>
      </trkpt>
      <trkpt lat="50.85165" lon="3.29832">
        <ele>9</ele>
        <time>2023-10-28T06:16:29Z</time>
      </trkpt>
      <trkpt lat="50.85161" lon="3.29834">
        <ele>9</ele>
        <time>2023-10-28T06:16:30Z</time>
      </trkpt>
      <trkpt lat="50.85158" lon="3.29839">
        <ele>9</ele>
        <time>2023-10-28T06:16:31Z</time>
      </trkpt>
      <trkpt lat="50.85156" lon="3.29845">
        <ele>9.2</ele>
        <time>2023-10-28T06:16:32Z</time>
      </trkpt>
      <trkpt lat="50.85154" lon="3.29852">
        <ele>9.4</ele>
        <time>2023-10-28T06:16:33Z</time>
      </trkpt>
      <trkpt lat="50.85151" lon="3.29866">
        <ele>9.6</ele>
        <time>2023-10-28T06:16:35Z</time>
      </trkpt>
      <trkpt lat="50.85148" lon="3.29872">
        <ele>9.6</ele>
        <time>2023-10-28T06:16:36Z</time>
      </trkpt>
      <trkpt lat="50.85145" lon="3.29877">
        <ele>9.6</ele>
        <time>2023-10-28T06:16:37Z</time>
      </trkpt>
      <trkpt lat="50.85141" lon="3.29882">
        <ele>9.8</ele>
        <time>2023-10-28T06:16:38Z</time>
      </trkpt>
      <trkpt lat="50.85137" lon="3.29886">
        <ele>9.8</ele>
        <time>2023-10-28T06:16:39Z</time>
      </trkpt>
      <trkpt lat="50.85133" lon="3.2989">
        <ele>9.8</ele>
        <time>2023-10-28T06:16:40Z</time>
      </trkpt>
      <trkpt lat="50.8513" lon="3.29894">
        <ele>9.8</ele>
        <time>2023-10-28T06:16:41Z</time>
      </trkpt>
      <trkpt lat="50.85126" lon="3.29898">
        <ele>10</ele>
        <time>2023-10-28T06:16:42Z</time>
      </trkpt>
      <trkpt lat="50.85123" lon="3.29902">
        <ele>10.2</ele>
        <time>2023-10-28T06:16:43Z</time>
      </trkpt>
      <trkpt lat="50.85119" lon="3.29906">
        <ele>10.4</ele>
        <time>2023-10-28T06:16:44Z</time>
      </trkpt>
      <trkpt lat="50.85116" lon="3.29912">
        <ele>10.4</ele>
        <time>2023-10-28T06:16:45Z</time>
      </trkpt>
      <trkpt lat="50.85108" lon="3.29927">
        <ele>10.8</ele>
        <time>2023-10-28T06:16:48Z</time>
      </trkpt>
      <trkpt lat="50.85104" lon="3.29932">
        <ele>10.8</ele>
        <time>2023-10-28T06:16:49Z</time>
      </trkpt>
      <trkpt lat="50.85101" lon="3.29936">
        <ele>11</ele>
        <time>2023-10-28T06:16:50Z</time>
      </trkpt>
      <trkpt lat="50.85088" lon="3.29957">
        <ele>11.8</ele>
        <time>2023-10-28T06:16:54Z</time>
      </trkpt>
      <trkpt lat="50.85085" lon="3.29962">
        <ele>12</ele>
        <time>2023-10-28T06:16:55Z</time>
      </trkpt>
      <trkpt lat="50.85078" lon="3.29972">
        <ele>12.4</ele>
        <time>2023-10-28T06:16:57Z</time>
      </trkpt>
      <trkpt lat="50.85075" lon="3.29977">
        <ele>12.6</ele>
        <time>2023-10-28T06:16:58Z</time>
      </trkpt>
      <trkpt lat="50.85071" lon="3.29982">
        <ele>12.6</ele>
        <time>2023-10-28T06:16:59Z</time>
      </trkpt>
      <trkpt lat="50.85068" lon="3.29987">
        <ele>12.6</ele>
        <time>2023-10-28T06:17:00Z</time>
      </trkpt>
      <trkpt lat="50.85065" lon="3.29993">
        <ele>12.8</ele>
        <time>2023-10-28T06:17:01Z</time>
      </trkpt>
      <trkpt lat="50.85062" lon="3.29999">
        <ele>12.8</ele>
        <time>2023-10-28T06:17:02Z</time>
      </trkpt>
      <trkpt lat="50.85059" lon="3.30004">
        <ele>13</ele>
        <time>2023-10-28T06:17:03Z</time>
      </trkpt>
      <trkpt lat="50.85057" lon="3.3001">
        <ele>13.2</ele>
        <time>2023-10-28T06:17:04Z</time>
      </trkpt>
      <trkpt lat="50.85054" lon="3.30017">
        <ele>13.4</ele>
        <time>2023-10-28T06:17:05Z</time>
      </trkpt>
      <trkpt lat="50.8505" lon="3.30024">
        <ele>13.6</ele>
        <time>2023-10-28T06:17:06Z</time>
      </trkpt>
      <trkpt lat="50.85046" lon="3.3003">
        <ele>14</ele>
        <time>2023-10-28T06:17:07Z</time>
      </trkpt>
      <trkpt lat="50.85043" lon="3.30037">
        <ele>14.2</ele>
        <time>2023-10-28T06:17:08Z</time>
      </trkpt>
      <trkpt lat="50.85038" lon="3.30044">
        <ele>14.4</ele>
        <time>2023-10-28T06:17:09Z</time>
      </trkpt>
      <trkpt lat="50.85035" lon="3.30051">
        <ele>14.4</ele>
        <time>2023-10-28T06:17:10Z</time>
      </trkpt>
      <trkpt lat="50.85031" lon="3.30058">
        <ele>14.4</ele>
        <time>2023-10-28T06:17:11Z</time>
      </trkpt>
      <trkpt lat="50.85027" lon="3.30066">
        <ele>14.6</ele>
        <time>2023-10-28T06:17:12Z</time>
      </trkpt>
      <trkpt lat="50.85023" lon="3.30075">
        <ele>14.6</ele>
        <time>2023-10-28T06:17:13Z</time>
      </trkpt>
      <trkpt lat="50.85019" lon="3.30083">
        <ele>14.6</ele>
        <time>2023-10-28T06:17:14Z</time>
      </trkpt>
      <trkpt lat="50.85015" lon="3.30092">
        <ele>14.6</ele>
        <time>2023-10-28T06:17:15Z</time>
      </trkpt>
      <trkpt lat="50.85011" lon="3.301">
        <ele>14.6</ele>
        <time>2023-10-28T06:17:16Z</time>
      </trkpt>
      <trkpt lat="50.85008" lon="3.30108">
        <ele>14.6</ele>
        <time>2023-10-28T06:17:17Z</time>
      </trkpt>
      <trkpt lat="50.85005" lon="3.30116">
        <ele>14.6</ele>
        <time>2023-10-28T06:17:18Z</time>
      </trkpt>
      <trkpt lat="50.85002" lon="3.30123">
        <ele>14.6</ele>
        <time>2023-10-28T06:17:19Z</time>
      </trkpt>
      <trkpt lat="50.84999" lon="3.30129">
        <ele>14.4</ele>
        <time>2023-10-28T06:17:20Z</time>
      </trkpt>
      <trkpt lat="50.84996" lon="3.30134">
        <ele>13.8</ele>
        <time>2023-10-28T06:17:21Z</time>
      </trkpt>
      <trkpt lat="50.84993" lon="3.30137">
        <ele>13.6</ele>
        <time>2023-10-28T06:17:22Z</time>
      </trkpt>
      <trkpt lat="50.84992" lon="3.30141">
        <ele>13.4</ele>
        <time>2023-10-28T06:17:23Z</time>
      </trkpt>
      <trkpt lat="50.84991" lon="3.30145">
        <ele>13.4</ele>
        <time>2023-10-28T06:17:24Z</time>
      </trkpt>
      <trkpt lat="50.8499" lon="3.30147">
        <ele>13.4</ele>
        <time>2023-10-28T06:17:25Z</time>
      </trkpt>
      <trkpt lat="50.84989" lon="3.3015">
        <ele>13.4</ele>
        <time>2023-10-28T06:17:26Z</time>
      </trkpt>
      <trkpt lat="50.84988" lon="3.30152">
        <ele>13.4</ele>
        <time>2023-10-28T06:17:27Z</time>
      </trkpt>
      <trkpt lat="50.84987" lon="3.30153">
        <ele>13.4</ele>
        <time>2023-10-28T06:17:28Z</time>
      </trkpt>
      <trkpt lat="50.84986" lon="3.30153">
        <ele>13.4</ele>
        <time>2023-10-28T06:17:29Z</time>
      </trkpt>
      <trkpt lat="50.84986" lon="3.30153">
        <ele>13.4</ele>
        <time>2023-10-28T06:17:30Z</time>
      </trkpt>
      <trkpt lat="50.84986" lon="3.30153">
        <ele>13.4</ele>
        <time>2023-10-28T06:17:31Z</time>
      </trkpt>
      <trkpt lat="50.8498" lon="3.30158">
        <ele>15</ele>
        <time>2023-10-28T06:17:41Z</time>
      </trkpt>
      <trkpt lat="50.84978" lon="3.30162">
        <ele>15</ele>
        <time>2023-10-28T06:17:42Z</time>
      </trkpt>
      <trkpt lat="50.84974" lon="3.30165">
        <ele>15</ele>
        <time>2023-10-28T06:17:43Z</time>
      </trkpt>
      <trkpt lat="50.8497" lon="3.30169">
        <ele>15</ele>
        <time>2023-10-28T06:17:44Z</time>
      </trkpt>
      <trkpt lat="50.84956" lon="3.30192">
        <ele>15</ele>
        <time>2023-10-28T06:17:48Z</time>
      </trkpt>
      <trkpt lat="50.8495" lon="3.30203">
        <ele>15</ele>
        <time>2023-10-28T06:17:50Z</time>
      </trkpt>
      <trkpt lat="50.84947" lon="3.30209">
        <ele>14.8</ele>
        <time>2023-10-28T06:17:51Z</time>
      </trkpt>
      <trkpt lat="50.84944" lon="3.30215">
        <ele>14.8</ele>
        <time>2023-10-28T06:17:52Z</time>
      </trkpt>
      <trkpt lat="50.84941" lon="3.3022">
        <ele>14.8</ele>
        <time>2023-10-28T06:17:53Z</time>
      </trkpt>
      <trkpt lat="50.84937" lon="3.30225">
        <ele>14.8</ele>
        <time>2023-10-28T06:17:54Z</time>
      </trkpt>
      <trkpt lat="50.84918" lon="3.30265">
        <ele>14.4</ele>
        <time>2023-10-28T06:18:00Z</time>
      </trkpt>
      <trkpt lat="50.84907" lon="3.30284">
        <ele>14.4</ele>
        <time>2023-10-28T06:18:03Z</time>
      </trkpt>
      <trkpt lat="50.84896" lon="3.30303">
        <ele>14.4</ele>
        <time>2023-10-28T06:18:06Z</time>
      </trkpt>
      <trkpt lat="50.84881" lon="3.30338">
        <ele>14.4</ele>
        <time>2023-10-28T06:18:11Z</time>
      </trkpt>
      <trkpt lat="50.84876" lon="3.30353">
        <ele>14.4</ele>
        <time>2023-10-28T06:18:13Z</time>
      </trkpt>
      <trkpt lat="50.84866" lon="3.30403">
        <ele>14.8</ele>
        <time>2023-10-28T06:18:19Z</time>
      </trkpt>
      <trkpt lat="50.84865" lon="3.30411">
        <ele>15</ele>
        <time>2023-10-28T06:18:20Z</time>
      </trkpt>
      <trkpt lat="50.84865" lon="3.30445">
        <ele>15.2</ele>
        <time>2023-10-28T06:18:24Z</time>
      </trkpt>
      <trkpt lat="50.84865" lon="3.30453">
        <ele>15.2</ele>
        <time>2023-10-28T06:18:25Z</time>
      </trkpt>
      <trkpt lat="50.84866" lon="3.3047">
        <ele>15.4</ele>
        <time>2023-10-28T06:18:27Z</time>
      </trkpt>
      <trkpt lat="50.84868" lon="3.30511">
        <ele>15.6</ele>
        <time>2023-10-28T06:18:32Z</time>
      </trkpt>
      <trkpt lat="50.84868" lon="3.3052">
        <ele>15.8</ele>
        <time>2023-10-28T06:18:33Z</time>
      </trkpt>
      <trkpt lat="50.8487" lon="3.30537">
        <ele>15.8</ele>
        <time>2023-10-28T06:18:35Z</time>
      </trkpt>
      <trkpt lat="50.84884" lon="3.30588">
        <ele>15.8</ele>
        <time>2023-10-28T06:18:41Z</time>
      </trkpt>
      <trkpt lat="50.84904" lon="3.30624">
        <ele>15.6</ele>
        <time>2023-10-28T06:18:46Z</time>
      </trkpt>
      <trkpt lat="50.84948" lon="3.30679">
        <ele>15.2</ele>
        <time>2023-10-28T06:18:55Z</time>
      </trkpt>
      <trkpt lat="50.84994" lon="3.3073">
        <ele>15.2</ele>
        <time>2023-10-28T06:19:04Z</time>
      </trkpt>
      <trkpt lat="50.84999" lon="3.30736">
        <ele>15.2</ele>
        <time>2023-10-28T06:19:05Z</time>
      </trkpt>
      <trkpt lat="50.85013" lon="3.30752">
        <ele>15.2</ele>
        <time>2023-10-28T06:19:08Z</time>
      </trkpt>
      <trkpt lat="50.85018" lon="3.30757">
        <ele>15.2</ele>
        <time>2023-10-28T06:19:09Z</time>
      </trkpt>
      <trkpt lat="50.85022" lon="3.30762">
        <ele>15.2</ele>
        <time>2023-10-28T06:19:10Z</time>
      </trkpt>
      <trkpt lat="50.85027" lon="3.30768">
        <ele>15.2</ele>
        <time>2023-10-28T06:19:11Z</time>
      </trkpt>
      <trkpt lat="50.85032" lon="3.30774">
        <ele>15.2</ele>
        <time>2023-10-28T06:19:12Z</time>
      </trkpt>
      <trkpt lat="50.85037" lon="3.3078">
        <ele>15.2</ele>
        <time>2023-10-28T06:19:13Z</time>
      </trkpt>
      <trkpt lat="50.85041" lon="3.30786">
        <ele>15.2</ele>
        <time>2023-10-28T06:19:14Z</time>
      </trkpt>
      <trkpt lat="50.8507" lon="3.30818">
        <ele>15</ele>
        <time>2023-10-28T06:19:20Z</time>
      </trkpt>
      <trkpt lat="50.85085" lon="3.30834">
        <ele>15</ele>
        <time>2023-10-28T06:19:23Z</time>
      </trkpt>
      <trkpt lat="50.8509" lon="3.30839">
        <ele>15</ele>
        <time>2023-10-28T06:19:24Z</time>
      </trkpt>
      <trkpt lat="50.85094" lon="3.30844">
        <ele>15</ele>
        <time>2023-10-28T06:19:25Z</time>
      </trkpt>
      <trkpt lat="50.85099" lon="3.30849">
        <ele>15</ele>
        <time>2023-10-28T06:19:26Z</time>
      </trkpt>
      <trkpt lat="50.85103" lon="3.30853">
        <ele>15</ele>
        <time>2023-10-28T06:19:27Z</time>
      </trkpt>
      <trkpt lat="50.85106" lon="3.30859">
        <ele>15</ele>
        <time>2023-10-28T06:19:28Z</time>
      </trkpt>
      <trkpt lat="50.85108" lon="3.30865">
        <ele>15</ele>
        <time>2023-10-28T06:19:29Z</time>
      </trkpt>
      <trkpt lat="50.85108" lon="3.30871">
        <ele>15</ele>
        <time>2023-10-28T06:19:30Z</time>
      </trkpt>
      <trkpt lat="50.85106" lon="3.30876">
        <ele>15</ele>
        <time>2023-10-28T06:19:31Z</time>
      </trkpt>
      <trkpt lat="50.85104" lon="3.30879">
        <ele>15</ele>
        <time>2023-10-28T06:19:32Z</time>
      </trkpt>
      <trkpt lat="50.85101" lon="3.30881">
        <ele>14.8</ele>
        <time>2023-10-28T06:19:33Z</time>
      </trkpt>
      <trkpt lat="50.85092" lon="3.30883">
        <ele>14.8</ele>
        <time>2023-10-28T06:19:35Z</time>
      </trkpt>
      <trkpt lat="50.85087" lon="3.30884">
        <ele>14.8</ele>
        <time>2023-10-28T06:19:36Z</time>
      </trkpt>
      <trkpt lat="50.85082" lon="3.30885">
        <ele>14.8</ele>
        <time>2023-10-28T06:19:37Z</time>
      </trkpt>
      <trkpt lat="50.8506" lon="3.30885">
        <ele>14.6</ele>
        <time>2023-10-28T06:19:41Z</time>
      </trkpt>
      <trkpt lat="50.85026" lon="3.30887">
        <ele>14.2</ele>
        <time>2023-10-28T06:19:47Z</time>
      </trkpt>
      <trkpt lat="50.85021" lon="3.30888">
        <ele>14.2</ele>
        <time>2023-10-28T06:19:48Z</time>
      </trkpt>
      <trkpt lat="50.84974" lon="3.30887">
        <ele>14.2</ele>
        <time>2023-10-28T06:19:56Z</time>
      </trkpt>
      <trkpt lat="50.84927" lon="3.30886">
        <ele>14</ele>
        <time>2023-10-28T06:20:04Z</time>
      </trkpt>
      <trkpt lat="50.84905" lon="3.30886">
        <ele>14</ele>
        <time>2023-10-28T06:20:08Z</time>
      </trkpt>
      <trkpt lat="50.84893" lon="3.30885">
        <ele>14</ele>
        <time>2023-10-28T06:20:10Z</time>
      </trkpt>
      <trkpt lat="50.84876" lon="3.30885">
        <ele>13.8</ele>
        <time>2023-10-28T06:20:13Z</time>
      </trkpt>
      <trkpt lat="50.84818" lon="3.30888">
        <ele>13.4</ele>
        <time>2023-10-28T06:20:23Z</time>
      </trkpt>
      <trkpt lat="50.84771" lon="3.30891">
        <ele>12.8</ele>
        <time>2023-10-28T06:20:31Z</time>
      </trkpt>
      <trkpt lat="50.84766" lon="3.30893">
        <ele>12.8</ele>
        <time>2023-10-28T06:20:32Z</time>
      </trkpt>
      <trkpt lat="50.84734" lon="3.30903">
        <ele>12.8</ele>
        <time>2023-10-28T06:20:38Z</time>
      </trkpt>
      <trkpt lat="50.84729" lon="3.30904">
        <ele>12.8</ele>
        <time>2023-10-28T06:20:39Z</time>
      </trkpt>
      <trkpt lat="50.84725" lon="3.30903">
        <ele>12.8</ele>
        <time>2023-10-28T06:20:40Z</time>
      </trkpt>
      <trkpt lat="50.8472" lon="3.309">
        <ele>13</ele>
        <time>2023-10-28T06:20:41Z</time>
      </trkpt>
      <trkpt lat="50.84716" lon="3.30897">
        <ele>13</ele>
        <time>2023-10-28T06:20:42Z</time>
      </trkpt>
      <trkpt lat="50.84711" lon="3.30896">
        <ele>13</ele>
        <time>2023-10-28T06:20:43Z</time>
      </trkpt>
      <trkpt lat="50.84701" lon="3.30901">
        <ele>13</ele>
        <time>2023-10-28T06:20:45Z</time>
      </trkpt>
      <trkpt lat="50.84696" lon="3.30905">
        <ele>13</ele>
        <time>2023-10-28T06:20:46Z</time>
      </trkpt>
      <trkpt lat="50.8469" lon="3.30907">
        <ele>13</ele>
        <time>2023-10-28T06:20:47Z</time>
      </trkpt>
      <trkpt lat="50.84679" lon="3.30909">
        <ele>13</ele>
        <time>2023-10-28T06:20:49Z</time>
      </trkpt>
      <trkpt lat="50.84624" lon="3.30916">
        <ele>12.6</ele>
        <time>2023-10-28T06:20:58Z</time>
      </trkpt>
      <trkpt lat="50.84571" lon="3.30925">
        <ele>12.4</ele>
        <time>2023-10-28T06:21:07Z</time>
      </trkpt>
      <trkpt lat="50.84559" lon="3.30927">
        <ele>12.4</ele>
        <time>2023-10-28T06:21:09Z</time>
      </trkpt>
      <trkpt lat="50.84542" lon="3.3093">
        <ele>12.2</ele>
        <time>2023-10-28T06:21:12Z</time>
      </trkpt>
      <trkpt lat="50.84537" lon="3.30931">
        <ele>12.2</ele>
        <time>2023-10-28T06:21:13Z</time>
      </trkpt>
      <trkpt lat="50.84532" lon="3.30932">
        <ele>12.2</ele>
        <time>2023-10-28T06:21:14Z</time>
      </trkpt>
      <trkpt lat="50.84526" lon="3.30933">
        <ele>12</ele>
        <time>2023-10-28T06:21:15Z</time>
      </trkpt>
      <trkpt lat="50.84514" lon="3.30935">
        <ele>12</ele>
        <time>2023-10-28T06:21:17Z</time>
      </trkpt>
      <trkpt lat="50.84455" lon="3.30945">
        <ele>12.2</ele>
        <time>2023-10-28T06:21:27Z</time>
      </trkpt>
      <trkpt lat="50.84442" lon="3.30947">
        <ele>12</ele>
        <time>2023-10-28T06:21:29Z</time>
      </trkpt>
      <trkpt lat="50.84419" lon="3.30951">
        <ele>11.8</ele>
        <time>2023-10-28T06:21:33Z</time>
      </trkpt>
      <trkpt lat="50.84389" lon="3.30956">
        <ele>11.2</ele>
        <time>2023-10-28T06:21:38Z</time>
      </trkpt>
      <trkpt lat="50.84383" lon="3.30956">
        <ele>11.2</ele>
        <time>2023-10-28T06:21:39Z</time>
      </trkpt>
      <trkpt lat="50.84378" lon="3.30957">
        <ele>11</ele>
        <time>2023-10-28T06:21:40Z</time>
      </trkpt>
      <trkpt lat="50.84372" lon="3.30958">
        <ele>11</ele>
        <time>2023-10-28T06:21:41Z</time>
      </trkpt>
      <trkpt lat="50.84366" lon="3.30959">
        <ele>11</ele>
        <time>2023-10-28T06:21:42Z</time>
      </trkpt>
      <trkpt lat="50.8436" lon="3.3096">
        <ele>11</ele>
        <time>2023-10-28T06:21:43Z</time>
      </trkpt>
      <trkpt lat="50.84355" lon="3.30961">
        <ele>11</ele>
        <time>2023-10-28T06:21:44Z</time>
      </trkpt>
      <trkpt lat="50.84332" lon="3.30966">
        <ele>10.8</ele>
        <time>2023-10-28T06:21:48Z</time>
      </trkpt>
      <trkpt lat="50.84316" lon="3.30968">
        <ele>11</ele>
        <time>2023-10-28T06:21:51Z</time>
      </trkpt>
      <trkpt lat="50.84311" lon="3.30968">
        <ele>11</ele>
        <time>2023-10-28T06:21:52Z</time>
      </trkpt>
      <trkpt lat="50.84294" lon="3.30968">
        <ele>11.2</ele>
        <time>2023-10-28T06:21:55Z</time>
      </trkpt>
      <trkpt lat="50.84289" lon="3.30969">
        <ele>11.2</ele>
        <time>2023-10-28T06:21:56Z</time>
      </trkpt>
      <trkpt lat="50.84284" lon="3.30971">
        <ele>11.2</ele>
        <time>2023-10-28T06:21:57Z</time>
      </trkpt>
      <trkpt lat="50.84279" lon="3.30973">
        <ele>11.2</ele>
        <time>2023-10-28T06:21:58Z</time>
      </trkpt>
      <trkpt lat="50.84275" lon="3.30976">
        <ele>11.2</ele>
        <time>2023-10-28T06:21:59Z</time>
      </trkpt>
      <trkpt lat="50.84273" lon="3.30982">
        <ele>11.2</ele>
        <time>2023-10-28T06:22:00Z</time>
      </trkpt>
      <trkpt lat="50.84271" lon="3.30989">
        <ele>11.2</ele>
        <time>2023-10-28T06:22:01Z</time>
      </trkpt>
      <trkpt lat="50.84271" lon="3.30998">
        <ele>11.2</ele>
        <time>2023-10-28T06:22:02Z</time>
      </trkpt>
      <trkpt lat="50.84271" lon="3.31007">
        <ele>11.2</ele>
        <time>2023-10-28T06:22:03Z</time>
      </trkpt>
      <trkpt lat="50.84272" lon="3.31016">
        <ele>11.2</ele>
        <time>2023-10-28T06:22:04Z</time>
      </trkpt>
      <trkpt lat="50.84272" lon="3.31025">
        <ele>11.2</ele>
        <time>2023-10-28T06:22:05Z</time>
      </trkpt>
      <trkpt lat="50.84273" lon="3.31044">
        <ele>11</ele>
        <time>2023-10-28T06:22:07Z</time>
      </trkpt>
      <trkpt lat="50.84274" lon="3.31062">
        <ele>11</ele>
        <time>2023-10-28T06:22:09Z</time>
      </trkpt>
      <trkpt lat="50.84273" lon="3.31071">
        <ele>11</ele>
        <time>2023-10-28T06:22:10Z</time>
      </trkpt>
      <trkpt lat="50.8427" lon="3.31078">
        <ele>11</ele>
        <time>2023-10-28T06:22:11Z</time>
      </trkpt>
      <trkpt lat="50.84265" lon="3.31082">
        <ele>11</ele>
        <time>2023-10-28T06:22:12Z</time>
      </trkpt>
      <trkpt lat="50.84258" lon="3.31085">
        <ele>11</ele>
        <time>2023-10-28T06:22:13Z</time>
      </trkpt>
      <trkpt lat="50.84238" lon="3.31089">
        <ele>11</ele>
        <time>2023-10-28T06:22:16Z</time>
      </trkpt>
      <trkpt lat="50.84218" lon="3.31095">
        <ele>11</ele>
        <time>2023-10-28T06:22:19Z</time>
      </trkpt>
      <trkpt lat="50.84212" lon="3.31097">
        <ele>11</ele>
        <time>2023-10-28T06:22:20Z</time>
      </trkpt>
      <trkpt lat="50.84206" lon="3.311">
        <ele>11</ele>
        <time>2023-10-28T06:22:21Z</time>
      </trkpt>
      <trkpt lat="50.84195" lon="3.31108">
        <ele>10.8</ele>
        <time>2023-10-28T06:22:23Z</time>
      </trkpt>
      <trkpt lat="50.84191" lon="3.31113">
        <ele>10.8</ele>
        <time>2023-10-28T06:22:24Z</time>
      </trkpt>
      <trkpt lat="50.84186" lon="3.31116">
        <ele>10.8</ele>
        <time>2023-10-28T06:22:25Z</time>
      </trkpt>
      <trkpt lat="50.84181" lon="3.31118">
        <ele>10.8</ele>
        <time>2023-10-28T06:22:26Z</time>
      </trkpt>
      <trkpt lat="50.84177" lon="3.3112">
        <ele>10.6</ele>
        <time>2023-10-28T06:22:27Z</time>
      </trkpt>
      <trkpt lat="50.84174" lon="3.31123">
        <ele>10.6</ele>
        <time>2023-10-28T06:22:28Z</time>
      </trkpt>
      <trkpt lat="50.84173" lon="3.31126">
        <ele>10.6</ele>
        <time>2023-10-28T06:22:29Z</time>
      </trkpt>
      <trkpt lat="50.84175" lon="3.3113">
        <ele>10.6</ele>
        <time>2023-10-28T06:22:30Z</time>
      </trkpt>
      <trkpt lat="50.84177" lon="3.31135">
        <ele>10.6</ele>
        <time>2023-10-28T06:22:31Z</time>
      </trkpt>
      <trkpt lat="50.84179" lon="3.3114">
        <ele>10.6</ele>
        <time>2023-10-28T06:22:32Z</time>
      </trkpt>
      <trkpt lat="50.84181" lon="3.31148">
        <ele>10.6</ele>
        <time>2023-10-28T06:22:33Z</time>
      </trkpt>
      <trkpt lat="50.84183" lon="3.31156">
        <ele>10.6</ele>
        <time>2023-10-28T06:22:34Z</time>
      </trkpt>
      <trkpt lat="50.84185" lon="3.31163">
        <ele>10.6</ele>
        <time>2023-10-28T06:22:35Z</time>
      </trkpt>
      <trkpt lat="50.8419" lon="3.31187">
        <ele>10.6</ele>
        <time>2023-10-28T06:22:38Z</time>
      </trkpt>
      <trkpt lat="50.84195" lon="3.31205">
        <ele>10.4</ele>
        <time>2023-10-28T06:22:40Z</time>
      </trkpt>
      <trkpt lat="50.84198" lon="3.3122">
        <ele>10.4</ele>
        <time>2023-10-28T06:22:42Z</time>
      </trkpt>
      <trkpt lat="50.84199" lon="3.31228">
        <ele>10.2</ele>
        <time>2023-10-28T06:22:43Z</time>
      </trkpt>
      <trkpt lat="50.84207" lon="3.31261">
        <ele>9.8</ele>
        <time>2023-10-28T06:22:47Z</time>
      </trkpt>
      <trkpt lat="50.84209" lon="3.31268">
        <ele>9.8</ele>
        <time>2023-10-28T06:22:48Z</time>
      </trkpt>
      <trkpt lat="50.84212" lon="3.31275">
        <ele>9.6</ele>
        <time>2023-10-28T06:22:49Z</time>
      </trkpt>
      <trkpt lat="50.84214" lon="3.3128">
        <ele>9.6</ele>
        <time>2023-10-28T06:22:50Z</time>
      </trkpt>
      <trkpt lat="50.84218" lon="3.31283">
        <ele>9.6</ele>
        <time>2023-10-28T06:22:51Z</time>
      </trkpt>
      <trkpt lat="50.84222" lon="3.31283">
        <ele>9.6</ele>
        <time>2023-10-28T06:22:52Z</time>
      </trkpt>
      <trkpt lat="50.84227" lon="3.31283">
        <ele>9.6</ele>
        <time>2023-10-28T06:22:53Z</time>
      </trkpt>
      <trkpt lat="50.84232" lon="3.31281">
        <ele>9.6</ele>
        <time>2023-10-28T06:22:54Z</time>
      </trkpt>
      <trkpt lat="50.84238" lon="3.31279">
        <ele>9.6</ele>
        <time>2023-10-28T06:22:55Z</time>
      </trkpt>
      <trkpt lat="50.84243" lon="3.31276">
        <ele>9.6</ele>
        <time>2023-10-28T06:22:56Z</time>
      </trkpt>
      <trkpt lat="50.84254" lon="3.3127">
        <ele>9.8</ele>
        <time>2023-10-28T06:22:58Z</time>
      </trkpt>
      <trkpt lat="50.84259" lon="3.31268">
        <ele>9.8</ele>
        <time>2023-10-28T06:22:59Z</time>
      </trkpt>
      <trkpt lat="50.84286" lon="3.31256">
        <ele>10</ele>
        <time>2023-10-28T06:23:04Z</time>
      </trkpt>
      <trkpt lat="50.8429" lon="3.31253">
        <ele>10</ele>
        <time>2023-10-28T06:23:05Z</time>
      </trkpt>
      <trkpt lat="50.84293" lon="3.31249">
        <ele>10</ele>
        <time>2023-10-28T06:23:06Z</time>
      </trkpt>
      <trkpt lat="50.84296" lon="3.31245">
        <ele>10</ele>
        <time>2023-10-28T06:23:07Z</time>
      </trkpt>
      <trkpt lat="50.843" lon="3.31243">
        <ele>10</ele>
        <time>2023-10-28T06:23:08Z</time>
      </trkpt>
      <trkpt lat="50.84305" lon="3.31241">
        <ele>10</ele>
        <time>2023-10-28T06:23:09Z</time>
      </trkpt>
      <trkpt lat="50.8432" lon="3.3123">
        <ele>10.4</ele>
        <time>2023-10-28T06:23:13Z</time>
      </trkpt>
      <trkpt lat="50.84325" lon="3.31226">
        <ele>10.4</ele>
        <time>2023-10-28T06:23:14Z</time>
      </trkpt>
      <trkpt lat="50.84331" lon="3.31218">
        <ele>11</ele>
        <time>2023-10-28T06:23:16Z</time>
      </trkpt>
      <trkpt lat="50.84334" lon="3.31215">
        <ele>11.2</ele>
        <time>2023-10-28T06:23:17Z</time>
      </trkpt>
      <trkpt lat="50.84338" lon="3.31211">
        <ele>11.4</ele>
        <time>2023-10-28T06:23:18Z</time>
      </trkpt>
      <trkpt lat="50.84341" lon="3.31207">
        <ele>11.6</ele>
        <time>2023-10-28T06:23:19Z</time>
      </trkpt>
      <trkpt lat="50.84345" lon="3.31204">
        <ele>11.8</ele>
        <time>2023-10-28T06:23:20Z</time>
      </trkpt>
      <trkpt lat="50.84354" lon="3.312">
        <ele>12</ele>
        <time>2023-10-28T06:23:22Z</time>
      </trkpt>
      <trkpt lat="50.84364" lon="3.31194">
        <ele>12.4</ele>
        <time>2023-10-28T06:23:25Z</time>
      </trkpt>
      <trkpt lat="50.84365" lon="3.3119">
        <ele>12.4</ele>
        <time>2023-10-28T06:23:26Z</time>
      </trkpt>
      <trkpt lat="50.84365" lon="3.31187">
        <ele>12.6</ele>
        <time>2023-10-28T06:23:27Z</time>
      </trkpt>
      <trkpt lat="50.84365" lon="3.31184">
        <ele>12.6</ele>
        <time>2023-10-28T06:23:28Z</time>
      </trkpt>
      <trkpt lat="50.84364" lon="3.31181">
        <ele>12.8</ele>
        <time>2023-10-28T06:23:29Z</time>
      </trkpt>
      <trkpt lat="50.84363" lon="3.31178">
        <ele>12.8</ele>
        <time>2023-10-28T06:23:30Z</time>
      </trkpt>
      <trkpt lat="50.84363" lon="3.31175">
        <ele>13</ele>
        <time>2023-10-28T06:23:31Z</time>
      </trkpt>
      <trkpt lat="50.84362" lon="3.31171">
        <ele>13</ele>
        <time>2023-10-28T06:23:32Z</time>
      </trkpt>
      <trkpt lat="50.84361" lon="3.31166">
        <ele>13</ele>
        <time>2023-10-28T06:23:33Z</time>
      </trkpt>
      <trkpt lat="50.84359" lon="3.31161">
        <ele>13.4</ele>
        <time>2023-10-28T06:23:34Z</time>
      </trkpt>
      <trkpt lat="50.84358" lon="3.31156">
        <ele>13.6</ele>
        <time>2023-10-28T06:23:35Z</time>
      </trkpt>
      <trkpt lat="50.8436" lon="3.31153">
        <ele>13.8</ele>
        <time>2023-10-28T06:23:36Z</time>
      </trkpt>
      <trkpt lat="50.84362" lon="3.31154">
        <ele>13.8</ele>
        <time>2023-10-28T06:23:37Z</time>
      </trkpt>
      <trkpt lat="50.84363" lon="3.31158">
        <ele>14</ele>
        <time>2023-10-28T06:23:38Z</time>
      </trkpt>
      <trkpt lat="50.84365" lon="3.31162">
        <ele>14</ele>
        <time>2023-10-28T06:23:39Z</time>
      </trkpt>
      <trkpt lat="50.84367" lon="3.31167">
        <ele>14</ele>
        <time>2023-10-28T06:23:40Z</time>
      </trkpt>
      <trkpt lat="50.84369" lon="3.31172">
        <ele>14.2</ele>
        <time>2023-10-28T06:23:41Z</time>
      </trkpt>
      <trkpt lat="50.84372" lon="3.31177">
        <ele>14.2</ele>
        <time>2023-10-28T06:23:42Z</time>
      </trkpt>
      <trkpt lat="50.84374" lon="3.31184">
        <ele>14.2</ele>
        <time>2023-10-28T06:23:43Z</time>
      </trkpt>
      <trkpt lat="50.84377" lon="3.3119">
        <ele>14.2</ele>
        <time>2023-10-28T06:23:44Z</time>
      </trkpt>
      <trkpt lat="50.8438" lon="3.31197">
        <ele>14.2</ele>
        <time>2023-10-28T06:23:45Z</time>
      </trkpt>
      <trkpt lat="50.84382" lon="3.31202">
        <ele>14.2</ele>
        <time>2023-10-28T06:23:46Z</time>
      </trkpt>
      <trkpt lat="50.84385" lon="3.31208">
        <ele>14</ele>
        <time>2023-10-28T06:23:47Z</time>
      </trkpt>
      <trkpt lat="50.84387" lon="3.31214">
        <ele>14</ele>
        <time>2023-10-28T06:23:48Z</time>
      </trkpt>
      <trkpt lat="50.84388" lon="3.31219">
        <ele>14</ele>
        <time>2023-10-28T06:23:49Z</time>
      </trkpt>
      <trkpt lat="50.8439" lon="3.31224">
        <ele>14</ele>
        <time>2023-10-28T06:23:50Z</time>
      </trkpt>
      <trkpt lat="50.84397" lon="3.3124">
        <ele>13.8</ele>
        <time>2023-10-28T06:23:53Z</time>
      </trkpt>
      <trkpt lat="50.84399" lon="3.31245">
        <ele>13.8</ele>
        <time>2023-10-28T06:23:54Z</time>
      </trkpt>
      <trkpt lat="50.84401" lon="3.3125">
        <ele>13.6</ele>
        <time>2023-10-28T06:23:55Z</time>
      </trkpt>
      <trkpt lat="50.84403" lon="3.31255">
        <ele>13.8</ele>
        <time>2023-10-28T06:23:56Z</time>
      </trkpt>
      <trkpt lat="50.84405" lon="3.3126">
        <ele>13.8</ele>
        <time>2023-10-28T06:23:57Z</time>
      </trkpt>
      <trkpt lat="50.84405" lon="3.31265">
        <ele>13.8</ele>
        <time>2023-10-28T06:23:58Z</time>
      </trkpt>
      <trkpt lat="50.84404" lon="3.31268">
        <ele>13.8</ele>
        <time>2023-10-28T06:23:59Z</time>
      </trkpt>
      <trkpt lat="50.84401" lon="3.31268">
        <ele>13.8</ele>
        <time>2023-10-28T06:24:00Z</time>
      </trkpt>
      <trkpt lat="50.84399" lon="3.31265">
        <ele>13.8</ele>
        <time>2023-10-28T06:24:01Z</time>
      </trkpt>
      <trkpt lat="50.84391" lon="3.3125">
        <ele>13.8</ele>
        <time>2023-10-28T06:24:04Z</time>
      </trkpt>
      <trkpt lat="50.84389" lon="3.31245">
        <ele>13.8</ele>
        <time>2023-10-28T06:24:05Z</time>
      </trkpt>
      <trkpt lat="50.84388" lon="3.3124">
        <ele>13.8</ele>
        <time>2023-10-28T06:24:06Z</time>
      </trkpt>
      <trkpt lat="50.84378" lon="3.31215">
        <ele>14.2</ele>
        <time>2023-10-28T06:24:10Z</time>
      </trkpt>
      <trkpt lat="50.84373" lon="3.31203">
        <ele>14.2</ele>
        <time>2023-10-28T06:24:12Z</time>
      </trkpt>
      <trkpt lat="50.8437" lon="3.31198">
        <ele>14.2</ele>
        <time>2023-10-28T06:24:13Z</time>
      </trkpt>
      <trkpt lat="50.84368" lon="3.31194">
        <ele>14.2</ele>
        <time>2023-10-28T06:24:14Z</time>
      </trkpt>
      <trkpt lat="50.84366" lon="3.31192">
        <ele>14.2</ele>
        <time>2023-10-28T06:24:15Z</time>
      </trkpt>
      <trkpt lat="50.84365" lon="3.31192">
        <ele>14.2</ele>
        <time>2023-10-28T06:24:16Z</time>
      </trkpt>
      <trkpt lat="50.84365" lon="3.31194">
        <ele>14.2</ele>
        <time>2023-10-28T06:24:17Z</time>
      </trkpt>
      <trkpt lat="50.84366" lon="3.31197">
        <ele>14.2</ele>
        <time>2023-10-28T06:24:18Z</time>
      </trkpt>
      <trkpt lat="50.84367" lon="3.312">
        <ele>14.2</ele>
        <time>2023-10-28T06:24:19Z</time>
      </trkpt>
      <trkpt lat="50.8437" lon="3.31207">
        <ele>13.8</ele>
        <time>2023-10-28T06:24:21Z</time>
      </trkpt>
      <trkpt lat="50.84371" lon="3.31212">
        <ele>13.8</ele>
        <time>2023-10-28T06:24:22Z</time>
      </trkpt>
      <trkpt lat="50.84374" lon="3.31222">
        <ele>13.6</ele>
        <time>2023-10-28T06:24:24Z</time>
      </trkpt>
      <trkpt lat="50.84378" lon="3.31234">
        <ele>13.6</ele>
        <time>2023-10-28T06:24:26Z</time>
      </trkpt>
      <trkpt lat="50.84389" lon="3.31258">
        <ele>13.6</ele>
        <time>2023-10-28T06:24:30Z</time>
      </trkpt>
      <trkpt lat="50.8439" lon="3.31261">
        <ele>13.6</ele>
        <time>2023-10-28T06:24:31Z</time>
      </trkpt>
      <trkpt lat="50.84392" lon="3.31265">
        <ele>13.6</ele>
        <time>2023-10-28T06:24:32Z</time>
      </trkpt>
      <trkpt lat="50.84393" lon="3.31269">
        <ele>13.6</ele>
        <time>2023-10-28T06:24:33Z</time>
      </trkpt>
      <trkpt lat="50.84403" lon="3.31284">
        <ele>13.6</ele>
        <time>2023-10-28T06:24:37Z</time>
      </trkpt>
      <trkpt lat="50.84404" lon="3.31289">
        <ele>13.6</ele>
        <time>2023-10-28T06:24:38Z</time>
      </trkpt>
      <trkpt lat="50.84408" lon="3.31299">
        <ele>13.6</ele>
        <time>2023-10-28T06:24:40Z</time>
      </trkpt>
      <trkpt lat="50.84411" lon="3.31308">
        <ele>13.8</ele>
        <time>2023-10-28T06:24:42Z</time>
      </trkpt>
      <trkpt lat="50.84414" lon="3.31318">
        <ele>13.8</ele>
        <time>2023-10-28T06:24:44Z</time>
      </trkpt>
      <trkpt lat="50.84413" lon="3.31321">
        <ele>13.8</ele>
        <time>2023-10-28T06:24:45Z</time>
      </trkpt>
      <trkpt lat="50.84413" lon="3.31326">
        <ele>14</ele>
        <time>2023-10-28T06:24:46Z</time>
      </trkpt>
      <trkpt lat="50.84411" lon="3.31329">
        <ele>14</ele>
        <time>2023-10-28T06:24:47Z</time>
      </trkpt>
      <trkpt lat="50.84409" lon="3.31331">
        <ele>14</ele>
        <time>2023-10-28T06:24:48Z</time>
      </trkpt>
      <trkpt lat="50.84407" lon="3.31331">
        <ele>14</ele>
        <time>2023-10-28T06:24:49Z</time>
      </trkpt>
      <trkpt lat="50.84405" lon="3.31332">
        <ele>14</ele>
        <time>2023-10-28T06:24:50Z</time>
      </trkpt>
      <trkpt lat="50.84403" lon="3.31334">
        <ele>14</ele>
        <time>2023-10-28T06:24:51Z</time>
      </trkpt>
      <trkpt lat="50.84401" lon="3.31336">
        <ele>14</ele>
        <time>2023-10-28T06:24:52Z</time>
      </trkpt>
      <trkpt lat="50.84398" lon="3.31339">
        <ele>14</ele>
        <time>2023-10-28T06:24:53Z</time>
      </trkpt>
      <trkpt lat="50.84396" lon="3.31342">
        <ele>14</ele>
        <time>2023-10-28T06:24:54Z</time>
      </trkpt>
      <trkpt lat="50.84393" lon="3.31343">
        <ele>14.2</ele>
        <time>2023-10-28T06:24:55Z</time>
      </trkpt>
      <trkpt lat="50.84391" lon="3.31345">
        <ele>14.2</ele>
        <time>2023-10-28T06:24:56Z</time>
      </trkpt>
      <trkpt lat="50.84389" lon="3.31347">
        <ele>14.2</ele>
        <time>2023-10-28T06:24:57Z</time>
      </trkpt>
      <trkpt lat="50.84379" lon="3.31355">
        <ele>14.4</ele>
        <time>2023-10-28T06:25:00Z</time>
      </trkpt>
      <trkpt lat="50.84375" lon="3.31359">
        <ele>14.4</ele>
        <time>2023-10-28T06:25:01Z</time>
      </trkpt>
      <trkpt lat="50.84376" lon="3.31362">
        <ele>14.4</ele>
        <time>2023-10-28T06:25:02Z</time>
      </trkpt>
      <trkpt lat="50.84378" lon="3.31365">
        <ele>14.4</ele>
        <time>2023-10-28T06:25:03Z</time>
      </trkpt>
      <trkpt lat="50.84379" lon="3.31366">
        <ele>14.4</ele>
        <time>2023-10-28T06:25:04Z</time>
      </trkpt>
      <trkpt lat="50.84381" lon="3.31368">
        <ele>14.4</ele>
        <time>2023-10-28T06:25:05Z</time>
      </trkpt>
      <trkpt lat="50.84387" lon="3.3137">
        <ele>14</ele>
        <time>2023-10-28T06:25:07Z</time>
      </trkpt>
      <trkpt lat="50.84391" lon="3.31369">
        <ele>14</ele>
        <time>2023-10-28T06:25:08Z</time>
      </trkpt>
      <trkpt lat="50.84393" lon="3.31368">
        <ele>14</ele>
        <time>2023-10-28T06:25:09Z</time>
      </trkpt>
      <trkpt lat="50.84396" lon="3.31366">
        <ele>14</ele>
        <time>2023-10-28T06:25:10Z</time>
      </trkpt>
      <trkpt lat="50.84398" lon="3.31364">
        <ele>14</ele>
        <time>2023-10-28T06:25:11Z</time>
      </trkpt>
      <trkpt lat="50.84399" lon="3.31361">
        <ele>14</ele>
        <time>2023-10-28T06:25:12Z</time>
      </trkpt>
      <trkpt lat="50.84399" lon="3.31357">
        <ele>14</ele>
        <time>2023-10-28T06:25:13Z</time>
      </trkpt>
      <trkpt lat="50.84401" lon="3.31354">
        <ele>14</ele>
        <time>2023-10-28T06:25:14Z</time>
      </trkpt>
      <trkpt lat="50.84402" lon="3.31352">
        <ele>14</ele>
        <time>2023-10-28T06:25:15Z</time>
      </trkpt>
      <trkpt lat="50.84403" lon="3.3135">
        <ele>14</ele>
        <time>2023-10-28T06:25:16Z</time>
      </trkpt>
      <trkpt lat="50.84406" lon="3.31349">
        <ele>14</ele>
        <time>2023-10-28T06:25:17Z</time>
      </trkpt>
      <trkpt lat="50.84409" lon="3.31348">
        <ele>14</ele>
        <time>2023-10-28T06:25:18Z</time>
      </trkpt>
      <trkpt lat="50.8441" lon="3.31346">
        <ele>14.2</ele>
        <time>2023-10-28T06:25:19Z</time>
      </trkpt>
      <trkpt lat="50.84411" lon="3.31344">
        <ele>14.4</ele>
        <time>2023-10-28T06:25:20Z</time>
      </trkpt>
      <trkpt lat="50.84411" lon="3.31341">
        <ele>14.6</ele>
        <time>2023-10-28T06:25:21Z</time>
      </trkpt>
      <trkpt lat="50.84412" lon="3.3134">
        <ele>14.6</ele>
        <time>2023-10-28T06:25:22Z</time>
      </trkpt>
      <trkpt lat="50.84414" lon="3.31341">
        <ele>14.6</ele>
        <time>2023-10-28T06:25:23Z</time>
      </trkpt>
      <trkpt lat="50.84416" lon="3.31344">
        <ele>14.8</ele>
        <time>2023-10-28T06:25:24Z</time>
      </trkpt>
      <trkpt lat="50.84417" lon="3.31351">
        <ele>14.8</ele>
        <time>2023-10-28T06:25:26Z</time>
      </trkpt>
      <trkpt lat="50.84418" lon="3.31355">
        <ele>14.8</ele>
        <time>2023-10-28T06:25:27Z</time>
      </trkpt>
      <trkpt lat="50.84418" lon="3.31358">
        <ele>14.8</ele>
        <time>2023-10-28T06:25:28Z</time>
      </trkpt>
      <trkpt lat="50.84416" lon="3.3136">
        <ele>14.8</ele>
        <time>2023-10-28T06:25:29Z</time>
      </trkpt>
      <trkpt lat="50.84415" lon="3.31361">
        <ele>14.8</ele>
        <time>2023-10-28T06:25:30Z</time>
      </trkpt>
      <trkpt lat="50.84413" lon="3.31362">
        <ele>14.8</ele>
        <time>2023-10-28T06:25:31Z</time>
      </trkpt>
      <trkpt lat="50.84413" lon="3.31362">
        <ele>14.8</ele>
        <time>2023-10-28T06:25:32Z</time>
      </trkpt>
      <trkpt lat="50.84412" lon="3.31362">
        <ele>14.8</ele>
        <time>2023-10-28T06:25:33Z</time>
      </trkpt>
      <trkpt lat="50.84411" lon="3.31362">
        <ele>14.8</ele>
        <time>2023-10-28T06:25:34Z</time>
      </trkpt>
      <trkpt lat="50.8441" lon="3.31363">
        <ele>14.8</ele>
        <time>2023-10-28T06:25:35Z</time>
      </trkpt>
      <trkpt lat="50.84409" lon="3.31365">
        <ele>14.8</ele>
        <time>2023-10-28T06:25:36Z</time>
      </trkpt>
      <trkpt lat="50.8441" lon="3.31366">
        <ele>14.8</ele>
        <time>2023-10-28T06:25:37Z</time>
      </trkpt>
      <trkpt lat="50.84411" lon="3.31368">
        <ele>14.8</ele>
        <time>2023-10-28T06:25:38Z</time>
      </trkpt>
      <trkpt lat="50.84411" lon="3.31369">
        <ele>14.8</ele>
        <time>2023-10-28T06:25:39Z</time>
      </trkpt>
      <trkpt lat="50.84412" lon="3.31369">
        <ele>14.8</ele>
        <time>2023-10-28T06:25:40Z</time>
      </trkpt>
      <trkpt lat="50.84413" lon="3.31369">
        <ele>14.8</ele>
        <time>2023-10-28T06:25:41Z</time>
      </trkpt>
      <trkpt lat="50.84416" lon="3.31367">
        <ele>14.8</ele>
        <time>2023-10-28T06:25:43Z</time>
      </trkpt>
      <trkpt lat="50.84416" lon="3.31367">
        <ele>15</ele>
        <time>2023-10-28T06:25:44Z</time>
      </trkpt>
      <trkpt lat="50.84417" lon="3.31366">
        <ele>15</ele>
        <time>2023-10-28T06:25:45Z</time>
      </trkpt>
      <trkpt lat="50.84417" lon="3.31366">
        <ele>15</ele>
        <time>2023-10-28T06:25:46Z</time>
      </trkpt>
      <trkpt lat="50.84419" lon="3.31366">
        <ele>15</ele>
        <time>2023-10-28T06:25:47Z</time>
      </trkpt>
      <trkpt lat="50.84421" lon="3.31366">
        <ele>15</ele>
        <time>2023-10-28T06:25:49Z</time>
      </trkpt>
      <trkpt lat="50.84422" lon="3.31368">
        <ele>15</ele>
        <time>2023-10-28T06:25:50Z</time>
      </trkpt>
      <trkpt lat="50.84424" lon="3.31373">
        <ele>15</ele>
        <time>2023-10-28T06:25:52Z</time>
      </trkpt>
      <trkpt lat="50.84425" lon="3.31377">
        <ele>15</ele>
        <time>2023-10-28T06:25:53Z</time>
      </trkpt>
      <trkpt lat="50.84427" lon="3.31381">
        <ele>15</ele>
        <time>2023-10-28T06:25:54Z</time>
      </trkpt>
      <trkpt lat="50.84438" lon="3.31403">
        <ele>13.6</ele>
        <time>2023-10-28T06:25:59Z</time>
      </trkpt>
      <trkpt lat="50.8444" lon="3.31407">
        <ele>13.4</ele>
        <time>2023-10-28T06:26:00Z</time>
      </trkpt>
      <trkpt lat="50.84444" lon="3.31412">
        <ele>13</ele>
        <time>2023-10-28T06:26:01Z</time>
      </trkpt>
      <trkpt lat="50.84445" lon="3.31416">
        <ele>13</ele>
        <time>2023-10-28T06:26:02Z</time>
      </trkpt>
      <trkpt lat="50.84447" lon="3.31421">
        <ele>12.8</ele>
        <time>2023-10-28T06:26:03Z</time>
      </trkpt>
      <trkpt lat="50.84448" lon="3.31431">
        <ele>12.8</ele>
        <time>2023-10-28T06:26:05Z</time>
      </trkpt>
      <trkpt lat="50.84448" lon="3.31435">
        <ele>12.8</ele>
        <time>2023-10-28T06:26:06Z</time>
      </trkpt>
      <trkpt lat="50.84448" lon="3.31439">
        <ele>12.8</ele>
        <time>2023-10-28T06:26:07Z</time>
      </trkpt>
      <trkpt lat="50.84448" lon="3.31442">
        <ele>12.8</ele>
        <time>2023-10-28T06:26:08Z</time>
      </trkpt>
      <trkpt lat="50.84448" lon="3.31445">
        <ele>12.6</ele>
        <time>2023-10-28T06:26:09Z</time>
      </trkpt>
      <trkpt lat="50.84446" lon="3.31447">
        <ele>12.6</ele>
        <time>2023-10-28T06:26:10Z</time>
      </trkpt>
      <trkpt lat="50.84444" lon="3.31449">
        <ele>12.6</ele>
        <time>2023-10-28T06:26:11Z</time>
      </trkpt>
      <trkpt lat="50.84442" lon="3.31449">
        <ele>12.6</ele>
        <time>2023-10-28T06:26:12Z</time>
      </trkpt>
      <trkpt lat="50.84442" lon="3.31449">
        <ele>12.6</ele>
        <time>2023-10-28T06:26:13Z</time>
      </trkpt>
      <trkpt lat="50.84441" lon="3.31448">
        <ele>12.6</ele>
        <time>2023-10-28T06:26:14Z</time>
      </trkpt>
      <trkpt lat="50.84441" lon="3.31446">
        <ele>12.6</ele>
        <time>2023-10-28T06:26:15Z</time>
      </trkpt>
      <trkpt lat="50.8444" lon="3.31444">
        <ele>12.6</ele>
        <time>2023-10-28T06:26:16Z</time>
      </trkpt>
      <trkpt lat="50.84439" lon="3.3144">
        <ele>12.6</ele>
        <time>2023-10-28T06:26:17Z</time>
      </trkpt>
      <trkpt lat="50.84439" lon="3.31436">
        <ele>12.6</ele>
        <time>2023-10-28T06:26:18Z</time>
      </trkpt>
      <trkpt lat="50.84436" lon="3.31425">
        <ele>12.6</ele>
        <time>2023-10-28T06:26:22Z</time>
      </trkpt>
      <trkpt lat="50.84435" lon="3.31419">
        <ele>12.6</ele>
        <time>2023-10-28T06:26:24Z</time>
      </trkpt>
      <trkpt lat="50.84435" lon="3.31415">
        <ele>12.6</ele>
        <time>2023-10-28T06:26:25Z</time>
      </trkpt>
      <trkpt lat="50.84435" lon="3.31412">
        <ele>12.8</ele>
        <time>2023-10-28T06:26:26Z</time>
      </trkpt>
      <trkpt lat="50.84435" lon="3.31409">
        <ele>12.8</ele>
        <time>2023-10-28T06:26:27Z</time>
      </trkpt>
      <trkpt lat="50.84434" lon="3.31405">
        <ele>12.8</ele>
        <time>2023-10-28T06:26:29Z</time>
      </trkpt>
      <trkpt lat="50.84433" lon="3.31403">
        <ele>12.8</ele>
        <time>2023-10-28T06:26:30Z</time>
      </trkpt>
      <trkpt lat="50.84432" lon="3.31401">
        <ele>12.8</ele>
        <time>2023-10-28T06:26:31Z</time>
      </trkpt>
      <trkpt lat="50.8443" lon="3.31399">
        <ele>12.8</ele>
        <time>2023-10-28T06:26:32Z</time>
      </trkpt>
      <trkpt lat="50.84428" lon="3.31397">
        <ele>13</ele>
        <time>2023-10-28T06:26:33Z</time>
      </trkpt>
      <trkpt lat="50.84421" lon="3.31389">
        <ele>13</ele>
        <time>2023-10-28T06:26:36Z</time>
      </trkpt>
      <trkpt lat="50.84419" lon="3.31386">
        <ele>13</ele>
        <time>2023-10-28T06:26:37Z</time>
      </trkpt>
      <trkpt lat="50.84417" lon="3.31384">
        <ele>13.2</ele>
        <time>2023-10-28T06:26:38Z</time>
      </trkpt>
      <trkpt lat="50.84416" lon="3.31383">
        <ele>13.2</ele>
        <time>2023-10-28T06:26:39Z</time>
      </trkpt>
      <trkpt lat="50.84415" lon="3.31382">
        <ele>13.2</ele>
        <time>2023-10-28T06:26:40Z</time>
      </trkpt>
      <trkpt lat="50.84407" lon="3.31379">
        <ele>13.4</ele>
        <time>2023-10-28T06:26:43Z</time>
      </trkpt>
      <trkpt lat="50.84405" lon="3.3138">
        <ele>13.4</ele>
        <time>2023-10-28T06:26:44Z</time>
      </trkpt>
      <trkpt lat="50.84405" lon="3.31381">
        <ele>13.6</ele>
        <time>2023-10-28T06:26:45Z</time>
      </trkpt>
      <trkpt lat="50.84403" lon="3.31383">
        <ele>13.6</ele>
        <time>2023-10-28T06:26:46Z</time>
      </trkpt>
      <trkpt lat="50.84399" lon="3.31386">
        <ele>14</ele>
        <time>2023-10-28T06:26:48Z</time>
      </trkpt>
      <trkpt lat="50.84398" lon="3.31388">
        <ele>14</ele>
        <time>2023-10-28T06:26:49Z</time>
      </trkpt>
      <trkpt lat="50.84399" lon="3.31393">
        <ele>14.2</ele>
        <time>2023-10-28T06:26:51Z</time>
      </trkpt>
      <trkpt lat="50.84401" lon="3.31394">
        <ele>14.2</ele>
        <time>2023-10-28T06:26:52Z</time>
      </trkpt>
      <trkpt lat="50.84402" lon="3.31394">
        <ele>14.2</ele>
        <time>2023-10-28T06:26:53Z</time>
      </trkpt>
      <trkpt lat="50.84404" lon="3.31393">
        <ele>14.4</ele>
        <time>2023-10-28T06:26:54Z</time>
      </trkpt>
      <trkpt lat="50.84403" lon="3.31391">
        <ele>14.4</ele>
        <time>2023-10-28T06:26:55Z</time>
      </trkpt>
      <trkpt lat="50.84404" lon="3.31384">
        <ele>14.6</ele>
        <time>2023-10-28T06:26:58Z</time>
      </trkpt>
      <trkpt lat="50.84405" lon="3.31382">
        <ele>14.6</ele>
        <time>2023-10-28T06:26:59Z</time>
      </trkpt>
      <trkpt lat="50.84407" lon="3.31381">
        <ele>14.6</ele>
        <time>2023-10-28T06:27:00Z</time>
      </trkpt>
      <trkpt lat="50.84409" lon="3.31381">
        <ele>14.6</ele>
        <time>2023-10-28T06:27:01Z</time>
      </trkpt>
      <trkpt lat="50.8441" lon="3.31381">
        <ele>14.6</ele>
        <time>2023-10-28T06:27:02Z</time>
      </trkpt>
      <trkpt lat="50.84411" lon="3.31382">
        <ele>14.6</ele>
        <time>2023-10-28T06:27:03Z</time>
      </trkpt>
      <trkpt lat="50.84411" lon="3.31383">
        <ele>14.8</ele>
        <time>2023-10-28T06:27:04Z</time>
      </trkpt>
      <trkpt lat="50.84412" lon="3.31384">
        <ele>14.8</ele>
        <time>2023-10-28T06:27:05Z</time>
      </trkpt>
      <trkpt lat="50.84412" lon="3.31386">
        <ele>14.8</ele>
        <time>2023-10-28T06:27:06Z</time>
      </trkpt>
      <trkpt lat="50.84412" lon="3.31393">
        <ele>14.8</ele>
        <time>2023-10-28T06:27:08Z</time>
      </trkpt>
      <trkpt lat="50.84413" lon="3.31398">
        <ele>14.8</ele>
        <time>2023-10-28T06:27:09Z</time>
      </trkpt>
      <trkpt lat="50.84415" lon="3.31409">
        <ele>14.8</ele>
        <time>2023-10-28T06:27:12Z</time>
      </trkpt>
      <trkpt lat="50.84418" lon="3.31414">
        <ele>14.8</ele>
        <time>2023-10-28T06:27:14Z</time>
      </trkpt>
      <trkpt lat="50.84419" lon="3.31417">
        <ele>14.2</ele>
        <time>2023-10-28T06:27:15Z</time>
      </trkpt>
      <trkpt lat="50.84423" lon="3.31423">
        <ele>13.8</ele>
        <time>2023-10-28T06:27:16Z</time>
      </trkpt>
      <trkpt lat="50.84425" lon="3.31427">
        <ele>13.2</ele>
        <time>2023-10-28T06:27:17Z</time>
      </trkpt>
      <trkpt lat="50.8443" lon="3.31438">
        <ele>12.8</ele>
        <time>2023-10-28T06:27:20Z</time>
      </trkpt>
      <trkpt lat="50.84433" lon="3.31443">
        <ele>12.6</ele>
        <time>2023-10-28T06:27:21Z</time>
      </trkpt>
      <trkpt lat="50.84435" lon="3.31447">
        <ele>12.6</ele>
        <time>2023-10-28T06:27:22Z</time>
      </trkpt>
      <trkpt lat="50.84436" lon="3.31451">
        <ele>12.6</ele>
        <time>2023-10-28T06:27:23Z</time>
      </trkpt>
      <trkpt lat="50.8444" lon="3.31457">
        <ele>12.6</ele>
        <time>2023-10-28T06:27:25Z</time>
      </trkpt>
      <trkpt lat="50.84441" lon="3.3146">
        <ele>12.6</ele>
        <time>2023-10-28T06:27:26Z</time>
      </trkpt>
      <trkpt lat="50.84442" lon="3.31464">
        <ele>12.6</ele>
        <time>2023-10-28T06:27:27Z</time>
      </trkpt>
      <trkpt lat="50.84442" lon="3.3147">
        <ele>12.6</ele>
        <time>2023-10-28T06:27:28Z</time>
      </trkpt>
      <trkpt lat="50.84442" lon="3.31476">
        <ele>12.6</ele>
        <time>2023-10-28T06:27:29Z</time>
      </trkpt>
      <trkpt lat="50.84444" lon="3.31481">
        <ele>12.6</ele>
        <time>2023-10-28T06:27:30Z</time>
      </trkpt>
      <trkpt lat="50.84447" lon="3.31486">
        <ele>12.6</ele>
        <time>2023-10-28T06:27:31Z</time>
      </trkpt>
      <trkpt lat="50.84449" lon="3.31489">
        <ele>12.6</ele>
        <time>2023-10-28T06:27:32Z</time>
      </trkpt>
      <trkpt lat="50.8445" lon="3.31494">
        <ele>12.6</ele>
        <time>2023-10-28T06:27:33Z</time>
      </trkpt>
      <trkpt lat="50.84454" lon="3.31505">
        <ele>12.8</ele>
        <time>2023-10-28T06:27:35Z</time>
      </trkpt>
      <trkpt lat="50.84461" lon="3.31522">
        <ele>12.8</ele>
        <time>2023-10-28T06:27:38Z</time>
      </trkpt>
      <trkpt lat="50.84463" lon="3.31535">
        <ele>13</ele>
        <time>2023-10-28T06:27:40Z</time>
      </trkpt>
      <trkpt lat="50.84464" lon="3.31541">
        <ele>13</ele>
        <time>2023-10-28T06:27:41Z</time>
      </trkpt>
      <trkpt lat="50.84465" lon="3.31548">
        <ele>13</ele>
        <time>2023-10-28T06:27:42Z</time>
      </trkpt>
      <trkpt lat="50.84466" lon="3.31555">
        <ele>13</ele>
        <time>2023-10-28T06:27:43Z</time>
      </trkpt>
      <trkpt lat="50.84474" lon="3.31575">
        <ele>13</ele>
        <time>2023-10-28T06:27:46Z</time>
      </trkpt>
      <trkpt lat="50.84476" lon="3.31582">
        <ele>13</ele>
        <time>2023-10-28T06:27:47Z</time>
      </trkpt>
      <trkpt lat="50.84477" lon="3.31586">
        <ele>13</ele>
        <time>2023-10-28T06:27:48Z</time>
      </trkpt>
      <trkpt lat="50.84479" lon="3.31591">
        <ele>13</ele>
        <time>2023-10-28T06:27:49Z</time>
      </trkpt>
      <trkpt lat="50.8448" lon="3.31595">
        <ele>13</ele>
        <time>2023-10-28T06:27:50Z</time>
      </trkpt>
      <trkpt lat="50.84481" lon="3.316">
        <ele>13</ele>
        <time>2023-10-28T06:27:51Z</time>
      </trkpt>
      <trkpt lat="50.84482" lon="3.31605">
        <ele>13</ele>
        <time>2023-10-28T06:27:52Z</time>
      </trkpt>
      <trkpt lat="50.84488" lon="3.31616">
        <ele>13</ele>
        <time>2023-10-28T06:27:55Z</time>
      </trkpt>
      <trkpt lat="50.84491" lon="3.31618">
        <ele>13</ele>
        <time>2023-10-28T06:27:56Z</time>
      </trkpt>
      <trkpt lat="50.84493" lon="3.31619">
        <ele>13</ele>
        <time>2023-10-28T06:27:57Z</time>
      </trkpt>
      <trkpt lat="50.84494" lon="3.31618">
        <ele>13</ele>
        <time>2023-10-28T06:27:58Z</time>
      </trkpt>
      <trkpt lat="50.84494" lon="3.31616">
        <ele>13</ele>
        <time>2023-10-28T06:27:59Z</time>
      </trkpt>
      <trkpt lat="50.84497" lon="3.31613">
        <ele>13</ele>
        <time>2023-10-28T06:28:00Z</time>
      </trkpt>
      <trkpt lat="50.845" lon="3.31612">
        <ele>13.2</ele>
        <time>2023-10-28T06:28:01Z</time>
      </trkpt>
      <trkpt lat="50.84504" lon="3.31611">
        <ele>13</ele>
        <time>2023-10-28T06:28:02Z</time>
      </trkpt>
      <trkpt lat="50.84509" lon="3.31609">
        <ele>13</ele>
        <time>2023-10-28T06:28:04Z</time>
      </trkpt>
      <trkpt lat="50.84512" lon="3.31608">
        <ele>13</ele>
        <time>2023-10-28T06:28:05Z</time>
      </trkpt>
      <trkpt lat="50.84515" lon="3.31607">
        <ele>13</ele>
        <time>2023-10-28T06:28:06Z</time>
      </trkpt>
      <trkpt lat="50.84538" lon="3.31599">
        <ele>12.8</ele>
        <time>2023-10-28T06:28:11Z</time>
      </trkpt>
      <trkpt lat="50.84548" lon="3.31593">
        <ele>12.8</ele>
        <time>2023-10-28T06:28:13Z</time>
      </trkpt>
      <trkpt lat="50.8456" lon="3.3159">
        <ele>12.8</ele>
        <time>2023-10-28T06:28:15Z</time>
      </trkpt>
      <trkpt lat="50.84564" lon="3.31586">
        <ele>12.8</ele>
        <time>2023-10-28T06:28:16Z</time>
      </trkpt>
      <trkpt lat="50.84569" lon="3.31583">
        <ele>12.6</ele>
        <time>2023-10-28T06:28:17Z</time>
      </trkpt>
      <trkpt lat="50.84588" lon="3.31575">
        <ele>12.6</ele>
        <time>2023-10-28T06:28:20Z</time>
      </trkpt>
      <trkpt lat="50.84599" lon="3.31571">
        <ele>12.6</ele>
        <time>2023-10-28T06:28:22Z</time>
      </trkpt>
      <trkpt lat="50.84608" lon="3.31565">
        <ele>12.6</ele>
        <time>2023-10-28T06:28:24Z</time>
      </trkpt>
      <trkpt lat="50.84613" lon="3.31561">
        <ele>12.6</ele>
        <time>2023-10-28T06:28:25Z</time>
      </trkpt>
      <trkpt lat="50.84628" lon="3.31551">
        <ele>12.6</ele>
        <time>2023-10-28T06:28:28Z</time>
      </trkpt>
      <trkpt lat="50.84635" lon="3.31549">
        <ele>12.8</ele>
        <time>2023-10-28T06:28:29Z</time>
      </trkpt>
      <trkpt lat="50.84641" lon="3.31546">
        <ele>13</ele>
        <time>2023-10-28T06:28:30Z</time>
      </trkpt>
      <trkpt lat="50.84651" lon="3.31541">
        <ele>13</ele>
        <time>2023-10-28T06:28:32Z</time>
      </trkpt>
      <trkpt lat="50.84656" lon="3.3154">
        <ele>13.2</ele>
        <time>2023-10-28T06:28:33Z</time>
      </trkpt>
      <trkpt lat="50.84661" lon="3.3154">
        <ele>13.2</ele>
        <time>2023-10-28T06:28:34Z</time>
      </trkpt>
      <trkpt lat="50.84671" lon="3.31538">
        <ele>13.4</ele>
        <time>2023-10-28T06:28:36Z</time>
      </trkpt>
      <trkpt lat="50.84676" lon="3.31534">
        <ele>13.4</ele>
        <time>2023-10-28T06:28:37Z</time>
      </trkpt>
      <trkpt lat="50.84681" lon="3.3153">
        <ele>13.6</ele>
        <time>2023-10-28T06:28:38Z</time>
      </trkpt>
      <trkpt lat="50.84685" lon="3.31525">
        <ele>13.8</ele>
        <time>2023-10-28T06:28:39Z</time>
      </trkpt>
      <trkpt lat="50.84689" lon="3.3152">
        <ele>13.8</ele>
        <time>2023-10-28T06:28:40Z</time>
      </trkpt>
      <trkpt lat="50.84694" lon="3.31516">
        <ele>14</ele>
        <time>2023-10-28T06:28:41Z</time>
      </trkpt>
      <trkpt lat="50.84699" lon="3.31514">
        <ele>14</ele>
        <time>2023-10-28T06:28:42Z</time>
      </trkpt>
      <trkpt lat="50.84703" lon="3.31514">
        <ele>14.2</ele>
        <time>2023-10-28T06:28:43Z</time>
      </trkpt>
      <trkpt lat="50.84706" lon="3.31516">
        <ele>14.2</ele>
        <time>2023-10-28T06:28:44Z</time>
      </trkpt>
      <trkpt lat="50.84709" lon="3.31519">
        <ele>14.4</ele>
        <time>2023-10-28T06:28:45Z</time>
      </trkpt>
      <trkpt lat="50.84713" lon="3.31524">
        <ele>14.4</ele>
        <time>2023-10-28T06:28:46Z</time>
      </trkpt>
      <trkpt lat="50.84716" lon="3.3153">
        <ele>14.4</ele>
        <time>2023-10-28T06:28:47Z</time>
      </trkpt>
      <trkpt lat="50.84719" lon="3.31537">
        <ele>14.4</ele>
        <time>2023-10-28T06:28:48Z</time>
      </trkpt>
      <trkpt lat="50.84721" lon="3.31545">
        <ele>14.4</ele>
        <time>2023-10-28T06:28:49Z</time>
      </trkpt>
      <trkpt lat="50.84731" lon="3.31581">
        <ele>14.6</ele>
        <time>2023-10-28T06:28:53Z</time>
      </trkpt>
      <trkpt lat="50.84735" lon="3.31599">
        <ele>14.6</ele>
        <time>2023-10-28T06:28:55Z</time>
      </trkpt>
      <trkpt lat="50.84736" lon="3.31606">
        <ele>14.4</ele>
        <time>2023-10-28T06:28:56Z</time>
      </trkpt>
      <trkpt lat="50.84737" lon="3.31615">
        <ele>14.4</ele>
        <time>2023-10-28T06:28:57Z</time>
      </trkpt>
      <trkpt lat="50.84738" lon="3.31623">
        <ele>14.4</ele>
        <time>2023-10-28T06:28:58Z</time>
      </trkpt>
      <trkpt lat="50.8474" lon="3.3164">
        <ele>14.4</ele>
        <time>2023-10-28T06:29:00Z</time>
      </trkpt>
      <trkpt lat="50.8474" lon="3.31647">
        <ele>14.4</ele>
        <time>2023-10-28T06:29:01Z</time>
      </trkpt>
      <trkpt lat="50.8474" lon="3.31655">
        <ele>14.4</ele>
        <time>2023-10-28T06:29:02Z</time>
      </trkpt>
      <trkpt lat="50.84741" lon="3.31663">
        <ele>14.4</ele>
        <time>2023-10-28T06:29:03Z</time>
      </trkpt>
      <trkpt lat="50.84743" lon="3.3167">
        <ele>14.4</ele>
        <time>2023-10-28T06:29:04Z</time>
      </trkpt>
      <trkpt lat="50.84745" lon="3.31678">
        <ele>14.4</ele>
        <time>2023-10-28T06:29:05Z</time>
      </trkpt>
      <trkpt lat="50.84748" lon="3.31685">
        <ele>14.4</ele>
        <time>2023-10-28T06:29:06Z</time>
      </trkpt>
      <trkpt lat="50.84751" lon="3.31693">
        <ele>14.4</ele>
        <time>2023-10-28T06:29:07Z</time>
      </trkpt>
      <trkpt lat="50.84752" lon="3.317">
        <ele>14.4</ele>
        <time>2023-10-28T06:29:08Z</time>
      </trkpt>
      <trkpt lat="50.84753" lon="3.31707">
        <ele>14.4</ele>
        <time>2023-10-28T06:29:09Z</time>
      </trkpt>
      <trkpt lat="50.84755" lon="3.31714">
        <ele>14.4</ele>
        <time>2023-10-28T06:29:10Z</time>
      </trkpt>
      <trkpt lat="50.84757" lon="3.31721">
        <ele>14.4</ele>
        <time>2023-10-28T06:29:11Z</time>
      </trkpt>
      <trkpt lat="50.84764" lon="3.31739">
        <ele>14.6</ele>
        <time>2023-10-28T06:29:14Z</time>
      </trkpt>
      <trkpt lat="50.84766" lon="3.31745">
        <ele>14.6</ele>
        <time>2023-10-28T06:29:15Z</time>
      </trkpt>
      <trkpt lat="50.84767" lon="3.31753">
        <ele>14.6</ele>
        <time>2023-10-28T06:29:16Z</time>
      </trkpt>
      <trkpt lat="50.84768" lon="3.31759">
        <ele>14.6</ele>
        <time>2023-10-28T06:29:17Z</time>
      </trkpt>
      <trkpt lat="50.8477" lon="3.31764">
        <ele>14.6</ele>
        <time>2023-10-28T06:29:18Z</time>
      </trkpt>
      <trkpt lat="50.84771" lon="3.3177">
        <ele>14.6</ele>
        <time>2023-10-28T06:29:19Z</time>
      </trkpt>
      <trkpt lat="50.84769" lon="3.31774">
        <ele>14.6</ele>
        <time>2023-10-28T06:29:20Z</time>
      </trkpt>
      <trkpt lat="50.84767" lon="3.31778">
        <ele>14.6</ele>
        <time>2023-10-28T06:29:21Z</time>
      </trkpt>
      <trkpt lat="50.84765" lon="3.31782">
        <ele>14.6</ele>
        <time>2023-10-28T06:29:22Z</time>
      </trkpt>
      <trkpt lat="50.84762" lon="3.31786">
        <ele>14.6</ele>
        <time>2023-10-28T06:29:23Z</time>
      </trkpt>
      <trkpt lat="50.84757" lon="3.31789">
        <ele>14.6</ele>
        <time>2023-10-28T06:29:24Z</time>
      </trkpt>
      <trkpt lat="50.84753" lon="3.31792">
        <ele>14.6</ele>
        <time>2023-10-28T06:29:25Z</time>
      </trkpt>
      <trkpt lat="50.84744" lon="3.31798">
        <ele>14.6</ele>
        <time>2023-10-28T06:29:27Z</time>
      </trkpt>
      <trkpt lat="50.84733" lon="3.31805">
        <ele>15</ele>
        <time>2023-10-28T06:29:30Z</time>
      </trkpt>
      <trkpt lat="50.84723" lon="3.31816">
        <ele>15</ele>
        <time>2023-10-28T06:29:32Z</time>
      </trkpt>
      <trkpt lat="50.84717" lon="3.31827">
        <ele>15</ele>
        <time>2023-10-28T06:29:34Z</time>
      </trkpt>
      <trkpt lat="50.84715" lon="3.31834">
        <ele>15</ele>
        <time>2023-10-28T06:29:35Z</time>
      </trkpt>
      <trkpt lat="50.84714" lon="3.31841">
        <ele>15</ele>
        <time>2023-10-28T06:29:36Z</time>
      </trkpt>
      <trkpt lat="50.84714" lon="3.31848">
        <ele>15</ele>
        <time>2023-10-28T06:29:37Z</time>
      </trkpt>
      <trkpt lat="50.84715" lon="3.31856">
        <ele>15</ele>
        <time>2023-10-28T06:29:38Z</time>
      </trkpt>
      <trkpt lat="50.84714" lon="3.31863">
        <ele>15</ele>
        <time>2023-10-28T06:29:39Z</time>
      </trkpt>
      <trkpt lat="50.84711" lon="3.31868">
        <ele>15.2</ele>
        <time>2023-10-28T06:29:40Z</time>
      </trkpt>
      <trkpt lat="50.84709" lon="3.31871">
        <ele>15.2</ele>
        <time>2023-10-28T06:29:41Z</time>
      </trkpt>
      <trkpt lat="50.84709" lon="3.31875">
        <ele>15.2</ele>
        <time>2023-10-28T06:29:42Z</time>
      </trkpt>
      <trkpt lat="50.84707" lon="3.31878">
        <ele>15</ele>
        <time>2023-10-28T06:29:43Z</time>
      </trkpt>
      <trkpt lat="50.84707" lon="3.31881">
        <ele>15</ele>
        <time>2023-10-28T06:29:44Z</time>
      </trkpt>
      <trkpt lat="50.84708" lon="3.31882">
        <ele>15</ele>
        <time>2023-10-28T06:29:45Z</time>
      </trkpt>
      <trkpt lat="50.84711" lon="3.31883">
        <ele>15</ele>
        <time>2023-10-28T06:29:46Z</time>
      </trkpt>
      <trkpt lat="50.84715" lon="3.31889">
        <ele>15</ele>
        <time>2023-10-28T06:29:48Z</time>
      </trkpt>
      <trkpt lat="50.84716" lon="3.31894">
        <ele>15</ele>
        <time>2023-10-28T06:29:49Z</time>
      </trkpt>
      <trkpt lat="50.84716" lon="3.31899">
        <ele>15</ele>
        <time>2023-10-28T06:29:50Z</time>
      </trkpt>
      <trkpt lat="50.84714" lon="3.31901">
        <ele>15</ele>
        <time>2023-10-28T06:29:51Z</time>
      </trkpt>
      <trkpt lat="50.84713" lon="3.319">
        <ele>15</ele>
        <time>2023-10-28T06:29:52Z</time>
      </trkpt>
      <trkpt lat="50.8471" lon="3.31897">
        <ele>15</ele>
        <time>2023-10-28T06:29:53Z</time>
      </trkpt>
      <trkpt lat="50.84706" lon="3.31894">
        <ele>15</ele>
        <time>2023-10-28T06:29:54Z</time>
      </trkpt>
      <trkpt lat="50.84698" lon="3.31888">
        <ele>14.8</ele>
        <time>2023-10-28T06:29:57Z</time>
      </trkpt>
      <trkpt lat="50.84692" lon="3.3188">
        <ele>14.6</ele>
        <time>2023-10-28T06:29:59Z</time>
      </trkpt>
      <trkpt lat="50.84688" lon="3.31878">
        <ele>14.6</ele>
        <time>2023-10-28T06:30:00Z</time>
      </trkpt>
      <trkpt lat="50.84687" lon="3.31879">
        <ele>14.6</ele>
        <time>2023-10-28T06:30:01Z</time>
      </trkpt>
      <trkpt lat="50.84683" lon="3.31878">
        <ele>14.6</ele>
        <time>2023-10-28T06:30:02Z</time>
      </trkpt>
      <trkpt lat="50.84682" lon="3.31877">
        <ele>14.6</ele>
        <time>2023-10-28T06:30:03Z</time>
      </trkpt>
      <trkpt lat="50.8468" lon="3.31878">
        <ele>14.6</ele>
        <time>2023-10-28T06:30:04Z</time>
      </trkpt>
      <trkpt lat="50.84679" lon="3.31879">
        <ele>14.4</ele>
        <time>2023-10-28T06:30:05Z</time>
      </trkpt>
      <trkpt lat="50.84677" lon="3.31879">
        <ele>14.4</ele>
        <time>2023-10-28T06:30:06Z</time>
      </trkpt>
      <trkpt lat="50.84677" lon="3.31881">
        <ele>14.4</ele>
        <time>2023-10-28T06:30:07Z</time>
      </trkpt>
      <trkpt lat="50.84676" lon="3.31881">
        <ele>14.4</ele>
        <time>2023-10-28T06:30:08Z</time>
      </trkpt>
      <trkpt lat="50.8467" lon="3.31883">
        <ele>14.2</ele>
        <time>2023-10-28T06:30:11Z</time>
      </trkpt>
      <trkpt lat="50.84666" lon="3.31886">
        <ele>14.2</ele>
        <time>2023-10-28T06:30:13Z</time>
      </trkpt>
      <trkpt lat="50.84664" lon="3.31888">
        <ele>14.2</ele>
        <time>2023-10-28T06:30:14Z</time>
      </trkpt>
      <trkpt lat="50.84663" lon="3.31891">
        <ele>14.2</ele>
        <time>2023-10-28T06:30:15Z</time>
      </trkpt>
      <trkpt lat="50.84662" lon="3.31894">
        <ele>14.2</ele>
        <time>2023-10-28T06:30:16Z</time>
      </trkpt>
      <trkpt lat="50.84661" lon="3.31898">
        <ele>14.2</ele>
        <time>2023-10-28T06:30:17Z</time>
      </trkpt>
      <trkpt lat="50.84661" lon="3.31901">
        <ele>14.2</ele>
        <time>2023-10-28T06:30:18Z</time>
      </trkpt>
      <trkpt lat="50.84661" lon="3.31904">
        <ele>14</ele>
        <time>2023-10-28T06:30:19Z</time>
      </trkpt>
      <trkpt lat="50.8466" lon="3.31907">
        <ele>14</ele>
        <time>2023-10-28T06:30:20Z</time>
      </trkpt>
      <trkpt lat="50.84658" lon="3.31909">
        <ele>13.8</ele>
        <time>2023-10-28T06:30:21Z</time>
      </trkpt>
      <trkpt lat="50.84656" lon="3.31911">
        <ele>13.6</ele>
        <time>2023-10-28T06:30:22Z</time>
      </trkpt>
      <trkpt lat="50.84654" lon="3.31914">
        <ele>13.6</ele>
        <time>2023-10-28T06:30:23Z</time>
      </trkpt>
      <trkpt lat="50.84654" lon="3.31922">
        <ele>13.6</ele>
        <time>2023-10-28T06:30:25Z</time>
      </trkpt>
      <trkpt lat="50.84661" lon="3.31938">
        <ele>13.4</ele>
        <time>2023-10-28T06:30:28Z</time>
      </trkpt>
      <trkpt lat="50.84664" lon="3.31943">
        <ele>13.4</ele>
        <time>2023-10-28T06:30:29Z</time>
      </trkpt>
      <trkpt lat="50.84666" lon="3.31946">
        <ele>13.2</ele>
        <time>2023-10-28T06:30:30Z</time>
      </trkpt>
      <trkpt lat="50.8467" lon="3.31951">
        <ele>13.2</ele>
        <time>2023-10-28T06:30:31Z</time>
      </trkpt>
      <trkpt lat="50.84674" lon="3.31953">
        <ele>13.2</ele>
        <time>2023-10-28T06:30:32Z</time>
      </trkpt>
      <trkpt lat="50.84677" lon="3.31956">
        <ele>13.2</ele>
        <time>2023-10-28T06:30:33Z</time>
      </trkpt>
      <trkpt lat="50.8468" lon="3.31959">
        <ele>13.2</ele>
        <time>2023-10-28T06:30:34Z</time>
      </trkpt>
      <trkpt lat="50.84685" lon="3.31968">
        <ele>13.2</ele>
        <time>2023-10-28T06:30:36Z</time>
      </trkpt>
      <trkpt lat="50.84688" lon="3.31975">
        <ele>13.2</ele>
        <time>2023-10-28T06:30:37Z</time>
      </trkpt>
      <trkpt lat="50.8469" lon="3.3198">
        <ele>13.2</ele>
        <time>2023-10-28T06:30:38Z</time>
      </trkpt>
      <trkpt lat="50.84691" lon="3.31984">
        <ele>13.2</ele>
        <time>2023-10-28T06:30:39Z</time>
      </trkpt>
      <trkpt lat="50.84694" lon="3.3199">
        <ele>13.2</ele>
        <time>2023-10-28T06:30:40Z</time>
      </trkpt>
      <trkpt lat="50.84704" lon="3.32022">
        <ele>13</ele>
        <time>2023-10-28T06:30:45Z</time>
      </trkpt>
      <trkpt lat="50.84705" lon="3.32028">
        <ele>13</ele>
        <time>2023-10-28T06:30:46Z</time>
      </trkpt>
      <trkpt lat="50.84705" lon="3.32034">
        <ele>13</ele>
        <time>2023-10-28T06:30:47Z</time>
      </trkpt>
      <trkpt lat="50.84705" lon="3.3204">
        <ele>13.2</ele>
        <time>2023-10-28T06:30:48Z</time>
      </trkpt>
      <trkpt lat="50.84705" lon="3.32048">
        <ele>13.2</ele>
        <time>2023-10-28T06:30:49Z</time>
      </trkpt>
      <trkpt lat="50.84704" lon="3.3207">
        <ele>13.2</ele>
        <time>2023-10-28T06:30:52Z</time>
      </trkpt>
      <trkpt lat="50.84704" lon="3.32076">
        <ele>13.2</ele>
        <time>2023-10-28T06:30:53Z</time>
      </trkpt>
      <trkpt lat="50.84705" lon="3.32082">
        <ele>13</ele>
        <time>2023-10-28T06:30:54Z</time>
      </trkpt>
      <trkpt lat="50.84705" lon="3.32089">
        <ele>13</ele>
        <time>2023-10-28T06:30:55Z</time>
      </trkpt>
      <trkpt lat="50.84704" lon="3.32096">
        <ele>13</ele>
        <time>2023-10-28T06:30:56Z</time>
      </trkpt>
      <trkpt lat="50.84704" lon="3.32111">
        <ele>12.8</ele>
        <time>2023-10-28T06:30:58Z</time>
      </trkpt>
      <trkpt lat="50.84701" lon="3.3214">
        <ele>12.8</ele>
        <time>2023-10-28T06:31:02Z</time>
      </trkpt>
      <trkpt lat="50.847" lon="3.32146">
        <ele>12.8</ele>
        <time>2023-10-28T06:31:03Z</time>
      </trkpt>
      <trkpt lat="50.84701" lon="3.32159">
        <ele>12.6</ele>
        <time>2023-10-28T06:31:05Z</time>
      </trkpt>
      <trkpt lat="50.84701" lon="3.32164">
        <ele>12.6</ele>
        <time>2023-10-28T06:31:06Z</time>
      </trkpt>
      <trkpt lat="50.847" lon="3.3217">
        <ele>12.6</ele>
        <time>2023-10-28T06:31:07Z</time>
      </trkpt>
      <trkpt lat="50.84699" lon="3.32176">
        <ele>12.6</ele>
        <time>2023-10-28T06:31:08Z</time>
      </trkpt>
      <trkpt lat="50.84697" lon="3.32189">
        <ele>12.6</ele>
        <time>2023-10-28T06:31:10Z</time>
      </trkpt>
      <trkpt lat="50.84696" lon="3.32207">
        <ele>12.4</ele>
        <time>2023-10-28T06:31:12Z</time>
      </trkpt>
      <trkpt lat="50.84695" lon="3.32223">
        <ele>12.4</ele>
        <time>2023-10-28T06:31:14Z</time>
      </trkpt>
      <trkpt lat="50.84697" lon="3.32248">
        <ele>12.4</ele>
        <time>2023-10-28T06:31:17Z</time>
      </trkpt>
      <trkpt lat="50.84697" lon="3.32263">
        <ele>12.4</ele>
        <time>2023-10-28T06:31:19Z</time>
      </trkpt>
      <trkpt lat="50.84698" lon="3.3228">
        <ele>12.6</ele>
        <time>2023-10-28T06:31:21Z</time>
      </trkpt>
      <trkpt lat="50.84695" lon="3.32295">
        <ele>12.6</ele>
        <time>2023-10-28T06:31:23Z</time>
      </trkpt>
      <trkpt lat="50.84695" lon="3.32301">
        <ele>12.6</ele>
        <time>2023-10-28T06:31:24Z</time>
      </trkpt>
      <trkpt lat="50.84694" lon="3.32306">
        <ele>12.6</ele>
        <time>2023-10-28T06:31:25Z</time>
      </trkpt>
      <trkpt lat="50.84695" lon="3.32311">
        <ele>12.6</ele>
        <time>2023-10-28T06:31:26Z</time>
      </trkpt>
      <trkpt lat="50.84696" lon="3.32317">
        <ele>12.6</ele>
        <time>2023-10-28T06:31:27Z</time>
      </trkpt>
      <trkpt lat="50.84697" lon="3.32324">
        <ele>12.6</ele>
        <time>2023-10-28T06:31:28Z</time>
      </trkpt>
      <trkpt lat="50.84698" lon="3.32341">
        <ele>12.6</ele>
        <time>2023-10-28T06:31:30Z</time>
      </trkpt>
      <trkpt lat="50.84699" lon="3.32346">
        <ele>12.6</ele>
        <time>2023-10-28T06:31:31Z</time>
      </trkpt>
      <trkpt lat="50.84701" lon="3.32352">
        <ele>12.6</ele>
        <time>2023-10-28T06:31:32Z</time>
      </trkpt>
      <trkpt lat="50.84702" lon="3.32358">
        <ele>12.6</ele>
        <time>2023-10-28T06:31:33Z</time>
      </trkpt>
      <trkpt lat="50.84709" lon="3.32384">
        <ele>12.6</ele>
        <time>2023-10-28T06:31:38Z</time>
      </trkpt>
      <trkpt lat="50.84709" lon="3.32394">
        <ele>12.6</ele>
        <time>2023-10-28T06:31:40Z</time>
      </trkpt>
      <trkpt lat="50.84709" lon="3.32399">
        <ele>12.8</ele>
        <time>2023-10-28T06:31:41Z</time>
      </trkpt>
      <trkpt lat="50.84708" lon="3.32405">
        <ele>12.8</ele>
        <time>2023-10-28T06:31:42Z</time>
      </trkpt>
      <trkpt lat="50.84707" lon="3.32412">
        <ele>12.8</ele>
        <time>2023-10-28T06:31:43Z</time>
      </trkpt>
      <trkpt lat="50.84706" lon="3.3242">
        <ele>12.8</ele>
        <time>2023-10-28T06:31:44Z</time>
      </trkpt>
      <trkpt lat="50.84707" lon="3.32438">
        <ele>12.6</ele>
        <time>2023-10-28T06:31:46Z</time>
      </trkpt>
      <trkpt lat="50.84711" lon="3.32478">
        <ele>12.6</ele>
        <time>2023-10-28T06:31:50Z</time>
      </trkpt>
      <trkpt lat="50.84711" lon="3.32487">
        <ele>12.6</ele>
        <time>2023-10-28T06:31:51Z</time>
      </trkpt>
      <trkpt lat="50.84709" lon="3.32496">
        <ele>12.6</ele>
        <time>2023-10-28T06:31:52Z</time>
      </trkpt>
      <trkpt lat="50.84709" lon="3.32504">
        <ele>12.6</ele>
        <time>2023-10-28T06:31:53Z</time>
      </trkpt>
      <trkpt lat="50.84709" lon="3.32513">
        <ele>12.6</ele>
        <time>2023-10-28T06:31:54Z</time>
      </trkpt>
      <trkpt lat="50.8471" lon="3.32522">
        <ele>12.6</ele>
        <time>2023-10-28T06:31:55Z</time>
      </trkpt>
      <trkpt lat="50.8471" lon="3.32531">
        <ele>12.6</ele>
        <time>2023-10-28T06:31:56Z</time>
      </trkpt>
      <trkpt lat="50.8471" lon="3.32537">
        <ele>12.6</ele>
        <time>2023-10-28T06:31:57Z</time>
      </trkpt>
      <trkpt lat="50.8471" lon="3.32541">
        <ele>12.6</ele>
        <time>2023-10-28T06:31:58Z</time>
      </trkpt>
      <trkpt lat="50.8471" lon="3.32545">
        <ele>12.6</ele>
        <time>2023-10-28T06:31:59Z</time>
      </trkpt>
      <trkpt lat="50.84712" lon="3.32552">
        <ele>12.6</ele>
        <time>2023-10-28T06:32:00Z</time>
      </trkpt>
      <trkpt lat="50.84716" lon="3.32566">
        <ele>12.6</ele>
        <time>2023-10-28T06:32:02Z</time>
      </trkpt>
      <trkpt lat="50.84716" lon="3.32574">
        <ele>12.6</ele>
        <time>2023-10-28T06:32:03Z</time>
      </trkpt>
      <trkpt lat="50.84715" lon="3.32582">
        <ele>12.6</ele>
        <time>2023-10-28T06:32:04Z</time>
      </trkpt>
      <trkpt lat="50.84715" lon="3.3259">
        <ele>12.6</ele>
        <time>2023-10-28T06:32:05Z</time>
      </trkpt>
      <trkpt lat="50.84718" lon="3.32605">
        <ele>12.6</ele>
        <time>2023-10-28T06:32:07Z</time>
      </trkpt>
      <trkpt lat="50.8472" lon="3.32612">
        <ele>12.6</ele>
        <time>2023-10-28T06:32:08Z</time>
      </trkpt>
      <trkpt lat="50.8472" lon="3.32617">
        <ele>12.8</ele>
        <time>2023-10-28T06:32:09Z</time>
      </trkpt>
      <trkpt lat="50.8472" lon="3.3263">
        <ele>12.8</ele>
        <time>2023-10-28T06:32:11Z</time>
      </trkpt>
      <trkpt lat="50.84721" lon="3.32635">
        <ele>12.8</ele>
        <time>2023-10-28T06:32:12Z</time>
      </trkpt>
      <trkpt lat="50.8472" lon="3.3264">
        <ele>12.8</ele>
        <time>2023-10-28T06:32:13Z</time>
      </trkpt>
      <trkpt lat="50.8472" lon="3.32646">
        <ele>13</ele>
        <time>2023-10-28T06:32:14Z</time>
      </trkpt>
      <trkpt lat="50.84719" lon="3.32651">
        <ele>13</ele>
        <time>2023-10-28T06:32:15Z</time>
      </trkpt>
      <trkpt lat="50.84719" lon="3.32657">
        <ele>13</ele>
        <time>2023-10-28T06:32:16Z</time>
      </trkpt>
      <trkpt lat="50.84722" lon="3.32674">
        <ele>13.2</ele>
        <time>2023-10-28T06:32:19Z</time>
      </trkpt>
      <trkpt lat="50.84724" lon="3.32678">
        <ele>13.2</ele>
        <time>2023-10-28T06:32:20Z</time>
      </trkpt>
      <trkpt lat="50.84727" lon="3.32684">
        <ele>13.2</ele>
        <time>2023-10-28T06:32:21Z</time>
      </trkpt>
      <trkpt lat="50.84732" lon="3.32703">
        <ele>13.4</ele>
        <time>2023-10-28T06:32:24Z</time>
      </trkpt>
      <trkpt lat="50.84734" lon="3.3271">
        <ele>13.4</ele>
        <time>2023-10-28T06:32:25Z</time>
      </trkpt>
      <trkpt lat="50.84737" lon="3.32727">
        <ele>13.4</ele>
        <time>2023-10-28T06:32:27Z</time>
      </trkpt>
      <trkpt lat="50.84737" lon="3.32736">
        <ele>13.4</ele>
        <time>2023-10-28T06:32:28Z</time>
      </trkpt>
      <trkpt lat="50.84737" lon="3.32744">
        <ele>13.4</ele>
        <time>2023-10-28T06:32:29Z</time>
      </trkpt>
      <trkpt lat="50.84738" lon="3.32751">
        <ele>13.4</ele>
        <time>2023-10-28T06:32:30Z</time>
      </trkpt>
      <trkpt lat="50.84738" lon="3.3276">
        <ele>13.4</ele>
        <time>2023-10-28T06:32:31Z</time>
      </trkpt>
      <trkpt lat="50.84737" lon="3.32766">
        <ele>13.4</ele>
        <time>2023-10-28T06:32:32Z</time>
      </trkpt>
      <trkpt lat="50.84737" lon="3.32772">
        <ele>13.4</ele>
        <time>2023-10-28T06:32:33Z</time>
      </trkpt>
      <trkpt lat="50.84738" lon="3.32778">
        <ele>13.4</ele>
        <time>2023-10-28T06:32:34Z</time>
      </trkpt>
      <trkpt lat="50.84738" lon="3.32785">
        <ele>13.4</ele>
        <time>2023-10-28T06:32:35Z</time>
      </trkpt>
      <trkpt lat="50.8474" lon="3.32795">
        <ele>13.4</ele>
        <time>2023-10-28T06:32:36Z</time>
      </trkpt>
      <trkpt lat="50.84742" lon="3.32825">
        <ele>13.4</ele>
        <time>2023-10-28T06:32:40Z</time>
      </trkpt>
      <trkpt lat="50.84741" lon="3.32834">
        <ele>13.4</ele>
        <time>2023-10-28T06:32:41Z</time>
      </trkpt>
      <trkpt lat="50.84741" lon="3.32841">
        <ele>13.4</ele>
        <time>2023-10-28T06:32:42Z</time>
      </trkpt>
      <trkpt lat="50.84741" lon="3.32849">
        <ele>13.4</ele>
        <time>2023-10-28T06:32:43Z</time>
      </trkpt>
      <trkpt lat="50.84741" lon="3.32856">
        <ele>13.4</ele>
        <time>2023-10-28T06:32:44Z</time>
      </trkpt>
      <trkpt lat="50.84742" lon="3.3286">
        <ele>13.4</ele>
        <time>2023-10-28T06:32:45Z</time>
      </trkpt>
      <trkpt lat="50.84741" lon="3.32865">
        <ele>13.4</ele>
        <time>2023-10-28T06:32:46Z</time>
      </trkpt>
      <trkpt lat="50.84741" lon="3.32871">
        <ele>13.4</ele>
        <time>2023-10-28T06:32:47Z</time>
      </trkpt>
      <trkpt lat="50.84737" lon="3.32896">
        <ele>13.4</ele>
        <time>2023-10-28T06:32:50Z</time>
      </trkpt>
      <trkpt lat="50.84738" lon="3.32903">
        <ele>13.4</ele>
        <time>2023-10-28T06:32:51Z</time>
      </trkpt>
      <trkpt lat="50.84738" lon="3.32909">
        <ele>13.4</ele>
        <time>2023-10-28T06:32:52Z</time>
      </trkpt>
      <trkpt lat="50.84742" lon="3.32943">
        <ele>13.4</ele>
        <time>2023-10-28T06:32:56Z</time>
      </trkpt>
      <trkpt lat="50.84747" lon="3.32969">
        <ele>13.4</ele>
        <time>2023-10-28T06:32:59Z</time>
      </trkpt>
      <trkpt lat="50.84748" lon="3.32974">
        <ele>13.4</ele>
        <time>2023-10-28T06:33:00Z</time>
      </trkpt>
      <trkpt lat="50.84751" lon="3.32979">
        <ele>13.4</ele>
        <time>2023-10-28T06:33:01Z</time>
      </trkpt>
      <trkpt lat="50.84753" lon="3.32985">
        <ele>13.2</ele>
        <time>2023-10-28T06:33:02Z</time>
      </trkpt>
      <trkpt lat="50.84757" lon="3.32999">
        <ele>13.2</ele>
        <time>2023-10-28T06:33:04Z</time>
      </trkpt>
      <trkpt lat="50.84758" lon="3.33008">
        <ele>13.2</ele>
        <time>2023-10-28T06:33:05Z</time>
      </trkpt>
      <trkpt lat="50.84759" lon="3.33016">
        <ele>13.2</ele>
        <time>2023-10-28T06:33:06Z</time>
      </trkpt>
      <trkpt lat="50.84759" lon="3.33026">
        <ele>13.2</ele>
        <time>2023-10-28T06:33:07Z</time>
      </trkpt>
      <trkpt lat="50.8476" lon="3.33036">
        <ele>13.2</ele>
        <time>2023-10-28T06:33:08Z</time>
      </trkpt>
      <trkpt lat="50.84762" lon="3.33056">
        <ele>13</ele>
        <time>2023-10-28T06:33:10Z</time>
      </trkpt>
      <trkpt lat="50.84765" lon="3.33065">
        <ele>13</ele>
        <time>2023-10-28T06:33:11Z</time>
      </trkpt>
      <trkpt lat="50.84768" lon="3.33074">
        <ele>13</ele>
        <time>2023-10-28T06:33:12Z</time>
      </trkpt>
      <trkpt lat="50.84772" lon="3.33082">
        <ele>13</ele>
        <time>2023-10-28T06:33:13Z</time>
      </trkpt>
      <trkpt lat="50.84777" lon="3.33089">
        <ele>12.8</ele>
        <time>2023-10-28T06:33:14Z</time>
      </trkpt>
      <trkpt lat="50.84781" lon="3.33096">
        <ele>12.4</ele>
        <time>2023-10-28T06:33:15Z</time>
      </trkpt>
      <trkpt lat="50.84789" lon="3.33111">
        <ele>11.6</ele>
        <time>2023-10-28T06:33:17Z</time>
      </trkpt>
      <trkpt lat="50.84813" lon="3.33151">
        <ele>11.4</ele>
        <time>2023-10-28T06:33:23Z</time>
      </trkpt>
      <trkpt lat="50.84816" lon="3.33158">
        <ele>11.4</ele>
        <time>2023-10-28T06:33:24Z</time>
      </trkpt>
      <trkpt lat="50.8482" lon="3.33164">
        <ele>11.4</ele>
        <time>2023-10-28T06:33:25Z</time>
      </trkpt>
      <trkpt lat="50.84824" lon="3.3317">
        <ele>11.4</ele>
        <time>2023-10-28T06:33:26Z</time>
      </trkpt>
      <trkpt lat="50.84827" lon="3.33176">
        <ele>11.4</ele>
        <time>2023-10-28T06:33:27Z</time>
      </trkpt>
      <trkpt lat="50.84831" lon="3.33182">
        <ele>11.6</ele>
        <time>2023-10-28T06:33:28Z</time>
      </trkpt>
      <trkpt lat="50.84834" lon="3.33188">
        <ele>11.6</ele>
        <time>2023-10-28T06:33:29Z</time>
      </trkpt>
      <trkpt lat="50.84837" lon="3.33194">
        <ele>11.6</ele>
        <time>2023-10-28T06:33:30Z</time>
      </trkpt>
      <trkpt lat="50.84841" lon="3.332">
        <ele>11.8</ele>
        <time>2023-10-28T06:33:31Z</time>
      </trkpt>
      <trkpt lat="50.84845" lon="3.33206">
        <ele>11.8</ele>
        <time>2023-10-28T06:33:32Z</time>
      </trkpt>
      <trkpt lat="50.84848" lon="3.33212">
        <ele>12</ele>
        <time>2023-10-28T06:33:33Z</time>
      </trkpt>
      <trkpt lat="50.84852" lon="3.33218">
        <ele>12</ele>
        <time>2023-10-28T06:33:34Z</time>
      </trkpt>
      <trkpt lat="50.84872" lon="3.33254">
        <ele>12.4</ele>
        <time>2023-10-28T06:33:40Z</time>
      </trkpt>
      <trkpt lat="50.84884" lon="3.33274">
        <ele>12.8</ele>
        <time>2023-10-28T06:33:43Z</time>
      </trkpt>
      <trkpt lat="50.84894" lon="3.33291">
        <ele>12.8</ele>
        <time>2023-10-28T06:33:46Z</time>
      </trkpt>
      <trkpt lat="50.84897" lon="3.33297">
        <ele>12.8</ele>
        <time>2023-10-28T06:33:47Z</time>
      </trkpt>
      <trkpt lat="50.84901" lon="3.33303">
        <ele>12.8</ele>
        <time>2023-10-28T06:33:48Z</time>
      </trkpt>
      <trkpt lat="50.84904" lon="3.33308">
        <ele>12.8</ele>
        <time>2023-10-28T06:33:49Z</time>
      </trkpt>
      <trkpt lat="50.84916" lon="3.33333">
        <ele>12.8</ele>
        <time>2023-10-28T06:33:53Z</time>
      </trkpt>
      <trkpt lat="50.8492" lon="3.33349">
        <ele>12.8</ele>
        <time>2023-10-28T06:33:55Z</time>
      </trkpt>
      <trkpt lat="50.84923" lon="3.33414">
        <ele>12.8</ele>
        <time>2023-10-28T06:34:03Z</time>
      </trkpt>
      <trkpt lat="50.84927" lon="3.33504">
        <ele>12.4</ele>
        <time>2023-10-28T06:34:14Z</time>
      </trkpt>
      <trkpt lat="50.84927" lon="3.33512">
        <ele>12.4</ele>
        <time>2023-10-28T06:34:15Z</time>
      </trkpt>
      <trkpt lat="50.84932" lon="3.33587">
        <ele>12.4</ele>
        <time>2023-10-28T06:34:24Z</time>
      </trkpt>
      <trkpt lat="50.84935" lon="3.33681">
        <ele>12.6</ele>
        <time>2023-10-28T06:34:35Z</time>
      </trkpt>
      <trkpt lat="50.84936" lon="3.33742">
        <ele>12.6</ele>
        <time>2023-10-28T06:34:42Z</time>
      </trkpt>
      <trkpt lat="50.84937" lon="3.33803">
        <ele>13</ele>
        <time>2023-10-28T06:34:49Z</time>
      </trkpt>
      <trkpt lat="50.84934" lon="3.33854">
        <ele>13.4</ele>
        <time>2023-10-28T06:34:55Z</time>
      </trkpt>
      <trkpt lat="50.84932" lon="3.33863">
        <ele>13.4</ele>
        <time>2023-10-28T06:34:56Z</time>
      </trkpt>
      <trkpt lat="50.8493" lon="3.3387">
        <ele>13.4</ele>
        <time>2023-10-28T06:34:57Z</time>
      </trkpt>
      <trkpt lat="50.84915" lon="3.33899">
        <ele>13.4</ele>
        <time>2023-10-28T06:35:01Z</time>
      </trkpt>
      <trkpt lat="50.84891" lon="3.33943">
        <ele>13.2</ele>
        <time>2023-10-28T06:35:07Z</time>
      </trkpt>
      <trkpt lat="50.84888" lon="3.33951">
        <ele>13.2</ele>
        <time>2023-10-28T06:35:08Z</time>
      </trkpt>
      <trkpt lat="50.84862" lon="3.34007">
        <ele>12.4</ele>
        <time>2023-10-28T06:35:15Z</time>
      </trkpt>
      <trkpt lat="50.84837" lon="3.34064">
        <ele>12.4</ele>
        <time>2023-10-28T06:35:22Z</time>
      </trkpt>
      <trkpt lat="50.84814" lon="3.34122">
        <ele>12.4</ele>
        <time>2023-10-28T06:35:29Z</time>
      </trkpt>
      <trkpt lat="50.84811" lon="3.3413">
        <ele>12.4</ele>
        <time>2023-10-28T06:35:30Z</time>
      </trkpt>
      <trkpt lat="50.84804" lon="3.34147">
        <ele>12.4</ele>
        <time>2023-10-28T06:35:32Z</time>
      </trkpt>
      <trkpt lat="50.84801" lon="3.34156">
        <ele>12.4</ele>
        <time>2023-10-28T06:35:33Z</time>
      </trkpt>
      <trkpt lat="50.84798" lon="3.34164">
        <ele>12.2</ele>
        <time>2023-10-28T06:35:34Z</time>
      </trkpt>
      <trkpt lat="50.84795" lon="3.34172">
        <ele>12</ele>
        <time>2023-10-28T06:35:35Z</time>
      </trkpt>
      <trkpt lat="50.84788" lon="3.34188">
        <ele>11.6</ele>
        <time>2023-10-28T06:35:37Z</time>
      </trkpt>
      <trkpt lat="50.84785" lon="3.34196">
        <ele>11.4</ele>
        <time>2023-10-28T06:35:38Z</time>
      </trkpt>
      <trkpt lat="50.84783" lon="3.34203">
        <ele>11.4</ele>
        <time>2023-10-28T06:35:39Z</time>
      </trkpt>
      <trkpt lat="50.8478" lon="3.3421">
        <ele>11.2</ele>
        <time>2023-10-28T06:35:40Z</time>
      </trkpt>
      <trkpt lat="50.84777" lon="3.34214">
        <ele>11.2</ele>
        <time>2023-10-28T06:35:41Z</time>
      </trkpt>
      <trkpt lat="50.84772" lon="3.34216">
        <ele>11</ele>
        <time>2023-10-28T06:35:42Z</time>
      </trkpt>
      <trkpt lat="50.84767" lon="3.34216">
        <ele>11</ele>
        <time>2023-10-28T06:35:43Z</time>
      </trkpt>
      <trkpt lat="50.84762" lon="3.34213">
        <ele>10.8</ele>
        <time>2023-10-28T06:35:44Z</time>
      </trkpt>
      <trkpt lat="50.84752" lon="3.34207">
        <ele>10.8</ele>
        <time>2023-10-28T06:35:46Z</time>
      </trkpt>
      <trkpt lat="50.84747" lon="3.34206">
        <ele>10.8</ele>
        <time>2023-10-28T06:35:47Z</time>
      </trkpt>
      <trkpt lat="50.84741" lon="3.34205">
        <ele>10.8</ele>
        <time>2023-10-28T06:35:48Z</time>
      </trkpt>
      <trkpt lat="50.84736" lon="3.34206">
        <ele>10.8</ele>
        <time>2023-10-28T06:35:49Z</time>
      </trkpt>
      <trkpt lat="50.8473" lon="3.34207">
        <ele>10.8</ele>
        <time>2023-10-28T06:35:50Z</time>
      </trkpt>
      <trkpt lat="50.84702" lon="3.34215">
        <ele>10.6</ele>
        <time>2023-10-28T06:35:55Z</time>
      </trkpt>
      <trkpt lat="50.84674" lon="3.34223">
        <ele>10.6</ele>
        <time>2023-10-28T06:36:00Z</time>
      </trkpt>
      <trkpt lat="50.84657" lon="3.34228">
        <ele>10.6</ele>
        <time>2023-10-28T06:36:03Z</time>
      </trkpt>
      <trkpt lat="50.84652" lon="3.3423">
        <ele>10.6</ele>
        <time>2023-10-28T06:36:04Z</time>
      </trkpt>
      <trkpt lat="50.84647" lon="3.34232">
        <ele>10.4</ele>
        <time>2023-10-28T06:36:05Z</time>
      </trkpt>
      <trkpt lat="50.84643" lon="3.34232">
        <ele>10.2</ele>
        <time>2023-10-28T06:36:06Z</time>
      </trkpt>
      <trkpt lat="50.84639" lon="3.34231">
        <ele>10</ele>
        <time>2023-10-28T06:36:07Z</time>
      </trkpt>
      <trkpt lat="50.84636" lon="3.34227">
        <ele>10</ele>
        <time>2023-10-28T06:36:08Z</time>
      </trkpt>
      <trkpt lat="50.84634" lon="3.34222">
        <ele>10</ele>
        <time>2023-10-28T06:36:09Z</time>
      </trkpt>
      <trkpt lat="50.84633" lon="3.34217">
        <ele>10</ele>
        <time>2023-10-28T06:36:10Z</time>
      </trkpt>
      <trkpt lat="50.84631" lon="3.34204">
        <ele>10</ele>
        <time>2023-10-28T06:36:12Z</time>
      </trkpt>
      <trkpt lat="50.8463" lon="3.34197">
        <ele>10</ele>
        <time>2023-10-28T06:36:13Z</time>
      </trkpt>
      <trkpt lat="50.84623" lon="3.34156">
        <ele>10</ele>
        <time>2023-10-28T06:36:18Z</time>
      </trkpt>
      <trkpt lat="50.84619" lon="3.34139">
        <ele>10.2</ele>
        <time>2023-10-28T06:36:20Z</time>
      </trkpt>
      <trkpt lat="50.84615" lon="3.34113">
        <ele>10.2</ele>
        <time>2023-10-28T06:36:23Z</time>
      </trkpt>
      <trkpt lat="50.84613" lon="3.34104">
        <ele>10.2</ele>
        <time>2023-10-28T06:36:24Z</time>
      </trkpt>
      <trkpt lat="50.8461" lon="3.34078">
        <ele>10.2</ele>
        <time>2023-10-28T06:36:27Z</time>
      </trkpt>
      <trkpt lat="50.84606" lon="3.3405">
        <ele>10.2</ele>
        <time>2023-10-28T06:36:30Z</time>
      </trkpt>
      <trkpt lat="50.84598" lon="3.34004">
        <ele>9.8</ele>
        <time>2023-10-28T06:36:35Z</time>
      </trkpt>
      <trkpt lat="50.84593" lon="3.33976">
        <ele>9.6</ele>
        <time>2023-10-28T06:36:38Z</time>
      </trkpt>
      <trkpt lat="50.84582" lon="3.33924">
        <ele>9.6</ele>
        <time>2023-10-28T06:36:44Z</time>
      </trkpt>
      <trkpt lat="50.8458" lon="3.33916">
        <ele>9.6</ele>
        <time>2023-10-28T06:36:45Z</time>
      </trkpt>
      <trkpt lat="50.84574" lon="3.33898">
        <ele>9.6</ele>
        <time>2023-10-28T06:36:47Z</time>
      </trkpt>
      <trkpt lat="50.84562" lon="3.33855">
        <ele>9.6</ele>
        <time>2023-10-28T06:36:52Z</time>
      </trkpt>
      <trkpt lat="50.84535" lon="3.33775">
        <ele>9.6</ele>
        <time>2023-10-28T06:37:01Z</time>
      </trkpt>
      <trkpt lat="50.84502" lon="3.33701">
        <ele>9.6</ele>
        <time>2023-10-28T06:37:10Z</time>
      </trkpt>
      <trkpt lat="50.84494" lon="3.33689">
        <ele>9.6</ele>
        <time>2023-10-28T06:37:12Z</time>
      </trkpt>
      <trkpt lat="50.8449" lon="3.33683">
        <ele>9.6</ele>
        <time>2023-10-28T06:37:13Z</time>
      </trkpt>
      <trkpt lat="50.84485" lon="3.33676">
        <ele>9.6</ele>
        <time>2023-10-28T06:37:14Z</time>
      </trkpt>
      <trkpt lat="50.84481" lon="3.3367">
        <ele>9.6</ele>
        <time>2023-10-28T06:37:15Z</time>
      </trkpt>
      <trkpt lat="50.84476" lon="3.33664">
        <ele>9.6</ele>
        <time>2023-10-28T06:37:16Z</time>
      </trkpt>
      <trkpt lat="50.84472" lon="3.33658">
        <ele>9.6</ele>
        <time>2023-10-28T06:37:17Z</time>
      </trkpt>
      <trkpt lat="50.8444" lon="3.33615">
        <ele>9.6</ele>
        <time>2023-10-28T06:37:24Z</time>
      </trkpt>
      <trkpt lat="50.84416" lon="3.3359">
        <ele>9.8</ele>
        <time>2023-10-28T06:37:29Z</time>
      </trkpt>
      <trkpt lat="50.84412" lon="3.33584">
        <ele>9.8</ele>
        <time>2023-10-28T06:37:30Z</time>
      </trkpt>
      <trkpt lat="50.84408" lon="3.33579">
        <ele>10</ele>
        <time>2023-10-28T06:37:31Z</time>
      </trkpt>
      <trkpt lat="50.84403" lon="3.33574">
        <ele>10</ele>
        <time>2023-10-28T06:37:32Z</time>
      </trkpt>
      <trkpt lat="50.84399" lon="3.33568">
        <ele>10</ele>
        <time>2023-10-28T06:37:33Z</time>
      </trkpt>
      <trkpt lat="50.84394" lon="3.33562">
        <ele>10</ele>
        <time>2023-10-28T06:37:34Z</time>
      </trkpt>
      <trkpt lat="50.84391" lon="3.33558">
        <ele>10</ele>
        <time>2023-10-28T06:37:35Z</time>
      </trkpt>
      <trkpt lat="50.84387" lon="3.33553">
        <ele>10</ele>
        <time>2023-10-28T06:37:36Z</time>
      </trkpt>
      <trkpt lat="50.84383" lon="3.33551">
        <ele>10</ele>
        <time>2023-10-28T06:37:37Z</time>
      </trkpt>
      <trkpt lat="50.8438" lon="3.33553">
        <ele>10</ele>
        <time>2023-10-28T06:37:38Z</time>
      </trkpt>
      <trkpt lat="50.84376" lon="3.33555">
        <ele>10</ele>
        <time>2023-10-28T06:37:39Z</time>
      </trkpt>
      <trkpt lat="50.84371" lon="3.33558">
        <ele>10.2</ele>
        <time>2023-10-28T06:37:40Z</time>
      </trkpt>
      <trkpt lat="50.84363" lon="3.3356">
        <ele>10.2</ele>
        <time>2023-10-28T06:37:42Z</time>
      </trkpt>
      <trkpt lat="50.84351" lon="3.3356">
        <ele>10.2</ele>
        <time>2023-10-28T06:37:44Z</time>
      </trkpt>
      <trkpt lat="50.84346" lon="3.33559">
        <ele>10.2</ele>
        <time>2023-10-28T06:37:45Z</time>
      </trkpt>
      <trkpt lat="50.84339" lon="3.33557">
        <ele>10.2</ele>
        <time>2023-10-28T06:37:46Z</time>
      </trkpt>
      <trkpt lat="50.8433" lon="3.33552">
        <ele>10.2</ele>
        <time>2023-10-28T06:37:48Z</time>
      </trkpt>
      <trkpt lat="50.84324" lon="3.3355">
        <ele>10.2</ele>
        <time>2023-10-28T06:37:49Z</time>
      </trkpt>
      <trkpt lat="50.84319" lon="3.3355">
        <ele>10.2</ele>
        <time>2023-10-28T06:37:50Z</time>
      </trkpt>
      <trkpt lat="50.84308" lon="3.33549">
        <ele>10.2</ele>
        <time>2023-10-28T06:37:52Z</time>
      </trkpt>
      <trkpt lat="50.84296" lon="3.33553">
        <ele>10.2</ele>
        <time>2023-10-28T06:37:54Z</time>
      </trkpt>
      <trkpt lat="50.84291" lon="3.33558">
        <ele>10.2</ele>
        <time>2023-10-28T06:37:55Z</time>
      </trkpt>
      <trkpt lat="50.84287" lon="3.33564">
        <ele>10.2</ele>
        <time>2023-10-28T06:37:56Z</time>
      </trkpt>
      <trkpt lat="50.84283" lon="3.33569">
        <ele>10</ele>
        <time>2023-10-28T06:37:57Z</time>
      </trkpt>
      <trkpt lat="50.84279" lon="3.33575">
        <ele>10</ele>
        <time>2023-10-28T06:37:58Z</time>
      </trkpt>
      <trkpt lat="50.84261" lon="3.33607">
        <ele>10</ele>
        <time>2023-10-28T06:38:03Z</time>
      </trkpt>
      <trkpt lat="50.84252" lon="3.33619">
        <ele>10</ele>
        <time>2023-10-28T06:38:05Z</time>
      </trkpt>
      <trkpt lat="50.84244" lon="3.33628">
        <ele>10</ele>
        <time>2023-10-28T06:38:07Z</time>
      </trkpt>
      <trkpt lat="50.8424" lon="3.33633">
        <ele>10</ele>
        <time>2023-10-28T06:38:08Z</time>
      </trkpt>
      <trkpt lat="50.84236" lon="3.33638">
        <ele>9.8</ele>
        <time>2023-10-28T06:38:09Z</time>
      </trkpt>
      <trkpt lat="50.8423" lon="3.33643">
        <ele>9.8</ele>
        <time>2023-10-28T06:38:10Z</time>
      </trkpt>
      <trkpt lat="50.84225" lon="3.33647">
        <ele>9.8</ele>
        <time>2023-10-28T06:38:11Z</time>
      </trkpt>
      <trkpt lat="50.84221" lon="3.33652">
        <ele>10</ele>
        <time>2023-10-28T06:38:12Z</time>
      </trkpt>
      <trkpt lat="50.84216" lon="3.33657">
        <ele>9.8</ele>
        <time>2023-10-28T06:38:13Z</time>
      </trkpt>
      <trkpt lat="50.84201" lon="3.33673">
        <ele>10</ele>
        <time>2023-10-28T06:38:16Z</time>
      </trkpt>
      <trkpt lat="50.84197" lon="3.33678">
        <ele>10</ele>
        <time>2023-10-28T06:38:17Z</time>
      </trkpt>
      <trkpt lat="50.84194" lon="3.33684">
        <ele>10</ele>
        <time>2023-10-28T06:38:18Z</time>
      </trkpt>
      <trkpt lat="50.84188" lon="3.33687">
        <ele>10</ele>
        <time>2023-10-28T06:38:19Z</time>
      </trkpt>
      <trkpt lat="50.84184" lon="3.33689">
        <ele>10</ele>
        <time>2023-10-28T06:38:20Z</time>
      </trkpt>
      <trkpt lat="50.84179" lon="3.33691">
        <ele>10</ele>
        <time>2023-10-28T06:38:21Z</time>
      </trkpt>
      <trkpt lat="50.84175" lon="3.33692">
        <ele>10</ele>
        <time>2023-10-28T06:38:22Z</time>
      </trkpt>
      <trkpt lat="50.84168" lon="3.33694">
        <ele>10</ele>
        <time>2023-10-28T06:38:23Z</time>
      </trkpt>
      <trkpt lat="50.84163" lon="3.33696">
        <ele>10</ele>
        <time>2023-10-28T06:38:24Z</time>
      </trkpt>
      <trkpt lat="50.84159" lon="3.33699">
        <ele>9.8</ele>
        <time>2023-10-28T06:38:25Z</time>
      </trkpt>
      <trkpt lat="50.84156" lon="3.33703">
        <ele>9.8</ele>
        <time>2023-10-28T06:38:26Z</time>
      </trkpt>
      <trkpt lat="50.84155" lon="3.33708">
        <ele>9.8</ele>
        <time>2023-10-28T06:38:27Z</time>
      </trkpt>
      <trkpt lat="50.84153" lon="3.33715">
        <ele>9.8</ele>
        <time>2023-10-28T06:38:28Z</time>
      </trkpt>
      <trkpt lat="50.84151" lon="3.33722">
        <ele>9.8</ele>
        <time>2023-10-28T06:38:29Z</time>
      </trkpt>
      <trkpt lat="50.84148" lon="3.33729">
        <ele>9.8</ele>
        <time>2023-10-28T06:38:30Z</time>
      </trkpt>
      <trkpt lat="50.84141" lon="3.33745">
        <ele>9.8</ele>
        <time>2023-10-28T06:38:33Z</time>
      </trkpt>
      <trkpt lat="50.84135" lon="3.33759">
        <ele>9.8</ele>
        <time>2023-10-28T06:38:35Z</time>
      </trkpt>
      <trkpt lat="50.84133" lon="3.33764">
        <ele>9.8</ele>
        <time>2023-10-28T06:38:36Z</time>
      </trkpt>
      <trkpt lat="50.84131" lon="3.3377">
        <ele>9.8</ele>
        <time>2023-10-28T06:38:37Z</time>
      </trkpt>
      <trkpt lat="50.84107" lon="3.33821">
        <ele>10</ele>
        <time>2023-10-28T06:38:45Z</time>
      </trkpt>
      <trkpt lat="50.84102" lon="3.33834">
        <ele>10</ele>
        <time>2023-10-28T06:38:47Z</time>
      </trkpt>
      <trkpt lat="50.84096" lon="3.33847">
        <ele>10</ele>
        <time>2023-10-28T06:38:49Z</time>
      </trkpt>
      <trkpt lat="50.84093" lon="3.33853">
        <ele>10</ele>
        <time>2023-10-28T06:38:50Z</time>
      </trkpt>
      <trkpt lat="50.84091" lon="3.33859">
        <ele>10</ele>
        <time>2023-10-28T06:38:51Z</time>
      </trkpt>
      <trkpt lat="50.84087" lon="3.33866">
        <ele>10</ele>
        <time>2023-10-28T06:38:52Z</time>
      </trkpt>
      <trkpt lat="50.84085" lon="3.33872">
        <ele>10</ele>
        <time>2023-10-28T06:38:53Z</time>
      </trkpt>
      <trkpt lat="50.84081" lon="3.33884">
        <ele>10</ele>
        <time>2023-10-28T06:38:55Z</time>
      </trkpt>
      <trkpt lat="50.84078" lon="3.33889">
        <ele>10</ele>
        <time>2023-10-28T06:38:56Z</time>
      </trkpt>
      <trkpt lat="50.84075" lon="3.33896">
        <ele>10</ele>
        <time>2023-10-28T06:38:57Z</time>
      </trkpt>
      <trkpt lat="50.84071" lon="3.33901">
        <ele>10</ele>
        <time>2023-10-28T06:38:58Z</time>
      </trkpt>
      <trkpt lat="50.84068" lon="3.33906">
        <ele>10</ele>
        <time>2023-10-28T06:38:59Z</time>
      </trkpt>
      <trkpt lat="50.84064" lon="3.33918">
        <ele>10</ele>
        <time>2023-10-28T06:39:01Z</time>
      </trkpt>
      <trkpt lat="50.84056" lon="3.33938">
        <ele>10.2</ele>
        <time>2023-10-28T06:39:04Z</time>
      </trkpt>
      <trkpt lat="50.8405" lon="3.33951">
        <ele>10.2</ele>
        <time>2023-10-28T06:39:06Z</time>
      </trkpt>
      <trkpt lat="50.84044" lon="3.33964">
        <ele>10.2</ele>
        <time>2023-10-28T06:39:08Z</time>
      </trkpt>
      <trkpt lat="50.8404" lon="3.33981">
        <ele>10.2</ele>
        <time>2023-10-28T06:39:10Z</time>
      </trkpt>
      <trkpt lat="50.84032" lon="3.34002">
        <ele>10.2</ele>
        <time>2023-10-28T06:39:13Z</time>
      </trkpt>
      <trkpt lat="50.8402" lon="3.3403">
        <ele>10.2</ele>
        <time>2023-10-28T06:39:17Z</time>
      </trkpt>
      <trkpt lat="50.84011" lon="3.34051">
        <ele>10</ele>
        <time>2023-10-28T06:39:20Z</time>
      </trkpt>
      <trkpt lat="50.84" lon="3.34079">
        <ele>10</ele>
        <time>2023-10-28T06:39:24Z</time>
      </trkpt>
      <trkpt lat="50.83994" lon="3.34092">
        <ele>10</ele>
        <time>2023-10-28T06:39:26Z</time>
      </trkpt>
      <trkpt lat="50.8398" lon="3.34123">
        <ele>9.8</ele>
        <time>2023-10-28T06:39:31Z</time>
      </trkpt>
      <trkpt lat="50.83978" lon="3.34128">
        <ele>9.8</ele>
        <time>2023-10-28T06:39:32Z</time>
      </trkpt>
      <trkpt lat="50.83976" lon="3.34133">
        <ele>9.8</ele>
        <time>2023-10-28T06:39:33Z</time>
      </trkpt>
      <trkpt lat="50.83974" lon="3.34138">
        <ele>9.8</ele>
        <time>2023-10-28T06:39:34Z</time>
      </trkpt>
      <trkpt lat="50.83971" lon="3.34143">
        <ele>9.8</ele>
        <time>2023-10-28T06:39:35Z</time>
      </trkpt>
      <trkpt lat="50.83968" lon="3.34147">
        <ele>9.8</ele>
        <time>2023-10-28T06:39:36Z</time>
      </trkpt>
      <trkpt lat="50.83966" lon="3.34151">
        <ele>10</ele>
        <time>2023-10-28T06:39:37Z</time>
      </trkpt>
      <trkpt lat="50.83964" lon="3.34154">
        <ele>10.2</ele>
        <time>2023-10-28T06:39:38Z</time>
      </trkpt>
      <trkpt lat="50.83962" lon="3.34158">
        <ele>10.2</ele>
        <time>2023-10-28T06:39:39Z</time>
      </trkpt>
      <trkpt lat="50.83959" lon="3.3416">
        <ele>10.2</ele>
        <time>2023-10-28T06:39:40Z</time>
      </trkpt>
      <trkpt lat="50.83957" lon="3.34163">
        <ele>10.4</ele>
        <time>2023-10-28T06:39:41Z</time>
      </trkpt>
      <trkpt lat="50.83936" lon="3.34171">
        <ele>10.4</ele>
        <time>2023-10-28T06:39:47Z</time>
      </trkpt>
      <trkpt lat="50.83927" lon="3.34173">
        <ele>10.4</ele>
        <time>2023-10-28T06:39:49Z</time>
      </trkpt>
      <trkpt lat="50.83911" lon="3.34179">
        <ele>10.2</ele>
        <time>2023-10-28T06:39:53Z</time>
      </trkpt>
      <trkpt lat="50.83895" lon="3.34186">
        <ele>9.4</ele>
        <time>2023-10-28T06:39:57Z</time>
      </trkpt>
      <trkpt lat="50.83887" lon="3.3419">
        <ele>9.2</ele>
        <time>2023-10-28T06:39:59Z</time>
      </trkpt>
      <trkpt lat="50.83878" lon="3.34194">
        <ele>9</ele>
        <time>2023-10-28T06:40:01Z</time>
      </trkpt>
      <trkpt lat="50.83845" lon="3.34205">
        <ele>8.8</ele>
        <time>2023-10-28T06:40:08Z</time>
      </trkpt>
      <trkpt lat="50.83841" lon="3.34206">
        <ele>8.8</ele>
        <time>2023-10-28T06:40:09Z</time>
      </trkpt>
      <trkpt lat="50.83837" lon="3.34207">
        <ele>8.8</ele>
        <time>2023-10-28T06:40:10Z</time>
      </trkpt>
      <trkpt lat="50.83833" lon="3.34208">
        <ele>8.8</ele>
        <time>2023-10-28T06:40:11Z</time>
      </trkpt>
      <trkpt lat="50.83829" lon="3.3421">
        <ele>9</ele>
        <time>2023-10-28T06:40:12Z</time>
      </trkpt>
      <trkpt lat="50.83826" lon="3.34212">
        <ele>9</ele>
        <time>2023-10-28T06:40:13Z</time>
      </trkpt>
      <trkpt lat="50.83818" lon="3.34217">
        <ele>9.2</ele>
        <time>2023-10-28T06:40:15Z</time>
      </trkpt>
      <trkpt lat="50.83815" lon="3.34218">
        <ele>9.2</ele>
        <time>2023-10-28T06:40:16Z</time>
      </trkpt>
      <trkpt lat="50.83811" lon="3.34219">
        <ele>9.2</ele>
        <time>2023-10-28T06:40:17Z</time>
      </trkpt>
      <trkpt lat="50.83808" lon="3.34218">
        <ele>9.4</ele>
        <time>2023-10-28T06:40:18Z</time>
      </trkpt>
      <trkpt lat="50.83805" lon="3.34216">
        <ele>9.6</ele>
        <time>2023-10-28T06:40:19Z</time>
      </trkpt>
      <trkpt lat="50.83802" lon="3.34211">
        <ele>9.6</ele>
        <time>2023-10-28T06:40:20Z</time>
      </trkpt>
      <trkpt lat="50.838" lon="3.34206">
        <ele>9.8</ele>
        <time>2023-10-28T06:40:21Z</time>
      </trkpt>
      <trkpt lat="50.83797" lon="3.342">
        <ele>9.8</ele>
        <time>2023-10-28T06:40:22Z</time>
      </trkpt>
      <trkpt lat="50.83795" lon="3.34194">
        <ele>9.8</ele>
        <time>2023-10-28T06:40:23Z</time>
      </trkpt>
      <trkpt lat="50.83782" lon="3.34162">
        <ele>10.2</ele>
        <time>2023-10-28T06:40:28Z</time>
      </trkpt>
      <trkpt lat="50.83756" lon="3.34098">
        <ele>10</ele>
        <time>2023-10-28T06:40:38Z</time>
      </trkpt>
      <trkpt lat="50.83754" lon="3.34091">
        <ele>10</ele>
        <time>2023-10-28T06:40:39Z</time>
      </trkpt>
      <trkpt lat="50.83731" lon="3.3404">
        <ele>9.8</ele>
        <time>2023-10-28T06:40:47Z</time>
      </trkpt>
      <trkpt lat="50.83702" lon="3.3397">
        <ele>9.4</ele>
        <time>2023-10-28T06:40:57Z</time>
      </trkpt>
      <trkpt lat="50.83671" lon="3.33897">
        <ele>9.6</ele>
        <time>2023-10-28T06:41:07Z</time>
      </trkpt>
      <trkpt lat="50.8364" lon="3.33825">
        <ele>9.2</ele>
        <time>2023-10-28T06:41:17Z</time>
      </trkpt>
      <trkpt lat="50.83637" lon="3.33818">
        <ele>9</ele>
        <time>2023-10-28T06:41:18Z</time>
      </trkpt>
      <trkpt lat="50.83634" lon="3.33812">
        <ele>9</ele>
        <time>2023-10-28T06:41:19Z</time>
      </trkpt>
      <trkpt lat="50.83631" lon="3.33804">
        <ele>9</ele>
        <time>2023-10-28T06:41:20Z</time>
      </trkpt>
      <trkpt lat="50.83619" lon="3.33756">
        <ele>9</ele>
        <time>2023-10-28T06:41:26Z</time>
      </trkpt>
      <trkpt lat="50.83614" lon="3.33702">
        <ele>9.2</ele>
        <time>2023-10-28T06:41:32Z</time>
      </trkpt>
      <trkpt lat="50.83612" lon="3.33633">
        <ele>9.8</ele>
        <time>2023-10-28T06:41:40Z</time>
      </trkpt>
      <trkpt lat="50.8361" lon="3.33625">
        <ele>10</ele>
        <time>2023-10-28T06:41:41Z</time>
      </trkpt>
      <trkpt lat="50.83609" lon="3.33615">
        <ele>10</ele>
        <time>2023-10-28T06:41:42Z</time>
      </trkpt>
      <trkpt lat="50.83605" lon="3.33599">
        <ele>10.2</ele>
        <time>2023-10-28T06:41:44Z</time>
      </trkpt>
      <trkpt lat="50.83603" lon="3.33593">
        <ele>10.2</ele>
        <time>2023-10-28T06:41:45Z</time>
      </trkpt>
      <trkpt lat="50.836" lon="3.33586">
        <ele>10.2</ele>
        <time>2023-10-28T06:41:46Z</time>
      </trkpt>
      <trkpt lat="50.83597" lon="3.33578">
        <ele>10.2</ele>
        <time>2023-10-28T06:41:47Z</time>
      </trkpt>
      <trkpt lat="50.83594" lon="3.33573">
        <ele>10.2</ele>
        <time>2023-10-28T06:41:48Z</time>
      </trkpt>
      <trkpt lat="50.83593" lon="3.33569">
        <ele>10.2</ele>
        <time>2023-10-28T06:41:49Z</time>
      </trkpt>
      <trkpt lat="50.83591" lon="3.33564">
        <ele>10.2</ele>
        <time>2023-10-28T06:41:50Z</time>
      </trkpt>
      <trkpt lat="50.83591" lon="3.33559">
        <ele>10.2</ele>
        <time>2023-10-28T06:41:51Z</time>
      </trkpt>
      <trkpt lat="50.83591" lon="3.33555">
        <ele>10.2</ele>
        <time>2023-10-28T06:41:52Z</time>
      </trkpt>
      <trkpt lat="50.83592" lon="3.3355">
        <ele>10.2</ele>
        <time>2023-10-28T06:41:53Z</time>
      </trkpt>
      <trkpt lat="50.83592" lon="3.33545">
        <ele>10.2</ele>
        <time>2023-10-28T06:41:54Z</time>
      </trkpt>
      <trkpt lat="50.83593" lon="3.33539">
        <ele>10.2</ele>
        <time>2023-10-28T06:41:55Z</time>
      </trkpt>
      <trkpt lat="50.83597" lon="3.3353">
        <ele>10.4</ele>
        <time>2023-10-28T06:41:57Z</time>
      </trkpt>
      <trkpt lat="50.83601" lon="3.33527">
        <ele>10.4</ele>
        <time>2023-10-28T06:41:58Z</time>
      </trkpt>
      <trkpt lat="50.83605" lon="3.33522">
        <ele>10.8</ele>
        <time>2023-10-28T06:41:59Z</time>
      </trkpt>
      <trkpt lat="50.83609" lon="3.33518">
        <ele>11</ele>
        <time>2023-10-28T06:42:00Z</time>
      </trkpt>
      <trkpt lat="50.83613" lon="3.33514">
        <ele>11.2</ele>
        <time>2023-10-28T06:42:01Z</time>
      </trkpt>
      <trkpt lat="50.83617" lon="3.3351">
        <ele>11.2</ele>
        <time>2023-10-28T06:42:02Z</time>
      </trkpt>
      <trkpt lat="50.83632" lon="3.33496">
        <ele>11.2</ele>
        <time>2023-10-28T06:42:05Z</time>
      </trkpt>
      <trkpt lat="50.83655" lon="3.33473">
        <ele>11.2</ele>
        <time>2023-10-28T06:42:10Z</time>
      </trkpt>
      <trkpt lat="50.83683" lon="3.33449">
        <ele>10.4</ele>
        <time>2023-10-28T06:42:16Z</time>
      </trkpt>
      <trkpt lat="50.83691" lon="3.33441">
        <ele>10.4</ele>
        <time>2023-10-28T06:42:18Z</time>
      </trkpt>
      <trkpt lat="50.83701" lon="3.33433">
        <ele>10.4</ele>
        <time>2023-10-28T06:42:20Z</time>
      </trkpt>
      <trkpt lat="50.83728" lon="3.33406">
        <ele>10.2</ele>
        <time>2023-10-28T06:42:26Z</time>
      </trkpt>
      <trkpt lat="50.83731" lon="3.33403">
        <ele>10.2</ele>
        <time>2023-10-28T06:42:27Z</time>
      </trkpt>
      <trkpt lat="50.83735" lon="3.33399">
        <ele>10.2</ele>
        <time>2023-10-28T06:42:28Z</time>
      </trkpt>
      <trkpt lat="50.83747" lon="3.33385">
        <ele>10.2</ele>
        <time>2023-10-28T06:42:31Z</time>
      </trkpt>
      <trkpt lat="50.83749" lon="3.33379">
        <ele>10.2</ele>
        <time>2023-10-28T06:42:32Z</time>
      </trkpt>
      <trkpt lat="50.8375" lon="3.33374">
        <ele>10.2</ele>
        <time>2023-10-28T06:42:33Z</time>
      </trkpt>
      <trkpt lat="50.83751" lon="3.33368">
        <ele>10.2</ele>
        <time>2023-10-28T06:42:34Z</time>
      </trkpt>
      <trkpt lat="50.83752" lon="3.3336">
        <ele>10.2</ele>
        <time>2023-10-28T06:42:35Z</time>
      </trkpt>
      <trkpt lat="50.83751" lon="3.33354">
        <ele>10.2</ele>
        <time>2023-10-28T06:42:36Z</time>
      </trkpt>
      <trkpt lat="50.8375" lon="3.33347">
        <ele>10.2</ele>
        <time>2023-10-28T06:42:37Z</time>
      </trkpt>
      <trkpt lat="50.83748" lon="3.33339">
        <ele>10.2</ele>
        <time>2023-10-28T06:42:38Z</time>
      </trkpt>
      <trkpt lat="50.83746" lon="3.33332">
        <ele>10.2</ele>
        <time>2023-10-28T06:42:39Z</time>
      </trkpt>
      <trkpt lat="50.83744" lon="3.33322">
        <ele>10.2</ele>
        <time>2023-10-28T06:42:40Z</time>
      </trkpt>
      <trkpt lat="50.8374" lon="3.33278">
        <ele>10.2</ele>
        <time>2023-10-28T06:42:45Z</time>
      </trkpt>
      <trkpt lat="50.83742" lon="3.33217">
        <ele>10.2</ele>
        <time>2023-10-28T06:42:52Z</time>
      </trkpt>
      <trkpt lat="50.83743" lon="3.33208">
        <ele>10.2</ele>
        <time>2023-10-28T06:42:53Z</time>
      </trkpt>
      <trkpt lat="50.83743" lon="3.332">
        <ele>10.2</ele>
        <time>2023-10-28T06:42:54Z</time>
      </trkpt>
      <trkpt lat="50.83743" lon="3.33192">
        <ele>10</ele>
        <time>2023-10-28T06:42:55Z</time>
      </trkpt>
      <trkpt lat="50.83743" lon="3.33183">
        <ele>10</ele>
        <time>2023-10-28T06:42:56Z</time>
      </trkpt>
      <trkpt lat="50.83742" lon="3.33175">
        <ele>10</ele>
        <time>2023-10-28T06:42:57Z</time>
      </trkpt>
      <trkpt lat="50.83742" lon="3.33167">
        <ele>10</ele>
        <time>2023-10-28T06:42:58Z</time>
      </trkpt>
      <trkpt lat="50.83741" lon="3.33161">
        <ele>10</ele>
        <time>2023-10-28T06:42:59Z</time>
      </trkpt>
      <trkpt lat="50.83741" lon="3.33153">
        <ele>10</ele>
        <time>2023-10-28T06:43:00Z</time>
      </trkpt>
      <trkpt lat="50.83741" lon="3.33143">
        <ele>10</ele>
        <time>2023-10-28T06:43:01Z</time>
      </trkpt>
      <trkpt lat="50.83741" lon="3.33135">
        <ele>10</ele>
        <time>2023-10-28T06:43:02Z</time>
      </trkpt>
      <trkpt lat="50.83741" lon="3.33111">
        <ele>10</ele>
        <time>2023-10-28T06:43:05Z</time>
      </trkpt>
      <trkpt lat="50.83741" lon="3.33095">
        <ele>10</ele>
        <time>2023-10-28T06:43:07Z</time>
      </trkpt>
      <trkpt lat="50.83736" lon="3.33061">
        <ele>10</ele>
        <time>2023-10-28T06:43:11Z</time>
      </trkpt>
      <trkpt lat="50.83726" lon="3.32993">
        <ele>9.8</ele>
        <time>2023-10-28T06:43:19Z</time>
      </trkpt>
      <trkpt lat="50.83722" lon="3.32968">
        <ele>9.8</ele>
        <time>2023-10-28T06:43:22Z</time>
      </trkpt>
      <trkpt lat="50.83718" lon="3.32944">
        <ele>9.8</ele>
        <time>2023-10-28T06:43:25Z</time>
      </trkpt>
      <trkpt lat="50.83717" lon="3.32936">
        <ele>9.8</ele>
        <time>2023-10-28T06:43:26Z</time>
      </trkpt>
      <trkpt lat="50.83715" lon="3.32929">
        <ele>9.6</ele>
        <time>2023-10-28T06:43:27Z</time>
      </trkpt>
      <trkpt lat="50.83714" lon="3.32921">
        <ele>9.6</ele>
        <time>2023-10-28T06:43:28Z</time>
      </trkpt>
      <trkpt lat="50.83712" lon="3.32914">
        <ele>9.4</ele>
        <time>2023-10-28T06:43:29Z</time>
      </trkpt>
      <trkpt lat="50.83707" lon="3.32903">
        <ele>9.4</ele>
        <time>2023-10-28T06:43:31Z</time>
      </trkpt>
      <trkpt lat="50.83704" lon="3.32896">
        <ele>9.4</ele>
        <time>2023-10-28T06:43:32Z</time>
      </trkpt>
      <trkpt lat="50.83702" lon="3.3289">
        <ele>9.4</ele>
        <time>2023-10-28T06:43:33Z</time>
      </trkpt>
      <trkpt lat="50.837" lon="3.32884">
        <ele>9.4</ele>
        <time>2023-10-28T06:43:34Z</time>
      </trkpt>
      <trkpt lat="50.837" lon="3.3288">
        <ele>9.4</ele>
        <time>2023-10-28T06:43:35Z</time>
      </trkpt>
      <trkpt lat="50.83699" lon="3.32874">
        <ele>9.4</ele>
        <time>2023-10-28T06:43:36Z</time>
      </trkpt>
      <trkpt lat="50.83698" lon="3.32868">
        <ele>9.4</ele>
        <time>2023-10-28T06:43:37Z</time>
      </trkpt>
      <trkpt lat="50.83698" lon="3.32861">
        <ele>9.4</ele>
        <time>2023-10-28T06:43:38Z</time>
      </trkpt>
      <trkpt lat="50.837" lon="3.3285">
        <ele>9.4</ele>
        <time>2023-10-28T06:43:40Z</time>
      </trkpt>
      <trkpt lat="50.83703" lon="3.32844">
        <ele>9.4</ele>
        <time>2023-10-28T06:43:41Z</time>
      </trkpt>
      <trkpt lat="50.83717" lon="3.32836">
        <ele>9.4</ele>
        <time>2023-10-28T06:43:44Z</time>
      </trkpt>
      <trkpt lat="50.83721" lon="3.32835">
        <ele>9.6</ele>
        <time>2023-10-28T06:43:45Z</time>
      </trkpt>
      <trkpt lat="50.83726" lon="3.32833">
        <ele>9.6</ele>
        <time>2023-10-28T06:43:46Z</time>
      </trkpt>
      <trkpt lat="50.83761" lon="3.32819">
        <ele>9.6</ele>
        <time>2023-10-28T06:43:53Z</time>
      </trkpt>
      <trkpt lat="50.83778" lon="3.32812">
        <ele>9.6</ele>
        <time>2023-10-28T06:43:56Z</time>
      </trkpt>
      <trkpt lat="50.83813" lon="3.32797">
        <ele>9.6</ele>
        <time>2023-10-28T06:44:02Z</time>
      </trkpt>
      <trkpt lat="50.83869" lon="3.32769">
        <ele>9.4</ele>
        <time>2023-10-28T06:44:12Z</time>
      </trkpt>
      <trkpt lat="50.83879" lon="3.32762">
        <ele>9.4</ele>
        <time>2023-10-28T06:44:14Z</time>
      </trkpt>
      <trkpt lat="50.83894" lon="3.32748">
        <ele>9.2</ele>
        <time>2023-10-28T06:44:17Z</time>
      </trkpt>
      <trkpt lat="50.83897" lon="3.32744">
        <ele>9.2</ele>
        <time>2023-10-28T06:44:18Z</time>
      </trkpt>
      <trkpt lat="50.83901" lon="3.32739">
        <ele>9.2</ele>
        <time>2023-10-28T06:44:19Z</time>
      </trkpt>
      <trkpt lat="50.83905" lon="3.32733">
        <ele>9.2</ele>
        <time>2023-10-28T06:44:20Z</time>
      </trkpt>
      <trkpt lat="50.83913" lon="3.32724">
        <ele>9</ele>
        <time>2023-10-28T06:44:22Z</time>
      </trkpt>
      <trkpt lat="50.8393" lon="3.32706">
        <ele>9</ele>
        <time>2023-10-28T06:44:26Z</time>
      </trkpt>
      <trkpt lat="50.83933" lon="3.32701">
        <ele>9</ele>
        <time>2023-10-28T06:44:27Z</time>
      </trkpt>
      <trkpt lat="50.83936" lon="3.32698">
        <ele>9</ele>
        <time>2023-10-28T06:44:28Z</time>
      </trkpt>
      <trkpt lat="50.83941" lon="3.32693">
        <ele>9</ele>
        <time>2023-10-28T06:44:29Z</time>
      </trkpt>
      <trkpt lat="50.83944" lon="3.32688">
        <ele>9</ele>
        <time>2023-10-28T06:44:30Z</time>
      </trkpt>
      <trkpt lat="50.83949" lon="3.32683">
        <ele>9</ele>
        <time>2023-10-28T06:44:31Z</time>
      </trkpt>
      <trkpt lat="50.83954" lon="3.32678">
        <ele>9</ele>
        <time>2023-10-28T06:44:32Z</time>
      </trkpt>
      <trkpt lat="50.83968" lon="3.32664">
        <ele>9</ele>
        <time>2023-10-28T06:44:35Z</time>
      </trkpt>
      <trkpt lat="50.83977" lon="3.32655">
        <ele>9</ele>
        <time>2023-10-28T06:44:37Z</time>
      </trkpt>
      <trkpt lat="50.83998" lon="3.32632">
        <ele>9.2</ele>
        <time>2023-10-28T06:44:41Z</time>
      </trkpt>
      <trkpt lat="50.84001" lon="3.32628">
        <ele>9.2</ele>
        <time>2023-10-28T06:44:42Z</time>
      </trkpt>
      <trkpt lat="50.84004" lon="3.32623">
        <ele>9.2</ele>
        <time>2023-10-28T06:44:43Z</time>
      </trkpt>
      <trkpt lat="50.84007" lon="3.32618">
        <ele>9.2</ele>
        <time>2023-10-28T06:44:44Z</time>
      </trkpt>
      <trkpt lat="50.84009" lon="3.32613">
        <ele>9.2</ele>
        <time>2023-10-28T06:44:45Z</time>
      </trkpt>
      <trkpt lat="50.84011" lon="3.32608">
        <ele>9.4</ele>
        <time>2023-10-28T06:44:46Z</time>
      </trkpt>
      <trkpt lat="50.84011" lon="3.32604">
        <ele>9.4</ele>
        <time>2023-10-28T06:44:47Z</time>
      </trkpt>
      <trkpt lat="50.84011" lon="3.326">
        <ele>9.4</ele>
        <time>2023-10-28T06:44:48Z</time>
      </trkpt>
      <trkpt lat="50.84012" lon="3.32595">
        <ele>9.4</ele>
        <time>2023-10-28T06:44:49Z</time>
      </trkpt>
      <trkpt lat="50.84015" lon="3.32587">
        <ele>9.4</ele>
        <time>2023-10-28T06:44:51Z</time>
      </trkpt>
      <trkpt lat="50.84017" lon="3.32584">
        <ele>9.4</ele>
        <time>2023-10-28T06:44:52Z</time>
      </trkpt>
      <trkpt lat="50.84019" lon="3.32582">
        <ele>9.4</ele>
        <time>2023-10-28T06:44:53Z</time>
      </trkpt>
      <trkpt lat="50.8402" lon="3.32579">
        <ele>9.4</ele>
        <time>2023-10-28T06:44:54Z</time>
      </trkpt>
      <trkpt lat="50.84022" lon="3.32578">
        <ele>9.4</ele>
        <time>2023-10-28T06:44:55Z</time>
      </trkpt>
      <trkpt lat="50.8403" lon="3.32568">
        <ele>9.2</ele>
        <time>2023-10-28T06:44:59Z</time>
      </trkpt>
      <trkpt lat="50.84034" lon="3.3256">
        <ele>9.2</ele>
        <time>2023-10-28T06:45:01Z</time>
      </trkpt>
      <trkpt lat="50.84048" lon="3.32542">
        <ele>9.2</ele>
        <time>2023-10-28T06:45:05Z</time>
      </trkpt>
      <trkpt lat="50.84051" lon="3.32537">
        <ele>9</ele>
        <time>2023-10-28T06:45:06Z</time>
      </trkpt>
      <trkpt lat="50.84052" lon="3.32533">
        <ele>9.2</ele>
        <time>2023-10-28T06:45:07Z</time>
      </trkpt>
      <trkpt lat="50.84051" lon="3.32526">
        <ele>9.2</ele>
        <time>2023-10-28T06:45:08Z</time>
      </trkpt>
      <trkpt lat="50.84041" lon="3.32502">
        <ele>9.2</ele>
        <time>2023-10-28T06:45:12Z</time>
      </trkpt>
      <trkpt lat="50.84032" lon="3.32482">
        <ele>9</ele>
        <time>2023-10-28T06:45:15Z</time>
      </trkpt>
      <trkpt lat="50.84028" lon="3.32475">
        <ele>9</ele>
        <time>2023-10-28T06:45:16Z</time>
      </trkpt>
      <trkpt lat="50.84026" lon="3.3247">
        <ele>9</ele>
        <time>2023-10-28T06:45:17Z</time>
      </trkpt>
      <trkpt lat="50.84021" lon="3.32457">
        <ele>8.8</ele>
        <time>2023-10-28T06:45:19Z</time>
      </trkpt>
      <trkpt lat="50.84018" lon="3.3245">
        <ele>8.8</ele>
        <time>2023-10-28T06:45:20Z</time>
      </trkpt>
      <trkpt lat="50.84009" lon="3.32431">
        <ele>8.4</ele>
        <time>2023-10-28T06:45:23Z</time>
      </trkpt>
      <trkpt lat="50.84006" lon="3.32423">
        <ele>8.4</ele>
        <time>2023-10-28T06:45:24Z</time>
      </trkpt>
      <trkpt lat="50.84001" lon="3.3241">
        <ele>8.4</ele>
        <time>2023-10-28T06:45:26Z</time>
      </trkpt>
      <trkpt lat="50.83995" lon="3.32396">
        <ele>8.4</ele>
        <time>2023-10-28T06:45:28Z</time>
      </trkpt>
      <trkpt lat="50.83974" lon="3.32346">
        <ele>8.2</ele>
        <time>2023-10-28T06:45:35Z</time>
      </trkpt>
      <trkpt lat="50.83971" lon="3.32339">
        <ele>8</ele>
        <time>2023-10-28T06:45:36Z</time>
      </trkpt>
      <trkpt lat="50.8397" lon="3.32334">
        <ele>8</ele>
        <time>2023-10-28T06:45:37Z</time>
      </trkpt>
      <trkpt lat="50.83972" lon="3.3233">
        <ele>8</ele>
        <time>2023-10-28T06:45:38Z</time>
      </trkpt>
      <trkpt lat="50.83974" lon="3.32328">
        <ele>8</ele>
        <time>2023-10-28T06:45:39Z</time>
      </trkpt>
      <trkpt lat="50.83977" lon="3.32326">
        <ele>8</ele>
        <time>2023-10-28T06:45:40Z</time>
      </trkpt>
      <trkpt lat="50.83987" lon="3.32315">
        <ele>8.2</ele>
        <time>2023-10-28T06:45:43Z</time>
      </trkpt>
      <trkpt lat="50.84003" lon="3.32293">
        <ele>8.4</ele>
        <time>2023-10-28T06:45:48Z</time>
      </trkpt>
      <trkpt lat="50.84002" lon="3.32275">
        <ele>8.6</ele>
        <time>2023-10-28T06:45:51Z</time>
      </trkpt>
      <trkpt lat="50.83996" lon="3.32262">
        <ele>8.6</ele>
        <time>2023-10-28T06:45:53Z</time>
      </trkpt>
      <trkpt lat="50.83993" lon="3.32255">
        <ele>8.6</ele>
        <time>2023-10-28T06:45:54Z</time>
      </trkpt>
      <trkpt lat="50.83987" lon="3.32241">
        <ele>8.6</ele>
        <time>2023-10-28T06:45:56Z</time>
      </trkpt>
      <trkpt lat="50.83984" lon="3.32234">
        <ele>8.6</ele>
        <time>2023-10-28T06:45:57Z</time>
      </trkpt>
      <trkpt lat="50.83963" lon="3.32186">
        <ele>7.8</ele>
        <time>2023-10-28T06:46:04Z</time>
      </trkpt>
      <trkpt lat="50.83959" lon="3.32178">
        <ele>7.6</ele>
        <time>2023-10-28T06:46:05Z</time>
      </trkpt>
      <trkpt lat="50.83935" lon="3.32124">
        <ele>7.2</ele>
        <time>2023-10-28T06:46:13Z</time>
      </trkpt>
      <trkpt lat="50.83929" lon="3.32111">
        <ele>7.2</ele>
        <time>2023-10-28T06:46:15Z</time>
      </trkpt>
      <trkpt lat="50.83926" lon="3.32104">
        <ele>7.2</ele>
        <time>2023-10-28T06:46:16Z</time>
      </trkpt>
      <trkpt lat="50.83917" lon="3.32084">
        <ele>7.2</ele>
        <time>2023-10-28T06:46:19Z</time>
      </trkpt>
      <trkpt lat="50.83913" lon="3.32076">
        <ele>7.2</ele>
        <time>2023-10-28T06:46:20Z</time>
      </trkpt>
      <trkpt lat="50.8391" lon="3.3207">
        <ele>7.2</ele>
        <time>2023-10-28T06:46:21Z</time>
      </trkpt>
      <trkpt lat="50.83907" lon="3.32064">
        <ele>7.2</ele>
        <time>2023-10-28T06:46:22Z</time>
      </trkpt>
      <trkpt lat="50.83904" lon="3.32058">
        <ele>7.2</ele>
        <time>2023-10-28T06:46:23Z</time>
      </trkpt>
      <trkpt lat="50.83897" lon="3.32051">
        <ele>7.2</ele>
        <time>2023-10-28T06:46:25Z</time>
      </trkpt>
      <trkpt lat="50.83893" lon="3.32051">
        <ele>7.2</ele>
        <time>2023-10-28T06:46:26Z</time>
      </trkpt>
      <trkpt lat="50.83889" lon="3.32053">
        <ele>7.4</ele>
        <time>2023-10-28T06:46:27Z</time>
      </trkpt>
      <trkpt lat="50.83885" lon="3.32054">
        <ele>7.4</ele>
        <time>2023-10-28T06:46:28Z</time>
      </trkpt>
      <trkpt lat="50.8388" lon="3.32057">
        <ele>7.4</ele>
        <time>2023-10-28T06:46:29Z</time>
      </trkpt>
      <trkpt lat="50.83876" lon="3.32059">
        <ele>7.4</ele>
        <time>2023-10-28T06:46:30Z</time>
      </trkpt>
      <trkpt lat="50.83871" lon="3.32062">
        <ele>7.4</ele>
        <time>2023-10-28T06:46:31Z</time>
      </trkpt>
      <trkpt lat="50.83867" lon="3.32064">
        <ele>7.4</ele>
        <time>2023-10-28T06:46:32Z</time>
      </trkpt>
      <trkpt lat="50.83863" lon="3.32066">
        <ele>7.4</ele>
        <time>2023-10-28T06:46:33Z</time>
      </trkpt>
      <trkpt lat="50.83853" lon="3.32065">
        <ele>7.6</ele>
        <time>2023-10-28T06:46:35Z</time>
      </trkpt>
      <trkpt lat="50.8385" lon="3.32061">
        <ele>7.6</ele>
        <time>2023-10-28T06:46:36Z</time>
      </trkpt>
      <trkpt lat="50.83848" lon="3.32057">
        <ele>7.8</ele>
        <time>2023-10-28T06:46:37Z</time>
      </trkpt>
      <trkpt lat="50.83845" lon="3.3205">
        <ele>7.8</ele>
        <time>2023-10-28T06:46:38Z</time>
      </trkpt>
      <trkpt lat="50.83842" lon="3.32044">
        <ele>7.8</ele>
        <time>2023-10-28T06:46:39Z</time>
      </trkpt>
      <trkpt lat="50.8384" lon="3.32038">
        <ele>7.8</ele>
        <time>2023-10-28T06:46:40Z</time>
      </trkpt>
      <trkpt lat="50.83838" lon="3.32034">
        <ele>8</ele>
        <time>2023-10-28T06:46:41Z</time>
      </trkpt>
      <trkpt lat="50.83835" lon="3.32028">
        <ele>8</ele>
        <time>2023-10-28T06:46:42Z</time>
      </trkpt>
      <trkpt lat="50.83832" lon="3.32022">
        <ele>8</ele>
        <time>2023-10-28T06:46:43Z</time>
      </trkpt>
      <trkpt lat="50.83815" lon="3.31989">
        <ele>9</ele>
        <time>2023-10-28T06:46:49Z</time>
      </trkpt>
      <trkpt lat="50.83809" lon="3.31978">
        <ele>9.2</ele>
        <time>2023-10-28T06:46:51Z</time>
      </trkpt>
      <trkpt lat="50.83776" lon="3.31914">
        <ele>9.8</ele>
        <time>2023-10-28T06:47:02Z</time>
      </trkpt>
      <trkpt lat="50.83771" lon="3.31903">
        <ele>9.8</ele>
        <time>2023-10-28T06:47:04Z</time>
      </trkpt>
      <trkpt lat="50.83766" lon="3.31895">
        <ele>9.8</ele>
        <time>2023-10-28T06:47:06Z</time>
      </trkpt>
      <trkpt lat="50.83763" lon="3.31889">
        <ele>10</ele>
        <time>2023-10-28T06:47:07Z</time>
      </trkpt>
      <trkpt lat="50.83761" lon="3.31885">
        <ele>10</ele>
        <time>2023-10-28T06:47:08Z</time>
      </trkpt>
      <trkpt lat="50.83759" lon="3.31881">
        <ele>10</ele>
        <time>2023-10-28T06:47:09Z</time>
      </trkpt>
      <trkpt lat="50.83757" lon="3.31878">
        <ele>10</ele>
        <time>2023-10-28T06:47:10Z</time>
      </trkpt>
      <trkpt lat="50.83751" lon="3.31873">
        <ele>10.2</ele>
        <time>2023-10-28T06:47:12Z</time>
      </trkpt>
      <trkpt lat="50.83748" lon="3.31872">
        <ele>10.2</ele>
        <time>2023-10-28T06:47:13Z</time>
      </trkpt>
      <trkpt lat="50.83746" lon="3.31873">
        <ele>10.2</ele>
        <time>2023-10-28T06:47:14Z</time>
      </trkpt>
      <trkpt lat="50.83745" lon="3.31876">
        <ele>10.4</ele>
        <time>2023-10-28T06:47:15Z</time>
      </trkpt>
      <trkpt lat="50.8374" lon="3.31891">
        <ele>10.6</ele>
        <time>2023-10-28T06:47:18Z</time>
      </trkpt>
      <trkpt lat="50.83738" lon="3.31896">
        <ele>10.6</ele>
        <time>2023-10-28T06:47:19Z</time>
      </trkpt>
      <trkpt lat="50.83723" lon="3.31938">
        <ele>10.8</ele>
        <time>2023-10-28T06:47:26Z</time>
      </trkpt>
      <trkpt lat="50.83708" lon="3.3198">
        <ele>10.4</ele>
        <time>2023-10-28T06:47:33Z</time>
      </trkpt>
      <trkpt lat="50.83706" lon="3.31982">
        <ele>10.4</ele>
        <time>2023-10-28T06:47:34Z</time>
      </trkpt>
      <trkpt lat="50.83702" lon="3.31982">
        <ele>10.4</ele>
        <time>2023-10-28T06:47:35Z</time>
      </trkpt>
      <trkpt lat="50.837" lon="3.3198">
        <ele>10.4</ele>
        <time>2023-10-28T06:47:36Z</time>
      </trkpt>
      <trkpt lat="50.83697" lon="3.31979">
        <ele>10.4</ele>
        <time>2023-10-28T06:47:37Z</time>
      </trkpt>
      <trkpt lat="50.83695" lon="3.31977">
        <ele>10.4</ele>
        <time>2023-10-28T06:47:38Z</time>
      </trkpt>
      <trkpt lat="50.83692" lon="3.31975">
        <ele>10.4</ele>
        <time>2023-10-28T06:47:39Z</time>
      </trkpt>
      <trkpt lat="50.83688" lon="3.31971">
        <ele>10.4</ele>
        <time>2023-10-28T06:47:40Z</time>
      </trkpt>
      <trkpt lat="50.83685" lon="3.31967">
        <ele>10.6</ele>
        <time>2023-10-28T06:47:41Z</time>
      </trkpt>
      <trkpt lat="50.83675" lon="3.31958">
        <ele>10.8</ele>
        <time>2023-10-28T06:47:44Z</time>
      </trkpt>
      <trkpt lat="50.83655" lon="3.3194">
        <ele>11.4</ele>
        <time>2023-10-28T06:47:50Z</time>
      </trkpt>
      <trkpt lat="50.83653" lon="3.31937">
        <ele>11.6</ele>
        <time>2023-10-28T06:47:51Z</time>
      </trkpt>
      <trkpt lat="50.83651" lon="3.31932">
        <ele>11.6</ele>
        <time>2023-10-28T06:47:52Z</time>
      </trkpt>
      <trkpt lat="50.83649" lon="3.31929">
        <ele>11.6</ele>
        <time>2023-10-28T06:47:53Z</time>
      </trkpt>
      <trkpt lat="50.83647" lon="3.31927">
        <ele>11.6</ele>
        <time>2023-10-28T06:47:54Z</time>
      </trkpt>
      <trkpt lat="50.83644" lon="3.31926">
        <ele>11.8</ele>
        <time>2023-10-28T06:47:55Z</time>
      </trkpt>
      <trkpt lat="50.83641" lon="3.31928">
        <ele>11.8</ele>
        <time>2023-10-28T06:47:56Z</time>
      </trkpt>
      <trkpt lat="50.83632" lon="3.31937">
        <ele>12.4</ele>
        <time>2023-10-28T06:47:59Z</time>
      </trkpt>
      <trkpt lat="50.83631" lon="3.31944">
        <ele>12.6</ele>
        <time>2023-10-28T06:48:00Z</time>
      </trkpt>
      <trkpt lat="50.8363" lon="3.3195">
        <ele>12.6</ele>
        <time>2023-10-28T06:48:01Z</time>
      </trkpt>
      <trkpt lat="50.83629" lon="3.31965">
        <ele>12.6</ele>
        <time>2023-10-28T06:48:03Z</time>
      </trkpt>
      <trkpt lat="50.83628" lon="3.31975">
        <ele>12.6</ele>
        <time>2023-10-28T06:48:04Z</time>
      </trkpt>
      <trkpt lat="50.83627" lon="3.31983">
        <ele>12.6</ele>
        <time>2023-10-28T06:48:05Z</time>
      </trkpt>
      <trkpt lat="50.83626" lon="3.31992">
        <ele>12.6</ele>
        <time>2023-10-28T06:48:06Z</time>
      </trkpt>
      <trkpt lat="50.83622" lon="3.32038">
        <ele>12</ele>
        <time>2023-10-28T06:48:12Z</time>
      </trkpt>
      <trkpt lat="50.83621" lon="3.32045">
        <ele>12</ele>
        <time>2023-10-28T06:48:13Z</time>
      </trkpt>
      <trkpt lat="50.83619" lon="3.32051">
        <ele>12</ele>
        <time>2023-10-28T06:48:14Z</time>
      </trkpt>
      <trkpt lat="50.83617" lon="3.32057">
        <ele>12</ele>
        <time>2023-10-28T06:48:15Z</time>
      </trkpt>
      <trkpt lat="50.83614" lon="3.32063">
        <ele>12</ele>
        <time>2023-10-28T06:48:16Z</time>
      </trkpt>
      <trkpt lat="50.83609" lon="3.32079">
        <ele>12</ele>
        <time>2023-10-28T06:48:19Z</time>
      </trkpt>
      <trkpt lat="50.83607" lon="3.32086">
        <ele>12</ele>
        <time>2023-10-28T06:48:20Z</time>
      </trkpt>
      <trkpt lat="50.83604" lon="3.321">
        <ele>12</ele>
        <time>2023-10-28T06:48:22Z</time>
      </trkpt>
      <trkpt lat="50.83597" lon="3.32126">
        <ele>12.4</ele>
        <time>2023-10-28T06:48:26Z</time>
      </trkpt>
      <trkpt lat="50.83594" lon="3.3213">
        <ele>12.4</ele>
        <time>2023-10-28T06:48:27Z</time>
      </trkpt>
      <trkpt lat="50.83591" lon="3.32132">
        <ele>12.4</ele>
        <time>2023-10-28T06:48:28Z</time>
      </trkpt>
      <trkpt lat="50.83586" lon="3.32136">
        <ele>12.4</ele>
        <time>2023-10-28T06:48:29Z</time>
      </trkpt>
      <trkpt lat="50.83582" lon="3.32139">
        <ele>12.4</ele>
        <time>2023-10-28T06:48:30Z</time>
      </trkpt>
      <trkpt lat="50.83577" lon="3.32142">
        <ele>12.4</ele>
        <time>2023-10-28T06:48:31Z</time>
      </trkpt>
      <trkpt lat="50.83566" lon="3.32153">
        <ele>12.4</ele>
        <time>2023-10-28T06:48:34Z</time>
      </trkpt>
      <trkpt lat="50.83538" lon="3.32183">
        <ele>12</ele>
        <time>2023-10-28T06:48:41Z</time>
      </trkpt>
      <trkpt lat="50.83533" lon="3.32188">
        <ele>11.8</ele>
        <time>2023-10-28T06:48:42Z</time>
      </trkpt>
      <trkpt lat="50.8353" lon="3.32191">
        <ele>11.8</ele>
        <time>2023-10-28T06:48:43Z</time>
      </trkpt>
      <trkpt lat="50.83526" lon="3.32194">
        <ele>11.8</ele>
        <time>2023-10-28T06:48:44Z</time>
      </trkpt>
      <trkpt lat="50.83522" lon="3.32198">
        <ele>11.6</ele>
        <time>2023-10-28T06:48:45Z</time>
      </trkpt>
      <trkpt lat="50.83515" lon="3.32204">
        <ele>11.6</ele>
        <time>2023-10-28T06:48:47Z</time>
      </trkpt>
      <trkpt lat="50.8351" lon="3.32208">
        <ele>11.6</ele>
        <time>2023-10-28T06:48:48Z</time>
      </trkpt>
      <trkpt lat="50.83475" lon="3.32242">
        <ele>12</ele>
        <time>2023-10-28T06:48:56Z</time>
      </trkpt>
      <trkpt lat="50.83434" lon="3.32281">
        <ele>12.2</ele>
        <time>2023-10-28T06:49:04Z</time>
      </trkpt>
      <trkpt lat="50.83411" lon="3.32304">
        <ele>11.6</ele>
        <time>2023-10-28T06:49:09Z</time>
      </trkpt>
      <trkpt lat="50.83406" lon="3.32309">
        <ele>11.6</ele>
        <time>2023-10-28T06:49:10Z</time>
      </trkpt>
      <trkpt lat="50.83403" lon="3.32312">
        <ele>11.4</ele>
        <time>2023-10-28T06:49:11Z</time>
      </trkpt>
      <trkpt lat="50.83397" lon="3.32317">
        <ele>11.4</ele>
        <time>2023-10-28T06:49:12Z</time>
      </trkpt>
      <trkpt lat="50.83393" lon="3.32321">
        <ele>11.2</ele>
        <time>2023-10-28T06:49:13Z</time>
      </trkpt>
      <trkpt lat="50.83389" lon="3.32325">
        <ele>11.2</ele>
        <time>2023-10-28T06:49:14Z</time>
      </trkpt>
      <trkpt lat="50.83384" lon="3.32328">
        <ele>11.2</ele>
        <time>2023-10-28T06:49:15Z</time>
      </trkpt>
      <trkpt lat="50.83381" lon="3.3233">
        <ele>11.2</ele>
        <time>2023-10-28T06:49:16Z</time>
      </trkpt>
      <trkpt lat="50.83375" lon="3.32332">
        <ele>11.2</ele>
        <time>2023-10-28T06:49:17Z</time>
      </trkpt>
      <trkpt lat="50.83371" lon="3.32332">
        <ele>11.2</ele>
        <time>2023-10-28T06:49:18Z</time>
      </trkpt>
      <trkpt lat="50.83366" lon="3.32334">
        <ele>11.2</ele>
        <time>2023-10-28T06:49:19Z</time>
      </trkpt>
      <trkpt lat="50.83362" lon="3.32334">
        <ele>11.2</ele>
        <time>2023-10-28T06:49:20Z</time>
      </trkpt>
      <trkpt lat="50.83357" lon="3.32335">
        <ele>11.2</ele>
        <time>2023-10-28T06:49:21Z</time>
      </trkpt>
      <trkpt lat="50.83351" lon="3.32336">
        <ele>11.2</ele>
        <time>2023-10-28T06:49:22Z</time>
      </trkpt>
      <trkpt lat="50.83346" lon="3.32337">
        <ele>11.2</ele>
        <time>2023-10-28T06:49:23Z</time>
      </trkpt>
      <trkpt lat="50.83341" lon="3.32338">
        <ele>11.2</ele>
        <time>2023-10-28T06:49:24Z</time>
      </trkpt>
      <trkpt lat="50.83337" lon="3.3234">
        <ele>11.2</ele>
        <time>2023-10-28T06:49:25Z</time>
      </trkpt>
      <trkpt lat="50.83328" lon="3.32349">
        <ele>11</ele>
        <time>2023-10-28T06:49:27Z</time>
      </trkpt>
      <trkpt lat="50.83324" lon="3.32354">
        <ele>11</ele>
        <time>2023-10-28T06:49:28Z</time>
      </trkpt>
      <trkpt lat="50.83316" lon="3.32361">
        <ele>11</ele>
        <time>2023-10-28T06:49:30Z</time>
      </trkpt>
      <trkpt lat="50.8331" lon="3.32364">
        <ele>11</ele>
        <time>2023-10-28T06:49:31Z</time>
      </trkpt>
      <trkpt lat="50.83305" lon="3.32366">
        <ele>10.6</ele>
        <time>2023-10-28T06:49:32Z</time>
      </trkpt>
      <trkpt lat="50.833" lon="3.32368">
        <ele>10.2</ele>
        <time>2023-10-28T06:49:33Z</time>
      </trkpt>
      <trkpt lat="50.83278" lon="3.32371">
        <ele>9.8</ele>
        <time>2023-10-28T06:49:37Z</time>
      </trkpt>
      <trkpt lat="50.83251" lon="3.3237">
        <ele>9.4</ele>
        <time>2023-10-28T06:49:42Z</time>
      </trkpt>
      <trkpt lat="50.83242" lon="3.3237">
        <ele>9.2</ele>
        <time>2023-10-28T06:49:44Z</time>
      </trkpt>
      <trkpt lat="50.83231" lon="3.32369">
        <ele>9.2</ele>
        <time>2023-10-28T06:49:46Z</time>
      </trkpt>
      <trkpt lat="50.83225" lon="3.32369">
        <ele>9.2</ele>
        <time>2023-10-28T06:49:47Z</time>
      </trkpt>
      <trkpt lat="50.8322" lon="3.32368">
        <ele>9.2</ele>
        <time>2023-10-28T06:49:48Z</time>
      </trkpt>
      <trkpt lat="50.8319" lon="3.32368">
        <ele>8.8</ele>
        <time>2023-10-28T06:49:54Z</time>
      </trkpt>
      <trkpt lat="50.83136" lon="3.32366">
        <ele>8.6</ele>
        <time>2023-10-28T06:50:04Z</time>
      </trkpt>
      <trkpt lat="50.83111" lon="3.32365">
        <ele>8.4</ele>
        <time>2023-10-28T06:50:09Z</time>
      </trkpt>
      <trkpt lat="50.83096" lon="3.32364">
        <ele>8.4</ele>
        <time>2023-10-28T06:50:12Z</time>
      </trkpt>
      <trkpt lat="50.83054" lon="3.32363">
        <ele>8.8</ele>
        <time>2023-10-28T06:50:20Z</time>
      </trkpt>
      <trkpt lat="50.83047" lon="3.32363">
        <ele>8.8</ele>
        <time>2023-10-28T06:50:21Z</time>
      </trkpt>
      <trkpt lat="50.83022" lon="3.32361">
        <ele>9.2</ele>
        <time>2023-10-28T06:50:26Z</time>
      </trkpt>
      <trkpt lat="50.83017" lon="3.32361">
        <ele>9.2</ele>
        <time>2023-10-28T06:50:27Z</time>
      </trkpt>
      <trkpt lat="50.83007" lon="3.32361">
        <ele>9.4</ele>
        <time>2023-10-28T06:50:29Z</time>
      </trkpt>
      <trkpt lat="50.83002" lon="3.32361">
        <ele>9.4</ele>
        <time>2023-10-28T06:50:30Z</time>
      </trkpt>
      <trkpt lat="50.82998" lon="3.32361">
        <ele>9.4</ele>
        <time>2023-10-28T06:50:31Z</time>
      </trkpt>
      <trkpt lat="50.82993" lon="3.32361">
        <ele>9.6</ele>
        <time>2023-10-28T06:50:32Z</time>
      </trkpt>
      <trkpt lat="50.82989" lon="3.3236">
        <ele>9.8</ele>
        <time>2023-10-28T06:50:33Z</time>
      </trkpt>
      <trkpt lat="50.82984" lon="3.3236">
        <ele>10</ele>
        <time>2023-10-28T06:50:34Z</time>
      </trkpt>
      <trkpt lat="50.82979" lon="3.3236">
        <ele>10.4</ele>
        <time>2023-10-28T06:50:35Z</time>
      </trkpt>
      <trkpt lat="50.82976" lon="3.3236">
        <ele>10.4</ele>
        <time>2023-10-28T06:50:36Z</time>
      </trkpt>
      <trkpt lat="50.82972" lon="3.3236">
        <ele>10.6</ele>
        <time>2023-10-28T06:50:37Z</time>
      </trkpt>
      <trkpt lat="50.82968" lon="3.32361">
        <ele>10.6</ele>
        <time>2023-10-28T06:50:38Z</time>
      </trkpt>
      <trkpt lat="50.82965" lon="3.3236">
        <ele>10.8</ele>
        <time>2023-10-28T06:50:39Z</time>
      </trkpt>
      <trkpt lat="50.82961" lon="3.3236">
        <ele>10.8</ele>
        <time>2023-10-28T06:50:40Z</time>
      </trkpt>
      <trkpt lat="50.82942" lon="3.32359">
        <ele>11</ele>
        <time>2023-10-28T06:50:44Z</time>
      </trkpt>
      <trkpt lat="50.82933" lon="3.32359">
        <ele>11.4</ele>
        <time>2023-10-28T06:50:46Z</time>
      </trkpt>
      <trkpt lat="50.82928" lon="3.32358">
        <ele>11.6</ele>
        <time>2023-10-28T06:50:47Z</time>
      </trkpt>
      <trkpt lat="50.82925" lon="3.32355">
        <ele>12.4</ele>
        <time>2023-10-28T06:50:50Z</time>
      </trkpt>
      <trkpt lat="50.82921" lon="3.32356">
        <ele>12.8</ele>
        <time>2023-10-28T06:50:51Z</time>
      </trkpt>
      <trkpt lat="50.82914" lon="3.32356">
        <ele>13</ele>
        <time>2023-10-28T06:50:52Z</time>
      </trkpt>
      <trkpt lat="50.82911" lon="3.32356">
        <ele>13</ele>
        <time>2023-10-28T06:50:53Z</time>
      </trkpt>
      <trkpt lat="50.82906" lon="3.32356">
        <ele>13.2</ele>
        <time>2023-10-28T06:50:54Z</time>
      </trkpt>
      <trkpt lat="50.82902" lon="3.32356">
        <ele>13.4</ele>
        <time>2023-10-28T06:50:55Z</time>
      </trkpt>
      <trkpt lat="50.82897" lon="3.32355">
        <ele>13.8</ele>
        <time>2023-10-28T06:50:56Z</time>
      </trkpt>
      <trkpt lat="50.82891" lon="3.32355">
        <ele>14</ele>
        <time>2023-10-28T06:50:57Z</time>
      </trkpt>
      <trkpt lat="50.82886" lon="3.32355">
        <ele>14.2</ele>
        <time>2023-10-28T06:50:58Z</time>
      </trkpt>
      <trkpt lat="50.82881" lon="3.32355">
        <ele>14.4</ele>
        <time>2023-10-28T06:50:59Z</time>
      </trkpt>
      <trkpt lat="50.82878" lon="3.32355">
        <ele>14.6</ele>
        <time>2023-10-28T06:51:00Z</time>
      </trkpt>
      <trkpt lat="50.82873" lon="3.32355">
        <ele>14.8</ele>
        <time>2023-10-28T06:51:01Z</time>
      </trkpt>
      <trkpt lat="50.82868" lon="3.32354">
        <ele>14.8</ele>
        <time>2023-10-28T06:51:02Z</time>
      </trkpt>
      <trkpt lat="50.82864" lon="3.32354">
        <ele>15</ele>
        <time>2023-10-28T06:51:03Z</time>
      </trkpt>
      <trkpt lat="50.8286" lon="3.32353">
        <ele>15</ele>
        <time>2023-10-28T06:51:04Z</time>
      </trkpt>
      <trkpt lat="50.82858" lon="3.3235">
        <ele>15</ele>
        <time>2023-10-28T06:51:05Z</time>
      </trkpt>
      <trkpt lat="50.82858" lon="3.32346">
        <ele>15.2</ele>
        <time>2023-10-28T06:51:06Z</time>
      </trkpt>
      <trkpt lat="50.82858" lon="3.3234">
        <ele>15.2</ele>
        <time>2023-10-28T06:51:07Z</time>
      </trkpt>
      <trkpt lat="50.82858" lon="3.32334">
        <ele>15.2</ele>
        <time>2023-10-28T06:51:08Z</time>
      </trkpt>
      <trkpt lat="50.82856" lon="3.32326">
        <ele>15.4</ele>
        <time>2023-10-28T06:51:09Z</time>
      </trkpt>
      <trkpt lat="50.82854" lon="3.32319">
        <ele>15.6</ele>
        <time>2023-10-28T06:51:10Z</time>
      </trkpt>
      <trkpt lat="50.82852" lon="3.32313">
        <ele>15.6</ele>
        <time>2023-10-28T06:51:11Z</time>
      </trkpt>
      <trkpt lat="50.82849" lon="3.32304">
        <ele>15.6</ele>
        <time>2023-10-28T06:51:12Z</time>
      </trkpt>
      <trkpt lat="50.82846" lon="3.32296">
        <ele>15.6</ele>
        <time>2023-10-28T06:51:13Z</time>
      </trkpt>
      <trkpt lat="50.82843" lon="3.32288">
        <ele>15.4</ele>
        <time>2023-10-28T06:51:14Z</time>
      </trkpt>
      <trkpt lat="50.82839" lon="3.3228">
        <ele>15.4</ele>
        <time>2023-10-28T06:51:15Z</time>
      </trkpt>
      <trkpt lat="50.82837" lon="3.32273">
        <ele>15.2</ele>
        <time>2023-10-28T06:51:16Z</time>
      </trkpt>
      <trkpt lat="50.82833" lon="3.32264">
        <ele>15.2</ele>
        <time>2023-10-28T06:51:17Z</time>
      </trkpt>
      <trkpt lat="50.82829" lon="3.32257">
        <ele>15.2</ele>
        <time>2023-10-28T06:51:18Z</time>
      </trkpt>
      <trkpt lat="50.82826" lon="3.32253">
        <ele>15.2</ele>
        <time>2023-10-28T06:51:19Z</time>
      </trkpt>
      <trkpt lat="50.82823" lon="3.32253">
        <ele>15.2</ele>
        <time>2023-10-28T06:51:20Z</time>
      </trkpt>
      <trkpt lat="50.82821" lon="3.32255">
        <ele>14.8</ele>
        <time>2023-10-28T06:51:21Z</time>
      </trkpt>
      <trkpt lat="50.82819" lon="3.32261">
        <ele>14.2</ele>
        <time>2023-10-28T06:51:22Z</time>
      </trkpt>
      <trkpt lat="50.82819" lon="3.32267">
        <ele>13.6</ele>
        <time>2023-10-28T06:51:23Z</time>
      </trkpt>
      <trkpt lat="50.8282" lon="3.32299">
        <ele>12.4</ele>
        <time>2023-10-28T06:51:27Z</time>
      </trkpt>
      <trkpt lat="50.8282" lon="3.32351">
        <ele>11.8</ele>
        <time>2023-10-28T06:51:33Z</time>
      </trkpt>
      <trkpt lat="50.8282" lon="3.32371">
        <ele>11.6</ele>
        <time>2023-10-28T06:51:36Z</time>
      </trkpt>
      <trkpt lat="50.8282" lon="3.3238">
        <ele>11.6</ele>
        <time>2023-10-28T06:51:37Z</time>
      </trkpt>
      <trkpt lat="50.8282" lon="3.32407">
        <ele>11.6</ele>
        <time>2023-10-28T06:51:40Z</time>
      </trkpt>
      <trkpt lat="50.82818" lon="3.32478">
        <ele>11.6</ele>
        <time>2023-10-28T06:51:48Z</time>
      </trkpt>
      <trkpt lat="50.82818" lon="3.32485">
        <ele>11.4</ele>
        <time>2023-10-28T06:51:49Z</time>
      </trkpt>
      <trkpt lat="50.82818" lon="3.3253">
        <ele>11.4</ele>
        <time>2023-10-28T06:51:54Z</time>
      </trkpt>
      <trkpt lat="50.82818" lon="3.32547">
        <ele>11.2</ele>
        <time>2023-10-28T06:51:56Z</time>
      </trkpt>
      <trkpt lat="50.82817" lon="3.32555">
        <ele>11.2</ele>
        <time>2023-10-28T06:51:57Z</time>
      </trkpt>
      <trkpt lat="50.82817" lon="3.32571">
        <ele>11.2</ele>
        <time>2023-10-28T06:51:59Z</time>
      </trkpt>
      <trkpt lat="50.82817" lon="3.32627">
        <ele>11.2</ele>
        <time>2023-10-28T06:52:05Z</time>
      </trkpt>
      <trkpt lat="50.82816" lon="3.32661">
        <ele>11.4</ele>
        <time>2023-10-28T06:52:09Z</time>
      </trkpt>
      <trkpt lat="50.82815" lon="3.32752">
        <ele>11.4</ele>
        <time>2023-10-28T06:52:19Z</time>
      </trkpt>
      <trkpt lat="50.82815" lon="3.32779">
        <ele>11.2</ele>
        <time>2023-10-28T06:52:22Z</time>
      </trkpt>
      <trkpt lat="50.82813" lon="3.32851">
        <ele>11</ele>
        <time>2023-10-28T06:52:30Z</time>
      </trkpt>
      <trkpt lat="50.82812" lon="3.32917">
        <ele>11.2</ele>
        <time>2023-10-28T06:52:37Z</time>
      </trkpt>
      <trkpt lat="50.82811" lon="3.33003">
        <ele>11</ele>
        <time>2023-10-28T06:52:46Z</time>
      </trkpt>
      <trkpt lat="50.82812" lon="3.3301">
        <ele>11</ele>
        <time>2023-10-28T06:52:47Z</time>
      </trkpt>
      <trkpt lat="50.82811" lon="3.33089">
        <ele>10.8</ele>
        <time>2023-10-28T06:52:55Z</time>
      </trkpt>
      <trkpt lat="50.8281" lon="3.33143">
        <ele>10.6</ele>
        <time>2023-10-28T06:53:01Z</time>
      </trkpt>
      <trkpt lat="50.8281" lon="3.33152">
        <ele>10.6</ele>
        <time>2023-10-28T06:53:02Z</time>
      </trkpt>
      <trkpt lat="50.82809" lon="3.33173">
        <ele>10.6</ele>
        <time>2023-10-28T06:53:04Z</time>
      </trkpt>
      <trkpt lat="50.82809" lon="3.33181">
        <ele>10.6</ele>
        <time>2023-10-28T06:53:05Z</time>
      </trkpt>
      <trkpt lat="50.82808" lon="3.33188">
        <ele>10.6</ele>
        <time>2023-10-28T06:53:06Z</time>
      </trkpt>
      <trkpt lat="50.82808" lon="3.33198">
        <ele>10.8</ele>
        <time>2023-10-28T06:53:07Z</time>
      </trkpt>
      <trkpt lat="50.82808" lon="3.33207">
        <ele>10.8</ele>
        <time>2023-10-28T06:53:08Z</time>
      </trkpt>
      <trkpt lat="50.82808" lon="3.33216">
        <ele>10.8</ele>
        <time>2023-10-28T06:53:09Z</time>
      </trkpt>
      <trkpt lat="50.82807" lon="3.33232">
        <ele>10.8</ele>
        <time>2023-10-28T06:53:11Z</time>
      </trkpt>
      <trkpt lat="50.82806" lon="3.33251">
        <ele>10.6</ele>
        <time>2023-10-28T06:53:13Z</time>
      </trkpt>
      <trkpt lat="50.82806" lon="3.33259">
        <ele>10.6</ele>
        <time>2023-10-28T06:53:14Z</time>
      </trkpt>
      <trkpt lat="50.82807" lon="3.33266">
        <ele>10.8</ele>
        <time>2023-10-28T06:53:15Z</time>
      </trkpt>
      <trkpt lat="50.8281" lon="3.33272">
        <ele>10.8</ele>
        <time>2023-10-28T06:53:16Z</time>
      </trkpt>
      <trkpt lat="50.82813" lon="3.33278">
        <ele>10.8</ele>
        <time>2023-10-28T06:53:17Z</time>
      </trkpt>
      <trkpt lat="50.82816" lon="3.33285">
        <ele>10.8</ele>
        <time>2023-10-28T06:53:18Z</time>
      </trkpt>
      <trkpt lat="50.82819" lon="3.33292">
        <ele>10.8</ele>
        <time>2023-10-28T06:53:19Z</time>
      </trkpt>
      <trkpt lat="50.82822" lon="3.333">
        <ele>10.8</ele>
        <time>2023-10-28T06:53:20Z</time>
      </trkpt>
      <trkpt lat="50.8283" lon="3.33323">
        <ele>10.8</ele>
        <time>2023-10-28T06:53:23Z</time>
      </trkpt>
      <trkpt lat="50.82832" lon="3.3333">
        <ele>10.6</ele>
        <time>2023-10-28T06:53:24Z</time>
      </trkpt>
      <trkpt lat="50.82834" lon="3.33335">
        <ele>10.6</ele>
        <time>2023-10-28T06:53:25Z</time>
      </trkpt>
      <trkpt lat="50.82837" lon="3.33342">
        <ele>10.6</ele>
        <time>2023-10-28T06:53:26Z</time>
      </trkpt>
      <trkpt lat="50.82839" lon="3.33347">
        <ele>10.6</ele>
        <time>2023-10-28T06:53:27Z</time>
      </trkpt>
      <trkpt lat="50.82842" lon="3.33352">
        <ele>10.4</ele>
        <time>2023-10-28T06:53:28Z</time>
      </trkpt>
      <trkpt lat="50.82844" lon="3.33358">
        <ele>10.4</ele>
        <time>2023-10-28T06:53:29Z</time>
      </trkpt>
      <trkpt lat="50.82845" lon="3.33364">
        <ele>10.4</ele>
        <time>2023-10-28T06:53:30Z</time>
      </trkpt>
      <trkpt lat="50.82846" lon="3.33371">
        <ele>10.4</ele>
        <time>2023-10-28T06:53:31Z</time>
      </trkpt>
      <trkpt lat="50.82847" lon="3.33378">
        <ele>10.2</ele>
        <time>2023-10-28T06:53:32Z</time>
      </trkpt>
      <trkpt lat="50.82848" lon="3.33384">
        <ele>10.2</ele>
        <time>2023-10-28T06:53:33Z</time>
      </trkpt>
      <trkpt lat="50.82849" lon="3.33389">
        <ele>10.2</ele>
        <time>2023-10-28T06:53:34Z</time>
      </trkpt>
      <trkpt lat="50.8285" lon="3.33393">
        <ele>10.2</ele>
        <time>2023-10-28T06:53:35Z</time>
      </trkpt>
      <trkpt lat="50.82852" lon="3.33398">
        <ele>10</ele>
        <time>2023-10-28T06:53:36Z</time>
      </trkpt>
      <trkpt lat="50.82852" lon="3.33402">
        <ele>10</ele>
        <time>2023-10-28T06:53:37Z</time>
      </trkpt>
      <trkpt lat="50.82852" lon="3.33407">
        <ele>10</ele>
        <time>2023-10-28T06:53:38Z</time>
      </trkpt>
      <trkpt lat="50.82852" lon="3.33411">
        <ele>10</ele>
        <time>2023-10-28T06:53:39Z</time>
      </trkpt>
      <trkpt lat="50.82852" lon="3.33416">
        <ele>10</ele>
        <time>2023-10-28T06:53:40Z</time>
      </trkpt>
      <trkpt lat="50.82855" lon="3.33441">
        <ele>10</ele>
        <time>2023-10-28T06:53:44Z</time>
      </trkpt>
      <trkpt lat="50.82856" lon="3.33449">
        <ele>10</ele>
        <time>2023-10-28T06:53:45Z</time>
      </trkpt>
      <trkpt lat="50.82858" lon="3.33468">
        <ele>10</ele>
        <time>2023-10-28T06:53:48Z</time>
      </trkpt>
      <trkpt lat="50.82858" lon="3.33481">
        <ele>10</ele>
        <time>2023-10-28T06:53:50Z</time>
      </trkpt>
      <trkpt lat="50.82858" lon="3.33519">
        <ele>9.8</ele>
        <time>2023-10-28T06:53:55Z</time>
      </trkpt>
      <trkpt lat="50.82858" lon="3.33534">
        <ele>9.8</ele>
        <time>2023-10-28T06:53:57Z</time>
      </trkpt>
      <trkpt lat="50.82858" lon="3.3354">
        <ele>9.8</ele>
        <time>2023-10-28T06:53:58Z</time>
      </trkpt>
      <trkpt lat="50.82856" lon="3.33566">
        <ele>9.8</ele>
        <time>2023-10-28T06:54:01Z</time>
      </trkpt>
      <trkpt lat="50.82854" lon="3.3358">
        <ele>9.8</ele>
        <time>2023-10-28T06:54:03Z</time>
      </trkpt>
      <trkpt lat="50.82854" lon="3.33587">
        <ele>9.8</ele>
        <time>2023-10-28T06:54:04Z</time>
      </trkpt>
      <trkpt lat="50.82853" lon="3.33595">
        <ele>9.8</ele>
        <time>2023-10-28T06:54:05Z</time>
      </trkpt>
      <trkpt lat="50.82849" lon="3.33611">
        <ele>9.8</ele>
        <time>2023-10-28T06:54:07Z</time>
      </trkpt>
      <trkpt lat="50.82846" lon="3.33617">
        <ele>9.8</ele>
        <time>2023-10-28T06:54:08Z</time>
      </trkpt>
      <trkpt lat="50.82843" lon="3.33622">
        <ele>9.8</ele>
        <time>2023-10-28T06:54:09Z</time>
      </trkpt>
      <trkpt lat="50.82839" lon="3.33628">
        <ele>9.8</ele>
        <time>2023-10-28T06:54:10Z</time>
      </trkpt>
      <trkpt lat="50.82827" lon="3.33642">
        <ele>9.8</ele>
        <time>2023-10-28T06:54:13Z</time>
      </trkpt>
      <trkpt lat="50.8278" lon="3.33683">
        <ele>9</ele>
        <time>2023-10-28T06:54:23Z</time>
      </trkpt>
      <trkpt lat="50.82775" lon="3.33688">
        <ele>9</ele>
        <time>2023-10-28T06:54:24Z</time>
      </trkpt>
      <trkpt lat="50.8277" lon="3.33694">
        <ele>8.8</ele>
        <time>2023-10-28T06:54:25Z</time>
      </trkpt>
      <trkpt lat="50.8276" lon="3.33711">
        <ele>8.6</ele>
        <time>2023-10-28T06:54:28Z</time>
      </trkpt>
      <trkpt lat="50.82733" lon="3.33775">
        <ele>8.6</ele>
        <time>2023-10-28T06:54:36Z</time>
      </trkpt>
      <trkpt lat="50.82709" lon="3.33835">
        <ele>9</ele>
        <time>2023-10-28T06:54:44Z</time>
      </trkpt>
      <trkpt lat="50.82706" lon="3.33843">
        <ele>9</ele>
        <time>2023-10-28T06:54:45Z</time>
      </trkpt>
      <trkpt lat="50.82703" lon="3.3385">
        <ele>9</ele>
        <time>2023-10-28T06:54:46Z</time>
      </trkpt>
      <trkpt lat="50.827" lon="3.33856">
        <ele>9</ele>
        <time>2023-10-28T06:54:47Z</time>
      </trkpt>
      <trkpt lat="50.82695" lon="3.33862">
        <ele>9</ele>
        <time>2023-10-28T06:54:48Z</time>
      </trkpt>
      <trkpt lat="50.8269" lon="3.33866">
        <ele>9</ele>
        <time>2023-10-28T06:54:49Z</time>
      </trkpt>
      <trkpt lat="50.82685" lon="3.3387">
        <ele>9</ele>
        <time>2023-10-28T06:54:50Z</time>
      </trkpt>
      <trkpt lat="50.82681" lon="3.33874">
        <ele>9.2</ele>
        <time>2023-10-28T06:54:51Z</time>
      </trkpt>
      <trkpt lat="50.82677" lon="3.33877">
        <ele>9.2</ele>
        <time>2023-10-28T06:54:52Z</time>
      </trkpt>
      <trkpt lat="50.82673" lon="3.33882">
        <ele>9.2</ele>
        <time>2023-10-28T06:54:53Z</time>
      </trkpt>
      <trkpt lat="50.8267" lon="3.33886">
        <ele>9.2</ele>
        <time>2023-10-28T06:54:54Z</time>
      </trkpt>
      <trkpt lat="50.82667" lon="3.33892">
        <ele>9.2</ele>
        <time>2023-10-28T06:54:55Z</time>
      </trkpt>
      <trkpt lat="50.82665" lon="3.33897">
        <ele>9.2</ele>
        <time>2023-10-28T06:54:56Z</time>
      </trkpt>
      <trkpt lat="50.82662" lon="3.33903">
        <ele>9.2</ele>
        <time>2023-10-28T06:54:57Z</time>
      </trkpt>
      <trkpt lat="50.82653" lon="3.33923">
        <ele>9</ele>
        <time>2023-10-28T06:55:00Z</time>
      </trkpt>
      <trkpt lat="50.8264" lon="3.33956">
        <ele>10.2</ele>
        <time>2023-10-28T06:55:05Z</time>
      </trkpt>
      <trkpt lat="50.8263" lon="3.33981">
        <ele>11</ele>
        <time>2023-10-28T06:55:09Z</time>
      </trkpt>
      <trkpt lat="50.82605" lon="3.34044">
        <ele>11</ele>
        <time>2023-10-28T06:55:18Z</time>
      </trkpt>
      <trkpt lat="50.82602" lon="3.34051">
        <ele>11</ele>
        <time>2023-10-28T06:55:19Z</time>
      </trkpt>
      <trkpt lat="50.82576" lon="3.34116">
        <ele>10.6</ele>
        <time>2023-10-28T06:55:28Z</time>
      </trkpt>
      <trkpt lat="50.82562" lon="3.3415">
        <ele>10.4</ele>
        <time>2023-10-28T06:55:33Z</time>
      </trkpt>
      <trkpt lat="50.82559" lon="3.34157">
        <ele>10.4</ele>
        <time>2023-10-28T06:55:34Z</time>
      </trkpt>
      <trkpt lat="50.82556" lon="3.34163">
        <ele>10.4</ele>
        <time>2023-10-28T06:55:35Z</time>
      </trkpt>
      <trkpt lat="50.82553" lon="3.34171">
        <ele>10.4</ele>
        <time>2023-10-28T06:55:36Z</time>
      </trkpt>
      <trkpt lat="50.8255" lon="3.34176">
        <ele>10.4</ele>
        <time>2023-10-28T06:55:37Z</time>
      </trkpt>
      <trkpt lat="50.82547" lon="3.34184">
        <ele>10.6</ele>
        <time>2023-10-28T06:55:38Z</time>
      </trkpt>
      <trkpt lat="50.82529" lon="3.34221">
        <ele>11.2</ele>
        <time>2023-10-28T06:55:44Z</time>
      </trkpt>
      <trkpt lat="50.82526" lon="3.34227">
        <ele>11.2</ele>
        <time>2023-10-28T06:55:45Z</time>
      </trkpt>
      <trkpt lat="50.82523" lon="3.34234">
        <ele>11.2</ele>
        <time>2023-10-28T06:55:46Z</time>
      </trkpt>
      <trkpt lat="50.8252" lon="3.3424">
        <ele>11.4</ele>
        <time>2023-10-28T06:55:47Z</time>
      </trkpt>
      <trkpt lat="50.82517" lon="3.34247">
        <ele>11.4</ele>
        <time>2023-10-28T06:55:48Z</time>
      </trkpt>
      <trkpt lat="50.82515" lon="3.34252">
        <ele>11.4</ele>
        <time>2023-10-28T06:55:49Z</time>
      </trkpt>
      <trkpt lat="50.82512" lon="3.3426">
        <ele>11.4</ele>
        <time>2023-10-28T06:55:50Z</time>
      </trkpt>
      <trkpt lat="50.82504" lon="3.34279">
        <ele>11.4</ele>
        <time>2023-10-28T06:55:53Z</time>
      </trkpt>
      <trkpt lat="50.82478" lon="3.34346">
        <ele>10.8</ele>
        <time>2023-10-28T06:56:03Z</time>
      </trkpt>
      <trkpt lat="50.82476" lon="3.34351">
        <ele>10.8</ele>
        <time>2023-10-28T06:56:04Z</time>
      </trkpt>
      <trkpt lat="50.82473" lon="3.34356">
        <ele>10.8</ele>
        <time>2023-10-28T06:56:05Z</time>
      </trkpt>
      <trkpt lat="50.82471" lon="3.34362">
        <ele>10.8</ele>
        <time>2023-10-28T06:56:06Z</time>
      </trkpt>
      <trkpt lat="50.82468" lon="3.34367">
        <ele>10.8</ele>
        <time>2023-10-28T06:56:07Z</time>
      </trkpt>
      <trkpt lat="50.82466" lon="3.34373">
        <ele>10.8</ele>
        <time>2023-10-28T06:56:08Z</time>
      </trkpt>
      <trkpt lat="50.82463" lon="3.34378">
        <ele>10.8</ele>
        <time>2023-10-28T06:56:09Z</time>
      </trkpt>
      <trkpt lat="50.82461" lon="3.34385">
        <ele>11</ele>
        <time>2023-10-28T06:56:10Z</time>
      </trkpt>
      <trkpt lat="50.82458" lon="3.3439">
        <ele>11</ele>
        <time>2023-10-28T06:56:11Z</time>
      </trkpt>
      <trkpt lat="50.82456" lon="3.34395">
        <ele>11.2</ele>
        <time>2023-10-28T06:56:12Z</time>
      </trkpt>
      <trkpt lat="50.82453" lon="3.344">
        <ele>11.8</ele>
        <time>2023-10-28T06:56:13Z</time>
      </trkpt>
      <trkpt lat="50.82451" lon="3.34404">
        <ele>12.6</ele>
        <time>2023-10-28T06:56:14Z</time>
      </trkpt>
      <trkpt lat="50.82448" lon="3.3441">
        <ele>12.8</ele>
        <time>2023-10-28T06:56:15Z</time>
      </trkpt>
      <trkpt lat="50.82446" lon="3.34415">
        <ele>13.2</ele>
        <time>2023-10-28T06:56:16Z</time>
      </trkpt>
      <trkpt lat="50.82444" lon="3.3442">
        <ele>13.4</ele>
        <time>2023-10-28T06:56:17Z</time>
      </trkpt>
      <trkpt lat="50.82442" lon="3.34424">
        <ele>13.4</ele>
        <time>2023-10-28T06:56:18Z</time>
      </trkpt>
      <trkpt lat="50.82437" lon="3.34435">
        <ele>13.8</ele>
        <time>2023-10-28T06:56:20Z</time>
      </trkpt>
      <trkpt lat="50.82433" lon="3.34445">
        <ele>14.6</ele>
        <time>2023-10-28T06:56:22Z</time>
      </trkpt>
      <trkpt lat="50.82431" lon="3.34449">
        <ele>15</ele>
        <time>2023-10-28T06:56:23Z</time>
      </trkpt>
      <trkpt lat="50.82428" lon="3.34454">
        <ele>15.2</ele>
        <time>2023-10-28T06:56:24Z</time>
      </trkpt>
      <trkpt lat="50.82425" lon="3.34459">
        <ele>15.4</ele>
        <time>2023-10-28T06:56:25Z</time>
      </trkpt>
      <trkpt lat="50.82422" lon="3.34464">
        <ele>15.6</ele>
        <time>2023-10-28T06:56:26Z</time>
      </trkpt>
      <trkpt lat="50.82421" lon="3.34469">
        <ele>15.8</ele>
        <time>2023-10-28T06:56:27Z</time>
      </trkpt>
      <trkpt lat="50.8242" lon="3.34473">
        <ele>16</ele>
        <time>2023-10-28T06:56:28Z</time>
      </trkpt>
      <trkpt lat="50.82419" lon="3.34478">
        <ele>16.2</ele>
        <time>2023-10-28T06:56:29Z</time>
      </trkpt>
      <trkpt lat="50.82417" lon="3.34482">
        <ele>16.4</ele>
        <time>2023-10-28T06:56:30Z</time>
      </trkpt>
      <trkpt lat="50.82414" lon="3.34487">
        <ele>16.4</ele>
        <time>2023-10-28T06:56:31Z</time>
      </trkpt>
      <trkpt lat="50.82411" lon="3.3449">
        <ele>16.4</ele>
        <time>2023-10-28T06:56:32Z</time>
      </trkpt>
      <trkpt lat="50.82408" lon="3.34494">
        <ele>16.8</ele>
        <time>2023-10-28T06:56:33Z</time>
      </trkpt>
      <trkpt lat="50.82405" lon="3.34499">
        <ele>17.2</ele>
        <time>2023-10-28T06:56:34Z</time>
      </trkpt>
      <trkpt lat="50.82404" lon="3.34503">
        <ele>17.4</ele>
        <time>2023-10-28T06:56:35Z</time>
      </trkpt>
      <trkpt lat="50.82402" lon="3.34509">
        <ele>17.6</ele>
        <time>2023-10-28T06:56:36Z</time>
      </trkpt>
      <trkpt lat="50.82402" lon="3.34513">
        <ele>17.6</ele>
        <time>2023-10-28T06:56:37Z</time>
      </trkpt>
      <trkpt lat="50.82402" lon="3.34519">
        <ele>17.8</ele>
        <time>2023-10-28T06:56:38Z</time>
      </trkpt>
      <trkpt lat="50.82404" lon="3.34524">
        <ele>17.8</ele>
        <time>2023-10-28T06:56:39Z</time>
      </trkpt>
      <trkpt lat="50.82407" lon="3.34528">
        <ele>17.8</ele>
        <time>2023-10-28T06:56:40Z</time>
      </trkpt>
      <trkpt lat="50.82409" lon="3.34532">
        <ele>18</ele>
        <time>2023-10-28T06:56:41Z</time>
      </trkpt>
      <trkpt lat="50.82412" lon="3.34534">
        <ele>18</ele>
        <time>2023-10-28T06:56:42Z</time>
      </trkpt>
      <trkpt lat="50.82415" lon="3.34536">
        <ele>18</ele>
        <time>2023-10-28T06:56:43Z</time>
      </trkpt>
      <trkpt lat="50.8242" lon="3.34538">
        <ele>18.2</ele>
        <time>2023-10-28T06:56:44Z</time>
      </trkpt>
      <trkpt lat="50.82423" lon="3.34538">
        <ele>18.2</ele>
        <time>2023-10-28T06:56:45Z</time>
      </trkpt>
      <trkpt lat="50.82427" lon="3.3454">
        <ele>18.2</ele>
        <time>2023-10-28T06:56:46Z</time>
      </trkpt>
      <trkpt lat="50.8243" lon="3.34541">
        <ele>18.2</ele>
        <time>2023-10-28T06:56:47Z</time>
      </trkpt>
      <trkpt lat="50.82435" lon="3.34544">
        <ele>18.4</ele>
        <time>2023-10-28T06:56:48Z</time>
      </trkpt>
      <trkpt lat="50.82441" lon="3.34549">
        <ele>18.4</ele>
        <time>2023-10-28T06:56:49Z</time>
      </trkpt>
      <trkpt lat="50.82445" lon="3.34554">
        <ele>18.4</ele>
        <time>2023-10-28T06:56:50Z</time>
      </trkpt>
      <trkpt lat="50.8245" lon="3.34559">
        <ele>18.4</ele>
        <time>2023-10-28T06:56:51Z</time>
      </trkpt>
      <trkpt lat="50.82454" lon="3.34564">
        <ele>18.2</ele>
        <time>2023-10-28T06:56:52Z</time>
      </trkpt>
      <trkpt lat="50.82458" lon="3.3457">
        <ele>18.2</ele>
        <time>2023-10-28T06:56:53Z</time>
      </trkpt>
      <trkpt lat="50.82464" lon="3.34577">
        <ele>18.2</ele>
        <time>2023-10-28T06:56:54Z</time>
      </trkpt>
      <trkpt lat="50.82469" lon="3.34583">
        <ele>18.2</ele>
        <time>2023-10-28T06:56:55Z</time>
      </trkpt>
      <trkpt lat="50.82473" lon="3.3459">
        <ele>18.2</ele>
        <time>2023-10-28T06:56:56Z</time>
      </trkpt>
      <trkpt lat="50.82477" lon="3.34595">
        <ele>18.2</ele>
        <time>2023-10-28T06:56:57Z</time>
      </trkpt>
      <trkpt lat="50.82492" lon="3.34616">
        <ele>17.4</ele>
        <time>2023-10-28T06:57:00Z</time>
      </trkpt>
      <trkpt lat="50.82498" lon="3.34624">
        <ele>17.2</ele>
        <time>2023-10-28T06:57:01Z</time>
      </trkpt>
      <trkpt lat="50.82508" lon="3.34638">
        <ele>16.6</ele>
        <time>2023-10-28T06:57:03Z</time>
      </trkpt>
      <trkpt lat="50.82519" lon="3.34651">
        <ele>16</ele>
        <time>2023-10-28T06:57:05Z</time>
      </trkpt>
      <trkpt lat="50.82535" lon="3.34672">
        <ele>15</ele>
        <time>2023-10-28T06:57:08Z</time>
      </trkpt>
      <trkpt lat="50.82541" lon="3.3468">
        <ele>14.6</ele>
        <time>2023-10-28T06:57:09Z</time>
      </trkpt>
      <trkpt lat="50.82544" lon="3.34684">
        <ele>14.4</ele>
        <time>2023-10-28T06:57:10Z</time>
      </trkpt>
      <trkpt lat="50.82545" lon="3.34689">
        <ele>14.2</ele>
        <time>2023-10-28T06:57:11Z</time>
      </trkpt>
      <trkpt lat="50.82545" lon="3.34693">
        <ele>14.2</ele>
        <time>2023-10-28T06:57:12Z</time>
      </trkpt>
      <trkpt lat="50.82544" lon="3.34698">
        <ele>13.8</ele>
        <time>2023-10-28T06:57:13Z</time>
      </trkpt>
      <trkpt lat="50.82543" lon="3.34704">
        <ele>13.6</ele>
        <time>2023-10-28T06:57:14Z</time>
      </trkpt>
      <trkpt lat="50.82543" lon="3.34708">
        <ele>13.4</ele>
        <time>2023-10-28T06:57:15Z</time>
      </trkpt>
      <trkpt lat="50.82542" lon="3.34716">
        <ele>13</ele>
        <time>2023-10-28T06:57:16Z</time>
      </trkpt>
      <trkpt lat="50.82542" lon="3.34723">
        <ele>13</ele>
        <time>2023-10-28T06:57:17Z</time>
      </trkpt>
      <trkpt lat="50.82538" lon="3.34769">
        <ele>12.6</ele>
        <time>2023-10-28T06:57:23Z</time>
      </trkpt>
      <trkpt lat="50.82539" lon="3.34774">
        <ele>12.6</ele>
        <time>2023-10-28T06:57:24Z</time>
      </trkpt>
      <trkpt lat="50.82542" lon="3.34777">
        <ele>12.4</ele>
        <time>2023-10-28T06:57:25Z</time>
      </trkpt>
      <trkpt lat="50.8255" lon="3.34781">
        <ele>12.4</ele>
        <time>2023-10-28T06:57:27Z</time>
      </trkpt>
      <trkpt lat="50.82558" lon="3.34783">
        <ele>12.2</ele>
        <time>2023-10-28T06:57:29Z</time>
      </trkpt>
      <trkpt lat="50.82562" lon="3.34783">
        <ele>12.2</ele>
        <time>2023-10-28T06:57:30Z</time>
      </trkpt>
      <trkpt lat="50.82583" lon="3.34785">
        <ele>11.8</ele>
        <time>2023-10-28T06:57:34Z</time>
      </trkpt>
      <trkpt lat="50.82592" lon="3.34788">
        <ele>12</ele>
        <time>2023-10-28T06:57:36Z</time>
      </trkpt>
      <trkpt lat="50.82601" lon="3.34799">
        <ele>12</ele>
        <time>2023-10-28T06:57:38Z</time>
      </trkpt>
      <trkpt lat="50.82605" lon="3.34805">
        <ele>11.6</ele>
        <time>2023-10-28T06:57:39Z</time>
      </trkpt>
      <trkpt lat="50.82608" lon="3.34811">
        <ele>11.8</ele>
        <time>2023-10-28T06:57:40Z</time>
      </trkpt>
      <trkpt lat="50.82612" lon="3.3482">
        <ele>11.6</ele>
        <time>2023-10-28T06:57:41Z</time>
      </trkpt>
      <trkpt lat="50.82613" lon="3.34828">
        <ele>11.6</ele>
        <time>2023-10-28T06:57:42Z</time>
      </trkpt>
      <trkpt lat="50.82613" lon="3.34837">
        <ele>11.6</ele>
        <time>2023-10-28T06:57:43Z</time>
      </trkpt>
      <trkpt lat="50.82612" lon="3.34844">
        <ele>11.4</ele>
        <time>2023-10-28T06:57:44Z</time>
      </trkpt>
      <trkpt lat="50.82611" lon="3.34852">
        <ele>11.2</ele>
        <time>2023-10-28T06:57:45Z</time>
      </trkpt>
      <trkpt lat="50.82609" lon="3.34862">
        <ele>10.8</ele>
        <time>2023-10-28T06:57:46Z</time>
      </trkpt>
      <trkpt lat="50.82608" lon="3.34869">
        <ele>10.6</ele>
        <time>2023-10-28T06:57:47Z</time>
      </trkpt>
      <trkpt lat="50.82594" lon="3.34911">
        <ele>10</ele>
        <time>2023-10-28T06:57:52Z</time>
      </trkpt>
      <trkpt lat="50.8259" lon="3.34919">
        <ele>10</ele>
        <time>2023-10-28T06:57:53Z</time>
      </trkpt>
      <trkpt lat="50.82573" lon="3.34945">
        <ele>9.8</ele>
        <time>2023-10-28T06:57:57Z</time>
      </trkpt>
      <trkpt lat="50.82556" lon="3.34969">
        <ele>9.6</ele>
        <time>2023-10-28T06:58:01Z</time>
      </trkpt>
      <trkpt lat="50.82525" lon="3.35012">
        <ele>9.4</ele>
        <time>2023-10-28T06:58:08Z</time>
      </trkpt>
      <trkpt lat="50.82522" lon="3.35017">
        <ele>9.4</ele>
        <time>2023-10-28T06:58:09Z</time>
      </trkpt>
      <trkpt lat="50.82518" lon="3.35023">
        <ele>9.4</ele>
        <time>2023-10-28T06:58:10Z</time>
      </trkpt>
      <trkpt lat="50.82514" lon="3.35029">
        <ele>9.6</ele>
        <time>2023-10-28T06:58:11Z</time>
      </trkpt>
      <trkpt lat="50.82477" lon="3.35084">
        <ele>10</ele>
        <time>2023-10-28T06:58:20Z</time>
      </trkpt>
      <trkpt lat="50.82456" lon="3.35113">
        <ele>10.2</ele>
        <time>2023-10-28T06:58:25Z</time>
      </trkpt>
      <trkpt lat="50.82452" lon="3.35119">
        <ele>10.4</ele>
        <time>2023-10-28T06:58:26Z</time>
      </trkpt>
      <trkpt lat="50.82449" lon="3.35125">
        <ele>10.4</ele>
        <time>2023-10-28T06:58:27Z</time>
      </trkpt>
      <trkpt lat="50.82437" lon="3.35142">
        <ele>10.6</ele>
        <time>2023-10-28T06:58:30Z</time>
      </trkpt>
      <trkpt lat="50.82433" lon="3.35148">
        <ele>10.6</ele>
        <time>2023-10-28T06:58:31Z</time>
      </trkpt>
      <trkpt lat="50.82429" lon="3.35153">
        <ele>10.8</ele>
        <time>2023-10-28T06:58:32Z</time>
      </trkpt>
      <trkpt lat="50.82425" lon="3.35159">
        <ele>10.8</ele>
        <time>2023-10-28T06:58:33Z</time>
      </trkpt>
      <trkpt lat="50.82421" lon="3.35164">
        <ele>10.8</ele>
        <time>2023-10-28T06:58:34Z</time>
      </trkpt>
      <trkpt lat="50.82417" lon="3.3517">
        <ele>11</ele>
        <time>2023-10-28T06:58:35Z</time>
      </trkpt>
      <trkpt lat="50.8241" lon="3.3518">
        <ele>11.2</ele>
        <time>2023-10-28T06:58:37Z</time>
      </trkpt>
      <trkpt lat="50.82398" lon="3.35198">
        <ele>11.4</ele>
        <time>2023-10-28T06:58:40Z</time>
      </trkpt>
      <trkpt lat="50.82358" lon="3.35255">
        <ele>12</ele>
        <time>2023-10-28T06:58:50Z</time>
      </trkpt>
      <trkpt lat="50.82351" lon="3.35265">
        <ele>12</ele>
        <time>2023-10-28T06:58:52Z</time>
      </trkpt>
      <trkpt lat="50.82341" lon="3.35274">
        <ele>12</ele>
        <time>2023-10-28T06:58:54Z</time>
      </trkpt>
      <trkpt lat="50.82337" lon="3.35278">
        <ele>12</ele>
        <time>2023-10-28T06:58:55Z</time>
      </trkpt>
      <trkpt lat="50.82334" lon="3.35284">
        <ele>12</ele>
        <time>2023-10-28T06:58:56Z</time>
      </trkpt>
      <trkpt lat="50.82333" lon="3.35291">
        <ele>12.2</ele>
        <time>2023-10-28T06:58:57Z</time>
      </trkpt>
      <trkpt lat="50.82332" lon="3.35299">
        <ele>12.2</ele>
        <time>2023-10-28T06:58:58Z</time>
      </trkpt>
      <trkpt lat="50.82333" lon="3.35307">
        <ele>12.2</ele>
        <time>2023-10-28T06:58:59Z</time>
      </trkpt>
      <trkpt lat="50.82334" lon="3.35314">
        <ele>12</ele>
        <time>2023-10-28T06:59:00Z</time>
      </trkpt>
      <trkpt lat="50.82335" lon="3.3532">
        <ele>12</ele>
        <time>2023-10-28T06:59:01Z</time>
      </trkpt>
      <trkpt lat="50.82338" lon="3.35327">
        <ele>12</ele>
        <time>2023-10-28T06:59:02Z</time>
      </trkpt>
      <trkpt lat="50.82341" lon="3.35335">
        <ele>12</ele>
        <time>2023-10-28T06:59:03Z</time>
      </trkpt>
      <trkpt lat="50.82344" lon="3.35342">
        <ele>12</ele>
        <time>2023-10-28T06:59:04Z</time>
      </trkpt>
      <trkpt lat="50.82345" lon="3.35355">
        <ele>12</ele>
        <time>2023-10-28T06:59:06Z</time>
      </trkpt>
      <trkpt lat="50.82343" lon="3.35359">
        <ele>12</ele>
        <time>2023-10-28T06:59:07Z</time>
      </trkpt>
      <trkpt lat="50.82339" lon="3.35364">
        <ele>12</ele>
        <time>2023-10-28T06:59:08Z</time>
      </trkpt>
      <trkpt lat="50.82335" lon="3.35367">
        <ele>11.8</ele>
        <time>2023-10-28T06:59:09Z</time>
      </trkpt>
      <trkpt lat="50.82331" lon="3.35371">
        <ele>11.8</ele>
        <time>2023-10-28T06:59:10Z</time>
      </trkpt>
      <trkpt lat="50.82328" lon="3.35375">
        <ele>11.8</ele>
        <time>2023-10-28T06:59:11Z</time>
      </trkpt>
      <trkpt lat="50.82312" lon="3.35392">
        <ele>12</ele>
        <time>2023-10-28T06:59:15Z</time>
      </trkpt>
      <trkpt lat="50.82308" lon="3.35397">
        <ele>12</ele>
        <time>2023-10-28T06:59:16Z</time>
      </trkpt>
      <trkpt lat="50.82305" lon="3.35409">
        <ele>12</ele>
        <time>2023-10-28T06:59:18Z</time>
      </trkpt>
      <trkpt lat="50.82307" lon="3.35414">
        <ele>12</ele>
        <time>2023-10-28T06:59:19Z</time>
      </trkpt>
      <trkpt lat="50.82309" lon="3.35419">
        <ele>12</ele>
        <time>2023-10-28T06:59:20Z</time>
      </trkpt>
      <trkpt lat="50.82312" lon="3.35426">
        <ele>12.2</ele>
        <time>2023-10-28T06:59:21Z</time>
      </trkpt>
      <trkpt lat="50.82315" lon="3.35431">
        <ele>12.2</ele>
        <time>2023-10-28T06:59:22Z</time>
      </trkpt>
      <trkpt lat="50.82318" lon="3.35438">
        <ele>12.2</ele>
        <time>2023-10-28T06:59:23Z</time>
      </trkpt>
      <trkpt lat="50.82341" lon="3.35479">
        <ele>12.2</ele>
        <time>2023-10-28T06:59:30Z</time>
      </trkpt>
      <trkpt lat="50.82346" lon="3.35485">
        <ele>12.2</ele>
        <time>2023-10-28T06:59:31Z</time>
      </trkpt>
      <trkpt lat="50.8235" lon="3.35488">
        <ele>12.2</ele>
        <time>2023-10-28T06:59:32Z</time>
      </trkpt>
      <trkpt lat="50.82353" lon="3.35492">
        <ele>12.2</ele>
        <time>2023-10-28T06:59:33Z</time>
      </trkpt>
      <trkpt lat="50.82354" lon="3.35497">
        <ele>12.2</ele>
        <time>2023-10-28T06:59:34Z</time>
      </trkpt>
      <trkpt lat="50.82354" lon="3.35502">
        <ele>12.2</ele>
        <time>2023-10-28T06:59:35Z</time>
      </trkpt>
      <trkpt lat="50.82354" lon="3.35508">
        <ele>12.2</ele>
        <time>2023-10-28T06:59:36Z</time>
      </trkpt>
      <trkpt lat="50.82354" lon="3.35514">
        <ele>12.2</ele>
        <time>2023-10-28T06:59:37Z</time>
      </trkpt>
      <trkpt lat="50.82353" lon="3.3552">
        <ele>12</ele>
        <time>2023-10-28T06:59:38Z</time>
      </trkpt>
      <trkpt lat="50.82349" lon="3.35541">
        <ele>12</ele>
        <time>2023-10-28T06:59:41Z</time>
      </trkpt>
      <trkpt lat="50.82346" lon="3.35553">
        <ele>12</ele>
        <time>2023-10-28T06:59:43Z</time>
      </trkpt>
      <trkpt lat="50.82335" lon="3.3558">
        <ele>11.4</ele>
        <time>2023-10-28T06:59:47Z</time>
      </trkpt>
      <trkpt lat="50.82319" lon="3.3561">
        <ele>10.8</ele>
        <time>2023-10-28T06:59:52Z</time>
      </trkpt>
      <trkpt lat="50.82312" lon="3.35622">
        <ele>10.8</ele>
        <time>2023-10-28T06:59:54Z</time>
      </trkpt>
      <trkpt lat="50.82288" lon="3.35661">
        <ele>10.6</ele>
        <time>2023-10-28T07:00:00Z</time>
      </trkpt>
      <trkpt lat="50.82266" lon="3.35697">
        <ele>10.6</ele>
        <time>2023-10-28T07:00:06Z</time>
      </trkpt>
      <trkpt lat="50.82263" lon="3.35703">
        <ele>10.6</ele>
        <time>2023-10-28T07:00:07Z</time>
      </trkpt>
      <trkpt lat="50.8226" lon="3.35708">
        <ele>10.4</ele>
        <time>2023-10-28T07:00:08Z</time>
      </trkpt>
      <trkpt lat="50.82256" lon="3.35714">
        <ele>10.4</ele>
        <time>2023-10-28T07:00:09Z</time>
      </trkpt>
      <trkpt lat="50.82252" lon="3.35721">
        <ele>10.6</ele>
        <time>2023-10-28T07:00:10Z</time>
      </trkpt>
      <trkpt lat="50.82249" lon="3.35725">
        <ele>10.6</ele>
        <time>2023-10-28T07:00:11Z</time>
      </trkpt>
      <trkpt lat="50.82246" lon="3.35731">
        <ele>10.6</ele>
        <time>2023-10-28T07:00:12Z</time>
      </trkpt>
      <trkpt lat="50.82244" lon="3.35735">
        <ele>10.6</ele>
        <time>2023-10-28T07:00:13Z</time>
      </trkpt>
      <trkpt lat="50.8224" lon="3.35741">
        <ele>10.6</ele>
        <time>2023-10-28T07:00:14Z</time>
      </trkpt>
      <trkpt lat="50.82238" lon="3.35746">
        <ele>10.6</ele>
        <time>2023-10-28T07:00:15Z</time>
      </trkpt>
      <trkpt lat="50.82235" lon="3.35751">
        <ele>10.6</ele>
        <time>2023-10-28T07:00:16Z</time>
      </trkpt>
      <trkpt lat="50.82233" lon="3.35754">
        <ele>10.6</ele>
        <time>2023-10-28T07:00:17Z</time>
      </trkpt>
      <trkpt lat="50.82231" lon="3.35759">
        <ele>10.6</ele>
        <time>2023-10-28T07:00:18Z</time>
      </trkpt>
      <trkpt lat="50.82229" lon="3.35762">
        <ele>10.6</ele>
        <time>2023-10-28T07:00:19Z</time>
      </trkpt>
      <trkpt lat="50.82227" lon="3.35765">
        <ele>10.6</ele>
        <time>2023-10-28T07:00:20Z</time>
      </trkpt>
      <trkpt lat="50.82225" lon="3.35765">
        <ele>10.8</ele>
        <time>2023-10-28T07:00:21Z</time>
      </trkpt>
      <trkpt lat="50.82223" lon="3.35764">
        <ele>10.8</ele>
        <time>2023-10-28T07:00:22Z</time>
      </trkpt>
      <trkpt lat="50.82221" lon="3.3576">
        <ele>10.8</ele>
        <time>2023-10-28T07:00:23Z</time>
      </trkpt>
      <trkpt lat="50.82218" lon="3.35751">
        <ele>10.8</ele>
        <time>2023-10-28T07:00:25Z</time>
      </trkpt>
      <trkpt lat="50.82217" lon="3.35747">
        <ele>10.8</ele>
        <time>2023-10-28T07:00:26Z</time>
      </trkpt>
      <trkpt lat="50.82215" lon="3.3574">
        <ele>10.8</ele>
        <time>2023-10-28T07:00:27Z</time>
      </trkpt>
      <trkpt lat="50.82207" lon="3.35714">
        <ele>10.8</ele>
        <time>2023-10-28T07:00:31Z</time>
      </trkpt>
      <trkpt lat="50.82205" lon="3.35701">
        <ele>10.8</ele>
        <time>2023-10-28T07:00:33Z</time>
      </trkpt>
      <trkpt lat="50.82203" lon="3.35695">
        <ele>10.8</ele>
        <time>2023-10-28T07:00:34Z</time>
      </trkpt>
      <trkpt lat="50.82201" lon="3.35691">
        <ele>10.8</ele>
        <time>2023-10-28T07:00:35Z</time>
      </trkpt>
      <trkpt lat="50.82198" lon="3.3569">
        <ele>10.8</ele>
        <time>2023-10-28T07:00:36Z</time>
      </trkpt>
      <trkpt lat="50.82194" lon="3.3569">
        <ele>10.8</ele>
        <time>2023-10-28T07:00:37Z</time>
      </trkpt>
      <trkpt lat="50.82185" lon="3.35694">
        <ele>10.8</ele>
        <time>2023-10-28T07:00:40Z</time>
      </trkpt>
      <trkpt lat="50.82181" lon="3.35695">
        <ele>10.8</ele>
        <time>2023-10-28T07:00:41Z</time>
      </trkpt>
      <trkpt lat="50.82178" lon="3.35696">
        <ele>10.8</ele>
        <time>2023-10-28T07:00:42Z</time>
      </trkpt>
      <trkpt lat="50.82174" lon="3.35697">
        <ele>10.8</ele>
        <time>2023-10-28T07:00:43Z</time>
      </trkpt>
      <trkpt lat="50.82172" lon="3.35695">
        <ele>10.8</ele>
        <time>2023-10-28T07:00:44Z</time>
      </trkpt>
      <trkpt lat="50.82169" lon="3.35691">
        <ele>10.8</ele>
        <time>2023-10-28T07:00:45Z</time>
      </trkpt>
      <trkpt lat="50.82166" lon="3.35688">
        <ele>10.8</ele>
        <time>2023-10-28T07:00:46Z</time>
      </trkpt>
      <trkpt lat="50.82163" lon="3.35686">
        <ele>10.8</ele>
        <time>2023-10-28T07:00:47Z</time>
      </trkpt>
      <trkpt lat="50.82154" lon="3.35688">
        <ele>10.8</ele>
        <time>2023-10-28T07:00:49Z</time>
      </trkpt>
      <trkpt lat="50.82146" lon="3.35693">
        <ele>11</ele>
        <time>2023-10-28T07:00:51Z</time>
      </trkpt>
      <trkpt lat="50.82141" lon="3.35695">
        <ele>11</ele>
        <time>2023-10-28T07:00:52Z</time>
      </trkpt>
      <trkpt lat="50.82133" lon="3.357">
        <ele>11</ele>
        <time>2023-10-28T07:00:54Z</time>
      </trkpt>
      <trkpt lat="50.82129" lon="3.35703">
        <ele>11</ele>
        <time>2023-10-28T07:00:55Z</time>
      </trkpt>
      <trkpt lat="50.8211" lon="3.35715">
        <ele>11</ele>
        <time>2023-10-28T07:00:59Z</time>
      </trkpt>
      <trkpt lat="50.82103" lon="3.35728">
        <ele>10.8</ele>
        <time>2023-10-28T07:01:01Z</time>
      </trkpt>
      <trkpt lat="50.82104" lon="3.35734">
        <ele>10.8</ele>
        <time>2023-10-28T07:01:02Z</time>
      </trkpt>
      <trkpt lat="50.82105" lon="3.35741">
        <ele>10.8</ele>
        <time>2023-10-28T07:01:03Z</time>
      </trkpt>
      <trkpt lat="50.82107" lon="3.35748">
        <ele>10.8</ele>
        <time>2023-10-28T07:01:04Z</time>
      </trkpt>
      <trkpt lat="50.82116" lon="3.35767">
        <ele>10.8</ele>
        <time>2023-10-28T07:01:07Z</time>
      </trkpt>
      <trkpt lat="50.82118" lon="3.35773">
        <ele>10.8</ele>
        <time>2023-10-28T07:01:08Z</time>
      </trkpt>
      <trkpt lat="50.8212" lon="3.35778">
        <ele>10.8</ele>
        <time>2023-10-28T07:01:09Z</time>
      </trkpt>
      <trkpt lat="50.8212" lon="3.35783">
        <ele>11</ele>
        <time>2023-10-28T07:01:10Z</time>
      </trkpt>
      <trkpt lat="50.82118" lon="3.35785">
        <ele>11</ele>
        <time>2023-10-28T07:01:11Z</time>
      </trkpt>
      <trkpt lat="50.82116" lon="3.35788">
        <ele>11</ele>
        <time>2023-10-28T07:01:12Z</time>
      </trkpt>
      <trkpt lat="50.82113" lon="3.35791">
        <ele>11.4</ele>
        <time>2023-10-28T07:01:13Z</time>
      </trkpt>
      <trkpt lat="50.82108" lon="3.35795">
        <ele>11.8</ele>
        <time>2023-10-28T07:01:15Z</time>
      </trkpt>
      <trkpt lat="50.82104" lon="3.35798">
        <ele>12</ele>
        <time>2023-10-28T07:01:17Z</time>
      </trkpt>
      <trkpt lat="50.82103" lon="3.358">
        <ele>12</ele>
        <time>2023-10-28T07:01:18Z</time>
      </trkpt>
      <trkpt lat="50.82104" lon="3.358">
        <ele>12</ele>
        <time>2023-10-28T07:01:19Z</time>
      </trkpt>
      <trkpt lat="50.82105" lon="3.35799">
        <ele>12</ele>
        <time>2023-10-28T07:01:20Z</time>
      </trkpt>
      <trkpt lat="50.82108" lon="3.35793">
        <ele>11.8</ele>
        <time>2023-10-28T07:01:22Z</time>
      </trkpt>
      <trkpt lat="50.82108" lon="3.35789">
        <ele>11.8</ele>
        <time>2023-10-28T07:01:23Z</time>
      </trkpt>
      <trkpt lat="50.82099" lon="3.35763">
        <ele>11.8</ele>
        <time>2023-10-28T07:01:28Z</time>
      </trkpt>
      <trkpt lat="50.82093" lon="3.35747">
        <ele>11.6</ele>
        <time>2023-10-28T07:01:31Z</time>
      </trkpt>
      <trkpt lat="50.82082" lon="3.35722">
        <ele>11.4</ele>
        <time>2023-10-28T07:01:36Z</time>
      </trkpt>
      <trkpt lat="50.82076" lon="3.35707">
        <ele>11.2</ele>
        <time>2023-10-28T07:01:39Z</time>
      </trkpt>
      <trkpt lat="50.82072" lon="3.35703">
        <ele>11.2</ele>
        <time>2023-10-28T07:01:40Z</time>
      </trkpt>
      <trkpt lat="50.8207" lon="3.35703">
        <ele>11.2</ele>
        <time>2023-10-28T07:01:41Z</time>
      </trkpt>
      <trkpt lat="50.82066" lon="3.35706">
        <ele>11.2</ele>
        <time>2023-10-28T07:01:42Z</time>
      </trkpt>
      <trkpt lat="50.8206" lon="3.35715">
        <ele>10.8</ele>
        <time>2023-10-28T07:01:44Z</time>
      </trkpt>
      <trkpt lat="50.82057" lon="3.3572">
        <ele>10.8</ele>
        <time>2023-10-28T07:01:45Z</time>
      </trkpt>
      <trkpt lat="50.82054" lon="3.35725">
        <ele>10.6</ele>
        <time>2023-10-28T07:01:46Z</time>
      </trkpt>
      <trkpt lat="50.82039" lon="3.3574">
        <ele>10.6</ele>
        <time>2023-10-28T07:01:50Z</time>
      </trkpt>
      <trkpt lat="50.82031" lon="3.35745">
        <ele>10.6</ele>
        <time>2023-10-28T07:01:52Z</time>
      </trkpt>
      <trkpt lat="50.82028" lon="3.35745">
        <ele>10.6</ele>
        <time>2023-10-28T07:01:53Z</time>
      </trkpt>
      <trkpt lat="50.82024" lon="3.35742">
        <ele>10.6</ele>
        <time>2023-10-28T07:01:54Z</time>
      </trkpt>
      <trkpt lat="50.82021" lon="3.35737">
        <ele>10.6</ele>
        <time>2023-10-28T07:01:55Z</time>
      </trkpt>
      <trkpt lat="50.82014" lon="3.35717">
        <ele>10.6</ele>
        <time>2023-10-28T07:01:58Z</time>
      </trkpt>
      <trkpt lat="50.82012" lon="3.35709">
        <ele>10.6</ele>
        <time>2023-10-28T07:01:59Z</time>
      </trkpt>
      <trkpt lat="50.82007" lon="3.35695">
        <ele>10.8</ele>
        <time>2023-10-28T07:02:01Z</time>
      </trkpt>
      <trkpt lat="50.82008" lon="3.3568">
        <ele>11</ele>
        <time>2023-10-28T07:02:03Z</time>
      </trkpt>
      <trkpt lat="50.82011" lon="3.35674">
        <ele>11</ele>
        <time>2023-10-28T07:02:04Z</time>
      </trkpt>
      <trkpt lat="50.82017" lon="3.3566">
        <ele>11.2</ele>
        <time>2023-10-28T07:02:06Z</time>
      </trkpt>
      <trkpt lat="50.82018" lon="3.35653">
        <ele>11.4</ele>
        <time>2023-10-28T07:02:07Z</time>
      </trkpt>
      <trkpt lat="50.82018" lon="3.35645">
        <ele>11.4</ele>
        <time>2023-10-28T07:02:08Z</time>
      </trkpt>
      <trkpt lat="50.82016" lon="3.35637">
        <ele>11.4</ele>
        <time>2023-10-28T07:02:09Z</time>
      </trkpt>
      <trkpt lat="50.82014" lon="3.3563">
        <ele>11.6</ele>
        <time>2023-10-28T07:02:10Z</time>
      </trkpt>
      <trkpt lat="50.81998" lon="3.35588">
        <ele>11.4</ele>
        <time>2023-10-28T07:02:16Z</time>
      </trkpt>
      <trkpt lat="50.81984" lon="3.35545">
        <ele>11.6</ele>
        <time>2023-10-28T07:02:22Z</time>
      </trkpt>
      <trkpt lat="50.81981" lon="3.35539">
        <ele>11.4</ele>
        <time>2023-10-28T07:02:23Z</time>
      </trkpt>
      <trkpt lat="50.81977" lon="3.35527">
        <ele>11.4</ele>
        <time>2023-10-28T07:02:25Z</time>
      </trkpt>
      <trkpt lat="50.81975" lon="3.35521">
        <ele>11.4</ele>
        <time>2023-10-28T07:02:26Z</time>
      </trkpt>
      <trkpt lat="50.81972" lon="3.35515">
        <ele>11.4</ele>
        <time>2023-10-28T07:02:27Z</time>
      </trkpt>
      <trkpt lat="50.8197" lon="3.35508">
        <ele>11.4</ele>
        <time>2023-10-28T07:02:28Z</time>
      </trkpt>
      <trkpt lat="50.81967" lon="3.35502">
        <ele>11.4</ele>
        <time>2023-10-28T07:02:29Z</time>
      </trkpt>
      <trkpt lat="50.81965" lon="3.35496">
        <ele>11.4</ele>
        <time>2023-10-28T07:02:30Z</time>
      </trkpt>
      <trkpt lat="50.81962" lon="3.3549">
        <ele>11.4</ele>
        <time>2023-10-28T07:02:31Z</time>
      </trkpt>
      <trkpt lat="50.8196" lon="3.35484">
        <ele>11.4</ele>
        <time>2023-10-28T07:02:32Z</time>
      </trkpt>
      <trkpt lat="50.81958" lon="3.35478">
        <ele>11.4</ele>
        <time>2023-10-28T07:02:33Z</time>
      </trkpt>
      <trkpt lat="50.81955" lon="3.35473">
        <ele>11.4</ele>
        <time>2023-10-28T07:02:34Z</time>
      </trkpt>
      <trkpt lat="50.81951" lon="3.3546">
        <ele>11.4</ele>
        <time>2023-10-28T07:02:36Z</time>
      </trkpt>
      <trkpt lat="50.81949" lon="3.35454">
        <ele>11.4</ele>
        <time>2023-10-28T07:02:37Z</time>
      </trkpt>
      <trkpt lat="50.81947" lon="3.35448">
        <ele>11.4</ele>
        <time>2023-10-28T07:02:38Z</time>
      </trkpt>
      <trkpt lat="50.8194" lon="3.3543">
        <ele>11.6</ele>
        <time>2023-10-28T07:02:41Z</time>
      </trkpt>
      <trkpt lat="50.81938" lon="3.35424">
        <ele>11.6</ele>
        <time>2023-10-28T07:02:42Z</time>
      </trkpt>
      <trkpt lat="50.81936" lon="3.35418">
        <ele>11.8</ele>
        <time>2023-10-28T07:02:43Z</time>
      </trkpt>
      <trkpt lat="50.81934" lon="3.35412">
        <ele>11.8</ele>
        <time>2023-10-28T07:02:44Z</time>
      </trkpt>
      <trkpt lat="50.81932" lon="3.35407">
        <ele>11.8</ele>
        <time>2023-10-28T07:02:45Z</time>
      </trkpt>
      <trkpt lat="50.81929" lon="3.35403">
        <ele>11.8</ele>
        <time>2023-10-28T07:02:46Z</time>
      </trkpt>
      <trkpt lat="50.81925" lon="3.354">
        <ele>12</ele>
        <time>2023-10-28T07:02:47Z</time>
      </trkpt>
      <trkpt lat="50.81921" lon="3.354">
        <ele>12</ele>
        <time>2023-10-28T07:02:48Z</time>
      </trkpt>
      <trkpt lat="50.81916" lon="3.35403">
        <ele>12</ele>
        <time>2023-10-28T07:02:49Z</time>
      </trkpt>
      <trkpt lat="50.819" lon="3.35416">
        <ele>12.6</ele>
        <time>2023-10-28T07:02:53Z</time>
      </trkpt>
      <trkpt lat="50.81897" lon="3.35419">
        <ele>12.6</ele>
        <time>2023-10-28T07:02:54Z</time>
      </trkpt>
      <trkpt lat="50.81893" lon="3.35422">
        <ele>12.8</ele>
        <time>2023-10-28T07:02:55Z</time>
      </trkpt>
      <trkpt lat="50.8189" lon="3.35424">
        <ele>13</ele>
        <time>2023-10-28T07:02:56Z</time>
      </trkpt>
      <trkpt lat="50.81887" lon="3.35423">
        <ele>13</ele>
        <time>2023-10-28T07:02:57Z</time>
      </trkpt>
      <trkpt lat="50.81885" lon="3.35419">
        <ele>13.2</ele>
        <time>2023-10-28T07:02:58Z</time>
      </trkpt>
      <trkpt lat="50.81883" lon="3.35415">
        <ele>13.2</ele>
        <time>2023-10-28T07:02:59Z</time>
      </trkpt>
      <trkpt lat="50.81881" lon="3.35411">
        <ele>13.2</ele>
        <time>2023-10-28T07:03:00Z</time>
      </trkpt>
      <trkpt lat="50.81879" lon="3.35406">
        <ele>13.2</ele>
        <time>2023-10-28T07:03:01Z</time>
      </trkpt>
      <trkpt lat="50.81878" lon="3.35401">
        <ele>13.2</ele>
        <time>2023-10-28T07:03:02Z</time>
      </trkpt>
      <trkpt lat="50.81876" lon="3.35393">
        <ele>13.4</ele>
        <time>2023-10-28T07:03:04Z</time>
      </trkpt>
      <trkpt lat="50.81875" lon="3.35389">
        <ele>13.4</ele>
        <time>2023-10-28T07:03:05Z</time>
      </trkpt>
      <trkpt lat="50.81874" lon="3.35385">
        <ele>13.6</ele>
        <time>2023-10-28T07:03:06Z</time>
      </trkpt>
      <trkpt lat="50.81872" lon="3.35382">
        <ele>13.6</ele>
        <time>2023-10-28T07:03:07Z</time>
      </trkpt>
      <trkpt lat="50.81871" lon="3.35378">
        <ele>13.8</ele>
        <time>2023-10-28T07:03:08Z</time>
      </trkpt>
      <trkpt lat="50.81869" lon="3.35374">
        <ele>13.8</ele>
        <time>2023-10-28T07:03:09Z</time>
      </trkpt>
      <trkpt lat="50.81868" lon="3.35371">
        <ele>13.8</ele>
        <time>2023-10-28T07:03:10Z</time>
      </trkpt>
      <trkpt lat="50.81867" lon="3.35367">
        <ele>13.8</ele>
        <time>2023-10-28T07:03:11Z</time>
      </trkpt>
      <trkpt lat="50.81866" lon="3.35363">
        <ele>14</ele>
        <time>2023-10-28T07:03:12Z</time>
      </trkpt>
      <trkpt lat="50.81865" lon="3.3536">
        <ele>14</ele>
        <time>2023-10-28T07:03:13Z</time>
      </trkpt>
      <trkpt lat="50.81864" lon="3.35356">
        <ele>14</ele>
        <time>2023-10-28T07:03:14Z</time>
      </trkpt>
      <trkpt lat="50.81862" lon="3.35353">
        <ele>14.2</ele>
        <time>2023-10-28T07:03:15Z</time>
      </trkpt>
      <trkpt lat="50.81861" lon="3.35351">
        <ele>14.2</ele>
        <time>2023-10-28T07:03:16Z</time>
      </trkpt>
      <trkpt lat="50.8186" lon="3.35348">
        <ele>14.2</ele>
        <time>2023-10-28T07:03:17Z</time>
      </trkpt>
      <trkpt lat="50.8186" lon="3.35346">
        <ele>14.2</ele>
        <time>2023-10-28T07:03:18Z</time>
      </trkpt>
      <trkpt lat="50.81859" lon="3.35345">
        <ele>14.2</ele>
        <time>2023-10-28T07:03:19Z</time>
      </trkpt>
      <trkpt lat="50.81859" lon="3.35345">
        <ele>14.4</ele>
        <time>2023-10-28T07:03:20Z</time>
      </trkpt>
      <trkpt lat="50.8186" lon="3.35345">
        <ele>14.6</ele>
        <time>2023-10-28T07:03:24Z</time>
      </trkpt>
      <trkpt lat="50.81856" lon="3.35343">
        <ele>15</ele>
        <time>2023-10-28T07:08:02Z</time>
      </trkpt>
      <trkpt lat="50.81854" lon="3.35342">
        <ele>15</ele>
        <time>2023-10-28T07:08:03Z</time>
      </trkpt>
      <trkpt lat="50.81847" lon="3.35337">
        <ele>15</ele>
        <time>2023-10-28T07:08:06Z</time>
      </trkpt>
      <trkpt lat="50.81844" lon="3.35337">
        <ele>15</ele>
        <time>2023-10-28T07:08:07Z</time>
      </trkpt>
      <trkpt lat="50.81841" lon="3.35338">
        <ele>15</ele>
        <time>2023-10-28T07:08:08Z</time>
      </trkpt>
      <trkpt lat="50.81838" lon="3.35339">
        <ele>15</ele>
        <time>2023-10-28T07:08:09Z</time>
      </trkpt>
      <trkpt lat="50.81835" lon="3.3534">
        <ele>15</ele>
        <time>2023-10-28T07:08:10Z</time>
      </trkpt>
      <trkpt lat="50.81827" lon="3.35346">
        <ele>15.2</ele>
        <time>2023-10-28T07:08:13Z</time>
      </trkpt>
      <trkpt lat="50.81803" lon="3.35357">
        <ele>15.2</ele>
        <time>2023-10-28T07:08:20Z</time>
      </trkpt>
      <trkpt lat="50.81783" lon="3.35371">
        <ele>15.4</ele>
        <time>2023-10-28T07:08:26Z</time>
      </trkpt>
      <trkpt lat="50.81781" lon="3.35375">
        <ele>15.4</ele>
        <time>2023-10-28T07:08:27Z</time>
      </trkpt>
      <trkpt lat="50.81779" lon="3.3538">
        <ele>15.6</ele>
        <time>2023-10-28T07:08:28Z</time>
      </trkpt>
      <trkpt lat="50.81777" lon="3.35384">
        <ele>15.6</ele>
        <time>2023-10-28T07:08:29Z</time>
      </trkpt>
      <trkpt lat="50.81774" lon="3.35388">
        <ele>15.6</ele>
        <time>2023-10-28T07:08:30Z</time>
      </trkpt>
      <trkpt lat="50.8177" lon="3.35391">
        <ele>15.6</ele>
        <time>2023-10-28T07:08:31Z</time>
      </trkpt>
      <trkpt lat="50.81766" lon="3.35393">
        <ele>15.8</ele>
        <time>2023-10-28T07:08:32Z</time>
      </trkpt>
      <trkpt lat="50.81762" lon="3.35394">
        <ele>15.8</ele>
        <time>2023-10-28T07:08:33Z</time>
      </trkpt>
      <trkpt lat="50.81758" lon="3.35396">
        <ele>15.8</ele>
        <time>2023-10-28T07:08:34Z</time>
      </trkpt>
      <trkpt lat="50.81748" lon="3.35398">
        <ele>15.8</ele>
        <time>2023-10-28T07:08:36Z</time>
      </trkpt>
      <trkpt lat="50.81744" lon="3.35399">
        <ele>15.8</ele>
        <time>2023-10-28T07:08:37Z</time>
      </trkpt>
      <trkpt lat="50.81725" lon="3.35405">
        <ele>16</ele>
        <time>2023-10-28T07:08:41Z</time>
      </trkpt>
      <trkpt lat="50.81721" lon="3.35406">
        <ele>15.8</ele>
        <time>2023-10-28T07:08:42Z</time>
      </trkpt>
      <trkpt lat="50.81716" lon="3.35406">
        <ele>15.8</ele>
        <time>2023-10-28T07:08:43Z</time>
      </trkpt>
      <trkpt lat="50.81711" lon="3.35405">
        <ele>15.8</ele>
        <time>2023-10-28T07:08:44Z</time>
      </trkpt>
      <trkpt lat="50.81706" lon="3.35404">
        <ele>15.8</ele>
        <time>2023-10-28T07:08:45Z</time>
      </trkpt>
      <trkpt lat="50.81703" lon="3.35402">
        <ele>15.8</ele>
        <time>2023-10-28T07:08:46Z</time>
      </trkpt>
      <trkpt lat="50.81699" lon="3.35401">
        <ele>15.8</ele>
        <time>2023-10-28T07:08:47Z</time>
      </trkpt>
      <trkpt lat="50.81694" lon="3.354">
        <ele>15.8</ele>
        <time>2023-10-28T07:08:48Z</time>
      </trkpt>
      <trkpt lat="50.81691" lon="3.35402">
        <ele>15.8</ele>
        <time>2023-10-28T07:08:49Z</time>
      </trkpt>
      <trkpt lat="50.81688" lon="3.35405">
        <ele>15.8</ele>
        <time>2023-10-28T07:08:50Z</time>
      </trkpt>
      <trkpt lat="50.81686" lon="3.3541">
        <ele>15.8</ele>
        <time>2023-10-28T07:08:51Z</time>
      </trkpt>
      <trkpt lat="50.81683" lon="3.35422">
        <ele>16</ele>
        <time>2023-10-28T07:08:53Z</time>
      </trkpt>
      <trkpt lat="50.81681" lon="3.3543">
        <ele>16</ele>
        <time>2023-10-28T07:08:54Z</time>
      </trkpt>
      <trkpt lat="50.81672" lon="3.35469">
        <ele>16</ele>
        <time>2023-10-28T07:08:59Z</time>
      </trkpt>
      <trkpt lat="50.81666" lon="3.35494">
        <ele>16</ele>
        <time>2023-10-28T07:09:02Z</time>
      </trkpt>
      <trkpt lat="50.81665" lon="3.355">
        <ele>16</ele>
        <time>2023-10-28T07:09:03Z</time>
      </trkpt>
      <trkpt lat="50.81664" lon="3.35508">
        <ele>15.8</ele>
        <time>2023-10-28T07:09:04Z</time>
      </trkpt>
      <trkpt lat="50.8166" lon="3.35531">
        <ele>15.2</ele>
        <time>2023-10-28T07:09:07Z</time>
      </trkpt>
      <trkpt lat="50.81658" lon="3.35536">
        <ele>15</ele>
        <time>2023-10-28T07:09:08Z</time>
      </trkpt>
      <trkpt lat="50.81656" lon="3.35537">
        <ele>14.8</ele>
        <time>2023-10-28T07:09:09Z</time>
      </trkpt>
      <trkpt lat="50.81653" lon="3.35537">
        <ele>14.8</ele>
        <time>2023-10-28T07:09:10Z</time>
      </trkpt>
      <trkpt lat="50.81652" lon="3.35536">
        <ele>14.6</ele>
        <time>2023-10-28T07:09:11Z</time>
      </trkpt>
      <trkpt lat="50.81649" lon="3.35533">
        <ele>14.6</ele>
        <time>2023-10-28T07:09:12Z</time>
      </trkpt>
      <trkpt lat="50.81647" lon="3.35532">
        <ele>14.6</ele>
        <time>2023-10-28T07:09:13Z</time>
      </trkpt>
      <trkpt lat="50.81644" lon="3.3553">
        <ele>14.6</ele>
        <time>2023-10-28T07:09:14Z</time>
      </trkpt>
      <trkpt lat="50.8164" lon="3.35528">
        <ele>14.6</ele>
        <time>2023-10-28T07:09:15Z</time>
      </trkpt>
      <trkpt lat="50.81634" lon="3.35528">
        <ele>14.6</ele>
        <time>2023-10-28T07:09:17Z</time>
      </trkpt>
      <trkpt lat="50.81631" lon="3.35529">
        <ele>14.4</ele>
        <time>2023-10-28T07:09:18Z</time>
      </trkpt>
      <trkpt lat="50.81627" lon="3.35533">
        <ele>14.4</ele>
        <time>2023-10-28T07:09:19Z</time>
      </trkpt>
      <trkpt lat="50.81624" lon="3.3554">
        <ele>14.4</ele>
        <time>2023-10-28T07:09:20Z</time>
      </trkpt>
      <trkpt lat="50.81621" lon="3.35547">
        <ele>14.4</ele>
        <time>2023-10-28T07:09:21Z</time>
      </trkpt>
      <trkpt lat="50.8162" lon="3.35553">
        <ele>14.4</ele>
        <time>2023-10-28T07:09:22Z</time>
      </trkpt>
      <trkpt lat="50.8162" lon="3.35561">
        <ele>14.6</ele>
        <time>2023-10-28T07:09:23Z</time>
      </trkpt>
      <trkpt lat="50.81622" lon="3.3557">
        <ele>14.8</ele>
        <time>2023-10-28T07:09:24Z</time>
      </trkpt>
      <trkpt lat="50.81624" lon="3.35576">
        <ele>14.8</ele>
        <time>2023-10-28T07:09:25Z</time>
      </trkpt>
      <trkpt lat="50.81628" lon="3.35585">
        <ele>14.8</ele>
        <time>2023-10-28T07:09:26Z</time>
      </trkpt>
      <trkpt lat="50.81629" lon="3.35591">
        <ele>14.8</ele>
        <time>2023-10-28T07:09:27Z</time>
      </trkpt>
      <trkpt lat="50.81629" lon="3.35601">
        <ele>15</ele>
        <time>2023-10-28T07:09:28Z</time>
      </trkpt>
      <trkpt lat="50.81628" lon="3.35612">
        <ele>15</ele>
        <time>2023-10-28T07:09:29Z</time>
      </trkpt>
      <trkpt lat="50.81626" lon="3.35621">
        <ele>15</ele>
        <time>2023-10-28T07:09:30Z</time>
      </trkpt>
      <trkpt lat="50.81625" lon="3.35628">
        <ele>14.8</ele>
        <time>2023-10-28T07:09:31Z</time>
      </trkpt>
      <trkpt lat="50.81622" lon="3.35646">
        <ele>14.8</ele>
        <time>2023-10-28T07:09:33Z</time>
      </trkpt>
      <trkpt lat="50.81613" lon="3.35701">
        <ele>13.6</ele>
        <time>2023-10-28T07:09:39Z</time>
      </trkpt>
      <trkpt lat="50.81607" lon="3.35733">
        <ele>13</ele>
        <time>2023-10-28T07:09:43Z</time>
      </trkpt>
      <trkpt lat="50.81601" lon="3.35757">
        <ele>12.6</ele>
        <time>2023-10-28T07:09:46Z</time>
      </trkpt>
      <trkpt lat="50.81599" lon="3.35767">
        <ele>12.6</ele>
        <time>2023-10-28T07:09:47Z</time>
      </trkpt>
      <trkpt lat="50.81598" lon="3.35776">
        <ele>12.2</ele>
        <time>2023-10-28T07:09:48Z</time>
      </trkpt>
      <trkpt lat="50.81596" lon="3.35782">
        <ele>12.2</ele>
        <time>2023-10-28T07:09:49Z</time>
      </trkpt>
      <trkpt lat="50.81591" lon="3.35808">
        <ele>12</ele>
        <time>2023-10-28T07:09:52Z</time>
      </trkpt>
      <trkpt lat="50.81574" lon="3.35886">
        <ele>13</ele>
        <time>2023-10-28T07:10:01Z</time>
      </trkpt>
      <trkpt lat="50.81567" lon="3.35911">
        <ele>13.2</ele>
        <time>2023-10-28T07:10:04Z</time>
      </trkpt>
      <trkpt lat="50.81566" lon="3.3592">
        <ele>13.2</ele>
        <time>2023-10-28T07:10:05Z</time>
      </trkpt>
      <trkpt lat="50.81564" lon="3.35928">
        <ele>13.4</ele>
        <time>2023-10-28T07:10:06Z</time>
      </trkpt>
      <trkpt lat="50.81563" lon="3.35937">
        <ele>13.4</ele>
        <time>2023-10-28T07:10:07Z</time>
      </trkpt>
      <trkpt lat="50.81561" lon="3.35946">
        <ele>13.6</ele>
        <time>2023-10-28T07:10:08Z</time>
      </trkpt>
      <trkpt lat="50.81548" lon="3.35996">
        <ele>13.2</ele>
        <time>2023-10-28T07:10:14Z</time>
      </trkpt>
      <trkpt lat="50.81535" lon="3.36048">
        <ele>13</ele>
        <time>2023-10-28T07:10:20Z</time>
      </trkpt>
      <trkpt lat="50.81531" lon="3.36067">
        <ele>13</ele>
        <time>2023-10-28T07:10:22Z</time>
      </trkpt>
      <trkpt lat="50.81521" lon="3.36113">
        <ele>13</ele>
        <time>2023-10-28T07:10:27Z</time>
      </trkpt>
      <trkpt lat="50.81513" lon="3.3615">
        <ele>13.4</ele>
        <time>2023-10-28T07:10:31Z</time>
      </trkpt>
      <trkpt lat="50.81503" lon="3.36203">
        <ele>13.6</ele>
        <time>2023-10-28T07:10:37Z</time>
      </trkpt>
      <trkpt lat="50.81501" lon="3.36213">
        <ele>13.6</ele>
        <time>2023-10-28T07:10:38Z</time>
      </trkpt>
      <trkpt lat="50.815" lon="3.36221">
        <ele>13.6</ele>
        <time>2023-10-28T07:10:39Z</time>
      </trkpt>
      <trkpt lat="50.81498" lon="3.36256">
        <ele>13.4</ele>
        <time>2023-10-28T07:10:43Z</time>
      </trkpt>
      <trkpt lat="50.81498" lon="3.36266">
        <ele>13.4</ele>
        <time>2023-10-28T07:10:44Z</time>
      </trkpt>
      <trkpt lat="50.81497" lon="3.36275">
        <ele>13.2</ele>
        <time>2023-10-28T07:10:45Z</time>
      </trkpt>
      <trkpt lat="50.81497" lon="3.36282">
        <ele>13.2</ele>
        <time>2023-10-28T07:10:46Z</time>
      </trkpt>
      <trkpt lat="50.81497" lon="3.36291">
        <ele>13</ele>
        <time>2023-10-28T07:10:47Z</time>
      </trkpt>
      <trkpt lat="50.81496" lon="3.363">
        <ele>13</ele>
        <time>2023-10-28T07:10:48Z</time>
      </trkpt>
      <trkpt lat="50.81493" lon="3.36389">
        <ele>13</ele>
        <time>2023-10-28T07:10:58Z</time>
      </trkpt>
      <trkpt lat="50.81493" lon="3.36397">
        <ele>12.8</ele>
        <time>2023-10-28T07:10:59Z</time>
      </trkpt>
      <trkpt lat="50.81493" lon="3.36407">
        <ele>12.8</ele>
        <time>2023-10-28T07:11:00Z</time>
      </trkpt>
      <trkpt lat="50.81493" lon="3.36413">
        <ele>12.8</ele>
        <time>2023-10-28T07:11:01Z</time>
      </trkpt>
      <trkpt lat="50.81493" lon="3.36421">
        <ele>12.8</ele>
        <time>2023-10-28T07:11:02Z</time>
      </trkpt>
      <trkpt lat="50.81492" lon="3.36431">
        <ele>12.8</ele>
        <time>2023-10-28T07:11:03Z</time>
      </trkpt>
      <trkpt lat="50.81492" lon="3.36438">
        <ele>12.8</ele>
        <time>2023-10-28T07:11:04Z</time>
      </trkpt>
      <trkpt lat="50.81491" lon="3.36448">
        <ele>12.8</ele>
        <time>2023-10-28T07:11:05Z</time>
      </trkpt>
      <trkpt lat="50.81491" lon="3.36454">
        <ele>13</ele>
        <time>2023-10-28T07:11:06Z</time>
      </trkpt>
      <trkpt lat="50.81491" lon="3.36462">
        <ele>13</ele>
        <time>2023-10-28T07:11:07Z</time>
      </trkpt>
      <trkpt lat="50.8149" lon="3.36469">
        <ele>13</ele>
        <time>2023-10-28T07:11:08Z</time>
      </trkpt>
      <trkpt lat="50.81487" lon="3.36476">
        <ele>13</ele>
        <time>2023-10-28T07:11:09Z</time>
      </trkpt>
      <trkpt lat="50.81483" lon="3.3648">
        <ele>13</ele>
        <time>2023-10-28T07:11:10Z</time>
      </trkpt>
      <trkpt lat="50.8148" lon="3.36483">
        <ele>13</ele>
        <time>2023-10-28T07:11:11Z</time>
      </trkpt>
      <trkpt lat="50.81476" lon="3.36488">
        <ele>13.2</ele>
        <time>2023-10-28T07:11:12Z</time>
      </trkpt>
      <trkpt lat="50.81471" lon="3.36494">
        <ele>13.2</ele>
        <time>2023-10-28T07:11:13Z</time>
      </trkpt>
      <trkpt lat="50.81467" lon="3.36499">
        <ele>13.2</ele>
        <time>2023-10-28T07:11:14Z</time>
      </trkpt>
      <trkpt lat="50.81446" lon="3.36525">
        <ele>13.4</ele>
        <time>2023-10-28T07:11:19Z</time>
      </trkpt>
      <trkpt lat="50.81409" lon="3.36578">
        <ele>13.8</ele>
        <time>2023-10-28T07:11:28Z</time>
      </trkpt>
      <trkpt lat="50.81397" lon="3.36595">
        <ele>13.6</ele>
        <time>2023-10-28T07:11:31Z</time>
      </trkpt>
      <trkpt lat="50.81393" lon="3.366">
        <ele>13.6</ele>
        <time>2023-10-28T07:11:32Z</time>
      </trkpt>
      <trkpt lat="50.81388" lon="3.36606">
        <ele>13.4</ele>
        <time>2023-10-28T07:11:33Z</time>
      </trkpt>
      <trkpt lat="50.81384" lon="3.36611">
        <ele>13.4</ele>
        <time>2023-10-28T07:11:34Z</time>
      </trkpt>
      <trkpt lat="50.81381" lon="3.36616">
        <ele>13.4</ele>
        <time>2023-10-28T07:11:35Z</time>
      </trkpt>
      <trkpt lat="50.81377" lon="3.36621">
        <ele>13.2</ele>
        <time>2023-10-28T07:11:36Z</time>
      </trkpt>
      <trkpt lat="50.81373" lon="3.36626">
        <ele>13.2</ele>
        <time>2023-10-28T07:11:37Z</time>
      </trkpt>
      <trkpt lat="50.81369" lon="3.36631">
        <ele>13</ele>
        <time>2023-10-28T07:11:38Z</time>
      </trkpt>
      <trkpt lat="50.81365" lon="3.36636">
        <ele>12.6</ele>
        <time>2023-10-28T07:11:39Z</time>
      </trkpt>
      <trkpt lat="50.81361" lon="3.36641">
        <ele>12.6</ele>
        <time>2023-10-28T07:11:40Z</time>
      </trkpt>
      <trkpt lat="50.81357" lon="3.36646">
        <ele>12.6</ele>
        <time>2023-10-28T07:11:41Z</time>
      </trkpt>
      <trkpt lat="50.81353" lon="3.36651">
        <ele>12.4</ele>
        <time>2023-10-28T07:11:42Z</time>
      </trkpt>
      <trkpt lat="50.8135" lon="3.36656">
        <ele>12.4</ele>
        <time>2023-10-28T07:11:43Z</time>
      </trkpt>
      <trkpt lat="50.81346" lon="3.3666">
        <ele>12.4</ele>
        <time>2023-10-28T07:11:44Z</time>
      </trkpt>
      <trkpt lat="50.81342" lon="3.36665">
        <ele>12.4</ele>
        <time>2023-10-28T07:11:45Z</time>
      </trkpt>
      <trkpt lat="50.81339" lon="3.3667">
        <ele>12.4</ele>
        <time>2023-10-28T07:11:46Z</time>
      </trkpt>
      <trkpt lat="50.81335" lon="3.36674">
        <ele>12.4</ele>
        <time>2023-10-28T07:11:47Z</time>
      </trkpt>
      <trkpt lat="50.81332" lon="3.36679">
        <ele>12.8</ele>
        <time>2023-10-28T07:11:48Z</time>
      </trkpt>
      <trkpt lat="50.81328" lon="3.36683">
        <ele>13</ele>
        <time>2023-10-28T07:11:49Z</time>
      </trkpt>
      <trkpt lat="50.81325" lon="3.36688">
        <ele>13.2</ele>
        <time>2023-10-28T07:11:50Z</time>
      </trkpt>
      <trkpt lat="50.81321" lon="3.36692">
        <ele>13.4</ele>
        <time>2023-10-28T07:11:51Z</time>
      </trkpt>
      <trkpt lat="50.81318" lon="3.36697">
        <ele>13.4</ele>
        <time>2023-10-28T07:11:52Z</time>
      </trkpt>
      <trkpt lat="50.81315" lon="3.36701">
        <ele>13.4</ele>
        <time>2023-10-28T07:11:53Z</time>
      </trkpt>
      <trkpt lat="50.81312" lon="3.36705">
        <ele>13.4</ele>
        <time>2023-10-28T07:11:54Z</time>
      </trkpt>
      <trkpt lat="50.81309" lon="3.36709">
        <ele>13.6</ele>
        <time>2023-10-28T07:11:55Z</time>
      </trkpt>
      <trkpt lat="50.81306" lon="3.36714">
        <ele>13.8</ele>
        <time>2023-10-28T07:11:56Z</time>
      </trkpt>
      <trkpt lat="50.81303" lon="3.36718">
        <ele>14</ele>
        <time>2023-10-28T07:11:57Z</time>
      </trkpt>
      <trkpt lat="50.81299" lon="3.36722">
        <ele>14.2</ele>
        <time>2023-10-28T07:11:58Z</time>
      </trkpt>
      <trkpt lat="50.81296" lon="3.36726">
        <ele>14.6</ele>
        <time>2023-10-28T07:11:59Z</time>
      </trkpt>
      <trkpt lat="50.81293" lon="3.3673">
        <ele>14.8</ele>
        <time>2023-10-28T07:12:00Z</time>
      </trkpt>
      <trkpt lat="50.8129" lon="3.36734">
        <ele>14.8</ele>
        <time>2023-10-28T07:12:01Z</time>
      </trkpt>
      <trkpt lat="50.81287" lon="3.36738">
        <ele>15</ele>
        <time>2023-10-28T07:12:02Z</time>
      </trkpt>
      <trkpt lat="50.81278" lon="3.36751">
        <ele>15.2</ele>
        <time>2023-10-28T07:12:05Z</time>
      </trkpt>
      <trkpt lat="50.81275" lon="3.36756">
        <ele>15.6</ele>
        <time>2023-10-28T07:12:06Z</time>
      </trkpt>
      <trkpt lat="50.8127" lon="3.36765">
        <ele>16.4</ele>
        <time>2023-10-28T07:12:08Z</time>
      </trkpt>
      <trkpt lat="50.81267" lon="3.36771">
        <ele>16.8</ele>
        <time>2023-10-28T07:12:09Z</time>
      </trkpt>
      <trkpt lat="50.81264" lon="3.36776">
        <ele>17.2</ele>
        <time>2023-10-28T07:12:10Z</time>
      </trkpt>
      <trkpt lat="50.81262" lon="3.36782">
        <ele>17.4</ele>
        <time>2023-10-28T07:12:11Z</time>
      </trkpt>
      <trkpt lat="50.81259" lon="3.36787">
        <ele>17.6</ele>
        <time>2023-10-28T07:12:12Z</time>
      </trkpt>
      <trkpt lat="50.81256" lon="3.36792">
        <ele>17.8</ele>
        <time>2023-10-28T07:12:13Z</time>
      </trkpt>
      <trkpt lat="50.81253" lon="3.36797">
        <ele>18</ele>
        <time>2023-10-28T07:12:14Z</time>
      </trkpt>
      <trkpt lat="50.8125" lon="3.36802">
        <ele>18.2</ele>
        <time>2023-10-28T07:12:15Z</time>
      </trkpt>
      <trkpt lat="50.81246" lon="3.36808">
        <ele>18.2</ele>
        <time>2023-10-28T07:12:16Z</time>
      </trkpt>
      <trkpt lat="50.81243" lon="3.36813">
        <ele>18.2</ele>
        <time>2023-10-28T07:12:17Z</time>
      </trkpt>
      <trkpt lat="50.8124" lon="3.36818">
        <ele>18.2</ele>
        <time>2023-10-28T07:12:18Z</time>
      </trkpt>
      <trkpt lat="50.81236" lon="3.36823">
        <ele>18.4</ele>
        <time>2023-10-28T07:12:19Z</time>
      </trkpt>
      <trkpt lat="50.81233" lon="3.36827">
        <ele>18.4</ele>
        <time>2023-10-28T07:12:20Z</time>
      </trkpt>
      <trkpt lat="50.81229" lon="3.36831">
        <ele>18.4</ele>
        <time>2023-10-28T07:12:21Z</time>
      </trkpt>
      <trkpt lat="50.81226" lon="3.36836">
        <ele>18.4</ele>
        <time>2023-10-28T07:12:22Z</time>
      </trkpt>
      <trkpt lat="50.81222" lon="3.3684">
        <ele>18.4</ele>
        <time>2023-10-28T07:12:23Z</time>
      </trkpt>
      <trkpt lat="50.81219" lon="3.36845">
        <ele>18.4</ele>
        <time>2023-10-28T07:12:24Z</time>
      </trkpt>
      <trkpt lat="50.81216" lon="3.36849">
        <ele>18.4</ele>
        <time>2023-10-28T07:12:25Z</time>
      </trkpt>
      <trkpt lat="50.81213" lon="3.36854">
        <ele>18.2</ele>
        <time>2023-10-28T07:12:26Z</time>
      </trkpt>
      <trkpt lat="50.8121" lon="3.36859">
        <ele>18</ele>
        <time>2023-10-28T07:12:27Z</time>
      </trkpt>
      <trkpt lat="50.81207" lon="3.36864">
        <ele>17.8</ele>
        <time>2023-10-28T07:12:28Z</time>
      </trkpt>
      <trkpt lat="50.81204" lon="3.36869">
        <ele>17.8</ele>
        <time>2023-10-28T07:12:29Z</time>
      </trkpt>
      <trkpt lat="50.81202" lon="3.36875">
        <ele>17.8</ele>
        <time>2023-10-28T07:12:30Z</time>
      </trkpt>
      <trkpt lat="50.812" lon="3.36881">
        <ele>17.8</ele>
        <time>2023-10-28T07:12:31Z</time>
      </trkpt>
      <trkpt lat="50.812" lon="3.36887">
        <ele>17.8</ele>
        <time>2023-10-28T07:12:32Z</time>
      </trkpt>
      <trkpt lat="50.81201" lon="3.36892">
        <ele>17.8</ele>
        <time>2023-10-28T07:12:33Z</time>
      </trkpt>
      <trkpt lat="50.81203" lon="3.36894">
        <ele>17.8</ele>
        <time>2023-10-28T07:12:34Z</time>
      </trkpt>
      <trkpt lat="50.81207" lon="3.36895">
        <ele>17.8</ele>
        <time>2023-10-28T07:12:35Z</time>
      </trkpt>
      <trkpt lat="50.81218" lon="3.36899">
        <ele>18.2</ele>
        <time>2023-10-28T07:12:38Z</time>
      </trkpt>
      <trkpt lat="50.81222" lon="3.36901">
        <ele>18.6</ele>
        <time>2023-10-28T07:12:39Z</time>
      </trkpt>
      <trkpt lat="50.81231" lon="3.36907">
        <ele>19.8</ele>
        <time>2023-10-28T07:12:41Z</time>
      </trkpt>
      <trkpt lat="50.81239" lon="3.36915">
        <ele>20.8</ele>
        <time>2023-10-28T07:12:43Z</time>
      </trkpt>
      <trkpt lat="50.81247" lon="3.36923">
        <ele>21.6</ele>
        <time>2023-10-28T07:12:45Z</time>
      </trkpt>
      <trkpt lat="50.8125" lon="3.36927">
        <ele>21.6</ele>
        <time>2023-10-28T07:12:46Z</time>
      </trkpt>
      <trkpt lat="50.81254" lon="3.36932">
        <ele>21.8</ele>
        <time>2023-10-28T07:12:47Z</time>
      </trkpt>
      <trkpt lat="50.81257" lon="3.36937">
        <ele>21.8</ele>
        <time>2023-10-28T07:12:48Z</time>
      </trkpt>
      <trkpt lat="50.81261" lon="3.36941">
        <ele>22</ele>
        <time>2023-10-28T07:12:49Z</time>
      </trkpt>
      <trkpt lat="50.81264" lon="3.36946">
        <ele>22</ele>
        <time>2023-10-28T07:12:50Z</time>
      </trkpt>
      <trkpt lat="50.81268" lon="3.36951">
        <ele>22.2</ele>
        <time>2023-10-28T07:12:51Z</time>
      </trkpt>
      <trkpt lat="50.81271" lon="3.36956">
        <ele>22.2</ele>
        <time>2023-10-28T07:12:52Z</time>
      </trkpt>
      <trkpt lat="50.81274" lon="3.3696">
        <ele>22.4</ele>
        <time>2023-10-28T07:12:53Z</time>
      </trkpt>
      <trkpt lat="50.81277" lon="3.36965">
        <ele>22.4</ele>
        <time>2023-10-28T07:12:54Z</time>
      </trkpt>
      <trkpt lat="50.8128" lon="3.3697">
        <ele>22.6</ele>
        <time>2023-10-28T07:12:55Z</time>
      </trkpt>
      <trkpt lat="50.81283" lon="3.36974">
        <ele>22.8</ele>
        <time>2023-10-28T07:12:56Z</time>
      </trkpt>
      <trkpt lat="50.81286" lon="3.36979">
        <ele>22.8</ele>
        <time>2023-10-28T07:12:57Z</time>
      </trkpt>
      <trkpt lat="50.81289" lon="3.36984">
        <ele>23</ele>
        <time>2023-10-28T07:12:58Z</time>
      </trkpt>
      <trkpt lat="50.81292" lon="3.36989">
        <ele>23.2</ele>
        <time>2023-10-28T07:12:59Z</time>
      </trkpt>
      <trkpt lat="50.81295" lon="3.36994">
        <ele>23.4</ele>
        <time>2023-10-28T07:13:00Z</time>
      </trkpt>
      <trkpt lat="50.81296" lon="3.37">
        <ele>23.4</ele>
        <time>2023-10-28T07:13:01Z</time>
      </trkpt>
      <trkpt lat="50.81295" lon="3.37006">
        <ele>23.6</ele>
        <time>2023-10-28T07:13:02Z</time>
      </trkpt>
      <trkpt lat="50.81293" lon="3.3701">
        <ele>23.6</ele>
        <time>2023-10-28T07:13:03Z</time>
      </trkpt>
      <trkpt lat="50.8129" lon="3.37014">
        <ele>23.6</ele>
        <time>2023-10-28T07:13:04Z</time>
      </trkpt>
      <trkpt lat="50.81287" lon="3.37018">
        <ele>23.8</ele>
        <time>2023-10-28T07:13:05Z</time>
      </trkpt>
      <trkpt lat="50.81284" lon="3.37022">
        <ele>23.8</ele>
        <time>2023-10-28T07:13:06Z</time>
      </trkpt>
      <trkpt lat="50.8128" lon="3.37026">
        <ele>23.8</ele>
        <time>2023-10-28T07:13:07Z</time>
      </trkpt>
      <trkpt lat="50.81277" lon="3.37031">
        <ele>24</ele>
        <time>2023-10-28T07:13:08Z</time>
      </trkpt>
      <trkpt lat="50.81273" lon="3.37034">
        <ele>24</ele>
        <time>2023-10-28T07:13:09Z</time>
      </trkpt>
      <trkpt lat="50.8127" lon="3.37039">
        <ele>24</ele>
        <time>2023-10-28T07:13:10Z</time>
      </trkpt>
      <trkpt lat="50.81267" lon="3.37042">
        <ele>24.2</ele>
        <time>2023-10-28T07:13:11Z</time>
      </trkpt>
      <trkpt lat="50.81263" lon="3.37046">
        <ele>24.2</ele>
        <time>2023-10-28T07:13:12Z</time>
      </trkpt>
      <trkpt lat="50.81261" lon="3.3705">
        <ele>24.2</ele>
        <time>2023-10-28T07:13:13Z</time>
      </trkpt>
      <trkpt lat="50.81258" lon="3.37054">
        <ele>24.4</ele>
        <time>2023-10-28T07:13:14Z</time>
      </trkpt>
      <trkpt lat="50.81254" lon="3.37057">
        <ele>24.6</ele>
        <time>2023-10-28T07:13:15Z</time>
      </trkpt>
      <trkpt lat="50.81251" lon="3.37061">
        <ele>24.6</ele>
        <time>2023-10-28T07:13:16Z</time>
      </trkpt>
      <trkpt lat="50.81248" lon="3.37064">
        <ele>24.8</ele>
        <time>2023-10-28T07:13:17Z</time>
      </trkpt>
      <trkpt lat="50.81245" lon="3.37068">
        <ele>24.8</ele>
        <time>2023-10-28T07:13:18Z</time>
      </trkpt>
      <trkpt lat="50.81242" lon="3.37073">
        <ele>25</ele>
        <time>2023-10-28T07:13:19Z</time>
      </trkpt>
      <trkpt lat="50.81238" lon="3.37077">
        <ele>25</ele>
        <time>2023-10-28T07:13:20Z</time>
      </trkpt>
      <trkpt lat="50.81235" lon="3.37081">
        <ele>25</ele>
        <time>2023-10-28T07:13:21Z</time>
      </trkpt>
      <trkpt lat="50.81232" lon="3.37085">
        <ele>25</ele>
        <time>2023-10-28T07:13:22Z</time>
      </trkpt>
      <trkpt lat="50.81228" lon="3.37089">
        <ele>25</ele>
        <time>2023-10-28T07:13:23Z</time>
      </trkpt>
      <trkpt lat="50.81222" lon="3.37097">
        <ele>25.2</ele>
        <time>2023-10-28T07:13:25Z</time>
      </trkpt>
      <trkpt lat="50.81206" lon="3.37117">
        <ele>26.6</ele>
        <time>2023-10-28T07:13:30Z</time>
      </trkpt>
      <trkpt lat="50.81199" lon="3.37126">
        <ele>27.6</ele>
        <time>2023-10-28T07:13:32Z</time>
      </trkpt>
      <trkpt lat="50.81195" lon="3.3713">
        <ele>27.8</ele>
        <time>2023-10-28T07:13:33Z</time>
      </trkpt>
      <trkpt lat="50.81191" lon="3.37135">
        <ele>28</ele>
        <time>2023-10-28T07:13:34Z</time>
      </trkpt>
      <trkpt lat="50.81188" lon="3.3714">
        <ele>28</ele>
        <time>2023-10-28T07:13:35Z</time>
      </trkpt>
      <trkpt lat="50.81184" lon="3.37145">
        <ele>28</ele>
        <time>2023-10-28T07:13:36Z</time>
      </trkpt>
      <trkpt lat="50.81181" lon="3.37149">
        <ele>28.2</ele>
        <time>2023-10-28T07:13:37Z</time>
      </trkpt>
      <trkpt lat="50.81177" lon="3.37155">
        <ele>28.2</ele>
        <time>2023-10-28T07:13:38Z</time>
      </trkpt>
      <trkpt lat="50.81173" lon="3.3716">
        <ele>28.2</ele>
        <time>2023-10-28T07:13:39Z</time>
      </trkpt>
      <trkpt lat="50.81169" lon="3.37165">
        <ele>28.4</ele>
        <time>2023-10-28T07:13:40Z</time>
      </trkpt>
      <trkpt lat="50.81166" lon="3.3717">
        <ele>28.4</ele>
        <time>2023-10-28T07:13:41Z</time>
      </trkpt>
      <trkpt lat="50.81162" lon="3.37176">
        <ele>28.4</ele>
        <time>2023-10-28T07:13:42Z</time>
      </trkpt>
      <trkpt lat="50.81158" lon="3.3718">
        <ele>28.4</ele>
        <time>2023-10-28T07:13:43Z</time>
      </trkpt>
      <trkpt lat="50.81154" lon="3.37185">
        <ele>28.6</ele>
        <time>2023-10-28T07:13:44Z</time>
      </trkpt>
      <trkpt lat="50.8115" lon="3.37189">
        <ele>28.6</ele>
        <time>2023-10-28T07:13:45Z</time>
      </trkpt>
      <trkpt lat="50.81146" lon="3.37194">
        <ele>28.6</ele>
        <time>2023-10-28T07:13:46Z</time>
      </trkpt>
      <trkpt lat="50.81142" lon="3.37198">
        <ele>28.4</ele>
        <time>2023-10-28T07:13:47Z</time>
      </trkpt>
      <trkpt lat="50.81139" lon="3.37202">
        <ele>28.4</ele>
        <time>2023-10-28T07:13:48Z</time>
      </trkpt>
      <trkpt lat="50.81135" lon="3.37206">
        <ele>28.4</ele>
        <time>2023-10-28T07:13:49Z</time>
      </trkpt>
      <trkpt lat="50.81131" lon="3.3721">
        <ele>28.6</ele>
        <time>2023-10-28T07:13:50Z</time>
      </trkpt>
      <trkpt lat="50.81127" lon="3.37214">
        <ele>28.4</ele>
        <time>2023-10-28T07:13:51Z</time>
      </trkpt>
      <trkpt lat="50.81123" lon="3.37218">
        <ele>28.4</ele>
        <time>2023-10-28T07:13:52Z</time>
      </trkpt>
      <trkpt lat="50.8112" lon="3.37222">
        <ele>28.4</ele>
        <time>2023-10-28T07:13:53Z</time>
      </trkpt>
      <trkpt lat="50.81116" lon="3.37227">
        <ele>28.4</ele>
        <time>2023-10-28T07:13:54Z</time>
      </trkpt>
      <trkpt lat="50.81084" lon="3.37267">
        <ele>28</ele>
        <time>2023-10-28T07:14:03Z</time>
      </trkpt>
      <trkpt lat="50.81081" lon="3.37272">
        <ele>27.8</ele>
        <time>2023-10-28T07:14:04Z</time>
      </trkpt>
      <trkpt lat="50.81077" lon="3.37276">
        <ele>27.8</ele>
        <time>2023-10-28T07:14:05Z</time>
      </trkpt>
      <trkpt lat="50.81074" lon="3.37281">
        <ele>27.8</ele>
        <time>2023-10-28T07:14:06Z</time>
      </trkpt>
      <trkpt lat="50.81071" lon="3.37285">
        <ele>27.8</ele>
        <time>2023-10-28T07:14:07Z</time>
      </trkpt>
      <trkpt lat="50.81068" lon="3.3729">
        <ele>27.8</ele>
        <time>2023-10-28T07:14:08Z</time>
      </trkpt>
      <trkpt lat="50.81065" lon="3.37295">
        <ele>27.8</ele>
        <time>2023-10-28T07:14:09Z</time>
      </trkpt>
      <trkpt lat="50.81055" lon="3.37309">
        <ele>27.8</ele>
        <time>2023-10-28T07:14:12Z</time>
      </trkpt>
      <trkpt lat="50.81028" lon="3.37344">
        <ele>28.6</ele>
        <time>2023-10-28T07:14:20Z</time>
      </trkpt>
      <trkpt lat="50.81018" lon="3.3736">
        <ele>28.6</ele>
        <time>2023-10-28T07:14:23Z</time>
      </trkpt>
      <trkpt lat="50.80982" lon="3.3741">
        <ele>29</ele>
        <time>2023-10-28T07:14:33Z</time>
      </trkpt>
      <trkpt lat="50.80961" lon="3.37438">
        <ele>29</ele>
        <time>2023-10-28T07:14:39Z</time>
      </trkpt>
      <trkpt lat="50.80959" lon="3.37441">
        <ele>29</ele>
        <time>2023-10-28T07:14:40Z</time>
      </trkpt>
      <trkpt lat="50.80955" lon="3.37443">
        <ele>29.2</ele>
        <time>2023-10-28T07:14:41Z</time>
      </trkpt>
      <trkpt lat="50.80939" lon="3.37457">
        <ele>29.2</ele>
        <time>2023-10-28T07:14:46Z</time>
      </trkpt>
      <trkpt lat="50.80935" lon="3.37459">
        <ele>29.2</ele>
        <time>2023-10-28T07:14:47Z</time>
      </trkpt>
      <trkpt lat="50.80933" lon="3.37461">
        <ele>29.2</ele>
        <time>2023-10-28T07:14:48Z</time>
      </trkpt>
      <trkpt lat="50.80927" lon="3.37465">
        <ele>29.6</ele>
        <time>2023-10-28T07:14:50Z</time>
      </trkpt>
      <trkpt lat="50.80925" lon="3.37467">
        <ele>29.8</ele>
        <time>2023-10-28T07:14:51Z</time>
      </trkpt>
      <trkpt lat="50.80922" lon="3.37469">
        <ele>30.2</ele>
        <time>2023-10-28T07:14:52Z</time>
      </trkpt>
      <trkpt lat="50.80916" lon="3.37473">
        <ele>31</ele>
        <time>2023-10-28T07:14:54Z</time>
      </trkpt>
      <trkpt lat="50.80904" lon="3.37483">
        <ele>31.6</ele>
        <time>2023-10-28T07:14:58Z</time>
      </trkpt>
      <trkpt lat="50.80894" lon="3.3749">
        <ele>32</ele>
        <time>2023-10-28T07:15:01Z</time>
      </trkpt>
      <trkpt lat="50.80891" lon="3.37492">
        <ele>32</ele>
        <time>2023-10-28T07:15:02Z</time>
      </trkpt>
      <trkpt lat="50.80888" lon="3.37495">
        <ele>32</ele>
        <time>2023-10-28T07:15:03Z</time>
      </trkpt>
      <trkpt lat="50.80885" lon="3.37497">
        <ele>32</ele>
        <time>2023-10-28T07:15:04Z</time>
      </trkpt>
      <trkpt lat="50.80882" lon="3.37499">
        <ele>32</ele>
        <time>2023-10-28T07:15:05Z</time>
      </trkpt>
      <trkpt lat="50.8088" lon="3.37501">
        <ele>32</ele>
        <time>2023-10-28T07:15:06Z</time>
      </trkpt>
      <trkpt lat="50.80878" lon="3.37504">
        <ele>32</ele>
        <time>2023-10-28T07:15:07Z</time>
      </trkpt>
      <trkpt lat="50.80877" lon="3.37507">
        <ele>32.2</ele>
        <time>2023-10-28T07:15:08Z</time>
      </trkpt>
      <trkpt lat="50.80876" lon="3.37512">
        <ele>32.2</ele>
        <time>2023-10-28T07:15:09Z</time>
      </trkpt>
      <trkpt lat="50.80877" lon="3.37516">
        <ele>32.2</ele>
        <time>2023-10-28T07:15:10Z</time>
      </trkpt>
      <trkpt lat="50.80878" lon="3.3752">
        <ele>32.2</ele>
        <time>2023-10-28T07:15:11Z</time>
      </trkpt>
      <trkpt lat="50.8088" lon="3.37524">
        <ele>32.2</ele>
        <time>2023-10-28T07:15:12Z</time>
      </trkpt>
      <trkpt lat="50.80882" lon="3.37528">
        <ele>32.2</ele>
        <time>2023-10-28T07:15:13Z</time>
      </trkpt>
      <trkpt lat="50.80883" lon="3.37533">
        <ele>32.2</ele>
        <time>2023-10-28T07:15:14Z</time>
      </trkpt>
      <trkpt lat="50.80886" lon="3.37543">
        <ele>32.2</ele>
        <time>2023-10-28T07:15:16Z</time>
      </trkpt>
      <trkpt lat="50.80888" lon="3.37552">
        <ele>33.6</ele>
        <time>2023-10-28T07:15:18Z</time>
      </trkpt>
      <trkpt lat="50.8089" lon="3.37562">
        <ele>35</ele>
        <time>2023-10-28T07:15:20Z</time>
      </trkpt>
      <trkpt lat="50.80892" lon="3.37567">
        <ele>35.2</ele>
        <time>2023-10-28T07:15:21Z</time>
      </trkpt>
      <trkpt lat="50.80893" lon="3.37572">
        <ele>35.6</ele>
        <time>2023-10-28T07:15:22Z</time>
      </trkpt>
      <trkpt lat="50.80894" lon="3.37578">
        <ele>35.8</ele>
        <time>2023-10-28T07:15:23Z</time>
      </trkpt>
      <trkpt lat="50.80896" lon="3.37584">
        <ele>36.4</ele>
        <time>2023-10-28T07:15:24Z</time>
      </trkpt>
      <trkpt lat="50.80897" lon="3.37589">
        <ele>36.6</ele>
        <time>2023-10-28T07:15:25Z</time>
      </trkpt>
      <trkpt lat="50.80898" lon="3.37594">
        <ele>36.6</ele>
        <time>2023-10-28T07:15:26Z</time>
      </trkpt>
      <trkpt lat="50.809" lon="3.37599">
        <ele>36.8</ele>
        <time>2023-10-28T07:15:27Z</time>
      </trkpt>
      <trkpt lat="50.80901" lon="3.37605">
        <ele>37.2</ele>
        <time>2023-10-28T07:15:28Z</time>
      </trkpt>
      <trkpt lat="50.80903" lon="3.37611">
        <ele>37.4</ele>
        <time>2023-10-28T07:15:29Z</time>
      </trkpt>
      <trkpt lat="50.80904" lon="3.37617">
        <ele>37.6</ele>
        <time>2023-10-28T07:15:30Z</time>
      </trkpt>
      <trkpt lat="50.80905" lon="3.37623">
        <ele>38</ele>
        <time>2023-10-28T07:15:31Z</time>
      </trkpt>
      <trkpt lat="50.80907" lon="3.37628">
        <ele>38.4</ele>
        <time>2023-10-28T07:15:32Z</time>
      </trkpt>
      <trkpt lat="50.80908" lon="3.37633">
        <ele>38.6</ele>
        <time>2023-10-28T07:15:33Z</time>
      </trkpt>
      <trkpt lat="50.80909" lon="3.37637">
        <ele>39</ele>
        <time>2023-10-28T07:15:34Z</time>
      </trkpt>
      <trkpt lat="50.8091" lon="3.37642">
        <ele>39.2</ele>
        <time>2023-10-28T07:15:35Z</time>
      </trkpt>
      <trkpt lat="50.80911" lon="3.37648">
        <ele>39.6</ele>
        <time>2023-10-28T07:15:36Z</time>
      </trkpt>
      <trkpt lat="50.80911" lon="3.37653">
        <ele>39.8</ele>
        <time>2023-10-28T07:15:37Z</time>
      </trkpt>
      <trkpt lat="50.80912" lon="3.37657">
        <ele>39.8</ele>
        <time>2023-10-28T07:15:38Z</time>
      </trkpt>
      <trkpt lat="50.80913" lon="3.37661">
        <ele>40</ele>
        <time>2023-10-28T07:15:39Z</time>
      </trkpt>
      <trkpt lat="50.80914" lon="3.37666">
        <ele>40.4</ele>
        <time>2023-10-28T07:15:40Z</time>
      </trkpt>
      <trkpt lat="50.80916" lon="3.3767">
        <ele>40.2</ele>
        <time>2023-10-28T07:15:41Z</time>
      </trkpt>
      <trkpt lat="50.80917" lon="3.37674">
        <ele>40.4</ele>
        <time>2023-10-28T07:15:42Z</time>
      </trkpt>
      <trkpt lat="50.80918" lon="3.37679">
        <ele>40.4</ele>
        <time>2023-10-28T07:15:43Z</time>
      </trkpt>
      <trkpt lat="50.80919" lon="3.37683">
        <ele>40.6</ele>
        <time>2023-10-28T07:15:44Z</time>
      </trkpt>
      <trkpt lat="50.8092" lon="3.37688">
        <ele>40.8</ele>
        <time>2023-10-28T07:15:45Z</time>
      </trkpt>
      <trkpt lat="50.80921" lon="3.37692">
        <ele>41</ele>
        <time>2023-10-28T07:15:46Z</time>
      </trkpt>
      <trkpt lat="50.80922" lon="3.37697">
        <ele>41.2</ele>
        <time>2023-10-28T07:15:47Z</time>
      </trkpt>
      <trkpt lat="50.80923" lon="3.37701">
        <ele>41.4</ele>
        <time>2023-10-28T07:15:48Z</time>
      </trkpt>
      <trkpt lat="50.80925" lon="3.37705">
        <ele>41.6</ele>
        <time>2023-10-28T07:15:49Z</time>
      </trkpt>
      <trkpt lat="50.80926" lon="3.3771">
        <ele>41.8</ele>
        <time>2023-10-28T07:15:50Z</time>
      </trkpt>
      <trkpt lat="50.80927" lon="3.37714">
        <ele>42.2</ele>
        <time>2023-10-28T07:15:51Z</time>
      </trkpt>
      <trkpt lat="50.80928" lon="3.37719">
        <ele>42.4</ele>
        <time>2023-10-28T07:15:52Z</time>
      </trkpt>
      <trkpt lat="50.80929" lon="3.37724">
        <ele>42.6</ele>
        <time>2023-10-28T07:15:53Z</time>
      </trkpt>
      <trkpt lat="50.80931" lon="3.37729">
        <ele>42.8</ele>
        <time>2023-10-28T07:15:54Z</time>
      </trkpt>
      <trkpt lat="50.80932" lon="3.37734">
        <ele>43</ele>
        <time>2023-10-28T07:15:55Z</time>
      </trkpt>
      <trkpt lat="50.80933" lon="3.37739">
        <ele>43.2</ele>
        <time>2023-10-28T07:15:56Z</time>
      </trkpt>
      <trkpt lat="50.80934" lon="3.37744">
        <ele>43.2</ele>
        <time>2023-10-28T07:15:57Z</time>
      </trkpt>
      <trkpt lat="50.80936" lon="3.37749">
        <ele>43.4</ele>
        <time>2023-10-28T07:15:58Z</time>
      </trkpt>
      <trkpt lat="50.80937" lon="3.37753">
        <ele>43.6</ele>
        <time>2023-10-28T07:15:59Z</time>
      </trkpt>
      <trkpt lat="50.80938" lon="3.37758">
        <ele>43.8</ele>
        <time>2023-10-28T07:16:00Z</time>
      </trkpt>
      <trkpt lat="50.80939" lon="3.37762">
        <ele>44</ele>
        <time>2023-10-28T07:16:01Z</time>
      </trkpt>
      <trkpt lat="50.80941" lon="3.37767">
        <ele>44.2</ele>
        <time>2023-10-28T07:16:02Z</time>
      </trkpt>
      <trkpt lat="50.80942" lon="3.37773">
        <ele>44.4</ele>
        <time>2023-10-28T07:16:03Z</time>
      </trkpt>
      <trkpt lat="50.80943" lon="3.37778">
        <ele>44.4</ele>
        <time>2023-10-28T07:16:04Z</time>
      </trkpt>
      <trkpt lat="50.80944" lon="3.37783">
        <ele>44.4</ele>
        <time>2023-10-28T07:16:05Z</time>
      </trkpt>
      <trkpt lat="50.80946" lon="3.37788">
        <ele>44.6</ele>
        <time>2023-10-28T07:16:06Z</time>
      </trkpt>
      <trkpt lat="50.80948" lon="3.37792">
        <ele>44.6</ele>
        <time>2023-10-28T07:16:07Z</time>
      </trkpt>
      <trkpt lat="50.80949" lon="3.37796">
        <ele>44.8</ele>
        <time>2023-10-28T07:16:08Z</time>
      </trkpt>
      <trkpt lat="50.80951" lon="3.37801">
        <ele>44.8</ele>
        <time>2023-10-28T07:16:09Z</time>
      </trkpt>
      <trkpt lat="50.80952" lon="3.37807">
        <ele>45</ele>
        <time>2023-10-28T07:16:10Z</time>
      </trkpt>
      <trkpt lat="50.80954" lon="3.37813">
        <ele>45</ele>
        <time>2023-10-28T07:16:11Z</time>
      </trkpt>
      <trkpt lat="50.80955" lon="3.37819">
        <ele>45</ele>
        <time>2023-10-28T07:16:12Z</time>
      </trkpt>
      <trkpt lat="50.80957" lon="3.37824">
        <ele>45.2</ele>
        <time>2023-10-28T07:16:13Z</time>
      </trkpt>
      <trkpt lat="50.80958" lon="3.3783">
        <ele>45.2</ele>
        <time>2023-10-28T07:16:14Z</time>
      </trkpt>
      <trkpt lat="50.8096" lon="3.37837">
        <ele>45.4</ele>
        <time>2023-10-28T07:16:15Z</time>
      </trkpt>
      <trkpt lat="50.80962" lon="3.37844">
        <ele>45.4</ele>
        <time>2023-10-28T07:16:16Z</time>
      </trkpt>
      <trkpt lat="50.80964" lon="3.37853">
        <ele>45.4</ele>
        <time>2023-10-28T07:16:17Z</time>
      </trkpt>
      <trkpt lat="50.80966" lon="3.37861">
        <ele>45.4</ele>
        <time>2023-10-28T07:16:18Z</time>
      </trkpt>
      <trkpt lat="50.80968" lon="3.37869">
        <ele>45.4</ele>
        <time>2023-10-28T07:16:19Z</time>
      </trkpt>
      <trkpt lat="50.8097" lon="3.37877">
        <ele>45.4</ele>
        <time>2023-10-28T07:16:20Z</time>
      </trkpt>
      <trkpt lat="50.80972" lon="3.37886">
        <ele>45.4</ele>
        <time>2023-10-28T07:16:21Z</time>
      </trkpt>
      <trkpt lat="50.80974" lon="3.37896">
        <ele>45.4</ele>
        <time>2023-10-28T07:16:22Z</time>
      </trkpt>
      <trkpt lat="50.80977" lon="3.37905">
        <ele>45.4</ele>
        <time>2023-10-28T07:16:23Z</time>
      </trkpt>
      <trkpt lat="50.80979" lon="3.37914">
        <ele>45.4</ele>
        <time>2023-10-28T07:16:24Z</time>
      </trkpt>
      <trkpt lat="50.80982" lon="3.37922">
        <ele>45.4</ele>
        <time>2023-10-28T07:16:25Z</time>
      </trkpt>
      <trkpt lat="50.80987" lon="3.37942">
        <ele>44.6</ele>
        <time>2023-10-28T07:16:27Z</time>
      </trkpt>
      <trkpt lat="50.80994" lon="3.37967">
        <ele>43.8</ele>
        <time>2023-10-28T07:16:30Z</time>
      </trkpt>
      <trkpt lat="50.81001" lon="3.37994">
        <ele>42.8</ele>
        <time>2023-10-28T07:16:33Z</time>
      </trkpt>
      <trkpt lat="50.81003" lon="3.38003">
        <ele>42.6</ele>
        <time>2023-10-28T07:16:34Z</time>
      </trkpt>
      <trkpt lat="50.81012" lon="3.38039">
        <ele>41.8</ele>
        <time>2023-10-28T07:16:38Z</time>
      </trkpt>
      <trkpt lat="50.81014" lon="3.38048">
        <ele>41.6</ele>
        <time>2023-10-28T07:16:39Z</time>
      </trkpt>
      <trkpt lat="50.81018" lon="3.38066">
        <ele>41.4</ele>
        <time>2023-10-28T07:16:41Z</time>
      </trkpt>
      <trkpt lat="50.81022" lon="3.38084">
        <ele>41.2</ele>
        <time>2023-10-28T07:16:43Z</time>
      </trkpt>
      <trkpt lat="50.81022" lon="3.38092">
        <ele>41</ele>
        <time>2023-10-28T07:16:44Z</time>
      </trkpt>
      <trkpt lat="50.8102" lon="3.38099">
        <ele>40.8</ele>
        <time>2023-10-28T07:16:45Z</time>
      </trkpt>
      <trkpt lat="50.81017" lon="3.38104">
        <ele>40.8</ele>
        <time>2023-10-28T07:16:46Z</time>
      </trkpt>
      <trkpt lat="50.81014" lon="3.3811">
        <ele>40.8</ele>
        <time>2023-10-28T07:16:47Z</time>
      </trkpt>
      <trkpt lat="50.81011" lon="3.38115">
        <ele>40.6</ele>
        <time>2023-10-28T07:16:48Z</time>
      </trkpt>
      <trkpt lat="50.81007" lon="3.3812">
        <ele>40.6</ele>
        <time>2023-10-28T07:16:49Z</time>
      </trkpt>
      <trkpt lat="50.81004" lon="3.38125">
        <ele>40.6</ele>
        <time>2023-10-28T07:16:50Z</time>
      </trkpt>
      <trkpt lat="50.81" lon="3.38131">
        <ele>40.6</ele>
        <time>2023-10-28T07:16:51Z</time>
      </trkpt>
      <trkpt lat="50.80981" lon="3.38159">
        <ele>40.4</ele>
        <time>2023-10-28T07:16:56Z</time>
      </trkpt>
      <trkpt lat="50.80965" lon="3.38182">
        <ele>40.2</ele>
        <time>2023-10-28T07:17:00Z</time>
      </trkpt>
      <trkpt lat="50.80956" lon="3.38195">
        <ele>40.2</ele>
        <time>2023-10-28T07:17:02Z</time>
      </trkpt>
      <trkpt lat="50.8094" lon="3.38219">
        <ele>40.2</ele>
        <time>2023-10-28T07:17:06Z</time>
      </trkpt>
      <trkpt lat="50.80936" lon="3.38226">
        <ele>40.2</ele>
        <time>2023-10-28T07:17:07Z</time>
      </trkpt>
      <trkpt lat="50.80927" lon="3.3824">
        <ele>39.8</ele>
        <time>2023-10-28T07:17:09Z</time>
      </trkpt>
      <trkpt lat="50.80913" lon="3.38262">
        <ele>39.8</ele>
        <time>2023-10-28T07:17:13Z</time>
      </trkpt>
      <trkpt lat="50.80909" lon="3.38268">
        <ele>39.8</ele>
        <time>2023-10-28T07:17:14Z</time>
      </trkpt>
      <trkpt lat="50.80905" lon="3.38274">
        <ele>39.8</ele>
        <time>2023-10-28T07:17:15Z</time>
      </trkpt>
      <trkpt lat="50.809" lon="3.38281">
        <ele>39.8</ele>
        <time>2023-10-28T07:17:16Z</time>
      </trkpt>
      <trkpt lat="50.80887" lon="3.38301">
        <ele>39.8</ele>
        <time>2023-10-28T07:17:19Z</time>
      </trkpt>
      <trkpt lat="50.80879" lon="3.38317">
        <ele>39.6</ele>
        <time>2023-10-28T07:17:21Z</time>
      </trkpt>
      <trkpt lat="50.80874" lon="3.38324">
        <ele>39.6</ele>
        <time>2023-10-28T07:17:22Z</time>
      </trkpt>
      <trkpt lat="50.80858" lon="3.38347">
        <ele>39.6</ele>
        <time>2023-10-28T07:17:26Z</time>
      </trkpt>
      <trkpt lat="50.80854" lon="3.38354">
        <ele>39.6</ele>
        <time>2023-10-28T07:17:27Z</time>
      </trkpt>
      <trkpt lat="50.80851" lon="3.38359">
        <ele>39.6</ele>
        <time>2023-10-28T07:17:28Z</time>
      </trkpt>
      <trkpt lat="50.80849" lon="3.38363">
        <ele>39.4</ele>
        <time>2023-10-28T07:17:29Z</time>
      </trkpt>
      <trkpt lat="50.80846" lon="3.38367">
        <ele>39.4</ele>
        <time>2023-10-28T07:17:30Z</time>
      </trkpt>
      <trkpt lat="50.80844" lon="3.38371">
        <ele>39.4</ele>
        <time>2023-10-28T07:17:31Z</time>
      </trkpt>
      <trkpt lat="50.8084" lon="3.38376">
        <ele>39.2</ele>
        <time>2023-10-28T07:17:32Z</time>
      </trkpt>
      <trkpt lat="50.80837" lon="3.3838">
        <ele>39.2</ele>
        <time>2023-10-28T07:17:33Z</time>
      </trkpt>
      <trkpt lat="50.80835" lon="3.38385">
        <ele>39</ele>
        <time>2023-10-28T07:17:34Z</time>
      </trkpt>
      <trkpt lat="50.80831" lon="3.3839">
        <ele>39</ele>
        <time>2023-10-28T07:17:35Z</time>
      </trkpt>
      <trkpt lat="50.80828" lon="3.38394">
        <ele>38.8</ele>
        <time>2023-10-28T07:17:36Z</time>
      </trkpt>
      <trkpt lat="50.80825" lon="3.38398">
        <ele>38.8</ele>
        <time>2023-10-28T07:17:37Z</time>
      </trkpt>
      <trkpt lat="50.80822" lon="3.38402">
        <ele>38.8</ele>
        <time>2023-10-28T07:17:38Z</time>
      </trkpt>
      <trkpt lat="50.80818" lon="3.38407">
        <ele>38.6</ele>
        <time>2023-10-28T07:17:39Z</time>
      </trkpt>
      <trkpt lat="50.80815" lon="3.38411">
        <ele>38.6</ele>
        <time>2023-10-28T07:17:40Z</time>
      </trkpt>
      <trkpt lat="50.80813" lon="3.38416">
        <ele>38.6</ele>
        <time>2023-10-28T07:17:41Z</time>
      </trkpt>
      <trkpt lat="50.80811" lon="3.3842">
        <ele>38.6</ele>
        <time>2023-10-28T07:17:42Z</time>
      </trkpt>
      <trkpt lat="50.80809" lon="3.38424">
        <ele>38.6</ele>
        <time>2023-10-28T07:17:43Z</time>
      </trkpt>
      <trkpt lat="50.80807" lon="3.38427">
        <ele>38.6</ele>
        <time>2023-10-28T07:17:44Z</time>
      </trkpt>
      <trkpt lat="50.80805" lon="3.3843">
        <ele>38.6</ele>
        <time>2023-10-28T07:17:45Z</time>
      </trkpt>
      <trkpt lat="50.80803" lon="3.38432">
        <ele>38.4</ele>
        <time>2023-10-28T07:17:46Z</time>
      </trkpt>
      <trkpt lat="50.80797" lon="3.38441">
        <ele>38.4</ele>
        <time>2023-10-28T07:17:48Z</time>
      </trkpt>
      <trkpt lat="50.80781" lon="3.38466">
        <ele>38</ele>
        <time>2023-10-28T07:17:53Z</time>
      </trkpt>
      <trkpt lat="50.80773" lon="3.38478">
        <ele>37.8</ele>
        <time>2023-10-28T07:17:55Z</time>
      </trkpt>
      <trkpt lat="50.80765" lon="3.3849">
        <ele>37.8</ele>
        <time>2023-10-28T07:17:57Z</time>
      </trkpt>
      <trkpt lat="50.80761" lon="3.38497">
        <ele>37.6</ele>
        <time>2023-10-28T07:17:58Z</time>
      </trkpt>
      <trkpt lat="50.80758" lon="3.38503">
        <ele>37.6</ele>
        <time>2023-10-28T07:17:59Z</time>
      </trkpt>
      <trkpt lat="50.80754" lon="3.38508">
        <ele>37.6</ele>
        <time>2023-10-28T07:18:00Z</time>
      </trkpt>
      <trkpt lat="50.80746" lon="3.38512">
        <ele>37.4</ele>
        <time>2023-10-28T07:18:02Z</time>
      </trkpt>
      <trkpt lat="50.80742" lon="3.38511">
        <ele>37.2</ele>
        <time>2023-10-28T07:18:03Z</time>
      </trkpt>
      <trkpt lat="50.8074" lon="3.38508">
        <ele>37</ele>
        <time>2023-10-28T07:18:04Z</time>
      </trkpt>
      <trkpt lat="50.80738" lon="3.38505">
        <ele>36.8</ele>
        <time>2023-10-28T07:18:05Z</time>
      </trkpt>
      <trkpt lat="50.80736" lon="3.38501">
        <ele>36.4</ele>
        <time>2023-10-28T07:18:06Z</time>
      </trkpt>
      <trkpt lat="50.80734" lon="3.38498">
        <ele>36.2</ele>
        <time>2023-10-28T07:18:07Z</time>
      </trkpt>
      <trkpt lat="50.80733" lon="3.38494">
        <ele>36.2</ele>
        <time>2023-10-28T07:18:08Z</time>
      </trkpt>
      <trkpt lat="50.80724" lon="3.38475">
        <ele>36</ele>
        <time>2023-10-28T07:18:12Z</time>
      </trkpt>
      <trkpt lat="50.80714" lon="3.38455">
        <ele>36</ele>
        <time>2023-10-28T07:18:16Z</time>
      </trkpt>
      <trkpt lat="50.80711" lon="3.38451">
        <ele>36</ele>
        <time>2023-10-28T07:18:17Z</time>
      </trkpt>
      <trkpt lat="50.80708" lon="3.38446">
        <ele>36.2</ele>
        <time>2023-10-28T07:18:18Z</time>
      </trkpt>
      <trkpt lat="50.80686" lon="3.38405">
        <ele>36.4</ele>
        <time>2023-10-28T07:18:26Z</time>
      </trkpt>
      <trkpt lat="50.80677" lon="3.38391">
        <ele>36.6</ele>
        <time>2023-10-28T07:18:29Z</time>
      </trkpt>
      <trkpt lat="50.80675" lon="3.38387">
        <ele>36.6</ele>
        <time>2023-10-28T07:18:30Z</time>
      </trkpt>
      <trkpt lat="50.80673" lon="3.38383">
        <ele>36.6</ele>
        <time>2023-10-28T07:18:31Z</time>
      </trkpt>
      <trkpt lat="50.80671" lon="3.3838">
        <ele>36.6</ele>
        <time>2023-10-28T07:18:32Z</time>
      </trkpt>
      <trkpt lat="50.80651" lon="3.38351">
        <ele>37</ele>
        <time>2023-10-28T07:18:38Z</time>
      </trkpt>
      <trkpt lat="50.80649" lon="3.38345">
        <ele>37.2</ele>
        <time>2023-10-28T07:18:39Z</time>
      </trkpt>
      <trkpt lat="50.80643" lon="3.38334">
        <ele>37.8</ele>
        <time>2023-10-28T07:18:41Z</time>
      </trkpt>
      <trkpt lat="50.80624" lon="3.38309">
        <ele>38.4</ele>
        <time>2023-10-28T07:18:46Z</time>
      </trkpt>
      <trkpt lat="50.80616" lon="3.38295">
        <ele>38.6</ele>
        <time>2023-10-28T07:18:49Z</time>
      </trkpt>
      <trkpt lat="50.80613" lon="3.38291">
        <ele>38.6</ele>
        <time>2023-10-28T07:18:50Z</time>
      </trkpt>
      <trkpt lat="50.80609" lon="3.38286">
        <ele>38.8</ele>
        <time>2023-10-28T07:18:51Z</time>
      </trkpt>
      <trkpt lat="50.80606" lon="3.38282">
        <ele>38.8</ele>
        <time>2023-10-28T07:18:52Z</time>
      </trkpt>
      <trkpt lat="50.8059" lon="3.38258">
        <ele>39.2</ele>
        <time>2023-10-28T07:18:57Z</time>
      </trkpt>
      <trkpt lat="50.80568" lon="3.38219">
        <ele>39.6</ele>
        <time>2023-10-28T07:19:05Z</time>
      </trkpt>
      <trkpt lat="50.80547" lon="3.38183">
        <ele>40</ele>
        <time>2023-10-28T07:19:12Z</time>
      </trkpt>
      <trkpt lat="50.80527" lon="3.38151">
        <ele>40</ele>
        <time>2023-10-28T07:19:18Z</time>
      </trkpt>
      <trkpt lat="50.80504" lon="3.38109">
        <ele>39.4</ele>
        <time>2023-10-28T07:19:24Z</time>
      </trkpt>
      <trkpt lat="50.80499" lon="3.38101">
        <ele>39.4</ele>
        <time>2023-10-28T07:19:25Z</time>
      </trkpt>
      <trkpt lat="50.80476" lon="3.38062">
        <ele>38.6</ele>
        <time>2023-10-28T07:19:30Z</time>
      </trkpt>
      <trkpt lat="50.80466" lon="3.38046">
        <ele>38.4</ele>
        <time>2023-10-28T07:19:32Z</time>
      </trkpt>
      <trkpt lat="50.80444" lon="3.38012">
        <ele>37.2</ele>
        <time>2023-10-28T07:19:37Z</time>
      </trkpt>
      <trkpt lat="50.8043" lon="3.3799">
        <ele>35.8</ele>
        <time>2023-10-28T07:19:40Z</time>
      </trkpt>
      <trkpt lat="50.80417" lon="3.37968">
        <ele>34.8</ele>
        <time>2023-10-28T07:19:43Z</time>
      </trkpt>
      <trkpt lat="50.80398" lon="3.37937">
        <ele>33.4</ele>
        <time>2023-10-28T07:19:47Z</time>
      </trkpt>
      <trkpt lat="50.80384" lon="3.37914">
        <ele>32</ele>
        <time>2023-10-28T07:19:50Z</time>
      </trkpt>
      <trkpt lat="50.80372" lon="3.37889">
        <ele>31</ele>
        <time>2023-10-28T07:19:53Z</time>
      </trkpt>
      <trkpt lat="50.80368" lon="3.3788">
        <ele>30.8</ele>
        <time>2023-10-28T07:19:54Z</time>
      </trkpt>
      <trkpt lat="50.80362" lon="3.37863">
        <ele>30.2</ele>
        <time>2023-10-28T07:19:56Z</time>
      </trkpt>
      <trkpt lat="50.80359" lon="3.37854">
        <ele>30</ele>
        <time>2023-10-28T07:19:57Z</time>
      </trkpt>
      <trkpt lat="50.80355" lon="3.37845">
        <ele>29.8</ele>
        <time>2023-10-28T07:19:58Z</time>
      </trkpt>
      <trkpt lat="50.80352" lon="3.37837">
        <ele>29.8</ele>
        <time>2023-10-28T07:19:59Z</time>
      </trkpt>
      <trkpt lat="50.80349" lon="3.37828">
        <ele>29.4</ele>
        <time>2023-10-28T07:20:00Z</time>
      </trkpt>
      <trkpt lat="50.80342" lon="3.37811">
        <ele>29.6</ele>
        <time>2023-10-28T07:20:02Z</time>
      </trkpt>
      <trkpt lat="50.80339" lon="3.37803">
        <ele>29.6</ele>
        <time>2023-10-28T07:20:03Z</time>
      </trkpt>
      <trkpt lat="50.80334" lon="3.37787">
        <ele>29.4</ele>
        <time>2023-10-28T07:20:05Z</time>
      </trkpt>
      <trkpt lat="50.80331" lon="3.37779">
        <ele>29.4</ele>
        <time>2023-10-28T07:20:06Z</time>
      </trkpt>
      <trkpt lat="50.80328" lon="3.37772">
        <ele>29.4</ele>
        <time>2023-10-28T07:20:07Z</time>
      </trkpt>
      <trkpt lat="50.80325" lon="3.37765">
        <ele>29.4</ele>
        <time>2023-10-28T07:20:08Z</time>
      </trkpt>
      <trkpt lat="50.80322" lon="3.37759">
        <ele>29.4</ele>
        <time>2023-10-28T07:20:09Z</time>
      </trkpt>
      <trkpt lat="50.80319" lon="3.37755">
        <ele>29.4</ele>
        <time>2023-10-28T07:20:10Z</time>
      </trkpt>
      <trkpt lat="50.80315" lon="3.37752">
        <ele>29.4</ele>
        <time>2023-10-28T07:20:11Z</time>
      </trkpt>
      <trkpt lat="50.80311" lon="3.37752">
        <ele>29.2</ele>
        <time>2023-10-28T07:20:12Z</time>
      </trkpt>
      <trkpt lat="50.80307" lon="3.37754">
        <ele>29</ele>
        <time>2023-10-28T07:20:13Z</time>
      </trkpt>
      <trkpt lat="50.80298" lon="3.37759">
        <ele>29</ele>
        <time>2023-10-28T07:20:15Z</time>
      </trkpt>
      <trkpt lat="50.80294" lon="3.37763">
        <ele>29</ele>
        <time>2023-10-28T07:20:16Z</time>
      </trkpt>
      <trkpt lat="50.80285" lon="3.37769">
        <ele>29</ele>
        <time>2023-10-28T07:20:18Z</time>
      </trkpt>
      <trkpt lat="50.8028" lon="3.37771">
        <ele>28.8</ele>
        <time>2023-10-28T07:20:19Z</time>
      </trkpt>
      <trkpt lat="50.80276" lon="3.37774">
        <ele>28.6</ele>
        <time>2023-10-28T07:20:20Z</time>
      </trkpt>
      <trkpt lat="50.80268" lon="3.37778">
        <ele>27.6</ele>
        <time>2023-10-28T07:20:22Z</time>
      </trkpt>
      <trkpt lat="50.80262" lon="3.37781">
        <ele>27.4</ele>
        <time>2023-10-28T07:20:23Z</time>
      </trkpt>
      <trkpt lat="50.80239" lon="3.37798">
        <ele>27</ele>
        <time>2023-10-28T07:20:28Z</time>
      </trkpt>
      <trkpt lat="50.80235" lon="3.37803">
        <ele>27</ele>
        <time>2023-10-28T07:20:29Z</time>
      </trkpt>
      <trkpt lat="50.8023" lon="3.37808">
        <ele>26.8</ele>
        <time>2023-10-28T07:20:30Z</time>
      </trkpt>
      <trkpt lat="50.80222" lon="3.37816">
        <ele>26.2</ele>
        <time>2023-10-28T07:20:32Z</time>
      </trkpt>
      <trkpt lat="50.80209" lon="3.37828">
        <ele>26</ele>
        <time>2023-10-28T07:20:35Z</time>
      </trkpt>
      <trkpt lat="50.8018" lon="3.37858">
        <ele>25.6</ele>
        <time>2023-10-28T07:20:42Z</time>
      </trkpt>
      <trkpt lat="50.80161" lon="3.37881">
        <ele>25.8</ele>
        <time>2023-10-28T07:20:47Z</time>
      </trkpt>
      <trkpt lat="50.80146" lon="3.379">
        <ele>26</ele>
        <time>2023-10-28T07:20:51Z</time>
      </trkpt>
      <trkpt lat="50.8011" lon="3.37941">
        <ele>26.4</ele>
        <time>2023-10-28T07:21:00Z</time>
      </trkpt>
      <trkpt lat="50.80102" lon="3.37948">
        <ele>26.4</ele>
        <time>2023-10-28T07:21:02Z</time>
      </trkpt>
      <trkpt lat="50.80098" lon="3.37951">
        <ele>26.4</ele>
        <time>2023-10-28T07:21:03Z</time>
      </trkpt>
      <trkpt lat="50.80094" lon="3.37954">
        <ele>26.4</ele>
        <time>2023-10-28T07:21:04Z</time>
      </trkpt>
      <trkpt lat="50.8009" lon="3.37957">
        <ele>26.4</ele>
        <time>2023-10-28T07:21:05Z</time>
      </trkpt>
      <trkpt lat="50.80086" lon="3.3796">
        <ele>26.4</ele>
        <time>2023-10-28T07:21:06Z</time>
      </trkpt>
      <trkpt lat="50.80082" lon="3.37963">
        <ele>26.4</ele>
        <time>2023-10-28T07:21:07Z</time>
      </trkpt>
      <trkpt lat="50.80078" lon="3.37966">
        <ele>26.4</ele>
        <time>2023-10-28T07:21:08Z</time>
      </trkpt>
      <trkpt lat="50.80074" lon="3.37969">
        <ele>26.4</ele>
        <time>2023-10-28T07:21:09Z</time>
      </trkpt>
      <trkpt lat="50.80071" lon="3.37972">
        <ele>26.4</ele>
        <time>2023-10-28T07:21:10Z</time>
      </trkpt>
      <trkpt lat="50.80067" lon="3.37975">
        <ele>26.4</ele>
        <time>2023-10-28T07:21:11Z</time>
      </trkpt>
      <trkpt lat="50.80064" lon="3.37979">
        <ele>26.4</ele>
        <time>2023-10-28T07:21:12Z</time>
      </trkpt>
      <trkpt lat="50.80062" lon="3.37984">
        <ele>26.4</ele>
        <time>2023-10-28T07:21:13Z</time>
      </trkpt>
      <trkpt lat="50.80062" lon="3.37989">
        <ele>26.6</ele>
        <time>2023-10-28T07:21:14Z</time>
      </trkpt>
      <trkpt lat="50.80064" lon="3.37995">
        <ele>26.6</ele>
        <time>2023-10-28T07:21:15Z</time>
      </trkpt>
      <trkpt lat="50.80065" lon="3.38001">
        <ele>26.8</ele>
        <time>2023-10-28T07:21:16Z</time>
      </trkpt>
      <trkpt lat="50.80069" lon="3.38014">
        <ele>27.4</ele>
        <time>2023-10-28T07:21:18Z</time>
      </trkpt>
      <trkpt lat="50.80074" lon="3.38027">
        <ele>28.6</ele>
        <time>2023-10-28T07:21:20Z</time>
      </trkpt>
      <trkpt lat="50.80078" lon="3.38041">
        <ele>29.6</ele>
        <time>2023-10-28T07:21:22Z</time>
      </trkpt>
      <trkpt lat="50.80081" lon="3.38048">
        <ele>30.2</ele>
        <time>2023-10-28T07:21:23Z</time>
      </trkpt>
      <trkpt lat="50.80083" lon="3.38055">
        <ele>30.6</ele>
        <time>2023-10-28T07:21:24Z</time>
      </trkpt>
      <trkpt lat="50.80086" lon="3.38062">
        <ele>30.8</ele>
        <time>2023-10-28T07:21:25Z</time>
      </trkpt>
      <trkpt lat="50.80088" lon="3.38069">
        <ele>31</ele>
        <time>2023-10-28T07:21:26Z</time>
      </trkpt>
      <trkpt lat="50.80091" lon="3.38076">
        <ele>31.2</ele>
        <time>2023-10-28T07:21:27Z</time>
      </trkpt>
      <trkpt lat="50.80093" lon="3.38083">
        <ele>31.2</ele>
        <time>2023-10-28T07:21:28Z</time>
      </trkpt>
      <trkpt lat="50.80095" lon="3.3809">
        <ele>31.4</ele>
        <time>2023-10-28T07:21:29Z</time>
      </trkpt>
      <trkpt lat="50.80098" lon="3.38097">
        <ele>31.4</ele>
        <time>2023-10-28T07:21:30Z</time>
      </trkpt>
      <trkpt lat="50.801" lon="3.38104">
        <ele>31.4</ele>
        <time>2023-10-28T07:21:31Z</time>
      </trkpt>
      <trkpt lat="50.80103" lon="3.3811">
        <ele>31.6</ele>
        <time>2023-10-28T07:21:32Z</time>
      </trkpt>
      <trkpt lat="50.80105" lon="3.38116">
        <ele>31.6</ele>
        <time>2023-10-28T07:21:33Z</time>
      </trkpt>
      <trkpt lat="50.80108" lon="3.38123">
        <ele>31.6</ele>
        <time>2023-10-28T07:21:34Z</time>
      </trkpt>
      <trkpt lat="50.8011" lon="3.38129">
        <ele>31.6</ele>
        <time>2023-10-28T07:21:35Z</time>
      </trkpt>
      <trkpt lat="50.80112" lon="3.38135">
        <ele>31.8</ele>
        <time>2023-10-28T07:21:36Z</time>
      </trkpt>
      <trkpt lat="50.80115" lon="3.38144">
        <ele>31.8</ele>
        <time>2023-10-28T07:21:37Z</time>
      </trkpt>
      <trkpt lat="50.80117" lon="3.38151">
        <ele>32</ele>
        <time>2023-10-28T07:21:38Z</time>
      </trkpt>
      <trkpt lat="50.8012" lon="3.38158">
        <ele>32</ele>
        <time>2023-10-28T07:21:39Z</time>
      </trkpt>
      <trkpt lat="50.80122" lon="3.38166">
        <ele>32</ele>
        <time>2023-10-28T07:21:40Z</time>
      </trkpt>
      <trkpt lat="50.80125" lon="3.38173">
        <ele>32.2</ele>
        <time>2023-10-28T07:21:41Z</time>
      </trkpt>
      <trkpt lat="50.80127" lon="3.3818">
        <ele>32.2</ele>
        <time>2023-10-28T07:21:42Z</time>
      </trkpt>
      <trkpt lat="50.8013" lon="3.38187">
        <ele>32.4</ele>
        <time>2023-10-28T07:21:43Z</time>
      </trkpt>
      <trkpt lat="50.80132" lon="3.38194">
        <ele>32.4</ele>
        <time>2023-10-28T07:21:44Z</time>
      </trkpt>
      <trkpt lat="50.80135" lon="3.38202">
        <ele>32.6</ele>
        <time>2023-10-28T07:21:45Z</time>
      </trkpt>
      <trkpt lat="50.80137" lon="3.38209">
        <ele>32.6</ele>
        <time>2023-10-28T07:21:46Z</time>
      </trkpt>
      <trkpt lat="50.8014" lon="3.38217">
        <ele>32.8</ele>
        <time>2023-10-28T07:21:47Z</time>
      </trkpt>
      <trkpt lat="50.80142" lon="3.38225">
        <ele>32.8</ele>
        <time>2023-10-28T07:21:48Z</time>
      </trkpt>
      <trkpt lat="50.80145" lon="3.38232">
        <ele>32.8</ele>
        <time>2023-10-28T07:21:49Z</time>
      </trkpt>
      <trkpt lat="50.80147" lon="3.3824">
        <ele>32.8</ele>
        <time>2023-10-28T07:21:50Z</time>
      </trkpt>
      <trkpt lat="50.80149" lon="3.38248">
        <ele>32.6</ele>
        <time>2023-10-28T07:21:51Z</time>
      </trkpt>
      <trkpt lat="50.80151" lon="3.38256">
        <ele>32.8</ele>
        <time>2023-10-28T07:21:52Z</time>
      </trkpt>
      <trkpt lat="50.80153" lon="3.38264">
        <ele>32.8</ele>
        <time>2023-10-28T07:21:53Z</time>
      </trkpt>
      <trkpt lat="50.80155" lon="3.38272">
        <ele>32.8</ele>
        <time>2023-10-28T07:21:54Z</time>
      </trkpt>
      <trkpt lat="50.80157" lon="3.38279">
        <ele>32.8</ele>
        <time>2023-10-28T07:21:55Z</time>
      </trkpt>
      <trkpt lat="50.80159" lon="3.38287">
        <ele>32.8</ele>
        <time>2023-10-28T07:21:56Z</time>
      </trkpt>
      <trkpt lat="50.80163" lon="3.38302">
        <ele>32.4</ele>
        <time>2023-10-28T07:21:58Z</time>
      </trkpt>
      <trkpt lat="50.80165" lon="3.3831">
        <ele>32.4</ele>
        <time>2023-10-28T07:21:59Z</time>
      </trkpt>
      <trkpt lat="50.80173" lon="3.38341">
        <ele>32.2</ele>
        <time>2023-10-28T07:22:03Z</time>
      </trkpt>
      <trkpt lat="50.80183" lon="3.38397">
        <ele>32</ele>
        <time>2023-10-28T07:22:10Z</time>
      </trkpt>
      <trkpt lat="50.80183" lon="3.38405">
        <ele>32</ele>
        <time>2023-10-28T07:22:11Z</time>
      </trkpt>
      <trkpt lat="50.80181" lon="3.38413">
        <ele>32.2</ele>
        <time>2023-10-28T07:22:12Z</time>
      </trkpt>
      <trkpt lat="50.80178" lon="3.38419">
        <ele>32.2</ele>
        <time>2023-10-28T07:22:13Z</time>
      </trkpt>
      <trkpt lat="50.80174" lon="3.38424">
        <ele>32.2</ele>
        <time>2023-10-28T07:22:14Z</time>
      </trkpt>
      <trkpt lat="50.80169" lon="3.38426">
        <ele>32</ele>
        <time>2023-10-28T07:22:15Z</time>
      </trkpt>
      <trkpt lat="50.80165" lon="3.38429">
        <ele>32</ele>
        <time>2023-10-28T07:22:16Z</time>
      </trkpt>
      <trkpt lat="50.8016" lon="3.3843">
        <ele>32</ele>
        <time>2023-10-28T07:22:17Z</time>
      </trkpt>
      <trkpt lat="50.80156" lon="3.38432">
        <ele>32</ele>
        <time>2023-10-28T07:22:18Z</time>
      </trkpt>
      <trkpt lat="50.80151" lon="3.38434">
        <ele>32</ele>
        <time>2023-10-28T07:22:19Z</time>
      </trkpt>
      <trkpt lat="50.80147" lon="3.38436">
        <ele>32</ele>
        <time>2023-10-28T07:22:20Z</time>
      </trkpt>
      <trkpt lat="50.80143" lon="3.38438">
        <ele>32</ele>
        <time>2023-10-28T07:22:21Z</time>
      </trkpt>
      <trkpt lat="50.80139" lon="3.3844">
        <ele>32</ele>
        <time>2023-10-28T07:22:22Z</time>
      </trkpt>
      <trkpt lat="50.80134" lon="3.38442">
        <ele>32</ele>
        <time>2023-10-28T07:22:23Z</time>
      </trkpt>
      <trkpt lat="50.8013" lon="3.38444">
        <ele>32</ele>
        <time>2023-10-28T07:22:24Z</time>
      </trkpt>
      <trkpt lat="50.80126" lon="3.38447">
        <ele>32.2</ele>
        <time>2023-10-28T07:22:25Z</time>
      </trkpt>
      <trkpt lat="50.80122" lon="3.38449">
        <ele>32.2</ele>
        <time>2023-10-28T07:22:26Z</time>
      </trkpt>
      <trkpt lat="50.80118" lon="3.38451">
        <ele>32.2</ele>
        <time>2023-10-28T07:22:27Z</time>
      </trkpt>
      <trkpt lat="50.80114" lon="3.38453">
        <ele>32.2</ele>
        <time>2023-10-28T07:22:28Z</time>
      </trkpt>
      <trkpt lat="50.8011" lon="3.38456">
        <ele>32.2</ele>
        <time>2023-10-28T07:22:29Z</time>
      </trkpt>
      <trkpt lat="50.80106" lon="3.38458">
        <ele>32.2</ele>
        <time>2023-10-28T07:22:30Z</time>
      </trkpt>
      <trkpt lat="50.80102" lon="3.3846">
        <ele>32.2</ele>
        <time>2023-10-28T07:22:31Z</time>
      </trkpt>
      <trkpt lat="50.80098" lon="3.38463">
        <ele>32.4</ele>
        <time>2023-10-28T07:22:32Z</time>
      </trkpt>
      <trkpt lat="50.80095" lon="3.38465">
        <ele>32.6</ele>
        <time>2023-10-28T07:22:33Z</time>
      </trkpt>
      <trkpt lat="50.80091" lon="3.38467">
        <ele>32.8</ele>
        <time>2023-10-28T07:22:34Z</time>
      </trkpt>
      <trkpt lat="50.80087" lon="3.38469">
        <ele>33.2</ele>
        <time>2023-10-28T07:22:35Z</time>
      </trkpt>
      <trkpt lat="50.80083" lon="3.38471">
        <ele>33.6</ele>
        <time>2023-10-28T07:22:36Z</time>
      </trkpt>
      <trkpt lat="50.80079" lon="3.38473">
        <ele>34</ele>
        <time>2023-10-28T07:22:37Z</time>
      </trkpt>
      <trkpt lat="50.80059" lon="3.38482">
        <ele>34.2</ele>
        <time>2023-10-28T07:22:42Z</time>
      </trkpt>
      <trkpt lat="50.80048" lon="3.38487">
        <ele>34.4</ele>
        <time>2023-10-28T07:22:45Z</time>
      </trkpt>
      <trkpt lat="50.80045" lon="3.38489">
        <ele>34.4</ele>
        <time>2023-10-28T07:22:46Z</time>
      </trkpt>
      <trkpt lat="50.80041" lon="3.38491">
        <ele>34.6</ele>
        <time>2023-10-28T07:22:47Z</time>
      </trkpt>
      <trkpt lat="50.80038" lon="3.38493">
        <ele>34.6</ele>
        <time>2023-10-28T07:22:48Z</time>
      </trkpt>
      <trkpt lat="50.80035" lon="3.38495">
        <ele>34.6</ele>
        <time>2023-10-28T07:22:49Z</time>
      </trkpt>
      <trkpt lat="50.80031" lon="3.38497">
        <ele>34.6</ele>
        <time>2023-10-28T07:22:50Z</time>
      </trkpt>
      <trkpt lat="50.80027" lon="3.38499">
        <ele>34.6</ele>
        <time>2023-10-28T07:22:51Z</time>
      </trkpt>
      <trkpt lat="50.8002" lon="3.38502">
        <ele>34.6</ele>
        <time>2023-10-28T07:22:53Z</time>
      </trkpt>
      <trkpt lat="50.80016" lon="3.38504">
        <ele>35</ele>
        <time>2023-10-28T07:22:54Z</time>
      </trkpt>
      <trkpt lat="50.79995" lon="3.38517">
        <ele>35.8</ele>
        <time>2023-10-28T07:23:00Z</time>
      </trkpt>
      <trkpt lat="50.79988" lon="3.38524">
        <ele>36.2</ele>
        <time>2023-10-28T07:23:02Z</time>
      </trkpt>
      <trkpt lat="50.79982" lon="3.38529">
        <ele>36.6</ele>
        <time>2023-10-28T07:23:04Z</time>
      </trkpt>
      <trkpt lat="50.79978" lon="3.38531">
        <ele>36.6</ele>
        <time>2023-10-28T07:23:05Z</time>
      </trkpt>
      <trkpt lat="50.79975" lon="3.38534">
        <ele>36.8</ele>
        <time>2023-10-28T07:23:06Z</time>
      </trkpt>
      <trkpt lat="50.79972" lon="3.38536">
        <ele>36.8</ele>
        <time>2023-10-28T07:23:07Z</time>
      </trkpt>
      <trkpt lat="50.79969" lon="3.38538">
        <ele>36.8</ele>
        <time>2023-10-28T07:23:08Z</time>
      </trkpt>
      <trkpt lat="50.79966" lon="3.38541">
        <ele>37</ele>
        <time>2023-10-28T07:23:09Z</time>
      </trkpt>
      <trkpt lat="50.79963" lon="3.38545">
        <ele>37.2</ele>
        <time>2023-10-28T07:23:10Z</time>
      </trkpt>
      <trkpt lat="50.7996" lon="3.38548">
        <ele>37.2</ele>
        <time>2023-10-28T07:23:11Z</time>
      </trkpt>
      <trkpt lat="50.79957" lon="3.38551">
        <ele>37.2</ele>
        <time>2023-10-28T07:23:12Z</time>
      </trkpt>
      <trkpt lat="50.79954" lon="3.38555">
        <ele>37.4</ele>
        <time>2023-10-28T07:23:13Z</time>
      </trkpt>
      <trkpt lat="50.79951" lon="3.38558">
        <ele>37.6</ele>
        <time>2023-10-28T07:23:14Z</time>
      </trkpt>
      <trkpt lat="50.79947" lon="3.38561">
        <ele>37.8</ele>
        <time>2023-10-28T07:23:15Z</time>
      </trkpt>
      <trkpt lat="50.79943" lon="3.38564">
        <ele>38</ele>
        <time>2023-10-28T07:23:16Z</time>
      </trkpt>
      <trkpt lat="50.7994" lon="3.38567">
        <ele>38.2</ele>
        <time>2023-10-28T07:23:17Z</time>
      </trkpt>
      <trkpt lat="50.79936" lon="3.3857">
        <ele>38.4</ele>
        <time>2023-10-28T07:23:18Z</time>
      </trkpt>
      <trkpt lat="50.79933" lon="3.38573">
        <ele>38.6</ele>
        <time>2023-10-28T07:23:19Z</time>
      </trkpt>
      <trkpt lat="50.7993" lon="3.38576">
        <ele>38.6</ele>
        <time>2023-10-28T07:23:20Z</time>
      </trkpt>
      <trkpt lat="50.79926" lon="3.38579">
        <ele>38.8</ele>
        <time>2023-10-28T07:23:21Z</time>
      </trkpt>
      <trkpt lat="50.79923" lon="3.38582">
        <ele>39</ele>
        <time>2023-10-28T07:23:22Z</time>
      </trkpt>
      <trkpt lat="50.79919" lon="3.38586">
        <ele>39</ele>
        <time>2023-10-28T07:23:23Z</time>
      </trkpt>
      <trkpt lat="50.79915" lon="3.38589">
        <ele>39.2</ele>
        <time>2023-10-28T07:23:24Z</time>
      </trkpt>
      <trkpt lat="50.79912" lon="3.38592">
        <ele>39.2</ele>
        <time>2023-10-28T07:23:25Z</time>
      </trkpt>
      <trkpt lat="50.79908" lon="3.38595">
        <ele>39.4</ele>
        <time>2023-10-28T07:23:26Z</time>
      </trkpt>
      <trkpt lat="50.79904" lon="3.38599">
        <ele>39.4</ele>
        <time>2023-10-28T07:23:27Z</time>
      </trkpt>
      <trkpt lat="50.79901" lon="3.38602">
        <ele>39.6</ele>
        <time>2023-10-28T07:23:28Z</time>
      </trkpt>
      <trkpt lat="50.79898" lon="3.38605">
        <ele>39.8</ele>
        <time>2023-10-28T07:23:29Z</time>
      </trkpt>
      <trkpt lat="50.79894" lon="3.38608">
        <ele>39.8</ele>
        <time>2023-10-28T07:23:30Z</time>
      </trkpt>
      <trkpt lat="50.7989" lon="3.38611">
        <ele>39.8</ele>
        <time>2023-10-28T07:23:31Z</time>
      </trkpt>
      <trkpt lat="50.79887" lon="3.38614">
        <ele>40</ele>
        <time>2023-10-28T07:23:32Z</time>
      </trkpt>
      <trkpt lat="50.79883" lon="3.38617">
        <ele>40</ele>
        <time>2023-10-28T07:23:33Z</time>
      </trkpt>
      <trkpt lat="50.7988" lon="3.3862">
        <ele>40</ele>
        <time>2023-10-28T07:23:34Z</time>
      </trkpt>
      <trkpt lat="50.79877" lon="3.38623">
        <ele>40.2</ele>
        <time>2023-10-28T07:23:35Z</time>
      </trkpt>
      <trkpt lat="50.79873" lon="3.38626">
        <ele>40.2</ele>
        <time>2023-10-28T07:23:36Z</time>
      </trkpt>
      <trkpt lat="50.7987" lon="3.38628">
        <ele>40.2</ele>
        <time>2023-10-28T07:23:37Z</time>
      </trkpt>
      <trkpt lat="50.79866" lon="3.38629">
        <ele>40.4</ele>
        <time>2023-10-28T07:23:38Z</time>
      </trkpt>
      <trkpt lat="50.79863" lon="3.38627">
        <ele>40.4</ele>
        <time>2023-10-28T07:23:39Z</time>
      </trkpt>
      <trkpt lat="50.7986" lon="3.38625">
        <ele>40.6</ele>
        <time>2023-10-28T07:23:40Z</time>
      </trkpt>
      <trkpt lat="50.79859" lon="3.3862">
        <ele>40.6</ele>
        <time>2023-10-28T07:23:41Z</time>
      </trkpt>
      <trkpt lat="50.79859" lon="3.38614">
        <ele>40.8</ele>
        <time>2023-10-28T07:23:42Z</time>
      </trkpt>
      <trkpt lat="50.79858" lon="3.38608">
        <ele>40.8</ele>
        <time>2023-10-28T07:23:43Z</time>
      </trkpt>
      <trkpt lat="50.79857" lon="3.38602">
        <ele>40.8</ele>
        <time>2023-10-28T07:23:44Z</time>
      </trkpt>
      <trkpt lat="50.79856" lon="3.38595">
        <ele>41.2</ele>
        <time>2023-10-28T07:23:45Z</time>
      </trkpt>
      <trkpt lat="50.79855" lon="3.38589">
        <ele>41.6</ele>
        <time>2023-10-28T07:23:46Z</time>
      </trkpt>
      <trkpt lat="50.79854" lon="3.38582">
        <ele>42</ele>
        <time>2023-10-28T07:23:47Z</time>
      </trkpt>
      <trkpt lat="50.79852" lon="3.38576">
        <ele>42.2</ele>
        <time>2023-10-28T07:23:48Z</time>
      </trkpt>
      <trkpt lat="50.79851" lon="3.3857">
        <ele>42.6</ele>
        <time>2023-10-28T07:23:49Z</time>
      </trkpt>
      <trkpt lat="50.79849" lon="3.38563">
        <ele>43</ele>
        <time>2023-10-28T07:23:50Z</time>
      </trkpt>
      <trkpt lat="50.79847" lon="3.38557">
        <ele>43.2</ele>
        <time>2023-10-28T07:23:51Z</time>
      </trkpt>
      <trkpt lat="50.79846" lon="3.38551">
        <ele>43.4</ele>
        <time>2023-10-28T07:23:52Z</time>
      </trkpt>
      <trkpt lat="50.79844" lon="3.38544">
        <ele>43.4</ele>
        <time>2023-10-28T07:23:53Z</time>
      </trkpt>
      <trkpt lat="50.79842" lon="3.38538">
        <ele>43.6</ele>
        <time>2023-10-28T07:23:54Z</time>
      </trkpt>
      <trkpt lat="50.7984" lon="3.38532">
        <ele>43.6</ele>
        <time>2023-10-28T07:23:55Z</time>
      </trkpt>
      <trkpt lat="50.79839" lon="3.38527">
        <ele>43.8</ele>
        <time>2023-10-28T07:23:56Z</time>
      </trkpt>
      <trkpt lat="50.79836" lon="3.38522">
        <ele>43.8</ele>
        <time>2023-10-28T07:23:57Z</time>
      </trkpt>
      <trkpt lat="50.79834" lon="3.38516">
        <ele>43.8</ele>
        <time>2023-10-28T07:23:58Z</time>
      </trkpt>
      <trkpt lat="50.79832" lon="3.38512">
        <ele>44</ele>
        <time>2023-10-28T07:23:59Z</time>
      </trkpt>
      <trkpt lat="50.79829" lon="3.38507">
        <ele>44</ele>
        <time>2023-10-28T07:24:00Z</time>
      </trkpt>
      <trkpt lat="50.79827" lon="3.38503">
        <ele>44.2</ele>
        <time>2023-10-28T07:24:01Z</time>
      </trkpt>
      <trkpt lat="50.79824" lon="3.385">
        <ele>44.2</ele>
        <time>2023-10-28T07:24:02Z</time>
      </trkpt>
      <trkpt lat="50.79821" lon="3.38496">
        <ele>44.4</ele>
        <time>2023-10-28T07:24:03Z</time>
      </trkpt>
      <trkpt lat="50.79818" lon="3.38493">
        <ele>44.8</ele>
        <time>2023-10-28T07:24:04Z</time>
      </trkpt>
      <trkpt lat="50.79815" lon="3.3849">
        <ele>45</ele>
        <time>2023-10-28T07:24:05Z</time>
      </trkpt>
      <trkpt lat="50.79812" lon="3.38487">
        <ele>45.2</ele>
        <time>2023-10-28T07:24:06Z</time>
      </trkpt>
      <trkpt lat="50.79809" lon="3.38484">
        <ele>45.4</ele>
        <time>2023-10-28T07:24:07Z</time>
      </trkpt>
      <trkpt lat="50.79805" lon="3.38482">
        <ele>45.4</ele>
        <time>2023-10-28T07:24:08Z</time>
      </trkpt>
      <trkpt lat="50.79802" lon="3.38479">
        <ele>45.6</ele>
        <time>2023-10-28T07:24:09Z</time>
      </trkpt>
      <trkpt lat="50.79798" lon="3.38478">
        <ele>45.8</ele>
        <time>2023-10-28T07:24:10Z</time>
      </trkpt>
      <trkpt lat="50.79794" lon="3.38475">
        <ele>46</ele>
        <time>2023-10-28T07:24:11Z</time>
      </trkpt>
      <trkpt lat="50.79791" lon="3.38473">
        <ele>46.2</ele>
        <time>2023-10-28T07:24:12Z</time>
      </trkpt>
      <trkpt lat="50.79788" lon="3.38471">
        <ele>46.2</ele>
        <time>2023-10-28T07:24:13Z</time>
      </trkpt>
      <trkpt lat="50.79784" lon="3.38468">
        <ele>46.4</ele>
        <time>2023-10-28T07:24:14Z</time>
      </trkpt>
      <trkpt lat="50.79781" lon="3.38466">
        <ele>46.4</ele>
        <time>2023-10-28T07:24:15Z</time>
      </trkpt>
      <trkpt lat="50.79777" lon="3.38463">
        <ele>46.4</ele>
        <time>2023-10-28T07:24:16Z</time>
      </trkpt>
      <trkpt lat="50.79774" lon="3.3846">
        <ele>46.6</ele>
        <time>2023-10-28T07:24:17Z</time>
      </trkpt>
      <trkpt lat="50.79771" lon="3.38457">
        <ele>47</ele>
        <time>2023-10-28T07:24:18Z</time>
      </trkpt>
      <trkpt lat="50.79767" lon="3.38452">
        <ele>47.2</ele>
        <time>2023-10-28T07:24:19Z</time>
      </trkpt>
      <trkpt lat="50.79765" lon="3.38449">
        <ele>47.4</ele>
        <time>2023-10-28T07:24:20Z</time>
      </trkpt>
      <trkpt lat="50.79762" lon="3.38443">
        <ele>47.6</ele>
        <time>2023-10-28T07:24:21Z</time>
      </trkpt>
      <trkpt lat="50.7976" lon="3.38436">
        <ele>47.8</ele>
        <time>2023-10-28T07:24:22Z</time>
      </trkpt>
      <trkpt lat="50.79759" lon="3.38428">
        <ele>48</ele>
        <time>2023-10-28T07:24:23Z</time>
      </trkpt>
      <trkpt lat="50.79757" lon="3.38419">
        <ele>48</ele>
        <time>2023-10-28T07:24:24Z</time>
      </trkpt>
      <trkpt lat="50.79755" lon="3.38409">
        <ele>48</ele>
        <time>2023-10-28T07:24:25Z</time>
      </trkpt>
      <trkpt lat="50.79753" lon="3.38399">
        <ele>48</ele>
        <time>2023-10-28T07:24:26Z</time>
      </trkpt>
      <trkpt lat="50.79751" lon="3.38388">
        <ele>48</ele>
        <time>2023-10-28T07:24:27Z</time>
      </trkpt>
      <trkpt lat="50.79749" lon="3.38377">
        <ele>48</ele>
        <time>2023-10-28T07:24:28Z</time>
      </trkpt>
      <trkpt lat="50.79747" lon="3.38364">
        <ele>48</ele>
        <time>2023-10-28T07:24:29Z</time>
      </trkpt>
      <trkpt lat="50.79745" lon="3.38352">
        <ele>48</ele>
        <time>2023-10-28T07:24:30Z</time>
      </trkpt>
      <trkpt lat="50.79743" lon="3.38339">
        <ele>48</ele>
        <time>2023-10-28T07:24:31Z</time>
      </trkpt>
      <trkpt lat="50.79741" lon="3.38326">
        <ele>48</ele>
        <time>2023-10-28T07:24:32Z</time>
      </trkpt>
      <trkpt lat="50.79738" lon="3.38312">
        <ele>47.4</ele>
        <time>2023-10-28T07:24:33Z</time>
      </trkpt>
      <trkpt lat="50.79736" lon="3.38299">
        <ele>46.8</ele>
        <time>2023-10-28T07:24:34Z</time>
      </trkpt>
      <trkpt lat="50.79734" lon="3.38286">
        <ele>46</ele>
        <time>2023-10-28T07:24:35Z</time>
      </trkpt>
      <trkpt lat="50.79732" lon="3.38274">
        <ele>45</ele>
        <time>2023-10-28T07:24:36Z</time>
      </trkpt>
      <trkpt lat="50.7973" lon="3.38262">
        <ele>44.2</ele>
        <time>2023-10-28T07:24:37Z</time>
      </trkpt>
      <trkpt lat="50.79728" lon="3.38252">
        <ele>43.2</ele>
        <time>2023-10-28T07:24:38Z</time>
      </trkpt>
      <trkpt lat="50.79726" lon="3.38244">
        <ele>42.2</ele>
        <time>2023-10-28T07:24:39Z</time>
      </trkpt>
      <trkpt lat="50.79723" lon="3.38239">
        <ele>41.2</ele>
        <time>2023-10-28T07:24:40Z</time>
      </trkpt>
      <trkpt lat="50.79719" lon="3.38236">
        <ele>40.2</ele>
        <time>2023-10-28T07:24:41Z</time>
      </trkpt>
      <trkpt lat="50.79715" lon="3.38235">
        <ele>39.4</ele>
        <time>2023-10-28T07:24:42Z</time>
      </trkpt>
      <trkpt lat="50.7971" lon="3.38235">
        <ele>38.4</ele>
        <time>2023-10-28T07:24:43Z</time>
      </trkpt>
      <trkpt lat="50.79706" lon="3.38236">
        <ele>38.4</ele>
        <time>2023-10-28T07:24:44Z</time>
      </trkpt>
      <trkpt lat="50.79701" lon="3.38237">
        <ele>38</ele>
        <time>2023-10-28T07:24:45Z</time>
      </trkpt>
      <trkpt lat="50.79692" lon="3.38239">
        <ele>37.6</ele>
        <time>2023-10-28T07:24:47Z</time>
      </trkpt>
      <trkpt lat="50.79688" lon="3.38239">
        <ele>37.6</ele>
        <time>2023-10-28T07:24:48Z</time>
      </trkpt>
      <trkpt lat="50.79683" lon="3.3824">
        <ele>37.6</ele>
        <time>2023-10-28T07:24:49Z</time>
      </trkpt>
      <trkpt lat="50.79679" lon="3.38241">
        <ele>37.6</ele>
        <time>2023-10-28T07:24:50Z</time>
      </trkpt>
      <trkpt lat="50.79675" lon="3.38241">
        <ele>37.6</ele>
        <time>2023-10-28T07:24:51Z</time>
      </trkpt>
      <trkpt lat="50.79671" lon="3.38241">
        <ele>37.6</ele>
        <time>2023-10-28T07:24:52Z</time>
      </trkpt>
      <trkpt lat="50.79667" lon="3.38242">
        <ele>37.6</ele>
        <time>2023-10-28T07:24:53Z</time>
      </trkpt>
      <trkpt lat="50.79663" lon="3.38242">
        <ele>37.6</ele>
        <time>2023-10-28T07:24:54Z</time>
      </trkpt>
      <trkpt lat="50.79659" lon="3.38242">
        <ele>37.6</ele>
        <time>2023-10-28T07:24:55Z</time>
      </trkpt>
      <trkpt lat="50.79649" lon="3.38241">
        <ele>37.8</ele>
        <time>2023-10-28T07:24:57Z</time>
      </trkpt>
      <trkpt lat="50.79631" lon="3.38239">
        <ele>38.6</ele>
        <time>2023-10-28T07:25:02Z</time>
      </trkpt>
      <trkpt lat="50.79627" lon="3.38239">
        <ele>38.8</ele>
        <time>2023-10-28T07:25:03Z</time>
      </trkpt>
      <trkpt lat="50.79624" lon="3.38239">
        <ele>39</ele>
        <time>2023-10-28T07:25:04Z</time>
      </trkpt>
      <trkpt lat="50.7962" lon="3.38238">
        <ele>39.2</ele>
        <time>2023-10-28T07:25:05Z</time>
      </trkpt>
      <trkpt lat="50.79616" lon="3.38238">
        <ele>39.4</ele>
        <time>2023-10-28T07:25:06Z</time>
      </trkpt>
      <trkpt lat="50.79613" lon="3.38237">
        <ele>39.6</ele>
        <time>2023-10-28T07:25:07Z</time>
      </trkpt>
      <trkpt lat="50.79601" lon="3.38238">
        <ele>40.6</ele>
        <time>2023-10-28T07:25:10Z</time>
      </trkpt>
      <trkpt lat="50.79589" lon="3.38239">
        <ele>41.6</ele>
        <time>2023-10-28T07:25:13Z</time>
      </trkpt>
      <trkpt lat="50.79578" lon="3.38241">
        <ele>42.2</ele>
        <time>2023-10-28T07:25:16Z</time>
      </trkpt>
      <trkpt lat="50.7957" lon="3.38242">
        <ele>42.6</ele>
        <time>2023-10-28T07:25:18Z</time>
      </trkpt>
      <trkpt lat="50.79566" lon="3.38242">
        <ele>42.6</ele>
        <time>2023-10-28T07:25:19Z</time>
      </trkpt>
      <trkpt lat="50.79563" lon="3.38243">
        <ele>42.6</ele>
        <time>2023-10-28T07:25:20Z</time>
      </trkpt>
      <trkpt lat="50.79559" lon="3.38243">
        <ele>42.8</ele>
        <time>2023-10-28T07:25:21Z</time>
      </trkpt>
      <trkpt lat="50.79555" lon="3.38244">
        <ele>42.8</ele>
        <time>2023-10-28T07:25:22Z</time>
      </trkpt>
      <trkpt lat="50.79551" lon="3.38244">
        <ele>43</ele>
        <time>2023-10-28T07:25:23Z</time>
      </trkpt>
      <trkpt lat="50.79547" lon="3.38245">
        <ele>43</ele>
        <time>2023-10-28T07:25:24Z</time>
      </trkpt>
      <trkpt lat="50.79543" lon="3.38245">
        <ele>43</ele>
        <time>2023-10-28T07:25:25Z</time>
      </trkpt>
      <trkpt lat="50.79539" lon="3.38245">
        <ele>43.2</ele>
        <time>2023-10-28T07:25:26Z</time>
      </trkpt>
      <trkpt lat="50.79535" lon="3.38246">
        <ele>43.2</ele>
        <time>2023-10-28T07:25:27Z</time>
      </trkpt>
      <trkpt lat="50.79531" lon="3.38246">
        <ele>43.6</ele>
        <time>2023-10-28T07:25:28Z</time>
      </trkpt>
      <trkpt lat="50.79527" lon="3.38247">
        <ele>43.8</ele>
        <time>2023-10-28T07:25:29Z</time>
      </trkpt>
      <trkpt lat="50.79522" lon="3.38247">
        <ele>43.8</ele>
        <time>2023-10-28T07:25:30Z</time>
      </trkpt>
      <trkpt lat="50.79519" lon="3.38247">
        <ele>44</ele>
        <time>2023-10-28T07:25:31Z</time>
      </trkpt>
      <trkpt lat="50.79515" lon="3.38247">
        <ele>44</ele>
        <time>2023-10-28T07:25:32Z</time>
      </trkpt>
      <trkpt lat="50.79511" lon="3.38248">
        <ele>44</ele>
        <time>2023-10-28T07:25:33Z</time>
      </trkpt>
      <trkpt lat="50.79507" lon="3.38248">
        <ele>44.2</ele>
        <time>2023-10-28T07:25:34Z</time>
      </trkpt>
      <trkpt lat="50.79503" lon="3.38248">
        <ele>44.2</ele>
        <time>2023-10-28T07:25:35Z</time>
      </trkpt>
      <trkpt lat="50.79499" lon="3.38248">
        <ele>44.4</ele>
        <time>2023-10-28T07:25:36Z</time>
      </trkpt>
      <trkpt lat="50.79494" lon="3.38248">
        <ele>44.4</ele>
        <time>2023-10-28T07:25:37Z</time>
      </trkpt>
      <trkpt lat="50.7949" lon="3.38249">
        <ele>44.4</ele>
        <time>2023-10-28T07:25:38Z</time>
      </trkpt>
      <trkpt lat="50.79486" lon="3.38249">
        <ele>44.6</ele>
        <time>2023-10-28T07:25:39Z</time>
      </trkpt>
      <trkpt lat="50.79482" lon="3.38248">
        <ele>44.6</ele>
        <time>2023-10-28T07:25:40Z</time>
      </trkpt>
      <trkpt lat="50.79478" lon="3.38248">
        <ele>44.6</ele>
        <time>2023-10-28T07:25:41Z</time>
      </trkpt>
      <trkpt lat="50.79474" lon="3.38248">
        <ele>44.8</ele>
        <time>2023-10-28T07:25:42Z</time>
      </trkpt>
      <trkpt lat="50.7947" lon="3.38248">
        <ele>44.8</ele>
        <time>2023-10-28T07:25:43Z</time>
      </trkpt>
      <trkpt lat="50.79465" lon="3.38248">
        <ele>45</ele>
        <time>2023-10-28T07:25:44Z</time>
      </trkpt>
      <trkpt lat="50.79461" lon="3.38249">
        <ele>45</ele>
        <time>2023-10-28T07:25:45Z</time>
      </trkpt>
      <trkpt lat="50.79457" lon="3.38249">
        <ele>45.2</ele>
        <time>2023-10-28T07:25:46Z</time>
      </trkpt>
      <trkpt lat="50.79453" lon="3.3825">
        <ele>45.2</ele>
        <time>2023-10-28T07:25:47Z</time>
      </trkpt>
      <trkpt lat="50.79449" lon="3.38251">
        <ele>45.4</ele>
        <time>2023-10-28T07:25:48Z</time>
      </trkpt>
      <trkpt lat="50.79445" lon="3.38252">
        <ele>45.4</ele>
        <time>2023-10-28T07:25:49Z</time>
      </trkpt>
      <trkpt lat="50.79441" lon="3.38254">
        <ele>45.4</ele>
        <time>2023-10-28T07:25:50Z</time>
      </trkpt>
      <trkpt lat="50.79437" lon="3.38255">
        <ele>45.6</ele>
        <time>2023-10-28T07:25:51Z</time>
      </trkpt>
      <trkpt lat="50.79434" lon="3.38257">
        <ele>45.6</ele>
        <time>2023-10-28T07:25:52Z</time>
      </trkpt>
      <trkpt lat="50.7943" lon="3.38259">
        <ele>45.6</ele>
        <time>2023-10-28T07:25:53Z</time>
      </trkpt>
      <trkpt lat="50.79422" lon="3.38262">
        <ele>45.8</ele>
        <time>2023-10-28T07:25:55Z</time>
      </trkpt>
      <trkpt lat="50.79418" lon="3.38264">
        <ele>46</ele>
        <time>2023-10-28T07:25:56Z</time>
      </trkpt>
      <trkpt lat="50.79399" lon="3.38272">
        <ele>46.8</ele>
        <time>2023-10-28T07:26:01Z</time>
      </trkpt>
      <trkpt lat="50.79396" lon="3.38271">
        <ele>47</ele>
        <time>2023-10-28T07:26:02Z</time>
      </trkpt>
      <trkpt lat="50.79393" lon="3.38267">
        <ele>47.2</ele>
        <time>2023-10-28T07:26:03Z</time>
      </trkpt>
      <trkpt lat="50.7939" lon="3.38262">
        <ele>47.2</ele>
        <time>2023-10-28T07:26:04Z</time>
      </trkpt>
      <trkpt lat="50.79388" lon="3.38256">
        <ele>47.4</ele>
        <time>2023-10-28T07:26:05Z</time>
      </trkpt>
      <trkpt lat="50.79387" lon="3.38249">
        <ele>47.2</ele>
        <time>2023-10-28T07:26:06Z</time>
      </trkpt>
      <trkpt lat="50.79385" lon="3.38242">
        <ele>47.2</ele>
        <time>2023-10-28T07:26:07Z</time>
      </trkpt>
      <trkpt lat="50.79383" lon="3.38232">
        <ele>47.2</ele>
        <time>2023-10-28T07:26:08Z</time>
      </trkpt>
      <trkpt lat="50.79381" lon="3.38225">
        <ele>47.2</ele>
        <time>2023-10-28T07:26:09Z</time>
      </trkpt>
      <trkpt lat="50.79379" lon="3.38216">
        <ele>47.2</ele>
        <time>2023-10-28T07:26:10Z</time>
      </trkpt>
      <trkpt lat="50.79376" lon="3.38208">
        <ele>47.2</ele>
        <time>2023-10-28T07:26:11Z</time>
      </trkpt>
      <trkpt lat="50.79374" lon="3.38199">
        <ele>47.4</ele>
        <time>2023-10-28T07:26:12Z</time>
      </trkpt>
      <trkpt lat="50.79371" lon="3.3819">
        <ele>47.4</ele>
        <time>2023-10-28T07:26:13Z</time>
      </trkpt>
      <trkpt lat="50.79369" lon="3.3818">
        <ele>47.4</ele>
        <time>2023-10-28T07:26:14Z</time>
      </trkpt>
      <trkpt lat="50.79357" lon="3.38141">
        <ele>46.8</ele>
        <time>2023-10-28T07:26:18Z</time>
      </trkpt>
      <trkpt lat="50.79354" lon="3.38132">
        <ele>46.6</ele>
        <time>2023-10-28T07:26:19Z</time>
      </trkpt>
      <trkpt lat="50.79342" lon="3.38093">
        <ele>45.6</ele>
        <time>2023-10-28T07:26:23Z</time>
      </trkpt>
      <trkpt lat="50.79333" lon="3.38064">
        <ele>44.6</ele>
        <time>2023-10-28T07:26:26Z</time>
      </trkpt>
      <trkpt lat="50.7933" lon="3.38055">
        <ele>44.2</ele>
        <time>2023-10-28T07:26:27Z</time>
      </trkpt>
      <trkpt lat="50.79327" lon="3.38046">
        <ele>43.6</ele>
        <time>2023-10-28T07:26:28Z</time>
      </trkpt>
      <trkpt lat="50.79324" lon="3.38038">
        <ele>43.4</ele>
        <time>2023-10-28T07:26:29Z</time>
      </trkpt>
      <trkpt lat="50.79321" lon="3.3803">
        <ele>43</ele>
        <time>2023-10-28T07:26:30Z</time>
      </trkpt>
      <trkpt lat="50.79317" lon="3.38024">
        <ele>42.6</ele>
        <time>2023-10-28T07:26:31Z</time>
      </trkpt>
      <trkpt lat="50.79313" lon="3.38019">
        <ele>42</ele>
        <time>2023-10-28T07:26:32Z</time>
      </trkpt>
      <trkpt lat="50.79308" lon="3.38014">
        <ele>41.8</ele>
        <time>2023-10-28T07:26:33Z</time>
      </trkpt>
      <trkpt lat="50.79304" lon="3.3801">
        <ele>41.6</ele>
        <time>2023-10-28T07:26:34Z</time>
      </trkpt>
      <trkpt lat="50.79299" lon="3.38006">
        <ele>41.4</ele>
        <time>2023-10-28T07:26:35Z</time>
      </trkpt>
      <trkpt lat="50.79286" lon="3.37992">
        <ele>41</ele>
        <time>2023-10-28T07:26:38Z</time>
      </trkpt>
      <trkpt lat="50.79282" lon="3.37988">
        <ele>41</ele>
        <time>2023-10-28T07:26:39Z</time>
      </trkpt>
      <trkpt lat="50.79278" lon="3.37983">
        <ele>40.8</ele>
        <time>2023-10-28T07:26:40Z</time>
      </trkpt>
      <trkpt lat="50.79266" lon="3.37969">
        <ele>39.6</ele>
        <time>2023-10-28T07:26:43Z</time>
      </trkpt>
      <trkpt lat="50.79253" lon="3.37954">
        <ele>38.6</ele>
        <time>2023-10-28T07:26:46Z</time>
      </trkpt>
      <trkpt lat="50.7925" lon="3.3795">
        <ele>38.4</ele>
        <time>2023-10-28T07:26:47Z</time>
      </trkpt>
      <trkpt lat="50.79243" lon="3.37941">
        <ele>38.2</ele>
        <time>2023-10-28T07:26:49Z</time>
      </trkpt>
      <trkpt lat="50.7924" lon="3.37937">
        <ele>38.2</ele>
        <time>2023-10-28T07:26:50Z</time>
      </trkpt>
      <trkpt lat="50.79236" lon="3.37932">
        <ele>38</ele>
        <time>2023-10-28T07:26:51Z</time>
      </trkpt>
      <trkpt lat="50.79234" lon="3.37929">
        <ele>37.8</ele>
        <time>2023-10-28T07:26:52Z</time>
      </trkpt>
      <trkpt lat="50.79231" lon="3.37925">
        <ele>37.8</ele>
        <time>2023-10-28T07:26:53Z</time>
      </trkpt>
      <trkpt lat="50.79228" lon="3.37921">
        <ele>37.8</ele>
        <time>2023-10-28T07:26:54Z</time>
      </trkpt>
      <trkpt lat="50.79225" lon="3.37917">
        <ele>37.6</ele>
        <time>2023-10-28T07:26:55Z</time>
      </trkpt>
      <trkpt lat="50.79224" lon="3.37915">
        <ele>37.4</ele>
        <time>2023-10-28T07:26:56Z</time>
      </trkpt>
      <trkpt lat="50.79221" lon="3.37912">
        <ele>37.4</ele>
        <time>2023-10-28T07:26:57Z</time>
      </trkpt>
      <trkpt lat="50.79219" lon="3.37908">
        <ele>37.2</ele>
        <time>2023-10-28T07:26:58Z</time>
      </trkpt>
      <trkpt lat="50.79217" lon="3.37905">
        <ele>37.2</ele>
        <time>2023-10-28T07:26:59Z</time>
      </trkpt>
      <trkpt lat="50.79215" lon="3.37902">
        <ele>37</ele>
        <time>2023-10-28T07:27:00Z</time>
      </trkpt>
      <trkpt lat="50.79214" lon="3.379">
        <ele>37</ele>
        <time>2023-10-28T07:27:01Z</time>
      </trkpt>
      <trkpt lat="50.79212" lon="3.37897">
        <ele>37</ele>
        <time>2023-10-28T07:27:02Z</time>
      </trkpt>
      <trkpt lat="50.7921" lon="3.37894">
        <ele>36.8</ele>
        <time>2023-10-28T07:27:03Z</time>
      </trkpt>
      <trkpt lat="50.79206" lon="3.37886">
        <ele>36.6</ele>
        <time>2023-10-28T07:27:05Z</time>
      </trkpt>
      <trkpt lat="50.79195" lon="3.37859">
        <ele>36.4</ele>
        <time>2023-10-28T07:27:10Z</time>
      </trkpt>
      <trkpt lat="50.7919" lon="3.37848">
        <ele>36.4</ele>
        <time>2023-10-28T07:27:12Z</time>
      </trkpt>
      <trkpt lat="50.79184" lon="3.37833">
        <ele>35.8</ele>
        <time>2023-10-28T07:27:14Z</time>
      </trkpt>
      <trkpt lat="50.7918" lon="3.3782">
        <ele>35.4</ele>
        <time>2023-10-28T07:27:16Z</time>
      </trkpt>
      <trkpt lat="50.79178" lon="3.37813">
        <ele>35.2</ele>
        <time>2023-10-28T07:27:17Z</time>
      </trkpt>
      <trkpt lat="50.79156" lon="3.37763">
        <ele>34.2</ele>
        <time>2023-10-28T07:27:24Z</time>
      </trkpt>
      <trkpt lat="50.79153" lon="3.37755">
        <ele>34</ele>
        <time>2023-10-28T07:27:25Z</time>
      </trkpt>
      <trkpt lat="50.79137" lon="3.37712">
        <ele>33</ele>
        <time>2023-10-28T07:27:30Z</time>
      </trkpt>
      <trkpt lat="50.79127" lon="3.37687">
        <ele>32</ele>
        <time>2023-10-28T07:27:33Z</time>
      </trkpt>
      <trkpt lat="50.79124" lon="3.37679">
        <ele>31.8</ele>
        <time>2023-10-28T07:27:34Z</time>
      </trkpt>
      <trkpt lat="50.79114" lon="3.37656">
        <ele>30.6</ele>
        <time>2023-10-28T07:27:37Z</time>
      </trkpt>
      <trkpt lat="50.79108" lon="3.3764">
        <ele>29.8</ele>
        <time>2023-10-28T07:27:39Z</time>
      </trkpt>
      <trkpt lat="50.79105" lon="3.37634">
        <ele>29.4</ele>
        <time>2023-10-28T07:27:40Z</time>
      </trkpt>
      <trkpt lat="50.79102" lon="3.37629">
        <ele>29.4</ele>
        <time>2023-10-28T07:27:41Z</time>
      </trkpt>
      <trkpt lat="50.79099" lon="3.37624">
        <ele>29.2</ele>
        <time>2023-10-28T07:27:42Z</time>
      </trkpt>
      <trkpt lat="50.79096" lon="3.37619">
        <ele>29</ele>
        <time>2023-10-28T07:27:43Z</time>
      </trkpt>
      <trkpt lat="50.79094" lon="3.37615">
        <ele>29</ele>
        <time>2023-10-28T07:27:44Z</time>
      </trkpt>
      <trkpt lat="50.79092" lon="3.37611">
        <ele>28.8</ele>
        <time>2023-10-28T07:27:45Z</time>
      </trkpt>
      <trkpt lat="50.7909" lon="3.37608">
        <ele>28.8</ele>
        <time>2023-10-28T07:27:46Z</time>
      </trkpt>
      <trkpt lat="50.79087" lon="3.37605">
        <ele>28.8</ele>
        <time>2023-10-28T07:27:47Z</time>
      </trkpt>
      <trkpt lat="50.7908" lon="3.37606">
        <ele>28.2</ele>
        <time>2023-10-28T07:27:49Z</time>
      </trkpt>
      <trkpt lat="50.79072" lon="3.37612">
        <ele>28</ele>
        <time>2023-10-28T07:27:51Z</time>
      </trkpt>
      <trkpt lat="50.79068" lon="3.37616">
        <ele>28</ele>
        <time>2023-10-28T07:27:52Z</time>
      </trkpt>
      <trkpt lat="50.79065" lon="3.3762">
        <ele>27.8</ele>
        <time>2023-10-28T07:27:53Z</time>
      </trkpt>
      <trkpt lat="50.79057" lon="3.3763">
        <ele>27.8</ele>
        <time>2023-10-28T07:27:55Z</time>
      </trkpt>
      <trkpt lat="50.79049" lon="3.37638">
        <ele>27.2</ele>
        <time>2023-10-28T07:27:57Z</time>
      </trkpt>
      <trkpt lat="50.79036" lon="3.37651">
        <ele>26.6</ele>
        <time>2023-10-28T07:28:00Z</time>
      </trkpt>
      <trkpt lat="50.78998" lon="3.3769">
        <ele>26.4</ele>
        <time>2023-10-28T07:28:09Z</time>
      </trkpt>
      <trkpt lat="50.78995" lon="3.37694">
        <ele>26.6</ele>
        <time>2023-10-28T07:28:10Z</time>
      </trkpt>
      <trkpt lat="50.7898" lon="3.37712">
        <ele>27.2</ele>
        <time>2023-10-28T07:28:14Z</time>
      </trkpt>
      <trkpt lat="50.78976" lon="3.37717">
        <ele>27.4</ele>
        <time>2023-10-28T07:28:15Z</time>
      </trkpt>
      <trkpt lat="50.78972" lon="3.37722">
        <ele>27.6</ele>
        <time>2023-10-28T07:28:16Z</time>
      </trkpt>
      <trkpt lat="50.78969" lon="3.37726">
        <ele>27.6</ele>
        <time>2023-10-28T07:28:17Z</time>
      </trkpt>
      <trkpt lat="50.78965" lon="3.37732">
        <ele>27.6</ele>
        <time>2023-10-28T07:28:18Z</time>
      </trkpt>
      <trkpt lat="50.78962" lon="3.37736">
        <ele>27.8</ele>
        <time>2023-10-28T07:28:19Z</time>
      </trkpt>
      <trkpt lat="50.78956" lon="3.37746">
        <ele>28</ele>
        <time>2023-10-28T07:28:21Z</time>
      </trkpt>
      <trkpt lat="50.78952" lon="3.3775">
        <ele>28</ele>
        <time>2023-10-28T07:28:22Z</time>
      </trkpt>
      <trkpt lat="50.78949" lon="3.37755">
        <ele>28.2</ele>
        <time>2023-10-28T07:28:23Z</time>
      </trkpt>
      <trkpt lat="50.78946" lon="3.3776">
        <ele>28.2</ele>
        <time>2023-10-28T07:28:24Z</time>
      </trkpt>
      <trkpt lat="50.78939" lon="3.3777">
        <ele>28.4</ele>
        <time>2023-10-28T07:28:26Z</time>
      </trkpt>
      <trkpt lat="50.78936" lon="3.37776">
        <ele>28.6</ele>
        <time>2023-10-28T07:28:27Z</time>
      </trkpt>
      <trkpt lat="50.78933" lon="3.37781">
        <ele>28.6</ele>
        <time>2023-10-28T07:28:28Z</time>
      </trkpt>
      <trkpt lat="50.78923" lon="3.37795">
        <ele>29</ele>
        <time>2023-10-28T07:28:31Z</time>
      </trkpt>
      <trkpt lat="50.78905" lon="3.37825">
        <ele>29.8</ele>
        <time>2023-10-28T07:28:37Z</time>
      </trkpt>
      <trkpt lat="50.7887" lon="3.37888">
        <ele>29.8</ele>
        <time>2023-10-28T07:28:49Z</time>
      </trkpt>
      <trkpt lat="50.78855" lon="3.37914">
        <ele>30</ele>
        <time>2023-10-28T07:28:54Z</time>
      </trkpt>
      <trkpt lat="50.78844" lon="3.37935">
        <ele>31.2</ele>
        <time>2023-10-28T07:28:58Z</time>
      </trkpt>
      <trkpt lat="50.78841" lon="3.3794">
        <ele>31.6</ele>
        <time>2023-10-28T07:28:59Z</time>
      </trkpt>
      <trkpt lat="50.78833" lon="3.37956">
        <ele>32</ele>
        <time>2023-10-28T07:29:02Z</time>
      </trkpt>
      <trkpt lat="50.78824" lon="3.37971">
        <ele>32.4</ele>
        <time>2023-10-28T07:29:05Z</time>
      </trkpt>
      <trkpt lat="50.78821" lon="3.37976">
        <ele>32.4</ele>
        <time>2023-10-28T07:29:06Z</time>
      </trkpt>
      <trkpt lat="50.78818" lon="3.37981">
        <ele>32.8</ele>
        <time>2023-10-28T07:29:07Z</time>
      </trkpt>
      <trkpt lat="50.78816" lon="3.37986">
        <ele>32.8</ele>
        <time>2023-10-28T07:29:08Z</time>
      </trkpt>
      <trkpt lat="50.78813" lon="3.37991">
        <ele>33</ele>
        <time>2023-10-28T07:29:09Z</time>
      </trkpt>
      <trkpt lat="50.78809" lon="3.37993">
        <ele>33.2</ele>
        <time>2023-10-28T07:29:10Z</time>
      </trkpt>
      <trkpt lat="50.78805" lon="3.37993">
        <ele>33.4</ele>
        <time>2023-10-28T07:29:11Z</time>
      </trkpt>
      <trkpt lat="50.78803" lon="3.37991">
        <ele>33.4</ele>
        <time>2023-10-28T07:29:12Z</time>
      </trkpt>
      <trkpt lat="50.788" lon="3.37986">
        <ele>33.4</ele>
        <time>2023-10-28T07:29:13Z</time>
      </trkpt>
      <trkpt lat="50.78798" lon="3.37982">
        <ele>33.6</ele>
        <time>2023-10-28T07:29:14Z</time>
      </trkpt>
      <trkpt lat="50.78796" lon="3.37977">
        <ele>33.6</ele>
        <time>2023-10-28T07:29:15Z</time>
      </trkpt>
      <trkpt lat="50.78795" lon="3.37972">
        <ele>33.8</ele>
        <time>2023-10-28T07:29:16Z</time>
      </trkpt>
      <trkpt lat="50.78793" lon="3.37965">
        <ele>33.8</ele>
        <time>2023-10-28T07:29:17Z</time>
      </trkpt>
      <trkpt lat="50.78791" lon="3.3796">
        <ele>34</ele>
        <time>2023-10-28T07:29:18Z</time>
      </trkpt>
      <trkpt lat="50.78789" lon="3.37954">
        <ele>34</ele>
        <time>2023-10-28T07:29:19Z</time>
      </trkpt>
      <trkpt lat="50.78787" lon="3.37949">
        <ele>34.2</ele>
        <time>2023-10-28T07:29:20Z</time>
      </trkpt>
      <trkpt lat="50.78785" lon="3.37943">
        <ele>34.2</ele>
        <time>2023-10-28T07:29:21Z</time>
      </trkpt>
      <trkpt lat="50.78783" lon="3.37938">
        <ele>34.6</ele>
        <time>2023-10-28T07:29:22Z</time>
      </trkpt>
      <trkpt lat="50.7878" lon="3.37932">
        <ele>34.8</ele>
        <time>2023-10-28T07:29:23Z</time>
      </trkpt>
      <trkpt lat="50.78778" lon="3.37926">
        <ele>34.8</ele>
        <time>2023-10-28T07:29:24Z</time>
      </trkpt>
      <trkpt lat="50.78776" lon="3.37921">
        <ele>35</ele>
        <time>2023-10-28T07:29:25Z</time>
      </trkpt>
      <trkpt lat="50.78773" lon="3.37915">
        <ele>35</ele>
        <time>2023-10-28T07:29:26Z</time>
      </trkpt>
      <trkpt lat="50.7877" lon="3.37909">
        <ele>35.2</ele>
        <time>2023-10-28T07:29:27Z</time>
      </trkpt>
      <trkpt lat="50.78769" lon="3.37904">
        <ele>35.2</ele>
        <time>2023-10-28T07:29:28Z</time>
      </trkpt>
      <trkpt lat="50.78766" lon="3.37898">
        <ele>35.4</ele>
        <time>2023-10-28T07:29:29Z</time>
      </trkpt>
      <trkpt lat="50.78764" lon="3.37892">
        <ele>35.6</ele>
        <time>2023-10-28T07:29:30Z</time>
      </trkpt>
      <trkpt lat="50.78761" lon="3.37887">
        <ele>35.8</ele>
        <time>2023-10-28T07:29:31Z</time>
      </trkpt>
      <trkpt lat="50.78759" lon="3.37881">
        <ele>36</ele>
        <time>2023-10-28T07:29:32Z</time>
      </trkpt>
      <trkpt lat="50.78757" lon="3.37874">
        <ele>36.2</ele>
        <time>2023-10-28T07:29:33Z</time>
      </trkpt>
      <trkpt lat="50.78754" lon="3.37868">
        <ele>36.2</ele>
        <time>2023-10-28T07:29:34Z</time>
      </trkpt>
      <trkpt lat="50.78751" lon="3.3786">
        <ele>36.2</ele>
        <time>2023-10-28T07:29:35Z</time>
      </trkpt>
      <trkpt lat="50.78749" lon="3.37855">
        <ele>36.2</ele>
        <time>2023-10-28T07:29:36Z</time>
      </trkpt>
      <trkpt lat="50.78747" lon="3.37848">
        <ele>36.4</ele>
        <time>2023-10-28T07:29:37Z</time>
      </trkpt>
      <trkpt lat="50.78744" lon="3.37842">
        <ele>36.4</ele>
        <time>2023-10-28T07:29:38Z</time>
      </trkpt>
      <trkpt lat="50.7874" lon="3.37835">
        <ele>36.4</ele>
        <time>2023-10-28T07:29:39Z</time>
      </trkpt>
      <trkpt lat="50.78737" lon="3.37828">
        <ele>36.4</ele>
        <time>2023-10-28T07:29:40Z</time>
      </trkpt>
      <trkpt lat="50.78734" lon="3.37821">
        <ele>36.4</ele>
        <time>2023-10-28T07:29:41Z</time>
      </trkpt>
      <trkpt lat="50.7873" lon="3.37814">
        <ele>36.4</ele>
        <time>2023-10-28T07:29:42Z</time>
      </trkpt>
      <trkpt lat="50.78726" lon="3.37807">
        <ele>36.4</ele>
        <time>2023-10-28T07:29:43Z</time>
      </trkpt>
      <trkpt lat="50.78721" lon="3.37798">
        <ele>36.4</ele>
        <time>2023-10-28T07:29:44Z</time>
      </trkpt>
      <trkpt lat="50.78718" lon="3.37792">
        <ele>36.4</ele>
        <time>2023-10-28T07:29:45Z</time>
      </trkpt>
      <trkpt lat="50.78714" lon="3.37784">
        <ele>36.4</ele>
        <time>2023-10-28T07:29:46Z</time>
      </trkpt>
      <trkpt lat="50.78701" lon="3.37759">
        <ele>36</ele>
        <time>2023-10-28T07:29:49Z</time>
      </trkpt>
      <trkpt lat="50.78683" lon="3.37726">
        <ele>35.4</ele>
        <time>2023-10-28T07:29:53Z</time>
      </trkpt>
      <trkpt lat="50.7867" lon="3.377">
        <ele>35</ele>
        <time>2023-10-28T07:29:56Z</time>
      </trkpt>
      <trkpt lat="50.78666" lon="3.37692">
        <ele>34.4</ele>
        <time>2023-10-28T07:29:57Z</time>
      </trkpt>
      <trkpt lat="50.78657" lon="3.37676">
        <ele>33.6</ele>
        <time>2023-10-28T07:29:59Z</time>
      </trkpt>
      <trkpt lat="50.78653" lon="3.37672">
        <ele>33</ele>
        <time>2023-10-28T07:30:00Z</time>
      </trkpt>
      <trkpt lat="50.78649" lon="3.37672">
        <ele>32.2</ele>
        <time>2023-10-28T07:30:01Z</time>
      </trkpt>
      <trkpt lat="50.78644" lon="3.37675">
        <ele>31.6</ele>
        <time>2023-10-28T07:30:02Z</time>
      </trkpt>
      <trkpt lat="50.7864" lon="3.3768">
        <ele>31</ele>
        <time>2023-10-28T07:30:03Z</time>
      </trkpt>
      <trkpt lat="50.78635" lon="3.37689">
        <ele>30.6</ele>
        <time>2023-10-28T07:30:04Z</time>
      </trkpt>
      <trkpt lat="50.78632" lon="3.37694">
        <ele>30.2</ele>
        <time>2023-10-28T07:30:05Z</time>
      </trkpt>
      <trkpt lat="50.78628" lon="3.37701">
        <ele>29.8</ele>
        <time>2023-10-28T07:30:06Z</time>
      </trkpt>
      <trkpt lat="50.78611" lon="3.37725">
        <ele>29</ele>
        <time>2023-10-28T07:30:10Z</time>
      </trkpt>
      <trkpt lat="50.78602" lon="3.37735">
        <ele>29</ele>
        <time>2023-10-28T07:30:12Z</time>
      </trkpt>
      <trkpt lat="50.78565" lon="3.37765">
        <ele>28.8</ele>
        <time>2023-10-28T07:30:20Z</time>
      </trkpt>
      <trkpt lat="50.78528" lon="3.37796">
        <ele>28.6</ele>
        <time>2023-10-28T07:30:26Z</time>
      </trkpt>
      <trkpt lat="50.78505" lon="3.37825">
        <ele>28.4</ele>
        <time>2023-10-28T07:30:31Z</time>
      </trkpt>
      <trkpt lat="50.78496" lon="3.37836">
        <ele>28.6</ele>
        <time>2023-10-28T07:30:33Z</time>
      </trkpt>
      <trkpt lat="50.78492" lon="3.37842">
        <ele>28.6</ele>
        <time>2023-10-28T07:30:34Z</time>
      </trkpt>
      <trkpt lat="50.78488" lon="3.37846">
        <ele>28.4</ele>
        <time>2023-10-28T07:30:35Z</time>
      </trkpt>
      <trkpt lat="50.78484" lon="3.37848">
        <ele>28.2</ele>
        <time>2023-10-28T07:30:36Z</time>
      </trkpt>
      <trkpt lat="50.78479" lon="3.37848">
        <ele>28.2</ele>
        <time>2023-10-28T07:30:37Z</time>
      </trkpt>
      <trkpt lat="50.78475" lon="3.37843">
        <ele>27.8</ele>
        <time>2023-10-28T07:30:38Z</time>
      </trkpt>
      <trkpt lat="50.78469" lon="3.37832">
        <ele>27.4</ele>
        <time>2023-10-28T07:30:40Z</time>
      </trkpt>
      <trkpt lat="50.78465" lon="3.37826">
        <ele>27.4</ele>
        <time>2023-10-28T07:30:41Z</time>
      </trkpt>
      <trkpt lat="50.78462" lon="3.3782">
        <ele>27.2</ele>
        <time>2023-10-28T07:30:42Z</time>
      </trkpt>
      <trkpt lat="50.7845" lon="3.378">
        <ele>27.2</ele>
        <time>2023-10-28T07:30:45Z</time>
      </trkpt>
      <trkpt lat="50.78447" lon="3.37797">
        <ele>27.2</ele>
        <time>2023-10-28T07:30:46Z</time>
      </trkpt>
      <trkpt lat="50.78443" lon="3.37795">
        <ele>27</ele>
        <time>2023-10-28T07:30:47Z</time>
      </trkpt>
      <trkpt lat="50.78439" lon="3.37796">
        <ele>27</ele>
        <time>2023-10-28T07:30:48Z</time>
      </trkpt>
      <trkpt lat="50.78435" lon="3.37799">
        <ele>27</ele>
        <time>2023-10-28T07:30:49Z</time>
      </trkpt>
      <trkpt lat="50.78431" lon="3.37805">
        <ele>26.8</ele>
        <time>2023-10-28T07:30:50Z</time>
      </trkpt>
      <trkpt lat="50.78421" lon="3.37818">
        <ele>26.8</ele>
        <time>2023-10-28T07:30:52Z</time>
      </trkpt>
      <trkpt lat="50.78417" lon="3.37825">
        <ele>26.6</ele>
        <time>2023-10-28T07:30:53Z</time>
      </trkpt>
      <trkpt lat="50.78407" lon="3.37839">
        <ele>26.4</ele>
        <time>2023-10-28T07:30:55Z</time>
      </trkpt>
      <trkpt lat="50.78403" lon="3.37846">
        <ele>26.2</ele>
        <time>2023-10-28T07:30:56Z</time>
      </trkpt>
      <trkpt lat="50.78393" lon="3.37858">
        <ele>25.8</ele>
        <time>2023-10-28T07:30:58Z</time>
      </trkpt>
      <trkpt lat="50.78384" lon="3.37869">
        <ele>25</ele>
        <time>2023-10-28T07:31:00Z</time>
      </trkpt>
      <trkpt lat="50.78379" lon="3.37875">
        <ele>24.4</ele>
        <time>2023-10-28T07:31:01Z</time>
      </trkpt>
      <trkpt lat="50.7837" lon="3.37888">
        <ele>24</ele>
        <time>2023-10-28T07:31:03Z</time>
      </trkpt>
      <trkpt lat="50.78365" lon="3.37894">
        <ele>23.8</ele>
        <time>2023-10-28T07:31:04Z</time>
      </trkpt>
      <trkpt lat="50.7836" lon="3.37901">
        <ele>23.6</ele>
        <time>2023-10-28T07:31:05Z</time>
      </trkpt>
      <trkpt lat="50.78352" lon="3.37912">
        <ele>23.6</ele>
        <time>2023-10-28T07:31:07Z</time>
      </trkpt>
      <trkpt lat="50.78348" lon="3.37917">
        <ele>23.6</ele>
        <time>2023-10-28T07:31:08Z</time>
      </trkpt>
      <trkpt lat="50.78344" lon="3.37922">
        <ele>23.6</ele>
        <time>2023-10-28T07:31:09Z</time>
      </trkpt>
      <trkpt lat="50.7834" lon="3.37925">
        <ele>23.4</ele>
        <time>2023-10-28T07:31:10Z</time>
      </trkpt>
      <trkpt lat="50.78335" lon="3.37927">
        <ele>23.4</ele>
        <time>2023-10-28T07:31:11Z</time>
      </trkpt>
      <trkpt lat="50.7833" lon="3.37928">
        <ele>23.4</ele>
        <time>2023-10-28T07:31:12Z</time>
      </trkpt>
      <trkpt lat="50.78325" lon="3.37929">
        <ele>23.4</ele>
        <time>2023-10-28T07:31:13Z</time>
      </trkpt>
      <trkpt lat="50.78303" lon="3.3793">
        <ele>23.6</ele>
        <time>2023-10-28T07:31:17Z</time>
      </trkpt>
      <trkpt lat="50.78297" lon="3.37931">
        <ele>23.4</ele>
        <time>2023-10-28T07:31:18Z</time>
      </trkpt>
      <trkpt lat="50.78276" lon="3.37932">
        <ele>23.4</ele>
        <time>2023-10-28T07:31:22Z</time>
      </trkpt>
      <trkpt lat="50.78272" lon="3.37932">
        <ele>23.4</ele>
        <time>2023-10-28T07:31:23Z</time>
      </trkpt>
      <trkpt lat="50.78268" lon="3.37931">
        <ele>23.4</ele>
        <time>2023-10-28T07:31:24Z</time>
      </trkpt>
      <trkpt lat="50.78264" lon="3.37931">
        <ele>23.6</ele>
        <time>2023-10-28T07:31:25Z</time>
      </trkpt>
      <trkpt lat="50.78261" lon="3.37929">
        <ele>23.6</ele>
        <time>2023-10-28T07:31:26Z</time>
      </trkpt>
      <trkpt lat="50.78258" lon="3.3793">
        <ele>23.6</ele>
        <time>2023-10-28T07:31:27Z</time>
      </trkpt>
      <trkpt lat="50.78255" lon="3.37931">
        <ele>23.6</ele>
        <time>2023-10-28T07:31:28Z</time>
      </trkpt>
      <trkpt lat="50.78252" lon="3.37933">
        <ele>23.6</ele>
        <time>2023-10-28T07:31:29Z</time>
      </trkpt>
      <trkpt lat="50.78249" lon="3.37934">
        <ele>23.6</ele>
        <time>2023-10-28T07:31:30Z</time>
      </trkpt>
      <trkpt lat="50.78246" lon="3.37936">
        <ele>23.8</ele>
        <time>2023-10-28T07:31:31Z</time>
      </trkpt>
      <trkpt lat="50.78236" lon="3.37938">
        <ele>24</ele>
        <time>2023-10-28T07:31:34Z</time>
      </trkpt>
      <trkpt lat="50.78211" lon="3.37945">
        <ele>24</ele>
        <time>2023-10-28T07:31:41Z</time>
      </trkpt>
      <trkpt lat="50.78188" lon="3.37953">
        <ele>24</ele>
        <time>2023-10-28T07:31:46Z</time>
      </trkpt>
      <trkpt lat="50.78183" lon="3.37955">
        <ele>24</ele>
        <time>2023-10-28T07:31:47Z</time>
      </trkpt>
      <trkpt lat="50.78153" lon="3.37969">
        <ele>23.8</ele>
        <time>2023-10-28T07:31:53Z</time>
      </trkpt>
      <trkpt lat="50.78132" lon="3.37978">
        <ele>23.4</ele>
        <time>2023-10-28T07:31:57Z</time>
      </trkpt>
      <trkpt lat="50.78115" lon="3.37987">
        <ele>23.2</ele>
        <time>2023-10-28T07:32:00Z</time>
      </trkpt>
      <trkpt lat="50.78105" lon="3.37994">
        <ele>23</ele>
        <time>2023-10-28T07:32:02Z</time>
      </trkpt>
      <trkpt lat="50.78069" lon="3.38022">
        <ele>22.4</ele>
        <time>2023-10-28T07:32:09Z</time>
      </trkpt>
      <trkpt lat="50.78063" lon="3.38026">
        <ele>22.2</ele>
        <time>2023-10-28T07:32:10Z</time>
      </trkpt>
      <trkpt lat="50.78058" lon="3.38031">
        <ele>22.2</ele>
        <time>2023-10-28T07:32:11Z</time>
      </trkpt>
      <trkpt lat="50.78051" lon="3.38044">
        <ele>21.8</ele>
        <time>2023-10-28T07:32:13Z</time>
      </trkpt>
      <trkpt lat="50.7804" lon="3.38065">
        <ele>21.4</ele>
        <time>2023-10-28T07:32:16Z</time>
      </trkpt>
      <trkpt lat="50.78037" lon="3.38072">
        <ele>21</ele>
        <time>2023-10-28T07:32:17Z</time>
      </trkpt>
      <trkpt lat="50.78033" lon="3.38079">
        <ele>20.8</ele>
        <time>2023-10-28T07:32:18Z</time>
      </trkpt>
      <trkpt lat="50.78023" lon="3.38101">
        <ele>20</ele>
        <time>2023-10-28T07:32:21Z</time>
      </trkpt>
      <trkpt lat="50.78019" lon="3.38108">
        <ele>19.8</ele>
        <time>2023-10-28T07:32:22Z</time>
      </trkpt>
      <trkpt lat="50.78015" lon="3.38116">
        <ele>19.6</ele>
        <time>2023-10-28T07:32:23Z</time>
      </trkpt>
      <trkpt lat="50.77982" lon="3.38182">
        <ele>19.6</ele>
        <time>2023-10-28T07:32:32Z</time>
      </trkpt>
      <trkpt lat="50.77974" lon="3.38197">
        <ele>19.4</ele>
        <time>2023-10-28T07:32:34Z</time>
      </trkpt>
      <trkpt lat="50.77943" lon="3.38254">
        <ele>19.4</ele>
        <time>2023-10-28T07:32:41Z</time>
      </trkpt>
      <trkpt lat="50.77933" lon="3.38272">
        <ele>19.4</ele>
        <time>2023-10-28T07:32:43Z</time>
      </trkpt>
      <trkpt lat="50.77916" lon="3.38307">
        <ele>19</ele>
        <time>2023-10-28T07:32:47Z</time>
      </trkpt>
      <trkpt lat="50.77903" lon="3.38333">
        <ele>18.2</ele>
        <time>2023-10-28T07:32:50Z</time>
      </trkpt>
      <trkpt lat="50.7789" lon="3.3836">
        <ele>17</ele>
        <time>2023-10-28T07:32:53Z</time>
      </trkpt>
      <trkpt lat="50.77878" lon="3.38387">
        <ele>16.6</ele>
        <time>2023-10-28T07:32:56Z</time>
      </trkpt>
      <trkpt lat="50.77873" lon="3.38406">
        <ele>16.4</ele>
        <time>2023-10-28T07:32:58Z</time>
      </trkpt>
      <trkpt lat="50.77871" lon="3.38415">
        <ele>16.4</ele>
        <time>2023-10-28T07:32:59Z</time>
      </trkpt>
      <trkpt lat="50.7787" lon="3.38423">
        <ele>16</ele>
        <time>2023-10-28T07:33:00Z</time>
      </trkpt>
      <trkpt lat="50.77869" lon="3.38431">
        <ele>16</ele>
        <time>2023-10-28T07:33:01Z</time>
      </trkpt>
      <trkpt lat="50.77867" lon="3.38439">
        <ele>16</ele>
        <time>2023-10-28T07:33:02Z</time>
      </trkpt>
      <trkpt lat="50.77866" lon="3.38447">
        <ele>16</ele>
        <time>2023-10-28T07:33:03Z</time>
      </trkpt>
      <trkpt lat="50.77865" lon="3.38455">
        <ele>16</ele>
        <time>2023-10-28T07:33:04Z</time>
      </trkpt>
      <trkpt lat="50.77864" lon="3.38462">
        <ele>16</ele>
        <time>2023-10-28T07:33:05Z</time>
      </trkpt>
      <trkpt lat="50.77863" lon="3.38469">
        <ele>16</ele>
        <time>2023-10-28T07:33:06Z</time>
      </trkpt>
      <trkpt lat="50.77862" lon="3.38475">
        <ele>16</ele>
        <time>2023-10-28T07:33:07Z</time>
      </trkpt>
      <trkpt lat="50.77861" lon="3.38481">
        <ele>16</ele>
        <time>2023-10-28T07:33:08Z</time>
      </trkpt>
      <trkpt lat="50.7786" lon="3.38485">
        <ele>16</ele>
        <time>2023-10-28T07:33:09Z</time>
      </trkpt>
      <trkpt lat="50.77858" lon="3.38488">
        <ele>16.4</ele>
        <time>2023-10-28T07:33:10Z</time>
      </trkpt>
      <trkpt lat="50.77856" lon="3.3849">
        <ele>17</ele>
        <time>2023-10-28T07:33:11Z</time>
      </trkpt>
      <trkpt lat="50.77854" lon="3.38488">
        <ele>17.2</ele>
        <time>2023-10-28T07:33:12Z</time>
      </trkpt>
      <trkpt lat="50.77852" lon="3.38485">
        <ele>17.4</ele>
        <time>2023-10-28T07:33:13Z</time>
      </trkpt>
      <trkpt lat="50.7784" lon="3.38461">
        <ele>17.4</ele>
        <time>2023-10-28T07:33:18Z</time>
      </trkpt>
      <trkpt lat="50.77837" lon="3.38456">
        <ele>17.4</ele>
        <time>2023-10-28T07:33:19Z</time>
      </trkpt>
      <trkpt lat="50.77823" lon="3.38433">
        <ele>17.2</ele>
        <time>2023-10-28T07:33:23Z</time>
      </trkpt>
      <trkpt lat="50.77812" lon="3.38416">
        <ele>16.8</ele>
        <time>2023-10-28T07:33:26Z</time>
      </trkpt>
      <trkpt lat="50.77808" lon="3.38411">
        <ele>16.6</ele>
        <time>2023-10-28T07:33:27Z</time>
      </trkpt>
      <trkpt lat="50.77791" lon="3.3839">
        <ele>15.8</ele>
        <time>2023-10-28T07:33:31Z</time>
      </trkpt>
      <trkpt lat="50.77777" lon="3.38373">
        <ele>15.2</ele>
        <time>2023-10-28T07:33:34Z</time>
      </trkpt>
      <trkpt lat="50.77759" lon="3.38348">
        <ele>14.6</ele>
        <time>2023-10-28T07:33:38Z</time>
      </trkpt>
      <trkpt lat="50.77746" lon="3.38326">
        <ele>14.4</ele>
        <time>2023-10-28T07:33:41Z</time>
      </trkpt>
      <trkpt lat="50.77728" lon="3.38288">
        <ele>14</ele>
        <time>2023-10-28T07:33:46Z</time>
      </trkpt>
      <trkpt lat="50.77726" lon="3.38281">
        <ele>13.8</ele>
        <time>2023-10-28T07:33:47Z</time>
      </trkpt>
      <trkpt lat="50.77723" lon="3.38275">
        <ele>13.6</ele>
        <time>2023-10-28T07:33:48Z</time>
      </trkpt>
      <trkpt lat="50.77721" lon="3.38271">
        <ele>13.4</ele>
        <time>2023-10-28T07:33:49Z</time>
      </trkpt>
      <trkpt lat="50.77718" lon="3.3827">
        <ele>13.2</ele>
        <time>2023-10-28T07:33:50Z</time>
      </trkpt>
      <trkpt lat="50.77715" lon="3.3827">
        <ele>13</ele>
        <time>2023-10-28T07:33:51Z</time>
      </trkpt>
      <trkpt lat="50.77706" lon="3.38275">
        <ele>12.8</ele>
        <time>2023-10-28T07:33:53Z</time>
      </trkpt>
      <trkpt lat="50.77701" lon="3.38279">
        <ele>12.6</ele>
        <time>2023-10-28T07:33:54Z</time>
      </trkpt>
      <trkpt lat="50.77696" lon="3.38284">
        <ele>12.6</ele>
        <time>2023-10-28T07:33:55Z</time>
      </trkpt>
      <trkpt lat="50.77669" lon="3.38308">
        <ele>12.2</ele>
        <time>2023-10-28T07:34:00Z</time>
      </trkpt>
      <trkpt lat="50.77651" lon="3.38325">
        <ele>12</ele>
        <time>2023-10-28T07:34:03Z</time>
      </trkpt>
      <trkpt lat="50.7764" lon="3.38335">
        <ele>11.6</ele>
        <time>2023-10-28T07:34:05Z</time>
      </trkpt>
      <trkpt lat="50.77629" lon="3.38346">
        <ele>11</ele>
        <time>2023-10-28T07:34:07Z</time>
      </trkpt>
      <trkpt lat="50.77623" lon="3.38351">
        <ele>10.4</ele>
        <time>2023-10-28T07:34:08Z</time>
      </trkpt>
      <trkpt lat="50.77605" lon="3.38366">
        <ele>8.8</ele>
        <time>2023-10-28T07:34:11Z</time>
      </trkpt>
      <trkpt lat="50.776" lon="3.38371">
        <ele>8.4</ele>
        <time>2023-10-28T07:34:12Z</time>
      </trkpt>
      <trkpt lat="50.77594" lon="3.38376">
        <ele>8.2</ele>
        <time>2023-10-28T07:34:13Z</time>
      </trkpt>
      <trkpt lat="50.77589" lon="3.38378">
        <ele>8.2</ele>
        <time>2023-10-28T07:34:14Z</time>
      </trkpt>
      <trkpt lat="50.77584" lon="3.3838">
        <ele>8</ele>
        <time>2023-10-28T07:34:15Z</time>
      </trkpt>
      <trkpt lat="50.77578" lon="3.3838">
        <ele>8</ele>
        <time>2023-10-28T07:34:16Z</time>
      </trkpt>
      <trkpt lat="50.77573" lon="3.38379">
        <ele>8</ele>
        <time>2023-10-28T07:34:17Z</time>
      </trkpt>
      <trkpt lat="50.77569" lon="3.38378">
        <ele>8</ele>
        <time>2023-10-28T07:34:18Z</time>
      </trkpt>
      <trkpt lat="50.77565" lon="3.38379">
        <ele>8</ele>
        <time>2023-10-28T07:34:19Z</time>
      </trkpt>
      <trkpt lat="50.77563" lon="3.38381">
        <ele>8</ele>
        <time>2023-10-28T07:34:20Z</time>
      </trkpt>
      <trkpt lat="50.77561" lon="3.38384">
        <ele>8</ele>
        <time>2023-10-28T07:34:21Z</time>
      </trkpt>
      <trkpt lat="50.77558" lon="3.38387">
        <ele>8</ele>
        <time>2023-10-28T07:34:22Z</time>
      </trkpt>
      <trkpt lat="50.77556" lon="3.38391">
        <ele>8.2</ele>
        <time>2023-10-28T07:34:23Z</time>
      </trkpt>
      <trkpt lat="50.77554" lon="3.38396">
        <ele>8.2</ele>
        <time>2023-10-28T07:34:24Z</time>
      </trkpt>
      <trkpt lat="50.77552" lon="3.384">
        <ele>8.4</ele>
        <time>2023-10-28T07:34:25Z</time>
      </trkpt>
      <trkpt lat="50.77549" lon="3.3841">
        <ele>8.6</ele>
        <time>2023-10-28T07:34:27Z</time>
      </trkpt>
      <trkpt lat="50.77549" lon="3.38414">
        <ele>9</ele>
        <time>2023-10-28T07:34:28Z</time>
      </trkpt>
      <trkpt lat="50.77547" lon="3.38418">
        <ele>9.4</ele>
        <time>2023-10-28T07:34:29Z</time>
      </trkpt>
      <trkpt lat="50.77544" lon="3.38421">
        <ele>9.4</ele>
        <time>2023-10-28T07:34:30Z</time>
      </trkpt>
      <trkpt lat="50.7754" lon="3.38424">
        <ele>9.4</ele>
        <time>2023-10-28T07:34:31Z</time>
      </trkpt>
      <trkpt lat="50.77536" lon="3.38427">
        <ele>9.6</ele>
        <time>2023-10-28T07:34:32Z</time>
      </trkpt>
      <trkpt lat="50.77531" lon="3.38431">
        <ele>9.6</ele>
        <time>2023-10-28T07:34:33Z</time>
      </trkpt>
      <trkpt lat="50.77511" lon="3.38448">
        <ele>9.6</ele>
        <time>2023-10-28T07:34:37Z</time>
      </trkpt>
      <trkpt lat="50.775" lon="3.38458">
        <ele>9.4</ele>
        <time>2023-10-28T07:34:39Z</time>
      </trkpt>
      <trkpt lat="50.77495" lon="3.38462">
        <ele>9</ele>
        <time>2023-10-28T07:34:40Z</time>
      </trkpt>
      <trkpt lat="50.77459" lon="3.38492">
        <ele>8.2</ele>
        <time>2023-10-28T07:34:47Z</time>
      </trkpt>
      <trkpt lat="50.77454" lon="3.38496">
        <ele>8.2</ele>
        <time>2023-10-28T07:34:48Z</time>
      </trkpt>
      <trkpt lat="50.77449" lon="3.38499">
        <ele>8.2</ele>
        <time>2023-10-28T07:34:49Z</time>
      </trkpt>
      <trkpt lat="50.77444" lon="3.38503">
        <ele>8.2</ele>
        <time>2023-10-28T07:34:50Z</time>
      </trkpt>
      <trkpt lat="50.77434" lon="3.38511">
        <ele>8.4</ele>
        <time>2023-10-28T07:34:52Z</time>
      </trkpt>
      <trkpt lat="50.77429" lon="3.38515">
        <ele>8.4</ele>
        <time>2023-10-28T07:34:53Z</time>
      </trkpt>
      <trkpt lat="50.77425" lon="3.3852">
        <ele>8.4</ele>
        <time>2023-10-28T07:34:54Z</time>
      </trkpt>
      <trkpt lat="50.77417" lon="3.38533">
        <ele>8.6</ele>
        <time>2023-10-28T07:34:56Z</time>
      </trkpt>
      <trkpt lat="50.77405" lon="3.38553">
        <ele>8.6</ele>
        <time>2023-10-28T07:34:59Z</time>
      </trkpt>
      <trkpt lat="50.774" lon="3.38558">
        <ele>8.6</ele>
        <time>2023-10-28T07:35:00Z</time>
      </trkpt>
      <trkpt lat="50.77396" lon="3.38563">
        <ele>8.6</ele>
        <time>2023-10-28T07:35:01Z</time>
      </trkpt>
      <trkpt lat="50.77392" lon="3.38567">
        <ele>8.6</ele>
        <time>2023-10-28T07:35:02Z</time>
      </trkpt>
      <trkpt lat="50.77388" lon="3.38571">
        <ele>8.6</ele>
        <time>2023-10-28T07:35:03Z</time>
      </trkpt>
      <trkpt lat="50.77385" lon="3.38574">
        <ele>8.8</ele>
        <time>2023-10-28T07:35:04Z</time>
      </trkpt>
      <trkpt lat="50.77383" lon="3.38577">
        <ele>8.8</ele>
        <time>2023-10-28T07:35:05Z</time>
      </trkpt>
      <trkpt lat="50.77382" lon="3.38578">
        <ele>8.8</ele>
        <time>2023-10-28T07:35:06Z</time>
      </trkpt>
      <trkpt lat="50.77381" lon="3.38579">
        <ele>8.8</ele>
        <time>2023-10-28T07:35:07Z</time>
      </trkpt>
      <trkpt lat="50.7738" lon="3.38581">
        <ele>8.8</ele>
        <time>2023-10-28T07:35:08Z</time>
      </trkpt>
      <trkpt lat="50.77375" lon="3.38586">
        <ele>9.2</ele>
        <time>2023-10-28T07:35:11Z</time>
      </trkpt>
      <trkpt lat="50.77371" lon="3.38589">
        <ele>9.8</ele>
        <time>2023-10-28T07:35:12Z</time>
      </trkpt>
      <trkpt lat="50.77364" lon="3.38597">
        <ele>11.4</ele>
        <time>2023-10-28T07:35:14Z</time>
      </trkpt>
      <trkpt lat="50.7736" lon="3.38601">
        <ele>12.2</ele>
        <time>2023-10-28T07:35:15Z</time>
      </trkpt>
      <trkpt lat="50.77357" lon="3.38603">
        <ele>12.8</ele>
        <time>2023-10-28T07:35:16Z</time>
      </trkpt>
      <trkpt lat="50.77354" lon="3.38606">
        <ele>13.2</ele>
        <time>2023-10-28T07:35:17Z</time>
      </trkpt>
      <trkpt lat="50.77351" lon="3.38609">
        <ele>13.4</ele>
        <time>2023-10-28T07:35:18Z</time>
      </trkpt>
      <trkpt lat="50.77347" lon="3.38611">
        <ele>13.6</ele>
        <time>2023-10-28T07:35:19Z</time>
      </trkpt>
      <trkpt lat="50.77344" lon="3.38614">
        <ele>13.6</ele>
        <time>2023-10-28T07:35:20Z</time>
      </trkpt>
      <trkpt lat="50.77341" lon="3.38616">
        <ele>13.6</ele>
        <time>2023-10-28T07:35:21Z</time>
      </trkpt>
      <trkpt lat="50.77338" lon="3.38619">
        <ele>13.6</ele>
        <time>2023-10-28T07:35:22Z</time>
      </trkpt>
      <trkpt lat="50.77335" lon="3.38621">
        <ele>13.8</ele>
        <time>2023-10-28T07:35:23Z</time>
      </trkpt>
      <trkpt lat="50.77334" lon="3.38623">
        <ele>13.8</ele>
        <time>2023-10-28T07:35:24Z</time>
      </trkpt>
      <trkpt lat="50.77333" lon="3.38624">
        <ele>13.8</ele>
        <time>2023-10-28T07:35:25Z</time>
      </trkpt>
      <trkpt lat="50.77333" lon="3.38624">
        <ele>14</ele>
        <time>2023-10-28T07:35:27Z</time>
      </trkpt>
      <trkpt lat="50.77329" lon="3.38622">
        <ele>15.2</ele>
        <time>2023-10-28T07:35:42Z</time>
      </trkpt>
      <trkpt lat="50.77327" lon="3.38624">
        <ele>15.2</ele>
        <time>2023-10-28T07:35:43Z</time>
      </trkpt>
      <trkpt lat="50.77326" lon="3.38627">
        <ele>15.2</ele>
        <time>2023-10-28T07:35:44Z</time>
      </trkpt>
      <trkpt lat="50.77324" lon="3.38628">
        <ele>15.2</ele>
        <time>2023-10-28T07:35:45Z</time>
      </trkpt>
      <trkpt lat="50.77322" lon="3.38631">
        <ele>15.2</ele>
        <time>2023-10-28T07:35:46Z</time>
      </trkpt>
      <trkpt lat="50.77319" lon="3.38634">
        <ele>15.2</ele>
        <time>2023-10-28T07:35:47Z</time>
      </trkpt>
      <trkpt lat="50.77315" lon="3.38636">
        <ele>15.2</ele>
        <time>2023-10-28T07:35:48Z</time>
      </trkpt>
      <trkpt lat="50.77312" lon="3.38638">
        <ele>15.2</ele>
        <time>2023-10-28T07:35:49Z</time>
      </trkpt>
      <trkpt lat="50.7731" lon="3.3864">
        <ele>15.2</ele>
        <time>2023-10-28T07:35:50Z</time>
      </trkpt>
      <trkpt lat="50.77296" lon="3.38649">
        <ele>15</ele>
        <time>2023-10-28T07:35:55Z</time>
      </trkpt>
      <trkpt lat="50.77293" lon="3.38653">
        <ele>15</ele>
        <time>2023-10-28T07:35:56Z</time>
      </trkpt>
      <trkpt lat="50.77288" lon="3.38663">
        <ele>14.8</ele>
        <time>2023-10-28T07:35:58Z</time>
      </trkpt>
      <trkpt lat="50.77277" lon="3.38674">
        <ele>14.6</ele>
        <time>2023-10-28T07:36:01Z</time>
      </trkpt>
      <trkpt lat="50.77269" lon="3.3868">
        <ele>14.4</ele>
        <time>2023-10-28T07:36:03Z</time>
      </trkpt>
      <trkpt lat="50.77265" lon="3.38682">
        <ele>14.4</ele>
        <time>2023-10-28T07:36:04Z</time>
      </trkpt>
      <trkpt lat="50.77262" lon="3.38685">
        <ele>14.4</ele>
        <time>2023-10-28T07:36:05Z</time>
      </trkpt>
      <trkpt lat="50.7726" lon="3.38688">
        <ele>14.4</ele>
        <time>2023-10-28T07:36:06Z</time>
      </trkpt>
      <trkpt lat="50.77258" lon="3.3869">
        <ele>14.4</ele>
        <time>2023-10-28T07:36:07Z</time>
      </trkpt>
      <trkpt lat="50.77256" lon="3.38692">
        <ele>14.4</ele>
        <time>2023-10-28T07:36:08Z</time>
      </trkpt>
      <trkpt lat="50.77255" lon="3.38692">
        <ele>14.4</ele>
        <time>2023-10-28T07:36:09Z</time>
      </trkpt>
      <trkpt lat="50.77253" lon="3.38692">
        <ele>14.4</ele>
        <time>2023-10-28T07:36:10Z</time>
      </trkpt>
      <trkpt lat="50.77251" lon="3.38694">
        <ele>14.4</ele>
        <time>2023-10-28T07:36:11Z</time>
      </trkpt>
      <trkpt lat="50.7725" lon="3.38696">
        <ele>14.4</ele>
        <time>2023-10-28T07:36:12Z</time>
      </trkpt>
      <trkpt lat="50.77248" lon="3.38698">
        <ele>14.4</ele>
        <time>2023-10-28T07:36:13Z</time>
      </trkpt>
      <trkpt lat="50.77246" lon="3.387">
        <ele>14.4</ele>
        <time>2023-10-28T07:36:14Z</time>
      </trkpt>
      <trkpt lat="50.77235" lon="3.38709">
        <ele>14.4</ele>
        <time>2023-10-28T07:36:18Z</time>
      </trkpt>
      <trkpt lat="50.77224" lon="3.38716">
        <ele>14.2</ele>
        <time>2023-10-28T07:36:21Z</time>
      </trkpt>
      <trkpt lat="50.7722" lon="3.38719">
        <ele>14.2</ele>
        <time>2023-10-28T07:36:22Z</time>
      </trkpt>
      <trkpt lat="50.77217" lon="3.38723">
        <ele>14.2</ele>
        <time>2023-10-28T07:36:23Z</time>
      </trkpt>
      <trkpt lat="50.77214" lon="3.3873">
        <ele>14.2</ele>
        <time>2023-10-28T07:36:24Z</time>
      </trkpt>
      <trkpt lat="50.77212" lon="3.38738">
        <ele>14.2</ele>
        <time>2023-10-28T07:36:25Z</time>
      </trkpt>
      <trkpt lat="50.77209" lon="3.38746">
        <ele>14.2</ele>
        <time>2023-10-28T07:36:26Z</time>
      </trkpt>
      <trkpt lat="50.77205" lon="3.38754">
        <ele>14</ele>
        <time>2023-10-28T07:36:27Z</time>
      </trkpt>
      <trkpt lat="50.77199" lon="3.38768">
        <ele>13.6</ele>
        <time>2023-10-28T07:36:29Z</time>
      </trkpt>
      <trkpt lat="50.77195" lon="3.38776">
        <ele>13.6</ele>
        <time>2023-10-28T07:36:30Z</time>
      </trkpt>
      <trkpt lat="50.77192" lon="3.38783">
        <ele>12.8</ele>
        <time>2023-10-28T07:36:31Z</time>
      </trkpt>
      <trkpt lat="50.77189" lon="3.38792">
        <ele>12</ele>
        <time>2023-10-28T07:36:32Z</time>
      </trkpt>
      <trkpt lat="50.77187" lon="3.388">
        <ele>11.4</ele>
        <time>2023-10-28T07:36:33Z</time>
      </trkpt>
      <trkpt lat="50.77184" lon="3.38808">
        <ele>10.8</ele>
        <time>2023-10-28T07:36:34Z</time>
      </trkpt>
      <trkpt lat="50.77181" lon="3.38815">
        <ele>10.2</ele>
        <time>2023-10-28T07:36:35Z</time>
      </trkpt>
      <trkpt lat="50.77171" lon="3.3884">
        <ele>9.8</ele>
        <time>2023-10-28T07:36:38Z</time>
      </trkpt>
      <trkpt lat="50.77145" lon="3.38903">
        <ele>9.4</ele>
        <time>2023-10-28T07:36:45Z</time>
      </trkpt>
      <trkpt lat="50.77142" lon="3.38909">
        <ele>9.4</ele>
        <time>2023-10-28T07:36:46Z</time>
      </trkpt>
      <trkpt lat="50.7714" lon="3.38913">
        <ele>9.4</ele>
        <time>2023-10-28T07:36:47Z</time>
      </trkpt>
      <trkpt lat="50.77138" lon="3.38915">
        <ele>9.4</ele>
        <time>2023-10-28T07:36:48Z</time>
      </trkpt>
      <trkpt lat="50.77136" lon="3.38917">
        <ele>9.4</ele>
        <time>2023-10-28T07:36:49Z</time>
      </trkpt>
      <trkpt lat="50.77133" lon="3.38917">
        <ele>9.4</ele>
        <time>2023-10-28T07:36:50Z</time>
      </trkpt>
      <trkpt lat="50.7713" lon="3.38917">
        <ele>9.6</ele>
        <time>2023-10-28T07:36:51Z</time>
      </trkpt>
      <trkpt lat="50.77128" lon="3.38918">
        <ele>9.6</ele>
        <time>2023-10-28T07:36:52Z</time>
      </trkpt>
      <trkpt lat="50.77123" lon="3.38924">
        <ele>10.2</ele>
        <time>2023-10-28T07:36:54Z</time>
      </trkpt>
      <trkpt lat="50.7712" lon="3.38926">
        <ele>11</ele>
        <time>2023-10-28T07:36:55Z</time>
      </trkpt>
      <trkpt lat="50.77118" lon="3.38929">
        <ele>11.6</ele>
        <time>2023-10-28T07:36:56Z</time>
      </trkpt>
      <trkpt lat="50.77115" lon="3.38933">
        <ele>12.6</ele>
        <time>2023-10-28T07:36:57Z</time>
      </trkpt>
      <trkpt lat="50.77113" lon="3.38937">
        <ele>13</ele>
        <time>2023-10-28T07:36:58Z</time>
      </trkpt>
      <trkpt lat="50.771" lon="3.38952">
        <ele>13.6</ele>
        <time>2023-10-28T07:37:02Z</time>
      </trkpt>
      <trkpt lat="50.77098" lon="3.38955">
        <ele>13.8</ele>
        <time>2023-10-28T07:37:03Z</time>
      </trkpt>
      <trkpt lat="50.77095" lon="3.38958">
        <ele>13.8</ele>
        <time>2023-10-28T07:37:04Z</time>
      </trkpt>
      <trkpt lat="50.77093" lon="3.38961">
        <ele>14</ele>
        <time>2023-10-28T07:37:05Z</time>
      </trkpt>
      <trkpt lat="50.7709" lon="3.38964">
        <ele>14</ele>
        <time>2023-10-28T07:37:06Z</time>
      </trkpt>
      <trkpt lat="50.77088" lon="3.38968">
        <ele>14</ele>
        <time>2023-10-28T07:37:07Z</time>
      </trkpt>
      <trkpt lat="50.77085" lon="3.38971">
        <ele>14</ele>
        <time>2023-10-28T07:37:08Z</time>
      </trkpt>
      <trkpt lat="50.77082" lon="3.38976">
        <ele>14</ele>
        <time>2023-10-28T07:37:09Z</time>
      </trkpt>
      <trkpt lat="50.77079" lon="3.38979">
        <ele>14</ele>
        <time>2023-10-28T07:37:10Z</time>
      </trkpt>
      <trkpt lat="50.77076" lon="3.38984">
        <ele>14</ele>
        <time>2023-10-28T07:37:11Z</time>
      </trkpt>
      <trkpt lat="50.77073" lon="3.38988">
        <ele>14</ele>
        <time>2023-10-28T07:37:12Z</time>
      </trkpt>
      <trkpt lat="50.7707" lon="3.38992">
        <ele>14</ele>
        <time>2023-10-28T07:37:13Z</time>
      </trkpt>
      <trkpt lat="50.77068" lon="3.38996">
        <ele>14</ele>
        <time>2023-10-28T07:37:14Z</time>
      </trkpt>
      <trkpt lat="50.77065" lon="3.38999">
        <ele>14</ele>
        <time>2023-10-28T07:37:15Z</time>
      </trkpt>
      <trkpt lat="50.77063" lon="3.39003">
        <ele>14</ele>
        <time>2023-10-28T07:37:16Z</time>
      </trkpt>
      <trkpt lat="50.7706" lon="3.39006">
        <ele>14</ele>
        <time>2023-10-28T07:37:17Z</time>
      </trkpt>
      <trkpt lat="50.77056" lon="3.39011">
        <ele>14</ele>
        <time>2023-10-28T07:37:18Z</time>
      </trkpt>
      <trkpt lat="50.77054" lon="3.39015">
        <ele>14</ele>
        <time>2023-10-28T07:37:19Z</time>
      </trkpt>
      <trkpt lat="50.77052" lon="3.39019">
        <ele>14</ele>
        <time>2023-10-28T07:37:20Z</time>
      </trkpt>
      <trkpt lat="50.77048" lon="3.39024">
        <ele>14</ele>
        <time>2023-10-28T07:37:21Z</time>
      </trkpt>
      <trkpt lat="50.77044" lon="3.39029">
        <ele>14</ele>
        <time>2023-10-28T07:37:22Z</time>
      </trkpt>
      <trkpt lat="50.77031" lon="3.39043">
        <ele>13.8</ele>
        <time>2023-10-28T07:37:25Z</time>
      </trkpt>
      <trkpt lat="50.77028" lon="3.39045">
        <ele>13.8</ele>
        <time>2023-10-28T07:37:26Z</time>
      </trkpt>
      <trkpt lat="50.77023" lon="3.39049">
        <ele>13.8</ele>
        <time>2023-10-28T07:37:27Z</time>
      </trkpt>
      <trkpt lat="50.7701" lon="3.39069">
        <ele>13.8</ele>
        <time>2023-10-28T07:37:31Z</time>
      </trkpt>
      <trkpt lat="50.77008" lon="3.39072">
        <ele>13.8</ele>
        <time>2023-10-28T07:37:32Z</time>
      </trkpt>
      <trkpt lat="50.77003" lon="3.39074">
        <ele>13.8</ele>
        <time>2023-10-28T07:37:33Z</time>
      </trkpt>
      <trkpt lat="50.77" lon="3.39075">
        <ele>13.8</ele>
        <time>2023-10-28T07:37:34Z</time>
      </trkpt>
      <trkpt lat="50.76997" lon="3.39077">
        <ele>13.8</ele>
        <time>2023-10-28T07:37:35Z</time>
      </trkpt>
      <trkpt lat="50.76994" lon="3.3908">
        <ele>13.8</ele>
        <time>2023-10-28T07:37:36Z</time>
      </trkpt>
      <trkpt lat="50.76987" lon="3.39086">
        <ele>13.8</ele>
        <time>2023-10-28T07:37:38Z</time>
      </trkpt>
      <trkpt lat="50.76984" lon="3.39089">
        <ele>13.8</ele>
        <time>2023-10-28T07:37:39Z</time>
      </trkpt>
      <trkpt lat="50.76981" lon="3.39092">
        <ele>14</ele>
        <time>2023-10-28T07:37:40Z</time>
      </trkpt>
      <trkpt lat="50.76976" lon="3.39096">
        <ele>14</ele>
        <time>2023-10-28T07:37:41Z</time>
      </trkpt>
      <trkpt lat="50.76972" lon="3.39096">
        <ele>14</ele>
        <time>2023-10-28T07:37:42Z</time>
      </trkpt>
      <trkpt lat="50.76969" lon="3.39094">
        <ele>14</ele>
        <time>2023-10-28T07:37:43Z</time>
      </trkpt>
      <trkpt lat="50.76966" lon="3.39093">
        <ele>14</ele>
        <time>2023-10-28T07:37:44Z</time>
      </trkpt>
      <trkpt lat="50.76962" lon="3.39092">
        <ele>14</ele>
        <time>2023-10-28T07:37:45Z</time>
      </trkpt>
      <trkpt lat="50.76959" lon="3.39094">
        <ele>14</ele>
        <time>2023-10-28T07:37:46Z</time>
      </trkpt>
      <trkpt lat="50.76956" lon="3.39097">
        <ele>14</ele>
        <time>2023-10-28T07:37:47Z</time>
      </trkpt>
      <trkpt lat="50.76951" lon="3.39106">
        <ele>14</ele>
        <time>2023-10-28T07:37:49Z</time>
      </trkpt>
      <trkpt lat="50.76948" lon="3.39112">
        <ele>14</ele>
        <time>2023-10-28T07:37:50Z</time>
      </trkpt>
      <trkpt lat="50.76946" lon="3.39118">
        <ele>14</ele>
        <time>2023-10-28T07:37:51Z</time>
      </trkpt>
      <trkpt lat="50.76941" lon="3.39132">
        <ele>14</ele>
        <time>2023-10-28T07:37:53Z</time>
      </trkpt>
      <trkpt lat="50.76937" lon="3.39143">
        <ele>13.8</ele>
        <time>2023-10-28T07:37:55Z</time>
      </trkpt>
      <trkpt lat="50.76934" lon="3.39146">
        <ele>13.6</ele>
        <time>2023-10-28T07:37:56Z</time>
      </trkpt>
      <trkpt lat="50.76932" lon="3.39148">
        <ele>13.6</ele>
        <time>2023-10-28T07:37:57Z</time>
      </trkpt>
      <trkpt lat="50.76931" lon="3.39149">
        <ele>13.6</ele>
        <time>2023-10-28T07:37:58Z</time>
      </trkpt>
      <trkpt lat="50.7693" lon="3.3915">
        <ele>13.6</ele>
        <time>2023-10-28T07:37:59Z</time>
      </trkpt>
      <trkpt lat="50.76928" lon="3.3915">
        <ele>13.6</ele>
        <time>2023-10-28T07:38:00Z</time>
      </trkpt>
      <trkpt lat="50.76926" lon="3.39149">
        <ele>13.6</ele>
        <time>2023-10-28T07:38:01Z</time>
      </trkpt>
      <trkpt lat="50.76913" lon="3.39144">
        <ele>13.6</ele>
        <time>2023-10-28T07:38:06Z</time>
      </trkpt>
      <trkpt lat="50.76911" lon="3.39144">
        <ele>13.6</ele>
        <time>2023-10-28T07:38:07Z</time>
      </trkpt>
      <trkpt lat="50.76909" lon="3.39146">
        <ele>13.6</ele>
        <time>2023-10-28T07:38:08Z</time>
      </trkpt>
      <trkpt lat="50.76908" lon="3.39149">
        <ele>13.6</ele>
        <time>2023-10-28T07:38:09Z</time>
      </trkpt>
      <trkpt lat="50.76908" lon="3.39153">
        <ele>13.6</ele>
        <time>2023-10-28T07:38:10Z</time>
      </trkpt>
      <trkpt lat="50.76907" lon="3.3916">
        <ele>13.4</ele>
        <time>2023-10-28T07:38:12Z</time>
      </trkpt>
      <trkpt lat="50.76905" lon="3.39164">
        <ele>13.4</ele>
        <time>2023-10-28T07:38:13Z</time>
      </trkpt>
      <trkpt lat="50.76903" lon="3.39167">
        <ele>13.4</ele>
        <time>2023-10-28T07:38:14Z</time>
      </trkpt>
      <trkpt lat="50.769" lon="3.39171">
        <ele>13.4</ele>
        <time>2023-10-28T07:38:15Z</time>
      </trkpt>
      <trkpt lat="50.76898" lon="3.39175">
        <ele>13.2</ele>
        <time>2023-10-28T07:38:16Z</time>
      </trkpt>
      <trkpt lat="50.76892" lon="3.39189">
        <ele>13.2</ele>
        <time>2023-10-28T07:38:19Z</time>
      </trkpt>
      <trkpt lat="50.76888" lon="3.3919">
        <ele>13.2</ele>
        <time>2023-10-28T07:38:20Z</time>
      </trkpt>
      <trkpt lat="50.76885" lon="3.3919">
        <ele>13.2</ele>
        <time>2023-10-28T07:38:21Z</time>
      </trkpt>
      <trkpt lat="50.76882" lon="3.3919">
        <ele>13.2</ele>
        <time>2023-10-28T07:38:22Z</time>
      </trkpt>
      <trkpt lat="50.76875" lon="3.39195">
        <ele>12.8</ele>
        <time>2023-10-28T07:38:24Z</time>
      </trkpt>
      <trkpt lat="50.76871" lon="3.39201">
        <ele>12.2</ele>
        <time>2023-10-28T07:38:25Z</time>
      </trkpt>
      <trkpt lat="50.76869" lon="3.39206">
        <ele>11.6</ele>
        <time>2023-10-28T07:38:26Z</time>
      </trkpt>
      <trkpt lat="50.76866" lon="3.39213">
        <ele>11</ele>
        <time>2023-10-28T07:38:27Z</time>
      </trkpt>
      <trkpt lat="50.76863" lon="3.3922">
        <ele>10.6</ele>
        <time>2023-10-28T07:38:28Z</time>
      </trkpt>
      <trkpt lat="50.76861" lon="3.39228">
        <ele>10.4</ele>
        <time>2023-10-28T07:38:29Z</time>
      </trkpt>
      <trkpt lat="50.76858" lon="3.39235">
        <ele>10</ele>
        <time>2023-10-28T07:38:30Z</time>
      </trkpt>
      <trkpt lat="50.7685" lon="3.39246">
        <ele>9.8</ele>
        <time>2023-10-28T07:38:32Z</time>
      </trkpt>
      <trkpt lat="50.76846" lon="3.39251">
        <ele>9.8</ele>
        <time>2023-10-28T07:38:33Z</time>
      </trkpt>
      <trkpt lat="50.76842" lon="3.39255">
        <ele>9.8</ele>
        <time>2023-10-28T07:38:34Z</time>
      </trkpt>
      <trkpt lat="50.7684" lon="3.3926">
        <ele>9.8</ele>
        <time>2023-10-28T07:38:35Z</time>
      </trkpt>
      <trkpt lat="50.76838" lon="3.39264">
        <ele>9.8</ele>
        <time>2023-10-28T07:38:36Z</time>
      </trkpt>
      <trkpt lat="50.76836" lon="3.39269">
        <ele>9.6</ele>
        <time>2023-10-28T07:38:37Z</time>
      </trkpt>
      <trkpt lat="50.76834" lon="3.39274">
        <ele>9.6</ele>
        <time>2023-10-28T07:38:38Z</time>
      </trkpt>
      <trkpt lat="50.76832" lon="3.39279">
        <ele>9.6</ele>
        <time>2023-10-28T07:38:39Z</time>
      </trkpt>
      <trkpt lat="50.76824" lon="3.39299">
        <ele>9.4</ele>
        <time>2023-10-28T07:38:43Z</time>
      </trkpt>
      <trkpt lat="50.76814" lon="3.39325">
        <ele>9.4</ele>
        <time>2023-10-28T07:38:48Z</time>
      </trkpt>
      <trkpt lat="50.76809" lon="3.3934">
        <ele>9.4</ele>
        <time>2023-10-28T07:38:51Z</time>
      </trkpt>
      <trkpt lat="50.76802" lon="3.39359">
        <ele>9.4</ele>
        <time>2023-10-28T07:38:55Z</time>
      </trkpt>
      <trkpt lat="50.76797" lon="3.39372">
        <ele>9.4</ele>
        <time>2023-10-28T07:38:58Z</time>
      </trkpt>
      <trkpt lat="50.76795" lon="3.39377">
        <ele>9.4</ele>
        <time>2023-10-28T07:38:59Z</time>
      </trkpt>
      <trkpt lat="50.76793" lon="3.39381">
        <ele>9.4</ele>
        <time>2023-10-28T07:39:00Z</time>
      </trkpt>
      <trkpt lat="50.76791" lon="3.39386">
        <ele>9.4</ele>
        <time>2023-10-28T07:39:01Z</time>
      </trkpt>
      <trkpt lat="50.76788" lon="3.3939">
        <ele>9.4</ele>
        <time>2023-10-28T07:39:02Z</time>
      </trkpt>
      <trkpt lat="50.76786" lon="3.39396">
        <ele>9.2</ele>
        <time>2023-10-28T07:39:03Z</time>
      </trkpt>
      <trkpt lat="50.76777" lon="3.39416">
        <ele>9.2</ele>
        <time>2023-10-28T07:39:07Z</time>
      </trkpt>
      <trkpt lat="50.76763" lon="3.39452">
        <ele>9</ele>
        <time>2023-10-28T07:39:14Z</time>
      </trkpt>
      <trkpt lat="50.76761" lon="3.39457">
        <ele>9</ele>
        <time>2023-10-28T07:39:15Z</time>
      </trkpt>
      <trkpt lat="50.76759" lon="3.39461">
        <ele>8.8</ele>
        <time>2023-10-28T07:39:16Z</time>
      </trkpt>
      <trkpt lat="50.76757" lon="3.39466">
        <ele>8.8</ele>
        <time>2023-10-28T07:39:17Z</time>
      </trkpt>
      <trkpt lat="50.7675" lon="3.3948">
        <ele>8.6</ele>
        <time>2023-10-28T07:39:20Z</time>
      </trkpt>
      <trkpt lat="50.76748" lon="3.39485">
        <ele>8.6</ele>
        <time>2023-10-28T07:39:21Z</time>
      </trkpt>
      <trkpt lat="50.76735" lon="3.39513">
        <ele>9</ele>
        <time>2023-10-28T07:39:27Z</time>
      </trkpt>
      <trkpt lat="50.76733" lon="3.39518">
        <ele>9.2</ele>
        <time>2023-10-28T07:39:28Z</time>
      </trkpt>
      <trkpt lat="50.7673" lon="3.39521">
        <ele>9.2</ele>
        <time>2023-10-28T07:39:29Z</time>
      </trkpt>
      <trkpt lat="50.76728" lon="3.39524">
        <ele>9.4</ele>
        <time>2023-10-28T07:39:30Z</time>
      </trkpt>
      <trkpt lat="50.76727" lon="3.39527">
        <ele>9.4</ele>
        <time>2023-10-28T07:39:31Z</time>
      </trkpt>
      <trkpt lat="50.76725" lon="3.39531">
        <ele>9.4</ele>
        <time>2023-10-28T07:39:32Z</time>
      </trkpt>
      <trkpt lat="50.76723" lon="3.39535">
        <ele>9.4</ele>
        <time>2023-10-28T07:39:33Z</time>
      </trkpt>
      <trkpt lat="50.76721" lon="3.39538">
        <ele>9.4</ele>
        <time>2023-10-28T07:39:34Z</time>
      </trkpt>
      <trkpt lat="50.76719" lon="3.39542">
        <ele>9.4</ele>
        <time>2023-10-28T07:39:35Z</time>
      </trkpt>
      <trkpt lat="50.76699" lon="3.39574">
        <ele>9.4</ele>
        <time>2023-10-28T07:39:42Z</time>
      </trkpt>
      <trkpt lat="50.7668" lon="3.39604">
        <ele>9.2</ele>
        <time>2023-10-28T07:39:49Z</time>
      </trkpt>
      <trkpt lat="50.76671" lon="3.39618">
        <ele>9</ele>
        <time>2023-10-28T07:39:52Z</time>
      </trkpt>
      <trkpt lat="50.76668" lon="3.39621">
        <ele>9</ele>
        <time>2023-10-28T07:39:53Z</time>
      </trkpt>
      <trkpt lat="50.76662" lon="3.3963">
        <ele>9</ele>
        <time>2023-10-28T07:39:55Z</time>
      </trkpt>
      <trkpt lat="50.76659" lon="3.39633">
        <ele>9</ele>
        <time>2023-10-28T07:39:56Z</time>
      </trkpt>
      <trkpt lat="50.76656" lon="3.39637">
        <ele>9.2</ele>
        <time>2023-10-28T07:39:57Z</time>
      </trkpt>
      <trkpt lat="50.76654" lon="3.39641">
        <ele>9.2</ele>
        <time>2023-10-28T07:39:58Z</time>
      </trkpt>
      <trkpt lat="50.76649" lon="3.39649">
        <ele>9.2</ele>
        <time>2023-10-28T07:40:00Z</time>
      </trkpt>
      <trkpt lat="50.76647" lon="3.39653">
        <ele>9.2</ele>
        <time>2023-10-28T07:40:01Z</time>
      </trkpt>
      <trkpt lat="50.76638" lon="3.39665">
        <ele>8.8</ele>
        <time>2023-10-28T07:40:04Z</time>
      </trkpt>
      <trkpt lat="50.76622" lon="3.39684">
        <ele>8.8</ele>
        <time>2023-10-28T07:40:09Z</time>
      </trkpt>
      <trkpt lat="50.76619" lon="3.39688">
        <ele>8.8</ele>
        <time>2023-10-28T07:40:10Z</time>
      </trkpt>
      <trkpt lat="50.76616" lon="3.39691">
        <ele>8.8</ele>
        <time>2023-10-28T07:40:11Z</time>
      </trkpt>
      <trkpt lat="50.76614" lon="3.39695">
        <ele>9</ele>
        <time>2023-10-28T07:40:12Z</time>
      </trkpt>
      <trkpt lat="50.76612" lon="3.39698">
        <ele>9</ele>
        <time>2023-10-28T07:40:13Z</time>
      </trkpt>
      <trkpt lat="50.7661" lon="3.39701">
        <ele>9</ele>
        <time>2023-10-28T07:40:14Z</time>
      </trkpt>
      <trkpt lat="50.76608" lon="3.39705">
        <ele>8.8</ele>
        <time>2023-10-28T07:40:15Z</time>
      </trkpt>
      <trkpt lat="50.76607" lon="3.39707">
        <ele>8.8</ele>
        <time>2023-10-28T07:40:16Z</time>
      </trkpt>
      <trkpt lat="50.76606" lon="3.39709">
        <ele>8.8</ele>
        <time>2023-10-28T07:40:17Z</time>
      </trkpt>
      <trkpt lat="50.76605" lon="3.39711">
        <ele>8.8</ele>
        <time>2023-10-28T07:40:18Z</time>
      </trkpt>
      <trkpt lat="50.76606" lon="3.39713">
        <ele>9</ele>
        <time>2023-10-28T07:40:19Z</time>
      </trkpt>
      <trkpt lat="50.76608" lon="3.39713">
        <ele>8.8</ele>
        <time>2023-10-28T07:40:20Z</time>
      </trkpt>
      <trkpt lat="50.76619" lon="3.39701">
        <ele>9.2</ele>
        <time>2023-10-28T07:40:24Z</time>
      </trkpt>
      <trkpt lat="50.76622" lon="3.39699">
        <ele>9.2</ele>
        <time>2023-10-28T07:40:25Z</time>
      </trkpt>
      <trkpt lat="50.76635" lon="3.39688">
        <ele>10</ele>
        <time>2023-10-28T07:40:29Z</time>
      </trkpt>
      <trkpt lat="50.76641" lon="3.39683">
        <ele>10.2</ele>
        <time>2023-10-28T07:40:31Z</time>
      </trkpt>
      <trkpt lat="50.76659" lon="3.39669">
        <ele>10.8</ele>
        <time>2023-10-28T07:40:36Z</time>
      </trkpt>
      <trkpt lat="50.76661" lon="3.39666">
        <ele>11</ele>
        <time>2023-10-28T07:40:37Z</time>
      </trkpt>
      <trkpt lat="50.76667" lon="3.3966">
        <ele>11.4</ele>
        <time>2023-10-28T07:40:39Z</time>
      </trkpt>
      <trkpt lat="50.76669" lon="3.39657">
        <ele>11.4</ele>
        <time>2023-10-28T07:40:40Z</time>
      </trkpt>
      <trkpt lat="50.76672" lon="3.39654">
        <ele>11.4</ele>
        <time>2023-10-28T07:40:41Z</time>
      </trkpt>
      <trkpt lat="50.76675" lon="3.39651">
        <ele>11.6</ele>
        <time>2023-10-28T07:40:42Z</time>
      </trkpt>
      <trkpt lat="50.76681" lon="3.39647">
        <ele>11.8</ele>
        <time>2023-10-28T07:40:44Z</time>
      </trkpt>
      <trkpt lat="50.76684" lon="3.39648">
        <ele>12</ele>
        <time>2023-10-28T07:40:45Z</time>
      </trkpt>
      <trkpt lat="50.76686" lon="3.39652">
        <ele>12.2</ele>
        <time>2023-10-28T07:40:46Z</time>
      </trkpt>
      <trkpt lat="50.76685" lon="3.39656">
        <ele>12.4</ele>
        <time>2023-10-28T07:40:47Z</time>
      </trkpt>
      <trkpt lat="50.76683" lon="3.3966">
        <ele>12.6</ele>
        <time>2023-10-28T07:40:48Z</time>
      </trkpt>
      <trkpt lat="50.76681" lon="3.39664">
        <ele>12.8</ele>
        <time>2023-10-28T07:40:49Z</time>
      </trkpt>
      <trkpt lat="50.76677" lon="3.39668">
        <ele>13</ele>
        <time>2023-10-28T07:40:50Z</time>
      </trkpt>
      <trkpt lat="50.76674" lon="3.39673">
        <ele>13.2</ele>
        <time>2023-10-28T07:40:51Z</time>
      </trkpt>
      <trkpt lat="50.76671" lon="3.39678">
        <ele>13.4</ele>
        <time>2023-10-28T07:40:52Z</time>
      </trkpt>
      <trkpt lat="50.76667" lon="3.39684">
        <ele>13.2</ele>
        <time>2023-10-28T07:40:53Z</time>
      </trkpt>
      <trkpt lat="50.76664" lon="3.3969">
        <ele>13.4</ele>
        <time>2023-10-28T07:40:54Z</time>
      </trkpt>
      <trkpt lat="50.76661" lon="3.39695">
        <ele>13.4</ele>
        <time>2023-10-28T07:40:55Z</time>
      </trkpt>
      <trkpt lat="50.76659" lon="3.39701">
        <ele>13.6</ele>
        <time>2023-10-28T07:40:56Z</time>
      </trkpt>
      <trkpt lat="50.76656" lon="3.39707">
        <ele>13.4</ele>
        <time>2023-10-28T07:40:57Z</time>
      </trkpt>
      <trkpt lat="50.76653" lon="3.39713">
        <ele>13.6</ele>
        <time>2023-10-28T07:40:58Z</time>
      </trkpt>
      <trkpt lat="50.7665" lon="3.39718">
        <ele>13.6</ele>
        <time>2023-10-28T07:40:59Z</time>
      </trkpt>
      <trkpt lat="50.76647" lon="3.39724">
        <ele>13.6</ele>
        <time>2023-10-28T07:41:00Z</time>
      </trkpt>
      <trkpt lat="50.76644" lon="3.39729">
        <ele>13.6</ele>
        <time>2023-10-28T07:41:01Z</time>
      </trkpt>
      <trkpt lat="50.76641" lon="3.39734">
        <ele>13.6</ele>
        <time>2023-10-28T07:41:02Z</time>
      </trkpt>
      <trkpt lat="50.76637" lon="3.39738">
        <ele>13.8</ele>
        <time>2023-10-28T07:41:03Z</time>
      </trkpt>
      <trkpt lat="50.76634" lon="3.39741">
        <ele>13.8</ele>
        <time>2023-10-28T07:41:04Z</time>
      </trkpt>
      <trkpt lat="50.76629" lon="3.39742">
        <ele>13.8</ele>
        <time>2023-10-28T07:41:05Z</time>
      </trkpt>
      <trkpt lat="50.76625" lon="3.39741">
        <ele>13.8</ele>
        <time>2023-10-28T07:41:06Z</time>
      </trkpt>
      <trkpt lat="50.76622" lon="3.39738">
        <ele>13.8</ele>
        <time>2023-10-28T07:41:07Z</time>
      </trkpt>
      <trkpt lat="50.7662" lon="3.39733">
        <ele>13.8</ele>
        <time>2023-10-28T07:41:08Z</time>
      </trkpt>
      <trkpt lat="50.76618" lon="3.39727">
        <ele>14</ele>
        <time>2023-10-28T07:41:09Z</time>
      </trkpt>
      <trkpt lat="50.76616" lon="3.39722">
        <ele>14</ele>
        <time>2023-10-28T07:41:10Z</time>
      </trkpt>
      <trkpt lat="50.76614" lon="3.39716">
        <ele>14</ele>
        <time>2023-10-28T07:41:11Z</time>
      </trkpt>
      <trkpt lat="50.76612" lon="3.39711">
        <ele>14</ele>
        <time>2023-10-28T07:41:12Z</time>
      </trkpt>
      <trkpt lat="50.7661" lon="3.39705">
        <ele>14</ele>
        <time>2023-10-28T07:41:13Z</time>
      </trkpt>
      <trkpt lat="50.76608" lon="3.397">
        <ele>14.2</ele>
        <time>2023-10-28T07:41:14Z</time>
      </trkpt>
      <trkpt lat="50.76604" lon="3.39688">
        <ele>14.4</ele>
        <time>2023-10-28T07:41:16Z</time>
      </trkpt>
      <trkpt lat="50.76594" lon="3.39658">
        <ele>15.2</ele>
        <time>2023-10-28T07:41:21Z</time>
      </trkpt>
      <trkpt lat="50.76584" lon="3.39633">
        <ele>16.2</ele>
        <time>2023-10-28T07:41:25Z</time>
      </trkpt>
      <trkpt lat="50.76582" lon="3.39626">
        <ele>16.4</ele>
        <time>2023-10-28T07:41:26Z</time>
      </trkpt>
      <trkpt lat="50.76579" lon="3.3962">
        <ele>16.6</ele>
        <time>2023-10-28T07:41:27Z</time>
      </trkpt>
      <trkpt lat="50.76577" lon="3.39614">
        <ele>17</ele>
        <time>2023-10-28T07:41:28Z</time>
      </trkpt>
      <trkpt lat="50.76575" lon="3.39607">
        <ele>17.2</ele>
        <time>2023-10-28T07:41:29Z</time>
      </trkpt>
      <trkpt lat="50.76572" lon="3.39601">
        <ele>17.2</ele>
        <time>2023-10-28T07:41:30Z</time>
      </trkpt>
      <trkpt lat="50.7657" lon="3.39594">
        <ele>17.4</ele>
        <time>2023-10-28T07:41:31Z</time>
      </trkpt>
      <trkpt lat="50.76567" lon="3.39587">
        <ele>17.4</ele>
        <time>2023-10-28T07:41:32Z</time>
      </trkpt>
      <trkpt lat="50.76565" lon="3.3958">
        <ele>17.4</ele>
        <time>2023-10-28T07:41:33Z</time>
      </trkpt>
      <trkpt lat="50.76563" lon="3.39572">
        <ele>17.4</ele>
        <time>2023-10-28T07:41:34Z</time>
      </trkpt>
      <trkpt lat="50.7656" lon="3.39565">
        <ele>17.4</ele>
        <time>2023-10-28T07:41:35Z</time>
      </trkpt>
      <trkpt lat="50.76556" lon="3.39556">
        <ele>17.4</ele>
        <time>2023-10-28T07:41:36Z</time>
      </trkpt>
      <trkpt lat="50.76554" lon="3.3955">
        <ele>17.4</ele>
        <time>2023-10-28T07:41:37Z</time>
      </trkpt>
      <trkpt lat="50.76551" lon="3.3954">
        <ele>17.4</ele>
        <time>2023-10-28T07:41:38Z</time>
      </trkpt>
      <trkpt lat="50.76548" lon="3.39534">
        <ele>17.4</ele>
        <time>2023-10-28T07:41:39Z</time>
      </trkpt>
      <trkpt lat="50.76545" lon="3.39526">
        <ele>17.4</ele>
        <time>2023-10-28T07:41:40Z</time>
      </trkpt>
      <trkpt lat="50.76542" lon="3.39518">
        <ele>17.4</ele>
        <time>2023-10-28T07:41:41Z</time>
      </trkpt>
      <trkpt lat="50.76539" lon="3.3951">
        <ele>17.4</ele>
        <time>2023-10-28T07:41:42Z</time>
      </trkpt>
      <trkpt lat="50.76537" lon="3.39503">
        <ele>17.2</ele>
        <time>2023-10-28T07:41:43Z</time>
      </trkpt>
      <trkpt lat="50.76536" lon="3.39497">
        <ele>17.2</ele>
        <time>2023-10-28T07:41:44Z</time>
      </trkpt>
      <trkpt lat="50.76537" lon="3.39493">
        <ele>17.2</ele>
        <time>2023-10-28T07:41:45Z</time>
      </trkpt>
      <trkpt lat="50.7654" lon="3.39491">
        <ele>17</ele>
        <time>2023-10-28T07:41:46Z</time>
      </trkpt>
      <trkpt lat="50.76542" lon="3.39494">
        <ele>17</ele>
        <time>2023-10-28T07:41:47Z</time>
      </trkpt>
      <trkpt lat="50.76544" lon="3.39498">
        <ele>16.8</ele>
        <time>2023-10-28T07:41:48Z</time>
      </trkpt>
      <trkpt lat="50.76551" lon="3.39517">
        <ele>16.6</ele>
        <time>2023-10-28T07:41:51Z</time>
      </trkpt>
      <trkpt lat="50.76554" lon="3.39525">
        <ele>16.6</ele>
        <time>2023-10-28T07:41:52Z</time>
      </trkpt>
      <trkpt lat="50.76561" lon="3.39543">
        <ele>16.4</ele>
        <time>2023-10-28T07:41:55Z</time>
      </trkpt>
      <trkpt lat="50.76567" lon="3.39555">
        <ele>16.2</ele>
        <time>2023-10-28T07:41:57Z</time>
      </trkpt>
      <trkpt lat="50.76569" lon="3.39561">
        <ele>16</ele>
        <time>2023-10-28T07:41:58Z</time>
      </trkpt>
      <trkpt lat="50.76575" lon="3.3957">
        <ele>15.8</ele>
        <time>2023-10-28T07:42:00Z</time>
      </trkpt>
      <trkpt lat="50.76578" lon="3.39572">
        <ele>15.8</ele>
        <time>2023-10-28T07:42:01Z</time>
      </trkpt>
      <trkpt lat="50.76581" lon="3.3957">
        <ele>15.8</ele>
        <time>2023-10-28T07:42:02Z</time>
      </trkpt>
      <trkpt lat="50.76591" lon="3.39558">
        <ele>15.8</ele>
        <time>2023-10-28T07:42:05Z</time>
      </trkpt>
      <trkpt lat="50.76595" lon="3.39554">
        <ele>15.8</ele>
        <time>2023-10-28T07:42:06Z</time>
      </trkpt>
      <trkpt lat="50.76614" lon="3.39524">
        <ele>15.8</ele>
        <time>2023-10-28T07:42:11Z</time>
      </trkpt>
      <trkpt lat="50.76626" lon="3.39509">
        <ele>15.8</ele>
        <time>2023-10-28T07:42:14Z</time>
      </trkpt>
      <trkpt lat="50.7663" lon="3.39504">
        <ele>15.8</ele>
        <time>2023-10-28T07:42:15Z</time>
      </trkpt>
      <trkpt lat="50.76639" lon="3.39496">
        <ele>15.8</ele>
        <time>2023-10-28T07:42:17Z</time>
      </trkpt>
      <trkpt lat="50.76644" lon="3.39491">
        <ele>15.8</ele>
        <time>2023-10-28T07:42:18Z</time>
      </trkpt>
      <trkpt lat="50.76661" lon="3.39464">
        <ele>15.8</ele>
        <time>2023-10-28T07:42:22Z</time>
      </trkpt>
      <trkpt lat="50.76679" lon="3.39432">
        <ele>15.6</ele>
        <time>2023-10-28T07:42:26Z</time>
      </trkpt>
      <trkpt lat="50.76696" lon="3.394">
        <ele>15</ele>
        <time>2023-10-28T07:42:30Z</time>
      </trkpt>
      <trkpt lat="50.7671" lon="3.39374">
        <ele>14</ele>
        <time>2023-10-28T07:42:33Z</time>
      </trkpt>
      <trkpt lat="50.76733" lon="3.3933">
        <ele>13.2</ele>
        <time>2023-10-28T07:42:38Z</time>
      </trkpt>
      <trkpt lat="50.76736" lon="3.39321">
        <ele>13</ele>
        <time>2023-10-28T07:42:39Z</time>
      </trkpt>
      <trkpt lat="50.76746" lon="3.39295">
        <ele>12.4</ele>
        <time>2023-10-28T07:42:42Z</time>
      </trkpt>
      <trkpt lat="50.76753" lon="3.39278">
        <ele>12.2</ele>
        <time>2023-10-28T07:42:44Z</time>
      </trkpt>
      <trkpt lat="50.76756" lon="3.39269">
        <ele>12.2</ele>
        <time>2023-10-28T07:42:45Z</time>
      </trkpt>
      <trkpt lat="50.7676" lon="3.39259">
        <ele>12</ele>
        <time>2023-10-28T07:42:46Z</time>
      </trkpt>
      <trkpt lat="50.76763" lon="3.39253">
        <ele>12</ele>
        <time>2023-10-28T07:42:47Z</time>
      </trkpt>
      <trkpt lat="50.76766" lon="3.39245">
        <ele>11.8</ele>
        <time>2023-10-28T07:42:48Z</time>
      </trkpt>
      <trkpt lat="50.7678" lon="3.39209">
        <ele>11.8</ele>
        <time>2023-10-28T07:42:52Z</time>
      </trkpt>
      <trkpt lat="50.76796" lon="3.39171">
        <ele>11.6</ele>
        <time>2023-10-28T07:42:56Z</time>
      </trkpt>
      <trkpt lat="50.76814" lon="3.39125">
        <ele>11</ele>
        <time>2023-10-28T07:43:01Z</time>
      </trkpt>
      <trkpt lat="50.76817" lon="3.39118">
        <ele>10.8</ele>
        <time>2023-10-28T07:43:02Z</time>
      </trkpt>
      <trkpt lat="50.76831" lon="3.39085">
        <ele>10</ele>
        <time>2023-10-28T07:43:06Z</time>
      </trkpt>
      <trkpt lat="50.76835" lon="3.39077">
        <ele>9.8</ele>
        <time>2023-10-28T07:43:07Z</time>
      </trkpt>
      <trkpt lat="50.76839" lon="3.39069">
        <ele>9.8</ele>
        <time>2023-10-28T07:43:08Z</time>
      </trkpt>
      <trkpt lat="50.76843" lon="3.39061">
        <ele>9.6</ele>
        <time>2023-10-28T07:43:09Z</time>
      </trkpt>
      <trkpt lat="50.76847" lon="3.39052">
        <ele>9.6</ele>
        <time>2023-10-28T07:43:10Z</time>
      </trkpt>
      <trkpt lat="50.76881" lon="3.38984">
        <ele>9.2</ele>
        <time>2023-10-28T07:43:18Z</time>
      </trkpt>
      <trkpt lat="50.76886" lon="3.38976">
        <ele>9</ele>
        <time>2023-10-28T07:43:19Z</time>
      </trkpt>
      <trkpt lat="50.76898" lon="3.38953">
        <ele>8.6</ele>
        <time>2023-10-28T07:43:22Z</time>
      </trkpt>
      <trkpt lat="50.76934" lon="3.38889">
        <ele>8.4</ele>
        <time>2023-10-28T07:43:30Z</time>
      </trkpt>
      <trkpt lat="50.76957" lon="3.38852">
        <ele>8</ele>
        <time>2023-10-28T07:43:35Z</time>
      </trkpt>
      <trkpt lat="50.76962" lon="3.38845">
        <ele>8</ele>
        <time>2023-10-28T07:43:36Z</time>
      </trkpt>
      <trkpt lat="50.76971" lon="3.3883">
        <ele>8</ele>
        <time>2023-10-28T07:43:38Z</time>
      </trkpt>
      <trkpt lat="50.76977" lon="3.38822">
        <ele>8</ele>
        <time>2023-10-28T07:43:39Z</time>
      </trkpt>
      <trkpt lat="50.7698" lon="3.38817">
        <ele>8</ele>
        <time>2023-10-28T07:43:40Z</time>
      </trkpt>
      <trkpt lat="50.76994" lon="3.38798">
        <ele>8</ele>
        <time>2023-10-28T07:43:43Z</time>
      </trkpt>
      <trkpt lat="50.76998" lon="3.38792">
        <ele>8</ele>
        <time>2023-10-28T07:43:44Z</time>
      </trkpt>
      <trkpt lat="50.77003" lon="3.38785">
        <ele>8</ele>
        <time>2023-10-28T07:43:45Z</time>
      </trkpt>
      <trkpt lat="50.77007" lon="3.3878">
        <ele>8</ele>
        <time>2023-10-28T07:43:46Z</time>
      </trkpt>
      <trkpt lat="50.77012" lon="3.38774">
        <ele>8</ele>
        <time>2023-10-28T07:43:47Z</time>
      </trkpt>
      <trkpt lat="50.77016" lon="3.38768">
        <ele>8</ele>
        <time>2023-10-28T07:43:48Z</time>
      </trkpt>
      <trkpt lat="50.77061" lon="3.38714">
        <ele>8.2</ele>
        <time>2023-10-28T07:43:57Z</time>
      </trkpt>
      <trkpt lat="50.77067" lon="3.3871">
        <ele>8.4</ele>
        <time>2023-10-28T07:43:58Z</time>
      </trkpt>
      <trkpt lat="50.77078" lon="3.38706">
        <ele>8.4</ele>
        <time>2023-10-28T07:44:00Z</time>
      </trkpt>
      <trkpt lat="50.77088" lon="3.38702">
        <ele>8.4</ele>
        <time>2023-10-28T07:44:02Z</time>
      </trkpt>
      <trkpt lat="50.77098" lon="3.38694">
        <ele>8.4</ele>
        <time>2023-10-28T07:44:04Z</time>
      </trkpt>
      <trkpt lat="50.77102" lon="3.38689">
        <ele>8.6</ele>
        <time>2023-10-28T07:44:05Z</time>
      </trkpt>
      <trkpt lat="50.77107" lon="3.38685">
        <ele>8.6</ele>
        <time>2023-10-28T07:44:06Z</time>
      </trkpt>
      <trkpt lat="50.77112" lon="3.3868">
        <ele>8.6</ele>
        <time>2023-10-28T07:44:07Z</time>
      </trkpt>
      <trkpt lat="50.77116" lon="3.38675">
        <ele>8.6</ele>
        <time>2023-10-28T07:44:08Z</time>
      </trkpt>
      <trkpt lat="50.77121" lon="3.3867">
        <ele>8.6</ele>
        <time>2023-10-28T07:44:09Z</time>
      </trkpt>
      <trkpt lat="50.77125" lon="3.38665">
        <ele>8.6</ele>
        <time>2023-10-28T07:44:10Z</time>
      </trkpt>
      <trkpt lat="50.77134" lon="3.38656">
        <ele>8.6</ele>
        <time>2023-10-28T07:44:12Z</time>
      </trkpt>
      <trkpt lat="50.77138" lon="3.38651">
        <ele>8.6</ele>
        <time>2023-10-28T07:44:13Z</time>
      </trkpt>
      <trkpt lat="50.77143" lon="3.38647">
        <ele>8.6</ele>
        <time>2023-10-28T07:44:14Z</time>
      </trkpt>
      <trkpt lat="50.77147" lon="3.38643">
        <ele>8.6</ele>
        <time>2023-10-28T07:44:15Z</time>
      </trkpt>
      <trkpt lat="50.77151" lon="3.3864">
        <ele>8.6</ele>
        <time>2023-10-28T07:44:16Z</time>
      </trkpt>
      <trkpt lat="50.77156" lon="3.38636">
        <ele>8.6</ele>
        <time>2023-10-28T07:44:17Z</time>
      </trkpt>
      <trkpt lat="50.7716" lon="3.38632">
        <ele>8.6</ele>
        <time>2023-10-28T07:44:18Z</time>
      </trkpt>
      <trkpt lat="50.77164" lon="3.38628">
        <ele>8.6</ele>
        <time>2023-10-28T07:44:19Z</time>
      </trkpt>
      <trkpt lat="50.77169" lon="3.38624">
        <ele>8.6</ele>
        <time>2023-10-28T07:44:20Z</time>
      </trkpt>
      <trkpt lat="50.77178" lon="3.38615">
        <ele>8.4</ele>
        <time>2023-10-28T07:44:22Z</time>
      </trkpt>
      <trkpt lat="50.77181" lon="3.38612">
        <ele>8.4</ele>
        <time>2023-10-28T07:44:23Z</time>
      </trkpt>
      <trkpt lat="50.77184" lon="3.38607">
        <ele>8.4</ele>
        <time>2023-10-28T07:44:24Z</time>
      </trkpt>
      <trkpt lat="50.77188" lon="3.38604">
        <ele>8.4</ele>
        <time>2023-10-28T07:44:25Z</time>
      </trkpt>
      <trkpt lat="50.77191" lon="3.386">
        <ele>8.4</ele>
        <time>2023-10-28T07:44:26Z</time>
      </trkpt>
      <trkpt lat="50.77194" lon="3.38597">
        <ele>8.4</ele>
        <time>2023-10-28T07:44:27Z</time>
      </trkpt>
      <trkpt lat="50.77197" lon="3.38594">
        <ele>8.2</ele>
        <time>2023-10-28T07:44:28Z</time>
      </trkpt>
      <trkpt lat="50.772" lon="3.38592">
        <ele>8.2</ele>
        <time>2023-10-28T07:44:29Z</time>
      </trkpt>
      <trkpt lat="50.77206" lon="3.38587">
        <ele>8.4</ele>
        <time>2023-10-28T07:44:31Z</time>
      </trkpt>
      <trkpt lat="50.77208" lon="3.38585">
        <ele>8.4</ele>
        <time>2023-10-28T07:44:32Z</time>
      </trkpt>
      <trkpt lat="50.77209" lon="3.38583">
        <ele>8.4</ele>
        <time>2023-10-28T07:44:33Z</time>
      </trkpt>
      <trkpt lat="50.77211" lon="3.38582">
        <ele>8.4</ele>
        <time>2023-10-28T07:44:34Z</time>
      </trkpt>
      <trkpt lat="50.77212" lon="3.38581">
        <ele>8.6</ele>
        <time>2023-10-28T07:44:35Z</time>
      </trkpt>
      <trkpt lat="50.77213" lon="3.3858">
        <ele>8.6</ele>
        <time>2023-10-28T07:44:36Z</time>
      </trkpt>
      <trkpt lat="50.77214" lon="3.38579">
        <ele>8.6</ele>
        <time>2023-10-28T07:44:37Z</time>
      </trkpt>
      <trkpt lat="50.77222" lon="3.38572">
        <ele>9</ele>
        <time>2023-10-28T07:44:42Z</time>
      </trkpt>
      <trkpt lat="50.7724" lon="3.38558">
        <ele>8.8</ele>
        <time>2023-10-28T07:44:49Z</time>
      </trkpt>
      <trkpt lat="50.77246" lon="3.38554">
        <ele>8.8</ele>
        <time>2023-10-28T07:44:51Z</time>
      </trkpt>
      <trkpt lat="50.77248" lon="3.38552">
        <ele>8.8</ele>
        <time>2023-10-28T07:44:52Z</time>
      </trkpt>
      <trkpt lat="50.77251" lon="3.38549">
        <ele>8.8</ele>
        <time>2023-10-28T07:44:53Z</time>
      </trkpt>
      <trkpt lat="50.77253" lon="3.38546">
        <ele>8.8</ele>
        <time>2023-10-28T07:44:54Z</time>
      </trkpt>
      <trkpt lat="50.77256" lon="3.38544">
        <ele>9</ele>
        <time>2023-10-28T07:44:55Z</time>
      </trkpt>
      <trkpt lat="50.77265" lon="3.38537">
        <ele>9</ele>
        <time>2023-10-28T07:44:58Z</time>
      </trkpt>
      <trkpt lat="50.77276" lon="3.38527">
        <ele>8.8</ele>
        <time>2023-10-28T07:45:02Z</time>
      </trkpt>
      <trkpt lat="50.77301" lon="3.38505">
        <ele>8.8</ele>
        <time>2023-10-28T07:45:11Z</time>
      </trkpt>
      <trkpt lat="50.77319" lon="3.38489">
        <ele>8.8</ele>
        <time>2023-10-28T07:45:17Z</time>
      </trkpt>
      <trkpt lat="50.77321" lon="3.38487">
        <ele>8.8</ele>
        <time>2023-10-28T07:45:18Z</time>
      </trkpt>
      <trkpt lat="50.7735" lon="3.38463">
        <ele>8.8</ele>
        <time>2023-10-28T07:45:27Z</time>
      </trkpt>
      <trkpt lat="50.77375" lon="3.38443">
        <ele>8.8</ele>
        <time>2023-10-28T07:45:35Z</time>
      </trkpt>
      <trkpt lat="50.77399" lon="3.38425">
        <ele>8.6</ele>
        <time>2023-10-28T07:45:42Z</time>
      </trkpt>
      <trkpt lat="50.77426" lon="3.384">
        <ele>8.6</ele>
        <time>2023-10-28T07:45:50Z</time>
      </trkpt>
      <trkpt lat="50.77447" lon="3.38382">
        <ele>8.6</ele>
        <time>2023-10-28T07:45:56Z</time>
      </trkpt>
      <trkpt lat="50.7745" lon="3.3838">
        <ele>8.6</ele>
        <time>2023-10-28T07:45:57Z</time>
      </trkpt>
      <trkpt lat="50.77454" lon="3.38377">
        <ele>8.6</ele>
        <time>2023-10-28T07:45:58Z</time>
      </trkpt>
      <trkpt lat="50.77457" lon="3.38374">
        <ele>8.6</ele>
        <time>2023-10-28T07:45:59Z</time>
      </trkpt>
      <trkpt lat="50.7746" lon="3.38371">
        <ele>8.6</ele>
        <time>2023-10-28T07:46:00Z</time>
      </trkpt>
      <trkpt lat="50.77462" lon="3.38368">
        <ele>8.6</ele>
        <time>2023-10-28T07:46:01Z</time>
      </trkpt>
      <trkpt lat="50.77465" lon="3.38365">
        <ele>8.6</ele>
        <time>2023-10-28T07:46:02Z</time>
      </trkpt>
      <trkpt lat="50.77472" lon="3.38359">
        <ele>8.8</ele>
        <time>2023-10-28T07:46:04Z</time>
      </trkpt>
      <trkpt lat="50.77475" lon="3.38357">
        <ele>8.8</ele>
        <time>2023-10-28T07:46:05Z</time>
      </trkpt>
      <trkpt lat="50.77478" lon="3.38354">
        <ele>8.8</ele>
        <time>2023-10-28T07:46:06Z</time>
      </trkpt>
      <trkpt lat="50.77481" lon="3.38351">
        <ele>8.6</ele>
        <time>2023-10-28T07:46:07Z</time>
      </trkpt>
      <trkpt lat="50.77484" lon="3.38349">
        <ele>8.8</ele>
        <time>2023-10-28T07:46:08Z</time>
      </trkpt>
      <trkpt lat="50.77487" lon="3.38346">
        <ele>8.6</ele>
        <time>2023-10-28T07:46:09Z</time>
      </trkpt>
      <trkpt lat="50.77491" lon="3.38343">
        <ele>8.8</ele>
        <time>2023-10-28T07:46:10Z</time>
      </trkpt>
      <trkpt lat="50.77509" lon="3.38329">
        <ele>8.6</ele>
        <time>2023-10-28T07:46:16Z</time>
      </trkpt>
      <trkpt lat="50.77512" lon="3.38326">
        <ele>8.6</ele>
        <time>2023-10-28T07:46:17Z</time>
      </trkpt>
      <trkpt lat="50.77515" lon="3.38324">
        <ele>8.6</ele>
        <time>2023-10-28T07:46:18Z</time>
      </trkpt>
      <trkpt lat="50.77518" lon="3.38321">
        <ele>8.6</ele>
        <time>2023-10-28T07:46:19Z</time>
      </trkpt>
      <trkpt lat="50.77521" lon="3.38319">
        <ele>8.6</ele>
        <time>2023-10-28T07:46:20Z</time>
      </trkpt>
      <trkpt lat="50.77523" lon="3.38316">
        <ele>8.4</ele>
        <time>2023-10-28T07:46:21Z</time>
      </trkpt>
      <trkpt lat="50.77525" lon="3.38314">
        <ele>8.4</ele>
        <time>2023-10-28T07:46:22Z</time>
      </trkpt>
      <trkpt lat="50.77526" lon="3.38313">
        <ele>8.4</ele>
        <time>2023-10-28T07:46:23Z</time>
      </trkpt>
      <trkpt lat="50.77526" lon="3.38313">
        <ele>8.4</ele>
        <time>2023-10-28T07:46:24Z</time>
      </trkpt>
      <trkpt lat="50.77526" lon="3.38313">
        <ele>8.4</ele>
        <time>2023-10-28T07:46:25Z</time>
      </trkpt>
      <trkpt lat="50.7754" lon="3.38294">
        <ele>8.8</ele>
        <time>2023-10-28T07:46:48Z</time>
      </trkpt>
      <trkpt lat="50.77546" lon="3.38287">
        <ele>9.2</ele>
        <time>2023-10-28T07:46:51Z</time>
      </trkpt>
      <trkpt lat="50.77551" lon="3.38281">
        <ele>9.4</ele>
        <time>2023-10-28T07:46:53Z</time>
      </trkpt>
      <trkpt lat="50.7756" lon="3.38273">
        <ele>9.4</ele>
        <time>2023-10-28T07:46:56Z</time>
      </trkpt>
      <trkpt lat="50.77567" lon="3.38267">
        <ele>9.4</ele>
        <time>2023-10-28T07:46:58Z</time>
      </trkpt>
      <trkpt lat="50.7757" lon="3.38264">
        <ele>9.4</ele>
        <time>2023-10-28T07:46:59Z</time>
      </trkpt>
      <trkpt lat="50.77585" lon="3.3825">
        <ele>9.6</ele>
        <time>2023-10-28T07:47:04Z</time>
      </trkpt>
      <trkpt lat="50.77591" lon="3.38238">
        <ele>9.4</ele>
        <time>2023-10-28T07:47:07Z</time>
      </trkpt>
      <trkpt lat="50.77593" lon="3.38231">
        <ele>9.4</ele>
        <time>2023-10-28T07:47:08Z</time>
      </trkpt>
      <trkpt lat="50.77596" lon="3.38226">
        <ele>9.4</ele>
        <time>2023-10-28T07:47:09Z</time>
      </trkpt>
      <trkpt lat="50.77615" lon="3.38206">
        <ele>9.4</ele>
        <time>2023-10-28T07:47:14Z</time>
      </trkpt>
      <trkpt lat="50.77634" lon="3.38191">
        <ele>9.4</ele>
        <time>2023-10-28T07:47:18Z</time>
      </trkpt>
      <trkpt lat="50.77638" lon="3.38188">
        <ele>9.4</ele>
        <time>2023-10-28T07:47:19Z</time>
      </trkpt>
      <trkpt lat="50.77642" lon="3.38184">
        <ele>9.4</ele>
        <time>2023-10-28T07:47:20Z</time>
      </trkpt>
      <trkpt lat="50.77659" lon="3.3817">
        <ele>9.4</ele>
        <time>2023-10-28T07:47:24Z</time>
      </trkpt>
      <trkpt lat="50.77663" lon="3.38167">
        <ele>9.2</ele>
        <time>2023-10-28T07:47:25Z</time>
      </trkpt>
      <trkpt lat="50.77667" lon="3.38163">
        <ele>9.4</ele>
        <time>2023-10-28T07:47:26Z</time>
      </trkpt>
      <trkpt lat="50.77672" lon="3.38159">
        <ele>9.6</ele>
        <time>2023-10-28T07:47:27Z</time>
      </trkpt>
      <trkpt lat="50.77676" lon="3.38154">
        <ele>9.6</ele>
        <time>2023-10-28T07:47:28Z</time>
      </trkpt>
      <trkpt lat="50.7768" lon="3.38151">
        <ele>9.8</ele>
        <time>2023-10-28T07:47:29Z</time>
      </trkpt>
      <trkpt lat="50.77685" lon="3.38147">
        <ele>9.8</ele>
        <time>2023-10-28T07:47:30Z</time>
      </trkpt>
      <trkpt lat="50.77688" lon="3.38144">
        <ele>9.8</ele>
        <time>2023-10-28T07:47:31Z</time>
      </trkpt>
      <trkpt lat="50.77693" lon="3.3814">
        <ele>9.8</ele>
        <time>2023-10-28T07:47:32Z</time>
      </trkpt>
      <trkpt lat="50.77696" lon="3.38137">
        <ele>9.8</ele>
        <time>2023-10-28T07:47:33Z</time>
      </trkpt>
      <trkpt lat="50.77713" lon="3.38123">
        <ele>10.2</ele>
        <time>2023-10-28T07:47:37Z</time>
      </trkpt>
      <trkpt lat="50.77717" lon="3.38119">
        <ele>10.4</ele>
        <time>2023-10-28T07:47:38Z</time>
      </trkpt>
      <trkpt lat="50.77758" lon="3.38079">
        <ele>11.2</ele>
        <time>2023-10-28T07:47:48Z</time>
      </trkpt>
      <trkpt lat="50.77799" lon="3.38042">
        <ele>12.2</ele>
        <time>2023-10-28T07:47:58Z</time>
      </trkpt>
      <trkpt lat="50.77807" lon="3.38034">
        <ele>12.4</ele>
        <time>2023-10-28T07:48:00Z</time>
      </trkpt>
      <trkpt lat="50.77811" lon="3.3803">
        <ele>12.4</ele>
        <time>2023-10-28T07:48:01Z</time>
      </trkpt>
      <trkpt lat="50.77819" lon="3.38023">
        <ele>12.6</ele>
        <time>2023-10-28T07:48:03Z</time>
      </trkpt>
      <trkpt lat="50.77824" lon="3.38013">
        <ele>12.8</ele>
        <time>2023-10-28T07:48:05Z</time>
      </trkpt>
      <trkpt lat="50.77826" lon="3.38007">
        <ele>13.2</ele>
        <time>2023-10-28T07:48:06Z</time>
      </trkpt>
      <trkpt lat="50.77827" lon="3.38002">
        <ele>13.2</ele>
        <time>2023-10-28T07:48:07Z</time>
      </trkpt>
      <trkpt lat="50.77828" lon="3.37996">
        <ele>13.4</ele>
        <time>2023-10-28T07:48:08Z</time>
      </trkpt>
      <trkpt lat="50.77827" lon="3.3799">
        <ele>13.4</ele>
        <time>2023-10-28T07:48:09Z</time>
      </trkpt>
      <trkpt lat="50.77826" lon="3.37984">
        <ele>13.6</ele>
        <time>2023-10-28T07:48:10Z</time>
      </trkpt>
      <trkpt lat="50.77824" lon="3.37977">
        <ele>13.6</ele>
        <time>2023-10-28T07:48:11Z</time>
      </trkpt>
      <trkpt lat="50.77821" lon="3.37971">
        <ele>13.6</ele>
        <time>2023-10-28T07:48:12Z</time>
      </trkpt>
      <trkpt lat="50.77818" lon="3.37965">
        <ele>13.6</ele>
        <time>2023-10-28T07:48:13Z</time>
      </trkpt>
      <trkpt lat="50.77818" lon="3.37965">
        <ele>13.6</ele>
        <time>2023-10-28T07:48:14Z</time>
      </trkpt>
      <trkpt lat="50.77809" lon="3.37955">
        <ele>13.6</ele>
        <time>2023-10-28T07:48:15Z</time>
      </trkpt>
      <trkpt lat="50.77795" lon="3.37939">
        <ele>13.6</ele>
        <time>2023-10-28T07:48:18Z</time>
      </trkpt>
      <trkpt lat="50.77781" lon="3.37922">
        <ele>12.8</ele>
        <time>2023-10-28T07:48:21Z</time>
      </trkpt>
      <trkpt lat="50.77771" lon="3.3791">
        <ele>12.4</ele>
        <time>2023-10-28T07:48:23Z</time>
      </trkpt>
      <trkpt lat="50.77766" lon="3.37905">
        <ele>12.4</ele>
        <time>2023-10-28T07:48:24Z</time>
      </trkpt>
      <trkpt lat="50.77732" lon="3.37867">
        <ele>11.2</ele>
        <time>2023-10-28T07:48:31Z</time>
      </trkpt>
      <trkpt lat="50.77722" lon="3.37857">
        <ele>10.8</ele>
        <time>2023-10-28T07:48:33Z</time>
      </trkpt>
      <trkpt lat="50.77717" lon="3.37853">
        <ele>10.6</ele>
        <time>2023-10-28T07:48:34Z</time>
      </trkpt>
      <trkpt lat="50.77703" lon="3.37837">
        <ele>10</ele>
        <time>2023-10-28T07:48:37Z</time>
      </trkpt>
      <trkpt lat="50.77693" lon="3.37827">
        <ele>10</ele>
        <time>2023-10-28T07:48:39Z</time>
      </trkpt>
      <trkpt lat="50.77675" lon="3.37807">
        <ele>9.8</ele>
        <time>2023-10-28T07:48:43Z</time>
      </trkpt>
      <trkpt lat="50.77667" lon="3.37796">
        <ele>9.8</ele>
        <time>2023-10-28T07:48:45Z</time>
      </trkpt>
      <trkpt lat="50.77663" lon="3.3779">
        <ele>9.8</ele>
        <time>2023-10-28T07:48:46Z</time>
      </trkpt>
      <trkpt lat="50.77659" lon="3.37784">
        <ele>9.8</ele>
        <time>2023-10-28T07:48:47Z</time>
      </trkpt>
      <trkpt lat="50.77655" lon="3.37778">
        <ele>9.8</ele>
        <time>2023-10-28T07:48:48Z</time>
      </trkpt>
      <trkpt lat="50.77619" lon="3.37711">
        <ele>10</ele>
        <time>2023-10-28T07:48:58Z</time>
      </trkpt>
      <trkpt lat="50.77616" lon="3.37704">
        <ele>10</ele>
        <time>2023-10-28T07:48:59Z</time>
      </trkpt>
      <trkpt lat="50.7761" lon="3.3769">
        <ele>10</ele>
        <time>2023-10-28T07:49:01Z</time>
      </trkpt>
      <trkpt lat="50.77607" lon="3.37683">
        <ele>10</ele>
        <time>2023-10-28T07:49:02Z</time>
      </trkpt>
      <trkpt lat="50.77589" lon="3.37638">
        <ele>10.2</ele>
        <time>2023-10-28T07:49:08Z</time>
      </trkpt>
      <trkpt lat="50.7758" lon="3.37613">
        <ele>10.2</ele>
        <time>2023-10-28T07:49:11Z</time>
      </trkpt>
      <trkpt lat="50.77579" lon="3.37596">
        <ele>10.2</ele>
        <time>2023-10-28T07:49:13Z</time>
      </trkpt>
      <trkpt lat="50.7758" lon="3.37586">
        <ele>10.2</ele>
        <time>2023-10-28T07:49:14Z</time>
      </trkpt>
      <trkpt lat="50.77582" lon="3.37577">
        <ele>10.4</ele>
        <time>2023-10-28T07:49:15Z</time>
      </trkpt>
      <trkpt lat="50.77584" lon="3.37569">
        <ele>10.4</ele>
        <time>2023-10-28T07:49:16Z</time>
      </trkpt>
      <trkpt lat="50.77587" lon="3.3756">
        <ele>10.4</ele>
        <time>2023-10-28T07:49:17Z</time>
      </trkpt>
      <trkpt lat="50.77612" lon="3.37477">
        <ele>10.2</ele>
        <time>2023-10-28T07:49:27Z</time>
      </trkpt>
      <trkpt lat="50.77614" lon="3.3747">
        <ele>10.2</ele>
        <time>2023-10-28T07:49:28Z</time>
      </trkpt>
      <trkpt lat="50.77616" lon="3.37463">
        <ele>10.2</ele>
        <time>2023-10-28T07:49:29Z</time>
      </trkpt>
      <trkpt lat="50.77618" lon="3.37456">
        <ele>10.2</ele>
        <time>2023-10-28T07:49:30Z</time>
      </trkpt>
      <trkpt lat="50.77618" lon="3.37448">
        <ele>10.2</ele>
        <time>2023-10-28T07:49:31Z</time>
      </trkpt>
      <trkpt lat="50.77617" lon="3.3744">
        <ele>10.4</ele>
        <time>2023-10-28T07:49:32Z</time>
      </trkpt>
      <trkpt lat="50.77616" lon="3.37432">
        <ele>10.2</ele>
        <time>2023-10-28T07:49:33Z</time>
      </trkpt>
      <trkpt lat="50.77614" lon="3.37423">
        <ele>10.2</ele>
        <time>2023-10-28T07:49:34Z</time>
      </trkpt>
      <trkpt lat="50.77604" lon="3.37365">
        <ele>10.2</ele>
        <time>2023-10-28T07:49:41Z</time>
      </trkpt>
      <trkpt lat="50.77603" lon="3.37349">
        <ele>10.2</ele>
        <time>2023-10-28T07:49:43Z</time>
      </trkpt>
      <trkpt lat="50.77606" lon="3.373">
        <ele>9.6</ele>
        <time>2023-10-28T07:49:49Z</time>
      </trkpt>
      <trkpt lat="50.77607" lon="3.37292">
        <ele>9.4</ele>
        <time>2023-10-28T07:49:50Z</time>
      </trkpt>
      <trkpt lat="50.77607" lon="3.37284">
        <ele>9.4</ele>
        <time>2023-10-28T07:49:51Z</time>
      </trkpt>
      <trkpt lat="50.77608" lon="3.37276">
        <ele>9.4</ele>
        <time>2023-10-28T07:49:52Z</time>
      </trkpt>
      <trkpt lat="50.77609" lon="3.37268">
        <ele>9.4</ele>
        <time>2023-10-28T07:49:53Z</time>
      </trkpt>
      <trkpt lat="50.77616" lon="3.37201">
        <ele>10.4</ele>
        <time>2023-10-28T07:50:01Z</time>
      </trkpt>
      <trkpt lat="50.7762" lon="3.37152">
        <ele>10.8</ele>
        <time>2023-10-28T07:50:07Z</time>
      </trkpt>
      <trkpt lat="50.77622" lon="3.37145">
        <ele>10.8</ele>
        <time>2023-10-28T07:50:08Z</time>
      </trkpt>
      <trkpt lat="50.77624" lon="3.37138">
        <ele>10.8</ele>
        <time>2023-10-28T07:50:09Z</time>
      </trkpt>
      <trkpt lat="50.77626" lon="3.37131">
        <ele>11</ele>
        <time>2023-10-28T07:50:10Z</time>
      </trkpt>
      <trkpt lat="50.77639" lon="3.37105">
        <ele>11</ele>
        <time>2023-10-28T07:50:14Z</time>
      </trkpt>
      <trkpt lat="50.77643" lon="3.37098">
        <ele>11</ele>
        <time>2023-10-28T07:50:15Z</time>
      </trkpt>
      <trkpt lat="50.77646" lon="3.37082">
        <ele>11</ele>
        <time>2023-10-28T07:50:17Z</time>
      </trkpt>
      <trkpt lat="50.77646" lon="3.37074">
        <ele>11</ele>
        <time>2023-10-28T07:50:18Z</time>
      </trkpt>
      <trkpt lat="50.77645" lon="3.37066">
        <ele>11</ele>
        <time>2023-10-28T07:50:19Z</time>
      </trkpt>
      <trkpt lat="50.77643" lon="3.37059">
        <ele>11</ele>
        <time>2023-10-28T07:50:20Z</time>
      </trkpt>
      <trkpt lat="50.77641" lon="3.37051">
        <ele>11</ele>
        <time>2023-10-28T07:50:21Z</time>
      </trkpt>
      <trkpt lat="50.77639" lon="3.37044">
        <ele>11</ele>
        <time>2023-10-28T07:50:22Z</time>
      </trkpt>
      <trkpt lat="50.77631" lon="3.37023">
        <ele>11</ele>
        <time>2023-10-28T07:50:25Z</time>
      </trkpt>
      <trkpt lat="50.77626" lon="3.37009">
        <ele>11</ele>
        <time>2023-10-28T07:50:27Z</time>
      </trkpt>
      <trkpt lat="50.77623" lon="3.37003">
        <ele>11</ele>
        <time>2023-10-28T07:50:28Z</time>
      </trkpt>
      <trkpt lat="50.77621" lon="3.36996">
        <ele>11</ele>
        <time>2023-10-28T07:50:29Z</time>
      </trkpt>
      <trkpt lat="50.77618" lon="3.36989">
        <ele>11</ele>
        <time>2023-10-28T07:50:30Z</time>
      </trkpt>
      <trkpt lat="50.77613" lon="3.36975">
        <ele>11</ele>
        <time>2023-10-28T07:50:32Z</time>
      </trkpt>
      <trkpt lat="50.77611" lon="3.36969">
        <ele>11</ele>
        <time>2023-10-28T07:50:33Z</time>
      </trkpt>
      <trkpt lat="50.77606" lon="3.36954">
        <ele>11</ele>
        <time>2023-10-28T07:50:35Z</time>
      </trkpt>
      <trkpt lat="50.77601" lon="3.36932">
        <ele>11</ele>
        <time>2023-10-28T07:50:38Z</time>
      </trkpt>
      <trkpt lat="50.776" lon="3.36924">
        <ele>11</ele>
        <time>2023-10-28T07:50:39Z</time>
      </trkpt>
      <trkpt lat="50.77593" lon="3.36854">
        <ele>11.6</ele>
        <time>2023-10-28T07:50:48Z</time>
      </trkpt>
      <trkpt lat="50.77591" lon="3.36832">
        <ele>11.8</ele>
        <time>2023-10-28T07:50:51Z</time>
      </trkpt>
      <trkpt lat="50.77591" lon="3.36825">
        <ele>12</ele>
        <time>2023-10-28T07:50:52Z</time>
      </trkpt>
      <trkpt lat="50.7759" lon="3.36817">
        <ele>12</ele>
        <time>2023-10-28T07:50:53Z</time>
      </trkpt>
      <trkpt lat="50.77589" lon="3.36795">
        <ele>12.4</ele>
        <time>2023-10-28T07:50:56Z</time>
      </trkpt>
      <trkpt lat="50.77589" lon="3.36787">
        <ele>12.4</ele>
        <time>2023-10-28T07:50:57Z</time>
      </trkpt>
      <trkpt lat="50.77587" lon="3.36726">
        <ele>12.8</ele>
        <time>2023-10-28T07:51:05Z</time>
      </trkpt>
      <trkpt lat="50.77585" lon="3.36718">
        <ele>12.8</ele>
        <time>2023-10-28T07:51:06Z</time>
      </trkpt>
      <trkpt lat="50.77578" lon="3.36698">
        <ele>13</ele>
        <time>2023-10-28T07:51:09Z</time>
      </trkpt>
      <trkpt lat="50.77573" lon="3.36685">
        <ele>13.4</ele>
        <time>2023-10-28T07:51:11Z</time>
      </trkpt>
      <trkpt lat="50.77573" lon="3.36678">
        <ele>13.4</ele>
        <time>2023-10-28T07:51:12Z</time>
      </trkpt>
      <trkpt lat="50.77574" lon="3.36671">
        <ele>13.6</ele>
        <time>2023-10-28T07:51:13Z</time>
      </trkpt>
      <trkpt lat="50.77576" lon="3.36666">
        <ele>13.6</ele>
        <time>2023-10-28T07:51:14Z</time>
      </trkpt>
      <trkpt lat="50.77578" lon="3.3666">
        <ele>13.6</ele>
        <time>2023-10-28T07:51:15Z</time>
      </trkpt>
      <trkpt lat="50.77581" lon="3.36656">
        <ele>13.8</ele>
        <time>2023-10-28T07:51:16Z</time>
      </trkpt>
      <trkpt lat="50.77585" lon="3.36651">
        <ele>13.8</ele>
        <time>2023-10-28T07:51:17Z</time>
      </trkpt>
      <trkpt lat="50.77589" lon="3.36647">
        <ele>13.8</ele>
        <time>2023-10-28T07:51:18Z</time>
      </trkpt>
      <trkpt lat="50.77602" lon="3.36634">
        <ele>13.8</ele>
        <time>2023-10-28T07:51:21Z</time>
      </trkpt>
      <trkpt lat="50.77614" lon="3.36623">
        <ele>14</ele>
        <time>2023-10-28T07:51:24Z</time>
      </trkpt>
      <trkpt lat="50.77641" lon="3.36603">
        <ele>14.8</ele>
        <time>2023-10-28T07:51:30Z</time>
      </trkpt>
      <trkpt lat="50.77654" lon="3.36595">
        <ele>14.8</ele>
        <time>2023-10-28T07:51:33Z</time>
      </trkpt>
      <trkpt lat="50.77658" lon="3.36593">
        <ele>15</ele>
        <time>2023-10-28T07:51:34Z</time>
      </trkpt>
      <trkpt lat="50.77663" lon="3.36591">
        <ele>15.2</ele>
        <time>2023-10-28T07:51:35Z</time>
      </trkpt>
      <trkpt lat="50.77667" lon="3.36589">
        <ele>15.4</ele>
        <time>2023-10-28T07:51:36Z</time>
      </trkpt>
      <trkpt lat="50.77671" lon="3.36588">
        <ele>15.8</ele>
        <time>2023-10-28T07:51:37Z</time>
      </trkpt>
      <trkpt lat="50.77675" lon="3.36587">
        <ele>15.8</ele>
        <time>2023-10-28T07:51:38Z</time>
      </trkpt>
      <trkpt lat="50.77688" lon="3.36583">
        <ele>16.2</ele>
        <time>2023-10-28T07:51:41Z</time>
      </trkpt>
      <trkpt lat="50.77692" lon="3.36581">
        <ele>16.4</ele>
        <time>2023-10-28T07:51:42Z</time>
      </trkpt>
      <trkpt lat="50.77696" lon="3.3658">
        <ele>16.4</ele>
        <time>2023-10-28T07:51:43Z</time>
      </trkpt>
      <trkpt lat="50.777" lon="3.36579">
        <ele>16.6</ele>
        <time>2023-10-28T07:51:44Z</time>
      </trkpt>
      <trkpt lat="50.77704" lon="3.36578">
        <ele>16.6</ele>
        <time>2023-10-28T07:51:45Z</time>
      </trkpt>
      <trkpt lat="50.77708" lon="3.36577">
        <ele>16.8</ele>
        <time>2023-10-28T07:51:46Z</time>
      </trkpt>
      <trkpt lat="50.77712" lon="3.36576">
        <ele>17</ele>
        <time>2023-10-28T07:51:47Z</time>
      </trkpt>
      <trkpt lat="50.77716" lon="3.36575">
        <ele>17.2</ele>
        <time>2023-10-28T07:51:48Z</time>
      </trkpt>
      <trkpt lat="50.77719" lon="3.36573">
        <ele>17.4</ele>
        <time>2023-10-28T07:51:49Z</time>
      </trkpt>
      <trkpt lat="50.77723" lon="3.36573">
        <ele>17.6</ele>
        <time>2023-10-28T07:51:50Z</time>
      </trkpt>
      <trkpt lat="50.77727" lon="3.36572">
        <ele>17.6</ele>
        <time>2023-10-28T07:51:51Z</time>
      </trkpt>
      <trkpt lat="50.77731" lon="3.36571">
        <ele>17.8</ele>
        <time>2023-10-28T07:51:52Z</time>
      </trkpt>
      <trkpt lat="50.77735" lon="3.3657">
        <ele>18</ele>
        <time>2023-10-28T07:51:53Z</time>
      </trkpt>
      <trkpt lat="50.77739" lon="3.36569">
        <ele>18.2</ele>
        <time>2023-10-28T07:51:54Z</time>
      </trkpt>
      <trkpt lat="50.77743" lon="3.36567">
        <ele>18.6</ele>
        <time>2023-10-28T07:51:55Z</time>
      </trkpt>
      <trkpt lat="50.77747" lon="3.36566">
        <ele>18.8</ele>
        <time>2023-10-28T07:51:56Z</time>
      </trkpt>
      <trkpt lat="50.7775" lon="3.36565">
        <ele>18.8</ele>
        <time>2023-10-28T07:51:57Z</time>
      </trkpt>
      <trkpt lat="50.77754" lon="3.36563">
        <ele>19</ele>
        <time>2023-10-28T07:51:58Z</time>
      </trkpt>
      <trkpt lat="50.77757" lon="3.36562">
        <ele>19.2</ele>
        <time>2023-10-28T07:51:59Z</time>
      </trkpt>
      <trkpt lat="50.77761" lon="3.36561">
        <ele>19.4</ele>
        <time>2023-10-28T07:52:00Z</time>
      </trkpt>
      <trkpt lat="50.77764" lon="3.3656">
        <ele>19.6</ele>
        <time>2023-10-28T07:52:01Z</time>
      </trkpt>
      <trkpt lat="50.77768" lon="3.36558">
        <ele>19.6</ele>
        <time>2023-10-28T07:52:02Z</time>
      </trkpt>
      <trkpt lat="50.77771" lon="3.36556">
        <ele>19.8</ele>
        <time>2023-10-28T07:52:03Z</time>
      </trkpt>
      <trkpt lat="50.77774" lon="3.36553">
        <ele>20</ele>
        <time>2023-10-28T07:52:04Z</time>
      </trkpt>
      <trkpt lat="50.77776" lon="3.36549">
        <ele>20.2</ele>
        <time>2023-10-28T07:52:05Z</time>
      </trkpt>
      <trkpt lat="50.77778" lon="3.36545">
        <ele>20.4</ele>
        <time>2023-10-28T07:52:06Z</time>
      </trkpt>
      <trkpt lat="50.77779" lon="3.36541">
        <ele>20.6</ele>
        <time>2023-10-28T07:52:07Z</time>
      </trkpt>
      <trkpt lat="50.7778" lon="3.36538">
        <ele>20.8</ele>
        <time>2023-10-28T07:52:08Z</time>
      </trkpt>
      <trkpt lat="50.7778" lon="3.36534">
        <ele>21</ele>
        <time>2023-10-28T07:52:09Z</time>
      </trkpt>
      <trkpt lat="50.77781" lon="3.3653">
        <ele>21.2</ele>
        <time>2023-10-28T07:52:10Z</time>
      </trkpt>
      <trkpt lat="50.77782" lon="3.36527">
        <ele>21.4</ele>
        <time>2023-10-28T07:52:11Z</time>
      </trkpt>
      <trkpt lat="50.77782" lon="3.36523">
        <ele>21.4</ele>
        <time>2023-10-28T07:52:12Z</time>
      </trkpt>
      <trkpt lat="50.77783" lon="3.3652">
        <ele>21.6</ele>
        <time>2023-10-28T07:52:13Z</time>
      </trkpt>
      <trkpt lat="50.77784" lon="3.36516">
        <ele>21.6</ele>
        <time>2023-10-28T07:52:14Z</time>
      </trkpt>
      <trkpt lat="50.77785" lon="3.36513">
        <ele>21.6</ele>
        <time>2023-10-28T07:52:15Z</time>
      </trkpt>
      <trkpt lat="50.77786" lon="3.36508">
        <ele>21.8</ele>
        <time>2023-10-28T07:52:16Z</time>
      </trkpt>
      <trkpt lat="50.77787" lon="3.36504">
        <ele>21.8</ele>
        <time>2023-10-28T07:52:17Z</time>
      </trkpt>
      <trkpt lat="50.77788" lon="3.36501">
        <ele>22</ele>
        <time>2023-10-28T07:52:18Z</time>
      </trkpt>
      <trkpt lat="50.77789" lon="3.36497">
        <ele>22</ele>
        <time>2023-10-28T07:52:19Z</time>
      </trkpt>
      <trkpt lat="50.7779" lon="3.36493">
        <ele>22.2</ele>
        <time>2023-10-28T07:52:20Z</time>
      </trkpt>
      <trkpt lat="50.77791" lon="3.36489">
        <ele>22.4</ele>
        <time>2023-10-28T07:52:21Z</time>
      </trkpt>
      <trkpt lat="50.77792" lon="3.36485">
        <ele>22.6</ele>
        <time>2023-10-28T07:52:22Z</time>
      </trkpt>
      <trkpt lat="50.77793" lon="3.3648">
        <ele>22.8</ele>
        <time>2023-10-28T07:52:23Z</time>
      </trkpt>
      <trkpt lat="50.77794" lon="3.36476">
        <ele>22.8</ele>
        <time>2023-10-28T07:52:24Z</time>
      </trkpt>
      <trkpt lat="50.77795" lon="3.36472">
        <ele>23.2</ele>
        <time>2023-10-28T07:52:25Z</time>
      </trkpt>
      <trkpt lat="50.77795" lon="3.36468">
        <ele>23.4</ele>
        <time>2023-10-28T07:52:26Z</time>
      </trkpt>
      <trkpt lat="50.77796" lon="3.36464">
        <ele>23.6</ele>
        <time>2023-10-28T07:52:27Z</time>
      </trkpt>
      <trkpt lat="50.77796" lon="3.3646">
        <ele>23.8</ele>
        <time>2023-10-28T07:52:28Z</time>
      </trkpt>
      <trkpt lat="50.77797" lon="3.36456">
        <ele>24.2</ele>
        <time>2023-10-28T07:52:29Z</time>
      </trkpt>
      <trkpt lat="50.77798" lon="3.36453">
        <ele>24.4</ele>
        <time>2023-10-28T07:52:30Z</time>
      </trkpt>
      <trkpt lat="50.77799" lon="3.36449">
        <ele>24.8</ele>
        <time>2023-10-28T07:52:31Z</time>
      </trkpt>
      <trkpt lat="50.77799" lon="3.36444">
        <ele>25</ele>
        <time>2023-10-28T07:52:32Z</time>
      </trkpt>
      <trkpt lat="50.778" lon="3.3644">
        <ele>25</ele>
        <time>2023-10-28T07:52:33Z</time>
      </trkpt>
      <trkpt lat="50.77801" lon="3.36436">
        <ele>25.2</ele>
        <time>2023-10-28T07:52:34Z</time>
      </trkpt>
      <trkpt lat="50.77802" lon="3.36432">
        <ele>25.2</ele>
        <time>2023-10-28T07:52:35Z</time>
      </trkpt>
      <trkpt lat="50.77803" lon="3.36429">
        <ele>25.4</ele>
        <time>2023-10-28T07:52:36Z</time>
      </trkpt>
      <trkpt lat="50.77804" lon="3.36425">
        <ele>25.4</ele>
        <time>2023-10-28T07:52:37Z</time>
      </trkpt>
      <trkpt lat="50.77805" lon="3.36422">
        <ele>25.6</ele>
        <time>2023-10-28T07:52:38Z</time>
      </trkpt>
      <trkpt lat="50.77807" lon="3.36419">
        <ele>25.6</ele>
        <time>2023-10-28T07:52:39Z</time>
      </trkpt>
      <trkpt lat="50.77808" lon="3.36417">
        <ele>25.6</ele>
        <time>2023-10-28T07:52:40Z</time>
      </trkpt>
      <trkpt lat="50.77809" lon="3.36414">
        <ele>25.8</ele>
        <time>2023-10-28T07:52:41Z</time>
      </trkpt>
      <trkpt lat="50.77811" lon="3.36411">
        <ele>25.8</ele>
        <time>2023-10-28T07:52:42Z</time>
      </trkpt>
      <trkpt lat="50.77812" lon="3.36408">
        <ele>25.8</ele>
        <time>2023-10-28T07:52:43Z</time>
      </trkpt>
      <trkpt lat="50.77814" lon="3.36405">
        <ele>26</ele>
        <time>2023-10-28T07:52:44Z</time>
      </trkpt>
      <trkpt lat="50.77816" lon="3.36401">
        <ele>26.2</ele>
        <time>2023-10-28T07:52:45Z</time>
      </trkpt>
      <trkpt lat="50.77817" lon="3.36398">
        <ele>26.6</ele>
        <time>2023-10-28T07:52:46Z</time>
      </trkpt>
      <trkpt lat="50.77818" lon="3.36394">
        <ele>27</ele>
        <time>2023-10-28T07:52:47Z</time>
      </trkpt>
      <trkpt lat="50.7782" lon="3.36391">
        <ele>27.2</ele>
        <time>2023-10-28T07:52:48Z</time>
      </trkpt>
      <trkpt lat="50.77821" lon="3.36387">
        <ele>27.6</ele>
        <time>2023-10-28T07:52:49Z</time>
      </trkpt>
      <trkpt lat="50.77822" lon="3.36384">
        <ele>27.8</ele>
        <time>2023-10-28T07:52:50Z</time>
      </trkpt>
      <trkpt lat="50.77823" lon="3.36381">
        <ele>28.2</ele>
        <time>2023-10-28T07:52:51Z</time>
      </trkpt>
      <trkpt lat="50.77824" lon="3.36378">
        <ele>28.6</ele>
        <time>2023-10-28T07:52:52Z</time>
      </trkpt>
      <trkpt lat="50.77825" lon="3.36374">
        <ele>28.6</ele>
        <time>2023-10-28T07:52:53Z</time>
      </trkpt>
      <trkpt lat="50.77826" lon="3.36371">
        <ele>29</ele>
        <time>2023-10-28T07:52:54Z</time>
      </trkpt>
      <trkpt lat="50.77827" lon="3.36368">
        <ele>29.4</ele>
        <time>2023-10-28T07:52:55Z</time>
      </trkpt>
      <trkpt lat="50.77828" lon="3.36364">
        <ele>29.8</ele>
        <time>2023-10-28T07:52:56Z</time>
      </trkpt>
      <trkpt lat="50.77829" lon="3.36361">
        <ele>29.8</ele>
        <time>2023-10-28T07:52:57Z</time>
      </trkpt>
      <trkpt lat="50.7783" lon="3.36358">
        <ele>30.2</ele>
        <time>2023-10-28T07:52:58Z</time>
      </trkpt>
      <trkpt lat="50.77831" lon="3.36354">
        <ele>30.4</ele>
        <time>2023-10-28T07:52:59Z</time>
      </trkpt>
      <trkpt lat="50.77832" lon="3.3635">
        <ele>30.6</ele>
        <time>2023-10-28T07:53:00Z</time>
      </trkpt>
      <trkpt lat="50.77833" lon="3.36346">
        <ele>30.6</ele>
        <time>2023-10-28T07:53:01Z</time>
      </trkpt>
      <trkpt lat="50.77834" lon="3.36343">
        <ele>31</ele>
        <time>2023-10-28T07:53:02Z</time>
      </trkpt>
      <trkpt lat="50.77835" lon="3.36339">
        <ele>31.2</ele>
        <time>2023-10-28T07:53:03Z</time>
      </trkpt>
      <trkpt lat="50.77837" lon="3.36335">
        <ele>31.2</ele>
        <time>2023-10-28T07:53:04Z</time>
      </trkpt>
      <trkpt lat="50.77838" lon="3.36332">
        <ele>31.4</ele>
        <time>2023-10-28T07:53:05Z</time>
      </trkpt>
      <trkpt lat="50.77839" lon="3.36328">
        <ele>31.4</ele>
        <time>2023-10-28T07:53:06Z</time>
      </trkpt>
      <trkpt lat="50.77839" lon="3.36324">
        <ele>31.6</ele>
        <time>2023-10-28T07:53:07Z</time>
      </trkpt>
      <trkpt lat="50.7784" lon="3.36319">
        <ele>31.8</ele>
        <time>2023-10-28T07:53:08Z</time>
      </trkpt>
      <trkpt lat="50.77841" lon="3.36315">
        <ele>32</ele>
        <time>2023-10-28T07:53:09Z</time>
      </trkpt>
      <trkpt lat="50.77842" lon="3.36311">
        <ele>32</ele>
        <time>2023-10-28T07:53:10Z</time>
      </trkpt>
      <trkpt lat="50.77844" lon="3.36306">
        <ele>32</ele>
        <time>2023-10-28T07:53:11Z</time>
      </trkpt>
      <trkpt lat="50.77845" lon="3.36301">
        <ele>32.2</ele>
        <time>2023-10-28T07:53:12Z</time>
      </trkpt>
      <trkpt lat="50.77846" lon="3.36296">
        <ele>32.4</ele>
        <time>2023-10-28T07:53:13Z</time>
      </trkpt>
      <trkpt lat="50.77847" lon="3.36291">
        <ele>32.4</ele>
        <time>2023-10-28T07:53:14Z</time>
      </trkpt>
      <trkpt lat="50.77848" lon="3.36287">
        <ele>32.6</ele>
        <time>2023-10-28T07:53:15Z</time>
      </trkpt>
      <trkpt lat="50.7785" lon="3.36281">
        <ele>32.6</ele>
        <time>2023-10-28T07:53:16Z</time>
      </trkpt>
      <trkpt lat="50.77851" lon="3.36278">
        <ele>32.8</ele>
        <time>2023-10-28T07:53:17Z</time>
      </trkpt>
      <trkpt lat="50.77852" lon="3.36274">
        <ele>33</ele>
        <time>2023-10-28T07:53:18Z</time>
      </trkpt>
      <trkpt lat="50.77853" lon="3.36269">
        <ele>33</ele>
        <time>2023-10-28T07:53:19Z</time>
      </trkpt>
      <trkpt lat="50.77854" lon="3.36265">
        <ele>33.2</ele>
        <time>2023-10-28T07:53:20Z</time>
      </trkpt>
      <trkpt lat="50.77856" lon="3.36261">
        <ele>33.2</ele>
        <time>2023-10-28T07:53:21Z</time>
      </trkpt>
      <trkpt lat="50.77857" lon="3.36257">
        <ele>33.2</ele>
        <time>2023-10-28T07:53:22Z</time>
      </trkpt>
      <trkpt lat="50.77859" lon="3.36254">
        <ele>33.2</ele>
        <time>2023-10-28T07:53:23Z</time>
      </trkpt>
      <trkpt lat="50.77861" lon="3.36252">
        <ele>33.2</ele>
        <time>2023-10-28T07:53:24Z</time>
      </trkpt>
      <trkpt lat="50.77864" lon="3.3625">
        <ele>33.2</ele>
        <time>2023-10-28T07:53:25Z</time>
      </trkpt>
      <trkpt lat="50.77867" lon="3.36247">
        <ele>33.2</ele>
        <time>2023-10-28T07:53:26Z</time>
      </trkpt>
      <trkpt lat="50.7787" lon="3.36246">
        <ele>33.2</ele>
        <time>2023-10-28T07:53:27Z</time>
      </trkpt>
      <trkpt lat="50.77873" lon="3.36244">
        <ele>33.2</ele>
        <time>2023-10-28T07:53:28Z</time>
      </trkpt>
      <trkpt lat="50.77875" lon="3.36242">
        <ele>33.2</ele>
        <time>2023-10-28T07:53:29Z</time>
      </trkpt>
      <trkpt lat="50.77878" lon="3.3624">
        <ele>33.2</ele>
        <time>2023-10-28T07:53:30Z</time>
      </trkpt>
      <trkpt lat="50.77881" lon="3.36238">
        <ele>33.2</ele>
        <time>2023-10-28T07:53:31Z</time>
      </trkpt>
      <trkpt lat="50.77884" lon="3.36236">
        <ele>33.2</ele>
        <time>2023-10-28T07:53:32Z</time>
      </trkpt>
      <trkpt lat="50.77887" lon="3.36234">
        <ele>33.2</ele>
        <time>2023-10-28T07:53:33Z</time>
      </trkpt>
      <trkpt lat="50.77909" lon="3.36221">
        <ele>33.2</ele>
        <time>2023-10-28T07:53:41Z</time>
      </trkpt>
      <trkpt lat="50.77912" lon="3.36219">
        <ele>33.4</ele>
        <time>2023-10-28T07:53:42Z</time>
      </trkpt>
      <trkpt lat="50.77918" lon="3.36217">
        <ele>33.4</ele>
        <time>2023-10-28T07:53:44Z</time>
      </trkpt>
      <trkpt lat="50.77947" lon="3.36208">
        <ele>34</ele>
        <time>2023-10-28T07:53:54Z</time>
      </trkpt>
      <trkpt lat="50.7795" lon="3.36208">
        <ele>34.2</ele>
        <time>2023-10-28T07:53:55Z</time>
      </trkpt>
      <trkpt lat="50.77974" lon="3.36203">
        <ele>34.6</ele>
        <time>2023-10-28T07:54:03Z</time>
      </trkpt>
      <trkpt lat="50.77998" lon="3.36187">
        <ele>34.6</ele>
        <time>2023-10-28T07:54:11Z</time>
      </trkpt>
      <trkpt lat="50.78024" lon="3.3616">
        <ele>34.4</ele>
        <time>2023-10-28T07:54:20Z</time>
      </trkpt>
      <trkpt lat="50.78026" lon="3.36157">
        <ele>34.4</ele>
        <time>2023-10-28T07:54:21Z</time>
      </trkpt>
      <trkpt lat="50.78028" lon="3.36155">
        <ele>34.4</ele>
        <time>2023-10-28T07:54:22Z</time>
      </trkpt>
      <trkpt lat="50.78029" lon="3.36152">
        <ele>34.2</ele>
        <time>2023-10-28T07:54:23Z</time>
      </trkpt>
      <trkpt lat="50.78031" lon="3.36148">
        <ele>34.2</ele>
        <time>2023-10-28T07:54:24Z</time>
      </trkpt>
      <trkpt lat="50.78034" lon="3.36142">
        <ele>34.2</ele>
        <time>2023-10-28T07:54:26Z</time>
      </trkpt>
      <trkpt lat="50.78036" lon="3.3614">
        <ele>34.2</ele>
        <time>2023-10-28T07:54:27Z</time>
      </trkpt>
      <trkpt lat="50.78037" lon="3.36139">
        <ele>34.2</ele>
        <time>2023-10-28T07:54:28Z</time>
      </trkpt>
      <trkpt lat="50.78038" lon="3.36139">
        <ele>34.2</ele>
        <time>2023-10-28T07:54:29Z</time>
      </trkpt>
      <trkpt lat="50.78039" lon="3.36138">
        <ele>34.2</ele>
        <time>2023-10-28T07:54:30Z</time>
      </trkpt>
      <trkpt lat="50.78042" lon="3.36133">
        <ele>34.4</ele>
        <time>2023-10-28T07:54:32Z</time>
      </trkpt>
      <trkpt lat="50.78043" lon="3.3613">
        <ele>34.4</ele>
        <time>2023-10-28T07:54:33Z</time>
      </trkpt>
      <trkpt lat="50.78045" lon="3.36126">
        <ele>34.4</ele>
        <time>2023-10-28T07:54:34Z</time>
      </trkpt>
      <trkpt lat="50.78051" lon="3.36098">
        <ele>34.8</ele>
        <time>2023-10-28T07:54:41Z</time>
      </trkpt>
      <trkpt lat="50.78051" lon="3.36087">
        <ele>35</ele>
        <time>2023-10-28T07:54:44Z</time>
      </trkpt>
      <trkpt lat="50.78053" lon="3.36064">
        <ele>35</ele>
        <time>2023-10-28T07:54:49Z</time>
      </trkpt>
      <trkpt lat="50.78054" lon="3.36056">
        <ele>35</ele>
        <time>2023-10-28T07:54:51Z</time>
      </trkpt>
      <trkpt lat="50.78054" lon="3.36052">
        <ele>35</ele>
        <time>2023-10-28T07:54:52Z</time>
      </trkpt>
      <trkpt lat="50.78054" lon="3.36048">
        <ele>35</ele>
        <time>2023-10-28T07:54:53Z</time>
      </trkpt>
      <trkpt lat="50.78054" lon="3.36037">
        <ele>35.2</ele>
        <time>2023-10-28T07:54:56Z</time>
      </trkpt>
      <trkpt lat="50.78055" lon="3.36034">
        <ele>35.2</ele>
        <time>2023-10-28T07:54:57Z</time>
      </trkpt>
      <trkpt lat="50.78056" lon="3.36031">
        <ele>35.4</ele>
        <time>2023-10-28T07:54:58Z</time>
      </trkpt>
      <trkpt lat="50.78058" lon="3.36028">
        <ele>35.6</ele>
        <time>2023-10-28T07:54:59Z</time>
      </trkpt>
      <trkpt lat="50.78059" lon="3.36025">
        <ele>35.8</ele>
        <time>2023-10-28T07:55:00Z</time>
      </trkpt>
      <trkpt lat="50.78062" lon="3.36018">
        <ele>36</ele>
        <time>2023-10-28T07:55:02Z</time>
      </trkpt>
      <trkpt lat="50.7807" lon="3.36002">
        <ele>36.2</ele>
        <time>2023-10-28T07:55:06Z</time>
      </trkpt>
      <trkpt lat="50.78076" lon="3.35988">
        <ele>37</ele>
        <time>2023-10-28T07:55:10Z</time>
      </trkpt>
      <trkpt lat="50.7808" lon="3.35983">
        <ele>37.2</ele>
        <time>2023-10-28T07:55:12Z</time>
      </trkpt>
      <trkpt lat="50.78081" lon="3.3598">
        <ele>37.4</ele>
        <time>2023-10-28T07:55:13Z</time>
      </trkpt>
      <trkpt lat="50.78082" lon="3.35978">
        <ele>37.4</ele>
        <time>2023-10-28T07:55:14Z</time>
      </trkpt>
      <trkpt lat="50.78084" lon="3.35975">
        <ele>37.4</ele>
        <time>2023-10-28T07:55:15Z</time>
      </trkpt>
      <trkpt lat="50.78085" lon="3.35972">
        <ele>37.6</ele>
        <time>2023-10-28T07:55:16Z</time>
      </trkpt>
      <trkpt lat="50.78087" lon="3.3597">
        <ele>38</ele>
        <time>2023-10-28T07:55:17Z</time>
      </trkpt>
      <trkpt lat="50.78088" lon="3.35967">
        <ele>38.2</ele>
        <time>2023-10-28T07:55:18Z</time>
      </trkpt>
      <trkpt lat="50.78089" lon="3.35964">
        <ele>38.4</ele>
        <time>2023-10-28T07:55:19Z</time>
      </trkpt>
      <trkpt lat="50.7809" lon="3.3596">
        <ele>38.6</ele>
        <time>2023-10-28T07:55:20Z</time>
      </trkpt>
      <trkpt lat="50.78091" lon="3.35958">
        <ele>38.8</ele>
        <time>2023-10-28T07:55:21Z</time>
      </trkpt>
      <trkpt lat="50.78093" lon="3.35955">
        <ele>39.2</ele>
        <time>2023-10-28T07:55:22Z</time>
      </trkpt>
      <trkpt lat="50.78094" lon="3.35952">
        <ele>39.4</ele>
        <time>2023-10-28T07:55:23Z</time>
      </trkpt>
      <trkpt lat="50.78095" lon="3.35949">
        <ele>39.6</ele>
        <time>2023-10-28T07:55:24Z</time>
      </trkpt>
      <trkpt lat="50.78096" lon="3.35946">
        <ele>39.8</ele>
        <time>2023-10-28T07:55:25Z</time>
      </trkpt>
      <trkpt lat="50.78097" lon="3.35943">
        <ele>40</ele>
        <time>2023-10-28T07:55:26Z</time>
      </trkpt>
      <trkpt lat="50.78098" lon="3.35941">
        <ele>40.2</ele>
        <time>2023-10-28T07:55:27Z</time>
      </trkpt>
      <trkpt lat="50.78099" lon="3.35938">
        <ele>40.2</ele>
        <time>2023-10-28T07:55:28Z</time>
      </trkpt>
      <trkpt lat="50.781" lon="3.35935">
        <ele>40.4</ele>
        <time>2023-10-28T07:55:29Z</time>
      </trkpt>
      <trkpt lat="50.78101" lon="3.35933">
        <ele>40.8</ele>
        <time>2023-10-28T07:55:30Z</time>
      </trkpt>
      <trkpt lat="50.78102" lon="3.35931">
        <ele>40.8</ele>
        <time>2023-10-28T07:55:31Z</time>
      </trkpt>
      <trkpt lat="50.78103" lon="3.35929">
        <ele>41</ele>
        <time>2023-10-28T07:55:32Z</time>
      </trkpt>
      <trkpt lat="50.78104" lon="3.35926">
        <ele>41.2</ele>
        <time>2023-10-28T07:55:33Z</time>
      </trkpt>
      <trkpt lat="50.78106" lon="3.35923">
        <ele>41.2</ele>
        <time>2023-10-28T07:55:34Z</time>
      </trkpt>
      <trkpt lat="50.78107" lon="3.35921">
        <ele>41.4</ele>
        <time>2023-10-28T07:55:35Z</time>
      </trkpt>
      <trkpt lat="50.78107" lon="3.35918">
        <ele>41.6</ele>
        <time>2023-10-28T07:55:36Z</time>
      </trkpt>
      <trkpt lat="50.78108" lon="3.35916">
        <ele>41.8</ele>
        <time>2023-10-28T07:55:37Z</time>
      </trkpt>
      <trkpt lat="50.7811" lon="3.35914">
        <ele>42</ele>
        <time>2023-10-28T07:55:38Z</time>
      </trkpt>
      <trkpt lat="50.78111" lon="3.35912">
        <ele>42</ele>
        <time>2023-10-28T07:55:39Z</time>
      </trkpt>
      <trkpt lat="50.78112" lon="3.3591">
        <ele>42.2</ele>
        <time>2023-10-28T07:55:40Z</time>
      </trkpt>
      <trkpt lat="50.78114" lon="3.35908">
        <ele>42.4</ele>
        <time>2023-10-28T07:55:41Z</time>
      </trkpt>
      <trkpt lat="50.78115" lon="3.35906">
        <ele>42.6</ele>
        <time>2023-10-28T07:55:42Z</time>
      </trkpt>
      <trkpt lat="50.78115" lon="3.35904">
        <ele>42.8</ele>
        <time>2023-10-28T07:55:43Z</time>
      </trkpt>
      <trkpt lat="50.78116" lon="3.35902">
        <ele>43</ele>
        <time>2023-10-28T07:55:44Z</time>
      </trkpt>
      <trkpt lat="50.78118" lon="3.359">
        <ele>43</ele>
        <time>2023-10-28T07:55:45Z</time>
      </trkpt>
      <trkpt lat="50.78119" lon="3.35899">
        <ele>43.4</ele>
        <time>2023-10-28T07:55:46Z</time>
      </trkpt>
      <trkpt lat="50.7812" lon="3.35897">
        <ele>43.6</ele>
        <time>2023-10-28T07:55:47Z</time>
      </trkpt>
      <trkpt lat="50.78121" lon="3.35894">
        <ele>43.8</ele>
        <time>2023-10-28T07:55:48Z</time>
      </trkpt>
      <trkpt lat="50.78123" lon="3.35892">
        <ele>44</ele>
        <time>2023-10-28T07:55:49Z</time>
      </trkpt>
      <trkpt lat="50.78124" lon="3.3589">
        <ele>44.2</ele>
        <time>2023-10-28T07:55:50Z</time>
      </trkpt>
      <trkpt lat="50.78125" lon="3.35888">
        <ele>44.4</ele>
        <time>2023-10-28T07:55:51Z</time>
      </trkpt>
      <trkpt lat="50.78127" lon="3.35886">
        <ele>44.6</ele>
        <time>2023-10-28T07:55:52Z</time>
      </trkpt>
      <trkpt lat="50.78128" lon="3.35884">
        <ele>44.8</ele>
        <time>2023-10-28T07:55:53Z</time>
      </trkpt>
      <trkpt lat="50.78129" lon="3.35882">
        <ele>45</ele>
        <time>2023-10-28T07:55:54Z</time>
      </trkpt>
      <trkpt lat="50.78131" lon="3.3588">
        <ele>45.2</ele>
        <time>2023-10-28T07:55:55Z</time>
      </trkpt>
      <trkpt lat="50.78132" lon="3.35878">
        <ele>45.4</ele>
        <time>2023-10-28T07:55:56Z</time>
      </trkpt>
      <trkpt lat="50.78134" lon="3.35875">
        <ele>45.4</ele>
        <time>2023-10-28T07:55:57Z</time>
      </trkpt>
      <trkpt lat="50.78135" lon="3.35873">
        <ele>45.8</ele>
        <time>2023-10-28T07:55:58Z</time>
      </trkpt>
      <trkpt lat="50.78136" lon="3.35871">
        <ele>45.8</ele>
        <time>2023-10-28T07:55:59Z</time>
      </trkpt>
      <trkpt lat="50.78138" lon="3.35868">
        <ele>46</ele>
        <time>2023-10-28T07:56:00Z</time>
      </trkpt>
      <trkpt lat="50.78139" lon="3.35865">
        <ele>46.4</ele>
        <time>2023-10-28T07:56:01Z</time>
      </trkpt>
      <trkpt lat="50.7814" lon="3.35863">
        <ele>46.6</ele>
        <time>2023-10-28T07:56:02Z</time>
      </trkpt>
      <trkpt lat="50.78142" lon="3.35861">
        <ele>46.6</ele>
        <time>2023-10-28T07:56:03Z</time>
      </trkpt>
      <trkpt lat="50.78143" lon="3.35859">
        <ele>46.8</ele>
        <time>2023-10-28T07:56:04Z</time>
      </trkpt>
      <trkpt lat="50.78145" lon="3.35857">
        <ele>47</ele>
        <time>2023-10-28T07:56:05Z</time>
      </trkpt>
      <trkpt lat="50.78147" lon="3.35854">
        <ele>47.2</ele>
        <time>2023-10-28T07:56:06Z</time>
      </trkpt>
      <trkpt lat="50.78148" lon="3.35853">
        <ele>47.4</ele>
        <time>2023-10-28T07:56:07Z</time>
      </trkpt>
      <trkpt lat="50.7815" lon="3.35851">
        <ele>47.4</ele>
        <time>2023-10-28T07:56:08Z</time>
      </trkpt>
      <trkpt lat="50.78151" lon="3.3585">
        <ele>47.6</ele>
        <time>2023-10-28T07:56:09Z</time>
      </trkpt>
      <trkpt lat="50.78152" lon="3.35848">
        <ele>47.8</ele>
        <time>2023-10-28T07:56:10Z</time>
      </trkpt>
      <trkpt lat="50.78154" lon="3.35847">
        <ele>47.8</ele>
        <time>2023-10-28T07:56:11Z</time>
      </trkpt>
      <trkpt lat="50.78155" lon="3.35844">
        <ele>47.8</ele>
        <time>2023-10-28T07:56:12Z</time>
      </trkpt>
      <trkpt lat="50.78157" lon="3.35842">
        <ele>48</ele>
        <time>2023-10-28T07:56:13Z</time>
      </trkpt>
      <trkpt lat="50.78159" lon="3.35839">
        <ele>48.2</ele>
        <time>2023-10-28T07:56:14Z</time>
      </trkpt>
      <trkpt lat="50.78161" lon="3.35836">
        <ele>48.4</ele>
        <time>2023-10-28T07:56:15Z</time>
      </trkpt>
      <trkpt lat="50.78163" lon="3.35834">
        <ele>48.6</ele>
        <time>2023-10-28T07:56:16Z</time>
      </trkpt>
      <trkpt lat="50.78164" lon="3.35832">
        <ele>48.6</ele>
        <time>2023-10-28T07:56:17Z</time>
      </trkpt>
      <trkpt lat="50.78166" lon="3.35829">
        <ele>48.8</ele>
        <time>2023-10-28T07:56:18Z</time>
      </trkpt>
      <trkpt lat="50.78169" lon="3.35826">
        <ele>49</ele>
        <time>2023-10-28T07:56:19Z</time>
      </trkpt>
      <trkpt lat="50.7817" lon="3.35824">
        <ele>49.4</ele>
        <time>2023-10-28T07:56:20Z</time>
      </trkpt>
      <trkpt lat="50.78171" lon="3.35821">
        <ele>49.4</ele>
        <time>2023-10-28T07:56:21Z</time>
      </trkpt>
      <trkpt lat="50.78174" lon="3.35817">
        <ele>49.6</ele>
        <time>2023-10-28T07:56:22Z</time>
      </trkpt>
      <trkpt lat="50.78175" lon="3.35814">
        <ele>49.6</ele>
        <time>2023-10-28T07:56:23Z</time>
      </trkpt>
      <trkpt lat="50.78176" lon="3.35808">
        <ele>49.6</ele>
        <time>2023-10-28T07:56:24Z</time>
      </trkpt>
      <trkpt lat="50.78176" lon="3.35804">
        <ele>49.6</ele>
        <time>2023-10-28T07:56:25Z</time>
      </trkpt>
      <trkpt lat="50.78175" lon="3.358">
        <ele>49.6</ele>
        <time>2023-10-28T07:56:26Z</time>
      </trkpt>
      <trkpt lat="50.78173" lon="3.35795">
        <ele>49.6</ele>
        <time>2023-10-28T07:56:27Z</time>
      </trkpt>
      <trkpt lat="50.78172" lon="3.35792">
        <ele>49.6</ele>
        <time>2023-10-28T07:56:28Z</time>
      </trkpt>
      <trkpt lat="50.7817" lon="3.35788">
        <ele>49.6</ele>
        <time>2023-10-28T07:56:29Z</time>
      </trkpt>
      <trkpt lat="50.78169" lon="3.35784">
        <ele>49.6</ele>
        <time>2023-10-28T07:56:30Z</time>
      </trkpt>
      <trkpt lat="50.78167" lon="3.35779">
        <ele>49.4</ele>
        <time>2023-10-28T07:56:31Z</time>
      </trkpt>
      <trkpt lat="50.78166" lon="3.35774">
        <ele>49.4</ele>
        <time>2023-10-28T07:56:32Z</time>
      </trkpt>
      <trkpt lat="50.78163" lon="3.35768">
        <ele>49.2</ele>
        <time>2023-10-28T07:56:33Z</time>
      </trkpt>
      <trkpt lat="50.78162" lon="3.35764">
        <ele>49</ele>
        <time>2023-10-28T07:56:34Z</time>
      </trkpt>
      <trkpt lat="50.7816" lon="3.35759">
        <ele>49</ele>
        <time>2023-10-28T07:56:35Z</time>
      </trkpt>
      <trkpt lat="50.78146" lon="3.35727">
        <ele>49</ele>
        <time>2023-10-28T07:56:41Z</time>
      </trkpt>
      <trkpt lat="50.78133" lon="3.35699">
        <ele>49.2</ele>
        <time>2023-10-28T07:56:47Z</time>
      </trkpt>
      <trkpt lat="50.78126" lon="3.35655">
        <ele>50</ele>
        <time>2023-10-28T07:56:54Z</time>
      </trkpt>
      <trkpt lat="50.78124" lon="3.35644">
        <ele>50.6</ele>
        <time>2023-10-28T07:56:56Z</time>
      </trkpt>
      <trkpt lat="50.78124" lon="3.35625">
        <ele>51.2</ele>
        <time>2023-10-28T07:56:59Z</time>
      </trkpt>
      <trkpt lat="50.78123" lon="3.35619">
        <ele>51.4</ele>
        <time>2023-10-28T07:57:00Z</time>
      </trkpt>
      <trkpt lat="50.78122" lon="3.35614">
        <ele>51.6</ele>
        <time>2023-10-28T07:57:01Z</time>
      </trkpt>
      <trkpt lat="50.78116" lon="3.35588">
        <ele>52</ele>
        <time>2023-10-28T07:57:05Z</time>
      </trkpt>
      <trkpt lat="50.78114" lon="3.3558">
        <ele>52</ele>
        <time>2023-10-28T07:57:06Z</time>
      </trkpt>
      <trkpt lat="50.78113" lon="3.35576">
        <ele>52.4</ele>
        <time>2023-10-28T07:57:07Z</time>
      </trkpt>
      <trkpt lat="50.7811" lon="3.35569">
        <ele>52.6</ele>
        <time>2023-10-28T07:57:08Z</time>
      </trkpt>
      <trkpt lat="50.78108" lon="3.35564">
        <ele>52.6</ele>
        <time>2023-10-28T07:57:09Z</time>
      </trkpt>
      <trkpt lat="50.78107" lon="3.35558">
        <ele>52.8</ele>
        <time>2023-10-28T07:57:10Z</time>
      </trkpt>
      <trkpt lat="50.78105" lon="3.35552">
        <ele>52.8</ele>
        <time>2023-10-28T07:57:11Z</time>
      </trkpt>
      <trkpt lat="50.78103" lon="3.35547">
        <ele>53</ele>
        <time>2023-10-28T07:57:12Z</time>
      </trkpt>
      <trkpt lat="50.78101" lon="3.35541">
        <ele>53</ele>
        <time>2023-10-28T07:57:13Z</time>
      </trkpt>
      <trkpt lat="50.78099" lon="3.35535">
        <ele>53</ele>
        <time>2023-10-28T07:57:14Z</time>
      </trkpt>
      <trkpt lat="50.78097" lon="3.35528">
        <ele>53</ele>
        <time>2023-10-28T07:57:15Z</time>
      </trkpt>
      <trkpt lat="50.78095" lon="3.35522">
        <ele>53</ele>
        <time>2023-10-28T07:57:16Z</time>
      </trkpt>
      <trkpt lat="50.78094" lon="3.35517">
        <ele>53</ele>
        <time>2023-10-28T07:57:17Z</time>
      </trkpt>
      <trkpt lat="50.78092" lon="3.35511">
        <ele>53.2</ele>
        <time>2023-10-28T07:57:18Z</time>
      </trkpt>
      <trkpt lat="50.7809" lon="3.35505">
        <ele>53.2</ele>
        <time>2023-10-28T07:57:19Z</time>
      </trkpt>
      <trkpt lat="50.78088" lon="3.35498">
        <ele>53.2</ele>
        <time>2023-10-28T07:57:20Z</time>
      </trkpt>
      <trkpt lat="50.78086" lon="3.35493">
        <ele>53.2</ele>
        <time>2023-10-28T07:57:21Z</time>
      </trkpt>
      <trkpt lat="50.78084" lon="3.35486">
        <ele>53.2</ele>
        <time>2023-10-28T07:57:22Z</time>
      </trkpt>
      <trkpt lat="50.78081" lon="3.35479">
        <ele>53.2</ele>
        <time>2023-10-28T07:57:23Z</time>
      </trkpt>
      <trkpt lat="50.78079" lon="3.35473">
        <ele>53.2</ele>
        <time>2023-10-28T07:57:24Z</time>
      </trkpt>
      <trkpt lat="50.78062" lon="3.35422">
        <ele>53</ele>
        <time>2023-10-28T07:57:31Z</time>
      </trkpt>
      <trkpt lat="50.7805" lon="3.35387">
        <ele>52</ele>
        <time>2023-10-28T07:57:36Z</time>
      </trkpt>
      <trkpt lat="50.78047" lon="3.3538">
        <ele>51.6</ele>
        <time>2023-10-28T07:57:37Z</time>
      </trkpt>
      <trkpt lat="50.78045" lon="3.35373">
        <ele>51.2</ele>
        <time>2023-10-28T07:57:38Z</time>
      </trkpt>
      <trkpt lat="50.78043" lon="3.35366">
        <ele>51</ele>
        <time>2023-10-28T07:57:39Z</time>
      </trkpt>
      <trkpt lat="50.78041" lon="3.3536">
        <ele>50.8</ele>
        <time>2023-10-28T07:57:40Z</time>
      </trkpt>
      <trkpt lat="50.7804" lon="3.35353">
        <ele>50.8</ele>
        <time>2023-10-28T07:57:41Z</time>
      </trkpt>
      <trkpt lat="50.7804" lon="3.35346">
        <ele>50.8</ele>
        <time>2023-10-28T07:57:42Z</time>
      </trkpt>
      <trkpt lat="50.78041" lon="3.35339">
        <ele>50.8</ele>
        <time>2023-10-28T07:57:43Z</time>
      </trkpt>
      <trkpt lat="50.78043" lon="3.35334">
        <ele>50.8</ele>
        <time>2023-10-28T07:57:44Z</time>
      </trkpt>
      <trkpt lat="50.78046" lon="3.3533">
        <ele>50.8</ele>
        <time>2023-10-28T07:57:45Z</time>
      </trkpt>
      <trkpt lat="50.78053" lon="3.35323">
        <ele>50.8</ele>
        <time>2023-10-28T07:57:47Z</time>
      </trkpt>
      <trkpt lat="50.78059" lon="3.35319">
        <ele>50.8</ele>
        <time>2023-10-28T07:57:48Z</time>
      </trkpt>
      <trkpt lat="50.78064" lon="3.35316">
        <ele>50.8</ele>
        <time>2023-10-28T07:57:49Z</time>
      </trkpt>
      <trkpt lat="50.78088" lon="3.353">
        <ele>51.4</ele>
        <time>2023-10-28T07:57:54Z</time>
      </trkpt>
      <trkpt lat="50.78116" lon="3.35281">
        <ele>51.6</ele>
        <time>2023-10-28T07:57:59Z</time>
      </trkpt>
      <trkpt lat="50.78122" lon="3.35277">
        <ele>51.6</ele>
        <time>2023-10-28T07:58:00Z</time>
      </trkpt>
      <trkpt lat="50.78127" lon="3.35273">
        <ele>51.6</ele>
        <time>2023-10-28T07:58:01Z</time>
      </trkpt>
      <trkpt lat="50.78156" lon="3.35256">
        <ele>51.4</ele>
        <time>2023-10-28T07:58:05Z</time>
      </trkpt>
      <trkpt lat="50.78183" lon="3.35243">
        <ele>50.2</ele>
        <time>2023-10-28T07:58:08Z</time>
      </trkpt>
      <trkpt lat="50.78202" lon="3.35234">
        <ele>49</ele>
        <time>2023-10-28T07:58:10Z</time>
      </trkpt>
      <trkpt lat="50.7822" lon="3.35223">
        <ele>47.6</ele>
        <time>2023-10-28T07:58:12Z</time>
      </trkpt>
      <trkpt lat="50.7823" lon="3.35216">
        <ele>46</ele>
        <time>2023-10-28T07:58:13Z</time>
      </trkpt>
      <trkpt lat="50.78239" lon="3.3521">
        <ele>45</ele>
        <time>2023-10-28T07:58:14Z</time>
      </trkpt>
      <trkpt lat="50.78258" lon="3.35197">
        <ele>44.4</ele>
        <time>2023-10-28T07:58:16Z</time>
      </trkpt>
      <trkpt lat="50.78268" lon="3.35191">
        <ele>43.4</ele>
        <time>2023-10-28T07:58:17Z</time>
      </trkpt>
      <trkpt lat="50.78277" lon="3.35184">
        <ele>42</ele>
        <time>2023-10-28T07:58:18Z</time>
      </trkpt>
      <trkpt lat="50.78287" lon="3.35178">
        <ele>40.6</ele>
        <time>2023-10-28T07:58:19Z</time>
      </trkpt>
      <trkpt lat="50.78306" lon="3.35165">
        <ele>39.4</ele>
        <time>2023-10-28T07:58:21Z</time>
      </trkpt>
      <trkpt lat="50.78325" lon="3.35153">
        <ele>37.8</ele>
        <time>2023-10-28T07:58:23Z</time>
      </trkpt>
      <trkpt lat="50.78335" lon="3.35147">
        <ele>36.8</ele>
        <time>2023-10-28T07:58:24Z</time>
      </trkpt>
      <trkpt lat="50.78345" lon="3.35142">
        <ele>35.8</ele>
        <time>2023-10-28T07:58:25Z</time>
      </trkpt>
      <trkpt lat="50.78354" lon="3.35137">
        <ele>35</ele>
        <time>2023-10-28T07:58:26Z</time>
      </trkpt>
      <trkpt lat="50.78364" lon="3.35132">
        <ele>34.4</ele>
        <time>2023-10-28T07:58:27Z</time>
      </trkpt>
      <trkpt lat="50.78372" lon="3.35128">
        <ele>34</ele>
        <time>2023-10-28T07:58:28Z</time>
      </trkpt>
      <trkpt lat="50.78381" lon="3.35124">
        <ele>33.4</ele>
        <time>2023-10-28T07:58:29Z</time>
      </trkpt>
      <trkpt lat="50.7839" lon="3.35119">
        <ele>32.6</ele>
        <time>2023-10-28T07:58:30Z</time>
      </trkpt>
      <trkpt lat="50.78398" lon="3.35114">
        <ele>32.2</ele>
        <time>2023-10-28T07:58:31Z</time>
      </trkpt>
      <trkpt lat="50.78423" lon="3.351">
        <ele>31</ele>
        <time>2023-10-28T07:58:34Z</time>
      </trkpt>
      <trkpt lat="50.78441" lon="3.35089">
        <ele>29.8</ele>
        <time>2023-10-28T07:58:36Z</time>
      </trkpt>
      <trkpt lat="50.7845" lon="3.35084">
        <ele>29.6</ele>
        <time>2023-10-28T07:58:37Z</time>
      </trkpt>
      <trkpt lat="50.78478" lon="3.35067">
        <ele>28.6</ele>
        <time>2023-10-28T07:58:40Z</time>
      </trkpt>
      <trkpt lat="50.78507" lon="3.35048">
        <ele>28</ele>
        <time>2023-10-28T07:58:43Z</time>
      </trkpt>
      <trkpt lat="50.78516" lon="3.35042">
        <ele>27.2</ele>
        <time>2023-10-28T07:58:44Z</time>
      </trkpt>
      <trkpt lat="50.78523" lon="3.35037">
        <ele>26.4</ele>
        <time>2023-10-28T07:58:45Z</time>
      </trkpt>
      <trkpt lat="50.78532" lon="3.35031">
        <ele>25.8</ele>
        <time>2023-10-28T07:58:46Z</time>
      </trkpt>
      <trkpt lat="50.78558" lon="3.35011">
        <ele>24.4</ele>
        <time>2023-10-28T07:58:49Z</time>
      </trkpt>
      <trkpt lat="50.78575" lon="3.34995">
        <ele>23.8</ele>
        <time>2023-10-28T07:58:51Z</time>
      </trkpt>
      <trkpt lat="50.78583" lon="3.34986">
        <ele>23.4</ele>
        <time>2023-10-28T07:58:52Z</time>
      </trkpt>
      <trkpt lat="50.78591" lon="3.34977">
        <ele>23.2</ele>
        <time>2023-10-28T07:58:53Z</time>
      </trkpt>
      <trkpt lat="50.78599" lon="3.34968">
        <ele>22.8</ele>
        <time>2023-10-28T07:58:54Z</time>
      </trkpt>
      <trkpt lat="50.78614" lon="3.3495">
        <ele>22.2</ele>
        <time>2023-10-28T07:58:56Z</time>
      </trkpt>
      <trkpt lat="50.78621" lon="3.34941">
        <ele>22.2</ele>
        <time>2023-10-28T07:58:57Z</time>
      </trkpt>
      <trkpt lat="50.78666" lon="3.34889">
        <ele>21.4</ele>
        <time>2023-10-28T07:59:03Z</time>
      </trkpt>
      <trkpt lat="50.78674" lon="3.34879">
        <ele>21</ele>
        <time>2023-10-28T07:59:04Z</time>
      </trkpt>
      <trkpt lat="50.7868" lon="3.34873">
        <ele>20.8</ele>
        <time>2023-10-28T07:59:05Z</time>
      </trkpt>
      <trkpt lat="50.78687" lon="3.34864">
        <ele>20.4</ele>
        <time>2023-10-28T07:59:06Z</time>
      </trkpt>
      <trkpt lat="50.78694" lon="3.34857">
        <ele>20.2</ele>
        <time>2023-10-28T07:59:07Z</time>
      </trkpt>
      <trkpt lat="50.78709" lon="3.34841">
        <ele>19.8</ele>
        <time>2023-10-28T07:59:09Z</time>
      </trkpt>
      <trkpt lat="50.78723" lon="3.34825">
        <ele>19.4</ele>
        <time>2023-10-28T07:59:11Z</time>
      </trkpt>
      <trkpt lat="50.7873" lon="3.34818">
        <ele>19.4</ele>
        <time>2023-10-28T07:59:12Z</time>
      </trkpt>
      <trkpt lat="50.78737" lon="3.3481">
        <ele>19.2</ele>
        <time>2023-10-28T07:59:13Z</time>
      </trkpt>
      <trkpt lat="50.78745" lon="3.34803">
        <ele>19.2</ele>
        <time>2023-10-28T07:59:14Z</time>
      </trkpt>
      <trkpt lat="50.78765" lon="3.3478">
        <ele>18.8</ele>
        <time>2023-10-28T07:59:17Z</time>
      </trkpt>
      <trkpt lat="50.78772" lon="3.3477">
        <ele>18.6</ele>
        <time>2023-10-28T07:59:18Z</time>
      </trkpt>
      <trkpt lat="50.78778" lon="3.34761">
        <ele>18.6</ele>
        <time>2023-10-28T07:59:19Z</time>
      </trkpt>
      <trkpt lat="50.78785" lon="3.34753">
        <ele>18.4</ele>
        <time>2023-10-28T07:59:20Z</time>
      </trkpt>
      <trkpt lat="50.78807" lon="3.34736">
        <ele>18</ele>
        <time>2023-10-28T07:59:23Z</time>
      </trkpt>
      <trkpt lat="50.78814" lon="3.34731">
        <ele>17.8</ele>
        <time>2023-10-28T07:59:24Z</time>
      </trkpt>
      <trkpt lat="50.78821" lon="3.34727">
        <ele>17.6</ele>
        <time>2023-10-28T07:59:25Z</time>
      </trkpt>
      <trkpt lat="50.78828" lon="3.34721">
        <ele>17.4</ele>
        <time>2023-10-28T07:59:26Z</time>
      </trkpt>
      <trkpt lat="50.78834" lon="3.34716">
        <ele>17</ele>
        <time>2023-10-28T07:59:27Z</time>
      </trkpt>
      <trkpt lat="50.78846" lon="3.34705">
        <ele>16.4</ele>
        <time>2023-10-28T07:59:29Z</time>
      </trkpt>
      <trkpt lat="50.78852" lon="3.34699">
        <ele>16.4</ele>
        <time>2023-10-28T07:59:30Z</time>
      </trkpt>
      <trkpt lat="50.78864" lon="3.34689">
        <ele>16.4</ele>
        <time>2023-10-28T07:59:32Z</time>
      </trkpt>
      <trkpt lat="50.7887" lon="3.34685">
        <ele>16.2</ele>
        <time>2023-10-28T07:59:33Z</time>
      </trkpt>
      <trkpt lat="50.78877" lon="3.34682">
        <ele>16.2</ele>
        <time>2023-10-28T07:59:34Z</time>
      </trkpt>
      <trkpt lat="50.78883" lon="3.3468">
        <ele>16.2</ele>
        <time>2023-10-28T07:59:35Z</time>
      </trkpt>
      <trkpt lat="50.78897" lon="3.34679">
        <ele>16.2</ele>
        <time>2023-10-28T07:59:37Z</time>
      </trkpt>
      <trkpt lat="50.78904" lon="3.34679">
        <ele>16.6</ele>
        <time>2023-10-28T07:59:38Z</time>
      </trkpt>
      <trkpt lat="50.7891" lon="3.34678">
        <ele>17</ele>
        <time>2023-10-28T07:59:39Z</time>
      </trkpt>
      <trkpt lat="50.78936" lon="3.34677">
        <ele>17.4</ele>
        <time>2023-10-28T07:59:43Z</time>
      </trkpt>
      <trkpt lat="50.78943" lon="3.34677">
        <ele>17.6</ele>
        <time>2023-10-28T07:59:44Z</time>
      </trkpt>
      <trkpt lat="50.78956" lon="3.34678">
        <ele>17.6</ele>
        <time>2023-10-28T07:59:46Z</time>
      </trkpt>
      <trkpt lat="50.79013" lon="3.34678">
        <ele>17.4</ele>
        <time>2023-10-28T07:59:54Z</time>
      </trkpt>
      <trkpt lat="50.79027" lon="3.34678">
        <ele>17.2</ele>
        <time>2023-10-28T07:59:56Z</time>
      </trkpt>
      <trkpt lat="50.79071" lon="3.34679">
        <ele>16.6</ele>
        <time>2023-10-28T08:00:02Z</time>
      </trkpt>
      <trkpt lat="50.79078" lon="3.34679">
        <ele>16.6</ele>
        <time>2023-10-28T08:00:03Z</time>
      </trkpt>
      <trkpt lat="50.79086" lon="3.34679">
        <ele>16.4</ele>
        <time>2023-10-28T08:00:04Z</time>
      </trkpt>
      <trkpt lat="50.79094" lon="3.34677">
        <ele>16.2</ele>
        <time>2023-10-28T08:00:05Z</time>
      </trkpt>
      <trkpt lat="50.79117" lon="3.34662">
        <ele>15.8</ele>
        <time>2023-10-28T08:00:08Z</time>
      </trkpt>
      <trkpt lat="50.7913" lon="3.34652">
        <ele>15.4</ele>
        <time>2023-10-28T08:00:10Z</time>
      </trkpt>
      <trkpt lat="50.79166" lon="3.34623">
        <ele>14.2</ele>
        <time>2023-10-28T08:00:15Z</time>
      </trkpt>
      <trkpt lat="50.79171" lon="3.34618">
        <ele>13.8</ele>
        <time>2023-10-28T08:00:16Z</time>
      </trkpt>
      <trkpt lat="50.79177" lon="3.34611">
        <ele>13.6</ele>
        <time>2023-10-28T08:00:17Z</time>
      </trkpt>
      <trkpt lat="50.79181" lon="3.34604">
        <ele>13.4</ele>
        <time>2023-10-28T08:00:18Z</time>
      </trkpt>
      <trkpt lat="50.79185" lon="3.34598">
        <ele>13.4</ele>
        <time>2023-10-28T08:00:19Z</time>
      </trkpt>
      <trkpt lat="50.7919" lon="3.34594">
        <ele>13.4</ele>
        <time>2023-10-28T08:00:20Z</time>
      </trkpt>
      <trkpt lat="50.79195" lon="3.34592">
        <ele>13.2</ele>
        <time>2023-10-28T08:00:21Z</time>
      </trkpt>
      <trkpt lat="50.79202" lon="3.3459">
        <ele>13.2</ele>
        <time>2023-10-28T08:00:22Z</time>
      </trkpt>
      <trkpt lat="50.79206" lon="3.3459">
        <ele>13.2</ele>
        <time>2023-10-28T08:00:23Z</time>
      </trkpt>
      <trkpt lat="50.79212" lon="3.34589">
        <ele>13.2</ele>
        <time>2023-10-28T08:00:24Z</time>
      </trkpt>
      <trkpt lat="50.79271" lon="3.34582">
        <ele>13.8</ele>
        <time>2023-10-28T08:00:34Z</time>
      </trkpt>
      <trkpt lat="50.79328" lon="3.34574">
        <ele>14.2</ele>
        <time>2023-10-28T08:00:43Z</time>
      </trkpt>
      <trkpt lat="50.79335" lon="3.34573">
        <ele>14.2</ele>
        <time>2023-10-28T08:00:44Z</time>
      </trkpt>
      <trkpt lat="50.79366" lon="3.34561">
        <ele>14</ele>
        <time>2023-10-28T08:00:49Z</time>
      </trkpt>
      <trkpt lat="50.79384" lon="3.3455">
        <ele>14</ele>
        <time>2023-10-28T08:00:52Z</time>
      </trkpt>
      <trkpt lat="50.7939" lon="3.34546">
        <ele>13.8</ele>
        <time>2023-10-28T08:00:53Z</time>
      </trkpt>
      <trkpt lat="50.79401" lon="3.34538">
        <ele>13.8</ele>
        <time>2023-10-28T08:00:55Z</time>
      </trkpt>
      <trkpt lat="50.79405" lon="3.34533">
        <ele>13.6</ele>
        <time>2023-10-28T08:00:56Z</time>
      </trkpt>
      <trkpt lat="50.79408" lon="3.34526">
        <ele>13.6</ele>
        <time>2023-10-28T08:00:57Z</time>
      </trkpt>
      <trkpt lat="50.7941" lon="3.3452">
        <ele>13.6</ele>
        <time>2023-10-28T08:00:58Z</time>
      </trkpt>
      <trkpt lat="50.79413" lon="3.34515">
        <ele>13.6</ele>
        <time>2023-10-28T08:00:59Z</time>
      </trkpt>
      <trkpt lat="50.79415" lon="3.3451">
        <ele>13.6</ele>
        <time>2023-10-28T08:01:00Z</time>
      </trkpt>
      <trkpt lat="50.79418" lon="3.34506">
        <ele>13.4</ele>
        <time>2023-10-28T08:01:01Z</time>
      </trkpt>
      <trkpt lat="50.7942" lon="3.34502">
        <ele>13.4</ele>
        <time>2023-10-28T08:01:02Z</time>
      </trkpt>
      <trkpt lat="50.79422" lon="3.34497">
        <ele>13.4</ele>
        <time>2023-10-28T08:01:03Z</time>
      </trkpt>
      <trkpt lat="50.79422" lon="3.34497">
        <ele>13.4</ele>
        <time>2023-10-28T08:01:04Z</time>
      </trkpt>
      <trkpt lat="50.79431" lon="3.34484">
        <ele>13.6</ele>
        <time>2023-10-28T08:01:07Z</time>
      </trkpt>
      <trkpt lat="50.79434" lon="3.34481">
        <ele>13.6</ele>
        <time>2023-10-28T08:01:08Z</time>
      </trkpt>
      <trkpt lat="50.79436" lon="3.34478">
        <ele>13.8</ele>
        <time>2023-10-28T08:01:09Z</time>
      </trkpt>
      <trkpt lat="50.79439" lon="3.34475">
        <ele>14</ele>
        <time>2023-10-28T08:01:10Z</time>
      </trkpt>
      <trkpt lat="50.79445" lon="3.34461">
        <ele>14.2</ele>
        <time>2023-10-28T08:01:13Z</time>
      </trkpt>
      <trkpt lat="50.79446" lon="3.34456">
        <ele>14.2</ele>
        <time>2023-10-28T08:01:14Z</time>
      </trkpt>
      <trkpt lat="50.79445" lon="3.34451">
        <ele>14.2</ele>
        <time>2023-10-28T08:01:15Z</time>
      </trkpt>
      <trkpt lat="50.79445" lon="3.34446">
        <ele>14.2</ele>
        <time>2023-10-28T08:01:16Z</time>
      </trkpt>
      <trkpt lat="50.79445" lon="3.34442">
        <ele>14.2</ele>
        <time>2023-10-28T08:01:17Z</time>
      </trkpt>
      <trkpt lat="50.79446" lon="3.34439">
        <ele>14.2</ele>
        <time>2023-10-28T08:01:18Z</time>
      </trkpt>
      <trkpt lat="50.79446" lon="3.34437">
        <ele>14.2</ele>
        <time>2023-10-28T08:01:19Z</time>
      </trkpt>
      <trkpt lat="50.79446" lon="3.34437">
        <ele>14.2</ele>
        <time>2023-10-28T08:01:21Z</time>
      </trkpt>
      <trkpt lat="50.79443" lon="3.34454">
        <ele>13</ele>
        <time>2023-10-28T08:07:32Z</time>
      </trkpt>
      <trkpt lat="50.79444" lon="3.34457">
        <ele>13</ele>
        <time>2023-10-28T08:07:33Z</time>
      </trkpt>
      <trkpt lat="50.79446" lon="3.34459">
        <ele>13</ele>
        <time>2023-10-28T08:07:34Z</time>
      </trkpt>
      <trkpt lat="50.79448" lon="3.3446">
        <ele>13</ele>
        <time>2023-10-28T08:07:35Z</time>
      </trkpt>
      <trkpt lat="50.7945" lon="3.34459">
        <ele>13</ele>
        <time>2023-10-28T08:07:36Z</time>
      </trkpt>
      <trkpt lat="50.79452" lon="3.34457">
        <ele>13</ele>
        <time>2023-10-28T08:07:37Z</time>
      </trkpt>
      <trkpt lat="50.79462" lon="3.34444">
        <ele>13.2</ele>
        <time>2023-10-28T08:07:41Z</time>
      </trkpt>
      <trkpt lat="50.79468" lon="3.34437">
        <ele>13</ele>
        <time>2023-10-28T08:07:43Z</time>
      </trkpt>
      <trkpt lat="50.79476" lon="3.34426">
        <ele>13</ele>
        <time>2023-10-28T08:07:46Z</time>
      </trkpt>
      <trkpt lat="50.79502" lon="3.34401">
        <ele>12.6</ele>
        <time>2023-10-28T08:07:54Z</time>
      </trkpt>
      <trkpt lat="50.79541" lon="3.34363">
        <ele>12.2</ele>
        <time>2023-10-28T08:08:04Z</time>
      </trkpt>
      <trkpt lat="50.79549" lon="3.34355">
        <ele>12</ele>
        <time>2023-10-28T08:08:06Z</time>
      </trkpt>
      <trkpt lat="50.79563" lon="3.34334">
        <ele>11.6</ele>
        <time>2023-10-28T08:08:10Z</time>
      </trkpt>
      <trkpt lat="50.7957" lon="3.34323">
        <ele>11.4</ele>
        <time>2023-10-28T08:08:12Z</time>
      </trkpt>
      <trkpt lat="50.79573" lon="3.34318">
        <ele>11.4</ele>
        <time>2023-10-28T08:08:13Z</time>
      </trkpt>
      <trkpt lat="50.79576" lon="3.34313">
        <ele>11.4</ele>
        <time>2023-10-28T08:08:14Z</time>
      </trkpt>
      <trkpt lat="50.79578" lon="3.34309">
        <ele>11.4</ele>
        <time>2023-10-28T08:08:15Z</time>
      </trkpt>
      <trkpt lat="50.79582" lon="3.34304">
        <ele>11.4</ele>
        <time>2023-10-28T08:08:16Z</time>
      </trkpt>
      <trkpt lat="50.79586" lon="3.34299">
        <ele>11.4</ele>
        <time>2023-10-28T08:08:17Z</time>
      </trkpt>
      <trkpt lat="50.79626" lon="3.3426">
        <ele>11.2</ele>
        <time>2023-10-28T08:08:27Z</time>
      </trkpt>
      <trkpt lat="50.79635" lon="3.34252">
        <ele>11.2</ele>
        <time>2023-10-28T08:08:29Z</time>
      </trkpt>
      <trkpt lat="50.79639" lon="3.34248">
        <ele>11.2</ele>
        <time>2023-10-28T08:08:30Z</time>
      </trkpt>
      <trkpt lat="50.79642" lon="3.34245">
        <ele>11</ele>
        <time>2023-10-28T08:08:31Z</time>
      </trkpt>
      <trkpt lat="50.79642" lon="3.34245">
        <ele>11</ele>
        <time>2023-10-28T08:08:32Z</time>
      </trkpt>
      <trkpt lat="50.79649" lon="3.34235">
        <ele>11</ele>
        <time>2023-10-28T08:08:33Z</time>
      </trkpt>
      <trkpt lat="50.79653" lon="3.34229">
        <ele>11</ele>
        <time>2023-10-28T08:08:34Z</time>
      </trkpt>
      <trkpt lat="50.79656" lon="3.34224">
        <ele>11</ele>
        <time>2023-10-28T08:08:35Z</time>
      </trkpt>
      <trkpt lat="50.79677" lon="3.34183">
        <ele>10.8</ele>
        <time>2023-10-28T08:08:43Z</time>
      </trkpt>
      <trkpt lat="50.7968" lon="3.34177">
        <ele>10.8</ele>
        <time>2023-10-28T08:08:44Z</time>
      </trkpt>
      <trkpt lat="50.79683" lon="3.34172">
        <ele>10.8</ele>
        <time>2023-10-28T08:08:45Z</time>
      </trkpt>
      <trkpt lat="50.79685" lon="3.34167">
        <ele>10.8</ele>
        <time>2023-10-28T08:08:46Z</time>
      </trkpt>
      <trkpt lat="50.79687" lon="3.34163">
        <ele>10.8</ele>
        <time>2023-10-28T08:08:47Z</time>
      </trkpt>
      <trkpt lat="50.79689" lon="3.34158">
        <ele>10.8</ele>
        <time>2023-10-28T08:08:48Z</time>
      </trkpt>
      <trkpt lat="50.79689" lon="3.34151">
        <ele>10.8</ele>
        <time>2023-10-28T08:08:49Z</time>
      </trkpt>
      <trkpt lat="50.79689" lon="3.34145">
        <ele>10.8</ele>
        <time>2023-10-28T08:08:50Z</time>
      </trkpt>
      <trkpt lat="50.79686" lon="3.34141">
        <ele>10.8</ele>
        <time>2023-10-28T08:08:51Z</time>
      </trkpt>
      <trkpt lat="50.79684" lon="3.34138">
        <ele>10.6</ele>
        <time>2023-10-28T08:08:52Z</time>
      </trkpt>
      <trkpt lat="50.7968" lon="3.34134">
        <ele>10.6</ele>
        <time>2023-10-28T08:08:53Z</time>
      </trkpt>
      <trkpt lat="50.79677" lon="3.34131">
        <ele>10.4</ele>
        <time>2023-10-28T08:08:54Z</time>
      </trkpt>
      <trkpt lat="50.79673" lon="3.34127">
        <ele>10.4</ele>
        <time>2023-10-28T08:08:55Z</time>
      </trkpt>
      <trkpt lat="50.79649" lon="3.34107">
        <ele>10.2</ele>
        <time>2023-10-28T08:09:01Z</time>
      </trkpt>
      <trkpt lat="50.79641" lon="3.34101">
        <ele>10</ele>
        <time>2023-10-28T08:09:03Z</time>
      </trkpt>
      <trkpt lat="50.79624" lon="3.34087">
        <ele>9.8</ele>
        <time>2023-10-28T08:09:07Z</time>
      </trkpt>
      <trkpt lat="50.79617" lon="3.34079">
        <ele>9.8</ele>
        <time>2023-10-28T08:09:09Z</time>
      </trkpt>
      <trkpt lat="50.79606" lon="3.34064">
        <ele>9.8</ele>
        <time>2023-10-28T08:09:12Z</time>
      </trkpt>
      <trkpt lat="50.79587" lon="3.34042">
        <ele>9.8</ele>
        <time>2023-10-28T08:09:17Z</time>
      </trkpt>
      <trkpt lat="50.79558" lon="3.34022">
        <ele>9.6</ele>
        <time>2023-10-28T08:09:24Z</time>
      </trkpt>
      <trkpt lat="50.79549" lon="3.34018">
        <ele>9.4</ele>
        <time>2023-10-28T08:09:26Z</time>
      </trkpt>
      <trkpt lat="50.79544" lon="3.34016">
        <ele>9.2</ele>
        <time>2023-10-28T08:09:27Z</time>
      </trkpt>
      <trkpt lat="50.79539" lon="3.34015">
        <ele>9.2</ele>
        <time>2023-10-28T08:09:28Z</time>
      </trkpt>
      <trkpt lat="50.79535" lon="3.34014">
        <ele>9</ele>
        <time>2023-10-28T08:09:29Z</time>
      </trkpt>
      <trkpt lat="50.79531" lon="3.34012">
        <ele>9</ele>
        <time>2023-10-28T08:09:30Z</time>
      </trkpt>
      <trkpt lat="50.79527" lon="3.34011">
        <ele>8.8</ele>
        <time>2023-10-28T08:09:31Z</time>
      </trkpt>
      <trkpt lat="50.79522" lon="3.34009">
        <ele>8.8</ele>
        <time>2023-10-28T08:09:32Z</time>
      </trkpt>
      <trkpt lat="50.79518" lon="3.34007">
        <ele>8.6</ele>
        <time>2023-10-28T08:09:33Z</time>
      </trkpt>
      <trkpt lat="50.79514" lon="3.34004">
        <ele>8.6</ele>
        <time>2023-10-28T08:09:34Z</time>
      </trkpt>
      <trkpt lat="50.79507" lon="3.33999">
        <ele>8.6</ele>
        <time>2023-10-28T08:09:36Z</time>
      </trkpt>
      <trkpt lat="50.79504" lon="3.33996">
        <ele>8.6</ele>
        <time>2023-10-28T08:09:37Z</time>
      </trkpt>
      <trkpt lat="50.79501" lon="3.33991">
        <ele>8.6</ele>
        <time>2023-10-28T08:09:38Z</time>
      </trkpt>
      <trkpt lat="50.79501" lon="3.33986">
        <ele>8.6</ele>
        <time>2023-10-28T08:09:39Z</time>
      </trkpt>
      <trkpt lat="50.79502" lon="3.33982">
        <ele>8.6</ele>
        <time>2023-10-28T08:09:40Z</time>
      </trkpt>
      <trkpt lat="50.79502" lon="3.33982">
        <ele>8.6</ele>
        <time>2023-10-28T08:09:41Z</time>
      </trkpt>
      <trkpt lat="50.79507" lon="3.33974">
        <ele>8.6</ele>
        <time>2023-10-28T08:09:42Z</time>
      </trkpt>
      <trkpt lat="50.79515" lon="3.33963">
        <ele>8.8</ele>
        <time>2023-10-28T08:09:45Z</time>
      </trkpt>
      <trkpt lat="50.79518" lon="3.33959">
        <ele>9</ele>
        <time>2023-10-28T08:09:46Z</time>
      </trkpt>
      <trkpt lat="50.79521" lon="3.33955">
        <ele>9.6</ele>
        <time>2023-10-28T08:09:47Z</time>
      </trkpt>
      <trkpt lat="50.79526" lon="3.33946">
        <ele>10.4</ele>
        <time>2023-10-28T08:09:49Z</time>
      </trkpt>
      <trkpt lat="50.79541" lon="3.33924">
        <ele>11.6</ele>
        <time>2023-10-28T08:09:54Z</time>
      </trkpt>
      <trkpt lat="50.79544" lon="3.33919">
        <ele>11.6</ele>
        <time>2023-10-28T08:09:55Z</time>
      </trkpt>
      <trkpt lat="50.79549" lon="3.3391">
        <ele>11.8</ele>
        <time>2023-10-28T08:09:57Z</time>
      </trkpt>
      <trkpt lat="50.79552" lon="3.33905">
        <ele>12</ele>
        <time>2023-10-28T08:09:58Z</time>
      </trkpt>
      <trkpt lat="50.79556" lon="3.339">
        <ele>12</ele>
        <time>2023-10-28T08:09:59Z</time>
      </trkpt>
      <trkpt lat="50.7956" lon="3.33895">
        <ele>12</ele>
        <time>2023-10-28T08:10:00Z</time>
      </trkpt>
      <trkpt lat="50.79563" lon="3.33891">
        <ele>12</ele>
        <time>2023-10-28T08:10:01Z</time>
      </trkpt>
      <trkpt lat="50.79566" lon="3.33886">
        <ele>12</ele>
        <time>2023-10-28T08:10:02Z</time>
      </trkpt>
      <trkpt lat="50.79569" lon="3.33881">
        <ele>12</ele>
        <time>2023-10-28T08:10:03Z</time>
      </trkpt>
      <trkpt lat="50.79573" lon="3.33875">
        <ele>12</ele>
        <time>2023-10-28T08:10:04Z</time>
      </trkpt>
      <trkpt lat="50.79576" lon="3.3387">
        <ele>12</ele>
        <time>2023-10-28T08:10:05Z</time>
      </trkpt>
      <trkpt lat="50.79579" lon="3.33865">
        <ele>12</ele>
        <time>2023-10-28T08:10:06Z</time>
      </trkpt>
      <trkpt lat="50.79582" lon="3.33862">
        <ele>12</ele>
        <time>2023-10-28T08:10:07Z</time>
      </trkpt>
      <trkpt lat="50.79585" lon="3.33857">
        <ele>12</ele>
        <time>2023-10-28T08:10:08Z</time>
      </trkpt>
      <trkpt lat="50.79589" lon="3.33852">
        <ele>12</ele>
        <time>2023-10-28T08:10:09Z</time>
      </trkpt>
      <trkpt lat="50.79592" lon="3.33847">
        <ele>12</ele>
        <time>2023-10-28T08:10:10Z</time>
      </trkpt>
      <trkpt lat="50.79604" lon="3.33829">
        <ele>12</ele>
        <time>2023-10-28T08:10:14Z</time>
      </trkpt>
      <trkpt lat="50.79633" lon="3.33789">
        <ele>12.2</ele>
        <time>2023-10-28T08:10:23Z</time>
      </trkpt>
      <trkpt lat="50.79636" lon="3.33784">
        <ele>12.2</ele>
        <time>2023-10-28T08:10:24Z</time>
      </trkpt>
      <trkpt lat="50.79636" lon="3.33784">
        <ele>12.2</ele>
        <time>2023-10-28T08:10:25Z</time>
      </trkpt>
      <trkpt lat="50.79642" lon="3.33775">
        <ele>12.2</ele>
        <time>2023-10-28T08:10:26Z</time>
      </trkpt>
      <trkpt lat="50.79645" lon="3.3377">
        <ele>12.4</ele>
        <time>2023-10-28T08:10:27Z</time>
      </trkpt>
      <trkpt lat="50.79645" lon="3.33765">
        <ele>12.4</ele>
        <time>2023-10-28T08:10:28Z</time>
      </trkpt>
      <trkpt lat="50.79644" lon="3.33759">
        <ele>12.4</ele>
        <time>2023-10-28T08:10:29Z</time>
      </trkpt>
      <trkpt lat="50.79643" lon="3.33754">
        <ele>12.4</ele>
        <time>2023-10-28T08:10:30Z</time>
      </trkpt>
      <trkpt lat="50.79639" lon="3.3375">
        <ele>12.4</ele>
        <time>2023-10-28T08:10:31Z</time>
      </trkpt>
      <trkpt lat="50.79636" lon="3.33746">
        <ele>12.4</ele>
        <time>2023-10-28T08:10:32Z</time>
      </trkpt>
      <trkpt lat="50.79634" lon="3.33743">
        <ele>12.4</ele>
        <time>2023-10-28T08:10:33Z</time>
      </trkpt>
      <trkpt lat="50.79631" lon="3.3374">
        <ele>12.6</ele>
        <time>2023-10-28T08:10:34Z</time>
      </trkpt>
      <trkpt lat="50.79628" lon="3.33735">
        <ele>12.6</ele>
        <time>2023-10-28T08:10:35Z</time>
      </trkpt>
      <trkpt lat="50.79616" lon="3.33718">
        <ele>12.6</ele>
        <time>2023-10-28T08:10:39Z</time>
      </trkpt>
      <trkpt lat="50.79604" lon="3.33698">
        <ele>12.8</ele>
        <time>2023-10-28T08:10:43Z</time>
      </trkpt>
      <trkpt lat="50.79593" lon="3.33676">
        <ele>13.6</ele>
        <time>2023-10-28T08:10:47Z</time>
      </trkpt>
      <trkpt lat="50.79574" lon="3.33639">
        <ele>14.8</ele>
        <time>2023-10-28T08:10:54Z</time>
      </trkpt>
      <trkpt lat="50.79572" lon="3.33633">
        <ele>14.8</ele>
        <time>2023-10-28T08:10:55Z</time>
      </trkpt>
      <trkpt lat="50.79568" lon="3.33622">
        <ele>15</ele>
        <time>2023-10-28T08:10:57Z</time>
      </trkpt>
      <trkpt lat="50.79568" lon="3.33616">
        <ele>15.2</ele>
        <time>2023-10-28T08:10:58Z</time>
      </trkpt>
      <trkpt lat="50.7957" lon="3.33611">
        <ele>15.2</ele>
        <time>2023-10-28T08:10:59Z</time>
      </trkpt>
      <trkpt lat="50.79572" lon="3.33607">
        <ele>15.4</ele>
        <time>2023-10-28T08:11:00Z</time>
      </trkpt>
      <trkpt lat="50.79575" lon="3.33604">
        <ele>15.4</ele>
        <time>2023-10-28T08:11:01Z</time>
      </trkpt>
      <trkpt lat="50.79578" lon="3.336">
        <ele>15.4</ele>
        <time>2023-10-28T08:11:02Z</time>
      </trkpt>
      <trkpt lat="50.79581" lon="3.33595">
        <ele>15.6</ele>
        <time>2023-10-28T08:11:03Z</time>
      </trkpt>
      <trkpt lat="50.79582" lon="3.33587">
        <ele>15.6</ele>
        <time>2023-10-28T08:11:04Z</time>
      </trkpt>
      <trkpt lat="50.79582" lon="3.33582">
        <ele>15.6</ele>
        <time>2023-10-28T08:11:05Z</time>
      </trkpt>
      <trkpt lat="50.79581" lon="3.33576">
        <ele>15.8</ele>
        <time>2023-10-28T08:11:06Z</time>
      </trkpt>
      <trkpt lat="50.79579" lon="3.33571">
        <ele>16</ele>
        <time>2023-10-28T08:11:07Z</time>
      </trkpt>
      <trkpt lat="50.79576" lon="3.33566">
        <ele>16</ele>
        <time>2023-10-28T08:11:08Z</time>
      </trkpt>
      <trkpt lat="50.79574" lon="3.3356">
        <ele>16</ele>
        <time>2023-10-28T08:11:09Z</time>
      </trkpt>
      <trkpt lat="50.79571" lon="3.33555">
        <ele>15.8</ele>
        <time>2023-10-28T08:11:10Z</time>
      </trkpt>
      <trkpt lat="50.79569" lon="3.33549">
        <ele>16</ele>
        <time>2023-10-28T08:11:11Z</time>
      </trkpt>
      <trkpt lat="50.79566" lon="3.33543">
        <ele>16</ele>
        <time>2023-10-28T08:11:12Z</time>
      </trkpt>
      <trkpt lat="50.79564" lon="3.33538">
        <ele>16</ele>
        <time>2023-10-28T08:11:13Z</time>
      </trkpt>
      <trkpt lat="50.7955" lon="3.33509">
        <ele>16.2</ele>
        <time>2023-10-28T08:11:18Z</time>
      </trkpt>
      <trkpt lat="50.79526" lon="3.3346">
        <ele>16</ele>
        <time>2023-10-28T08:11:26Z</time>
      </trkpt>
      <trkpt lat="50.79519" lon="3.3345">
        <ele>16</ele>
        <time>2023-10-28T08:11:28Z</time>
      </trkpt>
      <trkpt lat="50.79512" lon="3.33442">
        <ele>16</ele>
        <time>2023-10-28T08:11:31Z</time>
      </trkpt>
      <trkpt lat="50.79504" lon="3.33437">
        <ele>16</ele>
        <time>2023-10-28T08:11:32Z</time>
      </trkpt>
      <trkpt lat="50.795" lon="3.33436">
        <ele>16</ele>
        <time>2023-10-28T08:11:33Z</time>
      </trkpt>
      <trkpt lat="50.79496" lon="3.33434">
        <ele>16</ele>
        <time>2023-10-28T08:11:34Z</time>
      </trkpt>
      <trkpt lat="50.79495" lon="3.33433">
        <ele>16</ele>
        <time>2023-10-28T08:11:35Z</time>
      </trkpt>
      <trkpt lat="50.79493" lon="3.33431">
        <ele>16</ele>
        <time>2023-10-28T08:11:36Z</time>
      </trkpt>
      <trkpt lat="50.79493" lon="3.33431">
        <ele>16</ele>
        <time>2023-10-28T08:11:37Z</time>
      </trkpt>
      <trkpt lat="50.79492" lon="3.33425">
        <ele>16</ele>
        <time>2023-10-28T08:11:38Z</time>
      </trkpt>
      <trkpt lat="50.79489" lon="3.33419">
        <ele>16.2</ele>
        <time>2023-10-28T08:11:40Z</time>
      </trkpt>
      <trkpt lat="50.79478" lon="3.33397">
        <ele>16.4</ele>
        <time>2023-10-28T08:11:46Z</time>
      </trkpt>
      <trkpt lat="50.79475" lon="3.33388">
        <ele>16.4</ele>
        <time>2023-10-28T08:11:48Z</time>
      </trkpt>
      <trkpt lat="50.79468" lon="3.33374">
        <ele>16.6</ele>
        <time>2023-10-28T08:11:51Z</time>
      </trkpt>
      <trkpt lat="50.79466" lon="3.3337">
        <ele>16.8</ele>
        <time>2023-10-28T08:11:52Z</time>
      </trkpt>
      <trkpt lat="50.79454" lon="3.33346">
        <ele>16.8</ele>
        <time>2023-10-28T08:11:57Z</time>
      </trkpt>
      <trkpt lat="50.79446" lon="3.33335">
        <ele>17</ele>
        <time>2023-10-28T08:12:00Z</time>
      </trkpt>
      <trkpt lat="50.79442" lon="3.33327">
        <ele>17</ele>
        <time>2023-10-28T08:12:02Z</time>
      </trkpt>
      <trkpt lat="50.7944" lon="3.33322">
        <ele>17</ele>
        <time>2023-10-28T08:12:03Z</time>
      </trkpt>
      <trkpt lat="50.79439" lon="3.33318">
        <ele>17</ele>
        <time>2023-10-28T08:12:04Z</time>
      </trkpt>
      <trkpt lat="50.79438" lon="3.33313">
        <ele>17</ele>
        <time>2023-10-28T08:12:05Z</time>
      </trkpt>
      <trkpt lat="50.79437" lon="3.33308">
        <ele>17.2</ele>
        <time>2023-10-28T08:12:06Z</time>
      </trkpt>
      <trkpt lat="50.79437" lon="3.33303">
        <ele>17.2</ele>
        <time>2023-10-28T08:12:07Z</time>
      </trkpt>
      <trkpt lat="50.79437" lon="3.33276">
        <ele>17.4</ele>
        <time>2023-10-28T08:12:12Z</time>
      </trkpt>
      <trkpt lat="50.79444" lon="3.33244">
        <ele>17.8</ele>
        <time>2023-10-28T08:12:18Z</time>
      </trkpt>
      <trkpt lat="50.79446" lon="3.33239">
        <ele>17.8</ele>
        <time>2023-10-28T08:12:19Z</time>
      </trkpt>
      <trkpt lat="50.79448" lon="3.33234">
        <ele>17.8</ele>
        <time>2023-10-28T08:12:20Z</time>
      </trkpt>
      <trkpt lat="50.79458" lon="3.33206">
        <ele>18</ele>
        <time>2023-10-28T08:12:26Z</time>
      </trkpt>
      <trkpt lat="50.7946" lon="3.33202">
        <ele>18</ele>
        <time>2023-10-28T08:12:27Z</time>
      </trkpt>
      <trkpt lat="50.79461" lon="3.33199">
        <ele>18.2</ele>
        <time>2023-10-28T08:12:28Z</time>
      </trkpt>
      <trkpt lat="50.79463" lon="3.33195">
        <ele>18.2</ele>
        <time>2023-10-28T08:12:29Z</time>
      </trkpt>
      <trkpt lat="50.79465" lon="3.33191">
        <ele>18.2</ele>
        <time>2023-10-28T08:12:30Z</time>
      </trkpt>
      <trkpt lat="50.79467" lon="3.33188">
        <ele>18.2</ele>
        <time>2023-10-28T08:12:31Z</time>
      </trkpt>
      <trkpt lat="50.79469" lon="3.33184">
        <ele>18.2</ele>
        <time>2023-10-28T08:12:32Z</time>
      </trkpt>
      <trkpt lat="50.79471" lon="3.3318">
        <ele>18.4</ele>
        <time>2023-10-28T08:12:33Z</time>
      </trkpt>
      <trkpt lat="50.79473" lon="3.33177">
        <ele>18.6</ele>
        <time>2023-10-28T08:12:34Z</time>
      </trkpt>
      <trkpt lat="50.79475" lon="3.33173">
        <ele>18.8</ele>
        <time>2023-10-28T08:12:35Z</time>
      </trkpt>
      <trkpt lat="50.79477" lon="3.33169">
        <ele>18.8</ele>
        <time>2023-10-28T08:12:36Z</time>
      </trkpt>
      <trkpt lat="50.79479" lon="3.33166">
        <ele>18.8</ele>
        <time>2023-10-28T08:12:37Z</time>
      </trkpt>
      <trkpt lat="50.79489" lon="3.33148">
        <ele>19</ele>
        <time>2023-10-28T08:12:42Z</time>
      </trkpt>
      <trkpt lat="50.79492" lon="3.33142">
        <ele>19.2</ele>
        <time>2023-10-28T08:12:44Z</time>
      </trkpt>
      <trkpt lat="50.79494" lon="3.33138">
        <ele>19</ele>
        <time>2023-10-28T08:12:45Z</time>
      </trkpt>
      <trkpt lat="50.79497" lon="3.33135">
        <ele>19.2</ele>
        <time>2023-10-28T08:12:46Z</time>
      </trkpt>
      <trkpt lat="50.79508" lon="3.33117">
        <ele>19.6</ele>
        <time>2023-10-28T08:12:51Z</time>
      </trkpt>
      <trkpt lat="50.7952" lon="3.33096">
        <ele>20.4</ele>
        <time>2023-10-28T08:12:57Z</time>
      </trkpt>
      <trkpt lat="50.79526" lon="3.33084">
        <ele>21</ele>
        <time>2023-10-28T08:13:00Z</time>
      </trkpt>
      <trkpt lat="50.79534" lon="3.33069">
        <ele>21.6</ele>
        <time>2023-10-28T08:13:04Z</time>
      </trkpt>
      <trkpt lat="50.79536" lon="3.33065">
        <ele>21.6</ele>
        <time>2023-10-28T08:13:05Z</time>
      </trkpt>
      <trkpt lat="50.79538" lon="3.33062">
        <ele>21.8</ele>
        <time>2023-10-28T08:13:06Z</time>
      </trkpt>
      <trkpt lat="50.7954" lon="3.33058">
        <ele>22</ele>
        <time>2023-10-28T08:13:07Z</time>
      </trkpt>
      <trkpt lat="50.7954" lon="3.33058">
        <ele>22</ele>
        <time>2023-10-28T08:13:08Z</time>
      </trkpt>
      <trkpt lat="50.79543" lon="3.33052">
        <ele>22.2</ele>
        <time>2023-10-28T08:13:09Z</time>
      </trkpt>
      <trkpt lat="50.79543" lon="3.33052">
        <ele>22.2</ele>
        <time>2023-10-28T08:13:10Z</time>
      </trkpt>
      <trkpt lat="50.79547" lon="3.33046">
        <ele>22.4</ele>
        <time>2023-10-28T08:13:11Z</time>
      </trkpt>
      <trkpt lat="50.79547" lon="3.33046">
        <ele>22.6</ele>
        <time>2023-10-28T08:13:12Z</time>
      </trkpt>
      <trkpt lat="50.79549" lon="3.33043">
        <ele>22.8</ele>
        <time>2023-10-28T08:13:13Z</time>
      </trkpt>
      <trkpt lat="50.79552" lon="3.3304">
        <ele>23</ele>
        <time>2023-10-28T08:13:14Z</time>
      </trkpt>
      <trkpt lat="50.79556" lon="3.33034">
        <ele>23.2</ele>
        <time>2023-10-28T08:13:15Z</time>
      </trkpt>
      <trkpt lat="50.79558" lon="3.33031">
        <ele>23.4</ele>
        <time>2023-10-28T08:13:16Z</time>
      </trkpt>
      <trkpt lat="50.79558" lon="3.33031">
        <ele>23.6</ele>
        <time>2023-10-28T08:13:17Z</time>
      </trkpt>
      <trkpt lat="50.79561" lon="3.33028">
        <ele>23.6</ele>
        <time>2023-10-28T08:13:18Z</time>
      </trkpt>
      <trkpt lat="50.79563" lon="3.33025">
        <ele>23.6</ele>
        <time>2023-10-28T08:13:19Z</time>
      </trkpt>
      <trkpt lat="50.79567" lon="3.3302">
        <ele>23.6</ele>
        <time>2023-10-28T08:13:20Z</time>
      </trkpt>
      <trkpt lat="50.79569" lon="3.33018">
        <ele>23.8</ele>
        <time>2023-10-28T08:13:21Z</time>
      </trkpt>
      <trkpt lat="50.79569" lon="3.33018">
        <ele>24</ele>
        <time>2023-10-28T08:13:22Z</time>
      </trkpt>
      <trkpt lat="50.79572" lon="3.33015">
        <ele>24</ele>
        <time>2023-10-28T08:13:23Z</time>
      </trkpt>
      <trkpt lat="50.79574" lon="3.33013">
        <ele>24</ele>
        <time>2023-10-28T08:13:24Z</time>
      </trkpt>
      <trkpt lat="50.79578" lon="3.33007">
        <ele>24</ele>
        <time>2023-10-28T08:13:25Z</time>
      </trkpt>
      <trkpt lat="50.79578" lon="3.33007">
        <ele>24.2</ele>
        <time>2023-10-28T08:13:26Z</time>
      </trkpt>
      <trkpt lat="50.79583" lon="3.33002">
        <ele>24.2</ele>
        <time>2023-10-28T08:13:27Z</time>
      </trkpt>
      <trkpt lat="50.79583" lon="3.33002">
        <ele>24.2</ele>
        <time>2023-10-28T08:13:28Z</time>
      </trkpt>
      <trkpt lat="50.79585" lon="3.33">
        <ele>24.4</ele>
        <time>2023-10-28T08:13:29Z</time>
      </trkpt>
      <trkpt lat="50.79588" lon="3.32998">
        <ele>24.6</ele>
        <time>2023-10-28T08:13:30Z</time>
      </trkpt>
      <trkpt lat="50.79593" lon="3.32993">
        <ele>24.6</ele>
        <time>2023-10-28T08:13:31Z</time>
      </trkpt>
      <trkpt lat="50.79595" lon="3.3299">
        <ele>25</ele>
        <time>2023-10-28T08:13:32Z</time>
      </trkpt>
      <trkpt lat="50.79598" lon="3.32987">
        <ele>25</ele>
        <time>2023-10-28T08:13:33Z</time>
      </trkpt>
      <trkpt lat="50.79598" lon="3.32987">
        <ele>25.2</ele>
        <time>2023-10-28T08:13:34Z</time>
      </trkpt>
      <trkpt lat="50.79602" lon="3.32983">
        <ele>25.2</ele>
        <time>2023-10-28T08:13:35Z</time>
      </trkpt>
      <trkpt lat="50.79606" lon="3.32979">
        <ele>25.4</ele>
        <time>2023-10-28T08:13:36Z</time>
      </trkpt>
      <trkpt lat="50.79609" lon="3.32977">
        <ele>25.6</ele>
        <time>2023-10-28T08:13:37Z</time>
      </trkpt>
      <trkpt lat="50.79611" lon="3.32975">
        <ele>25.6</ele>
        <time>2023-10-28T08:13:38Z</time>
      </trkpt>
      <trkpt lat="50.79611" lon="3.32975">
        <ele>25.8</ele>
        <time>2023-10-28T08:13:39Z</time>
      </trkpt>
      <trkpt lat="50.79614" lon="3.32973">
        <ele>26</ele>
        <time>2023-10-28T08:13:40Z</time>
      </trkpt>
      <trkpt lat="50.79618" lon="3.32969">
        <ele>26</ele>
        <time>2023-10-28T08:13:41Z</time>
      </trkpt>
      <trkpt lat="50.79618" lon="3.32969">
        <ele>26.2</ele>
        <time>2023-10-28T08:13:42Z</time>
      </trkpt>
      <trkpt lat="50.79623" lon="3.32964">
        <ele>26.2</ele>
        <time>2023-10-28T08:13:43Z</time>
      </trkpt>
      <trkpt lat="50.79623" lon="3.32964">
        <ele>26.4</ele>
        <time>2023-10-28T08:13:44Z</time>
      </trkpt>
      <trkpt lat="50.79625" lon="3.32961">
        <ele>26.4</ele>
        <time>2023-10-28T08:13:45Z</time>
      </trkpt>
      <trkpt lat="50.79628" lon="3.32958">
        <ele>26.8</ele>
        <time>2023-10-28T08:13:46Z</time>
      </trkpt>
      <trkpt lat="50.79633" lon="3.32952">
        <ele>27</ele>
        <time>2023-10-28T08:13:47Z</time>
      </trkpt>
      <trkpt lat="50.79636" lon="3.32948">
        <ele>27.2</ele>
        <time>2023-10-28T08:13:48Z</time>
      </trkpt>
      <trkpt lat="50.79636" lon="3.32948">
        <ele>27.2</ele>
        <time>2023-10-28T08:13:49Z</time>
      </trkpt>
      <trkpt lat="50.79639" lon="3.32945">
        <ele>27.2</ele>
        <time>2023-10-28T08:13:50Z</time>
      </trkpt>
      <trkpt lat="50.79642" lon="3.32942">
        <ele>27.4</ele>
        <time>2023-10-28T08:13:51Z</time>
      </trkpt>
      <trkpt lat="50.79649" lon="3.32935">
        <ele>27.8</ele>
        <time>2023-10-28T08:13:52Z</time>
      </trkpt>
      <trkpt lat="50.79651" lon="3.32931">
        <ele>27.8</ele>
        <time>2023-10-28T08:13:53Z</time>
      </trkpt>
      <trkpt lat="50.79654" lon="3.32927">
        <ele>28</ele>
        <time>2023-10-28T08:13:54Z</time>
      </trkpt>
      <trkpt lat="50.79654" lon="3.32927">
        <ele>28.2</ele>
        <time>2023-10-28T08:13:55Z</time>
      </trkpt>
      <trkpt lat="50.79657" lon="3.32924">
        <ele>28.2</ele>
        <time>2023-10-28T08:13:56Z</time>
      </trkpt>
      <trkpt lat="50.79663" lon="3.32916">
        <ele>28.2</ele>
        <time>2023-10-28T08:13:57Z</time>
      </trkpt>
      <trkpt lat="50.79663" lon="3.32916">
        <ele>28.4</ele>
        <time>2023-10-28T08:13:58Z</time>
      </trkpt>
      <trkpt lat="50.79669" lon="3.3291">
        <ele>28.4</ele>
        <time>2023-10-28T08:13:59Z</time>
      </trkpt>
      <trkpt lat="50.79669" lon="3.3291">
        <ele>28.4</ele>
        <time>2023-10-28T08:14:00Z</time>
      </trkpt>
      <trkpt lat="50.79672" lon="3.32906">
        <ele>28.4</ele>
        <time>2023-10-28T08:14:01Z</time>
      </trkpt>
      <trkpt lat="50.79679" lon="3.32898">
        <ele>28.6</ele>
        <time>2023-10-28T08:14:02Z</time>
      </trkpt>
      <trkpt lat="50.79682" lon="3.32894">
        <ele>28.6</ele>
        <time>2023-10-28T08:14:03Z</time>
      </trkpt>
      <trkpt lat="50.79685" lon="3.3289">
        <ele>28.8</ele>
        <time>2023-10-28T08:14:04Z</time>
      </trkpt>
      <trkpt lat="50.79685" lon="3.3289">
        <ele>28.8</ele>
        <time>2023-10-28T08:14:05Z</time>
      </trkpt>
      <trkpt lat="50.79688" lon="3.32886">
        <ele>28.8</ele>
        <time>2023-10-28T08:14:06Z</time>
      </trkpt>
      <trkpt lat="50.79691" lon="3.32883">
        <ele>28.8</ele>
        <time>2023-10-28T08:14:07Z</time>
      </trkpt>
      <trkpt lat="50.79696" lon="3.32876">
        <ele>28.8</ele>
        <time>2023-10-28T08:14:08Z</time>
      </trkpt>
      <trkpt lat="50.79699" lon="3.32873">
        <ele>29</ele>
        <time>2023-10-28T08:14:09Z</time>
      </trkpt>
      <trkpt lat="50.79701" lon="3.32872">
        <ele>29.2</ele>
        <time>2023-10-28T08:14:10Z</time>
      </trkpt>
      <trkpt lat="50.79705" lon="3.32871">
        <ele>29.2</ele>
        <time>2023-10-28T08:14:11Z</time>
      </trkpt>
      <trkpt lat="50.79708" lon="3.32874">
        <ele>29.2</ele>
        <time>2023-10-28T08:14:12Z</time>
      </trkpt>
      <trkpt lat="50.79711" lon="3.32879">
        <ele>29.4</ele>
        <time>2023-10-28T08:14:13Z</time>
      </trkpt>
      <trkpt lat="50.79713" lon="3.32885">
        <ele>29.4</ele>
        <time>2023-10-28T08:14:14Z</time>
      </trkpt>
      <trkpt lat="50.79716" lon="3.3289">
        <ele>29.4</ele>
        <time>2023-10-28T08:14:15Z</time>
      </trkpt>
      <trkpt lat="50.7972" lon="3.32896">
        <ele>29.4</ele>
        <time>2023-10-28T08:14:16Z</time>
      </trkpt>
      <trkpt lat="50.79732" lon="3.32914">
        <ele>29.4</ele>
        <time>2023-10-28T08:14:19Z</time>
      </trkpt>
      <trkpt lat="50.79759" lon="3.32953">
        <ele>29.4</ele>
        <time>2023-10-28T08:14:25Z</time>
      </trkpt>
      <trkpt lat="50.79759" lon="3.32953">
        <ele>29.4</ele>
        <time>2023-10-28T08:14:26Z</time>
      </trkpt>
      <trkpt lat="50.79765" lon="3.32957">
        <ele>29.4</ele>
        <time>2023-10-28T08:14:27Z</time>
      </trkpt>
      <trkpt lat="50.79771" lon="3.32959">
        <ele>29.4</ele>
        <time>2023-10-28T08:14:28Z</time>
      </trkpt>
      <trkpt lat="50.79783" lon="3.32961">
        <ele>29.2</ele>
        <time>2023-10-28T08:14:29Z</time>
      </trkpt>
      <trkpt lat="50.79783" lon="3.32961">
        <ele>29.2</ele>
        <time>2023-10-28T08:14:30Z</time>
      </trkpt>
      <trkpt lat="50.79795" lon="3.32962">
        <ele>29.2</ele>
        <time>2023-10-28T08:14:31Z</time>
      </trkpt>
      <trkpt lat="50.79795" lon="3.32962">
        <ele>29</ele>
        <time>2023-10-28T08:14:32Z</time>
      </trkpt>
      <trkpt lat="50.79844" lon="3.32967">
        <ele>29</ele>
        <time>2023-10-28T08:14:38Z</time>
      </trkpt>
      <trkpt lat="50.79872" lon="3.32973">
        <ele>29</ele>
        <time>2023-10-28T08:14:42Z</time>
      </trkpt>
      <trkpt lat="50.79899" lon="3.32978">
        <ele>28.4</ele>
        <time>2023-10-28T08:14:46Z</time>
      </trkpt>
      <trkpt lat="50.79905" lon="3.3298">
        <ele>28.4</ele>
        <time>2023-10-28T08:14:47Z</time>
      </trkpt>
      <trkpt lat="50.79912" lon="3.32982">
        <ele>28.4</ele>
        <time>2023-10-28T08:14:48Z</time>
      </trkpt>
      <trkpt lat="50.79918" lon="3.32984">
        <ele>28.4</ele>
        <time>2023-10-28T08:14:49Z</time>
      </trkpt>
      <trkpt lat="50.79925" lon="3.32984">
        <ele>28.4</ele>
        <time>2023-10-28T08:14:50Z</time>
      </trkpt>
      <trkpt lat="50.79931" lon="3.32981">
        <ele>28.2</ele>
        <time>2023-10-28T08:14:51Z</time>
      </trkpt>
      <trkpt lat="50.79936" lon="3.32977">
        <ele>28</ele>
        <time>2023-10-28T08:14:52Z</time>
      </trkpt>
      <trkpt lat="50.79941" lon="3.32971">
        <ele>28</ele>
        <time>2023-10-28T08:14:53Z</time>
      </trkpt>
      <trkpt lat="50.79946" lon="3.32964">
        <ele>27.8</ele>
        <time>2023-10-28T08:14:54Z</time>
      </trkpt>
      <trkpt lat="50.79952" lon="3.32956">
        <ele>27.6</ele>
        <time>2023-10-28T08:14:55Z</time>
      </trkpt>
      <trkpt lat="50.79961" lon="3.32945">
        <ele>27</ele>
        <time>2023-10-28T08:14:57Z</time>
      </trkpt>
      <trkpt lat="50.79972" lon="3.32941">
        <ele>26.8</ele>
        <time>2023-10-28T08:14:59Z</time>
      </trkpt>
      <trkpt lat="50.79977" lon="3.32944">
        <ele>26.4</ele>
        <time>2023-10-28T08:15:00Z</time>
      </trkpt>
      <trkpt lat="50.79982" lon="3.32949">
        <ele>26.4</ele>
        <time>2023-10-28T08:15:01Z</time>
      </trkpt>
      <trkpt lat="50.79988" lon="3.32956">
        <ele>26.4</ele>
        <time>2023-10-28T08:15:02Z</time>
      </trkpt>
      <trkpt lat="50.79992" lon="3.32962">
        <ele>26.4</ele>
        <time>2023-10-28T08:15:03Z</time>
      </trkpt>
      <trkpt lat="50.79997" lon="3.32968">
        <ele>25.8</ele>
        <time>2023-10-28T08:15:04Z</time>
      </trkpt>
      <trkpt lat="50.80001" lon="3.32973">
        <ele>25.6</ele>
        <time>2023-10-28T08:15:05Z</time>
      </trkpt>
      <trkpt lat="50.80027" lon="3.33003">
        <ele>25.2</ele>
        <time>2023-10-28T08:15:10Z</time>
      </trkpt>
      <trkpt lat="50.80064" lon="3.33049">
        <ele>25.2</ele>
        <time>2023-10-28T08:15:17Z</time>
      </trkpt>
      <trkpt lat="50.80074" lon="3.33064">
        <ele>25.2</ele>
        <time>2023-10-28T08:15:19Z</time>
      </trkpt>
      <trkpt lat="50.80078" lon="3.33069">
        <ele>25.2</ele>
        <time>2023-10-28T08:15:20Z</time>
      </trkpt>
      <trkpt lat="50.80081" lon="3.33073">
        <ele>25.2</ele>
        <time>2023-10-28T08:15:21Z</time>
      </trkpt>
      <trkpt lat="50.80085" lon="3.33074">
        <ele>25.4</ele>
        <time>2023-10-28T08:15:22Z</time>
      </trkpt>
      <trkpt lat="50.80089" lon="3.33073">
        <ele>25.4</ele>
        <time>2023-10-28T08:15:23Z</time>
      </trkpt>
      <trkpt lat="50.80093" lon="3.3307">
        <ele>25.4</ele>
        <time>2023-10-28T08:15:24Z</time>
      </trkpt>
      <trkpt lat="50.80103" lon="3.3306">
        <ele>25.4</ele>
        <time>2023-10-28T08:15:26Z</time>
      </trkpt>
      <trkpt lat="50.80128" lon="3.33034">
        <ele>25.6</ele>
        <time>2023-10-28T08:15:30Z</time>
      </trkpt>
      <trkpt lat="50.80161" lon="3.33007">
        <ele>25.4</ele>
        <time>2023-10-28T08:15:34Z</time>
      </trkpt>
      <trkpt lat="50.80193" lon="3.32984">
        <ele>24.4</ele>
        <time>2023-10-28T08:15:37Z</time>
      </trkpt>
      <trkpt lat="50.80204" lon="3.32976">
        <ele>23.8</ele>
        <time>2023-10-28T08:15:38Z</time>
      </trkpt>
      <trkpt lat="50.80212" lon="3.32968">
        <ele>23</ele>
        <time>2023-10-28T08:15:39Z</time>
      </trkpt>
      <trkpt lat="50.80231" lon="3.32941">
        <ele>21.4</ele>
        <time>2023-10-28T08:15:41Z</time>
      </trkpt>
      <trkpt lat="50.80239" lon="3.32926">
        <ele>20.2</ele>
        <time>2023-10-28T08:15:42Z</time>
      </trkpt>
      <trkpt lat="50.80246" lon="3.32911">
        <ele>19.2</ele>
        <time>2023-10-28T08:15:43Z</time>
      </trkpt>
      <trkpt lat="50.80252" lon="3.32895">
        <ele>18</ele>
        <time>2023-10-28T08:15:44Z</time>
      </trkpt>
      <trkpt lat="50.80259" lon="3.32878">
        <ele>17</ele>
        <time>2023-10-28T08:15:45Z</time>
      </trkpt>
      <trkpt lat="50.80273" lon="3.32845">
        <ele>15.6</ele>
        <time>2023-10-28T08:15:47Z</time>
      </trkpt>
      <trkpt lat="50.8028" lon="3.32828">
        <ele>14.6</ele>
        <time>2023-10-28T08:15:48Z</time>
      </trkpt>
      <trkpt lat="50.80286" lon="3.32812">
        <ele>13.4</ele>
        <time>2023-10-28T08:15:49Z</time>
      </trkpt>
      <trkpt lat="50.80292" lon="3.32796">
        <ele>12.4</ele>
        <time>2023-10-28T08:15:50Z</time>
      </trkpt>
      <trkpt lat="50.80303" lon="3.32765">
        <ele>11.8</ele>
        <time>2023-10-28T08:15:52Z</time>
      </trkpt>
      <trkpt lat="50.80308" lon="3.3275">
        <ele>11.2</ele>
        <time>2023-10-28T08:15:53Z</time>
      </trkpt>
      <trkpt lat="50.80312" lon="3.32737">
        <ele>10.2</ele>
        <time>2023-10-28T08:15:54Z</time>
      </trkpt>
      <trkpt lat="50.80315" lon="3.32727">
        <ele>9.4</ele>
        <time>2023-10-28T08:15:55Z</time>
      </trkpt>
      <trkpt lat="50.80318" lon="3.3272">
        <ele>8.8</ele>
        <time>2023-10-28T08:15:56Z</time>
      </trkpt>
      <trkpt lat="50.80321" lon="3.32717">
        <ele>8.6</ele>
        <time>2023-10-28T08:15:57Z</time>
      </trkpt>
      <trkpt lat="50.80323" lon="3.32718">
        <ele>8.4</ele>
        <time>2023-10-28T08:15:58Z</time>
      </trkpt>
      <trkpt lat="50.80323" lon="3.32721">
        <ele>8.2</ele>
        <time>2023-10-28T08:15:59Z</time>
      </trkpt>
      <trkpt lat="50.80325" lon="3.32726">
        <ele>8.2</ele>
        <time>2023-10-28T08:16:00Z</time>
      </trkpt>
      <trkpt lat="50.80328" lon="3.32737">
        <ele>8.2</ele>
        <time>2023-10-28T08:16:02Z</time>
      </trkpt>
      <trkpt lat="50.80342" lon="3.32768">
        <ele>8.4</ele>
        <time>2023-10-28T08:16:07Z</time>
      </trkpt>
      <trkpt lat="50.8035" lon="3.32786">
        <ele>8.8</ele>
        <time>2023-10-28T08:16:10Z</time>
      </trkpt>
      <trkpt lat="50.80368" lon="3.32825">
        <ele>9</ele>
        <time>2023-10-28T08:16:16Z</time>
      </trkpt>
      <trkpt lat="50.80371" lon="3.32831">
        <ele>9</ele>
        <time>2023-10-28T08:16:17Z</time>
      </trkpt>
      <trkpt lat="50.80372" lon="3.32835">
        <ele>9.2</ele>
        <time>2023-10-28T08:16:18Z</time>
      </trkpt>
      <trkpt lat="50.80375" lon="3.3284">
        <ele>9.2</ele>
        <time>2023-10-28T08:16:19Z</time>
      </trkpt>
      <trkpt lat="50.80379" lon="3.32841">
        <ele>9.6</ele>
        <time>2023-10-28T08:16:20Z</time>
      </trkpt>
      <trkpt lat="50.80382" lon="3.32839">
        <ele>9.6</ele>
        <time>2023-10-28T08:16:21Z</time>
      </trkpt>
      <trkpt lat="50.80393" lon="3.32827">
        <ele>10</ele>
        <time>2023-10-28T08:16:24Z</time>
      </trkpt>
      <trkpt lat="50.80397" lon="3.32823">
        <ele>10</ele>
        <time>2023-10-28T08:16:25Z</time>
      </trkpt>
      <trkpt lat="50.80403" lon="3.3282">
        <ele>10.2</ele>
        <time>2023-10-28T08:16:26Z</time>
      </trkpt>
      <trkpt lat="50.80408" lon="3.32821">
        <ele>10.4</ele>
        <time>2023-10-28T08:16:27Z</time>
      </trkpt>
      <trkpt lat="50.80412" lon="3.32825">
        <ele>10.4</ele>
        <time>2023-10-28T08:16:28Z</time>
      </trkpt>
      <trkpt lat="50.80415" lon="3.3283">
        <ele>10.4</ele>
        <time>2023-10-28T08:16:29Z</time>
      </trkpt>
      <trkpt lat="50.80421" lon="3.32839">
        <ele>10.6</ele>
        <time>2023-10-28T08:16:31Z</time>
      </trkpt>
      <trkpt lat="50.80425" lon="3.32846">
        <ele>10.6</ele>
        <time>2023-10-28T08:16:32Z</time>
      </trkpt>
      <trkpt lat="50.80448" lon="3.32886">
        <ele>10.6</ele>
        <time>2023-10-28T08:16:39Z</time>
      </trkpt>
      <trkpt lat="50.80473" lon="3.32929">
        <ele>10.8</ele>
        <time>2023-10-28T08:16:47Z</time>
      </trkpt>
      <trkpt lat="50.80476" lon="3.32935">
        <ele>10.8</ele>
        <time>2023-10-28T08:16:48Z</time>
      </trkpt>
      <trkpt lat="50.80479" lon="3.32939">
        <ele>11</ele>
        <time>2023-10-28T08:16:49Z</time>
      </trkpt>
      <trkpt lat="50.80482" lon="3.3294">
        <ele>11.2</ele>
        <time>2023-10-28T08:16:50Z</time>
      </trkpt>
      <trkpt lat="50.80485" lon="3.32939">
        <ele>11.2</ele>
        <time>2023-10-28T08:16:51Z</time>
      </trkpt>
      <trkpt lat="50.80495" lon="3.32921">
        <ele>11.6</ele>
        <time>2023-10-28T08:16:54Z</time>
      </trkpt>
      <trkpt lat="50.80498" lon="3.32916">
        <ele>11.8</ele>
        <time>2023-10-28T08:16:55Z</time>
      </trkpt>
      <trkpt lat="50.80503" lon="3.3291">
        <ele>12</ele>
        <time>2023-10-28T08:16:56Z</time>
      </trkpt>
      <trkpt lat="50.80519" lon="3.32897">
        <ele>12.2</ele>
        <time>2023-10-28T08:16:59Z</time>
      </trkpt>
      <trkpt lat="50.8055" lon="3.3287">
        <ele>12.2</ele>
        <time>2023-10-28T08:17:04Z</time>
      </trkpt>
      <trkpt lat="50.80566" lon="3.32849">
        <ele>11.8</ele>
        <time>2023-10-28T08:17:07Z</time>
      </trkpt>
      <trkpt lat="50.80584" lon="3.32823">
        <ele>11.4</ele>
        <time>2023-10-28T08:17:10Z</time>
      </trkpt>
      <trkpt lat="50.80601" lon="3.32802">
        <ele>10.4</ele>
        <time>2023-10-28T08:17:13Z</time>
      </trkpt>
      <trkpt lat="50.80629" lon="3.32771">
        <ele>9.2</ele>
        <time>2023-10-28T08:17:17Z</time>
      </trkpt>
      <trkpt lat="50.80635" lon="3.32763">
        <ele>8.8</ele>
        <time>2023-10-28T08:17:18Z</time>
      </trkpt>
      <trkpt lat="50.80659" lon="3.32724">
        <ele>8.6</ele>
        <time>2023-10-28T08:17:22Z</time>
      </trkpt>
      <trkpt lat="50.80671" lon="3.32706">
        <ele>8</ele>
        <time>2023-10-28T08:17:24Z</time>
      </trkpt>
      <trkpt lat="50.80697" lon="3.32677">
        <ele>7</ele>
        <time>2023-10-28T08:17:28Z</time>
      </trkpt>
      <trkpt lat="50.80705" lon="3.32668">
        <ele>6.8</ele>
        <time>2023-10-28T08:17:29Z</time>
      </trkpt>
      <trkpt lat="50.80711" lon="3.32661">
        <ele>6.4</ele>
        <time>2023-10-28T08:17:30Z</time>
      </trkpt>
      <trkpt lat="50.80716" lon="3.32654">
        <ele>5.8</ele>
        <time>2023-10-28T08:17:31Z</time>
      </trkpt>
      <trkpt lat="50.80719" lon="3.32645">
        <ele>5.4</ele>
        <time>2023-10-28T08:17:32Z</time>
      </trkpt>
      <trkpt lat="50.80719" lon="3.32636">
        <ele>5.2</ele>
        <time>2023-10-28T08:17:33Z</time>
      </trkpt>
      <trkpt lat="50.80718" lon="3.32627">
        <ele>5</ele>
        <time>2023-10-28T08:17:34Z</time>
      </trkpt>
      <trkpt lat="50.80716" lon="3.32618">
        <ele>5</ele>
        <time>2023-10-28T08:17:35Z</time>
      </trkpt>
      <trkpt lat="50.80713" lon="3.32609">
        <ele>4.8</ele>
        <time>2023-10-28T08:17:36Z</time>
      </trkpt>
      <trkpt lat="50.8071" lon="3.326">
        <ele>4.8</ele>
        <time>2023-10-28T08:17:37Z</time>
      </trkpt>
      <trkpt lat="50.80704" lon="3.32571">
        <ele>4.8</ele>
        <time>2023-10-28T08:17:40Z</time>
      </trkpt>
      <trkpt lat="50.80703" lon="3.32561">
        <ele>4.6</ele>
        <time>2023-10-28T08:17:41Z</time>
      </trkpt>
      <trkpt lat="50.807" lon="3.32541">
        <ele>4.4</ele>
        <time>2023-10-28T08:17:43Z</time>
      </trkpt>
      <trkpt lat="50.80695" lon="3.32513">
        <ele>3.8</ele>
        <time>2023-10-28T08:17:46Z</time>
      </trkpt>
      <trkpt lat="50.80694" lon="3.32505">
        <ele>3.8</ele>
        <time>2023-10-28T08:17:47Z</time>
      </trkpt>
      <trkpt lat="50.80693" lon="3.32497">
        <ele>3.8</ele>
        <time>2023-10-28T08:17:48Z</time>
      </trkpt>
      <trkpt lat="50.80692" lon="3.32489">
        <ele>3.8</ele>
        <time>2023-10-28T08:17:49Z</time>
      </trkpt>
      <trkpt lat="50.80692" lon="3.32482">
        <ele>3.8</ele>
        <time>2023-10-28T08:17:50Z</time>
      </trkpt>
      <trkpt lat="50.80691" lon="3.32474">
        <ele>3.8</ele>
        <time>2023-10-28T08:17:51Z</time>
      </trkpt>
      <trkpt lat="50.80688" lon="3.3246">
        <ele>3.8</ele>
        <time>2023-10-28T08:17:53Z</time>
      </trkpt>
      <trkpt lat="50.80681" lon="3.3242">
        <ele>4.6</ele>
        <time>2023-10-28T08:17:58Z</time>
      </trkpt>
      <trkpt lat="50.80682" lon="3.32412">
        <ele>4.8</ele>
        <time>2023-10-28T08:17:59Z</time>
      </trkpt>
      <trkpt lat="50.80684" lon="3.32405">
        <ele>5.2</ele>
        <time>2023-10-28T08:18:00Z</time>
      </trkpt>
      <trkpt lat="50.80692" lon="3.32391">
        <ele>5.4</ele>
        <time>2023-10-28T08:18:02Z</time>
      </trkpt>
      <trkpt lat="50.80695" lon="3.32385">
        <ele>5.4</ele>
        <time>2023-10-28T08:18:03Z</time>
      </trkpt>
      <trkpt lat="50.80732" lon="3.32328">
        <ele>5.6</ele>
        <time>2023-10-28T08:18:12Z</time>
      </trkpt>
      <trkpt lat="50.80747" lon="3.32303">
        <ele>5.6</ele>
        <time>2023-10-28T08:18:16Z</time>
      </trkpt>
      <trkpt lat="50.80751" lon="3.32297">
        <ele>5.6</ele>
        <time>2023-10-28T08:18:17Z</time>
      </trkpt>
      <trkpt lat="50.80767" lon="3.32271">
        <ele>5.6</ele>
        <time>2023-10-28T08:18:21Z</time>
      </trkpt>
      <trkpt lat="50.80771" lon="3.32265">
        <ele>5.6</ele>
        <time>2023-10-28T08:18:22Z</time>
      </trkpt>
      <trkpt lat="50.80775" lon="3.32259">
        <ele>5.6</ele>
        <time>2023-10-28T08:18:23Z</time>
      </trkpt>
      <trkpt lat="50.80779" lon="3.32252">
        <ele>5.6</ele>
        <time>2023-10-28T08:18:24Z</time>
      </trkpt>
      <trkpt lat="50.80782" lon="3.32246">
        <ele>5.6</ele>
        <time>2023-10-28T08:18:25Z</time>
      </trkpt>
      <trkpt lat="50.80784" lon="3.32238">
        <ele>5.6</ele>
        <time>2023-10-28T08:18:26Z</time>
      </trkpt>
      <trkpt lat="50.80785" lon="3.3223">
        <ele>5.6</ele>
        <time>2023-10-28T08:18:27Z</time>
      </trkpt>
      <trkpt lat="50.80785" lon="3.32221">
        <ele>5.6</ele>
        <time>2023-10-28T08:18:28Z</time>
      </trkpt>
      <trkpt lat="50.80785" lon="3.32213">
        <ele>5.6</ele>
        <time>2023-10-28T08:18:29Z</time>
      </trkpt>
      <trkpt lat="50.80783" lon="3.32204">
        <ele>5.6</ele>
        <time>2023-10-28T08:18:30Z</time>
      </trkpt>
      <trkpt lat="50.80782" lon="3.32196">
        <ele>5.6</ele>
        <time>2023-10-28T08:18:31Z</time>
      </trkpt>
      <trkpt lat="50.80784" lon="3.32179">
        <ele>5.6</ele>
        <time>2023-10-28T08:18:33Z</time>
      </trkpt>
      <trkpt lat="50.80785" lon="3.32173">
        <ele>5.6</ele>
        <time>2023-10-28T08:18:34Z</time>
      </trkpt>
      <trkpt lat="50.80788" lon="3.32164">
        <ele>5.6</ele>
        <time>2023-10-28T08:18:35Z</time>
      </trkpt>
      <trkpt lat="50.80791" lon="3.32157">
        <ele>5.8</ele>
        <time>2023-10-28T08:18:36Z</time>
      </trkpt>
      <trkpt lat="50.80806" lon="3.32121">
        <ele>5.8</ele>
        <time>2023-10-28T08:18:41Z</time>
      </trkpt>
      <trkpt lat="50.80812" lon="3.32107">
        <ele>5.8</ele>
        <time>2023-10-28T08:18:43Z</time>
      </trkpt>
      <trkpt lat="50.80827" lon="3.32073">
        <ele>5.8</ele>
        <time>2023-10-28T08:18:48Z</time>
      </trkpt>
      <trkpt lat="50.8083" lon="3.32066">
        <ele>5.8</ele>
        <time>2023-10-28T08:18:49Z</time>
      </trkpt>
      <trkpt lat="50.80841" lon="3.32048">
        <ele>5.8</ele>
        <time>2023-10-28T08:18:52Z</time>
      </trkpt>
      <trkpt lat="50.80853" lon="3.32031">
        <ele>5.8</ele>
        <time>2023-10-28T08:18:55Z</time>
      </trkpt>
      <trkpt lat="50.80857" lon="3.32027">
        <ele>5.8</ele>
        <time>2023-10-28T08:18:56Z</time>
      </trkpt>
      <trkpt lat="50.80861" lon="3.32022">
        <ele>5.8</ele>
        <time>2023-10-28T08:18:57Z</time>
      </trkpt>
      <trkpt lat="50.80864" lon="3.32016">
        <ele>5.8</ele>
        <time>2023-10-28T08:18:58Z</time>
      </trkpt>
      <trkpt lat="50.80868" lon="3.32011">
        <ele>5.8</ele>
        <time>2023-10-28T08:18:59Z</time>
      </trkpt>
      <trkpt lat="50.80872" lon="3.32007">
        <ele>5.8</ele>
        <time>2023-10-28T08:19:00Z</time>
      </trkpt>
      <trkpt lat="50.80876" lon="3.32001">
        <ele>5.6</ele>
        <time>2023-10-28T08:19:01Z</time>
      </trkpt>
      <trkpt lat="50.80879" lon="3.31996">
        <ele>5.6</ele>
        <time>2023-10-28T08:19:02Z</time>
      </trkpt>
      <trkpt lat="50.80887" lon="3.31985">
        <ele>5.6</ele>
        <time>2023-10-28T08:19:04Z</time>
      </trkpt>
      <trkpt lat="50.80915" lon="3.31938">
        <ele>5.6</ele>
        <time>2023-10-28T08:19:12Z</time>
      </trkpt>
      <trkpt lat="50.80932" lon="3.31908">
        <ele>6</ele>
        <time>2023-10-28T08:19:17Z</time>
      </trkpt>
      <trkpt lat="50.80938" lon="3.31895">
        <ele>6.6</ele>
        <time>2023-10-28T08:19:19Z</time>
      </trkpt>
      <trkpt lat="50.80941" lon="3.31888">
        <ele>6.8</ele>
        <time>2023-10-28T08:19:20Z</time>
      </trkpt>
      <trkpt lat="50.80954" lon="3.31855">
        <ele>7.2</ele>
        <time>2023-10-28T08:19:25Z</time>
      </trkpt>
      <trkpt lat="50.80957" lon="3.31848">
        <ele>7.4</ele>
        <time>2023-10-28T08:19:26Z</time>
      </trkpt>
      <trkpt lat="50.80959" lon="3.31842">
        <ele>7.4</ele>
        <time>2023-10-28T08:19:27Z</time>
      </trkpt>
      <trkpt lat="50.80962" lon="3.31835">
        <ele>7.4</ele>
        <time>2023-10-28T08:19:28Z</time>
      </trkpt>
      <trkpt lat="50.80966" lon="3.31821">
        <ele>7.6</ele>
        <time>2023-10-28T08:19:30Z</time>
      </trkpt>
      <trkpt lat="50.80974" lon="3.31799">
        <ele>7.6</ele>
        <time>2023-10-28T08:19:33Z</time>
      </trkpt>
      <trkpt lat="50.80996" lon="3.31735">
        <ele>8.4</ele>
        <time>2023-10-28T08:19:42Z</time>
      </trkpt>
      <trkpt lat="50.81001" lon="3.3172">
        <ele>8.6</ele>
        <time>2023-10-28T08:19:44Z</time>
      </trkpt>
      <trkpt lat="50.81018" lon="3.31666">
        <ele>8.6</ele>
        <time>2023-10-28T08:19:51Z</time>
      </trkpt>
      <trkpt lat="50.81035" lon="3.31625">
        <ele>8.6</ele>
        <time>2023-10-28T08:19:57Z</time>
      </trkpt>
      <trkpt lat="50.81039" lon="3.31618">
        <ele>8.4</ele>
        <time>2023-10-28T08:19:58Z</time>
      </trkpt>
      <trkpt lat="50.81064" lon="3.31578">
        <ele>8.2</ele>
        <time>2023-10-28T08:20:05Z</time>
      </trkpt>
      <trkpt lat="50.81076" lon="3.31559">
        <ele>8.2</ele>
        <time>2023-10-28T08:20:08Z</time>
      </trkpt>
      <trkpt lat="50.81095" lon="3.31528">
        <ele>8.2</ele>
        <time>2023-10-28T08:20:13Z</time>
      </trkpt>
      <trkpt lat="50.81099" lon="3.31522">
        <ele>8.2</ele>
        <time>2023-10-28T08:20:14Z</time>
      </trkpt>
      <trkpt lat="50.81101" lon="3.31515">
        <ele>8.2</ele>
        <time>2023-10-28T08:20:15Z</time>
      </trkpt>
      <trkpt lat="50.81103" lon="3.31508">
        <ele>8.2</ele>
        <time>2023-10-28T08:20:16Z</time>
      </trkpt>
      <trkpt lat="50.81104" lon="3.31501">
        <ele>8.2</ele>
        <time>2023-10-28T08:20:17Z</time>
      </trkpt>
      <trkpt lat="50.81104" lon="3.31494">
        <ele>7.8</ele>
        <time>2023-10-28T08:20:18Z</time>
      </trkpt>
      <trkpt lat="50.81102" lon="3.31488">
        <ele>7.8</ele>
        <time>2023-10-28T08:20:19Z</time>
      </trkpt>
      <trkpt lat="50.81101" lon="3.31481">
        <ele>7.6</ele>
        <time>2023-10-28T08:20:20Z</time>
      </trkpt>
      <trkpt lat="50.811" lon="3.31474">
        <ele>7.6</ele>
        <time>2023-10-28T08:20:21Z</time>
      </trkpt>
      <trkpt lat="50.811" lon="3.31468">
        <ele>7.6</ele>
        <time>2023-10-28T08:20:22Z</time>
      </trkpt>
      <trkpt lat="50.81101" lon="3.31461">
        <ele>7.6</ele>
        <time>2023-10-28T08:20:23Z</time>
      </trkpt>
      <trkpt lat="50.81103" lon="3.31455">
        <ele>7.6</ele>
        <time>2023-10-28T08:20:24Z</time>
      </trkpt>
      <trkpt lat="50.81106" lon="3.31449">
        <ele>7.6</ele>
        <time>2023-10-28T08:20:25Z</time>
      </trkpt>
      <trkpt lat="50.8111" lon="3.31444">
        <ele>7.6</ele>
        <time>2023-10-28T08:20:26Z</time>
      </trkpt>
      <trkpt lat="50.81114" lon="3.31438">
        <ele>7.8</ele>
        <time>2023-10-28T08:20:27Z</time>
      </trkpt>
      <trkpt lat="50.81125" lon="3.3142">
        <ele>8.8</ele>
        <time>2023-10-28T08:20:30Z</time>
      </trkpt>
      <trkpt lat="50.81137" lon="3.31401">
        <ele>9.6</ele>
        <time>2023-10-28T08:20:33Z</time>
      </trkpt>
      <trkpt lat="50.81146" lon="3.31388">
        <ele>9.6</ele>
        <time>2023-10-28T08:20:35Z</time>
      </trkpt>
      <trkpt lat="50.81174" lon="3.31341">
        <ele>10</ele>
        <time>2023-10-28T08:20:42Z</time>
      </trkpt>
      <trkpt lat="50.81207" lon="3.31271">
        <ele>9.8</ele>
        <time>2023-10-28T08:20:51Z</time>
      </trkpt>
      <trkpt lat="50.81215" lon="3.31255">
        <ele>9.8</ele>
        <time>2023-10-28T08:20:53Z</time>
      </trkpt>
      <trkpt lat="50.81241" lon="3.31201">
        <ele>8.8</ele>
        <time>2023-10-28T08:21:00Z</time>
      </trkpt>
      <trkpt lat="50.81245" lon="3.31193">
        <ele>8.8</ele>
        <time>2023-10-28T08:21:01Z</time>
      </trkpt>
      <trkpt lat="50.81249" lon="3.31185">
        <ele>8.6</ele>
        <time>2023-10-28T08:21:02Z</time>
      </trkpt>
      <trkpt lat="50.81252" lon="3.31177">
        <ele>8.6</ele>
        <time>2023-10-28T08:21:03Z</time>
      </trkpt>
      <trkpt lat="50.81256" lon="3.31169">
        <ele>8.6</ele>
        <time>2023-10-28T08:21:04Z</time>
      </trkpt>
      <trkpt lat="50.81259" lon="3.31161">
        <ele>8.4</ele>
        <time>2023-10-28T08:21:05Z</time>
      </trkpt>
      <trkpt lat="50.81263" lon="3.31152">
        <ele>8.4</ele>
        <time>2023-10-28T08:21:06Z</time>
      </trkpt>
      <trkpt lat="50.81287" lon="3.31107">
        <ele>8</ele>
        <time>2023-10-28T08:21:12Z</time>
      </trkpt>
      <trkpt lat="50.81295" lon="3.31093">
        <ele>8</ele>
        <time>2023-10-28T08:21:14Z</time>
      </trkpt>
      <trkpt lat="50.81305" lon="3.31079">
        <ele>7.8</ele>
        <time>2023-10-28T08:21:16Z</time>
      </trkpt>
      <trkpt lat="50.81328" lon="3.31052">
        <ele>7.8</ele>
        <time>2023-10-28T08:21:20Z</time>
      </trkpt>
      <trkpt lat="50.81356" lon="3.31017">
        <ele>7.4</ele>
        <time>2023-10-28T08:21:25Z</time>
      </trkpt>
      <trkpt lat="50.81363" lon="3.31009">
        <ele>7.2</ele>
        <time>2023-10-28T08:21:26Z</time>
      </trkpt>
      <trkpt lat="50.81368" lon="3.31001">
        <ele>7.2</ele>
        <time>2023-10-28T08:21:27Z</time>
      </trkpt>
      <trkpt lat="50.81385" lon="3.30977">
        <ele>7</ele>
        <time>2023-10-28T08:21:30Z</time>
      </trkpt>
      <trkpt lat="50.81411" lon="3.3095">
        <ele>6.2</ele>
        <time>2023-10-28T08:21:34Z</time>
      </trkpt>
      <trkpt lat="50.81418" lon="3.30941">
        <ele>6.2</ele>
        <time>2023-10-28T08:21:35Z</time>
      </trkpt>
      <trkpt lat="50.81424" lon="3.30933">
        <ele>6.2</ele>
        <time>2023-10-28T08:21:36Z</time>
      </trkpt>
      <trkpt lat="50.8143" lon="3.30925">
        <ele>6</ele>
        <time>2023-10-28T08:21:37Z</time>
      </trkpt>
      <trkpt lat="50.81434" lon="3.30919">
        <ele>6</ele>
        <time>2023-10-28T08:21:38Z</time>
      </trkpt>
      <trkpt lat="50.81457" lon="3.30888">
        <ele>5.6</ele>
        <time>2023-10-28T08:21:42Z</time>
      </trkpt>
      <trkpt lat="50.81475" lon="3.30867">
        <ele>5.2</ele>
        <time>2023-10-28T08:21:45Z</time>
      </trkpt>
      <trkpt lat="50.81493" lon="3.3085">
        <ele>5</ele>
        <time>2023-10-28T08:21:48Z</time>
      </trkpt>
      <trkpt lat="50.81501" lon="3.30844">
        <ele>5</ele>
        <time>2023-10-28T08:21:49Z</time>
      </trkpt>
      <trkpt lat="50.81506" lon="3.30839">
        <ele>4.8</ele>
        <time>2023-10-28T08:21:50Z</time>
      </trkpt>
      <trkpt lat="50.81516" lon="3.30828">
        <ele>4.6</ele>
        <time>2023-10-28T08:21:52Z</time>
      </trkpt>
      <trkpt lat="50.8152" lon="3.30821">
        <ele>4.6</ele>
        <time>2023-10-28T08:21:53Z</time>
      </trkpt>
      <trkpt lat="50.81524" lon="3.30815">
        <ele>4.6</ele>
        <time>2023-10-28T08:21:54Z</time>
      </trkpt>
      <trkpt lat="50.81528" lon="3.30809">
        <ele>4.6</ele>
        <time>2023-10-28T08:21:55Z</time>
      </trkpt>
      <trkpt lat="50.81532" lon="3.30803">
        <ele>4.6</ele>
        <time>2023-10-28T08:21:56Z</time>
      </trkpt>
      <trkpt lat="50.81547" lon="3.30785">
        <ele>4.8</ele>
        <time>2023-10-28T08:21:59Z</time>
      </trkpt>
      <trkpt lat="50.81556" lon="3.30777">
        <ele>4.8</ele>
        <time>2023-10-28T08:22:01Z</time>
      </trkpt>
      <trkpt lat="50.81567" lon="3.30771">
        <ele>4.8</ele>
        <time>2023-10-28T08:22:03Z</time>
      </trkpt>
      <trkpt lat="50.81572" lon="3.30771">
        <ele>4.8</ele>
        <time>2023-10-28T08:22:04Z</time>
      </trkpt>
      <trkpt lat="50.81578" lon="3.30771">
        <ele>4.8</ele>
        <time>2023-10-28T08:22:05Z</time>
      </trkpt>
      <trkpt lat="50.81587" lon="3.30773">
        <ele>5</ele>
        <time>2023-10-28T08:22:07Z</time>
      </trkpt>
      <trkpt lat="50.81591" lon="3.30775">
        <ele>5</ele>
        <time>2023-10-28T08:22:08Z</time>
      </trkpt>
      <trkpt lat="50.81595" lon="3.30779">
        <ele>5</ele>
        <time>2023-10-28T08:22:09Z</time>
      </trkpt>
      <trkpt lat="50.81597" lon="3.30784">
        <ele>5.2</ele>
        <time>2023-10-28T08:22:10Z</time>
      </trkpt>
      <trkpt lat="50.81597" lon="3.3079">
        <ele>5.2</ele>
        <time>2023-10-28T08:22:11Z</time>
      </trkpt>
      <trkpt lat="50.81597" lon="3.30797">
        <ele>5.2</ele>
        <time>2023-10-28T08:22:12Z</time>
      </trkpt>
      <trkpt lat="50.81595" lon="3.30811">
        <ele>5.4</ele>
        <time>2023-10-28T08:22:14Z</time>
      </trkpt>
      <trkpt lat="50.81595" lon="3.30819">
        <ele>5.4</ele>
        <time>2023-10-28T08:22:15Z</time>
      </trkpt>
      <trkpt lat="50.81595" lon="3.30827">
        <ele>5.2</ele>
        <time>2023-10-28T08:22:16Z</time>
      </trkpt>
      <trkpt lat="50.81589" lon="3.30883">
        <ele>5.2</ele>
        <time>2023-10-28T08:22:22Z</time>
      </trkpt>
      <trkpt lat="50.81587" lon="3.30893">
        <ele>5.2</ele>
        <time>2023-10-28T08:22:23Z</time>
      </trkpt>
      <trkpt lat="50.8158" lon="3.30909">
        <ele>5</ele>
        <time>2023-10-28T08:22:25Z</time>
      </trkpt>
      <trkpt lat="50.81576" lon="3.30916">
        <ele>4.8</ele>
        <time>2023-10-28T08:22:26Z</time>
      </trkpt>
      <trkpt lat="50.8157" lon="3.30932">
        <ele>4.4</ele>
        <time>2023-10-28T08:22:28Z</time>
      </trkpt>
      <trkpt lat="50.81569" lon="3.30941">
        <ele>4</ele>
        <time>2023-10-28T08:22:29Z</time>
      </trkpt>
      <trkpt lat="50.81569" lon="3.30949">
        <ele>3.8</ele>
        <time>2023-10-28T08:22:30Z</time>
      </trkpt>
      <trkpt lat="50.81568" lon="3.30958">
        <ele>3.8</ele>
        <time>2023-10-28T08:22:31Z</time>
      </trkpt>
      <trkpt lat="50.8157" lon="3.30966">
        <ele>3.8</ele>
        <time>2023-10-28T08:22:32Z</time>
      </trkpt>
      <trkpt lat="50.81573" lon="3.30972">
        <ele>3.8</ele>
        <time>2023-10-28T08:22:33Z</time>
      </trkpt>
      <trkpt lat="50.81576" lon="3.30978">
        <ele>3.8</ele>
        <time>2023-10-28T08:22:34Z</time>
      </trkpt>
      <trkpt lat="50.81584" lon="3.30987">
        <ele>3.8</ele>
        <time>2023-10-28T08:22:36Z</time>
      </trkpt>
      <trkpt lat="50.81594" lon="3.30995">
        <ele>3.8</ele>
        <time>2023-10-28T08:22:38Z</time>
      </trkpt>
      <trkpt lat="50.81599" lon="3.30995">
        <ele>3.8</ele>
        <time>2023-10-28T08:22:39Z</time>
      </trkpt>
      <trkpt lat="50.81604" lon="3.30994">
        <ele>4</ele>
        <time>2023-10-28T08:22:40Z</time>
      </trkpt>
      <trkpt lat="50.81609" lon="3.30993">
        <ele>4.2</ele>
        <time>2023-10-28T08:22:41Z</time>
      </trkpt>
      <trkpt lat="50.81614" lon="3.3099">
        <ele>4.4</ele>
        <time>2023-10-28T08:22:42Z</time>
      </trkpt>
      <trkpt lat="50.81617" lon="3.30985">
        <ele>4.6</ele>
        <time>2023-10-28T08:22:43Z</time>
      </trkpt>
      <trkpt lat="50.8162" lon="3.30979">
        <ele>4.6</ele>
        <time>2023-10-28T08:22:44Z</time>
      </trkpt>
      <trkpt lat="50.81623" lon="3.30973">
        <ele>4.8</ele>
        <time>2023-10-28T08:22:45Z</time>
      </trkpt>
      <trkpt lat="50.81627" lon="3.30968">
        <ele>4.8</ele>
        <time>2023-10-28T08:22:46Z</time>
      </trkpt>
      <trkpt lat="50.81633" lon="3.30967">
        <ele>4.8</ele>
        <time>2023-10-28T08:22:47Z</time>
      </trkpt>
      <trkpt lat="50.81637" lon="3.30968">
        <ele>4.8</ele>
        <time>2023-10-28T08:22:48Z</time>
      </trkpt>
      <trkpt lat="50.81648" lon="3.30975">
        <ele>4.8</ele>
        <time>2023-10-28T08:22:50Z</time>
      </trkpt>
      <trkpt lat="50.81654" lon="3.30978">
        <ele>4.8</ele>
        <time>2023-10-28T08:22:51Z</time>
      </trkpt>
      <trkpt lat="50.81664" lon="3.30985">
        <ele>4.8</ele>
        <time>2023-10-28T08:22:53Z</time>
      </trkpt>
      <trkpt lat="50.81668" lon="3.30991">
        <ele>4.8</ele>
        <time>2023-10-28T08:22:54Z</time>
      </trkpt>
      <trkpt lat="50.81669" lon="3.30998">
        <ele>4.8</ele>
        <time>2023-10-28T08:22:55Z</time>
      </trkpt>
      <trkpt lat="50.81669" lon="3.31006">
        <ele>4.8</ele>
        <time>2023-10-28T08:22:56Z</time>
      </trkpt>
      <trkpt lat="50.81667" lon="3.31014">
        <ele>4.8</ele>
        <time>2023-10-28T08:22:57Z</time>
      </trkpt>
      <trkpt lat="50.81667" lon="3.31022">
        <ele>4.6</ele>
        <time>2023-10-28T08:22:58Z</time>
      </trkpt>
      <trkpt lat="50.81668" lon="3.31031">
        <ele>4.6</ele>
        <time>2023-10-28T08:22:59Z</time>
      </trkpt>
      <trkpt lat="50.81671" lon="3.31038">
        <ele>4.6</ele>
        <time>2023-10-28T08:23:00Z</time>
      </trkpt>
      <trkpt lat="50.81674" lon="3.31045">
        <ele>4.6</ele>
        <time>2023-10-28T08:23:01Z</time>
      </trkpt>
      <trkpt lat="50.81678" lon="3.31052">
        <ele>4.6</ele>
        <time>2023-10-28T08:23:02Z</time>
      </trkpt>
      <trkpt lat="50.81682" lon="3.31058">
        <ele>4.6</ele>
        <time>2023-10-28T08:23:03Z</time>
      </trkpt>
      <trkpt lat="50.81717" lon="3.31122">
        <ele>4.6</ele>
        <time>2023-10-28T08:23:12Z</time>
      </trkpt>
      <trkpt lat="50.81726" lon="3.31137">
        <ele>4.8</ele>
        <time>2023-10-28T08:23:14Z</time>
      </trkpt>
      <trkpt lat="50.81731" lon="3.31141">
        <ele>5</ele>
        <time>2023-10-28T08:23:15Z</time>
      </trkpt>
      <trkpt lat="50.81736" lon="3.31144">
        <ele>5</ele>
        <time>2023-10-28T08:23:16Z</time>
      </trkpt>
      <trkpt lat="50.81741" lon="3.31145">
        <ele>5</ele>
        <time>2023-10-28T08:23:17Z</time>
      </trkpt>
      <trkpt lat="50.81745" lon="3.31144">
        <ele>5</ele>
        <time>2023-10-28T08:23:18Z</time>
      </trkpt>
      <trkpt lat="50.8175" lon="3.31144">
        <ele>5</ele>
        <time>2023-10-28T08:23:19Z</time>
      </trkpt>
      <trkpt lat="50.81755" lon="3.31145">
        <ele>5</ele>
        <time>2023-10-28T08:23:20Z</time>
      </trkpt>
      <trkpt lat="50.8176" lon="3.31146">
        <ele>5</ele>
        <time>2023-10-28T08:23:21Z</time>
      </trkpt>
      <trkpt lat="50.81768" lon="3.3115">
        <ele>5</ele>
        <time>2023-10-28T08:23:23Z</time>
      </trkpt>
      <trkpt lat="50.81776" lon="3.31158">
        <ele>5</ele>
        <time>2023-10-28T08:23:25Z</time>
      </trkpt>
      <trkpt lat="50.81781" lon="3.31162">
        <ele>4.8</ele>
        <time>2023-10-28T08:23:26Z</time>
      </trkpt>
      <trkpt lat="50.81788" lon="3.31172">
        <ele>4.8</ele>
        <time>2023-10-28T08:23:28Z</time>
      </trkpt>
      <trkpt lat="50.81791" lon="3.3118">
        <ele>4.8</ele>
        <time>2023-10-28T08:23:29Z</time>
      </trkpt>
      <trkpt lat="50.81793" lon="3.31187">
        <ele>4.8</ele>
        <time>2023-10-28T08:23:30Z</time>
      </trkpt>
      <trkpt lat="50.81796" lon="3.31194">
        <ele>4.8</ele>
        <time>2023-10-28T08:23:31Z</time>
      </trkpt>
      <trkpt lat="50.81805" lon="3.31212">
        <ele>4.8</ele>
        <time>2023-10-28T08:23:34Z</time>
      </trkpt>
      <trkpt lat="50.81811" lon="3.31225">
        <ele>5</ele>
        <time>2023-10-28T08:23:36Z</time>
      </trkpt>
      <trkpt lat="50.81814" lon="3.31231">
        <ele>5</ele>
        <time>2023-10-28T08:23:37Z</time>
      </trkpt>
      <trkpt lat="50.81816" lon="3.31237">
        <ele>5</ele>
        <time>2023-10-28T08:23:38Z</time>
      </trkpt>
      <trkpt lat="50.81819" lon="3.31243">
        <ele>5.2</ele>
        <time>2023-10-28T08:23:39Z</time>
      </trkpt>
      <trkpt lat="50.81822" lon="3.3125">
        <ele>5.2</ele>
        <time>2023-10-28T08:23:40Z</time>
      </trkpt>
      <trkpt lat="50.81825" lon="3.31257">
        <ele>5.2</ele>
        <time>2023-10-28T08:23:41Z</time>
      </trkpt>
      <trkpt lat="50.81844" lon="3.31302">
        <ele>5.4</ele>
        <time>2023-10-28T08:23:48Z</time>
      </trkpt>
      <trkpt lat="50.81847" lon="3.31305">
        <ele>5.4</ele>
        <time>2023-10-28T08:23:49Z</time>
      </trkpt>
      <trkpt lat="50.81851" lon="3.31307">
        <ele>5.4</ele>
        <time>2023-10-28T08:23:50Z</time>
      </trkpt>
      <trkpt lat="50.81854" lon="3.31307">
        <ele>5.4</ele>
        <time>2023-10-28T08:23:51Z</time>
      </trkpt>
      <trkpt lat="50.81858" lon="3.31305">
        <ele>5.4</ele>
        <time>2023-10-28T08:23:52Z</time>
      </trkpt>
      <trkpt lat="50.81861" lon="3.31305">
        <ele>5.4</ele>
        <time>2023-10-28T08:23:53Z</time>
      </trkpt>
      <trkpt lat="50.81864" lon="3.31307">
        <ele>5.4</ele>
        <time>2023-10-28T08:23:54Z</time>
      </trkpt>
      <trkpt lat="50.81865" lon="3.3131">
        <ele>5.4</ele>
        <time>2023-10-28T08:23:55Z</time>
      </trkpt>
      <trkpt lat="50.81864" lon="3.31314">
        <ele>5.4</ele>
        <time>2023-10-28T08:23:56Z</time>
      </trkpt>
      <trkpt lat="50.81862" lon="3.31317">
        <ele>5.4</ele>
        <time>2023-10-28T08:23:57Z</time>
      </trkpt>
      <trkpt lat="50.8186" lon="3.31319">
        <ele>5.4</ele>
        <time>2023-10-28T08:23:58Z</time>
      </trkpt>
      <trkpt lat="50.81853" lon="3.31323">
        <ele>5.4</ele>
        <time>2023-10-28T08:24:00Z</time>
      </trkpt>
      <trkpt lat="50.81849" lon="3.31326">
        <ele>5.4</ele>
        <time>2023-10-28T08:24:01Z</time>
      </trkpt>
      <trkpt lat="50.81845" lon="3.31331">
        <ele>5.4</ele>
        <time>2023-10-28T08:24:02Z</time>
      </trkpt>
      <trkpt lat="50.8184" lon="3.31335">
        <ele>5.4</ele>
        <time>2023-10-28T08:24:03Z</time>
      </trkpt>
      <trkpt lat="50.81817" lon="3.31356">
        <ele>5</ele>
        <time>2023-10-28T08:24:08Z</time>
      </trkpt>
      <trkpt lat="50.81807" lon="3.31365">
        <ele>4.4</ele>
        <time>2023-10-28T08:24:10Z</time>
      </trkpt>
      <trkpt lat="50.81801" lon="3.31376">
        <ele>4</ele>
        <time>2023-10-28T08:24:12Z</time>
      </trkpt>
      <trkpt lat="50.81801" lon="3.31381">
        <ele>3.4</ele>
        <time>2023-10-28T08:24:13Z</time>
      </trkpt>
      <trkpt lat="50.81802" lon="3.31384">
        <ele>3.4</ele>
        <time>2023-10-28T08:24:14Z</time>
      </trkpt>
      <trkpt lat="50.81804" lon="3.31387">
        <ele>3.2</ele>
        <time>2023-10-28T08:24:15Z</time>
      </trkpt>
      <trkpt lat="50.81805" lon="3.31391">
        <ele>3.2</ele>
        <time>2023-10-28T08:24:16Z</time>
      </trkpt>
      <trkpt lat="50.81806" lon="3.31395">
        <ele>3.2</ele>
        <time>2023-10-28T08:24:17Z</time>
      </trkpt>
      <trkpt lat="50.81811" lon="3.31404">
        <ele>3.4</ele>
        <time>2023-10-28T08:24:19Z</time>
      </trkpt>
      <trkpt lat="50.81826" lon="3.31433">
        <ele>2.6</ele>
        <time>2023-10-28T08:24:24Z</time>
      </trkpt>
      <trkpt lat="50.81829" lon="3.31438">
        <ele>2.6</ele>
        <time>2023-10-28T08:24:25Z</time>
      </trkpt>
      <trkpt lat="50.81832" lon="3.31444">
        <ele>2.4</ele>
        <time>2023-10-28T08:24:26Z</time>
      </trkpt>
      <trkpt lat="50.81835" lon="3.31449">
        <ele>2.4</ele>
        <time>2023-10-28T08:24:27Z</time>
      </trkpt>
      <trkpt lat="50.81841" lon="3.31461">
        <ele>2.4</ele>
        <time>2023-10-28T08:24:29Z</time>
      </trkpt>
      <trkpt lat="50.8187" lon="3.3151">
        <ele>2.4</ele>
        <time>2023-10-28T08:24:38Z</time>
      </trkpt>
      <trkpt lat="50.81891" lon="3.31549">
        <ele>2.6</ele>
        <time>2023-10-28T08:24:45Z</time>
      </trkpt>
      <trkpt lat="50.81893" lon="3.31555">
        <ele>2.8</ele>
        <time>2023-10-28T08:24:46Z</time>
      </trkpt>
      <trkpt lat="50.81896" lon="3.31562">
        <ele>2.8</ele>
        <time>2023-10-28T08:24:47Z</time>
      </trkpt>
      <trkpt lat="50.81898" lon="3.31568">
        <ele>2.8</ele>
        <time>2023-10-28T08:24:48Z</time>
      </trkpt>
      <trkpt lat="50.819" lon="3.31575">
        <ele>2.8</ele>
        <time>2023-10-28T08:24:49Z</time>
      </trkpt>
      <trkpt lat="50.81902" lon="3.31581">
        <ele>2.8</ele>
        <time>2023-10-28T08:24:50Z</time>
      </trkpt>
      <trkpt lat="50.81907" lon="3.31594">
        <ele>2.6</ele>
        <time>2023-10-28T08:24:52Z</time>
      </trkpt>
      <trkpt lat="50.81913" lon="3.31607">
        <ele>2.6</ele>
        <time>2023-10-28T08:24:54Z</time>
      </trkpt>
      <trkpt lat="50.81926" lon="3.31631">
        <ele>2.4</ele>
        <time>2023-10-28T08:24:58Z</time>
      </trkpt>
      <trkpt lat="50.81932" lon="3.31645">
        <ele>2.2</ele>
        <time>2023-10-28T08:25:00Z</time>
      </trkpt>
      <trkpt lat="50.81938" lon="3.31661">
        <ele>2.2</ele>
        <time>2023-10-28T08:25:02Z</time>
      </trkpt>
      <trkpt lat="50.8194" lon="3.31667">
        <ele>2.2</ele>
        <time>2023-10-28T08:25:03Z</time>
      </trkpt>
      <trkpt lat="50.81962" lon="3.31709">
        <ele>2</ele>
        <time>2023-10-28T08:25:10Z</time>
      </trkpt>
      <trkpt lat="50.81969" lon="3.31721">
        <ele>2</ele>
        <time>2023-10-28T08:25:12Z</time>
      </trkpt>
      <trkpt lat="50.81976" lon="3.31733">
        <ele>2</ele>
        <time>2023-10-28T08:25:14Z</time>
      </trkpt>
      <trkpt lat="50.81983" lon="3.31746">
        <ele>1.8</ele>
        <time>2023-10-28T08:25:16Z</time>
      </trkpt>
      <trkpt lat="50.8202" lon="3.31806">
        <ele>1.6</ele>
        <time>2023-10-28T08:25:26Z</time>
      </trkpt>
      <trkpt lat="50.82027" lon="3.31818">
        <ele>1.4</ele>
        <time>2023-10-28T08:25:28Z</time>
      </trkpt>
      <trkpt lat="50.82056" lon="3.31866">
        <ele>1.2</ele>
        <time>2023-10-28T08:25:36Z</time>
      </trkpt>
      <trkpt lat="50.82064" lon="3.31878">
        <ele>1.2</ele>
        <time>2023-10-28T08:25:38Z</time>
      </trkpt>
      <trkpt lat="50.82073" lon="3.31887">
        <ele>1.2</ele>
        <time>2023-10-28T08:25:40Z</time>
      </trkpt>
      <trkpt lat="50.82081" lon="3.31896">
        <ele>1.2</ele>
        <time>2023-10-28T08:25:42Z</time>
      </trkpt>
      <trkpt lat="50.82084" lon="3.319">
        <ele>1.2</ele>
        <time>2023-10-28T08:25:43Z</time>
      </trkpt>
      <trkpt lat="50.82088" lon="3.31904">
        <ele>1.2</ele>
        <time>2023-10-28T08:25:44Z</time>
      </trkpt>
      <trkpt lat="50.82093" lon="3.3191">
        <ele>1.4</ele>
        <time>2023-10-28T08:25:45Z</time>
      </trkpt>
      <trkpt lat="50.82107" lon="3.31932">
        <ele>1.4</ele>
        <time>2023-10-28T08:25:49Z</time>
      </trkpt>
      <trkpt lat="50.82124" lon="3.31977">
        <ele>1.4</ele>
        <time>2023-10-28T08:25:55Z</time>
      </trkpt>
      <trkpt lat="50.82127" lon="3.31984">
        <ele>1.4</ele>
        <time>2023-10-28T08:25:56Z</time>
      </trkpt>
      <trkpt lat="50.82146" lon="3.32016">
        <ele>1.4</ele>
        <time>2023-10-28T08:26:01Z</time>
      </trkpt>
      <trkpt lat="50.82161" lon="3.32036">
        <ele>1</ele>
        <time>2023-10-28T08:26:05Z</time>
      </trkpt>
      <trkpt lat="50.82163" lon="3.32041">
        <ele>1</ele>
        <time>2023-10-28T08:26:06Z</time>
      </trkpt>
      <trkpt lat="50.82166" lon="3.32046">
        <ele>1</ele>
        <time>2023-10-28T08:26:07Z</time>
      </trkpt>
      <trkpt lat="50.82168" lon="3.3205">
        <ele>1</ele>
        <time>2023-10-28T08:26:08Z</time>
      </trkpt>
      <trkpt lat="50.82171" lon="3.32054">
        <ele>1</ele>
        <time>2023-10-28T08:26:09Z</time>
      </trkpt>
      <trkpt lat="50.82174" lon="3.32057">
        <ele>0.80000000000001</ele>
        <time>2023-10-28T08:26:10Z</time>
      </trkpt>
      <trkpt lat="50.82177" lon="3.32059">
        <ele>0.80000000000001</ele>
        <time>2023-10-28T08:26:11Z</time>
      </trkpt>
      <trkpt lat="50.82181" lon="3.3206">
        <ele>0.80000000000001</ele>
        <time>2023-10-28T08:26:12Z</time>
      </trkpt>
      <trkpt lat="50.82184" lon="3.3206">
        <ele>0.80000000000001</ele>
        <time>2023-10-28T08:26:13Z</time>
      </trkpt>
      <trkpt lat="50.82194" lon="3.32045">
        <ele>1.2</ele>
        <time>2023-10-28T08:26:17Z</time>
      </trkpt>
      <trkpt lat="50.82196" lon="3.3204">
        <ele>1.4</ele>
        <time>2023-10-28T08:26:18Z</time>
      </trkpt>
      <trkpt lat="50.82197" lon="3.32036">
        <ele>1.6</ele>
        <time>2023-10-28T08:26:19Z</time>
      </trkpt>
      <trkpt lat="50.822" lon="3.32025">
        <ele>1.8</ele>
        <time>2023-10-28T08:26:21Z</time>
      </trkpt>
      <trkpt lat="50.82205" lon="3.32005">
        <ele>2.2</ele>
        <time>2023-10-28T08:26:25Z</time>
      </trkpt>
      <trkpt lat="50.82213" lon="3.31974">
        <ele>2.4</ele>
        <time>2023-10-28T08:26:30Z</time>
      </trkpt>
      <trkpt lat="50.82214" lon="3.31968">
        <ele>2.6</ele>
        <time>2023-10-28T08:26:31Z</time>
      </trkpt>
      <trkpt lat="50.82231" lon="3.31902">
        <ele>3.4</ele>
        <time>2023-10-28T08:26:41Z</time>
      </trkpt>
      <trkpt lat="50.82233" lon="3.31895">
        <ele>3.6</ele>
        <time>2023-10-28T08:26:42Z</time>
      </trkpt>
      <trkpt lat="50.82247" lon="3.31841">
        <ele>3.6</ele>
        <time>2023-10-28T08:26:50Z</time>
      </trkpt>
      <trkpt lat="50.82271" lon="3.31755">
        <ele>4</ele>
        <time>2023-10-28T08:27:01Z</time>
      </trkpt>
      <trkpt lat="50.82273" lon="3.31747">
        <ele>4</ele>
        <time>2023-10-28T08:27:02Z</time>
      </trkpt>
      <trkpt lat="50.82294" lon="3.31668">
        <ele>4.2</ele>
        <time>2023-10-28T08:27:12Z</time>
      </trkpt>
      <trkpt lat="50.82311" lon="3.31605">
        <ele>4.6</ele>
        <time>2023-10-28T08:27:20Z</time>
      </trkpt>
      <trkpt lat="50.82327" lon="3.31547">
        <ele>4.8</ele>
        <time>2023-10-28T08:27:27Z</time>
      </trkpt>
      <trkpt lat="50.82335" lon="3.31516">
        <ele>5</ele>
        <time>2023-10-28T08:27:31Z</time>
      </trkpt>
      <trkpt lat="50.82337" lon="3.31508">
        <ele>5</ele>
        <time>2023-10-28T08:27:32Z</time>
      </trkpt>
      <trkpt lat="50.82339" lon="3.315">
        <ele>5</ele>
        <time>2023-10-28T08:27:33Z</time>
      </trkpt>
      <trkpt lat="50.82341" lon="3.31493">
        <ele>5</ele>
        <time>2023-10-28T08:27:34Z</time>
      </trkpt>
      <trkpt lat="50.82343" lon="3.31485">
        <ele>5</ele>
        <time>2023-10-28T08:27:35Z</time>
      </trkpt>
      <trkpt lat="50.82344" lon="3.31477">
        <ele>5</ele>
        <time>2023-10-28T08:27:36Z</time>
      </trkpt>
      <trkpt lat="50.82348" lon="3.31462">
        <ele>5</ele>
        <time>2023-10-28T08:27:38Z</time>
      </trkpt>
      <trkpt lat="50.8235" lon="3.31455">
        <ele>5</ele>
        <time>2023-10-28T08:27:39Z</time>
      </trkpt>
      <trkpt lat="50.82352" lon="3.31447">
        <ele>5</ele>
        <time>2023-10-28T08:27:40Z</time>
      </trkpt>
      <trkpt lat="50.82353" lon="3.31439">
        <ele>5</ele>
        <time>2023-10-28T08:27:41Z</time>
      </trkpt>
      <trkpt lat="50.82355" lon="3.31432">
        <ele>5</ele>
        <time>2023-10-28T08:27:42Z</time>
      </trkpt>
      <trkpt lat="50.8236" lon="3.31417">
        <ele>5</ele>
        <time>2023-10-28T08:27:44Z</time>
      </trkpt>
      <trkpt lat="50.82368" lon="3.31386">
        <ele>5</ele>
        <time>2023-10-28T08:27:48Z</time>
      </trkpt>
      <trkpt lat="50.82379" lon="3.31347">
        <ele>5</ele>
        <time>2023-10-28T08:27:53Z</time>
      </trkpt>
      <trkpt lat="50.82386" lon="3.31324">
        <ele>5.2</ele>
        <time>2023-10-28T08:27:56Z</time>
      </trkpt>
      <trkpt lat="50.82396" lon="3.31291">
        <ele>5.4</ele>
        <time>2023-10-28T08:28:00Z</time>
      </trkpt>
      <trkpt lat="50.82406" lon="3.31256">
        <ele>5.6</ele>
        <time>2023-10-28T08:28:04Z</time>
      </trkpt>
      <trkpt lat="50.82411" lon="3.31239">
        <ele>5.6</ele>
        <time>2023-10-28T08:28:06Z</time>
      </trkpt>
      <trkpt lat="50.82413" lon="3.3123">
        <ele>5.6</ele>
        <time>2023-10-28T08:28:07Z</time>
      </trkpt>
      <trkpt lat="50.82412" lon="3.31214">
        <ele>5.6</ele>
        <time>2023-10-28T08:28:09Z</time>
      </trkpt>
      <trkpt lat="50.8241" lon="3.31208">
        <ele>5.8</ele>
        <time>2023-10-28T08:28:10Z</time>
      </trkpt>
      <trkpt lat="50.82408" lon="3.31203">
        <ele>5.8</ele>
        <time>2023-10-28T08:28:11Z</time>
      </trkpt>
      <trkpt lat="50.82406" lon="3.31198">
        <ele>5.8</ele>
        <time>2023-10-28T08:28:12Z</time>
      </trkpt>
      <trkpt lat="50.82403" lon="3.31194">
        <ele>5.8</ele>
        <time>2023-10-28T08:28:13Z</time>
      </trkpt>
      <trkpt lat="50.824" lon="3.31189">
        <ele>5.8</ele>
        <time>2023-10-28T08:28:14Z</time>
      </trkpt>
      <trkpt lat="50.82398" lon="3.31185">
        <ele>5.8</ele>
        <time>2023-10-28T08:28:15Z</time>
      </trkpt>
      <trkpt lat="50.82394" lon="3.31176">
        <ele>5.8</ele>
        <time>2023-10-28T08:28:17Z</time>
      </trkpt>
      <trkpt lat="50.82392" lon="3.31171">
        <ele>6</ele>
        <time>2023-10-28T08:28:18Z</time>
      </trkpt>
      <trkpt lat="50.82391" lon="3.31167">
        <ele>6</ele>
        <time>2023-10-28T08:28:19Z</time>
      </trkpt>
      <trkpt lat="50.8239" lon="3.31162">
        <ele>6</ele>
        <time>2023-10-28T08:28:20Z</time>
      </trkpt>
      <trkpt lat="50.82388" lon="3.31158">
        <ele>6.2</ele>
        <time>2023-10-28T08:28:21Z</time>
      </trkpt>
      <trkpt lat="50.82386" lon="3.31154">
        <ele>6.2</ele>
        <time>2023-10-28T08:28:22Z</time>
      </trkpt>
      <trkpt lat="50.82384" lon="3.31149">
        <ele>6.2</ele>
        <time>2023-10-28T08:28:23Z</time>
      </trkpt>
      <trkpt lat="50.82383" lon="3.31145">
        <ele>6.2</ele>
        <time>2023-10-28T08:28:24Z</time>
      </trkpt>
      <trkpt lat="50.82379" lon="3.31136">
        <ele>6.4</ele>
        <time>2023-10-28T08:28:26Z</time>
      </trkpt>
      <trkpt lat="50.82378" lon="3.31132">
        <ele>6.4</ele>
        <time>2023-10-28T08:28:27Z</time>
      </trkpt>
      <trkpt lat="50.82376" lon="3.31128">
        <ele>6.6</ele>
        <time>2023-10-28T08:28:28Z</time>
      </trkpt>
      <trkpt lat="50.82374" lon="3.31125">
        <ele>6.6</ele>
        <time>2023-10-28T08:28:29Z</time>
      </trkpt>
      <trkpt lat="50.82371" lon="3.31116">
        <ele>6.6</ele>
        <time>2023-10-28T08:28:31Z</time>
      </trkpt>
      <trkpt lat="50.82365" lon="3.31105">
        <ele>7</ele>
        <time>2023-10-28T08:28:34Z</time>
      </trkpt>
      <trkpt lat="50.82359" lon="3.31092">
        <ele>7.4</ele>
        <time>2023-10-28T08:28:37Z</time>
      </trkpt>
      <trkpt lat="50.82352" lon="3.31077">
        <ele>7.6</ele>
        <time>2023-10-28T08:28:41Z</time>
      </trkpt>
      <trkpt lat="50.82347" lon="3.31066">
        <ele>7.6</ele>
        <time>2023-10-28T08:28:44Z</time>
      </trkpt>
      <trkpt lat="50.82345" lon="3.31062">
        <ele>7.6</ele>
        <time>2023-10-28T08:28:45Z</time>
      </trkpt>
      <trkpt lat="50.82342" lon="3.31055">
        <ele>7.4</ele>
        <time>2023-10-28T08:28:47Z</time>
      </trkpt>
      <trkpt lat="50.8234" lon="3.31049">
        <ele>7.4</ele>
        <time>2023-10-28T08:28:49Z</time>
      </trkpt>
      <trkpt lat="50.82338" lon="3.31045">
        <ele>7.2</ele>
        <time>2023-10-28T08:28:50Z</time>
      </trkpt>
      <trkpt lat="50.82337" lon="3.31042">
        <ele>7.2</ele>
        <time>2023-10-28T08:28:51Z</time>
      </trkpt>
      <trkpt lat="50.82336" lon="3.31038">
        <ele>7.2</ele>
        <time>2023-10-28T08:28:52Z</time>
      </trkpt>
      <trkpt lat="50.82334" lon="3.31035">
        <ele>7</ele>
        <time>2023-10-28T08:28:53Z</time>
      </trkpt>
      <trkpt lat="50.82333" lon="3.31031">
        <ele>7</ele>
        <time>2023-10-28T08:28:54Z</time>
      </trkpt>
      <trkpt lat="50.82332" lon="3.31027">
        <ele>6.8</ele>
        <time>2023-10-28T08:28:55Z</time>
      </trkpt>
      <trkpt lat="50.8233" lon="3.31024">
        <ele>6.8</ele>
        <time>2023-10-28T08:28:56Z</time>
      </trkpt>
      <trkpt lat="50.82324" lon="3.3101">
        <ele>7.2</ele>
        <time>2023-10-28T08:29:00Z</time>
      </trkpt>
      <trkpt lat="50.82317" lon="3.30997">
        <ele>7</ele>
        <time>2023-10-28T08:29:04Z</time>
      </trkpt>
      <trkpt lat="50.82315" lon="3.30993">
        <ele>7.4</ele>
        <time>2023-10-28T08:29:05Z</time>
      </trkpt>
      <trkpt lat="50.82311" lon="3.30982">
        <ele>8.4</ele>
        <time>2023-10-28T08:29:08Z</time>
      </trkpt>
      <trkpt lat="50.8231" lon="3.30979">
        <ele>8.6</ele>
        <time>2023-10-28T08:29:09Z</time>
      </trkpt>
      <trkpt lat="50.82309" lon="3.30976">
        <ele>8.6</ele>
        <time>2023-10-28T08:29:10Z</time>
      </trkpt>
      <trkpt lat="50.82308" lon="3.30972">
        <ele>8.6</ele>
        <time>2023-10-28T08:29:11Z</time>
      </trkpt>
      <trkpt lat="50.82307" lon="3.3097">
        <ele>8.8</ele>
        <time>2023-10-28T08:29:12Z</time>
      </trkpt>
      <trkpt lat="50.82305" lon="3.30967">
        <ele>8.8</ele>
        <time>2023-10-28T08:29:13Z</time>
      </trkpt>
      <trkpt lat="50.82303" lon="3.30964">
        <ele>8.8</ele>
        <time>2023-10-28T08:29:14Z</time>
      </trkpt>
      <trkpt lat="50.82302" lon="3.3096">
        <ele>8.8</ele>
        <time>2023-10-28T08:29:15Z</time>
      </trkpt>
      <trkpt lat="50.8229" lon="3.30933">
        <ele>8.8</ele>
        <time>2023-10-28T08:29:23Z</time>
      </trkpt>
      <trkpt lat="50.82283" lon="3.30916">
        <ele>9.2</ele>
        <time>2023-10-28T08:29:28Z</time>
      </trkpt>
      <trkpt lat="50.82282" lon="3.30912">
        <ele>9.2</ele>
        <time>2023-10-28T08:29:29Z</time>
      </trkpt>
      <trkpt lat="50.82279" lon="3.30905">
        <ele>9.2</ele>
        <time>2023-10-28T08:29:31Z</time>
      </trkpt>
      <trkpt lat="50.82273" lon="3.30878">
        <ele>9.6</ele>
        <time>2023-10-28T08:29:38Z</time>
      </trkpt>
      <trkpt lat="50.82274" lon="3.30868">
        <ele>9.8</ele>
        <time>2023-10-28T08:29:40Z</time>
      </trkpt>
      <trkpt lat="50.82276" lon="3.30864">
        <ele>9.8</ele>
        <time>2023-10-28T08:29:41Z</time>
      </trkpt>
      <trkpt lat="50.82278" lon="3.30861">
        <ele>9.8</ele>
        <time>2023-10-28T08:29:42Z</time>
      </trkpt>
      <trkpt lat="50.8228" lon="3.30858">
        <ele>9.8</ele>
        <time>2023-10-28T08:29:43Z</time>
      </trkpt>
      <trkpt lat="50.82317" lon="3.30818">
        <ele>9.2</ele>
        <time>2023-10-28T08:29:55Z</time>
      </trkpt>
      <trkpt lat="50.82322" lon="3.30812">
        <ele>9</ele>
        <time>2023-10-28T08:29:56Z</time>
      </trkpt>
      <trkpt lat="50.82332" lon="3.30802">
        <ele>9</ele>
        <time>2023-10-28T08:29:57Z</time>
      </trkpt>
      <trkpt lat="50.82352" lon="3.30773">
        <ele>9</ele>
        <time>2023-10-28T08:30:02Z</time>
      </trkpt>
      <trkpt lat="50.82371" lon="3.30743">
        <ele>8.8</ele>
        <time>2023-10-28T08:30:07Z</time>
      </trkpt>
      <trkpt lat="50.82386" lon="3.30713">
        <ele>8.4</ele>
        <time>2023-10-28T08:30:11Z</time>
      </trkpt>
      <trkpt lat="50.824" lon="3.30681">
        <ele>8</ele>
        <time>2023-10-28T08:30:15Z</time>
      </trkpt>
      <trkpt lat="50.82417" lon="3.30648">
        <ele>7.4</ele>
        <time>2023-10-28T08:30:19Z</time>
      </trkpt>
      <trkpt lat="50.82422" lon="3.3064">
        <ele>7.4</ele>
        <time>2023-10-28T08:30:20Z</time>
      </trkpt>
      <trkpt lat="50.82426" lon="3.30632">
        <ele>7.2</ele>
        <time>2023-10-28T08:30:21Z</time>
      </trkpt>
      <trkpt lat="50.82439" lon="3.30608">
        <ele>6.8</ele>
        <time>2023-10-28T08:30:24Z</time>
      </trkpt>
      <trkpt lat="50.82449" lon="3.30594">
        <ele>6</ele>
        <time>2023-10-28T08:30:26Z</time>
      </trkpt>
      <trkpt lat="50.82463" lon="3.30572">
        <ele>5</ele>
        <time>2023-10-28T08:30:29Z</time>
      </trkpt>
      <trkpt lat="50.82469" lon="3.30566">
        <ele>4.8</ele>
        <time>2023-10-28T08:30:30Z</time>
      </trkpt>
      <trkpt lat="50.8248" lon="3.30555">
        <ele>4.6</ele>
        <time>2023-10-28T08:30:32Z</time>
      </trkpt>
      <trkpt lat="50.82505" lon="3.30534">
        <ele>3.8</ele>
        <time>2023-10-28T08:30:36Z</time>
      </trkpt>
      <trkpt lat="50.82532" lon="3.30517">
        <ele>3.2</ele>
        <time>2023-10-28T08:30:40Z</time>
      </trkpt>
      <trkpt lat="50.82569" lon="3.30502">
        <ele>3</ele>
        <time>2023-10-28T08:30:45Z</time>
      </trkpt>
      <trkpt lat="50.82577" lon="3.30499">
        <ele>2.8</ele>
        <time>2023-10-28T08:30:46Z</time>
      </trkpt>
      <trkpt lat="50.82584" lon="3.30496">
        <ele>2.8</ele>
        <time>2023-10-28T08:30:47Z</time>
      </trkpt>
      <trkpt lat="50.82591" lon="3.30494">
        <ele>2.8</ele>
        <time>2023-10-28T08:30:48Z</time>
      </trkpt>
      <trkpt lat="50.82598" lon="3.30491">
        <ele>2.6</ele>
        <time>2023-10-28T08:30:49Z</time>
      </trkpt>
      <trkpt lat="50.82604" lon="3.30488">
        <ele>2.6</ele>
        <time>2023-10-28T08:30:50Z</time>
      </trkpt>
      <trkpt lat="50.82618" lon="3.30481">
        <ele>2.2</ele>
        <time>2023-10-28T08:30:52Z</time>
      </trkpt>
      <trkpt lat="50.82624" lon="3.30478">
        <ele>1.8</ele>
        <time>2023-10-28T08:30:53Z</time>
      </trkpt>
      <trkpt lat="50.82631" lon="3.30474">
        <ele>1.6</ele>
        <time>2023-10-28T08:30:54Z</time>
      </trkpt>
      <trkpt lat="50.82636" lon="3.3047">
        <ele>1.6</ele>
        <time>2023-10-28T08:30:55Z</time>
      </trkpt>
      <trkpt lat="50.82643" lon="3.30466">
        <ele>1.4</ele>
        <time>2023-10-28T08:30:56Z</time>
      </trkpt>
      <trkpt lat="50.82649" lon="3.30463">
        <ele>1.2</ele>
        <time>2023-10-28T08:30:57Z</time>
      </trkpt>
      <trkpt lat="50.82649" lon="3.30463">
        <ele>1.2</ele>
        <time>2023-10-28T08:30:58Z</time>
      </trkpt>
      <trkpt lat="50.82661" lon="3.30458">
        <ele>1.2</ele>
        <time>2023-10-28T08:30:59Z</time>
      </trkpt>
      <trkpt lat="50.82668" lon="3.30455">
        <ele>1</ele>
        <time>2023-10-28T08:31:00Z</time>
      </trkpt>
      <trkpt lat="50.82674" lon="3.30452">
        <ele>1</ele>
        <time>2023-10-28T08:31:01Z</time>
      </trkpt>
      <trkpt lat="50.8268" lon="3.3045">
        <ele>1</ele>
        <time>2023-10-28T08:31:02Z</time>
      </trkpt>
      <trkpt lat="50.82687" lon="3.30448">
        <ele>1</ele>
        <time>2023-10-28T08:31:03Z</time>
      </trkpt>
      <trkpt lat="50.82692" lon="3.30445">
        <ele>1</ele>
        <time>2023-10-28T08:31:04Z</time>
      </trkpt>
      <trkpt lat="50.82698" lon="3.30441">
        <ele>0.80000000000001</ele>
        <time>2023-10-28T08:31:05Z</time>
      </trkpt>
      <trkpt lat="50.82704" lon="3.30438">
        <ele>0.80000000000001</ele>
        <time>2023-10-28T08:31:06Z</time>
      </trkpt>
      <trkpt lat="50.8271" lon="3.30434">
        <ele>0.80000000000001</ele>
        <time>2023-10-28T08:31:07Z</time>
      </trkpt>
      <trkpt lat="50.82746" lon="3.30408">
        <ele>0.80000000000001</ele>
        <time>2023-10-28T08:31:13Z</time>
      </trkpt>
      <trkpt lat="50.82774" lon="3.30392">
        <ele>0.60000000000002</ele>
        <time>2023-10-28T08:31:17Z</time>
      </trkpt>
      <trkpt lat="50.82779" lon="3.30385">
        <ele>0.60000000000002</ele>
        <time>2023-10-28T08:31:18Z</time>
      </trkpt>
      <trkpt lat="50.82784" lon="3.30379">
        <ele>0.60000000000002</ele>
        <time>2023-10-28T08:31:19Z</time>
      </trkpt>
      <trkpt lat="50.82787" lon="3.30375">
        <ele>0.60000000000002</ele>
        <time>2023-10-28T08:31:20Z</time>
      </trkpt>
      <trkpt lat="50.82793" lon="3.30371">
        <ele>0.60000000000002</ele>
        <time>2023-10-28T08:31:21Z</time>
      </trkpt>
      <trkpt lat="50.82797" lon="3.3037">
        <ele>0.60000000000002</ele>
        <time>2023-10-28T08:31:22Z</time>
      </trkpt>
      <trkpt lat="50.82802" lon="3.30371">
        <ele>0.80000000000001</ele>
        <time>2023-10-28T08:31:23Z</time>
      </trkpt>
      <trkpt lat="50.82806" lon="3.30371">
        <ele>0.80000000000001</ele>
        <time>2023-10-28T08:31:24Z</time>
      </trkpt>
      <trkpt lat="50.82809" lon="3.30372">
        <ele>0.80000000000001</ele>
        <time>2023-10-28T08:31:25Z</time>
      </trkpt>
      <trkpt lat="50.82812" lon="3.30373">
        <ele>1</ele>
        <time>2023-10-28T08:31:26Z</time>
      </trkpt>
      <trkpt lat="50.82813" lon="3.30376">
        <ele>1</ele>
        <time>2023-10-28T08:31:27Z</time>
      </trkpt>
      <trkpt lat="50.82814" lon="3.30379">
        <ele>1.2</ele>
        <time>2023-10-28T08:31:28Z</time>
      </trkpt>
      <trkpt lat="50.82813" lon="3.30383">
        <ele>1.2</ele>
        <time>2023-10-28T08:31:29Z</time>
      </trkpt>
      <trkpt lat="50.82813" lon="3.30387">
        <ele>1.4</ele>
        <time>2023-10-28T08:31:30Z</time>
      </trkpt>
      <trkpt lat="50.82812" lon="3.30393">
        <ele>1.4</ele>
        <time>2023-10-28T08:31:31Z</time>
      </trkpt>
      <trkpt lat="50.82811" lon="3.304">
        <ele>1.4</ele>
        <time>2023-10-28T08:31:32Z</time>
      </trkpt>
      <trkpt lat="50.8281" lon="3.30408">
        <ele>1.4</ele>
        <time>2023-10-28T08:31:33Z</time>
      </trkpt>
      <trkpt lat="50.82809" lon="3.30424">
        <ele>1.6</ele>
        <time>2023-10-28T08:31:35Z</time>
      </trkpt>
      <trkpt lat="50.82809" lon="3.30432">
        <ele>2</ele>
        <time>2023-10-28T08:31:36Z</time>
      </trkpt>
      <trkpt lat="50.82809" lon="3.3044">
        <ele>2.2</ele>
        <time>2023-10-28T08:31:37Z</time>
      </trkpt>
      <trkpt lat="50.82808" lon="3.30448">
        <ele>2.2</ele>
        <time>2023-10-28T08:31:38Z</time>
      </trkpt>
      <trkpt lat="50.82807" lon="3.30455">
        <ele>2.4</ele>
        <time>2023-10-28T08:31:39Z</time>
      </trkpt>
      <trkpt lat="50.82807" lon="3.30462">
        <ele>2.4</ele>
        <time>2023-10-28T08:31:40Z</time>
      </trkpt>
      <trkpt lat="50.82807" lon="3.30469">
        <ele>2.6</ele>
        <time>2023-10-28T08:31:41Z</time>
      </trkpt>
      <trkpt lat="50.82806" lon="3.30474">
        <ele>2.8</ele>
        <time>2023-10-28T08:31:42Z</time>
      </trkpt>
      <trkpt lat="50.82805" lon="3.30477">
        <ele>2.8</ele>
        <time>2023-10-28T08:31:43Z</time>
      </trkpt>
      <trkpt lat="50.82803" lon="3.30477">
        <ele>3</ele>
        <time>2023-10-28T08:31:44Z</time>
      </trkpt>
      <trkpt lat="50.82802" lon="3.30475">
        <ele>3.2</ele>
        <time>2023-10-28T08:31:45Z</time>
      </trkpt>
      <trkpt lat="50.82803" lon="3.30466">
        <ele>3.4</ele>
        <time>2023-10-28T08:31:47Z</time>
      </trkpt>
      <trkpt lat="50.82804" lon="3.30455">
        <ele>3.8</ele>
        <time>2023-10-28T08:31:49Z</time>
      </trkpt>
      <trkpt lat="50.82805" lon="3.30443">
        <ele>4.2</ele>
        <time>2023-10-28T08:31:51Z</time>
      </trkpt>
      <trkpt lat="50.82806" lon="3.30436">
        <ele>4.4</ele>
        <time>2023-10-28T08:31:52Z</time>
      </trkpt>
      <trkpt lat="50.82806" lon="3.3043">
        <ele>4.6</ele>
        <time>2023-10-28T08:31:53Z</time>
      </trkpt>
      <trkpt lat="50.82807" lon="3.30424">
        <ele>4.8</ele>
        <time>2023-10-28T08:31:54Z</time>
      </trkpt>
      <trkpt lat="50.82807" lon="3.30417">
        <ele>5</ele>
        <time>2023-10-28T08:31:55Z</time>
      </trkpt>
      <trkpt lat="50.82807" lon="3.30411">
        <ele>5</ele>
        <time>2023-10-28T08:31:56Z</time>
      </trkpt>
      <trkpt lat="50.82808" lon="3.30406">
        <ele>5.4</ele>
        <time>2023-10-28T08:31:57Z</time>
      </trkpt>
      <trkpt lat="50.82808" lon="3.30398">
        <ele>5.4</ele>
        <time>2023-10-28T08:31:58Z</time>
      </trkpt>
      <trkpt lat="50.82808" lon="3.30392">
        <ele>5.6</ele>
        <time>2023-10-28T08:31:59Z</time>
      </trkpt>
      <trkpt lat="50.82808" lon="3.30386">
        <ele>5.8</ele>
        <time>2023-10-28T08:32:00Z</time>
      </trkpt>
      <trkpt lat="50.82808" lon="3.3038">
        <ele>5.8</ele>
        <time>2023-10-28T08:32:01Z</time>
      </trkpt>
      <trkpt lat="50.82808" lon="3.30375">
        <ele>5.8</ele>
        <time>2023-10-28T08:32:02Z</time>
      </trkpt>
      <trkpt lat="50.82809" lon="3.3037">
        <ele>5.8</ele>
        <time>2023-10-28T08:32:03Z</time>
      </trkpt>
      <trkpt lat="50.8281" lon="3.30366">
        <ele>6.2</ele>
        <time>2023-10-28T08:32:04Z</time>
      </trkpt>
      <trkpt lat="50.82813" lon="3.30364">
        <ele>6.4</ele>
        <time>2023-10-28T08:32:05Z</time>
      </trkpt>
      <trkpt lat="50.82816" lon="3.30364">
        <ele>6.8</ele>
        <time>2023-10-28T08:32:06Z</time>
      </trkpt>
      <trkpt lat="50.8282" lon="3.30365">
        <ele>7.2</ele>
        <time>2023-10-28T08:32:07Z</time>
      </trkpt>
      <trkpt lat="50.82825" lon="3.30365">
        <ele>7.4</ele>
        <time>2023-10-28T08:32:08Z</time>
      </trkpt>
      <trkpt lat="50.82829" lon="3.30365">
        <ele>7.8</ele>
        <time>2023-10-28T08:32:09Z</time>
      </trkpt>
      <trkpt lat="50.82833" lon="3.30365">
        <ele>8</ele>
        <time>2023-10-28T08:32:10Z</time>
      </trkpt>
      <trkpt lat="50.82838" lon="3.30365">
        <ele>8.2</ele>
        <time>2023-10-28T08:32:11Z</time>
      </trkpt>
      <trkpt lat="50.82842" lon="3.30365">
        <ele>8.2</ele>
        <time>2023-10-28T08:32:12Z</time>
      </trkpt>
      <trkpt lat="50.82847" lon="3.30364">
        <ele>8.4</ele>
        <time>2023-10-28T08:32:13Z</time>
      </trkpt>
      <trkpt lat="50.82852" lon="3.30363">
        <ele>8.4</ele>
        <time>2023-10-28T08:32:14Z</time>
      </trkpt>
      <trkpt lat="50.82857" lon="3.30361">
        <ele>8.4</ele>
        <time>2023-10-28T08:32:15Z</time>
      </trkpt>
      <trkpt lat="50.82862" lon="3.3036">
        <ele>8.4</ele>
        <time>2023-10-28T08:32:16Z</time>
      </trkpt>
      <trkpt lat="50.82868" lon="3.30359">
        <ele>8.4</ele>
        <time>2023-10-28T08:32:17Z</time>
      </trkpt>
      <trkpt lat="50.82875" lon="3.30356">
        <ele>8.4</ele>
        <time>2023-10-28T08:32:18Z</time>
      </trkpt>
      <trkpt lat="50.82881" lon="3.30354">
        <ele>8.4</ele>
        <time>2023-10-28T08:32:19Z</time>
      </trkpt>
      <trkpt lat="50.82888" lon="3.30352">
        <ele>8.4</ele>
        <time>2023-10-28T08:32:20Z</time>
      </trkpt>
      <trkpt lat="50.82893" lon="3.3035">
        <ele>8.4</ele>
        <time>2023-10-28T08:32:21Z</time>
      </trkpt>
      <trkpt lat="50.82899" lon="3.30349">
        <ele>8.4</ele>
        <time>2023-10-28T08:32:22Z</time>
      </trkpt>
      <trkpt lat="50.82905" lon="3.30347">
        <ele>8.2</ele>
        <time>2023-10-28T08:32:23Z</time>
      </trkpt>
      <trkpt lat="50.82907" lon="3.30345">
        <ele>8.2</ele>
        <time>2023-10-28T08:32:24Z</time>
      </trkpt>
      <trkpt lat="50.82906" lon="3.30343">
        <ele>8</ele>
        <time>2023-10-28T08:32:25Z</time>
      </trkpt>
      <trkpt lat="50.82903" lon="3.30343">
        <ele>7.4</ele>
        <time>2023-10-28T08:32:26Z</time>
      </trkpt>
      <trkpt lat="50.82899" lon="3.30344">
        <ele>7</ele>
        <time>2023-10-28T08:32:27Z</time>
      </trkpt>
      <trkpt lat="50.82883" lon="3.3035">
        <ele>5.6</ele>
        <time>2023-10-28T08:32:30Z</time>
      </trkpt>
      <trkpt lat="50.82851" lon="3.3036">
        <ele>4.6</ele>
        <time>2023-10-28T08:32:35Z</time>
      </trkpt>
      <trkpt lat="50.82846" lon="3.30361">
        <ele>4.2</ele>
        <time>2023-10-28T08:32:36Z</time>
      </trkpt>
      <trkpt lat="50.82842" lon="3.30365">
        <ele>4</ele>
        <time>2023-10-28T08:32:37Z</time>
      </trkpt>
      <trkpt lat="50.8284" lon="3.30371">
        <ele>4</ele>
        <time>2023-10-28T08:32:38Z</time>
      </trkpt>
      <trkpt lat="50.82839" lon="3.30379">
        <ele>3.6</ele>
        <time>2023-10-28T08:32:39Z</time>
      </trkpt>
      <trkpt lat="50.82839" lon="3.30387">
        <ele>3</ele>
        <time>2023-10-28T08:32:40Z</time>
      </trkpt>
      <trkpt lat="50.8284" lon="3.30402">
        <ele>2</ele>
        <time>2023-10-28T08:32:42Z</time>
      </trkpt>
      <trkpt lat="50.82841" lon="3.3041">
        <ele>1.6</ele>
        <time>2023-10-28T08:32:43Z</time>
      </trkpt>
      <trkpt lat="50.82846" lon="3.30479">
        <ele>0.80000000000001</ele>
        <time>2023-10-28T08:32:51Z</time>
      </trkpt>
      <trkpt lat="50.82848" lon="3.30555">
        <ele>0.60000000000002</ele>
        <time>2023-10-28T08:32:59Z</time>
      </trkpt>
      <trkpt lat="50.82846" lon="3.30645">
        <ele>0.80000000000001</ele>
        <time>2023-10-28T08:33:08Z</time>
      </trkpt>
      <trkpt lat="50.82847" lon="3.30692">
        <ele>0.39999999999998</ele>
        <time>2023-10-28T08:33:13Z</time>
      </trkpt>
      <trkpt lat="50.82847" lon="3.30702">
        <ele>0.39999999999998</ele>
        <time>2023-10-28T08:33:14Z</time>
      </trkpt>
      <trkpt lat="50.82845" lon="3.30783">
        <ele>0.39999999999998</ele>
        <time>2023-10-28T08:33:22Z</time>
      </trkpt>
      <trkpt lat="50.82845" lon="3.30789">
        <ele>0.39999999999998</ele>
        <time>2023-10-28T08:33:23Z</time>
      </trkpt>
      <trkpt lat="50.82846" lon="3.30796">
        <ele>0.39999999999998</ele>
        <time>2023-10-28T08:33:24Z</time>
      </trkpt>
      <trkpt lat="50.82846" lon="3.30802">
        <ele>0.39999999999998</ele>
        <time>2023-10-28T08:33:25Z</time>
      </trkpt>
      <trkpt lat="50.82847" lon="3.30806">
        <ele>0.39999999999998</ele>
        <time>2023-10-28T08:33:26Z</time>
      </trkpt>
      <trkpt lat="50.82848" lon="3.30806">
        <ele>0.39999999999998</ele>
        <time>2023-10-28T08:33:27Z</time>
      </trkpt>
      <trkpt lat="50.82849" lon="3.30805">
        <ele>0.39999999999998</ele>
        <time>2023-10-28T08:33:28Z</time>
      </trkpt>
      <trkpt lat="50.82851" lon="3.30805">
        <ele>0.39999999999998</ele>
        <time>2023-10-28T08:33:29Z</time>
      </trkpt>
      <trkpt lat="50.82855" lon="3.30811">
        <ele>0.19999999999999</ele>
        <time>2023-10-28T08:33:31Z</time>
      </trkpt>
      <trkpt lat="50.82856" lon="3.30831">
        <ele>0.60000000000002</ele>
        <time>2023-10-28T08:33:34Z</time>
      </trkpt>
      <trkpt lat="50.82856" lon="3.3084">
        <ele>0.80000000000001</ele>
        <time>2023-10-28T08:33:35Z</time>
      </trkpt>
      <trkpt lat="50.82856" lon="3.3085">
        <ele>0.80000000000001</ele>
        <time>2023-10-28T08:33:36Z</time>
      </trkpt>
      <trkpt lat="50.82857" lon="3.30882">
        <ele>0.80000000000001</ele>
        <time>2023-10-28T08:33:40Z</time>
      </trkpt>
      <trkpt lat="50.82858" lon="3.30891">
        <ele>0.80000000000001</ele>
        <time>2023-10-28T08:33:41Z</time>
      </trkpt>
      <trkpt lat="50.8286" lon="3.30918">
        <ele>0.80000000000001</ele>
        <time>2023-10-28T08:33:44Z</time>
      </trkpt>
      <trkpt lat="50.8286" lon="3.30924">
        <ele>0.60000000000002</ele>
        <time>2023-10-28T08:33:45Z</time>
      </trkpt>
      <trkpt lat="50.82862" lon="3.30952">
        <ele>0.39999999999998</ele>
        <time>2023-10-28T08:33:48Z</time>
      </trkpt>
      <trkpt lat="50.82862" lon="3.30959">
        <ele>0.39999999999998</ele>
        <time>2023-10-28T08:33:49Z</time>
      </trkpt>
      <trkpt lat="50.82863" lon="3.30986">
        <ele>0.39999999999998</ele>
        <time>2023-10-28T08:33:52Z</time>
      </trkpt>
      <trkpt lat="50.82863" lon="3.30986">
        <ele>0.39999999999998</ele>
        <time>2023-10-28T08:33:53Z</time>
      </trkpt>
      <trkpt lat="50.82864" lon="3.31002">
        <ele>0.39999999999998</ele>
        <time>2023-10-28T08:33:54Z</time>
      </trkpt>
      <trkpt lat="50.82865" lon="3.3101">
        <ele>0.39999999999998</ele>
        <time>2023-10-28T08:33:55Z</time>
      </trkpt>
      <trkpt lat="50.82868" lon="3.31028">
        <ele>0.39999999999998</ele>
        <time>2023-10-28T08:33:57Z</time>
      </trkpt>
      <trkpt lat="50.82869" lon="3.31035">
        <ele>0.39999999999998</ele>
        <time>2023-10-28T08:33:58Z</time>
      </trkpt>
      <trkpt lat="50.8287" lon="3.31044">
        <ele>0.39999999999998</ele>
        <time>2023-10-28T08:33:59Z</time>
      </trkpt>
      <trkpt lat="50.82871" lon="3.31053">
        <ele>0.60000000000002</ele>
        <time>2023-10-28T08:34:00Z</time>
      </trkpt>
      <trkpt lat="50.82871" lon="3.31059">
        <ele>0.39999999999998</ele>
        <time>2023-10-28T08:34:01Z</time>
      </trkpt>
      <trkpt lat="50.82873" lon="3.31077">
        <ele>0.39999999999998</ele>
        <time>2023-10-28T08:34:03Z</time>
      </trkpt>
      <trkpt lat="50.82874" lon="3.31085">
        <ele>0.39999999999998</ele>
        <time>2023-10-28T08:34:04Z</time>
      </trkpt>
      <trkpt lat="50.82875" lon="3.31093">
        <ele>0.39999999999998</ele>
        <time>2023-10-28T08:34:05Z</time>
      </trkpt>
      <trkpt lat="50.82875" lon="3.31099">
        <ele>0.39999999999998</ele>
        <time>2023-10-28T08:34:06Z</time>
      </trkpt>
      <trkpt lat="50.82875" lon="3.31109">
        <ele>0.60000000000002</ele>
        <time>2023-10-28T08:34:07Z</time>
      </trkpt>
      <trkpt lat="50.82877" lon="3.31126">
        <ele>0.60000000000002</ele>
        <time>2023-10-28T08:34:09Z</time>
      </trkpt>
      <trkpt lat="50.82878" lon="3.31143">
        <ele>0.60000000000002</ele>
        <time>2023-10-28T08:34:11Z</time>
      </trkpt>
      <trkpt lat="50.82879" lon="3.31153">
        <ele>0.60000000000002</ele>
        <time>2023-10-28T08:34:12Z</time>
      </trkpt>
      <trkpt lat="50.8288" lon="3.31161">
        <ele>0.60000000000002</ele>
        <time>2023-10-28T08:34:13Z</time>
      </trkpt>
      <trkpt lat="50.8288" lon="3.31168">
        <ele>0.60000000000002</ele>
        <time>2023-10-28T08:34:14Z</time>
      </trkpt>
      <trkpt lat="50.82881" lon="3.31177">
        <ele>0.60000000000002</ele>
        <time>2023-10-28T08:34:15Z</time>
      </trkpt>
      <trkpt lat="50.82881" lon="3.31185">
        <ele>0.60000000000002</ele>
        <time>2023-10-28T08:34:16Z</time>
      </trkpt>
      <trkpt lat="50.82882" lon="3.31193">
        <ele>0.60000000000002</ele>
        <time>2023-10-28T08:34:17Z</time>
      </trkpt>
      <trkpt lat="50.82883" lon="3.31201">
        <ele>0.80000000000001</ele>
        <time>2023-10-28T08:34:18Z</time>
      </trkpt>
      <trkpt lat="50.82884" lon="3.31209">
        <ele>0.80000000000001</ele>
        <time>2023-10-28T08:34:19Z</time>
      </trkpt>
      <trkpt lat="50.82886" lon="3.31216">
        <ele>0.80000000000001</ele>
        <time>2023-10-28T08:34:20Z</time>
      </trkpt>
      <trkpt lat="50.82887" lon="3.31224">
        <ele>1</ele>
        <time>2023-10-28T08:34:21Z</time>
      </trkpt>
      <trkpt lat="50.82888" lon="3.31231">
        <ele>1</ele>
        <time>2023-10-28T08:34:22Z</time>
      </trkpt>
      <trkpt lat="50.82889" lon="3.31238">
        <ele>1.2</ele>
        <time>2023-10-28T08:34:23Z</time>
      </trkpt>
      <trkpt lat="50.82891" lon="3.31244">
        <ele>1.2</ele>
        <time>2023-10-28T08:34:24Z</time>
      </trkpt>
      <trkpt lat="50.82893" lon="3.31251">
        <ele>1.4</ele>
        <time>2023-10-28T08:34:25Z</time>
      </trkpt>
      <trkpt lat="50.82897" lon="3.31276">
        <ele>1.4</ele>
        <time>2023-10-28T08:34:28Z</time>
      </trkpt>
      <trkpt lat="50.82901" lon="3.31347">
        <ele>1.4</ele>
        <time>2023-10-28T08:34:36Z</time>
      </trkpt>
      <trkpt lat="50.82908" lon="3.31403">
        <ele>1.4</ele>
        <time>2023-10-28T08:34:43Z</time>
      </trkpt>
      <trkpt lat="50.82908" lon="3.31411">
        <ele>1.4</ele>
        <time>2023-10-28T08:34:44Z</time>
      </trkpt>
      <trkpt lat="50.82909" lon="3.31419">
        <ele>1.4</ele>
        <time>2023-10-28T08:34:45Z</time>
      </trkpt>
      <trkpt lat="50.82909" lon="3.31427">
        <ele>1.4</ele>
        <time>2023-10-28T08:34:46Z</time>
      </trkpt>
      <trkpt lat="50.82909" lon="3.31435">
        <ele>1.4</ele>
        <time>2023-10-28T08:34:47Z</time>
      </trkpt>
      <trkpt lat="50.82909" lon="3.31442">
        <ele>1.4</ele>
        <time>2023-10-28T08:34:48Z</time>
      </trkpt>
      <trkpt lat="50.82909" lon="3.31448">
        <ele>1.4</ele>
        <time>2023-10-28T08:34:49Z</time>
      </trkpt>
      <trkpt lat="50.82909" lon="3.31453">
        <ele>1.4</ele>
        <time>2023-10-28T08:34:50Z</time>
      </trkpt>
      <trkpt lat="50.82909" lon="3.31454">
        <ele>1.6</ele>
        <time>2023-10-28T08:34:51Z</time>
      </trkpt>
      <trkpt lat="50.82909" lon="3.31454">
        <ele>1.6</ele>
        <time>2023-10-28T08:34:52Z</time>
      </trkpt>
      <trkpt lat="50.82909" lon="3.31455">
        <ele>1.6</ele>
        <time>2023-10-28T08:34:53Z</time>
      </trkpt>
      <trkpt lat="50.82909" lon="3.31458">
        <ele>1.6</ele>
        <time>2023-10-28T08:34:54Z</time>
      </trkpt>
      <trkpt lat="50.82909" lon="3.31468">
        <ele>2</ele>
        <time>2023-10-28T08:34:57Z</time>
      </trkpt>
      <trkpt lat="50.82909" lon="3.31473">
        <ele>2</ele>
        <time>2023-10-28T08:34:58Z</time>
      </trkpt>
      <trkpt lat="50.8291" lon="3.31488">
        <ele>2</ele>
        <time>2023-10-28T08:35:01Z</time>
      </trkpt>
      <trkpt lat="50.82913" lon="3.31516">
        <ele>2</ele>
        <time>2023-10-28T08:35:05Z</time>
      </trkpt>
      <trkpt lat="50.82913" lon="3.31539">
        <ele>2</ele>
        <time>2023-10-28T08:35:08Z</time>
      </trkpt>
      <trkpt lat="50.82912" lon="3.31547">
        <ele>1.8</ele>
        <time>2023-10-28T08:35:09Z</time>
      </trkpt>
      <trkpt lat="50.82911" lon="3.31555">
        <ele>1.6</ele>
        <time>2023-10-28T08:35:10Z</time>
      </trkpt>
      <trkpt lat="50.82911" lon="3.31564">
        <ele>1.6</ele>
        <time>2023-10-28T08:35:11Z</time>
      </trkpt>
      <trkpt lat="50.82911" lon="3.31597">
        <ele>1.6</ele>
        <time>2023-10-28T08:35:15Z</time>
      </trkpt>
      <trkpt lat="50.82912" lon="3.31622">
        <ele>1.6</ele>
        <time>2023-10-28T08:35:18Z</time>
      </trkpt>
      <trkpt lat="50.82912" lon="3.31641">
        <ele>1.4</ele>
        <time>2023-10-28T08:35:20Z</time>
      </trkpt>
      <trkpt lat="50.82911" lon="3.31649">
        <ele>1.2</ele>
        <time>2023-10-28T08:35:21Z</time>
      </trkpt>
      <trkpt lat="50.8291" lon="3.31674">
        <ele>1.2</ele>
        <time>2023-10-28T08:35:24Z</time>
      </trkpt>
      <trkpt lat="50.82909" lon="3.31689">
        <ele>1.2</ele>
        <time>2023-10-28T08:35:26Z</time>
      </trkpt>
      <trkpt lat="50.82908" lon="3.31695">
        <ele>1.2</ele>
        <time>2023-10-28T08:35:27Z</time>
      </trkpt>
      <trkpt lat="50.82908" lon="3.31701">
        <ele>1.4</ele>
        <time>2023-10-28T08:35:28Z</time>
      </trkpt>
      <trkpt lat="50.82908" lon="3.31706">
        <ele>1.4</ele>
        <time>2023-10-28T08:35:29Z</time>
      </trkpt>
      <trkpt lat="50.82908" lon="3.3171">
        <ele>1.4</ele>
        <time>2023-10-28T08:35:30Z</time>
      </trkpt>
      <trkpt lat="50.82909" lon="3.31717">
        <ele>1.4</ele>
        <time>2023-10-28T08:35:31Z</time>
      </trkpt>
      <trkpt lat="50.82911" lon="3.31722">
        <ele>1.4</ele>
        <time>2023-10-28T08:35:32Z</time>
      </trkpt>
      <trkpt lat="50.82915" lon="3.31724">
        <ele>1.4</ele>
        <time>2023-10-28T08:35:33Z</time>
      </trkpt>
      <trkpt lat="50.82918" lon="3.31725">
        <ele>1.4</ele>
        <time>2023-10-28T08:35:34Z</time>
      </trkpt>
      <trkpt lat="50.82927" lon="3.31723">
        <ele>1.4</ele>
        <time>2023-10-28T08:35:36Z</time>
      </trkpt>
      <trkpt lat="50.82932" lon="3.3172">
        <ele>1.6</ele>
        <time>2023-10-28T08:35:37Z</time>
      </trkpt>
      <trkpt lat="50.82937" lon="3.31717">
        <ele>1.6</ele>
        <time>2023-10-28T08:35:38Z</time>
      </trkpt>
      <trkpt lat="50.82967" lon="3.31692">
        <ele>2</ele>
        <time>2023-10-28T08:35:44Z</time>
      </trkpt>
      <trkpt lat="50.82977" lon="3.31683">
        <ele>2</ele>
        <time>2023-10-28T08:35:46Z</time>
      </trkpt>
      <trkpt lat="50.83012" lon="3.31655">
        <ele>1.4</ele>
        <time>2023-10-28T08:35:52Z</time>
      </trkpt>
      <trkpt lat="50.83049" lon="3.31622">
        <ele>0.60000000000002</ele>
        <time>2023-10-28T08:35:59Z</time>
      </trkpt>
      <trkpt lat="50.83053" lon="3.31618">
        <ele>0.60000000000002</ele>
        <time>2023-10-28T08:36:00Z</time>
      </trkpt>
      <trkpt lat="50.83058" lon="3.31615">
        <ele>0.60000000000002</ele>
        <time>2023-10-28T08:36:01Z</time>
      </trkpt>
      <trkpt lat="50.8307" lon="3.31607">
        <ele>0.39999999999998</ele>
        <time>2023-10-28T08:36:03Z</time>
      </trkpt>
      <trkpt lat="50.83081" lon="3.31602">
        <ele>0.19999999999999</ele>
        <time>2023-10-28T08:36:05Z</time>
      </trkpt>
      <trkpt lat="50.83086" lon="3.31599">
        <ele>0.19999999999999</ele>
        <time>2023-10-28T08:36:06Z</time>
      </trkpt>
      <trkpt lat="50.83092" lon="3.31596">
        <ele>0.19999999999999</ele>
        <time>2023-10-28T08:36:07Z</time>
      </trkpt>
      <trkpt lat="50.83132" lon="3.31576">
        <ele>0.19999999999999</ele>
        <time>2023-10-28T08:36:14Z</time>
      </trkpt>
      <trkpt lat="50.83148" lon="3.31568">
        <ele>0.19999999999999</ele>
        <time>2023-10-28T08:36:17Z</time>
      </trkpt>
      <trkpt lat="50.83154" lon="3.31565">
        <ele>0.19999999999999</ele>
        <time>2023-10-28T08:36:18Z</time>
      </trkpt>
      <trkpt lat="50.83158" lon="3.31562">
        <ele>0.19999999999999</ele>
        <time>2023-10-28T08:36:19Z</time>
      </trkpt>
      <trkpt lat="50.83163" lon="3.31559">
        <ele>0.19999999999999</ele>
        <time>2023-10-28T08:36:20Z</time>
      </trkpt>
      <trkpt lat="50.83167" lon="3.31558">
        <ele>0.19999999999999</ele>
        <time>2023-10-28T08:36:21Z</time>
      </trkpt>
      <trkpt lat="50.83172" lon="3.31555">
        <ele>0.19999999999999</ele>
        <time>2023-10-28T08:36:22Z</time>
      </trkpt>
      <trkpt lat="50.83176" lon="3.31552">
        <ele>0.19999999999999</ele>
        <time>2023-10-28T08:36:23Z</time>
      </trkpt>
      <trkpt lat="50.83182" lon="3.31549">
        <ele>0.19999999999999</ele>
        <time>2023-10-28T08:36:24Z</time>
      </trkpt>
      <trkpt lat="50.83185" lon="3.31548">
        <ele>0.19999999999999</ele>
        <time>2023-10-28T08:36:25Z</time>
      </trkpt>
      <trkpt lat="50.83188" lon="3.3155">
        <ele>0.39999999999998</ele>
        <time>2023-10-28T08:36:26Z</time>
      </trkpt>
      <trkpt lat="50.8319" lon="3.31555">
        <ele>0.60000000000002</ele>
        <time>2023-10-28T08:36:27Z</time>
      </trkpt>
      <trkpt lat="50.83192" lon="3.31561">
        <ele>0.60000000000002</ele>
        <time>2023-10-28T08:36:28Z</time>
      </trkpt>
      <trkpt lat="50.83193" lon="3.31577">
        <ele>0.80000000000001</ele>
        <time>2023-10-28T08:36:30Z</time>
      </trkpt>
      <trkpt lat="50.83194" lon="3.31585">
        <ele>0.80000000000001</ele>
        <time>2023-10-28T08:36:31Z</time>
      </trkpt>
      <trkpt lat="50.83199" lon="3.31641">
        <ele>1.2</ele>
        <time>2023-10-28T08:36:38Z</time>
      </trkpt>
      <trkpt lat="50.83205" lon="3.31654">
        <ele>1.2</ele>
        <time>2023-10-28T08:36:40Z</time>
      </trkpt>
      <trkpt lat="50.83209" lon="3.31656">
        <ele>1.2</ele>
        <time>2023-10-28T08:36:41Z</time>
      </trkpt>
      <trkpt lat="50.83213" lon="3.31656">
        <ele>1.2</ele>
        <time>2023-10-28T08:36:42Z</time>
      </trkpt>
      <trkpt lat="50.83218" lon="3.31655">
        <ele>1.2</ele>
        <time>2023-10-28T08:36:43Z</time>
      </trkpt>
      <trkpt lat="50.83223" lon="3.31654">
        <ele>1.2</ele>
        <time>2023-10-28T08:36:44Z</time>
      </trkpt>
      <trkpt lat="50.83229" lon="3.31653">
        <ele>1.2</ele>
        <time>2023-10-28T08:36:45Z</time>
      </trkpt>
      <trkpt lat="50.83272" lon="3.31645">
        <ele>0.60000000000002</ele>
        <time>2023-10-28T08:36:53Z</time>
      </trkpt>
      <trkpt lat="50.8329" lon="3.31638">
        <ele>0.60000000000002</ele>
        <time>2023-10-28T08:36:56Z</time>
      </trkpt>
      <trkpt lat="50.83301" lon="3.31632">
        <ele>0.60000000000002</ele>
        <time>2023-10-28T08:36:58Z</time>
      </trkpt>
      <trkpt lat="50.8332" lon="3.31618">
        <ele>0.60000000000002</ele>
        <time>2023-10-28T08:37:02Z</time>
      </trkpt>
      <trkpt lat="50.83324" lon="3.31616">
        <ele>0.60000000000002</ele>
        <time>2023-10-28T08:37:03Z</time>
      </trkpt>
      <trkpt lat="50.83327" lon="3.31616">
        <ele>0.60000000000002</ele>
        <time>2023-10-28T08:37:04Z</time>
      </trkpt>
      <trkpt lat="50.83329" lon="3.31618">
        <ele>0.60000000000002</ele>
        <time>2023-10-28T08:37:05Z</time>
      </trkpt>
      <trkpt lat="50.83331" lon="3.31622">
        <ele>0.60000000000002</ele>
        <time>2023-10-28T08:37:06Z</time>
      </trkpt>
      <trkpt lat="50.83333" lon="3.31629">
        <ele>0.60000000000002</ele>
        <time>2023-10-28T08:37:07Z</time>
      </trkpt>
      <trkpt lat="50.83338" lon="3.31634">
        <ele>0.80000000000001</ele>
        <time>2023-10-28T08:37:09Z</time>
      </trkpt>
      <trkpt lat="50.83342" lon="3.31635">
        <ele>0.80000000000001</ele>
        <time>2023-10-28T08:37:10Z</time>
      </trkpt>
      <trkpt lat="50.83351" lon="3.31636">
        <ele>0.80000000000001</ele>
        <time>2023-10-28T08:37:12Z</time>
      </trkpt>
      <trkpt lat="50.83355" lon="3.31638">
        <ele>0.80000000000001</ele>
        <time>2023-10-28T08:37:13Z</time>
      </trkpt>
      <trkpt lat="50.83371" lon="3.31644">
        <ele>1</ele>
        <time>2023-10-28T08:37:17Z</time>
      </trkpt>
      <trkpt lat="50.83377" lon="3.31651">
        <ele>1</ele>
        <time>2023-10-28T08:37:19Z</time>
      </trkpt>
      <trkpt lat="50.83379" lon="3.31656">
        <ele>1</ele>
        <time>2023-10-28T08:37:20Z</time>
      </trkpt>
      <trkpt lat="50.83382" lon="3.3167">
        <ele>1</ele>
        <time>2023-10-28T08:37:22Z</time>
      </trkpt>
      <trkpt lat="50.83384" lon="3.31678">
        <ele>1</ele>
        <time>2023-10-28T08:37:23Z</time>
      </trkpt>
      <trkpt lat="50.8339" lon="3.31707">
        <ele>1</ele>
        <time>2023-10-28T08:37:27Z</time>
      </trkpt>
      <trkpt lat="50.83392" lon="3.31716">
        <ele>1.2</ele>
        <time>2023-10-28T08:37:28Z</time>
      </trkpt>
      <trkpt lat="50.83406" lon="3.31772">
        <ele>1.2</ele>
        <time>2023-10-28T08:37:35Z</time>
      </trkpt>
      <trkpt lat="50.83415" lon="3.31804">
        <ele>1</ele>
        <time>2023-10-28T08:37:39Z</time>
      </trkpt>
      <trkpt lat="50.83416" lon="3.31809">
        <ele>1</ele>
        <time>2023-10-28T08:37:40Z</time>
      </trkpt>
      <trkpt lat="50.83418" lon="3.31812">
        <ele>1</ele>
        <time>2023-10-28T08:37:41Z</time>
      </trkpt>
      <trkpt lat="50.8342" lon="3.31815">
        <ele>1</ele>
        <time>2023-10-28T08:37:42Z</time>
      </trkpt>
      <trkpt lat="50.83424" lon="3.31817">
        <ele>1</ele>
        <time>2023-10-28T08:37:43Z</time>
      </trkpt>
      <trkpt lat="50.83426" lon="3.31818">
        <ele>1</ele>
        <time>2023-10-28T08:37:44Z</time>
      </trkpt>
      <trkpt lat="50.8343" lon="3.31817">
        <ele>1</ele>
        <time>2023-10-28T08:37:45Z</time>
      </trkpt>
      <trkpt lat="50.83433" lon="3.31817">
        <ele>1.2</ele>
        <time>2023-10-28T08:37:46Z</time>
      </trkpt>
      <trkpt lat="50.83437" lon="3.31816">
        <ele>1.2</ele>
        <time>2023-10-28T08:37:47Z</time>
      </trkpt>
      <trkpt lat="50.83451" lon="3.31813">
        <ele>1.4</ele>
        <time>2023-10-28T08:37:50Z</time>
      </trkpt>
      <trkpt lat="50.83482" lon="3.31808">
        <ele>1.8</ele>
        <time>2023-10-28T08:37:56Z</time>
      </trkpt>
      <trkpt lat="50.83486" lon="3.31808">
        <ele>1.8</ele>
        <time>2023-10-28T08:37:57Z</time>
      </trkpt>
      <trkpt lat="50.83523" lon="3.31803">
        <ele>1.6</ele>
        <time>2023-10-28T08:38:04Z</time>
      </trkpt>
      <trkpt lat="50.83537" lon="3.318">
        <ele>1.6</ele>
        <time>2023-10-28T08:38:07Z</time>
      </trkpt>
      <trkpt lat="50.83542" lon="3.31799">
        <ele>1.6</ele>
        <time>2023-10-28T08:38:08Z</time>
      </trkpt>
      <trkpt lat="50.83547" lon="3.31798">
        <ele>1.6</ele>
        <time>2023-10-28T08:38:09Z</time>
      </trkpt>
      <trkpt lat="50.83557" lon="3.31796">
        <ele>1.6</ele>
        <time>2023-10-28T08:38:11Z</time>
      </trkpt>
      <trkpt lat="50.83561" lon="3.31795">
        <ele>1.6</ele>
        <time>2023-10-28T08:38:12Z</time>
      </trkpt>
      <trkpt lat="50.83587" lon="3.31786">
        <ele>1.6</ele>
        <time>2023-10-28T08:38:17Z</time>
      </trkpt>
      <trkpt lat="50.83602" lon="3.31776">
        <ele>1.6</ele>
        <time>2023-10-28T08:38:20Z</time>
      </trkpt>
      <trkpt lat="50.83612" lon="3.3177">
        <ele>1.6</ele>
        <time>2023-10-28T08:38:22Z</time>
      </trkpt>
      <trkpt lat="50.8362" lon="3.31769">
        <ele>1.4</ele>
        <time>2023-10-28T08:38:24Z</time>
      </trkpt>
      <trkpt lat="50.83624" lon="3.31771">
        <ele>1.4</ele>
        <time>2023-10-28T08:38:25Z</time>
      </trkpt>
      <trkpt lat="50.83627" lon="3.31777">
        <ele>1.4</ele>
        <time>2023-10-28T08:38:26Z</time>
      </trkpt>
      <trkpt lat="50.83629" lon="3.31785">
        <ele>1.2</ele>
        <time>2023-10-28T08:38:27Z</time>
      </trkpt>
      <trkpt lat="50.8363" lon="3.31809">
        <ele>1.2</ele>
        <time>2023-10-28T08:38:30Z</time>
      </trkpt>
      <trkpt lat="50.83629" lon="3.3182">
        <ele>1</ele>
        <time>2023-10-28T08:38:31Z</time>
      </trkpt>
      <trkpt lat="50.83629" lon="3.31838">
        <ele>1</ele>
        <time>2023-10-28T08:38:33Z</time>
      </trkpt>
      <trkpt lat="50.83624" lon="3.31909">
        <ele>0.60000000000002</ele>
        <time>2023-10-28T08:38:41Z</time>
      </trkpt>
      <trkpt lat="50.83624" lon="3.31918">
        <ele>0.60000000000002</ele>
        <time>2023-10-28T08:38:42Z</time>
      </trkpt>
      <trkpt lat="50.83623" lon="3.31923">
        <ele>0.60000000000002</ele>
        <time>2023-10-28T08:38:43Z</time>
      </trkpt>
      <trkpt lat="50.83624" lon="3.31928">
        <ele>0.60000000000002</ele>
        <time>2023-10-28T08:38:44Z</time>
      </trkpt>
      <trkpt lat="50.83625" lon="3.31932">
        <ele>0.60000000000002</ele>
        <time>2023-10-28T08:38:45Z</time>
      </trkpt>
      <trkpt lat="50.83628" lon="3.31935">
        <ele>0.60000000000002</ele>
        <time>2023-10-28T08:38:46Z</time>
      </trkpt>
      <trkpt lat="50.83631" lon="3.31936">
        <ele>0.60000000000002</ele>
        <time>2023-10-28T08:38:47Z</time>
      </trkpt>
      <trkpt lat="50.83635" lon="3.31935">
        <ele>0.60000000000002</ele>
        <time>2023-10-28T08:38:48Z</time>
      </trkpt>
      <trkpt lat="50.83641" lon="3.31932">
        <ele>0.80000000000001</ele>
        <time>2023-10-28T08:38:50Z</time>
      </trkpt>
      <trkpt lat="50.83644" lon="3.31931">
        <ele>1</ele>
        <time>2023-10-28T08:38:51Z</time>
      </trkpt>
      <trkpt lat="50.83647" lon="3.31929">
        <ele>1</ele>
        <time>2023-10-28T08:38:52Z</time>
      </trkpt>
      <trkpt lat="50.8365" lon="3.31927">
        <ele>1.2</ele>
        <time>2023-10-28T08:38:53Z</time>
      </trkpt>
      <trkpt lat="50.83654" lon="3.31924">
        <ele>1.4</ele>
        <time>2023-10-28T08:38:54Z</time>
      </trkpt>
      <trkpt lat="50.83656" lon="3.31921">
        <ele>1.6</ele>
        <time>2023-10-28T08:38:55Z</time>
      </trkpt>
      <trkpt lat="50.83658" lon="3.31914">
        <ele>1.6</ele>
        <time>2023-10-28T08:38:56Z</time>
      </trkpt>
      <trkpt lat="50.83661" lon="3.31909">
        <ele>1.6</ele>
        <time>2023-10-28T08:38:57Z</time>
      </trkpt>
      <trkpt lat="50.83664" lon="3.31902">
        <ele>1.6</ele>
        <time>2023-10-28T08:38:58Z</time>
      </trkpt>
      <trkpt lat="50.83682" lon="3.31856">
        <ele>1.6</ele>
        <time>2023-10-28T08:39:04Z</time>
      </trkpt>
      <trkpt lat="50.83687" lon="3.31842">
        <ele>1.6</ele>
        <time>2023-10-28T08:39:06Z</time>
      </trkpt>
      <trkpt lat="50.83689" lon="3.31834">
        <ele>1.6</ele>
        <time>2023-10-28T08:39:07Z</time>
      </trkpt>
      <trkpt lat="50.83693" lon="3.31825">
        <ele>1.6</ele>
        <time>2023-10-28T08:39:08Z</time>
      </trkpt>
      <trkpt lat="50.83695" lon="3.31819">
        <ele>1.4</ele>
        <time>2023-10-28T08:39:09Z</time>
      </trkpt>
      <trkpt lat="50.83697" lon="3.31814">
        <ele>1.2</ele>
        <time>2023-10-28T08:39:10Z</time>
      </trkpt>
      <trkpt lat="50.837" lon="3.3181">
        <ele>1.2</ele>
        <time>2023-10-28T08:39:11Z</time>
      </trkpt>
      <trkpt lat="50.83704" lon="3.31808">
        <ele>1.2</ele>
        <time>2023-10-28T08:39:12Z</time>
      </trkpt>
      <trkpt lat="50.83714" lon="3.31809">
        <ele>1</ele>
        <time>2023-10-28T08:39:14Z</time>
      </trkpt>
      <trkpt lat="50.83718" lon="3.3181">
        <ele>1</ele>
        <time>2023-10-28T08:39:15Z</time>
      </trkpt>
      <trkpt lat="50.83722" lon="3.31812">
        <ele>1</ele>
        <time>2023-10-28T08:39:16Z</time>
      </trkpt>
      <trkpt lat="50.83726" lon="3.31817">
        <ele>1</ele>
        <time>2023-10-28T08:39:17Z</time>
      </trkpt>
      <trkpt lat="50.83729" lon="3.31822">
        <ele>1</ele>
        <time>2023-10-28T08:39:18Z</time>
      </trkpt>
      <trkpt lat="50.83733" lon="3.31828">
        <ele>0.80000000000001</ele>
        <time>2023-10-28T08:39:19Z</time>
      </trkpt>
      <trkpt lat="50.83736" lon="3.31834">
        <ele>0.80000000000001</ele>
        <time>2023-10-28T08:39:20Z</time>
      </trkpt>
      <trkpt lat="50.83745" lon="3.3185">
        <ele>0.80000000000001</ele>
        <time>2023-10-28T08:39:23Z</time>
      </trkpt>
      <trkpt lat="50.83748" lon="3.31852">
        <ele>0.80000000000001</ele>
        <time>2023-10-28T08:39:24Z</time>
      </trkpt>
      <trkpt lat="50.83751" lon="3.31851">
        <ele>0.80000000000001</ele>
        <time>2023-10-28T08:39:25Z</time>
      </trkpt>
      <trkpt lat="50.83753" lon="3.31848">
        <ele>0.80000000000001</ele>
        <time>2023-10-28T08:39:26Z</time>
      </trkpt>
      <trkpt lat="50.83754" lon="3.31844">
        <ele>0.80000000000001</ele>
        <time>2023-10-28T08:39:27Z</time>
      </trkpt>
      <trkpt lat="50.83757" lon="3.31833">
        <ele>0.60000000000002</ele>
        <time>2023-10-28T08:39:29Z</time>
      </trkpt>
      <trkpt lat="50.83759" lon="3.31828">
        <ele>0.60000000000002</ele>
        <time>2023-10-28T08:39:30Z</time>
      </trkpt>
      <trkpt lat="50.83769" lon="3.31798">
        <ele>0.19999999999999</ele>
        <time>2023-10-28T08:39:35Z</time>
      </trkpt>
      <trkpt lat="50.83784" lon="3.31754">
        <ele>0.19999999999999</ele>
        <time>2023-10-28T08:39:41Z</time>
      </trkpt>
      <trkpt lat="50.83787" lon="3.31748">
        <ele>-0.19999999999999</ele>
        <time>2023-10-28T08:39:42Z</time>
      </trkpt>
      <trkpt lat="50.83793" lon="3.31731">
        <ele>-0.19999999999999</ele>
        <time>2023-10-28T08:39:44Z</time>
      </trkpt>
      <trkpt lat="50.83808" lon="3.31695">
        <ele>-0.60000000000002</ele>
        <time>2023-10-28T08:39:49Z</time>
      </trkpt>
      <trkpt lat="50.83821" lon="3.31667">
        <ele>-0.60000000000002</ele>
        <time>2023-10-28T08:39:53Z</time>
      </trkpt>
      <trkpt lat="50.83826" lon="3.31661">
        <ele>-0.80000000000001</ele>
        <time>2023-10-28T08:39:54Z</time>
      </trkpt>
      <trkpt lat="50.83835" lon="3.31652">
        <ele>-0.80000000000001</ele>
        <time>2023-10-28T08:39:56Z</time>
      </trkpt>
      <trkpt lat="50.83844" lon="3.3164">
        <ele>-0.80000000000001</ele>
        <time>2023-10-28T08:39:58Z</time>
      </trkpt>
      <trkpt lat="50.83847" lon="3.31634">
        <ele>-0.80000000000001</ele>
        <time>2023-10-28T08:39:59Z</time>
      </trkpt>
      <trkpt lat="50.8385" lon="3.31625">
        <ele>-0.80000000000001</ele>
        <time>2023-10-28T08:40:00Z</time>
      </trkpt>
      <trkpt lat="50.83866" lon="3.31588">
        <ele>-1</ele>
        <time>2023-10-28T08:40:05Z</time>
      </trkpt>
      <trkpt lat="50.83871" lon="3.31574">
        <ele>-1.2</ele>
        <time>2023-10-28T08:40:07Z</time>
      </trkpt>
      <trkpt lat="50.83874" lon="3.31566">
        <ele>-1.2</ele>
        <time>2023-10-28T08:40:08Z</time>
      </trkpt>
      <trkpt lat="50.83877" lon="3.31557">
        <ele>-1.4</ele>
        <time>2023-10-28T08:40:09Z</time>
      </trkpt>
      <trkpt lat="50.83882" lon="3.31542">
        <ele>-1.4</ele>
        <time>2023-10-28T08:40:11Z</time>
      </trkpt>
      <trkpt lat="50.83907" lon="3.31472">
        <ele>-1</ele>
        <time>2023-10-28T08:40:20Z</time>
      </trkpt>
      <trkpt lat="50.8392" lon="3.31433">
        <ele>-1</ele>
        <time>2023-10-28T08:40:25Z</time>
      </trkpt>
      <trkpt lat="50.83922" lon="3.31425">
        <ele>-1</ele>
        <time>2023-10-28T08:40:26Z</time>
      </trkpt>
      <trkpt lat="50.83927" lon="3.31412">
        <ele>-1</ele>
        <time>2023-10-28T08:40:28Z</time>
      </trkpt>
      <trkpt lat="50.8393" lon="3.31405">
        <ele>-1</ele>
        <time>2023-10-28T08:40:29Z</time>
      </trkpt>
      <trkpt lat="50.83933" lon="3.31397">
        <ele>-1</ele>
        <time>2023-10-28T08:40:30Z</time>
      </trkpt>
      <trkpt lat="50.83937" lon="3.31392">
        <ele>-1</ele>
        <time>2023-10-28T08:40:31Z</time>
      </trkpt>
      <trkpt lat="50.8394" lon="3.31391">
        <ele>-1</ele>
        <time>2023-10-28T08:40:32Z</time>
      </trkpt>
      <trkpt lat="50.83943" lon="3.3139">
        <ele>-1</ele>
        <time>2023-10-28T08:40:33Z</time>
      </trkpt>
      <trkpt lat="50.83946" lon="3.31391">
        <ele>-0.80000000000001</ele>
        <time>2023-10-28T08:40:34Z</time>
      </trkpt>
      <trkpt lat="50.83949" lon="3.31392">
        <ele>-0.80000000000001</ele>
        <time>2023-10-28T08:40:35Z</time>
      </trkpt>
      <trkpt lat="50.83953" lon="3.31393">
        <ele>-0.80000000000001</ele>
        <time>2023-10-28T08:40:36Z</time>
      </trkpt>
      <trkpt lat="50.83954" lon="3.31391">
        <ele>-0.80000000000001</ele>
        <time>2023-10-28T08:40:37Z</time>
      </trkpt>
      <trkpt lat="50.83957" lon="3.31388">
        <ele>-0.80000000000001</ele>
        <time>2023-10-28T08:40:38Z</time>
      </trkpt>
      <trkpt lat="50.8396" lon="3.31383">
        <ele>-0.80000000000001</ele>
        <time>2023-10-28T08:40:39Z</time>
      </trkpt>
      <trkpt lat="50.83964" lon="3.31373">
        <ele>-0.80000000000001</ele>
        <time>2023-10-28T08:40:41Z</time>
      </trkpt>
      <trkpt lat="50.83964" lon="3.31371">
        <ele>-0.80000000000001</ele>
        <time>2023-10-28T08:40:42Z</time>
      </trkpt>
      <trkpt lat="50.83965" lon="3.31367">
        <ele>-0.80000000000001</ele>
        <time>2023-10-28T08:40:43Z</time>
      </trkpt>
      <trkpt lat="50.83965" lon="3.31363">
        <ele>-0.80000000000001</ele>
        <time>2023-10-28T08:40:44Z</time>
      </trkpt>
      <trkpt lat="50.83964" lon="3.31359">
        <ele>-0.80000000000001</ele>
        <time>2023-10-28T08:40:45Z</time>
      </trkpt>
      <trkpt lat="50.83964" lon="3.31356">
        <ele>-0.80000000000001</ele>
        <time>2023-10-28T08:40:46Z</time>
      </trkpt>
      <trkpt lat="50.83964" lon="3.31356">
        <ele>-0.80000000000001</ele>
        <time>2023-10-28T08:40:47Z</time>
      </trkpt>
      <trkpt lat="50.83966" lon="3.31349">
        <ele>-0.80000000000001</ele>
        <time>2023-10-28T08:40:48Z</time>
      </trkpt>
      <trkpt lat="50.83967" lon="3.31346">
        <ele>-0.80000000000001</ele>
        <time>2023-10-28T08:40:49Z</time>
      </trkpt>
      <trkpt lat="50.83974" lon="3.31331">
        <ele>-0.80000000000001</ele>
        <time>2023-10-28T08:40:53Z</time>
      </trkpt>
      <trkpt lat="50.83976" lon="3.31328">
        <ele>-0.80000000000001</ele>
        <time>2023-10-28T08:40:54Z</time>
      </trkpt>
      <trkpt lat="50.8398" lon="3.31325">
        <ele>-0.80000000000001</ele>
        <time>2023-10-28T08:40:55Z</time>
      </trkpt>
      <trkpt lat="50.83984" lon="3.31321">
        <ele>-0.80000000000001</ele>
        <time>2023-10-28T08:40:56Z</time>
      </trkpt>
      <trkpt lat="50.83996" lon="3.31309">
        <ele>-0.80000000000001</ele>
        <time>2023-10-28T08:41:00Z</time>
      </trkpt>
      <trkpt lat="50.83997" lon="3.31307">
        <ele>-0.80000000000001</ele>
        <time>2023-10-28T08:41:01Z</time>
      </trkpt>
      <trkpt lat="50.84" lon="3.31305">
        <ele>-1</ele>
        <time>2023-10-28T08:41:02Z</time>
      </trkpt>
      <trkpt lat="50.84" lon="3.31305">
        <ele>-1</ele>
        <time>2023-10-28T08:41:03Z</time>
      </trkpt>
      <trkpt lat="50.84003" lon="3.313">
        <ele>-1</ele>
        <time>2023-10-28T08:41:04Z</time>
      </trkpt>
      <trkpt lat="50.84006" lon="3.31296">
        <ele>-1</ele>
        <time>2023-10-28T08:41:05Z</time>
      </trkpt>
      <trkpt lat="50.84009" lon="3.31286">
        <ele>-1</ele>
        <time>2023-10-28T08:41:07Z</time>
      </trkpt>
      <trkpt lat="50.8401" lon="3.31283">
        <ele>-1</ele>
        <time>2023-10-28T08:41:08Z</time>
      </trkpt>
      <trkpt lat="50.8401" lon="3.31281">
        <ele>-1</ele>
        <time>2023-10-28T08:41:09Z</time>
      </trkpt>
      <trkpt lat="50.84012" lon="3.31279">
        <ele>-1.2</ele>
        <time>2023-10-28T08:41:10Z</time>
      </trkpt>
      <trkpt lat="50.84012" lon="3.31277">
        <ele>-1.2</ele>
        <time>2023-10-28T08:41:11Z</time>
      </trkpt>
      <trkpt lat="50.84013" lon="3.31276">
        <ele>-1.4</ele>
        <time>2023-10-28T08:41:12Z</time>
      </trkpt>
      <trkpt lat="50.84013" lon="3.31275">
        <ele>-1.8</ele>
        <time>2023-10-28T08:41:13Z</time>
      </trkpt>
      <trkpt lat="50.84013" lon="3.31272">
        <ele>-2.2</ele>
        <time>2023-10-28T08:41:14Z</time>
      </trkpt>
      <trkpt lat="50.84013" lon="3.3127">
        <ele>-2.6</ele>
        <time>2023-10-28T08:41:15Z</time>
      </trkpt>
      <trkpt lat="50.84013" lon="3.31268">
        <ele>-2.8</ele>
        <time>2023-10-28T08:41:16Z</time>
      </trkpt>
      <trkpt lat="50.84011" lon="3.31265">
        <ele>-3</ele>
        <time>2023-10-28T08:41:17Z</time>
      </trkpt>
      <trkpt lat="50.84012" lon="3.31263">
        <ele>-3.2</ele>
        <time>2023-10-28T08:41:18Z</time>
      </trkpt>
      <trkpt lat="50.84014" lon="3.31259">
        <ele>-3.2</ele>
        <time>2023-10-28T08:41:21Z</time>
      </trkpt>
      <trkpt lat="50.84015" lon="3.31258">
        <ele>-3.2</ele>
        <time>2023-10-28T08:41:22Z</time>
      </trkpt>
      <trkpt lat="50.84016" lon="3.31256">
        <ele>-3.2</ele>
        <time>2023-10-28T08:41:23Z</time>
      </trkpt>
      <trkpt lat="50.84018" lon="3.31254">
        <ele>-3.4</ele>
        <time>2023-10-28T08:41:24Z</time>
      </trkpt>
      <trkpt lat="50.84019" lon="3.31251">
        <ele>-3.2</ele>
        <time>2023-10-28T08:41:25Z</time>
      </trkpt>
      <trkpt lat="50.84019" lon="3.31248">
        <ele>-3.2</ele>
        <time>2023-10-28T08:41:26Z</time>
      </trkpt>
      <trkpt lat="50.84026" lon="3.31233">
        <ele>-3.4</ele>
        <time>2023-10-28T08:41:31Z</time>
      </trkpt>
      <trkpt lat="50.84027" lon="3.3123">
        <ele>-3.4</ele>
        <time>2023-10-28T08:41:32Z</time>
      </trkpt>
      <trkpt lat="50.8403" lon="3.31222">
        <ele>-3.4</ele>
        <time>2023-10-28T08:41:35Z</time>
      </trkpt>
      <trkpt lat="50.84031" lon="3.31211">
        <ele>-3.4</ele>
        <time>2023-10-28T08:41:38Z</time>
      </trkpt>
      <trkpt lat="50.8403" lon="3.31208">
        <ele>-3.4</ele>
        <time>2023-10-28T08:41:39Z</time>
      </trkpt>
      <trkpt lat="50.8403" lon="3.31201">
        <ele>-3.2</ele>
        <time>2023-10-28T08:41:41Z</time>
      </trkpt>
      <trkpt lat="50.84032" lon="3.31199">
        <ele>-3</ele>
        <time>2023-10-28T08:41:42Z</time>
      </trkpt>
      <trkpt lat="50.84039" lon="3.31195">
        <ele>-2.6</ele>
        <time>2023-10-28T08:41:45Z</time>
      </trkpt>
      <trkpt lat="50.84045" lon="3.31187">
        <ele>-2.4</ele>
        <time>2023-10-28T08:41:48Z</time>
      </trkpt>
      <trkpt lat="50.84046" lon="3.31185">
        <ele>-2.4</ele>
        <time>2023-10-28T08:41:49Z</time>
      </trkpt>
      <trkpt lat="50.84047" lon="3.31182">
        <ele>-2.2</ele>
        <time>2023-10-28T08:41:50Z</time>
      </trkpt>
      <trkpt lat="50.84048" lon="3.31178">
        <ele>-2.2</ele>
        <time>2023-10-28T08:41:51Z</time>
      </trkpt>
      <trkpt lat="50.84049" lon="3.31176">
        <ele>-2</ele>
        <time>2023-10-28T08:41:52Z</time>
      </trkpt>
      <trkpt lat="50.84049" lon="3.31175">
        <ele>-2</ele>
        <time>2023-10-28T08:41:53Z</time>
      </trkpt>
      <trkpt lat="50.8405" lon="3.31173">
        <ele>-2</ele>
        <time>2023-10-28T08:41:54Z</time>
      </trkpt>
      <trkpt lat="50.84052" lon="3.31171">
        <ele>-2</ele>
        <time>2023-10-28T08:41:55Z</time>
      </trkpt>
      <trkpt lat="50.84052" lon="3.31171">
        <ele>-2</ele>
        <time>2023-10-28T08:41:56Z</time>
      </trkpt>
      <trkpt lat="50.84054" lon="3.31168">
        <ele>-1.8</ele>
        <time>2023-10-28T08:41:57Z</time>
      </trkpt>
      <trkpt lat="50.84056" lon="3.31168">
        <ele>-1.8</ele>
        <time>2023-10-28T08:41:58Z</time>
      </trkpt>
      <trkpt lat="50.84059" lon="3.31167">
        <ele>-1.8</ele>
        <time>2023-10-28T08:41:59Z</time>
      </trkpt>
      <trkpt lat="50.84061" lon="3.31166">
        <ele>-1.8</ele>
        <time>2023-10-28T08:42:00Z</time>
      </trkpt>
      <trkpt lat="50.8407" lon="3.31161">
        <ele>-2</ele>
        <time>2023-10-28T08:42:04Z</time>
      </trkpt>
      <trkpt lat="50.84086" lon="3.31154">
        <ele>-2</ele>
        <time>2023-10-28T08:42:10Z</time>
      </trkpt>
      <trkpt lat="50.84087" lon="3.31154">
        <ele>-2</ele>
        <time>2023-10-28T08:42:11Z</time>
      </trkpt>
      <trkpt lat="50.84089" lon="3.31155">
        <ele>-2.2</ele>
        <time>2023-10-28T08:42:12Z</time>
      </trkpt>
      <trkpt lat="50.84091" lon="3.31153">
        <ele>-2.2</ele>
        <time>2023-10-28T08:42:14Z</time>
      </trkpt>
      <trkpt lat="50.84093" lon="3.31149">
        <ele>-2.2</ele>
        <time>2023-10-28T08:42:15Z</time>
      </trkpt>
      <trkpt lat="50.84102" lon="3.31131">
        <ele>-2.2</ele>
        <time>2023-10-28T08:42:19Z</time>
      </trkpt>
      <trkpt lat="50.84102" lon="3.31131">
        <ele>-2</ele>
        <time>2023-10-28T08:42:20Z</time>
      </trkpt>
      <trkpt lat="50.84104" lon="3.31121">
        <ele>-2</ele>
        <time>2023-10-28T08:42:21Z</time>
      </trkpt>
      <trkpt lat="50.84105" lon="3.31115">
        <ele>-2</ele>
        <time>2023-10-28T08:42:22Z</time>
      </trkpt>
      <trkpt lat="50.84106" lon="3.31109">
        <ele>-2</ele>
        <time>2023-10-28T08:42:23Z</time>
      </trkpt>
      <trkpt lat="50.84108" lon="3.31096">
        <ele>-1.8</ele>
        <time>2023-10-28T08:42:25Z</time>
      </trkpt>
      <trkpt lat="50.84111" lon="3.31067">
        <ele>-1.6</ele>
        <time>2023-10-28T08:42:29Z</time>
      </trkpt>
      <trkpt lat="50.84111" lon="3.31067">
        <ele>-1.6</ele>
        <time>2023-10-28T08:42:30Z</time>
      </trkpt>
      <trkpt lat="50.84112" lon="3.3106">
        <ele>-1.6</ele>
        <time>2023-10-28T08:42:31Z</time>
      </trkpt>
      <trkpt lat="50.84113" lon="3.31053">
        <ele>-1.6</ele>
        <time>2023-10-28T08:42:32Z</time>
      </trkpt>
      <trkpt lat="50.84117" lon="3.31042">
        <ele>-1.4</ele>
        <time>2023-10-28T08:42:33Z</time>
      </trkpt>
      <trkpt lat="50.8412" lon="3.31039">
        <ele>-1.4</ele>
        <time>2023-10-28T08:42:34Z</time>
      </trkpt>
      <trkpt lat="50.8412" lon="3.31039">
        <ele>-1.4</ele>
        <time>2023-10-28T08:42:35Z</time>
      </trkpt>
      <trkpt lat="50.84127" lon="3.31038">
        <ele>-1.4</ele>
        <time>2023-10-28T08:42:36Z</time>
      </trkpt>
      <trkpt lat="50.84131" lon="3.31035">
        <ele>-1.4</ele>
        <time>2023-10-28T08:42:37Z</time>
      </trkpt>
      <trkpt lat="50.84133" lon="3.31031">
        <ele>-1.4</ele>
        <time>2023-10-28T08:42:38Z</time>
      </trkpt>
      <trkpt lat="50.84132" lon="3.31027">
        <ele>-1.4</ele>
        <time>2023-10-28T08:42:39Z</time>
      </trkpt>
      <trkpt lat="50.84133" lon="3.31024">
        <ele>-1.4</ele>
        <time>2023-10-28T08:42:40Z</time>
      </trkpt>
      <trkpt lat="50.84133" lon="3.31024">
        <ele>-1.4</ele>
        <time>2023-10-28T08:42:41Z</time>
      </trkpt>
      <trkpt lat="50.84136" lon="3.31022">
        <ele>-1.4</ele>
        <time>2023-10-28T08:42:42Z</time>
      </trkpt>
      <trkpt lat="50.84145" lon="3.31018">
        <ele>-1.2</ele>
        <time>2023-10-28T08:42:45Z</time>
      </trkpt>
      <trkpt lat="50.84148" lon="3.31017">
        <ele>-1.2</ele>
        <time>2023-10-28T08:42:46Z</time>
      </trkpt>
      <trkpt lat="50.84151" lon="3.31016">
        <ele>-1</ele>
        <time>2023-10-28T08:42:47Z</time>
      </trkpt>
      <trkpt lat="50.84159" lon="3.31014">
        <ele>-0.60000000000002</ele>
        <time>2023-10-28T08:42:49Z</time>
      </trkpt>
      <trkpt lat="50.84172" lon="3.31011">
        <ele>-0.39999999999998</ele>
        <time>2023-10-28T08:42:52Z</time>
      </trkpt>
      <trkpt lat="50.84201" lon="3.31003">
        <ele>-0.39999999999998</ele>
        <time>2023-10-28T08:42:58Z</time>
      </trkpt>
      <trkpt lat="50.84239" lon="3.30996">
        <ele>-0.80000000000001</ele>
        <time>2023-10-28T08:43:06Z</time>
      </trkpt>
      <trkpt lat="50.84289" lon="3.30993">
        <ele>-1</ele>
        <time>2023-10-28T08:43:14Z</time>
      </trkpt>
      <trkpt lat="50.84294" lon="3.30992">
        <ele>-1</ele>
        <time>2023-10-28T08:43:15Z</time>
      </trkpt>
      <trkpt lat="50.84299" lon="3.30992">
        <ele>-1</ele>
        <time>2023-10-28T08:43:16Z</time>
      </trkpt>
      <trkpt lat="50.84321" lon="3.30989">
        <ele>-1</ele>
        <time>2023-10-28T08:43:20Z</time>
      </trkpt>
      <trkpt lat="50.84354" lon="3.30985">
        <ele>-0.80000000000001</ele>
        <time>2023-10-28T08:43:27Z</time>
      </trkpt>
      <trkpt lat="50.84413" lon="3.30974">
        <ele>-0.80000000000001</ele>
        <time>2023-10-28T08:43:36Z</time>
      </trkpt>
      <trkpt lat="50.84461" lon="3.30967">
        <ele>-0.60000000000002</ele>
        <time>2023-10-28T08:43:45Z</time>
      </trkpt>
      <trkpt lat="50.84516" lon="3.30958">
        <ele>-0.19999999999999</ele>
        <time>2023-10-28T08:43:53Z</time>
      </trkpt>
      <trkpt lat="50.84535" lon="3.30956">
        <ele>-0.19999999999999</ele>
        <time>2023-10-28T08:43:56Z</time>
      </trkpt>
      <trkpt lat="50.84546" lon="3.30954">
        <ele>-0.19999999999999</ele>
        <time>2023-10-28T08:43:58Z</time>
      </trkpt>
      <trkpt lat="50.84564" lon="3.30951">
        <ele>-0.19999999999999</ele>
        <time>2023-10-28T08:44:01Z</time>
      </trkpt>
      <trkpt lat="50.84569" lon="3.3095">
        <ele>-0.19999999999999</ele>
        <time>2023-10-28T08:44:02Z</time>
      </trkpt>
      <trkpt lat="50.84569" lon="3.3095">
        <ele>-0.19999999999999</ele>
        <time>2023-10-28T08:44:03Z</time>
      </trkpt>
      <trkpt lat="50.84581" lon="3.30948">
        <ele>-0.19999999999999</ele>
        <time>2023-10-28T08:44:04Z</time>
      </trkpt>
      <trkpt lat="50.84581" lon="3.30948">
        <ele>-0.19999999999999</ele>
        <time>2023-10-28T08:44:05Z</time>
      </trkpt>
      <trkpt lat="50.84593" lon="3.30947">
        <ele>-0.19999999999999</ele>
        <time>2023-10-28T08:44:06Z</time>
      </trkpt>
      <trkpt lat="50.84599" lon="3.30946">
        <ele>-0.19999999999999</ele>
        <time>2023-10-28T08:44:07Z</time>
      </trkpt>
      <trkpt lat="50.84611" lon="3.30945">
        <ele>-0.19999999999999</ele>
        <time>2023-10-28T08:44:09Z</time>
      </trkpt>
      <trkpt lat="50.84611" lon="3.30945">
        <ele>-0.19999999999999</ele>
        <time>2023-10-28T08:44:10Z</time>
      </trkpt>
      <trkpt lat="50.84646" lon="3.30939">
        <ele>-0.19999999999999</ele>
        <time>2023-10-28T08:44:15Z</time>
      </trkpt>
      <trkpt lat="50.84652" lon="3.30938">
        <ele>-0.19999999999999</ele>
        <time>2023-10-28T08:44:16Z</time>
      </trkpt>
      <trkpt lat="50.84658" lon="3.30938">
        <ele>-0.19999999999999</ele>
        <time>2023-10-28T08:44:17Z</time>
      </trkpt>
      <trkpt lat="50.84658" lon="3.30938">
        <ele>-0.19999999999999</ele>
        <time>2023-10-28T08:44:18Z</time>
      </trkpt>
      <trkpt lat="50.8468" lon="3.30931">
        <ele>-0.19999999999999</ele>
        <time>2023-10-28T08:44:21Z</time>
      </trkpt>
      <trkpt lat="50.84691" lon="3.30927">
        <ele>0.19999999999999</ele>
        <time>2023-10-28T08:44:23Z</time>
      </trkpt>
      <trkpt lat="50.84691" lon="3.30927">
        <ele>0.19999999999999</ele>
        <time>2023-10-28T08:44:24Z</time>
      </trkpt>
      <trkpt lat="50.84697" lon="3.30925">
        <ele>0.19999999999999</ele>
        <time>2023-10-28T08:44:25Z</time>
      </trkpt>
      <trkpt lat="50.84707" lon="3.30923">
        <ele>0.19999999999999</ele>
        <time>2023-10-28T08:44:26Z</time>
      </trkpt>
      <trkpt lat="50.84712" lon="3.30923">
        <ele>0.19999999999999</ele>
        <time>2023-10-28T08:44:27Z</time>
      </trkpt>
      <trkpt lat="50.84717" lon="3.30925">
        <ele>0.19999999999999</ele>
        <time>2023-10-28T08:44:28Z</time>
      </trkpt>
      <trkpt lat="50.84721" lon="3.30927">
        <ele>0.39999999999998</ele>
        <time>2023-10-28T08:44:29Z</time>
      </trkpt>
      <trkpt lat="50.84721" lon="3.30927">
        <ele>0.39999999999998</ele>
        <time>2023-10-28T08:44:30Z</time>
      </trkpt>
      <trkpt lat="50.84725" lon="3.30927">
        <ele>0.39999999999998</ele>
        <time>2023-10-28T08:44:31Z</time>
      </trkpt>
      <trkpt lat="50.84734" lon="3.30923">
        <ele>0.39999999999998</ele>
        <time>2023-10-28T08:44:32Z</time>
      </trkpt>
      <trkpt lat="50.84739" lon="3.30922">
        <ele>0.60000000000002</ele>
        <time>2023-10-28T08:44:33Z</time>
      </trkpt>
      <trkpt lat="50.8475" lon="3.30918">
        <ele>0.60000000000002</ele>
        <time>2023-10-28T08:44:35Z</time>
      </trkpt>
      <trkpt lat="50.8475" lon="3.30918">
        <ele>0.80000000000001</ele>
        <time>2023-10-28T08:44:36Z</time>
      </trkpt>
      <trkpt lat="50.84783" lon="3.30912">
        <ele>0.80000000000001</ele>
        <time>2023-10-28T08:44:41Z</time>
      </trkpt>
      <trkpt lat="50.8483" lon="3.30912">
        <ele>1</ele>
        <time>2023-10-28T08:44:49Z</time>
      </trkpt>
      <trkpt lat="50.84836" lon="3.30911">
        <ele>1.4</ele>
        <time>2023-10-28T08:44:51Z</time>
      </trkpt>
      <trkpt lat="50.84891" lon="3.30908">
        <ele>2</ele>
        <time>2023-10-28T08:44:59Z</time>
      </trkpt>
      <trkpt lat="50.84891" lon="3.30908">
        <ele>2</ele>
        <time>2023-10-28T08:45:00Z</time>
      </trkpt>
      <trkpt lat="50.84932" lon="3.30907">
        <ele>1.6</ele>
        <time>2023-10-28T08:45:06Z</time>
      </trkpt>
      <trkpt lat="50.84937" lon="3.30907">
        <ele>1.6</ele>
        <time>2023-10-28T08:45:07Z</time>
      </trkpt>
      <trkpt lat="50.84949" lon="3.30907">
        <ele>1.6</ele>
        <time>2023-10-28T08:45:09Z</time>
      </trkpt>
      <trkpt lat="50.84954" lon="3.30906">
        <ele>1.6</ele>
        <time>2023-10-28T08:45:10Z</time>
      </trkpt>
      <trkpt lat="50.8496" lon="3.30906">
        <ele>1.6</ele>
        <time>2023-10-28T08:45:11Z</time>
      </trkpt>
      <trkpt lat="50.84965" lon="3.30906">
        <ele>1.6</ele>
        <time>2023-10-28T08:45:12Z</time>
      </trkpt>
      <trkpt lat="50.8497" lon="3.30906">
        <ele>1.6</ele>
        <time>2023-10-28T08:45:13Z</time>
      </trkpt>
      <trkpt lat="50.84975" lon="3.30905">
        <ele>1.6</ele>
        <time>2023-10-28T08:45:14Z</time>
      </trkpt>
      <trkpt lat="50.85004" lon="3.30899">
        <ele>1.4</ele>
        <time>2023-10-28T08:45:19Z</time>
      </trkpt>
      <trkpt lat="50.85043" lon="3.30888">
        <ele>1.6</ele>
        <time>2023-10-28T08:45:25Z</time>
      </trkpt>
      <trkpt lat="50.8505" lon="3.30886">
        <ele>1.6</ele>
        <time>2023-10-28T08:45:26Z</time>
      </trkpt>
      <trkpt lat="50.85075" lon="3.30886">
        <ele>1.4</ele>
        <time>2023-10-28T08:45:30Z</time>
      </trkpt>
      <trkpt lat="50.85093" lon="3.30883">
        <ele>1.4</ele>
        <time>2023-10-28T08:45:33Z</time>
      </trkpt>
      <trkpt lat="50.85106" lon="3.3088">
        <ele>1.4</ele>
        <time>2023-10-28T08:45:35Z</time>
      </trkpt>
      <trkpt lat="50.85111" lon="3.30875">
        <ele>1.4</ele>
        <time>2023-10-28T08:45:36Z</time>
      </trkpt>
      <trkpt lat="50.85115" lon="3.30869">
        <ele>1.2</ele>
        <time>2023-10-28T08:45:37Z</time>
      </trkpt>
      <trkpt lat="50.85118" lon="3.30864">
        <ele>1.2</ele>
        <time>2023-10-28T08:45:38Z</time>
      </trkpt>
      <trkpt lat="50.85119" lon="3.30859">
        <ele>1.2</ele>
        <time>2023-10-28T08:45:39Z</time>
      </trkpt>
      <trkpt lat="50.85119" lon="3.30854">
        <ele>1.2</ele>
        <time>2023-10-28T08:45:40Z</time>
      </trkpt>
      <trkpt lat="50.85112" lon="3.30844">
        <ele>1</ele>
        <time>2023-10-28T08:45:42Z</time>
      </trkpt>
      <trkpt lat="50.85102" lon="3.30838">
        <ele>1</ele>
        <time>2023-10-28T08:45:44Z</time>
      </trkpt>
      <trkpt lat="50.85097" lon="3.30834">
        <ele>1</ele>
        <time>2023-10-28T08:45:45Z</time>
      </trkpt>
      <trkpt lat="50.8509" lon="3.30826">
        <ele>0.80000000000001</ele>
        <time>2023-10-28T08:45:47Z</time>
      </trkpt>
      <trkpt lat="50.85072" lon="3.30808">
        <ele>0.60000000000002</ele>
        <time>2023-10-28T08:45:51Z</time>
      </trkpt>
      <trkpt lat="50.85063" lon="3.30799">
        <ele>0.39999999999998</ele>
        <time>2023-10-28T08:45:53Z</time>
      </trkpt>
      <trkpt lat="50.85059" lon="3.30795">
        <ele>0.39999999999998</ele>
        <time>2023-10-28T08:45:54Z</time>
      </trkpt>
      <trkpt lat="50.85034" lon="3.30763">
        <ele>0.39999999999998</ele>
        <time>2023-10-28T08:46:00Z</time>
      </trkpt>
      <trkpt lat="50.85006" lon="3.30734">
        <ele>0.19999999999999</ele>
        <time>2023-10-28T08:46:06Z</time>
      </trkpt>
      <trkpt lat="50.84998" lon="3.30724">
        <ele>0.19999999999999</ele>
        <time>2023-10-28T08:46:08Z</time>
      </trkpt>
      <trkpt lat="50.84993" lon="3.3072">
        <ele>0.19999999999999</ele>
        <time>2023-10-28T08:46:09Z</time>
      </trkpt>
      <trkpt lat="50.84984" lon="3.3071">
        <ele>0.19999999999999</ele>
        <time>2023-10-28T08:46:11Z</time>
      </trkpt>
      <trkpt lat="50.84981" lon="3.30706">
        <ele>0.19999999999999</ele>
        <time>2023-10-28T08:46:12Z</time>
      </trkpt>
      <trkpt lat="50.84958" lon="3.30682">
        <ele>0.39999999999998</ele>
        <time>2023-10-28T08:46:17Z</time>
      </trkpt>
      <trkpt lat="50.84954" lon="3.30677">
        <ele>0.19999999999999</ele>
        <time>2023-10-28T08:46:18Z</time>
      </trkpt>
      <trkpt lat="50.8495" lon="3.30673">
        <ele>0.19999999999999</ele>
        <time>2023-10-28T08:46:19Z</time>
      </trkpt>
      <trkpt lat="50.84946" lon="3.30668">
        <ele>0.19999999999999</ele>
        <time>2023-10-28T08:46:20Z</time>
      </trkpt>
      <trkpt lat="50.84942" lon="3.30664">
        <ele>0.19999999999999</ele>
        <time>2023-10-28T08:46:21Z</time>
      </trkpt>
      <trkpt lat="50.84939" lon="3.3066">
        <ele>0.19999999999999</ele>
        <time>2023-10-28T08:46:22Z</time>
      </trkpt>
      <trkpt lat="50.84934" lon="3.30654">
        <ele>-0.19999999999999</ele>
        <time>2023-10-28T08:46:23Z</time>
      </trkpt>
      <trkpt lat="50.84929" lon="3.3065">
        <ele>-0.19999999999999</ele>
        <time>2023-10-28T08:46:24Z</time>
      </trkpt>
      <trkpt lat="50.84922" lon="3.30641">
        <ele>-0.19999999999999</ele>
        <time>2023-10-28T08:46:26Z</time>
      </trkpt>
      <trkpt lat="50.84909" lon="3.30624">
        <ele>-0.19999999999999</ele>
        <time>2023-10-28T08:46:29Z</time>
      </trkpt>
      <trkpt lat="50.84898" lon="3.30609">
        <ele>-0.19999999999999</ele>
        <time>2023-10-28T08:46:32Z</time>
      </trkpt>
      <trkpt lat="50.84886" lon="3.30584">
        <ele>0.19999999999999</ele>
        <time>2023-10-28T08:46:36Z</time>
      </trkpt>
      <trkpt lat="50.84879" lon="3.30563">
        <ele>0.60000000000002</ele>
        <time>2023-10-28T08:46:39Z</time>
      </trkpt>
      <trkpt lat="50.84871" lon="3.30536">
        <ele>0.80000000000001</ele>
        <time>2023-10-28T08:46:43Z</time>
      </trkpt>
      <trkpt lat="50.8487" lon="3.30523">
        <ele>1</ele>
        <time>2023-10-28T08:46:45Z</time>
      </trkpt>
      <trkpt lat="50.84869" lon="3.30514">
        <ele>1</ele>
        <time>2023-10-28T08:46:46Z</time>
      </trkpt>
      <trkpt lat="50.8487" lon="3.30506">
        <ele>1</ele>
        <time>2023-10-28T08:46:47Z</time>
      </trkpt>
      <trkpt lat="50.8487" lon="3.30499">
        <ele>1</ele>
        <time>2023-10-28T08:46:48Z</time>
      </trkpt>
      <trkpt lat="50.8487" lon="3.30491">
        <ele>1.2</ele>
        <time>2023-10-28T08:46:49Z</time>
      </trkpt>
      <trkpt lat="50.84869" lon="3.30477">
        <ele>1.2</ele>
        <time>2023-10-28T08:46:51Z</time>
      </trkpt>
      <trkpt lat="50.84871" lon="3.3044">
        <ele>1.4</ele>
        <time>2023-10-28T08:46:56Z</time>
      </trkpt>
      <trkpt lat="50.84879" lon="3.3038">
        <ele>1.6</ele>
        <time>2023-10-28T08:47:03Z</time>
      </trkpt>
      <trkpt lat="50.84896" lon="3.30325">
        <ele>1.6</ele>
        <time>2023-10-28T08:47:10Z</time>
      </trkpt>
      <trkpt lat="50.84909" lon="3.30299">
        <ele>1.6</ele>
        <time>2023-10-28T08:47:14Z</time>
      </trkpt>
      <trkpt lat="50.84913" lon="3.30293">
        <ele>1.4</ele>
        <time>2023-10-28T08:47:15Z</time>
      </trkpt>
      <trkpt lat="50.84916" lon="3.30288">
        <ele>1.4</ele>
        <time>2023-10-28T08:47:16Z</time>
      </trkpt>
      <trkpt lat="50.8492" lon="3.30282">
        <ele>1.4</ele>
        <time>2023-10-28T08:47:17Z</time>
      </trkpt>
      <trkpt lat="50.84923" lon="3.30276">
        <ele>1.4</ele>
        <time>2023-10-28T08:47:18Z</time>
      </trkpt>
      <trkpt lat="50.84926" lon="3.3027">
        <ele>1.4</ele>
        <time>2023-10-28T08:47:19Z</time>
      </trkpt>
      <trkpt lat="50.8493" lon="3.30264">
        <ele>1.2</ele>
        <time>2023-10-28T08:47:20Z</time>
      </trkpt>
      <trkpt lat="50.84932" lon="3.30259">
        <ele>1.2</ele>
        <time>2023-10-28T08:47:21Z</time>
      </trkpt>
      <trkpt lat="50.84935" lon="3.30254">
        <ele>1.2</ele>
        <time>2023-10-28T08:47:22Z</time>
      </trkpt>
      <trkpt lat="50.84938" lon="3.30249">
        <ele>1</ele>
        <time>2023-10-28T08:47:23Z</time>
      </trkpt>
      <trkpt lat="50.8494" lon="3.30244">
        <ele>1</ele>
        <time>2023-10-28T08:47:24Z</time>
      </trkpt>
      <trkpt lat="50.84943" lon="3.3024">
        <ele>1</ele>
        <time>2023-10-28T08:47:25Z</time>
      </trkpt>
      <trkpt lat="50.84945" lon="3.30236">
        <ele>1</ele>
        <time>2023-10-28T08:47:26Z</time>
      </trkpt>
      <trkpt lat="50.84949" lon="3.30227">
        <ele>1</ele>
        <time>2023-10-28T08:47:28Z</time>
      </trkpt>
      <trkpt lat="50.84951" lon="3.30223">
        <ele>1</ele>
        <time>2023-10-28T08:47:29Z</time>
      </trkpt>
      <trkpt lat="50.84954" lon="3.30219">
        <ele>1</ele>
        <time>2023-10-28T08:47:30Z</time>
      </trkpt>
      <trkpt lat="50.84956" lon="3.30215">
        <ele>1</ele>
        <time>2023-10-28T08:47:31Z</time>
      </trkpt>
      <trkpt lat="50.84958" lon="3.30211">
        <ele>1</ele>
        <time>2023-10-28T08:47:32Z</time>
      </trkpt>
      <trkpt lat="50.84961" lon="3.30208">
        <ele>1</ele>
        <time>2023-10-28T08:47:33Z</time>
      </trkpt>
      <trkpt lat="50.84963" lon="3.30205">
        <ele>0.80000000000001</ele>
        <time>2023-10-28T08:47:34Z</time>
      </trkpt>
      <trkpt lat="50.84964" lon="3.30201">
        <ele>0.80000000000001</ele>
        <time>2023-10-28T08:47:35Z</time>
      </trkpt>
      <trkpt lat="50.84965" lon="3.302">
        <ele>0.80000000000001</ele>
        <time>2023-10-28T08:47:36Z</time>
      </trkpt>
      <trkpt lat="50.84967" lon="3.30198">
        <ele>0.80000000000001</ele>
        <time>2023-10-28T08:47:37Z</time>
      </trkpt>
      <trkpt lat="50.84967" lon="3.30197">
        <ele>0.80000000000001</ele>
        <time>2023-10-28T08:47:38Z</time>
      </trkpt>
      <trkpt lat="50.84968" lon="3.30197">
        <ele>0.80000000000001</ele>
        <time>2023-10-28T08:47:39Z</time>
      </trkpt>
      <trkpt lat="50.84968" lon="3.30196">
        <ele>0.80000000000001</ele>
        <time>2023-10-28T08:47:40Z</time>
      </trkpt>
      <trkpt lat="50.84968" lon="3.30195">
        <ele>0.80000000000001</ele>
        <time>2023-10-28T08:47:41Z</time>
      </trkpt>
      <trkpt lat="50.84969" lon="3.30194">
        <ele>0.80000000000001</ele>
        <time>2023-10-28T08:47:42Z</time>
      </trkpt>
      <trkpt lat="50.84975" lon="3.30184">
        <ele>0.80000000000001</ele>
        <time>2023-10-28T08:47:46Z</time>
      </trkpt>
      <trkpt lat="50.84986" lon="3.3016">
        <ele>0.80000000000001</ele>
        <time>2023-10-28T08:47:50Z</time>
      </trkpt>
      <trkpt lat="50.8499" lon="3.30153">
        <ele>0.80000000000001</ele>
        <time>2023-10-28T08:47:51Z</time>
      </trkpt>
      <trkpt lat="50.85004" lon="3.30131">
        <ele>0.80000000000001</ele>
        <time>2023-10-28T08:47:54Z</time>
      </trkpt>
      <trkpt lat="50.85032" lon="3.3008">
        <ele>0.39999999999998</ele>
        <time>2023-10-28T08:48:00Z</time>
      </trkpt>
      <trkpt lat="50.85038" lon="3.30074">
        <ele>0.19999999999999</ele>
        <time>2023-10-28T08:48:01Z</time>
      </trkpt>
      <trkpt lat="50.85042" lon="3.30071">
        <ele>0.19999999999999</ele>
        <time>2023-10-28T08:48:02Z</time>
      </trkpt>
      <trkpt lat="50.85046" lon="3.30068">
        <ele>0.19999999999999</ele>
        <time>2023-10-28T08:48:03Z</time>
      </trkpt>
      <trkpt lat="50.85049" lon="3.30064">
        <ele>0.19999999999999</ele>
        <time>2023-10-28T08:48:04Z</time>
      </trkpt>
      <trkpt lat="50.85051" lon="3.30059">
        <ele>0.19999999999999</ele>
        <time>2023-10-28T08:48:05Z</time>
      </trkpt>
      <trkpt lat="50.85053" lon="3.30055">
        <ele>0.19999999999999</ele>
        <time>2023-10-28T08:48:06Z</time>
      </trkpt>
      <trkpt lat="50.85055" lon="3.30051">
        <ele>0.19999999999999</ele>
        <time>2023-10-28T08:48:07Z</time>
      </trkpt>
      <trkpt lat="50.85058" lon="3.30046">
        <ele>0.19999999999999</ele>
        <time>2023-10-28T08:48:08Z</time>
      </trkpt>
      <trkpt lat="50.85069" lon="3.30023">
        <ele>0.39999999999998</ele>
        <time>2023-10-28T08:48:12Z</time>
      </trkpt>
      <trkpt lat="50.85073" lon="3.30016">
        <ele>0.39999999999998</ele>
        <time>2023-10-28T08:48:13Z</time>
      </trkpt>
      <trkpt lat="50.85089" lon="3.2999">
        <ele>1.2</ele>
        <time>2023-10-28T08:48:17Z</time>
      </trkpt>
      <trkpt lat="50.85093" lon="3.29982">
        <ele>1.2</ele>
        <time>2023-10-28T08:48:18Z</time>
      </trkpt>
      <trkpt lat="50.85106" lon="3.29957">
        <ele>1.4</ele>
        <time>2023-10-28T08:48:21Z</time>
      </trkpt>
      <trkpt lat="50.8512" lon="3.29931">
        <ele>1.4</ele>
        <time>2023-10-28T08:48:24Z</time>
      </trkpt>
      <trkpt lat="50.85137" lon="3.29907">
        <ele>1.2</ele>
        <time>2023-10-28T08:48:27Z</time>
      </trkpt>
      <trkpt lat="50.85148" lon="3.29893">
        <ele>1.2</ele>
        <time>2023-10-28T08:48:29Z</time>
      </trkpt>
      <trkpt lat="50.85161" lon="3.29882">
        <ele>-0.80000000000001</ele>
        <time>2023-10-28T08:48:31Z</time>
      </trkpt>
      <trkpt lat="50.85167" lon="3.2988">
        <ele>-1.4</ele>
        <time>2023-10-28T08:48:32Z</time>
      </trkpt>
      <trkpt lat="50.85174" lon="3.29881">
        <ele>-1.8</ele>
        <time>2023-10-28T08:48:33Z</time>
      </trkpt>
      <trkpt lat="50.8518" lon="3.29884">
        <ele>-2.2</ele>
        <time>2023-10-28T08:48:34Z</time>
      </trkpt>
      <trkpt lat="50.85185" lon="3.29891">
        <ele>-2.4</ele>
        <time>2023-10-28T08:48:35Z</time>
      </trkpt>
      <trkpt lat="50.85188" lon="3.29901">
        <ele>-2.8</ele>
        <time>2023-10-28T08:48:36Z</time>
      </trkpt>
      <trkpt lat="50.85189" lon="3.29913">
        <ele>-3</ele>
        <time>2023-10-28T08:48:37Z</time>
      </trkpt>
      <trkpt lat="50.85188" lon="3.29938">
        <ele>-3.6</ele>
        <time>2023-10-28T08:48:39Z</time>
      </trkpt>
      <trkpt lat="50.85188" lon="3.2995">
        <ele>-4</ele>
        <time>2023-10-28T08:48:40Z</time>
      </trkpt>
      <trkpt lat="50.85187" lon="3.29973">
        <ele>-4.8</ele>
        <time>2023-10-28T08:48:42Z</time>
      </trkpt>
      <trkpt lat="50.85187" lon="3.30006">
        <ele>-5.6</ele>
        <time>2023-10-28T08:48:45Z</time>
      </trkpt>
      <trkpt lat="50.85187" lon="3.30016">
        <ele>-5.8</ele>
        <time>2023-10-28T08:48:46Z</time>
      </trkpt>
      <trkpt lat="50.85186" lon="3.30026">
        <ele>-6</ele>
        <time>2023-10-28T08:48:47Z</time>
      </trkpt>
      <trkpt lat="50.85186" lon="3.30036">
        <ele>-6.2</ele>
        <time>2023-10-28T08:48:48Z</time>
      </trkpt>
      <trkpt lat="50.85185" lon="3.30045">
        <ele>-6.2</ele>
        <time>2023-10-28T08:48:49Z</time>
      </trkpt>
      <trkpt lat="50.85184" lon="3.30055">
        <ele>-6.2</ele>
        <time>2023-10-28T08:48:50Z</time>
      </trkpt>
      <trkpt lat="50.85184" lon="3.30063">
        <ele>-6.2</ele>
        <time>2023-10-28T08:48:51Z</time>
      </trkpt>
      <trkpt lat="50.85183" lon="3.30071">
        <ele>-6.2</ele>
        <time>2023-10-28T08:48:52Z</time>
      </trkpt>
      <trkpt lat="50.85183" lon="3.30079">
        <ele>-6.2</ele>
        <time>2023-10-28T08:48:53Z</time>
      </trkpt>
      <trkpt lat="50.85182" lon="3.30087">
        <ele>-6.2</ele>
        <time>2023-10-28T08:48:54Z</time>
      </trkpt>
      <trkpt lat="50.8518" lon="3.30093">
        <ele>-6.2</ele>
        <time>2023-10-28T08:48:55Z</time>
      </trkpt>
      <trkpt lat="50.85177" lon="3.30098">
        <ele>-6.2</ele>
        <time>2023-10-28T08:48:56Z</time>
      </trkpt>
      <trkpt lat="50.85173" lon="3.30101">
        <ele>-6.2</ele>
        <time>2023-10-28T08:48:57Z</time>
      </trkpt>
      <trkpt lat="50.85163" lon="3.30105">
        <ele>-6.2</ele>
        <time>2023-10-28T08:48:59Z</time>
      </trkpt>
      <trkpt lat="50.85158" lon="3.30105">
        <ele>-6.4</ele>
        <time>2023-10-28T08:49:00Z</time>
      </trkpt>
      <trkpt lat="50.85153" lon="3.30103">
        <ele>-6.4</ele>
        <time>2023-10-28T08:49:01Z</time>
      </trkpt>
      <trkpt lat="50.85149" lon="3.30097">
        <ele>-6.4</ele>
        <time>2023-10-28T08:49:02Z</time>
      </trkpt>
      <trkpt lat="50.8514" lon="3.30085">
        <ele>-6.4</ele>
        <time>2023-10-28T08:49:04Z</time>
      </trkpt>
      <trkpt lat="50.85135" lon="3.30079">
        <ele>-6.4</ele>
        <time>2023-10-28T08:49:05Z</time>
      </trkpt>
      <trkpt lat="50.85126" lon="3.30066">
        <ele>-6.8</ele>
        <time>2023-10-28T08:49:07Z</time>
      </trkpt>
      <trkpt lat="50.85122" lon="3.3006">
        <ele>-7</ele>
        <time>2023-10-28T08:49:08Z</time>
      </trkpt>
      <trkpt lat="50.85117" lon="3.30054">
        <ele>-7</ele>
        <time>2023-10-28T08:49:09Z</time>
      </trkpt>
      <trkpt lat="50.85099" lon="3.30029">
        <ele>-7.2</ele>
        <time>2023-10-28T08:49:13Z</time>
      </trkpt>
      <trkpt lat="50.85082" lon="3.30003">
        <ele>-7.2</ele>
        <time>2023-10-28T08:49:17Z</time>
      </trkpt>
      <trkpt lat="50.85077" lon="3.29997">
        <ele>-7.2</ele>
        <time>2023-10-28T08:49:18Z</time>
      </trkpt>
      <trkpt lat="50.85073" lon="3.2999">
        <ele>-7.2</ele>
        <time>2023-10-28T08:49:19Z</time>
      </trkpt>
      <trkpt lat="50.85057" lon="3.29964">
        <ele>-7.2</ele>
        <time>2023-10-28T08:49:23Z</time>
      </trkpt>
      <trkpt lat="50.8505" lon="3.29949">
        <ele>-7</ele>
        <time>2023-10-28T08:49:25Z</time>
      </trkpt>
      <trkpt lat="50.85047" lon="3.29942">
        <ele>-7</ele>
        <time>2023-10-28T08:49:26Z</time>
      </trkpt>
      <trkpt lat="50.85038" lon="3.29918">
        <ele>-7</ele>
        <time>2023-10-28T08:49:29Z</time>
      </trkpt>
      <trkpt lat="50.85032" lon="3.29902">
        <ele>-7</ele>
        <time>2023-10-28T08:49:31Z</time>
      </trkpt>
      <trkpt lat="50.85028" lon="3.29885">
        <ele>-7</ele>
        <time>2023-10-28T08:49:33Z</time>
      </trkpt>
      <trkpt lat="50.85026" lon="3.29876">
        <ele>-7</ele>
        <time>2023-10-28T08:49:34Z</time>
      </trkpt>
      <trkpt lat="50.85014" lon="3.2984">
        <ele>-6.8</ele>
        <time>2023-10-28T08:49:39Z</time>
      </trkpt>
      <trkpt lat="50.85011" lon="3.29833">
        <ele>-6.4</ele>
        <time>2023-10-28T08:49:40Z</time>
      </trkpt>
      <trkpt lat="50.85008" lon="3.29827">
        <ele>-6.4</ele>
        <time>2023-10-28T08:49:41Z</time>
      </trkpt>
      <trkpt lat="50.85005" lon="3.2982">
        <ele>-6.2</ele>
        <time>2023-10-28T08:49:42Z</time>
      </trkpt>
      <trkpt lat="50.85003" lon="3.29812">
        <ele>-6.2</ele>
        <time>2023-10-28T08:49:43Z</time>
      </trkpt>
      <trkpt lat="50.85" lon="3.29805">
        <ele>-6.2</ele>
        <time>2023-10-28T08:49:44Z</time>
      </trkpt>
      <trkpt lat="50.84981" lon="3.29758">
        <ele>-6</ele>
        <time>2023-10-28T08:49:50Z</time>
      </trkpt>
      <trkpt lat="50.8496" lon="3.29707">
        <ele>-6.2</ele>
        <time>2023-10-28T08:49:56Z</time>
      </trkpt>
      <trkpt lat="50.8495" lon="3.29679">
        <ele>-6.4</ele>
        <time>2023-10-28T08:50:00Z</time>
      </trkpt>
      <trkpt lat="50.84943" lon="3.29659">
        <ele>-6.4</ele>
        <time>2023-10-28T08:50:01Z</time>
      </trkpt>
      <trkpt lat="50.84943" lon="3.29659">
        <ele>-6.4</ele>
        <time>2023-10-28T08:50:02Z</time>
      </trkpt>
      <trkpt lat="50.84936" lon="3.29638">
        <ele>-6.4</ele>
        <time>2023-10-28T08:50:03Z</time>
      </trkpt>
      <trkpt lat="50.84927" lon="3.29612">
        <ele>-6.4</ele>
        <time>2023-10-28T08:50:06Z</time>
      </trkpt>
      <trkpt lat="50.84923" lon="3.29602">
        <ele>-6.4</ele>
        <time>2023-10-28T08:50:07Z</time>
      </trkpt>
      <trkpt lat="50.84919" lon="3.2959">
        <ele>-6.4</ele>
        <time>2023-10-28T08:50:08Z</time>
      </trkpt>
      <trkpt lat="50.84913" lon="3.29573">
        <ele>-6.4</ele>
        <time>2023-10-28T08:50:10Z</time>
      </trkpt>
      <trkpt lat="50.84911" lon="3.29563">
        <ele>-6.4</ele>
        <time>2023-10-28T08:50:11Z</time>
      </trkpt>
      <trkpt lat="50.84908" lon="3.29553">
        <ele>-6.6</ele>
        <time>2023-10-28T08:50:12Z</time>
      </trkpt>
      <trkpt lat="50.84908" lon="3.29553">
        <ele>-6.6</ele>
        <time>2023-10-28T08:50:13Z</time>
      </trkpt>
      <trkpt lat="50.84901" lon="3.29516">
        <ele>-6.6</ele>
        <time>2023-10-28T08:50:16Z</time>
      </trkpt>
      <trkpt lat="50.84899" lon="3.29508">
        <ele>-6.6</ele>
        <time>2023-10-28T08:50:17Z</time>
      </trkpt>
      <trkpt lat="50.84897" lon="3.29499">
        <ele>-6.6</ele>
        <time>2023-10-28T08:50:18Z</time>
      </trkpt>
      <trkpt lat="50.84897" lon="3.29499">
        <ele>-6.6</ele>
        <time>2023-10-28T08:50:19Z</time>
      </trkpt>
      <trkpt lat="50.84895" lon="3.2949">
        <ele>-6.6</ele>
        <time>2023-10-28T08:50:20Z</time>
      </trkpt>
      <trkpt lat="50.84892" lon="3.29474">
        <ele>-6.6</ele>
        <time>2023-10-28T08:50:21Z</time>
      </trkpt>
      <trkpt lat="50.8489" lon="3.29466">
        <ele>-6.6</ele>
        <time>2023-10-28T08:50:22Z</time>
      </trkpt>
      <trkpt lat="50.8489" lon="3.29466">
        <ele>-6.6</ele>
        <time>2023-10-28T08:50:23Z</time>
      </trkpt>
      <trkpt lat="50.84885" lon="3.2945">
        <ele>-6.8</ele>
        <time>2023-10-28T08:50:24Z</time>
      </trkpt>
      <trkpt lat="50.84885" lon="3.2945">
        <ele>-6.8</ele>
        <time>2023-10-28T08:50:25Z</time>
      </trkpt>
      <trkpt lat="50.84881" lon="3.29435">
        <ele>-6.8</ele>
        <time>2023-10-28T08:50:26Z</time>
      </trkpt>
      <trkpt lat="50.84879" lon="3.29427">
        <ele>-6.6</ele>
        <time>2023-10-28T08:50:27Z</time>
      </trkpt>
      <trkpt lat="50.84862" lon="3.29362">
        <ele>-6.4</ele>
        <time>2023-10-28T08:50:35Z</time>
      </trkpt>
      <trkpt lat="50.84853" lon="3.29331">
        <ele>-6.2</ele>
        <time>2023-10-28T08:50:39Z</time>
      </trkpt>
      <trkpt lat="50.84847" lon="3.29315">
        <ele>-6.2</ele>
        <time>2023-10-28T08:50:41Z</time>
      </trkpt>
      <trkpt lat="50.84844" lon="3.29308">
        <ele>-6.2</ele>
        <time>2023-10-28T08:50:42Z</time>
      </trkpt>
      <trkpt lat="50.84826" lon="3.29263">
        <ele>-6.4</ele>
        <time>2023-10-28T08:50:48Z</time>
      </trkpt>
      <trkpt lat="50.84818" lon="3.2924">
        <ele>-6.6</ele>
        <time>2023-10-28T08:50:51Z</time>
      </trkpt>
      <trkpt lat="50.84815" lon="3.29233">
        <ele>-6.8</ele>
        <time>2023-10-28T08:50:52Z</time>
      </trkpt>
      <trkpt lat="50.84812" lon="3.29226">
        <ele>-6.8</ele>
        <time>2023-10-28T08:50:53Z</time>
      </trkpt>
      <trkpt lat="50.84809" lon="3.2922">
        <ele>-7</ele>
        <time>2023-10-28T08:50:54Z</time>
      </trkpt>
      <trkpt lat="50.84807" lon="3.29215">
        <ele>-7.4</ele>
        <time>2023-10-28T08:50:55Z</time>
      </trkpt>
      <trkpt lat="50.84807" lon="3.29215">
        <ele>-7.4</ele>
        <time>2023-10-28T08:50:56Z</time>
      </trkpt>
      <trkpt lat="50.84805" lon="3.29213">
        <ele>-7.6</ele>
        <time>2023-10-28T08:50:57Z</time>
      </trkpt>
      <trkpt lat="50.84804" lon="3.2921">
        <ele>-7.6</ele>
        <time>2023-10-28T08:50:58Z</time>
      </trkpt>
      <trkpt lat="50.84804" lon="3.2921">
        <ele>-7.6</ele>
        <time>2023-10-28T08:50:59Z</time>
      </trkpt>
      <trkpt lat="50.84804" lon="3.2921">
        <ele>-7.6</ele>
        <time>2023-10-28T08:51:01Z</time>
      </trkpt>
      <trkpt lat="50.84801" lon="3.29202">
        <ele>-6</ele>
        <time>2023-10-28T08:51:09Z</time>
      </trkpt>
      <trkpt lat="50.84799" lon="3.29199">
        <ele>-6</ele>
        <time>2023-10-28T08:51:10Z</time>
      </trkpt>
      <trkpt lat="50.8479" lon="3.29174">
        <ele>-5.8</ele>
        <time>2023-10-28T08:51:15Z</time>
      </trkpt>
      <trkpt lat="50.84787" lon="3.29161">
        <ele>-6</ele>
        <time>2023-10-28T08:51:17Z</time>
      </trkpt>
      <trkpt lat="50.84785" lon="3.29147">
        <ele>-5.8</ele>
        <time>2023-10-28T08:51:19Z</time>
      </trkpt>
      <trkpt lat="50.84784" lon="3.29142">
        <ele>-6</ele>
        <time>2023-10-28T08:51:20Z</time>
      </trkpt>
      <trkpt lat="50.8478" lon="3.29129">
        <ele>-6</ele>
        <time>2023-10-28T08:51:22Z</time>
      </trkpt>
      <trkpt lat="50.8477" lon="3.29105">
        <ele>-6.4</ele>
        <time>2023-10-28T08:51:26Z</time>
      </trkpt>
      <trkpt lat="50.8476" lon="3.29071">
        <ele>-7.2</ele>
        <time>2023-10-28T08:51:31Z</time>
      </trkpt>
      <trkpt lat="50.84749" lon="3.29042">
        <ele>-8</ele>
        <time>2023-10-28T08:51:35Z</time>
      </trkpt>
      <trkpt lat="50.84741" lon="3.29021">
        <ele>-8</ele>
        <time>2023-10-28T08:51:38Z</time>
      </trkpt>
      <trkpt lat="50.84731" lon="3.29004">
        <ele>-8</ele>
        <time>2023-10-28T08:51:41Z</time>
      </trkpt>
      <trkpt lat="50.847" lon="3.28946">
        <ele>-8</ele>
        <time>2023-10-28T08:51:50Z</time>
      </trkpt>
      <trkpt lat="50.84694" lon="3.28933">
        <ele>-8</ele>
        <time>2023-10-28T08:51:52Z</time>
      </trkpt>
      <trkpt lat="50.8469" lon="3.28918">
        <ele>-8</ele>
        <time>2023-10-28T08:51:54Z</time>
      </trkpt>
      <trkpt lat="50.8469" lon="3.2891">
        <ele>-8</ele>
        <time>2023-10-28T08:51:55Z</time>
      </trkpt>
      <trkpt lat="50.84691" lon="3.28902">
        <ele>-8</ele>
        <time>2023-10-28T08:51:56Z</time>
      </trkpt>
      <trkpt lat="50.84691" lon="3.28894">
        <ele>-8</ele>
        <time>2023-10-28T08:51:57Z</time>
      </trkpt>
      <trkpt lat="50.84693" lon="3.28887">
        <ele>-8</ele>
        <time>2023-10-28T08:51:58Z</time>
      </trkpt>
      <trkpt lat="50.84694" lon="3.28879">
        <ele>-8</ele>
        <time>2023-10-28T08:51:59Z</time>
      </trkpt>
      <trkpt lat="50.84695" lon="3.28871">
        <ele>-8</ele>
        <time>2023-10-28T08:52:00Z</time>
      </trkpt>
      <trkpt lat="50.84697" lon="3.28864">
        <ele>-7.8</ele>
        <time>2023-10-28T08:52:01Z</time>
      </trkpt>
      <trkpt lat="50.84699" lon="3.28857">
        <ele>-7.8</ele>
        <time>2023-10-28T08:52:02Z</time>
      </trkpt>
      <trkpt lat="50.847" lon="3.28849">
        <ele>-7.6</ele>
        <time>2023-10-28T08:52:03Z</time>
      </trkpt>
      <trkpt lat="50.84702" lon="3.28841">
        <ele>-7.4</ele>
        <time>2023-10-28T08:52:04Z</time>
      </trkpt>
      <trkpt lat="50.84702" lon="3.28819">
        <ele>-7.2</ele>
        <time>2023-10-28T08:52:07Z</time>
      </trkpt>
      <trkpt lat="50.84702" lon="3.28811">
        <ele>-7</ele>
        <time>2023-10-28T08:52:08Z</time>
      </trkpt>
      <trkpt lat="50.847" lon="3.28803">
        <ele>-6.8</ele>
        <time>2023-10-28T08:52:09Z</time>
      </trkpt>
      <trkpt lat="50.84699" lon="3.28795">
        <ele>-6.6</ele>
        <time>2023-10-28T08:52:10Z</time>
      </trkpt>
      <trkpt lat="50.84694" lon="3.28772">
        <ele>-6.2</ele>
        <time>2023-10-28T08:52:13Z</time>
      </trkpt>
      <trkpt lat="50.84688" lon="3.2874">
        <ele>-6</ele>
        <time>2023-10-28T08:52:17Z</time>
      </trkpt>
      <trkpt lat="50.84673" lon="3.28672">
        <ele>-5.6</ele>
        <time>2023-10-28T08:52:26Z</time>
      </trkpt>
      <trkpt lat="50.84671" lon="3.28665">
        <ele>-5.6</ele>
        <time>2023-10-28T08:52:27Z</time>
      </trkpt>
      <trkpt lat="50.8467" lon="3.28658">
        <ele>-5.6</ele>
        <time>2023-10-28T08:52:28Z</time>
      </trkpt>
      <trkpt lat="50.84669" lon="3.2865">
        <ele>-5.4</ele>
        <time>2023-10-28T08:52:29Z</time>
      </trkpt>
      <trkpt lat="50.84668" lon="3.28643">
        <ele>-5.4</ele>
        <time>2023-10-28T08:52:30Z</time>
      </trkpt>
      <trkpt lat="50.84667" lon="3.28636">
        <ele>-5.4</ele>
        <time>2023-10-28T08:52:31Z</time>
      </trkpt>
      <trkpt lat="50.84665" lon="3.28629">
        <ele>-5.4</ele>
        <time>2023-10-28T08:52:32Z</time>
      </trkpt>
      <trkpt lat="50.84663" lon="3.28623">
        <ele>-5.4</ele>
        <time>2023-10-28T08:52:33Z</time>
      </trkpt>
      <trkpt lat="50.84661" lon="3.28616">
        <ele>-5.4</ele>
        <time>2023-10-28T08:52:34Z</time>
      </trkpt>
      <trkpt lat="50.84658" lon="3.28609">
        <ele>-5.4</ele>
        <time>2023-10-28T08:52:35Z</time>
      </trkpt>
      <trkpt lat="50.84656" lon="3.28603">
        <ele>-5.4</ele>
        <time>2023-10-28T08:52:36Z</time>
      </trkpt>
      <trkpt lat="50.84654" lon="3.28596">
        <ele>-5.2</ele>
        <time>2023-10-28T08:52:37Z</time>
      </trkpt>
      <trkpt lat="50.84652" lon="3.2859">
        <ele>-5.2</ele>
        <time>2023-10-28T08:52:38Z</time>
      </trkpt>
      <trkpt lat="50.8465" lon="3.28584">
        <ele>-5.2</ele>
        <time>2023-10-28T08:52:39Z</time>
      </trkpt>
      <trkpt lat="50.84648" lon="3.28578">
        <ele>-5.2</ele>
        <time>2023-10-28T08:52:40Z</time>
      </trkpt>
      <trkpt lat="50.84646" lon="3.28572">
        <ele>-5.2</ele>
        <time>2023-10-28T08:52:41Z</time>
      </trkpt>
      <trkpt lat="50.84644" lon="3.28566">
        <ele>-5.2</ele>
        <time>2023-10-28T08:52:42Z</time>
      </trkpt>
      <trkpt lat="50.84643" lon="3.2856">
        <ele>-5.2</ele>
        <time>2023-10-28T08:52:43Z</time>
      </trkpt>
      <trkpt lat="50.84641" lon="3.28553">
        <ele>-5.2</ele>
        <time>2023-10-28T08:52:44Z</time>
      </trkpt>
      <trkpt lat="50.84639" lon="3.28547">
        <ele>-5</ele>
        <time>2023-10-28T08:52:45Z</time>
      </trkpt>
      <trkpt lat="50.84638" lon="3.2854">
        <ele>-5</ele>
        <time>2023-10-28T08:52:46Z</time>
      </trkpt>
      <trkpt lat="50.84632" lon="3.28495">
        <ele>-5</ele>
        <time>2023-10-28T08:52:52Z</time>
      </trkpt>
      <trkpt lat="50.84631" lon="3.28488">
        <ele>-5</ele>
        <time>2023-10-28T08:52:53Z</time>
      </trkpt>
      <trkpt lat="50.84628" lon="3.28473">
        <ele>-5.2</ele>
        <time>2023-10-28T08:52:55Z</time>
      </trkpt>
      <trkpt lat="50.84622" lon="3.28437">
        <ele>-5.4</ele>
        <time>2023-10-28T08:53:00Z</time>
      </trkpt>
      <trkpt lat="50.84617" lon="3.28423">
        <ele>-5.4</ele>
        <time>2023-10-28T08:53:02Z</time>
      </trkpt>
      <trkpt lat="50.84611" lon="3.28412">
        <ele>-5.6</ele>
        <time>2023-10-28T08:53:04Z</time>
      </trkpt>
      <trkpt lat="50.84608" lon="3.28407">
        <ele>-5.6</ele>
        <time>2023-10-28T08:53:05Z</time>
      </trkpt>
      <trkpt lat="50.84596" lon="3.28388">
        <ele>-5.6</ele>
        <time>2023-10-28T08:53:09Z</time>
      </trkpt>
      <trkpt lat="50.84593" lon="3.28382">
        <ele>-5.6</ele>
        <time>2023-10-28T08:53:10Z</time>
      </trkpt>
      <trkpt lat="50.84591" lon="3.28376">
        <ele>-5.6</ele>
        <time>2023-10-28T08:53:11Z</time>
      </trkpt>
      <trkpt lat="50.84588" lon="3.28371">
        <ele>-5.6</ele>
        <time>2023-10-28T08:53:12Z</time>
      </trkpt>
      <trkpt lat="50.84584" lon="3.28366">
        <ele>-5.6</ele>
        <time>2023-10-28T08:53:13Z</time>
      </trkpt>
      <trkpt lat="50.84578" lon="3.28354">
        <ele>-5.4</ele>
        <time>2023-10-28T08:53:15Z</time>
      </trkpt>
      <trkpt lat="50.84575" lon="3.28348">
        <ele>-5.4</ele>
        <time>2023-10-28T08:53:16Z</time>
      </trkpt>
      <trkpt lat="50.84572" lon="3.28342">
        <ele>-5.4</ele>
        <time>2023-10-28T08:53:17Z</time>
      </trkpt>
      <trkpt lat="50.84563" lon="3.28326">
        <ele>-5.4</ele>
        <time>2023-10-28T08:53:20Z</time>
      </trkpt>
      <trkpt lat="50.84556" lon="3.28316">
        <ele>-5.2</ele>
        <time>2023-10-28T08:53:22Z</time>
      </trkpt>
      <trkpt lat="50.84553" lon="3.2831">
        <ele>-5.2</ele>
        <time>2023-10-28T08:53:23Z</time>
      </trkpt>
      <trkpt lat="50.84551" lon="3.28306">
        <ele>-5.2</ele>
        <time>2023-10-28T08:53:24Z</time>
      </trkpt>
      <trkpt lat="50.84548" lon="3.283">
        <ele>-5.2</ele>
        <time>2023-10-28T08:53:25Z</time>
      </trkpt>
      <trkpt lat="50.84546" lon="3.28294">
        <ele>-5.2</ele>
        <time>2023-10-28T08:53:26Z</time>
      </trkpt>
      <trkpt lat="50.84544" lon="3.28288">
        <ele>-5.2</ele>
        <time>2023-10-28T08:53:27Z</time>
      </trkpt>
      <trkpt lat="50.84541" lon="3.28282">
        <ele>-5.2</ele>
        <time>2023-10-28T08:53:28Z</time>
      </trkpt>
      <trkpt lat="50.84539" lon="3.28277">
        <ele>-5.2</ele>
        <time>2023-10-28T08:53:29Z</time>
      </trkpt>
      <trkpt lat="50.84537" lon="3.28271">
        <ele>-5.2</ele>
        <time>2023-10-28T08:53:30Z</time>
      </trkpt>
      <trkpt lat="50.84526" lon="3.28246">
        <ele>-4.6</ele>
        <time>2023-10-28T08:53:34Z</time>
      </trkpt>
      <trkpt lat="50.84516" lon="3.28223">
        <ele>-4.2</ele>
        <time>2023-10-28T08:53:38Z</time>
      </trkpt>
      <trkpt lat="50.84502" lon="3.28193">
        <ele>-3.8</ele>
        <time>2023-10-28T08:53:44Z</time>
      </trkpt>
      <trkpt lat="50.84482" lon="3.2815">
        <ele>-3.6</ele>
        <time>2023-10-28T08:53:50Z</time>
      </trkpt>
      <trkpt lat="50.84479" lon="3.28144">
        <ele>-3.6</ele>
        <time>2023-10-28T08:53:52Z</time>
      </trkpt>
      <trkpt lat="50.84465" lon="3.28106">
        <ele>-3.8</ele>
        <time>2023-10-28T08:53:58Z</time>
      </trkpt>
      <trkpt lat="50.84462" lon="3.281">
        <ele>-4</ele>
        <time>2023-10-28T08:53:59Z</time>
      </trkpt>
      <trkpt lat="50.84457" lon="3.28089">
        <ele>-4</ele>
        <time>2023-10-28T08:54:00Z</time>
      </trkpt>
      <trkpt lat="50.84455" lon="3.28084">
        <ele>-3.8</ele>
        <time>2023-10-28T08:54:01Z</time>
      </trkpt>
      <trkpt lat="50.84455" lon="3.28084">
        <ele>-3.8</ele>
        <time>2023-10-28T08:54:02Z</time>
      </trkpt>
      <trkpt lat="50.84452" lon="3.28078">
        <ele>-3.6</ele>
        <time>2023-10-28T08:54:03Z</time>
      </trkpt>
      <trkpt lat="50.8445" lon="3.28072">
        <ele>-3.6</ele>
        <time>2023-10-28T08:54:04Z</time>
      </trkpt>
      <trkpt lat="50.84449" lon="3.28059">
        <ele>-3.6</ele>
        <time>2023-10-28T08:54:05Z</time>
      </trkpt>
      <trkpt lat="50.84449" lon="3.28059">
        <ele>-3.4</ele>
        <time>2023-10-28T08:54:06Z</time>
      </trkpt>
      <trkpt lat="50.84455" lon="3.28049">
        <ele>-3.4</ele>
        <time>2023-10-28T08:54:07Z</time>
      </trkpt>
      <trkpt lat="50.84459" lon="3.28045">
        <ele>-3.4</ele>
        <time>2023-10-28T08:54:08Z</time>
      </trkpt>
      <trkpt lat="50.84468" lon="3.28039">
        <ele>-2.8</ele>
        <time>2023-10-28T08:54:10Z</time>
      </trkpt>
      <trkpt lat="50.84481" lon="3.28027">
        <ele>-2.4</ele>
        <time>2023-10-28T08:54:13Z</time>
      </trkpt>
      <trkpt lat="50.84513" lon="3.27996">
        <ele>-1.8</ele>
        <time>2023-10-28T08:54:20Z</time>
      </trkpt>
      <trkpt lat="50.84518" lon="3.27992">
        <ele>-1.8</ele>
        <time>2023-10-28T08:54:21Z</time>
      </trkpt>
      <trkpt lat="50.84538" lon="3.27973">
        <ele>-1.8</ele>
        <time>2023-10-28T08:54:25Z</time>
      </trkpt>
      <trkpt lat="50.84567" lon="3.27948">
        <ele>-1.8</ele>
        <time>2023-10-28T08:54:30Z</time>
      </trkpt>
      <trkpt lat="50.84572" lon="3.27943">
        <ele>-1.8</ele>
        <time>2023-10-28T08:54:31Z</time>
      </trkpt>
      <trkpt lat="50.84606" lon="3.27909">
        <ele>-3</ele>
        <time>2023-10-28T08:54:38Z</time>
      </trkpt>
      <trkpt lat="50.84622" lon="3.27893">
        <ele>-3.2</ele>
        <time>2023-10-28T08:54:40Z</time>
      </trkpt>
      <trkpt lat="50.84627" lon="3.27888">
        <ele>-3.4</ele>
        <time>2023-10-28T08:54:41Z</time>
      </trkpt>
      <trkpt lat="50.84633" lon="3.27882">
        <ele>-3.6</ele>
        <time>2023-10-28T08:54:43Z</time>
      </trkpt>
      <trkpt lat="50.84649" lon="3.27879">
        <ele>-4</ele>
        <time>2023-10-28T08:54:45Z</time>
      </trkpt>
      <trkpt lat="50.84654" lon="3.27883">
        <ele>-4.2</ele>
        <time>2023-10-28T08:54:46Z</time>
      </trkpt>
      <trkpt lat="50.84654" lon="3.27883">
        <ele>-4.4</ele>
        <time>2023-10-28T08:54:47Z</time>
      </trkpt>
      <trkpt lat="50.84666" lon="3.27894">
        <ele>-4.4</ele>
        <time>2023-10-28T08:54:48Z</time>
      </trkpt>
      <trkpt lat="50.84671" lon="3.27901">
        <ele>-4.4</ele>
        <time>2023-10-28T08:54:49Z</time>
      </trkpt>
      <trkpt lat="50.84683" lon="3.27914">
        <ele>-4.4</ele>
        <time>2023-10-28T08:54:51Z</time>
      </trkpt>
      <trkpt lat="50.84702" lon="3.27926">
        <ele>-4.8</ele>
        <time>2023-10-28T08:54:55Z</time>
      </trkpt>
      <trkpt lat="50.84712" lon="3.27933">
        <ele>-4.8</ele>
        <time>2023-10-28T08:54:56Z</time>
      </trkpt>
      <trkpt lat="50.84722" lon="3.27941">
        <ele>-4.8</ele>
        <time>2023-10-28T08:54:58Z</time>
      </trkpt>
      <trkpt lat="50.84727" lon="3.27943">
        <ele>-4.8</ele>
        <time>2023-10-28T08:54:59Z</time>
      </trkpt>
      <trkpt lat="50.84731" lon="3.27944">
        <ele>-4.8</ele>
        <time>2023-10-28T08:55:00Z</time>
      </trkpt>
      <trkpt lat="50.84736" lon="3.27941">
        <ele>-4.8</ele>
        <time>2023-10-28T08:55:01Z</time>
      </trkpt>
      <trkpt lat="50.8474" lon="3.27936">
        <ele>-4.8</ele>
        <time>2023-10-28T08:55:02Z</time>
      </trkpt>
      <trkpt lat="50.84748" lon="3.27921">
        <ele>-4.8</ele>
        <time>2023-10-28T08:55:04Z</time>
      </trkpt>
      <trkpt lat="50.84752" lon="3.27914">
        <ele>-4.8</ele>
        <time>2023-10-28T08:55:05Z</time>
      </trkpt>
      <trkpt lat="50.8476" lon="3.27901">
        <ele>-4.6</ele>
        <time>2023-10-28T08:55:07Z</time>
      </trkpt>
      <trkpt lat="50.84765" lon="3.27895">
        <ele>-4.6</ele>
        <time>2023-10-28T08:55:08Z</time>
      </trkpt>
      <trkpt lat="50.84769" lon="3.27889">
        <ele>-4.4</ele>
        <time>2023-10-28T08:55:09Z</time>
      </trkpt>
      <trkpt lat="50.84774" lon="3.27886">
        <ele>-4.4</ele>
        <time>2023-10-28T08:55:10Z</time>
      </trkpt>
      <trkpt lat="50.8478" lon="3.27886">
        <ele>-4.4</ele>
        <time>2023-10-28T08:55:11Z</time>
      </trkpt>
      <trkpt lat="50.84785" lon="3.27887">
        <ele>-4.2</ele>
        <time>2023-10-28T08:55:12Z</time>
      </trkpt>
      <trkpt lat="50.8479" lon="3.27888">
        <ele>-4.2</ele>
        <time>2023-10-28T08:55:13Z</time>
      </trkpt>
      <trkpt lat="50.84795" lon="3.2789">
        <ele>-4.2</ele>
        <time>2023-10-28T08:55:14Z</time>
      </trkpt>
      <trkpt lat="50.848" lon="3.27892">
        <ele>-4.2</ele>
        <time>2023-10-28T08:55:15Z</time>
      </trkpt>
      <trkpt lat="50.84805" lon="3.27893">
        <ele>-4</ele>
        <time>2023-10-28T08:55:16Z</time>
      </trkpt>
      <trkpt lat="50.84813" lon="3.27897">
        <ele>-3.4</ele>
        <time>2023-10-28T08:55:18Z</time>
      </trkpt>
      <trkpt lat="50.84818" lon="3.27898">
        <ele>-3.2</ele>
        <time>2023-10-28T08:55:19Z</time>
      </trkpt>
      <trkpt lat="50.84818" lon="3.27898">
        <ele>-2.8</ele>
        <time>2023-10-28T08:55:20Z</time>
      </trkpt>
      <trkpt lat="50.84828" lon="3.27897">
        <ele>-2.6</ele>
        <time>2023-10-28T08:55:21Z</time>
      </trkpt>
      <trkpt lat="50.84835" lon="3.27896">
        <ele>-2.4</ele>
        <time>2023-10-28T08:55:22Z</time>
      </trkpt>
      <trkpt lat="50.84841" lon="3.27894">
        <ele>-2.4</ele>
        <time>2023-10-28T08:55:23Z</time>
      </trkpt>
      <trkpt lat="50.84858" lon="3.27893">
        <ele>-1.8</ele>
        <time>2023-10-28T08:55:26Z</time>
      </trkpt>
      <trkpt lat="50.8487" lon="3.27896">
        <ele>-1.6</ele>
        <time>2023-10-28T08:55:28Z</time>
      </trkpt>
      <trkpt lat="50.84875" lon="3.27898">
        <ele>-1.4</ele>
        <time>2023-10-28T08:55:29Z</time>
      </trkpt>
      <trkpt lat="50.8488" lon="3.27902">
        <ele>-1.4</ele>
        <time>2023-10-28T08:55:30Z</time>
      </trkpt>
      <trkpt lat="50.84885" lon="3.27905">
        <ele>-1.4</ele>
        <time>2023-10-28T08:55:31Z</time>
      </trkpt>
      <trkpt lat="50.8489" lon="3.2791">
        <ele>-1.2</ele>
        <time>2023-10-28T08:55:32Z</time>
      </trkpt>
      <trkpt lat="50.84895" lon="3.27914">
        <ele>-1.2</ele>
        <time>2023-10-28T08:55:33Z</time>
      </trkpt>
      <trkpt lat="50.849" lon="3.27919">
        <ele>-1.2</ele>
        <time>2023-10-28T08:55:34Z</time>
      </trkpt>
      <trkpt lat="50.84905" lon="3.27924">
        <ele>-1.2</ele>
        <time>2023-10-28T08:55:35Z</time>
      </trkpt>
      <trkpt lat="50.8491" lon="3.27928">
        <ele>-1.2</ele>
        <time>2023-10-28T08:55:36Z</time>
      </trkpt>
      <trkpt lat="50.84915" lon="3.27933">
        <ele>-1.2</ele>
        <time>2023-10-28T08:55:37Z</time>
      </trkpt>
      <trkpt lat="50.8492" lon="3.27937">
        <ele>-1.2</ele>
        <time>2023-10-28T08:55:38Z</time>
      </trkpt>
      <trkpt lat="50.84925" lon="3.27942">
        <ele>-1.2</ele>
        <time>2023-10-28T08:55:39Z</time>
      </trkpt>
      <trkpt lat="50.8493" lon="3.27947">
        <ele>-1.4</ele>
        <time>2023-10-28T08:55:40Z</time>
      </trkpt>
      <trkpt lat="50.84935" lon="3.27952">
        <ele>-1.4</ele>
        <time>2023-10-28T08:55:41Z</time>
      </trkpt>
      <trkpt lat="50.8494" lon="3.27956">
        <ele>-1.4</ele>
        <time>2023-10-28T08:55:42Z</time>
      </trkpt>
      <trkpt lat="50.84945" lon="3.27961">
        <ele>-1.4</ele>
        <time>2023-10-28T08:55:43Z</time>
      </trkpt>
      <trkpt lat="50.8495" lon="3.27965">
        <ele>-1.4</ele>
        <time>2023-10-28T08:55:44Z</time>
      </trkpt>
      <trkpt lat="50.84976" lon="3.27981">
        <ele>-1.4</ele>
        <time>2023-10-28T08:55:49Z</time>
      </trkpt>
      <trkpt lat="50.84981" lon="3.27983">
        <ele>-1.4</ele>
        <time>2023-10-28T08:55:50Z</time>
      </trkpt>
      <trkpt lat="50.84987" lon="3.27985">
        <ele>-1.4</ele>
        <time>2023-10-28T08:55:51Z</time>
      </trkpt>
      <trkpt lat="50.85003" lon="3.27991">
        <ele>-1.4</ele>
        <time>2023-10-28T08:55:54Z</time>
      </trkpt>
      <trkpt lat="50.85008" lon="3.27993">
        <ele>-1.4</ele>
        <time>2023-10-28T08:55:55Z</time>
      </trkpt>
      <trkpt lat="50.85013" lon="3.27995">
        <ele>-1.2</ele>
        <time>2023-10-28T08:55:56Z</time>
      </trkpt>
      <trkpt lat="50.85018" lon="3.27998">
        <ele>-1.2</ele>
        <time>2023-10-28T08:55:57Z</time>
      </trkpt>
      <trkpt lat="50.85022" lon="3.28">
        <ele>-1.2</ele>
        <time>2023-10-28T08:55:58Z</time>
      </trkpt>
      <trkpt lat="50.85026" lon="3.28002">
        <ele>-1</ele>
        <time>2023-10-28T08:55:59Z</time>
      </trkpt>
      <trkpt lat="50.8503" lon="3.28004">
        <ele>-1</ele>
        <time>2023-10-28T08:56:00Z</time>
      </trkpt>
      <trkpt lat="50.85035" lon="3.28006">
        <ele>-1</ele>
        <time>2023-10-28T08:56:01Z</time>
      </trkpt>
      <trkpt lat="50.8504" lon="3.28008">
        <ele>-0.80000000000001</ele>
        <time>2023-10-28T08:56:02Z</time>
      </trkpt>
      <trkpt lat="50.85049" lon="3.28011">
        <ele>-0.39999999999998</ele>
        <time>2023-10-28T08:56:04Z</time>
      </trkpt>
      <trkpt lat="50.85053" lon="3.28012">
        <ele>-0.19999999999999</ele>
        <time>2023-10-28T08:56:05Z</time>
      </trkpt>
      <trkpt lat="50.85057" lon="3.28012">
        <ele>-0.19999999999999</ele>
        <time>2023-10-28T08:56:06Z</time>
      </trkpt>
      <trkpt lat="50.85061" lon="3.2801">
        <ele>-0.19999999999999</ele>
        <time>2023-10-28T08:56:07Z</time>
      </trkpt>
      <trkpt lat="50.85065" lon="3.28006">
        <ele>-0.19999999999999</ele>
        <time>2023-10-28T08:56:08Z</time>
      </trkpt>
      <trkpt lat="50.85066" lon="3.27999">
        <ele>0.19999999999999</ele>
        <time>2023-10-28T08:56:09Z</time>
      </trkpt>
      <trkpt lat="50.85067" lon="3.27992">
        <ele>0.39999999999998</ele>
        <time>2023-10-28T08:56:10Z</time>
      </trkpt>
      <trkpt lat="50.85066" lon="3.27976">
        <ele>0.39999999999998</ele>
        <time>2023-10-28T08:56:12Z</time>
      </trkpt>
      <trkpt lat="50.85066" lon="3.27968">
        <ele>0.39999999999998</ele>
        <time>2023-10-28T08:56:13Z</time>
      </trkpt>
      <trkpt lat="50.85062" lon="3.27918">
        <ele>0.60000000000002</ele>
        <time>2023-10-28T08:56:19Z</time>
      </trkpt>
      <trkpt lat="50.85052" lon="3.27843">
        <ele>0.60000000000002</ele>
        <time>2023-10-28T08:56:28Z</time>
      </trkpt>
      <trkpt lat="50.8504" lon="3.27771">
        <ele>0.60000000000002</ele>
        <time>2023-10-28T08:56:36Z</time>
      </trkpt>
      <trkpt lat="50.85025" lon="3.27701">
        <ele>0.19999999999999</ele>
        <time>2023-10-28T08:56:44Z</time>
      </trkpt>
      <trkpt lat="50.85022" lon="3.27693">
        <ele>0.19999999999999</ele>
        <time>2023-10-28T08:56:45Z</time>
      </trkpt>
      <trkpt lat="50.85021" lon="3.27684">
        <ele>0.19999999999999</ele>
        <time>2023-10-28T08:56:46Z</time>
      </trkpt>
      <trkpt lat="50.85013" lon="3.2764">
        <ele>-0.19999999999999</ele>
        <time>2023-10-28T08:56:51Z</time>
      </trkpt>
      <trkpt lat="50.85011" lon="3.27576">
        <ele>-0.39999999999998</ele>
        <time>2023-10-28T08:56:58Z</time>
      </trkpt>
      <trkpt lat="50.85011" lon="3.27568">
        <ele>-0.39999999999998</ele>
        <time>2023-10-28T08:56:59Z</time>
      </trkpt>
      <trkpt lat="50.8501" lon="3.27559">
        <ele>-0.39999999999998</ele>
        <time>2023-10-28T08:57:00Z</time>
      </trkpt>
      <trkpt lat="50.8501" lon="3.27551">
        <ele>-0.39999999999998</ele>
        <time>2023-10-28T08:57:01Z</time>
      </trkpt>
      <trkpt lat="50.85009" lon="3.27542">
        <ele>-0.39999999999998</ele>
        <time>2023-10-28T08:57:02Z</time>
      </trkpt>
      <trkpt lat="50.85009" lon="3.27533">
        <ele>-0.39999999999998</ele>
        <time>2023-10-28T08:57:03Z</time>
      </trkpt>
      <trkpt lat="50.85008" lon="3.27524">
        <ele>-0.39999999999998</ele>
        <time>2023-10-28T08:57:04Z</time>
      </trkpt>
      <trkpt lat="50.85006" lon="3.27476">
        <ele>-0.60000000000002</ele>
        <time>2023-10-28T08:57:09Z</time>
      </trkpt>
      <trkpt lat="50.85004" lon="3.27439">
        <ele>-1</ele>
        <time>2023-10-28T08:57:13Z</time>
      </trkpt>
      <trkpt lat="50.85001" lon="3.27404">
        <ele>-1</ele>
        <time>2023-10-28T08:57:17Z</time>
      </trkpt>
      <trkpt lat="50.85" lon="3.27396">
        <ele>-1</ele>
        <time>2023-10-28T08:57:18Z</time>
      </trkpt>
      <trkpt lat="50.85" lon="3.27388">
        <ele>-1</ele>
        <time>2023-10-28T08:57:19Z</time>
      </trkpt>
      <trkpt lat="50.85" lon="3.27381">
        <ele>-1</ele>
        <time>2023-10-28T08:57:20Z</time>
      </trkpt>
      <trkpt lat="50.85" lon="3.27374">
        <ele>-1</ele>
        <time>2023-10-28T08:57:21Z</time>
      </trkpt>
      <trkpt lat="50.85001" lon="3.27368">
        <ele>-0.80000000000001</ele>
        <time>2023-10-28T08:57:22Z</time>
      </trkpt>
      <trkpt lat="50.85002" lon="3.27362">
        <ele>-0.80000000000001</ele>
        <time>2023-10-28T08:57:23Z</time>
      </trkpt>
      <trkpt lat="50.85005" lon="3.2736">
        <ele>-0.80000000000001</ele>
        <time>2023-10-28T08:57:24Z</time>
      </trkpt>
      <trkpt lat="50.8501" lon="3.27358">
        <ele>-0.60000000000002</ele>
        <time>2023-10-28T08:57:25Z</time>
      </trkpt>
      <trkpt lat="50.85019" lon="3.27354">
        <ele>-0.39999999999998</ele>
        <time>2023-10-28T08:57:27Z</time>
      </trkpt>
      <trkpt lat="50.85022" lon="3.27353">
        <ele>-0.19999999999999</ele>
        <time>2023-10-28T08:57:28Z</time>
      </trkpt>
      <trkpt lat="50.85041" lon="3.27343">
        <ele>-0.19999999999999</ele>
        <time>2023-10-28T08:57:32Z</time>
      </trkpt>
      <trkpt lat="50.85061" lon="3.27335">
        <ele>0.19999999999999</ele>
        <time>2023-10-28T08:57:36Z</time>
      </trkpt>
      <trkpt lat="50.85087" lon="3.27324">
        <ele>0.19999999999999</ele>
        <time>2023-10-28T08:57:41Z</time>
      </trkpt>
      <trkpt lat="50.85102" lon="3.27318">
        <ele>0.19999999999999</ele>
        <time>2023-10-28T08:57:44Z</time>
      </trkpt>
      <trkpt lat="50.85106" lon="3.27316">
        <ele>0.19999999999999</ele>
        <time>2023-10-28T08:57:45Z</time>
      </trkpt>
      <trkpt lat="50.85112" lon="3.27314">
        <ele>0.19999999999999</ele>
        <time>2023-10-28T08:57:46Z</time>
      </trkpt>
      <trkpt lat="50.85116" lon="3.27312">
        <ele>0.19999999999999</ele>
        <time>2023-10-28T08:57:47Z</time>
      </trkpt>
      <trkpt lat="50.85121" lon="3.2731">
        <ele>0.19999999999999</ele>
        <time>2023-10-28T08:57:48Z</time>
      </trkpt>
      <trkpt lat="50.85151" lon="3.27295">
        <ele>0.39999999999998</ele>
        <time>2023-10-28T08:57:54Z</time>
      </trkpt>
      <trkpt lat="50.85166" lon="3.27287">
        <ele>0.60000000000002</ele>
        <time>2023-10-28T08:57:57Z</time>
      </trkpt>
      <trkpt lat="50.85174" lon="3.27283">
        <ele>0.60000000000002</ele>
        <time>2023-10-28T08:57:59Z</time>
      </trkpt>
      <trkpt lat="50.85178" lon="3.27282">
        <ele>0.60000000000002</ele>
        <time>2023-10-28T08:58:00Z</time>
      </trkpt>
      <trkpt lat="50.85181" lon="3.27279">
        <ele>0.60000000000002</ele>
        <time>2023-10-28T08:58:01Z</time>
      </trkpt>
      <trkpt lat="50.85184" lon="3.27276">
        <ele>0.60000000000002</ele>
        <time>2023-10-28T08:58:02Z</time>
      </trkpt>
      <trkpt lat="50.85186" lon="3.2727">
        <ele>0.60000000000002</ele>
        <time>2023-10-28T08:58:03Z</time>
      </trkpt>
      <trkpt lat="50.85186" lon="3.27263">
        <ele>0.39999999999998</ele>
        <time>2023-10-28T08:58:04Z</time>
      </trkpt>
      <trkpt lat="50.85181" lon="3.27243">
        <ele>0.19999999999999</ele>
        <time>2023-10-28T08:58:07Z</time>
      </trkpt>
      <trkpt lat="50.85179" lon="3.27236">
        <ele>0.19999999999999</ele>
        <time>2023-10-28T08:58:08Z</time>
      </trkpt>
      <trkpt lat="50.85174" lon="3.27221">
        <ele>0.19999999999999</ele>
        <time>2023-10-28T08:58:10Z</time>
      </trkpt>
      <trkpt lat="50.85173" lon="3.27215">
        <ele>0.19999999999999</ele>
        <time>2023-10-28T08:58:11Z</time>
      </trkpt>
      <trkpt lat="50.85172" lon="3.27207">
        <ele>-0.19999999999999</ele>
        <time>2023-10-28T08:58:12Z</time>
      </trkpt>
      <trkpt lat="50.85174" lon="3.27201">
        <ele>-0.19999999999999</ele>
        <time>2023-10-28T08:58:13Z</time>
      </trkpt>
      <trkpt lat="50.85176" lon="3.27198">
        <ele>-0.39999999999998</ele>
        <time>2023-10-28T08:58:14Z</time>
      </trkpt>
      <trkpt lat="50.85176" lon="3.27198">
        <ele>-0.39999999999998</ele>
        <time>2023-10-28T08:58:15Z</time>
      </trkpt>
      <trkpt lat="50.85179" lon="3.27196">
        <ele>-0.39999999999998</ele>
        <time>2023-10-28T08:58:16Z</time>
      </trkpt>
      <trkpt lat="50.85185" lon="3.27193">
        <ele>-0.39999999999998</ele>
        <time>2023-10-28T08:58:17Z</time>
      </trkpt>
      <trkpt lat="50.8519" lon="3.27192">
        <ele>-0.39999999999998</ele>
        <time>2023-10-28T08:58:18Z</time>
      </trkpt>
      <trkpt lat="50.85196" lon="3.27188">
        <ele>-0.39999999999998</ele>
        <time>2023-10-28T08:58:20Z</time>
      </trkpt>
      <trkpt lat="50.85198" lon="3.27186">
        <ele>-0.39999999999998</ele>
        <time>2023-10-28T08:58:21Z</time>
      </trkpt>
      <trkpt lat="50.85201" lon="3.27184">
        <ele>-0.39999999999998</ele>
        <time>2023-10-28T08:58:22Z</time>
      </trkpt>
      <trkpt lat="50.85204" lon="3.27182">
        <ele>-0.19999999999999</ele>
        <time>2023-10-28T08:58:23Z</time>
      </trkpt>
      <trkpt lat="50.85204" lon="3.27182">
        <ele>-0.19999999999999</ele>
        <time>2023-10-28T08:58:24Z</time>
      </trkpt>
      <trkpt lat="50.85209" lon="3.27177">
        <ele>0.19999999999999</ele>
        <time>2023-10-28T08:58:25Z</time>
      </trkpt>
      <trkpt lat="50.85211" lon="3.27175">
        <ele>0.39999999999998</ele>
        <time>2023-10-28T08:58:26Z</time>
      </trkpt>
      <trkpt lat="50.85213" lon="3.27174">
        <ele>0.60000000000002</ele>
        <time>2023-10-28T08:58:27Z</time>
      </trkpt>
      <trkpt lat="50.85214" lon="3.27172">
        <ele>0.80000000000001</ele>
        <time>2023-10-28T08:58:28Z</time>
      </trkpt>
      <trkpt lat="50.85215" lon="3.2717">
        <ele>0.60000000000002</ele>
        <time>2023-10-28T08:58:29Z</time>
      </trkpt>
      <trkpt lat="50.85217" lon="3.27169">
        <ele>0.60000000000002</ele>
        <time>2023-10-28T08:58:30Z</time>
      </trkpt>
      <trkpt lat="50.85219" lon="3.27168">
        <ele>0.60000000000002</ele>
        <time>2023-10-28T08:58:31Z</time>
      </trkpt>
      <trkpt lat="50.85221" lon="3.27168">
        <ele>0.60000000000002</ele>
        <time>2023-10-28T08:58:32Z</time>
      </trkpt>
      <trkpt lat="50.85223" lon="3.27168">
        <ele>0.60000000000002</ele>
        <time>2023-10-28T08:58:33Z</time>
      </trkpt>
      <trkpt lat="50.85226" lon="3.27167">
        <ele>0.60000000000002</ele>
        <time>2023-10-28T08:58:34Z</time>
      </trkpt>
      <trkpt lat="50.85232" lon="3.27165">
        <ele>0.60000000000002</ele>
        <time>2023-10-28T08:58:37Z</time>
      </trkpt>
      <trkpt lat="50.85233" lon="3.27164">
        <ele>0.80000000000001</ele>
        <time>2023-10-28T08:58:38Z</time>
      </trkpt>
      <trkpt lat="50.85233" lon="3.27164">
        <ele>0.60000000000002</ele>
        <time>2023-10-28T08:58:39Z</time>
      </trkpt>
      <trkpt lat="50.85234" lon="3.27163">
        <ele>0.60000000000002</ele>
        <time>2023-10-28T08:58:40Z</time>
      </trkpt>
      <trkpt lat="50.85238" lon="3.27159">
        <ele>0.60000000000002</ele>
        <time>2023-10-28T08:58:41Z</time>
      </trkpt>
      <trkpt lat="50.85238" lon="3.27158">
        <ele>0.60000000000002</ele>
        <time>2023-10-28T08:58:42Z</time>
      </trkpt>
      <trkpt lat="50.85238" lon="3.27158">
        <ele>0.60000000000002</ele>
        <time>2023-10-28T08:58:43Z</time>
      </trkpt>
      <trkpt lat="50.85239" lon="3.27155">
        <ele>0.60000000000002</ele>
        <time>2023-10-28T08:58:44Z</time>
      </trkpt>
      <trkpt lat="50.85238" lon="3.27153">
        <ele>0.60000000000002</ele>
        <time>2023-10-28T08:58:45Z</time>
      </trkpt>
      <trkpt lat="50.85238" lon="3.27154">
        <ele>0.60000000000002</ele>
        <time>2023-10-28T08:58:46Z</time>
      </trkpt>
      <trkpt lat="50.85237" lon="3.27156">
        <ele>0.60000000000002</ele>
        <time>2023-10-28T08:58:47Z</time>
      </trkpt>
      <trkpt lat="50.85237" lon="3.27159">
        <ele>0.60000000000002</ele>
        <time>2023-10-28T08:58:48Z</time>
      </trkpt>
      <trkpt lat="50.85238" lon="3.27162">
        <ele>0.60000000000002</ele>
        <time>2023-10-28T08:58:49Z</time>
      </trkpt>
      <trkpt lat="50.85245" lon="3.27167">
        <ele>0.39999999999998</ele>
        <time>2023-10-28T08:58:51Z</time>
      </trkpt>
      <trkpt lat="50.85254" lon="3.27163">
        <ele>0.39999999999998</ele>
        <time>2023-10-28T08:58:54Z</time>
      </trkpt>
      <trkpt lat="50.85256" lon="3.2716">
        <ele>0.39999999999998</ele>
        <time>2023-10-28T08:58:55Z</time>
      </trkpt>
      <trkpt lat="50.85258" lon="3.27158">
        <ele>0.39999999999998</ele>
        <time>2023-10-28T08:58:56Z</time>
      </trkpt>
      <trkpt lat="50.85264" lon="3.27153">
        <ele>0.19999999999999</ele>
        <time>2023-10-28T08:58:58Z</time>
      </trkpt>
      <trkpt lat="50.85267" lon="3.27151">
        <ele>0.19999999999999</ele>
        <time>2023-10-28T08:58:59Z</time>
      </trkpt>
      <trkpt lat="50.8527" lon="3.27153">
        <ele>0.19999999999999</ele>
        <time>2023-10-28T08:59:00Z</time>
      </trkpt>
      <trkpt lat="50.85272" lon="3.27154">
        <ele>0.19999999999999</ele>
        <time>2023-10-28T08:59:01Z</time>
      </trkpt>
      <trkpt lat="50.85274" lon="3.27156">
        <ele>0.19999999999999</ele>
        <time>2023-10-28T08:59:02Z</time>
      </trkpt>
      <trkpt lat="50.85275" lon="3.27158">
        <ele>-0.19999999999999</ele>
        <time>2023-10-28T08:59:03Z</time>
      </trkpt>
      <trkpt lat="50.85275" lon="3.27159">
        <ele>-0.39999999999998</ele>
        <time>2023-10-28T08:59:04Z</time>
      </trkpt>
      <trkpt lat="50.85276" lon="3.2716">
        <ele>-0.60000000000002</ele>
        <time>2023-10-28T08:59:05Z</time>
      </trkpt>
      <trkpt lat="50.85278" lon="3.27156">
        <ele>-0.60000000000002</ele>
        <time>2023-10-28T08:59:08Z</time>
      </trkpt>
      <trkpt lat="50.85269" lon="3.27146">
        <ele>-0.80000000000001</ele>
        <time>2023-10-28T08:59:13Z</time>
      </trkpt>
      <trkpt lat="50.85267" lon="3.27144">
        <ele>-0.80000000000001</ele>
        <time>2023-10-28T08:59:14Z</time>
      </trkpt>
      <trkpt lat="50.85265" lon="3.27143">
        <ele>-0.80000000000001</ele>
        <time>2023-10-28T08:59:15Z</time>
      </trkpt>
      <trkpt lat="50.85263" lon="3.27142">
        <ele>-0.80000000000001</ele>
        <time>2023-10-28T08:59:16Z</time>
      </trkpt>
      <trkpt lat="50.85261" lon="3.27143">
        <ele>-0.80000000000001</ele>
        <time>2023-10-28T08:59:17Z</time>
      </trkpt>
      <trkpt lat="50.8526" lon="3.27144">
        <ele>-0.60000000000002</ele>
        <time>2023-10-28T08:59:18Z</time>
      </trkpt>
      <trkpt lat="50.85259" lon="3.27145">
        <ele>-0.60000000000002</ele>
        <time>2023-10-28T08:59:19Z</time>
      </trkpt>
      <trkpt lat="50.85259" lon="3.27146">
        <ele>-0.60000000000002</ele>
        <time>2023-10-28T08:59:20Z</time>
      </trkpt>
      <trkpt lat="50.85259" lon="3.27147">
        <ele>-0.39999999999998</ele>
        <time>2023-10-28T08:59:21Z</time>
      </trkpt>
      <trkpt lat="50.85259" lon="3.27148">
        <ele>-0.19999999999999</ele>
        <time>2023-10-28T08:59:22Z</time>
      </trkpt>
      <trkpt lat="50.8526" lon="3.27149">
        <ele>-0.19999999999999</ele>
        <time>2023-10-28T08:59:23Z</time>
      </trkpt>
      <trkpt lat="50.85261" lon="3.2715">
        <ele>-0.19999999999999</ele>
        <time>2023-10-28T08:59:24Z</time>
      </trkpt>
      <trkpt lat="50.85264" lon="3.27148">
        <ele>-0.19999999999999</ele>
        <time>2023-10-28T08:59:26Z</time>
      </trkpt>
      <trkpt lat="50.85265" lon="3.27146">
        <ele>-0.19999999999999</ele>
        <time>2023-10-28T08:59:27Z</time>
      </trkpt>
      <trkpt lat="50.8527" lon="3.27132">
        <ele>0.19999999999999</ele>
        <time>2023-10-28T08:59:31Z</time>
      </trkpt>
      <trkpt lat="50.85271" lon="3.27131">
        <ele>0.19999999999999</ele>
        <time>2023-10-28T08:59:32Z</time>
      </trkpt>
      <trkpt lat="50.85272" lon="3.27131">
        <ele>0.19999999999999</ele>
        <time>2023-10-28T08:59:33Z</time>
      </trkpt>
      <trkpt lat="50.85273" lon="3.27132">
        <ele>0.19999999999999</ele>
        <time>2023-10-28T08:59:34Z</time>
      </trkpt>
      <trkpt lat="50.85274" lon="3.27134">
        <ele>0.19999999999999</ele>
        <time>2023-10-28T08:59:35Z</time>
      </trkpt>
      <trkpt lat="50.85274" lon="3.27136">
        <ele>0.19999999999999</ele>
        <time>2023-10-28T08:59:36Z</time>
      </trkpt>
      <trkpt lat="50.85276" lon="3.27153">
        <ele>0.19999999999999</ele>
        <time>2023-10-28T08:59:40Z</time>
      </trkpt>
      <trkpt lat="50.85282" lon="3.27169">
        <ele>0.19999999999999</ele>
        <time>2023-10-28T08:59:43Z</time>
      </trkpt>
      <trkpt lat="50.85283" lon="3.27173">
        <ele>0.19999999999999</ele>
        <time>2023-10-28T08:59:44Z</time>
      </trkpt>
      <trkpt lat="50.85284" lon="3.27177">
        <ele>0.19999999999999</ele>
        <time>2023-10-28T08:59:45Z</time>
      </trkpt>
      <trkpt lat="50.85287" lon="3.27182">
        <ele>0.19999999999999</ele>
        <time>2023-10-28T08:59:46Z</time>
      </trkpt>
      <trkpt lat="50.85289" lon="3.27186">
        <ele>0.19999999999999</ele>
        <time>2023-10-28T08:59:47Z</time>
      </trkpt>
      <trkpt lat="50.8529" lon="3.27189">
        <ele>0.19999999999999</ele>
        <time>2023-10-28T08:59:48Z</time>
      </trkpt>
      <trkpt lat="50.85291" lon="3.27198">
        <ele>0.19999999999999</ele>
        <time>2023-10-28T08:59:50Z</time>
      </trkpt>
      <trkpt lat="50.85292" lon="3.27203">
        <ele>0.39999999999998</ele>
        <time>2023-10-28T08:59:51Z</time>
      </trkpt>
      <trkpt lat="50.85293" lon="3.27206">
        <ele>0.39999999999998</ele>
        <time>2023-10-28T08:59:52Z</time>
      </trkpt>
      <trkpt lat="50.85293" lon="3.27207">
        <ele>0.60000000000002</ele>
        <time>2023-10-28T08:59:53Z</time>
      </trkpt>
      <trkpt lat="50.85294" lon="3.2721">
        <ele>0.80000000000001</ele>
        <time>2023-10-28T08:59:54Z</time>
      </trkpt>
      <trkpt lat="50.85295" lon="3.27213">
        <ele>0.80000000000001</ele>
        <time>2023-10-28T08:59:55Z</time>
      </trkpt>
      <trkpt lat="50.85298" lon="3.27227">
        <ele>1</ele>
        <time>2023-10-28T08:59:58Z</time>
      </trkpt>
      <trkpt lat="50.85298" lon="3.27233">
        <ele>1</ele>
        <time>2023-10-28T08:59:59Z</time>
      </trkpt>
      <trkpt lat="50.85297" lon="3.27239">
        <ele>1</ele>
        <time>2023-10-28T09:00:00Z</time>
      </trkpt>
      <trkpt lat="50.85297" lon="3.27245">
        <ele>1</ele>
        <time>2023-10-28T09:00:01Z</time>
      </trkpt>
      <trkpt lat="50.85297" lon="3.27249">
        <ele>1</ele>
        <time>2023-10-28T09:00:02Z</time>
      </trkpt>
      <trkpt lat="50.85297" lon="3.27254">
        <ele>1</ele>
        <time>2023-10-28T09:00:03Z</time>
      </trkpt>
      <trkpt lat="50.85299" lon="3.27257">
        <ele>1</ele>
        <time>2023-10-28T09:00:04Z</time>
      </trkpt>
      <trkpt lat="50.8531" lon="3.27264">
        <ele>1</ele>
        <time>2023-10-28T09:00:08Z</time>
      </trkpt>
      <trkpt lat="50.8531" lon="3.27264">
        <ele>1</ele>
        <time>2023-10-28T09:00:09Z</time>
      </trkpt>
      <trkpt lat="50.85314" lon="3.27265">
        <ele>1</ele>
        <time>2023-10-28T09:00:10Z</time>
      </trkpt>
      <trkpt lat="50.85316" lon="3.27265">
        <ele>1</ele>
        <time>2023-10-28T09:00:11Z</time>
      </trkpt>
      <trkpt lat="50.85317" lon="3.27264">
        <ele>1</ele>
        <time>2023-10-28T09:00:12Z</time>
      </trkpt>
      <trkpt lat="50.85318" lon="3.27263">
        <ele>1</ele>
        <time>2023-10-28T09:00:13Z</time>
      </trkpt>
      <trkpt lat="50.85318" lon="3.27263">
        <ele>1</ele>
        <time>2023-10-28T09:00:14Z</time>
      </trkpt>
      <trkpt lat="50.85318" lon="3.27258">
        <ele>1</ele>
        <time>2023-10-28T09:00:15Z</time>
      </trkpt>
      <trkpt lat="50.85319" lon="3.27257">
        <ele>1</ele>
        <time>2023-10-28T09:00:16Z</time>
      </trkpt>
      <trkpt lat="50.85319" lon="3.27257">
        <ele>1</ele>
        <time>2023-10-28T09:00:18Z</time>
      </trkpt>
      <trkpt lat="50.85313" lon="3.27263">
        <ele>1</ele>
        <time>2023-10-28T09:04:07Z</time>
      </trkpt>
      <trkpt lat="50.85311" lon="3.27263">
        <ele>1</ele>
        <time>2023-10-28T09:04:08Z</time>
      </trkpt>
      <trkpt lat="50.85297" lon="3.27256">
        <ele>1</ele>
        <time>2023-10-28T09:04:13Z</time>
      </trkpt>
      <trkpt lat="50.85295" lon="3.27252">
        <ele>1</ele>
        <time>2023-10-28T09:04:14Z</time>
      </trkpt>
      <trkpt lat="50.85293" lon="3.27247">
        <ele>1</ele>
        <time>2023-10-28T09:04:15Z</time>
      </trkpt>
      <trkpt lat="50.85293" lon="3.27242">
        <ele>1</ele>
        <time>2023-10-28T09:04:16Z</time>
      </trkpt>
      <trkpt lat="50.85295" lon="3.27229">
        <ele>1</ele>
        <time>2023-10-28T09:04:18Z</time>
      </trkpt>
      <trkpt lat="50.85295" lon="3.27222">
        <ele>1</ele>
        <time>2023-10-28T09:04:19Z</time>
      </trkpt>
      <trkpt lat="50.85293" lon="3.27207">
        <ele>0.80000000000001</ele>
        <time>2023-10-28T09:04:21Z</time>
      </trkpt>
      <trkpt lat="50.85292" lon="3.272">
        <ele>0.80000000000001</ele>
        <time>2023-10-28T09:04:22Z</time>
      </trkpt>
      <trkpt lat="50.85291" lon="3.27194">
        <ele>0.60000000000002</ele>
        <time>2023-10-28T09:04:23Z</time>
      </trkpt>
      <trkpt lat="50.85289" lon="3.27189">
        <ele>0.60000000000002</ele>
        <time>2023-10-28T09:04:24Z</time>
      </trkpt>
      <trkpt lat="50.85286" lon="3.27179">
        <ele>0.39999999999998</ele>
        <time>2023-10-28T09:04:26Z</time>
      </trkpt>
      <trkpt lat="50.85281" lon="3.27168">
        <ele>0.19999999999999</ele>
        <time>2023-10-28T09:04:28Z</time>
      </trkpt>
      <trkpt lat="50.85277" lon="3.27156">
        <ele>0.19999999999999</ele>
        <time>2023-10-28T09:04:30Z</time>
      </trkpt>
      <trkpt lat="50.85273" lon="3.27152">
        <ele>0.19999999999999</ele>
        <time>2023-10-28T09:04:31Z</time>
      </trkpt>
      <trkpt lat="50.85269" lon="3.2715">
        <ele>0.19999999999999</ele>
        <time>2023-10-28T09:04:32Z</time>
      </trkpt>
      <trkpt lat="50.85264" lon="3.27151">
        <ele>0.19999999999999</ele>
        <time>2023-10-28T09:04:33Z</time>
      </trkpt>
      <trkpt lat="50.8526" lon="3.27154">
        <ele>0.19999999999999</ele>
        <time>2023-10-28T09:04:34Z</time>
      </trkpt>
      <trkpt lat="50.85252" lon="3.27158">
        <ele>0.19999999999999</ele>
        <time>2023-10-28T09:04:36Z</time>
      </trkpt>
      <trkpt lat="50.85239" lon="3.2716">
        <ele>0.19999999999999</ele>
        <time>2023-10-28T09:04:39Z</time>
      </trkpt>
      <trkpt lat="50.85232" lon="3.27163">
        <ele>0.19999999999999</ele>
        <time>2023-10-28T09:04:42Z</time>
      </trkpt>
      <trkpt lat="50.85226" lon="3.27164">
        <ele>0.19999999999999</ele>
        <time>2023-10-28T09:04:43Z</time>
      </trkpt>
      <trkpt lat="50.85222" lon="3.27164">
        <ele>0.19999999999999</ele>
        <time>2023-10-28T09:04:44Z</time>
      </trkpt>
      <trkpt lat="50.85219" lon="3.27161">
        <ele>0.19999999999999</ele>
        <time>2023-10-28T09:04:45Z</time>
      </trkpt>
      <trkpt lat="50.85214" lon="3.27149">
        <ele>0.19999999999999</ele>
        <time>2023-10-28T09:04:47Z</time>
      </trkpt>
      <trkpt lat="50.85212" lon="3.27144">
        <ele>0.19999999999999</ele>
        <time>2023-10-28T09:04:48Z</time>
      </trkpt>
      <trkpt lat="50.85208" lon="3.27139">
        <ele>0.19999999999999</ele>
        <time>2023-10-28T09:04:49Z</time>
      </trkpt>
      <trkpt lat="50.85198" lon="3.27128">
        <ele>0.19999999999999</ele>
        <time>2023-10-28T09:04:52Z</time>
      </trkpt>
      <trkpt lat="50.85193" lon="3.27128">
        <ele>0.19999999999999</ele>
        <time>2023-10-28T09:04:53Z</time>
      </trkpt>
      <trkpt lat="50.85176" lon="3.2714">
        <ele>0.19999999999999</ele>
        <time>2023-10-28T09:04:58Z</time>
      </trkpt>
      <trkpt lat="50.85173" lon="3.27142">
        <ele>0.19999999999999</ele>
        <time>2023-10-28T09:04:59Z</time>
      </trkpt>
      <trkpt lat="50.85172" lon="3.27143">
        <ele>0.19999999999999</ele>
        <time>2023-10-28T09:05:00Z</time>
      </trkpt>
      <trkpt lat="50.8517" lon="3.27144">
        <ele>0.19999999999999</ele>
        <time>2023-10-28T09:05:01Z</time>
      </trkpt>
      <trkpt lat="50.85168" lon="3.27144">
        <ele>0.19999999999999</ele>
        <time>2023-10-28T09:05:02Z</time>
      </trkpt>
      <trkpt lat="50.85168" lon="3.27144">
        <ele>0.19999999999999</ele>
        <time>2023-10-28T09:05:03Z</time>
      </trkpt>
      <trkpt lat="50.85167" lon="3.27144">
        <ele>0.19999999999999</ele>
        <time>2023-10-28T09:05:04Z</time>
      </trkpt>
      <trkpt lat="50.85167" lon="3.27144">
        <ele>0.19999999999999</ele>
        <time>2023-10-28T09:05:05Z</time>
      </trkpt>
      <trkpt lat="50.85167" lon="3.27144">
        <ele>0.19999999999999</ele>
        <time>2023-10-28T09:05:07Z</time>
      </trkpt>
    </trkseg>
  </trk>
</gpx>